<?xml version="1.0" encoding="UTF-8" standalone="no" ?><gpx xmlns="http://www.topografix.com/GPX/1/1" xmlns:gpxx="http://www.garmin.com/xmlschemas/GpxExtensions/v3" xmlns:wptx1="http://www.garmin.com/xmlschemas/WaypointExtension/v1" xmlns:gpxtpx="http://www.garmin.com/xmlschemas/TrackPointExtension/v1" creator="GuideVTT.com" version="1.1" xmlns:xsi="http://www.w3.org/2001/XMLSchema-instance" xsi:schemaLocation="http://www.topografix.com/GPX/1/1 http://www.topografix.com/GPX/1/1/gpx.xsd http://www.garmin.com/xmlschemas/GpxExtensions/v3 http://www8.garmin.com/xmlschemas/GpxExtensionsv3.xsd http://www.garmin.com/xmlschemas/WaypointExtension/v1 http://www8.garmin.com/xmlschemas/WaypointExtensionv1.xsd http://www.garmin.com/xmlschemas/TrackPointExtension/v1 http://www.garmin.com/xmlschemas/TrackPointExtensionv1.xsd">
<metadata><link href="http://www.garmin.com"><text>Garmin International</text></link><time>2013-06-22T15:13:50Z</time></metadata>
<trk><name>cousimbert.gpx</name><extensions><gpxx:TrackExtension><gpxx:DisplayColor>Cyan</gpxx:DisplayColor></gpxx:TrackExtension></extensions><trkseg>
<trkpt lat="46.717187018948415" lon="7.100267618528308"><ele></ele><time>2016-7-22T18:5:4Z</time></trkpt>
<trkpt lat="46.717175871011655" lon="7.1002658580792835"><ele></ele><time>2016-7-22T18:5:7Z</time></trkpt>
<trkpt lat="46.717132368947006" lon="7.100255882643078"><ele></ele><time>2016-7-22T18:5:10Z</time></trkpt>
<trkpt lat="46.717132285177975" lon="7.100251356415859"><ele></ele><time>2016-7-22T18:5:13Z</time></trkpt>
<trkpt lat="46.71711292285076" lon="7.100259234966001"><ele></ele><time>2016-7-22T18:5:16Z</time></trkpt>
<trkpt lat="46.71703354614319" lon="7.100250767466134"><ele></ele><time>2016-7-22T18:5:19Z</time></trkpt>
<trkpt lat="46.717041424398815" lon="7.10031849338518"><ele></ele><time>2016-7-22T18:5:22Z</time></trkpt>
<trkpt lat="46.71710739013155" lon="7.100317908133211"><ele></ele><time>2016-7-22T18:5:25Z</time></trkpt>
<trkpt lat="46.717070761669625" lon="7.100269459935946"><ele></ele><time>2016-7-22T18:5:28Z</time></trkpt>
<trkpt lat="46.71702910603463" lon="7.1000424771816535"><ele></ele><time>2016-7-22T18:5:31Z</time></trkpt>
<trkpt lat="46.71698015942702" lon="7.099698399137263"><ele></ele><time>2016-7-22T18:5:34Z</time></trkpt>
<trkpt lat="46.716922158762486" lon="7.0994968969875565"><ele></ele><time>2016-7-22T18:5:37Z</time></trkpt>
<trkpt lat="46.716826272625816" lon="7.099221968552887"><ele></ele><time>2016-7-22T18:5:40Z</time></trkpt>
<trkpt lat="46.716768187617305" lon="7.099067824128779"><ele></ele><time>2016-7-22T18:5:43Z</time></trkpt>
<trkpt lat="46.716675987877636" lon="7.098941506841978"><ele></ele><time>2016-7-22T18:5:46Z</time></trkpt>
<trkpt lat="46.716545399829855" lon="7.098734638644379"><ele></ele><time>2016-7-22T18:5:49Z</time></trkpt>
<trkpt lat="46.716425037565415" lon="7.098542355179866"><ele></ele><time>2016-7-22T18:5:52Z</time></trkpt>
<trkpt lat="46.716286906119315" lon="7.098305731070288"><ele></ele><time>2016-7-22T18:5:55Z</time></trkpt>
<trkpt lat="46.71618657644636" lon="7.09813172059429"><ele></ele><time>2016-7-22T18:5:58Z</time></trkpt>
<trkpt lat="46.71613670613741" lon="7.097940276902576"><ele></ele><time>2016-7-22T18:6:1Z</time></trkpt>
<trkpt lat="46.71609924102855" lon="7.097752856800998"><ele></ele><time>2016-7-22T18:6:4Z</time></trkpt>
<trkpt lat="46.71605859150595" lon="7.097500979825089"><ele></ele><time>2016-7-22T18:6:7Z</time></trkpt>
<trkpt lat="46.71600302171194" lon="7.097289670904"><ele></ele><time>2016-7-22T18:6:10Z</time></trkpt>
<trkpt lat="46.715934460100534" lon="7.097063861005224"><ele></ele><time>2016-7-22T18:6:13Z</time></trkpt>
<trkpt lat="46.71587620724342" lon="7.096928911122232"><ele></ele><time>2016-7-22T18:6:16Z</time></trkpt>
<trkpt lat="46.71580856728073" lon="7.09673579064927"><ele></ele><time>2016-7-22T18:6:19Z</time></trkpt>
<trkpt lat="46.715733048320196" lon="7.096541915627752"><ele></ele><time>2016-7-22T18:6:22Z</time></trkpt>
<trkpt lat="46.71566574437064" lon="7.096282661978936"><ele></ele><time>2016-7-22T18:6:25Z</time></trkpt>
<trkpt lat="46.7156307941497" lon="7.096067497846361"><ele></ele><time>2016-7-22T18:6:28Z</time></trkpt>
<trkpt lat="46.71560137762131" lon="7.095706404977393"><ele></ele><time>2016-7-22T18:6:31Z</time></trkpt>
<trkpt lat="46.71562594017275" lon="7.095390072664044"><ele></ele><time>2016-7-22T18:6:34Z</time></trkpt>
<trkpt lat="46.715659052025934" lon="7.095097042222526"><ele></ele><time>2016-7-22T18:6:37Z</time></trkpt>
<trkpt lat="46.71567959194991" lon="7.094718432309871"><ele></ele><time>2016-7-22T18:6:40Z</time></trkpt>
<trkpt lat="46.715672388919856" lon="7.094231527637957"><ele></ele><time>2016-7-22T18:6:43Z</time></trkpt>
<trkpt lat="46.71564506659414" lon="7.093985602107169"><ele></ele><time>2016-7-22T18:6:46Z</time></trkpt>
<trkpt lat="46.715586144822275" lon="7.0937038851553815"><ele></ele><time>2016-7-22T18:6:49Z</time></trkpt>
<trkpt lat="46.715462599893705" lon="7.093291157665321"><ele></ele><time>2016-7-22T18:6:52Z</time></trkpt>
<trkpt lat="46.71526915087304" lon="7.092776672343582"><ele></ele><time>2016-7-22T18:6:55Z</time></trkpt>
<trkpt lat="46.715071007982424" lon="7.0922618516372395"><ele></ele><time>2016-7-22T18:6:58Z</time></trkpt>
<trkpt lat="46.71501535538791" lon="7.091960102016922"><ele></ele><time>2016-7-22T18:7:1Z</time></trkpt>
<trkpt lat="46.71507746728622" lon="7.0917936389040745"><ele></ele><time>2016-7-22T18:7:4Z</time></trkpt>
<trkpt lat="46.71509582471367" lon="7.091702360438117"><ele></ele><time>2016-7-22T18:7:7Z</time></trkpt>
<trkpt lat="46.71509976454152" lon="7.091673275337469"><ele></ele><time>2016-7-22T18:7:10Z</time></trkpt>
<trkpt lat="46.71512692406005" lon="7.091485856688621"><ele></ele><time>2016-7-22T18:7:13Z</time></trkpt>
<trkpt lat="46.71515173680356" lon="7.091283853482671"><ele></ele><time>2016-7-22T18:7:16Z</time></trkpt>
<trkpt lat="46.7151772203501" lon="7.091059554440655"><ele></ele><time>2016-7-22T18:7:19Z</time></trkpt>
<trkpt lat="46.715173032793224" lon="7.090754704679383"><ele></ele><time>2016-7-22T18:7:22Z</time></trkpt>
<trkpt lat="46.715196086514005" lon="7.090447089506683"><ele></ele><time>2016-7-22T18:7:25Z</time></trkpt>
<trkpt lat="46.715216625123354" lon="7.090187418739623"><ele></ele><time>2016-7-22T18:7:28Z</time></trkpt>
<trkpt lat="46.715166169576406" lon="7.089863205746387"><ele></ele><time>2016-7-22T18:7:31Z</time></trkpt>
<trkpt lat="46.715178410197694" lon="7.089593392694074"><ele></ele><time>2016-7-22T18:7:34Z</time></trkpt>
<trkpt lat="46.715215209220936" lon="7.089379906558184"><ele></ele><time>2016-7-22T18:7:37Z</time></trkpt>
<trkpt lat="46.715218314364776" lon="7.08903708695936"><ele></ele><time>2016-7-22T18:7:40Z</time></trkpt>
<trkpt lat="46.71523809803608" lon="7.088828210483622"><ele></ele><time>2016-7-22T18:7:43Z</time></trkpt>
<trkpt lat="46.71519610676841" lon="7.0886350067623"><ele></ele><time>2016-7-22T18:7:46Z</time></trkpt>
<trkpt lat="46.71516693927423" lon="7.0884925138197215"><ele></ele><time>2016-7-22T18:7:49Z</time></trkpt>
<trkpt lat="46.715099047443864" lon="7.088337279514773"><ele></ele><time>2016-7-22T18:7:52Z</time></trkpt>
<trkpt lat="46.71501288378287" lon="7.088114235233186"><ele></ele><time>2016-7-22T18:7:55Z</time></trkpt>
<trkpt lat="46.7149281441852" lon="7.087968388273364"><ele></ele><time>2016-7-22T18:7:58Z</time></trkpt>
<trkpt lat="46.71484005133501" lon="7.087865791836403"><ele></ele><time>2016-7-22T18:8:1Z</time></trkpt>
<trkpt lat="46.71480576980948" lon="7.087818014236334"><ele></ele><time>2016-7-22T18:8:4Z</time></trkpt>
<trkpt lat="46.714759418455415" lon="7.087757831152569"><ele></ele><time>2016-7-22T18:8:7Z</time></trkpt>
<trkpt lat="46.71469127444621" lon="7.087667137463118"><ele></ele><time>2016-7-22T18:8:10Z</time></trkpt>
<trkpt lat="46.714681886854216" lon="7.087652804203335"><ele></ele><time>2016-7-22T18:8:13Z</time></trkpt>
<trkpt lat="46.71458029885146" lon="7.08757334150175"><ele></ele><time>2016-7-22T18:8:16Z</time></trkpt>
<trkpt lat="46.714516177693014" lon="7.087524808855297"><ele></ele><time>2016-7-22T18:8:19Z</time></trkpt>
<trkpt lat="46.714425234577284" lon="7.087459092708733"><ele></ele><time>2016-7-22T18:8:22Z</time></trkpt>
<trkpt lat="46.7143907012003" lon="7.0874465190787"><ele></ele><time>2016-7-22T18:8:25Z</time></trkpt>
<trkpt lat="46.71433688928034" lon="7.087444925300255"><ele></ele><time>2016-7-22T18:8:28Z</time></trkpt>
<trkpt lat="46.71425474709915" lon="7.0873866692427905"><ele></ele><time>2016-7-22T18:8:31Z</time></trkpt>
<trkpt lat="46.71423253526171" lon="7.087363869974594"><ele></ele><time>2016-7-22T18:8:34Z</time></trkpt>
<trkpt lat="46.71414737582435" lon="7.087284575281884"><ele></ele><time>2016-7-22T18:8:37Z</time></trkpt>
<trkpt lat="46.71405777382499" lon="7.087218104794125"><ele></ele><time>2016-7-22T18:8:40Z</time></trkpt>
<trkpt lat="46.71394512037254" lon="7.087255988428895"><ele></ele><time>2016-7-22T18:8:43Z</time></trkpt>
<trkpt lat="46.713819894382965" lon="7.08726302639037"><ele></ele><time>2016-7-22T18:8:46Z</time></trkpt>
<trkpt lat="46.713761975347914" lon="7.087259085587085"><ele></ele><time>2016-7-22T18:8:49Z</time></trkpt>
<trkpt lat="46.713691064499386" lon="7.087240392347247"><ele></ele><time>2016-7-22T18:8:52Z</time></trkpt>
<trkpt lat="46.7135932476278" lon="7.087226560000026"><ele></ele><time>2016-7-22T18:8:55Z</time></trkpt>
<trkpt lat="46.71347070317133" lon="7.087294534429382"><ele></ele><time>2016-7-22T18:8:58Z</time></trkpt>
<trkpt lat="46.71336726975548" lon="7.087339375249595"><ele></ele><time>2016-7-22T18:9:1Z</time></trkpt>
<trkpt lat="46.713248916879486" lon="7.087352029239324"><ele></ele><time>2016-7-22T18:9:4Z</time></trkpt>
<trkpt lat="46.713150932499346" lon="7.0873266298674515"><ele></ele><time>2016-7-22T18:9:7Z</time></trkpt>
<trkpt lat="46.71303040140694" lon="7.087242556690558"><ele></ele><time>2016-7-22T18:9:10Z</time></trkpt>
<trkpt lat="46.712898638241256" lon="7.087185137698873"><ele></ele><time>2016-7-22T18:9:13Z</time></trkpt>
<trkpt lat="46.71277383168591" lon="7.087162084651477"><ele></ele><time>2016-7-22T18:9:16Z</time></trkpt>
<trkpt lat="46.712636453184054" lon="7.0870554637835035"><ele></ele><time>2016-7-22T18:9:19Z</time></trkpt>
<trkpt lat="46.71251868885688" lon="7.086906179491573"><ele></ele><time>2016-7-22T18:9:22Z</time></trkpt>
<trkpt lat="46.71240737862937" lon="7.086755135146394"><ele></ele><time>2016-7-22T18:9:25Z</time></trkpt>
<trkpt lat="46.712231360573014" lon="7.086550026085152"><ele></ele><time>2016-7-22T18:9:28Z</time></trkpt>
<trkpt lat="46.7121079811032" lon="7.086334357021531"><ele></ele><time>2016-7-22T18:9:31Z</time></trkpt>
<trkpt lat="46.71190983487559" lon="7.086120278825032"><ele></ele><time>2016-7-22T18:9:34Z</time></trkpt>
<trkpt lat="46.7117172202745" lon="7.085945679498845"><ele></ele><time>2016-7-22T18:9:37Z</time></trkpt>
<trkpt lat="46.71153952584014" lon="7.0857402351197925"><ele></ele><time>2016-7-22T18:9:40Z</time></trkpt>
<trkpt lat="46.711459229568675" lon="7.085513922016421"><ele></ele><time>2016-7-22T18:9:43Z</time></trkpt>
<trkpt lat="46.71135881697926" lon="7.085261456930536"><ele></ele><time>2016-7-22T18:9:46Z</time></trkpt>
<trkpt lat="46.71128162275584" lon="7.084969513623633"><ele></ele><time>2016-7-22T18:9:49Z</time></trkpt>
<trkpt lat="46.71126201064264" lon="7.084828361992372"><ele></ele><time>2016-7-22T18:9:52Z</time></trkpt>
<trkpt lat="46.711318087343976" lon="7.084681596203789"><ele></ele><time>2016-7-22T18:9:55Z</time></trkpt>
<trkpt lat="46.711393862525945" lon="7.084448832573644"><ele></ele><time>2016-7-22T18:9:58Z</time></trkpt>
<trkpt lat="46.71146301555772" lon="7.084254625531258"><ele></ele><time>2016-7-22T18:10:1Z</time></trkpt>
<trkpt lat="46.711485731905434" lon="7.084135183979342"><ele></ele><time>2016-7-22T18:10:4Z</time></trkpt>
<trkpt lat="46.71145530602597" lon="7.084091010679523"><ele></ele><time>2016-7-22T18:10:7Z</time></trkpt>
<trkpt lat="46.71140778067006" lon="7.084078604390857"><ele></ele><time>2016-7-22T18:10:10Z</time></trkpt>
<trkpt lat="46.71135321452456" lon="7.084064018648686"><ele></ele><time>2016-7-22T18:10:13Z</time></trkpt>
<trkpt lat="46.71122480445854" lon="7.083977430715899"><ele></ele><time>2016-7-22T18:10:16Z</time></trkpt>
<trkpt lat="46.711057167481755" lon="7.083847926568021"><ele></ele><time>2016-7-22T18:10:19Z</time></trkpt>
<trkpt lat="46.71095038377108" lon="7.083672490990294"><ele></ele><time>2016-7-22T18:10:22Z</time></trkpt>
<trkpt lat="46.710831949796926" lon="7.083442991896012"><ele></ele><time>2016-7-22T18:10:25Z</time></trkpt>
<trkpt lat="46.71068677810191" lon="7.083159345123551"><ele></ele><time>2016-7-22T18:10:28Z</time></trkpt>
<trkpt lat="46.71054001259051" lon="7.082987177577695"><ele></ele><time>2016-7-22T18:10:31Z</time></trkpt>
<trkpt lat="46.71040280296719" lon="7.082770753818305"><ele></ele><time>2016-7-22T18:10:34Z</time></trkpt>
<trkpt lat="46.7103049875729" lon="7.082625744736383"><ele></ele><time>2016-7-22T18:10:37Z</time></trkpt>
<trkpt lat="46.710156546415966" lon="7.082387946876789"><ele></ele><time>2016-7-22T18:10:40Z</time></trkpt>
<trkpt lat="46.71003785935417" lon="7.082303789911236"><ele></ele><time>2016-7-22T18:10:43Z</time></trkpt>
<trkpt lat="46.709918418336" lon="7.082182584932017"><ele></ele><time>2016-7-22T18:10:46Z</time></trkpt>
<trkpt lat="46.709751787043146" lon="7.082066491839999"><ele></ele><time>2016-7-22T18:10:49Z</time></trkpt>
<trkpt lat="46.7095704038168" lon="7.081928354016498"><ele></ele><time>2016-7-22T18:10:52Z</time></trkpt>
<trkpt lat="46.709407963561745" lon="7.08180547167978"><ele></ele><time>2016-7-22T18:10:55Z</time></trkpt>
<trkpt lat="46.70928910915398" lon="7.081695414638625"><ele></ele><time>2016-7-22T18:10:58Z</time></trkpt>
<trkpt lat="46.70915550435271" lon="7.0814263526248755"><ele></ele><time>2016-7-22T18:11:1Z</time></trkpt>
<trkpt lat="46.709058946925296" lon="7.081221245346338"><ele></ele><time>2016-7-22T18:11:4Z</time></trkpt>
<trkpt lat="46.70894235694769" lon="7.080994679948957"><ele></ele><time>2016-7-22T18:11:7Z</time></trkpt>
<trkpt lat="46.70891880382039" lon="7.080988309170192"><ele></ele><time>2016-7-22T18:11:10Z</time></trkpt>
<trkpt lat="46.70886759002556" lon="7.081011022955225"><ele></ele><time>2016-7-22T18:11:13Z</time></trkpt>
<trkpt lat="46.70884889818638" lon="7.081024768846242"><ele></ele><time>2016-7-22T18:11:16Z</time></trkpt>
<trkpt lat="46.70873615998702" lon="7.081145465642018"><ele></ele><time>2016-7-22T18:11:19Z</time></trkpt>
<trkpt lat="46.708482939626506" lon="7.081369340434173"><ele></ele><time>2016-7-22T18:11:22Z</time></trkpt>
<trkpt lat="46.70825863723184" lon="7.081563292502202"><ele></ele><time>2016-7-22T18:11:25Z</time></trkpt>
<trkpt lat="46.707961998578554" lon="7.0817820533527795"><ele></ele><time>2016-7-22T18:11:28Z</time></trkpt>
<trkpt lat="46.707808944373284" lon="7.081810799794652"><ele></ele><time>2016-7-22T18:11:31Z</time></trkpt>
<trkpt lat="46.7076899214488" lon="7.081779029692137"><ele></ele><time>2016-7-22T18:11:34Z</time></trkpt>
<trkpt lat="46.70750375949754" lon="7.081732841197502"><ele></ele><time>2016-7-22T18:11:37Z</time></trkpt>
<trkpt lat="46.70738155139718" lon="7.081705178153385"><ele></ele><time>2016-7-22T18:11:40Z</time></trkpt>
<trkpt lat="46.70719530592697" lon="7.081632335214727"><ele></ele><time>2016-7-22T18:11:43Z</time></trkpt>
<trkpt lat="46.70706949378751" lon="7.0815880759266285"><ele></ele><time>2016-7-22T18:11:46Z</time></trkpt>
<trkpt lat="46.70693974238839" lon="7.081522191247056"><ele></ele><time>2016-7-22T18:11:49Z</time></trkpt>
<trkpt lat="46.70683815394865" lon="7.081482626372626"><ele></ele><time>2016-7-22T18:11:52Z</time></trkpt>
<trkpt lat="46.70668250196489" lon="7.081456638948499"><ele></ele><time>2016-7-22T18:11:55Z</time></trkpt>
<trkpt lat="46.70648678465844" lon="7.081407516570513"><ele></ele><time>2016-7-22T18:11:58Z</time></trkpt>
<trkpt lat="46.7063212418914" lon="7.081391922477578"><ele></ele><time>2016-7-22T18:12:1Z</time></trkpt>
<trkpt lat="46.706137509959916" lon="7.081411531951776"><ele></ele><time>2016-7-22T18:12:4Z</time></trkpt>
<trkpt lat="46.70601186470144" lon="7.081434746962027"><ele></ele><time>2016-7-22T18:12:7Z</time></trkpt>
<trkpt lat="46.7059935920814" lon="7.0814375963931555"><ele></ele><time>2016-7-22T18:12:10Z</time></trkpt>
<trkpt lat="46.70592720691002" lon="7.081469278468112"><ele></ele><time>2016-7-22T18:12:13Z</time></trkpt>
<trkpt lat="46.70577960066417" lon="7.081524008924268"><ele></ele><time>2016-7-22T18:12:16Z</time></trkpt>
<trkpt lat="46.70559712557224" lon="7.081583600091072"><ele></ele><time>2016-7-22T18:12:19Z</time></trkpt>
<trkpt lat="46.705389839966045" lon="7.081645705264971"><ele></ele><time>2016-7-22T18:12:22Z</time></trkpt>
<trkpt lat="46.70517610027452" lon="7.0817083970257375"><ele></ele><time>2016-7-22T18:12:25Z</time></trkpt>
<trkpt lat="46.70494903286352" lon="7.0818124950712775"><ele></ele><time>2016-7-22T18:12:28Z</time></trkpt>
<trkpt lat="46.704732946032486" lon="7.081893207865149"><ele></ele><time>2016-7-22T18:12:31Z</time></trkpt>
<trkpt lat="46.7045052923677" lon="7.0819546420264325"><ele></ele><time>2016-7-22T18:12:34Z</time></trkpt>
<trkpt lat="46.70438735985051" lon="7.081855816745626"><ele></ele><time>2016-7-22T18:12:37Z</time></trkpt>
<trkpt lat="46.704313014606115" lon="7.0816428309723936"><ele></ele><time>2016-7-22T18:12:40Z</time></trkpt>
<trkpt lat="46.704214112698" lon="7.081219626582318"><ele></ele><time>2016-7-22T18:12:43Z</time></trkpt>
<trkpt lat="46.70417162100723" lon="7.080806397933719"><ele></ele><time>2016-7-22T18:12:46Z</time></trkpt>
<trkpt lat="46.704102222676205" lon="7.0804531830793875"><ele></ele><time>2016-7-22T18:12:49Z</time></trkpt>
<trkpt lat="46.70411261900429" lon="7.080209186198297"><ele></ele><time>2016-7-22T18:12:52Z</time></trkpt>
<trkpt lat="46.70426140177445" lon="7.07988288220152"><ele></ele><time>2016-7-22T18:12:55Z</time></trkpt>
<trkpt lat="46.70443977373381" lon="7.079467144003066"><ele></ele><time>2016-7-22T18:12:58Z</time></trkpt>
<trkpt lat="46.7045209150017" lon="7.079087781042873"><ele></ele><time>2016-7-22T18:13:1Z</time></trkpt>
<trkpt lat="46.70456140434788" lon="7.078673464635033"><ele></ele><time>2016-7-22T18:13:4Z</time></trkpt>
<trkpt lat="46.704654026274895" lon="7.0785225925375785"><ele></ele><time>2016-7-22T18:13:7Z</time></trkpt>
<trkpt lat="46.70486466684206" lon="7.078265943544668"><ele></ele><time>2016-7-22T18:13:10Z</time></trkpt>
<trkpt lat="46.70498872331325" lon="7.077907536315042"><ele></ele><time>2016-7-22T18:13:13Z</time></trkpt>
<trkpt lat="46.70501370561622" lon="7.077536973076565"><ele></ele><time>2016-7-22T18:13:16Z</time></trkpt>
<trkpt lat="46.7050101859845" lon="7.077468241414987"><ele></ele><time>2016-7-22T18:13:19Z</time></trkpt>
<trkpt lat="46.704995187160996" lon="7.077041350897379"><ele></ele><time>2016-7-22T18:13:22Z</time></trkpt>
<trkpt lat="46.70499225660464" lon="7.076765167219681"><ele></ele><time>2016-7-22T18:13:25Z</time></trkpt>
<trkpt lat="46.704979267894096" lon="7.0764756560916116"><ele></ele><time>2016-7-22T18:13:28Z</time></trkpt>
<trkpt lat="46.70498765362685" lon="7.07613794952426"><ele></ele><time>2016-7-22T18:13:31Z</time></trkpt>
<trkpt lat="46.7049916774703" lon="7.076091765345918"><ele></ele><time>2016-7-22T18:13:34Z</time></trkpt>
<trkpt lat="46.705036608064546" lon="7.07578197133889"><ele></ele><time>2016-7-22T18:13:37Z</time></trkpt>
<trkpt lat="46.70511171372009" lon="7.0754593537126125"><ele></ele><time>2016-7-22T18:13:40Z</time></trkpt>
<trkpt lat="46.705221268294586" lon="7.075205552272453"><ele></ele><time>2016-7-22T18:13:43Z</time></trkpt>
<trkpt lat="46.70539234728283" lon="7.074853264908934"><ele></ele><time>2016-7-22T18:13:46Z</time></trkpt>
<trkpt lat="46.70541607090872" lon="7.074606418490864"><ele></ele><time>2016-7-22T18:13:49Z</time></trkpt>
<trkpt lat="46.705398640018075" lon="7.074296287788496"><ele></ele><time>2016-7-22T18:13:52Z</time></trkpt>
<trkpt lat="46.705347935889954" lon="7.073721875015682"><ele></ele><time>2016-7-22T18:13:55Z</time></trkpt>
<trkpt lat="46.70531642511779" lon="7.073257600847942"><ele></ele><time>2016-7-22T18:13:58Z</time></trkpt>
<trkpt lat="46.70527745482655" lon="7.072758960718944"><ele></ele><time>2016-7-22T18:14:1Z</time></trkpt>
<trkpt lat="46.70525264982068" lon="7.072274737781106"><ele></ele><time>2016-7-22T18:14:4Z</time></trkpt>
<trkpt lat="46.70528769160943" lon="7.0718014126799424"><ele></ele><time>2016-7-22T18:14:7Z</time></trkpt>
<trkpt lat="46.70539657705332" lon="7.0714226370996975"><ele></ele><time>2016-7-22T18:14:10Z</time></trkpt>
<trkpt lat="46.705569332778595" lon="7.071040174943916"><ele></ele><time>2016-7-22T18:14:13Z</time></trkpt>
<trkpt lat="46.70574057937671" lon="7.070691491812857"><ele></ele><time>2016-7-22T18:14:16Z</time></trkpt>
<trkpt lat="46.70593764346736" lon="7.070239208988748"><ele></ele><time>2016-7-22T18:14:19Z</time></trkpt>
<trkpt lat="46.706217271713705" lon="7.069590204861187"><ele></ele><time>2016-7-22T18:14:22Z</time></trkpt>
<trkpt lat="46.70633244353756" lon="7.069217464400995"><ele></ele><time>2016-7-22T18:14:25Z</time></trkpt>
<trkpt lat="46.70637603178864" lon="7.069018143815591"><ele></ele><time>2016-7-22T18:14:28Z</time></trkpt>
<trkpt lat="46.70637704047244" lon="7.068766686838095"><ele></ele><time>2016-7-22T18:14:31Z</time></trkpt>
<trkpt lat="46.70636665041574" lon="7.068456053385614"><ele></ele><time>2016-7-22T18:14:34Z</time></trkpt>
<trkpt lat="46.70626808210355" lon="7.068184729025871"><ele></ele><time>2016-7-22T18:14:37Z</time></trkpt>
<trkpt lat="46.70616339296255" lon="7.068091938996207"><ele></ele><time>2016-7-22T18:14:40Z</time></trkpt>
<trkpt lat="46.70601872164897" lon="7.068035190221305"><ele></ele><time>2016-7-22T18:14:43Z</time></trkpt>
<trkpt lat="46.70587053048077" lon="7.0679298263451695"><ele></ele><time>2016-7-22T18:14:46Z</time></trkpt>
<trkpt lat="46.705751005357236" lon="7.067835527232996"><ele></ele><time>2016-7-22T18:14:49Z</time></trkpt>
<trkpt lat="46.705668527669104" lon="7.067798980260387"><ele></ele><time>2016-7-22T18:14:52Z</time></trkpt>
<trkpt lat="46.70555671330216" lon="7.067758493123009"><ele></ele><time>2016-7-22T18:14:55Z</time></trkpt>
<trkpt lat="46.70543936621066" lon="7.067775840969722"><ele></ele><time>2016-7-22T18:14:58Z</time></trkpt>
<trkpt lat="46.705336854932916" lon="7.067809617680412"><ele></ele><time>2016-7-22T18:15:1Z</time></trkpt>
<trkpt lat="46.7052024083754" lon="7.067857559071375"><ele></ele><time>2016-7-22T18:15:4Z</time></trkpt>
<trkpt lat="46.7050963764246" lon="7.0679148050221725"><ele></ele><time>2016-7-22T18:15:7Z</time></trkpt>
<trkpt lat="46.705001827955044" lon="7.0679500906575425"><ele></ele><time>2016-7-22T18:15:10Z</time></trkpt>
<trkpt lat="46.704851623532164" lon="7.067985207381005"><ele></ele><time>2016-7-22T18:15:13Z</time></trkpt>
<trkpt lat="46.70470686747044" lon="7.068010433587089"><ele></ele><time>2016-7-22T18:15:16Z</time></trkpt>
<trkpt lat="46.70457476850836" lon="7.068000539921052"><ele></ele><time>2016-7-22T18:15:19Z</time></trkpt>
<trkpt lat="46.70442389475351" lon="7.0679281168494095"><ele></ele><time>2016-7-22T18:15:22Z</time></trkpt>
<trkpt lat="46.70429640715326" lon="7.067803307436215"><ele></ele><time>2016-7-22T18:15:25Z</time></trkpt>
<trkpt lat="46.704217619032725" lon="7.0676328177810905"><ele></ele><time>2016-7-22T18:15:28Z</time></trkpt>
<trkpt lat="46.70416657430241" lon="7.067529970696063"><ele></ele><time>2016-7-22T18:15:31Z</time></trkpt>
<trkpt lat="46.704156516221985" lon="7.067510189181116"><ele></ele><time>2016-7-22T18:15:34Z</time></trkpt>
<trkpt lat="46.7040746262999" lon="7.0673829500597884"><ele></ele><time>2016-7-22T18:15:37Z</time></trkpt>
<trkpt lat="46.703950659608324" lon="7.067214051930133"><ele></ele><time>2016-7-22T18:15:40Z</time></trkpt>
<trkpt lat="46.70383624815364" lon="7.067058648878251"><ele></ele><time>2016-7-22T18:15:43Z</time></trkpt>
<trkpt lat="46.703671965024405" lon="7.066836860032969"><ele></ele><time>2016-7-22T18:15:46Z</time></trkpt>
<trkpt lat="46.703633995376215" lon="7.066796961317649"><ele></ele><time>2016-7-22T18:15:49Z</time></trkpt>
<trkpt lat="46.70350524993461" lon="7.066721018351396"><ele></ele><time>2016-7-22T18:15:52Z</time></trkpt>
<trkpt lat="46.70332353045522" lon="7.066671309519495"><ele></ele><time>2016-7-22T18:15:55Z</time></trkpt>
<trkpt lat="46.70319009050962" lon="7.066650686987714"><ele></ele><time>2016-7-22T18:15:58Z</time></trkpt>
<trkpt lat="46.70299956993677" lon="7.066607767293156"><ele></ele><time>2016-7-22T18:16:1Z</time></trkpt>
<trkpt lat="46.70283251833194" lon="7.066600974126883"><ele></ele><time>2016-7-22T18:16:4Z</time></trkpt>
<trkpt lat="46.70268155988766" lon="7.066605413075862"><ele></ele><time>2016-7-22T18:16:7Z</time></trkpt>
<trkpt lat="46.70250377988014" lon="7.0665585541795854"><ele></ele><time>2016-7-22T18:16:10Z</time></trkpt>
<trkpt lat="46.70234762537621" lon="7.066498703832782"><ele></ele><time>2016-7-22T18:16:13Z</time></trkpt>
<trkpt lat="46.70227520651927" lon="7.066416140453843"><ele></ele><time>2016-7-22T18:16:16Z</time></trkpt>
<trkpt lat="46.702191137857966" lon="7.066239867160227"><ele></ele><time>2016-7-22T18:16:19Z</time></trkpt>
<trkpt lat="46.7021037167089" lon="7.066038951001883"><ele></ele><time>2016-7-22T18:16:22Z</time></trkpt>
<trkpt lat="46.70201621127394" lon="7.065879106153683"><ele></ele><time>2016-7-22T18:16:25Z</time></trkpt>
<trkpt lat="46.70194236848734" lon="7.065708951880604"><ele></ele><time>2016-7-22T18:16:28Z</time></trkpt>
<trkpt lat="46.70184589458372" lon="7.0655327621200295"><ele></ele><time>2016-7-22T18:16:31Z</time></trkpt>
<trkpt lat="46.701771884247044" lon="7.065354896493869"><ele></ele><time>2016-7-22T18:16:34Z</time></trkpt>
<trkpt lat="46.70171564382106" lon="7.065156076523386"><ele></ele><time>2016-7-22T18:16:37Z</time></trkpt>
<trkpt lat="46.701694440232274" lon="7.064921382821641"><ele></ele><time>2016-7-22T18:16:40Z</time></trkpt>
<trkpt lat="46.70173869881323" lon="7.0647421788027565"><ele></ele><time>2016-7-22T18:16:43Z</time></trkpt>
<trkpt lat="46.7017780122263" lon="7.064548473982722"><ele></ele><time>2016-7-22T18:16:46Z</time></trkpt>
<trkpt lat="46.70184917733353" lon="7.064320068825319"><ele></ele><time>2016-7-22T18:16:49Z</time></trkpt>
<trkpt lat="46.701920593430216" lon="7.064132818805729"><ele></ele><time>2016-7-22T18:16:52Z</time></trkpt>
<trkpt lat="46.70199200976874" lon="7.063924362578198"><ele></ele><time>2016-7-22T18:16:55Z</time></trkpt>
<trkpt lat="46.702077173014274" lon="7.0636670401865596"><ele></ele><time>2016-7-22T18:16:58Z</time></trkpt>
<trkpt lat="46.702171640305124" lon="7.063399827366482"><ele></ele><time>2016-7-22T18:17:1Z</time></trkpt>
<trkpt lat="46.702247583240386" lon="7.063159939117468"><ele></ele><time>2016-7-22T18:17:4Z</time></trkpt>
<trkpt lat="46.702329813254835" lon="7.0628640599180805"><ele></ele><time>2016-7-22T18:17:7Z</time></trkpt>
<trkpt lat="46.70236577546966" lon="7.062532891855871"><ele></ele><time>2016-7-22T18:17:10Z</time></trkpt>
<trkpt lat="46.7023771794116" lon="7.062135590035158"><ele></ele><time>2016-7-22T18:17:13Z</time></trkpt>
<trkpt lat="46.702358658456006" lon="7.061864686586264"><ele></ele><time>2016-7-22T18:17:16Z</time></trkpt>
<trkpt lat="46.70232664019075" lon="7.0618057610903"><ele></ele><time>2016-7-22T18:17:19Z</time></trkpt>
<trkpt lat="46.70229353159034" lon="7.0618069337957206"><ele></ele><time>2016-7-22T18:17:22Z</time></trkpt>
<trkpt lat="46.702239970638665" lon="7.061848842067659"><ele></ele><time>2016-7-22T18:17:25Z</time></trkpt>
<trkpt lat="46.70217283092098" lon="7.061895527711002"><ele></ele><time>2016-7-22T18:17:28Z</time></trkpt>
<trkpt lat="46.702075599845905" lon="7.061965179070565"><ele></ele><time>2016-7-22T18:17:31Z</time></trkpt>
<trkpt lat="46.70194224219654" lon="7.0620783316641855"><ele></ele><time>2016-7-22T18:17:34Z</time></trkpt>
<trkpt lat="46.701803771282385" lon="7.06221721657545"><ele></ele><time>2016-7-22T18:17:37Z</time></trkpt>
<trkpt lat="46.70165364960388" lon="7.062346881129059"><ele></ele><time>2016-7-22T18:17:40Z</time></trkpt>
<trkpt lat="46.701544264249534" lon="7.062459950455577"><ele></ele><time>2016-7-22T18:17:43Z</time></trkpt>
<trkpt lat="46.70140814067062" lon="7.0625640505348155"><ele></ele><time>2016-7-22T18:17:46Z</time></trkpt>
<trkpt lat="46.701322057626626" lon="7.0626270804505475"><ele></ele><time>2016-7-22T18:17:49Z</time></trkpt>
<trkpt lat="46.701204374642415" lon="7.062698826817483"><ele></ele><time>2016-7-22T18:17:52Z</time></trkpt>
<trkpt lat="46.70105132008884" lon="7.06275867007361"><ele></ele><time>2016-7-22T18:17:55Z</time></trkpt>
<trkpt lat="46.70083959210049" lon="7.0628176737928055"><ele></ele><time>2016-7-22T18:17:58Z</time></trkpt>
<trkpt lat="46.700651081600036" lon="7.0629146480554725"><ele></ele><time>2016-7-22T18:18:1Z</time></trkpt>
<trkpt lat="46.70045670309644" lon="7.063069457298764"><ele></ele><time>2016-7-22T18:18:4Z</time></trkpt>
<trkpt lat="46.700344467893835" lon="7.063182275105845"><ele></ele><time>2016-7-22T18:18:7Z</time></trkpt>
<trkpt lat="46.70027305299909" lon="7.063263996998564"><ele></ele><time>2016-7-22T18:18:10Z</time></trkpt>
<trkpt lat="46.70013793471244" lon="7.063415538662426"><ele></ele><time>2016-7-22T18:18:13Z</time></trkpt>
<trkpt lat="46.70002938740657" lon="7.063541432320355"><ele></ele><time>2016-7-22T18:18:16Z</time></trkpt>
<trkpt lat="46.69992930591901" lon="7.063660453014316"><ele></ele><time>2016-7-22T18:18:19Z</time></trkpt>
<trkpt lat="46.69983886355915" lon="7.063786598545442"><ele></ele><time>2016-7-22T18:18:22Z</time></trkpt>
<trkpt lat="46.69976895728864" lon="7.063879049306948"><ele></ele><time>2016-7-22T18:18:25Z</time></trkpt>
<trkpt lat="46.69966300793513" lon="7.064043918864504"><ele></ele><time>2016-7-22T18:18:28Z</time></trkpt>
<trkpt lat="46.69951447770213" lon="7.064272322253853"><ele></ele><time>2016-7-22T18:18:31Z</time></trkpt>
<trkpt lat="46.69937516829706" lon="7.0644379454184705"><ele></ele><time>2016-7-22T18:18:34Z</time></trkpt>
<trkpt lat="46.699284476268126" lon="7.064407097943207"><ele></ele><time>2016-7-22T18:18:37Z</time></trkpt>
<trkpt lat="46.69919789188611" lon="7.0643318264876225"><ele></ele><time>2016-7-22T18:18:40Z</time></trkpt>
<trkpt lat="46.69906814120057" lon="7.064205005351379"><ele></ele><time>2016-7-22T18:18:43Z</time></trkpt>
<trkpt lat="46.69896286540725" lon="7.064105928868066"><ele></ele><time>2016-7-22T18:18:46Z</time></trkpt>
<trkpt lat="46.69890972436251" lon="7.064076842452901"><ele></ele><time>2016-7-22T18:18:49Z</time></trkpt>
<trkpt lat="46.69882682791532" lon="7.064011294086189"><ele></ele><time>2016-7-22T18:18:52Z</time></trkpt>
<trkpt lat="46.698742171307885" lon="7.0639419738235425"><ele></ele><time>2016-7-22T18:18:55Z</time></trkpt>
<trkpt lat="46.69866656709257" lon="7.063879862203221"><ele></ele><time>2016-7-22T18:18:58Z</time></trkpt>
<trkpt lat="46.698593309631775" lon="7.063833843886369"><ele></ele><time>2016-7-22T18:19:1Z</time></trkpt>
<trkpt lat="46.69854042023493" lon="7.063788077493813"><ele></ele><time>2016-7-22T18:19:4Z</time></trkpt>
<trkpt lat="46.698530864921025" lon="7.063781455572833"><ele></ele><time>2016-7-22T18:19:7Z</time></trkpt>
<trkpt lat="46.69840580697713" lon="7.063754295344283"><ele></ele><time>2016-7-22T18:19:10Z</time></trkpt>
<trkpt lat="46.69837253125037" lon="7.063710624876854"><ele></ele><time>2016-7-22T18:19:13Z</time></trkpt>
<trkpt lat="46.69833498035276" lon="7.063701320105146"><ele></ele><time>2016-7-22T18:19:16Z</time></trkpt>
<trkpt lat="46.698327352837595" lon="7.0636984700838"><ele></ele><time>2016-7-22T18:19:19Z</time></trkpt>
<trkpt lat="46.69829223301869" lon="7.063660918361674"><ele></ele><time>2016-7-22T18:19:22Z</time></trkpt>
<trkpt lat="46.69827505048377" lon="7.063625630164387"><ele></ele><time>2016-7-22T18:19:25Z</time></trkpt>
<trkpt lat="46.69823791912719" lon="7.06357726574381"><ele></ele><time>2016-7-22T18:19:28Z</time></trkpt>
<trkpt lat="46.6982029668694" lon="7.0635465033652025"><ele></ele><time>2016-7-22T18:19:31Z</time></trkpt>
<trkpt lat="46.698167260453666" lon="7.063496881692094"><ele></ele><time>2016-7-22T18:19:34Z</time></trkpt>
<trkpt lat="46.698145216480405" lon="7.063454971681383"><ele></ele><time>2016-7-22T18:19:37Z</time></trkpt>
<trkpt lat="46.69812317258642" lon="7.063406104692841"><ele></ele><time>2016-7-22T18:19:40Z</time></trkpt>
<trkpt lat="46.69808402959296" lon="7.063355644750643"><ele></ele><time>2016-7-22T18:19:43Z</time></trkpt>
<trkpt lat="46.69805234625082" lon="7.063327816112233"><ele></ele><time>2016-7-22T18:19:46Z</time></trkpt>
<trkpt lat="46.6980087605903" lon="7.06329923282953"><ele></ele><time>2016-7-22T18:19:49Z</time></trkpt>
<trkpt lat="46.69796794112305" lon="7.063256651835644"><ele></ele><time>2016-7-22T18:19:52Z</time></trkpt>
<trkpt lat="46.69791982952261" lon="7.063202000736906"><ele></ele><time>2016-7-22T18:19:55Z</time></trkpt>
<trkpt lat="46.69786333610117" lon="7.0631386322686645"><ele></ele><time>2016-7-22T18:19:58Z</time></trkpt>
<trkpt lat="46.69780390916907" lon="7.0630610983202935"><ele></ele><time>2016-7-22T18:20:1Z</time></trkpt>
<trkpt lat="46.69778437967759" lon="7.063027486448958"><ele></ele><time>2016-7-22T18:20:4Z</time></trkpt>
<trkpt lat="46.69772553944277" lon="7.06295322145528"><ele></ele><time>2016-7-22T18:20:7Z</time></trkpt>
<trkpt lat="46.69771388886003" lon="7.062928075484781"><ele></ele><time>2016-7-22T18:20:10Z</time></trkpt>
<trkpt lat="46.69768337905671" lon="7.062894128085251"><ele></ele><time>2016-7-22T18:20:13Z</time></trkpt>
<trkpt lat="46.69765379129235" lon="7.0628577499555645"><ele></ele><time>2016-7-22T18:20:16Z</time></trkpt>
<trkpt lat="46.6976149837347" lon="7.062793376064756"><ele></ele><time>2016-7-22T18:20:19Z</time></trkpt>
<trkpt lat="46.69757508650549" lon="7.062730929986096"><ele></ele><time>2016-7-22T18:20:22Z</time></trkpt>
<trkpt lat="46.69754046956032" lon="7.062697066311131"><ele></ele><time>2016-7-22T18:20:25Z</time></trkpt>
<trkpt lat="46.697515827173056" lon="7.06265683262037"><ele></ele><time>2016-7-22T18:20:28Z</time></trkpt>
<trkpt lat="46.6974817133572" lon="7.062604193498569"><ele></ele><time>2016-7-22T18:20:31Z</time></trkpt>
<trkpt lat="46.697421364114376" lon="7.0625529786974734"><ele></ele><time>2016-7-22T18:20:34Z</time></trkpt>
<trkpt lat="46.69740510331596" lon="7.062541830395698"><ele></ele><time>2016-7-22T18:20:37Z</time></trkpt>
<trkpt lat="46.69738859106184" lon="7.062530514450125"><ele></ele><time>2016-7-22T18:20:40Z</time></trkpt>
<trkpt lat="46.69737618625354" lon="7.0624924603345045"><ele></ele><time>2016-7-22T18:20:43Z</time></trkpt>
<trkpt lat="46.69737149305378" lon="7.062433200186298"><ele></ele><time>2016-7-22T18:20:46Z</time></trkpt>
<trkpt lat="46.69736881133526" lon="7.062389698058253"><ele></ele><time>2016-7-22T18:20:49Z</time></trkpt>
<trkpt lat="46.69732262770623" lon="7.062323731436356"><ele></ele><time>2016-7-22T18:20:52Z</time></trkpt>
<trkpt lat="46.69727879099582" lon="7.062259441248492"><ele></ele><time>2016-7-22T18:20:55Z</time></trkpt>
<trkpt lat="46.697232188202996" lon="7.062199425766564"><ele></ele><time>2016-7-22T18:20:58Z</time></trkpt>
<trkpt lat="46.69719354849266" lon="7.06211677933456"><ele></ele><time>2016-7-22T18:21:1Z</time></trkpt>
<trkpt lat="46.697170414922056" lon="7.062070343071274"><ele></ele><time>2016-7-22T18:21:4Z</time></trkpt>
<trkpt lat="46.69715884830119" lon="7.062032708069775"><ele></ele><time>2016-7-22T18:21:7Z</time></trkpt>
<trkpt lat="46.69715289745991" lon="7.062004460926457"><ele></ele><time>2016-7-22T18:21:10Z</time></trkpt>
<trkpt lat="46.69713982193757" lon="7.061980488389036"><ele></ele><time>2016-7-22T18:21:13Z</time></trkpt>
<trkpt lat="46.69713512818075" lon="7.0619700947238835"><ele></ele><time>2016-7-22T18:21:16Z</time></trkpt>
<trkpt lat="46.69710093075451" lon="7.061899183055209"><ele></ele><time>2016-7-22T18:21:19Z</time></trkpt>
<trkpt lat="46.69706824172218" lon="7.061859116817121"><ele></ele><time>2016-7-22T18:21:22Z</time></trkpt>
<trkpt lat="46.69703798381391" lon="7.061786864134661"><ele></ele><time>2016-7-22T18:21:25Z</time></trkpt>
<trkpt lat="46.69702054997226" lon="7.061738416345849"><ele></ele><time>2016-7-22T18:21:28Z</time></trkpt>
<trkpt lat="46.69701962881584" lon="7.061663482128925"><ele></ele><time>2016-7-22T18:21:31Z</time></trkpt>
<trkpt lat="46.69701443215336" lon="7.061652250262073"><ele></ele><time>2016-7-22T18:21:34Z</time></trkpt>
<trkpt lat="46.69695014380553" lon="7.061566250479813"><ele></ele><time>2016-7-22T18:21:37Z</time></trkpt>
<trkpt lat="46.6969179586841" lon="7.061438928662584"><ele></ele><time>2016-7-22T18:21:40Z</time></trkpt>
<trkpt lat="46.69690203381779" lon="7.061370364345631"><ele></ele><time>2016-7-22T18:21:43Z</time></trkpt>
<trkpt lat="46.69688786880475" lon="7.061332477827147"><ele></ele><time>2016-7-22T18:21:46Z</time></trkpt>
<trkpt lat="46.69684788822318" lon="7.0612292118867535"><ele></ele><time>2016-7-22T18:21:49Z</time></trkpt>
<trkpt lat="46.69681377482714" lon="7.061139860036941"><ele></ele><time>2016-7-22T18:21:52Z</time></trkpt>
<trkpt lat="46.69680078318546" lon="7.06111052308447"><ele></ele><time>2016-7-22T18:21:55Z</time></trkpt>
<trkpt lat="46.69677278838853" lon="7.061038941005544"><ele></ele><time>2016-7-22T18:21:58Z</time></trkpt>
<trkpt lat="46.69674077011496" lon="7.060980937513905"><ele></ele><time>2016-7-22T18:22:1Z</time></trkpt>
<trkpt lat="46.69672392281579" lon="7.060949337359457"><ele></ele><time>2016-7-22T18:22:4Z</time></trkpt>
<trkpt lat="46.696685115482445" lon="7.060865433637208"><ele></ele><time>2016-7-22T18:22:7Z</time></trkpt>
<trkpt lat="46.69662610844557" lon="7.060718078458961"><ele></ele><time>2016-7-22T18:22:10Z</time></trkpt>
<trkpt lat="46.69657615359574" lon="7.060595869191998"><ele></ele><time>2016-7-22T18:22:13Z</time></trkpt>
<trkpt lat="46.696532317442596" lon="7.060482880156808"><ele></ele><time>2016-7-22T18:22:16Z</time></trkpt>
<trkpt lat="46.6965127886871" lon="7.060384895283402"><ele></ele><time>2016-7-22T18:22:19Z</time></trkpt>
<trkpt lat="46.69648982320366" lon="7.060299231725622"><ele></ele><time>2016-7-22T18:22:22Z</time></trkpt>
<trkpt lat="46.696483201646494" lon="7.06028523379845"><ele></ele><time>2016-7-22T18:22:25Z</time></trkpt>
<trkpt lat="46.69645772143773" lon="7.060212645948582"><ele></ele><time>2016-7-22T18:22:28Z</time></trkpt>
<trkpt lat="46.696437856770046" lon="7.060170316890974"><ele></ele><time>2016-7-22T18:22:31Z</time></trkpt>
<trkpt lat="46.69642360803684" lon="7.060123797011901"><ele></ele><time>2016-7-22T18:22:34Z</time></trkpt>
<trkpt lat="46.69640617424285" lon="7.06007124209073"><ele></ele><time>2016-7-22T18:22:37Z</time></trkpt>
<trkpt lat="46.69637817938349" lon="7.060005192065791"><ele></ele><time>2016-7-22T18:22:40Z</time></trkpt>
<trkpt lat="46.69643031591946" lon="7.05991835676875"><ele></ele><time>2016-7-22T18:22:43Z</time></trkpt>
<trkpt lat="46.696385389887595" lon="7.059825484270663"><ele></ele><time>2016-7-22T18:22:46Z</time></trkpt>
<trkpt lat="46.69634658188108" lon="7.05980058913165"><ele></ele><time>2016-7-22T18:22:49Z</time></trkpt>
<trkpt lat="46.696278018446364" lon="7.0597416627894685"><ele></ele><time>2016-7-22T18:22:52Z</time></trkpt>
<trkpt lat="46.69616494651819" lon="7.059726237490619"><ele></ele><time>2016-7-22T18:22:55Z</time></trkpt>
<trkpt lat="46.69606268772398" lon="7.059670830771704"><ele></ele><time>2016-7-22T18:22:58Z</time></trkpt>
<trkpt lat="46.69596562568602" lon="7.059618441656607"><ele></ele><time>2016-7-22T18:23:1Z</time></trkpt>
<trkpt lat="46.69589739773916" lon="7.0595410751389975"><ele></ele><time>2016-7-22T18:23:4Z</time></trkpt>
<trkpt lat="46.69584869971251" lon="7.059459685757915"><ele></ele><time>2016-7-22T18:23:7Z</time></trkpt>
<trkpt lat="46.69579136858203" lon="7.059354323940605"><ele></ele><time>2016-7-22T18:23:10Z</time></trkpt>
<trkpt lat="46.69577988569419" lon="7.059324316470023"><ele></ele><time>2016-7-22T18:23:13Z</time></trkpt>
<trkpt lat="46.695759015729124" lon="7.059235384017791"><ele></ele><time>2016-7-22T18:23:16Z</time></trkpt>
<trkpt lat="46.69568617839037" lon="7.059099930817944"><ele></ele><time>2016-7-22T18:23:19Z</time></trkpt>
<trkpt lat="46.69566136835007" lon="7.0590611220443265"><ele></ele><time>2016-7-22T18:23:22Z</time></trkpt>
<trkpt lat="46.695633456938936" lon="7.05902759379711"><ele></ele><time>2016-7-22T18:23:25Z</time></trkpt>
<trkpt lat="46.69560277962831" lon="7.058982330824473"><ele></ele><time>2016-7-22T18:23:28Z</time></trkpt>
<trkpt lat="46.69557436547735" lon="7.058933463686335"><ele></ele><time>2016-7-22T18:23:31Z</time></trkpt>
<trkpt lat="46.6955207222841" lon="7.058837573501516"><ele></ele><time>2016-7-22T18:23:34Z</time></trkpt>
<trkpt lat="46.69548191469974" lon="7.058775797996136"><ele></ele><time>2016-7-22T18:23:37Z</time></trkpt>
<trkpt lat="46.695457607455005" lon="7.05874746661046"><ele></ele><time>2016-7-22T18:23:40Z</time></trkpt>
<trkpt lat="46.695432629956635" lon="7.058692899858361"><ele></ele><time>2016-7-22T18:23:43Z</time></trkpt>
<trkpt lat="46.695408658358645" lon="7.058632214341447"><ele></ele><time>2016-7-22T18:23:46Z</time></trkpt>
<trkpt lat="46.69538099886725" lon="7.058558285335597"><ele></ele><time>2016-7-22T18:23:49Z</time></trkpt>
<trkpt lat="46.69536524148023" lon="7.058503802614603"><ele></ele><time>2016-7-22T18:23:52Z</time></trkpt>
<trkpt lat="46.69535241762249" lon="7.058461808994023"><ele></ele><time>2016-7-22T18:23:55Z</time></trkpt>
<trkpt lat="46.695363231303006" lon="7.0583740507365285"><ele></ele><time>2016-7-22T18:23:58Z</time></trkpt>
<trkpt lat="46.69542400116757" lon="7.058291574226838"><ele></ele><time>2016-7-22T18:24:1Z</time></trkpt>
<trkpt lat="46.69550773736706" lon="7.058220162355657"><ele></ele><time>2016-7-22T18:24:4Z</time></trkpt>
<trkpt lat="46.695558867054416" lon="7.0582224266460365"><ele></ele><time>2016-7-22T18:24:7Z</time></trkpt>
<trkpt lat="46.695602369330544" lon="7.0582127884610495"><ele></ele><time>2016-7-22T18:24:10Z</time></trkpt>
<trkpt lat="46.69568769747005" lon="7.058196026622887"><ele></ele><time>2016-7-22T18:24:13Z</time></trkpt>
<trkpt lat="46.69569851027942" lon="7.058184459848097"><ele></ele><time>2016-7-22T18:24:16Z</time></trkpt>
<trkpt lat="46.695692811362605" lon="7.058115476669682"><ele></ele><time>2016-7-22T18:24:19Z</time></trkpt>
<trkpt lat="46.69567797581439" lon="7.058076081392293"><ele></ele><time>2016-7-22T18:24:22Z</time></trkpt>
<trkpt lat="46.69566842115394" lon="7.058012378722862"><ele></ele><time>2016-7-22T18:24:25Z</time></trkpt>
<trkpt lat="46.69563682242591" lon="7.057915231759883"><ele></ele><time>2016-7-22T18:24:28Z</time></trkpt>
<trkpt lat="46.69557965937829" lon="7.057771145561149"><ele></ele><time>2016-7-22T18:24:31Z</time></trkpt>
<trkpt lat="46.69554303078492" lon="7.057736359827485"><ele></ele><time>2016-7-22T18:24:34Z</time></trkpt>
<trkpt lat="46.695491901508944" lon="7.057698137180351"><ele></ele><time>2016-7-22T18:24:37Z</time></trkpt>
<trkpt lat="46.69546633723345" lon="7.057647342269979"><ele></ele><time>2016-7-22T18:24:40Z</time></trkpt>
<trkpt lat="46.6954588776726" lon="7.0576169157965944"><ele></ele><time>2016-7-22T18:24:43Z</time></trkpt>
<trkpt lat="46.69541554409173" lon="7.057534185433106"><ele></ele><time>2016-7-22T18:24:46Z</time></trkpt>
<trkpt lat="46.6953367550336" lon="7.057447514759338"><ele></ele><time>2016-7-22T18:24:49Z</time></trkpt>
<trkpt lat="46.69529140952636" lon="7.057388002215838"><ele></ele><time>2016-7-22T18:24:52Z</time></trkpt>
<trkpt lat="46.69526056448117" lon="7.057351204958748"><ele></ele><time>2016-7-22T18:24:55Z</time></trkpt>
<trkpt lat="46.69520205958668" lon="7.057271827005953"><ele></ele><time>2016-7-22T18:24:58Z</time></trkpt>
<trkpt lat="46.695181943207494" lon="7.057251793798495"><ele></ele><time>2016-7-22T18:25:1Z</time></trkpt>
<trkpt lat="46.69513642999488" lon="7.057198148581804"><ele></ele><time>2016-7-22T18:25:4Z</time></trkpt>
<trkpt lat="46.69503802722966" lon="7.057112734740735"><ele></ele><time>2016-7-22T18:25:7Z</time></trkpt>
<trkpt lat="46.69499963861573" lon="7.057062023353439"><ele></ele><time>2016-7-22T18:25:10Z</time></trkpt>
<trkpt lat="46.69499134065579" lon="7.057049701767342"><ele></ele><time>2016-7-22T18:25:13Z</time></trkpt>
<trkpt lat="46.69496745257287" lon="7.05701567069767"><ele></ele><time>2016-7-22T18:25:16Z</time></trkpt>
<trkpt lat="46.69493057256646" lon="7.056977029282943"><ele></ele><time>2016-7-22T18:25:19Z</time></trkpt>
<trkpt lat="46.69491875418473" lon="7.056966048719935"><ele></ele><time>2016-7-22T18:25:22Z</time></trkpt>
<trkpt lat="46.69489235137517" lon="7.056945177177359"><ele></ele><time>2016-7-22T18:25:25Z</time></trkpt>
<trkpt lat="46.69486997190741" lon="7.056922545528181"><ele></ele><time>2016-7-22T18:25:28Z</time></trkpt>
<trkpt lat="46.694819178529656" lon="7.056830091986203"><ele></ele><time>2016-7-22T18:25:31Z</time></trkpt>
<trkpt lat="46.69474022202316" lon="7.0567269089614735"><ele></ele><time>2016-7-22T18:25:34Z</time></trkpt>
<trkpt lat="46.69472697878703" lon="7.056709641939556"><ele></ele><time>2016-7-22T18:25:37Z</time></trkpt>
<trkpt lat="46.69466277412616" lon="7.056635628271214"><ele></ele><time>2016-7-22T18:25:40Z</time></trkpt>
<trkpt lat="46.694589265525416" lon="7.056562368759478"><ele></ele><time>2016-7-22T18:25:43Z</time></trkpt>
<trkpt lat="46.694517600838736" lon="7.056498580838644"><ele></ele><time>2016-7-22T18:25:46Z</time></trkpt>
<trkpt lat="46.694477284349084" lon="7.0564508868907465"><ele></ele><time>2016-7-22T18:25:49Z</time></trkpt>
<trkpt lat="46.694453563726334" lon="7.056432446161072"><ele></ele><time>2016-7-22T18:25:52Z</time></trkpt>
<trkpt lat="46.69440017133001" lon="7.056394474917369"><ele></ele><time>2016-7-22T18:25:55Z</time></trkpt>
<trkpt lat="46.694391286659794" lon="7.0563800578422295"><ele></ele><time>2016-7-22T18:25:58Z</time></trkpt>
<trkpt lat="46.69432347771706" lon="7.05631098941203"><ele></ele><time>2016-7-22T18:26:1Z</time></trkpt>
<trkpt lat="46.69429439293908" lon="7.056268660139657"><ele></ele><time>2016-7-22T18:26:4Z</time></trkpt>
<trkpt lat="46.69423236770184" lon="7.05618383386792"><ele></ele><time>2016-7-22T18:26:7Z</time></trkpt>
<trkpt lat="46.6942321163623" lon="7.056173524123398"><ele></ele><time>2016-7-22T18:26:10Z</time></trkpt>
<trkpt lat="46.694137485399374" lon="7.056093642421808"><ele></ele><time>2016-7-22T18:26:13Z</time></trkpt>
<trkpt lat="46.69409540866459" lon="7.056049636469495"><ele></ele><time>2016-7-22T18:26:16Z</time></trkpt>
<trkpt lat="46.69406825152098" lon="7.056025412148404"><ele></ele><time>2016-7-22T18:26:19Z</time></trkpt>
<trkpt lat="46.69399239587493" lon="7.055961624129999"><ele></ele><time>2016-7-22T18:26:22Z</time></trkpt>
<trkpt lat="46.69389600508749" lon="7.055848717695614"><ele></ele><time>2016-7-22T18:26:25Z</time></trkpt>
<trkpt lat="46.69381201934794" lon="7.055752742987868"><ele></ele><time>2016-7-22T18:26:28Z</time></trkpt>
<trkpt lat="46.69380523014057" lon="7.0557398347031075"><ele></ele><time>2016-7-22T18:26:31Z</time></trkpt>
<trkpt lat="46.69375426891076" lon="7.055666156614397"><ele></ele><time>2016-7-22T18:26:34Z</time></trkpt>
<trkpt lat="46.69373800815103" lon="7.055651739368987"><ele></ele><time>2016-7-22T18:26:37Z</time></trkpt>
<trkpt lat="46.693695763985616" lon="7.055589628505158"><ele></ele><time>2016-7-22T18:26:40Z</time></trkpt>
<trkpt lat="46.693693082143824" lon="7.055557106665627"><ele></ele><time>2016-7-22T18:26:43Z</time></trkpt>
<trkpt lat="46.693704398013466" lon="7.055532883231293"><ele></ele><time>2016-7-22T18:26:46Z</time></trkpt>
<trkpt lat="46.693651424396904" lon="7.055522572271073"><ele></ele><time>2016-7-22T18:26:49Z</time></trkpt>
<trkpt lat="46.69367246309689" lon="7.055515531958928"><ele></ele><time>2016-7-22T18:26:52Z</time></trkpt>
<trkpt lat="46.69365427411334" lon="7.055534474636872"><ele></ele><time>2016-7-22T18:26:55Z</time></trkpt>
<trkpt lat="46.693646060205296" lon="7.055501868850753"><ele></ele><time>2016-7-22T18:26:58Z</time></trkpt>
<trkpt lat="46.693642875505006" lon="7.055464401677732"><ele></ele><time>2016-7-22T18:27:1Z</time></trkpt>
<trkpt lat="46.69363382206996" lon="7.055548304302749"><ele></ele><time>2016-7-22T18:27:4Z</time></trkpt>
<trkpt lat="46.69364354534308" lon="7.05552684685916"><ele></ele><time>2016-7-22T18:27:7Z</time></trkpt>
<trkpt lat="46.69365553171733" lon="7.055506898210023"><ele></ele><time>2016-7-22T18:27:10Z</time></trkpt>
<trkpt lat="46.69365016771973" lon="7.055469263348729"><ele></ele><time>2016-7-22T18:27:13Z</time></trkpt>
<trkpt lat="46.69367866634203" lon="7.055461049742398"><ele></ele><time>2016-7-22T18:27:16Z</time></trkpt>
<trkpt lat="46.693689814529094" lon="7.055440681978881"><ele></ele><time>2016-7-22T18:27:19Z</time></trkpt>
<trkpt lat="46.693695849538415" lon="7.0554383351856265"><ele></ele><time>2016-7-22T18:27:22Z</time></trkpt>
<trkpt lat="46.69367707376089" lon="7.055462474628927"><ele></ele><time>2016-7-22T18:27:25Z</time></trkpt>
<trkpt lat="46.693716553015406" lon="7.055426601000956"><ele></ele><time>2016-7-22T18:27:28Z</time></trkpt>
<trkpt lat="46.69379282888555" lon="7.055391901687717"><ele></ele><time>2016-7-22T18:27:31Z</time></trkpt>
<trkpt lat="46.69375234396003" lon="7.055413861336014"><ele></ele><time>2016-7-22T18:27:34Z</time></trkpt>
<trkpt lat="46.693718396884144" lon="7.055440012085821"><ele></ele><time>2016-7-22T18:27:37Z</time></trkpt>
<trkpt lat="46.69368134863713" lon="7.055454009007011"><ele></ele><time>2016-7-22T18:27:40Z</time></trkpt>
<trkpt lat="46.693689647613006" lon="7.055377650075988"><ele></ele><time>2016-7-22T18:27:43Z</time></trkpt>
<trkpt lat="46.69368277492171" lon="7.055335488953119"><ele></ele><time>2016-7-22T18:27:46Z</time></trkpt>
<trkpt lat="46.69368269140127" lon="7.055309421237622"><ele></ele><time>2016-7-22T18:27:49Z</time></trkpt>
<trkpt lat="46.693676405073624" lon="7.055299614267939"><ele></ele><time>2016-7-22T18:27:52Z</time></trkpt>
<trkpt lat="46.69368520656708" lon="7.0552579564206"><ele></ele><time>2016-7-22T18:27:55Z</time></trkpt>
<trkpt lat="46.69371127505507" lon="7.055195428036815"><ele></ele><time>2016-7-22T18:27:58Z</time></trkpt>
<trkpt lat="46.69370708481268" lon="7.055132815136225"><ele></ele><time>2016-7-22T18:28:1Z</time></trkpt>
<trkpt lat="46.69371689282259" lon="7.055031310535674"><ele></ele><time>2016-7-22T18:28:4Z</time></trkpt>
<trkpt lat="46.69375980894119" lon="7.05497129711102"><ele></ele><time>2016-7-22T18:28:7Z</time></trkpt>
<trkpt lat="46.69378143493674" lon="7.054915306508073"><ele></ele><time>2016-7-22T18:28:10Z</time></trkpt>
<trkpt lat="46.69376634843866" lon="7.054831738602549"><ele></ele><time>2016-7-22T18:28:13Z</time></trkpt>
<trkpt lat="46.69377246822622" lon="7.0547457404347425"><ele></ele><time>2016-7-22T18:28:16Z</time></trkpt>
<trkpt lat="46.69375805251055" lon="7.0546422236191715"><ele></ele><time>2016-7-22T18:28:19Z</time></trkpt>
<trkpt lat="46.69375595733712" lon="7.0546154853051775"><ele></ele><time>2016-7-22T18:28:22Z</time></trkpt>
<trkpt lat="46.69376333386503" lon="7.054577264004692"><ele></ele><time>2016-7-22T18:28:25Z</time></trkpt>
<trkpt lat="46.693764172212724" lon="7.05456368534367"><ele></ele><time>2016-7-22T18:28:28Z</time></trkpt>
<trkpt lat="46.69372863423747" lon="7.054444577704005"><ele></ele><time>2016-7-22T18:28:31Z</time></trkpt>
<trkpt lat="46.693695526601985" lon="7.054361847572675"><ele></ele><time>2016-7-22T18:28:34Z</time></trkpt>
<trkpt lat="46.69368555300437" lon="7.054284482392004"><ele></ele><time>2016-7-22T18:28:37Z</time></trkpt>
<trkpt lat="46.69367398634019" lon="7.05425087070022"><ele></ele><time>2016-7-22T18:28:40Z</time></trkpt>
<trkpt lat="46.69367960250732" lon="7.0542263956775235"><ele></ele><time>2016-7-22T18:28:43Z</time></trkpt>
<trkpt lat="46.693678932277685" lon="7.0541981486541045"><ele></ele><time>2016-7-22T18:28:46Z</time></trkpt>
<trkpt lat="46.6936495124055" lon="7.0541399775790214"><ele></ele><time>2016-7-22T18:28:49Z</time></trkpt>
<trkpt lat="46.693635766754625" lon="7.054079124657129"><ele></ele><time>2016-7-22T18:28:52Z</time></trkpt>
<trkpt lat="46.69362026085538" lon="7.054022211188285"><ele></ele><time>2016-7-22T18:28:55Z</time></trkpt>
<trkpt lat="46.69361162795846" lon="7.053980301481677"><ele></ele><time>2016-7-22T18:28:58Z</time></trkpt>
<trkpt lat="46.69361137714219" lon="7.053924394193042"><ele></ele><time>2016-7-22T18:29:1Z</time></trkpt>
<trkpt lat="46.693614898385164" lon="7.053851471731466"><ele></ele><time>2016-7-22T18:29:4Z</time></trkpt>
<trkpt lat="46.69360542747709" lon="7.053793804030718"><ele></ele><time>2016-7-22T18:29:7Z</time></trkpt>
<trkpt lat="46.69359855473828" lon="7.053755833858397"><ele></ele><time>2016-7-22T18:29:10Z</time></trkpt>
<trkpt lat="46.69360148858052" lon="7.053740997960499"><ele></ele><time>2016-7-22T18:29:13Z</time></trkpt>
<trkpt lat="46.69354046848056" lon="7.0537167728567844"><ele></ele><time>2016-7-22T18:29:16Z</time></trkpt>
<trkpt lat="46.693534768864396" lon="7.053708977556847"><ele></ele><time>2016-7-22T18:29:19Z</time></trkpt>
<trkpt lat="46.69349830804888" lon="7.053662205704958"><ele></ele><time>2016-7-22T18:29:22Z</time></trkpt>
<trkpt lat="46.69343468985966" lon="7.053611326094421"><ele></ele><time>2016-7-22T18:29:25Z</time></trkpt>
<trkpt lat="46.69335690618526" lon="7.0535639665554335"><ele></ele><time>2016-7-22T18:29:28Z</time></trkpt>
<trkpt lat="46.69330577666361" lon="7.053547369210188"><ele></ele><time>2016-7-22T18:29:31Z</time></trkpt>
<trkpt lat="46.693285157111525" lon="7.053549883304663"><ele></ele><time>2016-7-22T18:29:34Z</time></trkpt>
<trkpt lat="46.693173175188285" lon="7.0535038640803185"><ele></ele><time>2016-7-22T18:29:37Z</time></trkpt>
<trkpt lat="46.69315884217145" lon="7.053498080237396"><ele></ele><time>2016-7-22T18:29:40Z</time></trkpt>
<trkpt lat="46.69307954952184" lon="7.05347075340796"><ele></ele><time>2016-7-22T18:29:43Z</time></trkpt>
<trkpt lat="46.693049374903225" lon="7.053445187911683"><ele></ele><time>2016-7-22T18:29:46Z</time></trkpt>
<trkpt lat="46.692974188728904" lon="7.053475863935669"><ele></ele><time>2016-7-22T18:29:49Z</time></trkpt>
<trkpt lat="46.692937978981746" lon="7.053463038790402"><ele></ele><time>2016-7-22T18:29:52Z</time></trkpt>
<trkpt lat="46.692906966171186" lon="7.053437473274728"><ele></ele><time>2016-7-22T18:29:55Z</time></trkpt>
<trkpt lat="46.69287897054595" lon="7.053438562275644"><ele></ele><time>2016-7-22T18:29:58Z</time></trkpt>
<trkpt lat="46.69284686822915" lon="7.0534005077014585"><ele></ele><time>2016-7-22T18:30:1Z</time></trkpt>
<trkpt lat="46.69276916848126" lon="7.053343844253075"><ele></ele><time>2016-7-22T18:30:4Z</time></trkpt>
<trkpt lat="46.692710914789714" lon="7.053287013615501"><ele></ele><time>2016-7-22T18:30:7Z</time></trkpt>
<trkpt lat="46.69267613021535" lon="7.053252730834945"><ele></ele><time>2016-7-22T18:30:10Z</time></trkpt>
<trkpt lat="46.69267227461104" lon="7.053245857586633"><ele></ele><time>2016-7-22T18:30:13Z</time></trkpt>
<trkpt lat="46.69262709653866" lon="7.053204366130709"><ele></ele><time>2016-7-22T18:30:16Z</time></trkpt>
<trkpt lat="46.69258317575913" lon="7.0531624556086845"><ele></ele><time>2016-7-22T18:30:19Z</time></trkpt>
<trkpt lat="46.69257571592253" lon="7.053156169010249"><ele></ele><time>2016-7-22T18:30:22Z</time></trkpt>
<trkpt lat="46.69252911292481" lon="7.0531145937023"><ele></ele><time>2016-7-22T18:30:25Z</time></trkpt>
<trkpt lat="46.69247630746992" lon="7.053058769018356"><ele></ele><time>2016-7-22T18:30:28Z</time></trkpt>
<trkpt lat="46.692463651039255" lon="7.053035383220633"><ele></ele><time>2016-7-22T18:30:31Z</time></trkpt>
<trkpt lat="46.69244722296015" lon="7.052993221876205"><ele></ele><time>2016-7-22T18:30:34Z</time></trkpt>
<trkpt lat="46.69240900170349" lon="7.052967237098632"><ele></ele><time>2016-7-22T18:30:37Z</time></trkpt>
<trkpt lat="46.692362650161606" lon="7.052925829434312"><ele></ele><time>2016-7-22T18:30:40Z</time></trkpt>
<trkpt lat="46.692355609405624" lon="7.052920883949769"><ele></ele><time>2016-7-22T18:30:43Z</time></trkpt>
<trkpt lat="46.69233825876112" lon="7.052927002337291"><ele></ele><time>2016-7-22T18:30:46Z</time></trkpt>
<trkpt lat="46.69228285464567" lon="7.05289431164155"><ele></ele><time>2016-7-22T18:30:49Z</time></trkpt>
<trkpt lat="46.69224069383766" lon="7.052872601542727"><ele></ele><time>2016-7-22T18:30:52Z</time></trkpt>
<trkpt lat="46.69221051942731" lon="7.052828931138395"><ele></ele><time>2016-7-22T18:30:55Z</time></trkpt>
<trkpt lat="46.69215276853026" lon="7.0527826617076705"><ele></ele><time>2016-7-22T18:30:58Z</time></trkpt>
<trkpt lat="46.69206123859038" lon="7.052728177233143"><ele></ele><time>2016-7-22T18:31:1Z</time></trkpt>
<trkpt lat="46.69198068856336" lon="7.052708729361013"><ele></ele><time>2016-7-22T18:31:4Z</time></trkpt>
<trkpt lat="46.691931403167885" lon="7.052683163422689"><ele></ele><time>2016-7-22T18:31:7Z</time></trkpt>
<trkpt lat="46.691924865131774" lon="7.052695233210092"><ele></ele><time>2016-7-22T18:31:10Z</time></trkpt>
<trkpt lat="46.69191187325121" lon="7.052686934827391"><ele></ele><time>2016-7-22T18:31:13Z</time></trkpt>
<trkpt lat="46.69189008059441" lon="7.052657765306267"><ele></ele><time>2016-7-22T18:31:16Z</time></trkpt>
<trkpt lat="46.69183861410592" lon="7.052788437964784"><ele></ele><time>2016-7-22T18:31:19Z</time></trkpt>
<trkpt lat="46.69174196804946" lon="7.053007957738117"><ele></ele><time>2016-7-22T18:31:22Z</time></trkpt>
<trkpt lat="46.69162813972542" lon="7.05316930671752"><ele></ele><time>2016-7-22T18:31:25Z</time></trkpt>
<trkpt lat="46.69160341319072" lon="7.053158074398336"><ele></ele><time>2016-7-22T18:31:28Z</time></trkpt>
<trkpt lat="46.69155127776554" lon="7.053147931093532"><ele></ele><time>2016-7-22T18:31:31Z</time></trkpt>
<trkpt lat="46.69146159030039" lon="7.053228311460274"><ele></ele><time>2016-7-22T18:31:34Z</time></trkpt>
<trkpt lat="46.691331249838164" lon="7.053368453848069"><ele></ele><time>2016-7-22T18:31:37Z</time></trkpt>
<trkpt lat="46.69123644904633" lon="7.0534798471337625"><ele></ele><time>2016-7-22T18:31:40Z</time></trkpt>
<trkpt lat="46.69109579889543" lon="7.053613702858159"><ele></ele><time>2016-7-22T18:31:43Z</time></trkpt>
<trkpt lat="46.691007369002655" lon="7.053669356644781"><ele></ele><time>2016-7-22T18:31:46Z</time></trkpt>
<trkpt lat="46.6909214549708" lon="7.053613028281772"><ele></ele><time>2016-7-22T18:31:49Z</time></trkpt>
<trkpt lat="46.69090301515791" lon="7.053577237135511"><ele></ele><time>2016-7-22T18:31:52Z</time></trkpt>
<trkpt lat="46.69088650305768" lon="7.053552677782131"><ele></ele><time>2016-7-22T18:31:55Z</time></trkpt>
<trkpt lat="46.6907849158989" lon="7.053403729042209"><ele></ele><time>2016-7-22T18:31:58Z</time></trkpt>
<trkpt lat="46.69065902127498" lon="7.053245894924773"><ele></ele><time>2016-7-22T18:32:1Z</time></trkpt>
<trkpt lat="46.6905482136192" lon="7.0531305573974095"><ele></ele><time>2016-7-22T18:32:4Z</time></trkpt>
<trkpt lat="46.69044796711718" lon="7.053020919806808"><ele></ele><time>2016-7-22T18:32:7Z</time></trkpt>
<trkpt lat="46.690356522048724" lon="7.052874904965132"><ele></ele><time>2016-7-22T18:32:10Z</time></trkpt>
<trkpt lat="46.69032115116531" lon="7.0528036579825955"><ele></ele><time>2016-7-22T18:32:13Z</time></trkpt>
<trkpt lat="46.690286031454654" lon="7.052757221435293"><ele></ele><time>2016-7-22T18:32:16Z</time></trkpt>
<trkpt lat="46.690208835368246" lon="7.052635765894525"><ele></ele><time>2016-7-22T18:32:19Z</time></trkpt>
<trkpt lat="46.69012686124702" lon="7.052543982175784"><ele></ele><time>2016-7-22T18:32:22Z</time></trkpt>
<trkpt lat="46.69000767173827" lon="7.052422944759657"><ele></ele><time>2016-7-22T18:32:25Z</time></trkpt>
<trkpt lat="46.68988571622226" lon="7.052299644165732"><ele></ele><time>2016-7-22T18:32:28Z</time></trkpt>
<trkpt lat="46.68980047327611" lon="7.052197131536259"><ele></ele><time>2016-7-22T18:32:31Z</time></trkpt>
<trkpt lat="46.68972042683534" lon="7.052119429456289"><ele></ele><time>2016-7-22T18:32:34Z</time></trkpt>
<trkpt lat="46.689617414097434" lon="7.05202756143129"><ele></ele><time>2016-7-22T18:32:37Z</time></trkpt>
<trkpt lat="46.689497469406206" lon="7.051977099610437"><ele></ele><time>2016-7-22T18:32:40Z</time></trkpt>
<trkpt lat="46.68939537748573" lon="7.051989167190509"><ele></ele><time>2016-7-22T18:32:43Z</time></trkpt>
<trkpt lat="46.689280880719984" lon="7.051966784866924"><ele></ele><time>2016-7-22T18:32:46Z</time></trkpt>
<trkpt lat="46.68921952499865" lon="7.051972818418774"><ele></ele><time>2016-7-22T18:32:49Z</time></trkpt>
<trkpt lat="46.689191445668854" lon="7.051964016772945"><ele></ele><time>2016-7-22T18:32:52Z</time></trkpt>
<trkpt lat="46.68908256449295" lon="7.051967450837149"><ele></ele><time>2016-7-22T18:32:55Z</time></trkpt>
<trkpt lat="46.68906923732832" lon="7.051959822998419"><ele></ele><time>2016-7-22T18:32:58Z</time></trkpt>
<trkpt lat="46.6890408227526" lon="7.051948339136185"><ele></ele><time>2016-7-22T18:33:1Z</time></trkpt>
<trkpt lat="46.68900687594912" lon="7.051950852922462"><ele></ele><time>2016-7-22T18:33:4Z</time></trkpt>
<trkpt lat="46.68893395357654" lon="7.051922268951785"><ele></ele><time>2016-7-22T18:33:7Z</time></trkpt>
<trkpt lat="46.688840495803284" lon="7.051867365334234"><ele></ele><time>2016-7-22T18:33:10Z</time></trkpt>
<trkpt lat="46.68882909659481" lon="7.051849763076602"><ele></ele><time>2016-7-22T18:33:13Z</time></trkpt>
<trkpt lat="46.688873102976935" lon="7.05173627314009"><ele></ele><time>2016-7-22T18:33:16Z</time></trkpt>
<trkpt lat="46.688851897303906" lon="7.051685478323851"><ele></ele><time>2016-7-22T18:33:19Z</time></trkpt>
<trkpt lat="46.68884527578868" lon="7.051667959995618"><ele></ele><time>2016-7-22T18:33:22Z</time></trkpt>
<trkpt lat="46.68883505000662" lon="7.051654045801964"><ele></ele><time>2016-7-22T18:33:25Z</time></trkpt>
<trkpt lat="46.68879875752461" lon="7.051547008074444"><ele></ele><time>2016-7-22T18:33:28Z</time></trkpt>
<trkpt lat="46.688814851286175" lon="7.051505601850375"><ele></ele><time>2016-7-22T18:33:31Z</time></trkpt>
<trkpt lat="46.68881929396558" lon="7.051482803179545"><ele></ele><time>2016-7-22T18:33:34Z</time></trkpt>
<trkpt lat="46.68881527084164" lon="7.05146562018742"><ele></ele><time>2016-7-22T18:33:37Z</time></trkpt>
<trkpt lat="46.688791299761434" lon="7.0513603429439815"><ele></ele><time>2016-7-22T18:33:40Z</time></trkpt>
<trkpt lat="46.68878886915213" lon="7.051347518577704"><ele></ele><time>2016-7-22T18:33:43Z</time></trkpt>
<trkpt lat="46.688785097999286" lon="7.051285660053588"><ele></ele><time>2016-7-22T18:33:46Z</time></trkpt>
<trkpt lat="46.688780404847854" lon="7.051222711860892"><ele></ele><time>2016-7-22T18:33:49Z</time></trkpt>
<trkpt lat="46.688769761337085" lon="7.0510898584677335"><ele></ele><time>2016-7-22T18:33:52Z</time></trkpt>
<trkpt lat="46.68877227613267" lon="7.051070747789242"><ele></ele><time>2016-7-22T18:33:55Z</time></trkpt>
<trkpt lat="46.688786946444324" lon="7.050900930793323"><ele></ele><time>2016-7-22T18:33:58Z</time></trkpt>
<trkpt lat="46.68878158441939" lon="7.050691886032829"><ele></ele><time>2016-7-22T18:34:1Z</time></trkpt>
<trkpt lat="46.68876557701369" lon="7.050512680597361"><ele></ele><time>2016-7-22T18:34:4Z</time></trkpt>
<trkpt lat="46.68876691862016" lon="7.050469262375881"><ele></ele><time>2016-7-22T18:34:7Z</time></trkpt>
<trkpt lat="46.68875945984924" lon="7.05037035575947"><ele></ele><time>2016-7-22T18:34:10Z</time></trkpt>
<trkpt lat="46.68868679059214" lon="7.050197686896979"><ele></ele><time>2016-7-22T18:34:13Z</time></trkpt>
<trkpt lat="46.68854505460317" lon="7.050000206006527"><ele></ele><time>2016-7-22T18:34:16Z</time></trkpt>
<trkpt lat="46.688536924281934" lon="7.049987968241468"><ele></ele><time>2016-7-22T18:34:19Z</time></trkpt>
<trkpt lat="46.688493422673666" lon="7.049939771298397"><ele></ele><time>2016-7-22T18:34:22Z</time></trkpt>
<trkpt lat="46.68846769049098" lon="7.04991278097853"><ele></ele><time>2016-7-22T18:34:25Z</time></trkpt>
<trkpt lat="46.68838957189817" lon="7.049834743663218"><ele></ele><time>2016-7-22T18:34:28Z</time></trkpt>
<trkpt lat="46.688317572338214" lon="7.049736589924311"><ele></ele><time>2016-7-22T18:34:31Z</time></trkpt>
<trkpt lat="46.68829150459918" lon="7.049733907112584"><ele></ele><time>2016-7-22T18:34:34Z</time></trkpt>
<trkpt lat="46.68821430774769" lon="7.049679339144074"><ele></ele><time>2016-7-22T18:34:37Z</time></trkpt>
<trkpt lat="46.68810986990941" lon="7.0496028937807225"><ele></ele><time>2016-7-22T18:34:40Z</time></trkpt>
<trkpt lat="46.68801020984939" lon="7.049519156272861"><ele></ele><time>2016-7-22T18:34:43Z</time></trkpt>
<trkpt lat="46.68797693406281" lon="7.049481436943427"><ele></ele><time>2016-7-22T18:34:46Z</time></trkpt>
<trkpt lat="46.68795237531922" lon="7.049457045040021"><ele></ele><time>2016-7-22T18:34:49Z</time></trkpt>
<trkpt lat="46.687868473343464" lon="7.0493667700127585"><ele></ele><time>2016-7-22T18:34:52Z</time></trkpt>
<trkpt lat="46.68778507501725" lon="7.049212708721675"><ele></ele><time>2016-7-22T18:34:55Z</time></trkpt>
<trkpt lat="46.68771575795912" lon="7.049089660794075"><ele></ele><time>2016-7-22T18:34:58Z</time></trkpt>
<trkpt lat="46.68765767253919" lon="7.048978263970194"><ele></ele><time>2016-7-22T18:35:1Z</time></trkpt>
<trkpt lat="46.687577290883375" lon="7.048895532735459"><ele></ele><time>2016-7-22T18:35:4Z</time></trkpt>
<trkpt lat="46.68750302790639" lon="7.04882344665793"><ele></ele><time>2016-7-22T18:35:7Z</time></trkpt>
<trkpt lat="46.68745114474821" lon="7.048743230653181"><ele></ele><time>2016-7-22T18:35:10Z</time></trkpt>
<trkpt lat="46.68741091202196" lon="7.048700901115875"><ele></ele><time>2016-7-22T18:35:13Z</time></trkpt>
<trkpt lat="46.68736489559947" lon="7.0486734912305264"><ele></ele><time>2016-7-22T18:35:16Z</time></trkpt>
<trkpt lat="46.68734226468418" lon="7.0486502728375875"><ele></ele><time>2016-7-22T18:35:19Z</time></trkpt>
<trkpt lat="46.68730907259953" lon="7.048622779430036"><ele></ele><time>2016-7-22T18:35:22Z</time></trkpt>
<trkpt lat="46.687284681403945" lon="7.048606266518071"><ele></ele><time>2016-7-22T18:35:25Z</time></trkpt>
<trkpt lat="46.687221901965955" lon="7.048507358618775"><ele></ele><time>2016-7-22T18:35:28Z</time></trkpt>
<trkpt lat="46.687211005580664" lon="7.048497802998001"><ele></ele><time>2016-7-22T18:35:31Z</time></trkpt>
<trkpt lat="46.68715006976928" lon="7.04843326094026"><ele></ele><time>2016-7-22T18:35:34Z</time></trkpt>
<trkpt lat="46.687104138063084" lon="7.048327983185032"><ele></ele><time>2016-7-22T18:35:37Z</time></trkpt>
<trkpt lat="46.687046806214624" lon="7.048286239984548"><ele></ele><time>2016-7-22T18:35:40Z</time></trkpt>
<trkpt lat="46.686981092923716" lon="7.048203089992918"><ele></ele><time>2016-7-22T18:35:43Z</time></trkpt>
<trkpt lat="46.686908506238765" lon="7.048139050579082"><ele></ele><time>2016-7-22T18:35:46Z</time></trkpt>
<trkpt lat="46.68682837623005" lon="7.048039974639055"><ele></ele><time>2016-7-22T18:35:49Z</time></trkpt>
<trkpt lat="46.686814127370624" lon="7.048004937957696"><ele></ele><time>2016-7-22T18:35:52Z</time></trkpt>
<trkpt lat="46.686780181513285" lon="7.047925392919222"><ele></ele><time>2016-7-22T18:35:55Z</time></trkpt>
<trkpt lat="46.68671078011644" lon="7.047847607259008"><ele></ele><time>2016-7-22T18:35:58Z</time></trkpt>
<trkpt lat="46.686661328106204" lon="7.047733528423884"><ele></ele><time>2016-7-22T18:36:1Z</time></trkpt>
<trkpt lat="46.68662176635243" lon="7.047654905264299"><ele></ele><time>2016-7-22T18:36:4Z</time></trkpt>
<trkpt lat="46.68660743395795" lon="7.0475952257881564"><ele></ele><time>2016-7-22T18:36:7Z</time></trkpt>
<trkpt lat="46.686608188722886" lon="7.047561195282421"><ele></ele><time>2016-7-22T18:36:10Z</time></trkpt>
<trkpt lat="46.68658052948036" lon="7.0474664791460375"><ele></ele><time>2016-7-22T18:36:13Z</time></trkpt>
<trkpt lat="46.68657265225762" lon="7.047311916685621"><ele></ele><time>2016-7-22T18:36:16Z</time></trkpt>
<trkpt lat="46.68655555477583" lon="7.047170178322032"><ele></ele><time>2016-7-22T18:36:19Z</time></trkpt>
<trkpt lat="46.68651984989889" lon="7.046988038758246"><ele></ele><time>2016-7-22T18:36:22Z</time></trkpt>
<trkpt lat="46.68645598084316" lon="7.046886532441608"><ele></ele><time>2016-7-22T18:36:25Z</time></trkpt>
<trkpt lat="46.68644541993298" lon="7.046859793928584"><ele></ele><time>2016-7-22T18:36:28Z</time></trkpt>
<trkpt lat="46.68641231186543" lon="7.046815201441167"><ele></ele><time>2016-7-22T18:36:31Z</time></trkpt>
<trkpt lat="46.68633184648863" lon="7.046724172117489"><ele></ele><time>2016-7-22T18:36:34Z</time></trkpt>
<trkpt lat="46.68625121335955" lon="7.046643033434454"><ele></ele><time>2016-7-22T18:36:37Z</time></trkpt>
<trkpt lat="46.686131101071176" lon="7.046589554113896"><ele></ele><time>2016-7-22T18:36:40Z</time></trkpt>
<trkpt lat="46.685939575246444" lon="7.0464999471388685"><ele></ele><time>2016-7-22T18:36:43Z</time></trkpt>
<trkpt lat="46.685827761174714" lon="7.046436409727367"><ele></ele><time>2016-7-22T18:36:46Z</time></trkpt>
<trkpt lat="46.68572005437512" lon="7.046361473023657"><ele></ele><time>2016-7-22T18:36:49Z</time></trkpt>
<trkpt lat="46.68564537266478" lon="7.046258206255242"><ele></ele><time>2016-7-22T18:36:52Z</time></trkpt>
<trkpt lat="46.68559525018522" lon="7.046137002784864"><ele></ele><time>2016-7-22T18:36:55Z</time></trkpt>
<trkpt lat="46.68559407699404" lon="7.046112946697821"><ele></ele><time>2016-7-22T18:36:58Z</time></trkpt>
<trkpt lat="46.68555250385773" lon="7.046010351248784"><ele></ele><time>2016-7-22T18:37:1Z</time></trkpt>
<trkpt lat="46.685547894095095" lon="7.045984953977665"><ele></ele><time>2016-7-22T18:37:4Z</time></trkpt>
<trkpt lat="46.685536747448" lon="7.0458717980369565"><ele></ele><time>2016-7-22T18:37:7Z</time></trkpt>
<trkpt lat="46.685511435857386" lon="7.045715307332383"><ele></ele><time>2016-7-22T18:37:10Z</time></trkpt>
<trkpt lat="46.68548821989193" lon="7.045546243822713"><ele></ele><time>2016-7-22T18:37:13Z</time></trkpt>
<trkpt lat="46.685442624602615" lon="7.045342478717956"><ele></ele><time>2016-7-22T18:37:16Z</time></trkpt>
<trkpt lat="46.68543977689714" lon="7.045156484237629"><ele></ele><time>2016-7-22T18:37:19Z</time></trkpt>
<trkpt lat="46.68544589793855" lon="7.044962443339057"><ele></ele><time>2016-7-22T18:37:22Z</time></trkpt>
<trkpt lat="46.68546593295186" lon="7.044769660048709"><ele></ele><time>2016-7-22T18:37:25Z</time></trkpt>
<trkpt lat="46.685474232831154" lon="7.044615600875238"><ele></ele><time>2016-7-22T18:37:28Z</time></trkpt>
<trkpt lat="46.68547549141917" lon="7.044503031955267"><ele></ele><time>2016-7-22T18:37:31Z</time></trkpt>
<trkpt lat="46.685473647653474" lon="7.044480819871131"><ele></ele><time>2016-7-22T18:37:34Z</time></trkpt>
<trkpt lat="46.68549167116956" lon="7.044273954938297"><ele></ele><time>2016-7-22T18:37:37Z</time></trkpt>
<trkpt lat="46.68550365984448" lon="7.044054936107029"><ele></ele><time>2016-7-22T18:37:40Z</time></trkpt>
<trkpt lat="46.68548178490026" lon="7.043893500159173"><ele></ele><time>2016-7-22T18:37:43Z</time></trkpt>
<trkpt lat="46.68543082635452" lon="7.043588565366951"><ele></ele><time>2016-7-22T18:37:46Z</time></trkpt>
<trkpt lat="46.685372406702854" lon="7.043387314533822"><ele></ele><time>2016-7-22T18:37:49Z</time></trkpt>
<trkpt lat="46.685304180341596" lon="7.04317432880926"><ele></ele><time>2016-7-22T18:37:52Z</time></trkpt>
<trkpt lat="46.68523494777927" lon="7.0429934457472125"><ele></ele><time>2016-7-22T18:37:55Z</time></trkpt>
<trkpt lat="46.68514216205404" lon="7.042809963747987"><ele></ele><time>2016-7-22T18:37:58Z</time></trkpt>
<trkpt lat="46.685065972205635" lon="7.042654477687985"><ele></ele><time>2016-7-22T18:38:1Z</time></trkpt>
<trkpt lat="46.68496455309646" lon="7.042471666039538"><ele></ele><time>2016-7-22T18:38:4Z</time></trkpt>
<trkpt lat="46.68489012373963" lon="7.042291285769421"><ele></ele><time>2016-7-22T18:38:7Z</time></trkpt>
<trkpt lat="46.6848154432349" lon="7.042084167224237"><ele></ele><time>2016-7-22T18:38:10Z</time></trkpt>
<trkpt lat="46.68479365215824" lon="7.041918791782127"><ele></ele><time>2016-7-22T18:38:13Z</time></trkpt>
<trkpt lat="46.684762305539586" lon="7.041766743342764"><ele></ele><time>2016-7-22T18:38:16Z</time></trkpt>
<trkpt lat="46.684708746631344" lon="7.041632296382175"><ele></ele><time>2016-7-22T18:38:19Z</time></trkpt>
<trkpt lat="46.684591149576846" lon="7.041522323088047"><ele></ele><time>2016-7-22T18:38:22Z</time></trkpt>
<trkpt lat="46.68450221887268" lon="7.041396257207176"><ele></ele><time>2016-7-22T18:38:25Z</time></trkpt>
<trkpt lat="46.68440968345639" lon="7.041312268392812"><ele></ele><time>2016-7-22T18:38:28Z</time></trkpt>
<trkpt lat="46.68428663815115" lon="7.04120263024717"><ele></ele><time>2016-7-22T18:38:31Z</time></trkpt>
<trkpt lat="46.68417432151645" lon="7.0411090856034955"><ele></ele><time>2016-7-22T18:38:34Z</time></trkpt>
<trkpt lat="46.684123611468955" lon="7.041060385570649"><ele></ele><time>2016-7-22T18:38:37Z</time></trkpt>
<trkpt lat="46.684087066535064" lon="7.041040184335774"><ele></ele><time>2016-7-22T18:38:40Z</time></trkpt>
<trkpt lat="46.683956057505604" lon="7.041008413878846"><ele></ele><time>2016-7-22T18:38:43Z</time></trkpt>
<trkpt lat="46.68382949217369" lon="7.040866086230127"><ele></ele><time>2016-7-22T18:38:46Z</time></trkpt>
<trkpt lat="46.68382052443642" lon="7.040786960861243"><ele></ele><time>2016-7-22T18:38:49Z</time></trkpt>
<trkpt lat="46.68384676057153" lon="7.040724097202052"><ele></ele><time>2016-7-22T18:38:52Z</time></trkpt>
<trkpt lat="46.68389814273122" lon="7.040638183895663"><ele></ele><time>2016-7-22T18:38:55Z</time></trkpt>
<trkpt lat="46.68393183856287" lon="7.04059359295769"><ele></ele><time>2016-7-22T18:38:58Z</time></trkpt>
<trkpt lat="46.68404323599627" lon="7.040444481502149"><ele></ele><time>2016-7-22T18:39:1Z</time></trkpt>
<trkpt lat="46.68413267281714" lon="7.040294028431812"><ele></ele><time>2016-7-22T18:39:4Z</time></trkpt>
<trkpt lat="46.68414097145027" lon="7.040248011979902"><ele></ele><time>2016-7-22T18:39:7Z</time></trkpt>
<trkpt lat="46.684132339504814" lon="7.040124462535622"><ele></ele><time>2016-7-22T18:39:10Z</time></trkpt>
<trkpt lat="46.684115660293564" lon="7.040054724718423"><ele></ele><time>2016-7-22T18:39:13Z</time></trkpt>
<trkpt lat="46.6840762675663" lon="7.0398568270827635"><ele></ele><time>2016-7-22T18:39:16Z</time></trkpt>
<trkpt lat="46.684035031270824" lon="7.039619785919078"><ele></ele><time>2016-7-22T18:39:19Z</time></trkpt>
<trkpt lat="46.683991866469825" lon="7.039440076923747"><ele></ele><time>2016-7-22T18:39:22Z</time></trkpt>
<trkpt lat="46.683937973317825" lon="7.039216781785168"><ele></ele><time>2016-7-22T18:39:25Z</time></trkpt>
<trkpt lat="46.68389656904315" lon="7.039009244913833"><ele></ele><time>2016-7-22T18:39:28Z</time></trkpt>
<trkpt lat="46.68382038040592" lon="7.038749823255469"><ele></ele><time>2016-7-22T18:39:31Z</time></trkpt>
<trkpt lat="46.6837556738883" lon="7.038586123191456"><ele></ele><time>2016-7-22T18:39:34Z</time></trkpt>
<trkpt lat="46.6836555129535" lon="7.038327539164156"><ele></ele><time>2016-7-22T18:39:37Z</time></trkpt>
<trkpt lat="46.683541187666194" lon="7.037974993678026"><ele></ele><time>2016-7-22T18:39:40Z</time></trkpt>
<trkpt lat="46.683471201737206" lon="7.037708196087597"><ele></ele><time>2016-7-22T18:39:43Z</time></trkpt>
<trkpt lat="46.68344345910336" lon="7.03757735394142"><ele></ele><time>2016-7-22T18:39:46Z</time></trkpt>
<trkpt lat="46.68340825587668" lon="7.037505520215763"><ele></ele><time>2016-7-22T18:39:49Z</time></trkpt>
<trkpt lat="46.68334815821005" lon="7.037445755849762"><ele></ele><time>2016-7-22T18:39:52Z</time></trkpt>
<trkpt lat="46.68332351707634" lon="7.037298569065419"><ele></ele><time>2016-7-22T18:39:55Z</time></trkpt>
<trkpt lat="46.683295272769584" lon="7.037060773829547"><ele></ele><time>2016-7-22T18:39:58Z</time></trkpt>
<trkpt lat="46.68323928472172" lon="7.036787606317687"><ele></ele><time>2016-7-22T18:40:1Z</time></trkpt>
<trkpt lat="46.683168797378805" lon="7.036391811231683"><ele></ele><time>2016-7-22T18:40:4Z</time></trkpt>
<trkpt lat="46.683179613309754" lon="7.036111604478439"><ele></ele><time>2016-7-22T18:40:7Z</time></trkpt>
<trkpt lat="46.683181626149725" lon="7.0360100996843515"><ele></ele><time>2016-7-22T18:40:10Z</time></trkpt>
<trkpt lat="46.68310476745296" lon="7.035708768491632"><ele></ele><time>2016-7-22T18:40:13Z</time></trkpt>
<trkpt lat="46.68306503849093" lon="7.035593935498584"><ele></ele><time>2016-7-22T18:40:16Z</time></trkpt>
<trkpt lat="46.68297275733892" lon="7.035268966979656"><ele></ele><time>2016-7-22T18:40:19Z</time></trkpt>
<trkpt lat="46.68283244932948" lon="7.034811730914928"><ele></ele><time>2016-7-22T18:40:22Z</time></trkpt>
<trkpt lat="46.68278316540373" lon="7.0346605202403385"><ele></ele><time>2016-7-22T18:40:25Z</time></trkpt>
<trkpt lat="46.68270370678884" lon="7.034490449580197"><ele></ele><time>2016-7-22T18:40:28Z</time></trkpt>
<trkpt lat="46.682647465264246" lon="7.03439137417754"><ele></ele><time>2016-7-22T18:40:31Z</time></trkpt>
<trkpt lat="46.68256255805824" lon="7.034250891506184"><ele></ele><time>2016-7-22T18:40:34Z</time></trkpt>
<trkpt lat="46.682534814345885" lon="7.034213088477295"><ele></ele><time>2016-7-22T18:40:37Z</time></trkpt>
<trkpt lat="46.68241202139657" lon="7.034027007370193"><ele></ele><time>2016-7-22T18:40:40Z</time></trkpt>
<trkpt lat="46.68234614135715" lon="7.033868504051362"><ele></ele><time>2016-7-22T18:40:43Z</time></trkpt>
<trkpt lat="46.6822392736958" lon="7.033713268717217"><ele></ele><time>2016-7-22T18:40:46Z</time></trkpt>
<trkpt lat="46.68222569514889" lon="7.033699354441579"><ele></ele><time>2016-7-22T18:40:49Z</time></trkpt>
<trkpt lat="46.682140621254966" lon="7.033477315850915"><ele></ele><time>2016-7-22T18:40:52Z</time></trkpt>
<trkpt lat="46.6820046706061" lon="7.033127032958974"><ele></ele><time>2016-7-22T18:40:55Z</time></trkpt>
<trkpt lat="46.68183611490263" lon="7.032724446230571"><ele></ele><time>2016-7-22T18:40:58Z</time></trkpt>
<trkpt lat="46.68167820489508" lon="7.0322654495432495"><ele></ele><time>2016-7-22T18:41:1Z</time></trkpt>
<trkpt lat="46.68162824983754" lon="7.032164194989769"><ele></ele><time>2016-7-22T18:41:4Z</time></trkpt>
<trkpt lat="46.681567398848955" lon="7.032014576602197"><ele></ele><time>2016-7-22T18:41:7Z</time></trkpt>
<trkpt lat="46.68150713442105" lon="7.031879878015131"><ele></ele><time>2016-7-22T18:41:10Z</time></trkpt>
<trkpt lat="46.68135048163279" lon="7.031427083961545"><ele></ele><time>2016-7-22T18:41:13Z</time></trkpt>
<trkpt lat="46.681240515192854" lon="7.031055092541525"><ele></ele><time>2016-7-22T18:41:16Z</time></trkpt>
<trkpt lat="46.68113926514536" lon="7.030752084384918"><ele></ele><time>2016-7-22T18:41:19Z</time></trkpt>
<trkpt lat="46.68104069641035" lon="7.030526441253801"><ele></ele><time>2016-7-22T18:41:22Z</time></trkpt>
<trkpt lat="46.68101655724938" lon="7.0304608103895285"><ele></ele><time>2016-7-22T18:41:25Z</time></trkpt>
<trkpt lat="46.68093852384089" lon="7.030267354245242"><ele></ele><time>2016-7-22T18:41:28Z</time></trkpt>
<trkpt lat="46.68082754985037" lon="7.030043135746089"><ele></ele><time>2016-7-22T18:41:31Z</time></trkpt>
<trkpt lat="46.68063485380236" lon="7.029677428812345"><ele></ele><time>2016-7-22T18:41:34Z</time></trkpt>
<trkpt lat="46.68041080979606" lon="7.0292760142362924"><ele></ele><time>2016-7-22T18:41:37Z</time></trkpt>
<trkpt lat="46.68023370494544" lon="7.028839648221623"><ele></ele><time>2016-7-22T18:41:40Z</time></trkpt>
<trkpt lat="46.68013647803567" lon="7.028552901044006"><ele></ele><time>2016-7-22T18:41:43Z</time></trkpt>
<trkpt lat="46.68010999223733" lon="7.028461705319265"><ele></ele><time>2016-7-22T18:41:46Z</time></trkpt>
<trkpt lat="46.680078394318514" lon="7.028297754556821"><ele></ele><time>2016-7-22T18:41:49Z</time></trkpt>
<trkpt lat="46.68003372077595" lon="7.0281193027957585"><ele></ele><time>2016-7-22T18:41:52Z</time></trkpt>
<trkpt lat="46.67989475446126" lon="7.027614457522346"><ele></ele><time>2016-7-22T18:41:55Z</time></trkpt>
<trkpt lat="46.6798193200498" lon="7.02736995564382"><ele></ele><time>2016-7-22T18:41:58Z</time></trkpt>
<trkpt lat="46.67971966147701" lon="7.0271610762848375"><ele></ele><time>2016-7-22T18:42:1Z</time></trkpt>
<trkpt lat="46.67968353634873" lon="7.027080525350003"><ele></ele><time>2016-7-22T18:42:4Z</time></trkpt>
<trkpt lat="46.67958806975445" lon="7.026784558115988"><ele></ele><time>2016-7-22T18:42:7Z</time></trkpt>
<trkpt lat="46.67940426021475" lon="7.02627677811948"><ele></ele><time>2016-7-22T18:42:10Z</time></trkpt>
<trkpt lat="46.679366290986586" lon="7.026202932663087"><ele></ele><time>2016-7-22T18:42:13Z</time></trkpt>
<trkpt lat="46.67926026131455" lon="7.026066137518297"><ele></ele><time>2016-7-22T18:42:16Z</time></trkpt>
<trkpt lat="46.679068232082315" lon="7.026021122194788"><ele></ele><time>2016-7-22T18:42:19Z</time></trkpt>
<trkpt lat="46.67899681797564" lon="7.026034699202809"><ele></ele><time>2016-7-22T18:42:22Z</time></trkpt>
<trkpt lat="46.67888935990706" lon="7.02619453957481"><ele></ele><time>2016-7-22T18:42:25Z</time></trkpt>
<trkpt lat="46.67879187607204" lon="7.026375754034156"><ele></ele><time>2016-7-22T18:42:28Z</time></trkpt>
<trkpt lat="46.67879011362671" lon="7.026567448117319"><ele></ele><time>2016-7-22T18:42:31Z</time></trkpt>
<trkpt lat="46.67879748691338" lon="7.026807003081539"><ele></ele><time>2016-7-22T18:42:34Z</time></trkpt>
<trkpt lat="46.6787839064024" lon="7.026961145961675"><ele></ele><time>2016-7-22T18:42:37Z</time></trkpt>
<trkpt lat="46.678627246644794" lon="7.0271062330327"><ele></ele><time>2016-7-22T18:42:40Z</time></trkpt>
<trkpt lat="46.67861048266624" lon="7.027118302580284"><ele></ele><time>2016-7-22T18:42:43Z</time></trkpt>
<trkpt lat="46.678589192955286" lon="7.027087289039599"><ele></ele><time>2016-7-22T18:42:46Z</time></trkpt>
<trkpt lat="46.678458771246895" lon="7.0270063167978964"><ele></ele><time>2016-7-22T18:42:49Z</time></trkpt>
<trkpt lat="46.67833404870632" lon="7.0269712775189355"><ele></ele><time>2016-7-22T18:42:52Z</time></trkpt>
<trkpt lat="46.67818325879576" lon="7.026902290920834"><ele></ele><time>2016-7-22T18:42:55Z</time></trkpt>
<trkpt lat="46.678102710233496" lon="7.02675895848775"><ele></ele><time>2016-7-22T18:42:58Z</time></trkpt>
<trkpt lat="46.678108913417965" lon="7.0267106788707245"><ele></ele><time>2016-7-22T18:43:1Z</time></trkpt>
<trkpt lat="46.67805325982215" lon="7.026510266260155"><ele></ele><time>2016-7-22T18:43:4Z</time></trkpt>
<trkpt lat="46.67803641278039" lon="7.026457711331987"><ele></ele><time>2016-7-22T18:43:7Z</time></trkpt>
<trkpt lat="46.67787481268735" lon="7.026175740318014"><ele></ele><time>2016-7-22T18:43:10Z</time></trkpt>
<trkpt lat="46.677676667105295" lon="7.025921512545368"><ele></ele><time>2016-7-22T18:43:13Z</time></trkpt>
<trkpt lat="46.677456812819024" lon="7.02562763785961"><ele></ele><time>2016-7-22T18:43:16Z</time></trkpt>
<trkpt lat="46.677245593266356" lon="7.025217925471145"><ele></ele><time>2016-7-22T18:43:19Z</time></trkpt>
<trkpt lat="46.67720670164494" lon="7.02517685323235"><ele></ele><time>2016-7-22T18:43:22Z</time></trkpt>
<trkpt lat="46.67709891175198" lon="7.025041902059574"><ele></ele><time>2016-7-22T18:43:25Z</time></trkpt>
<trkpt lat="46.67700193534019" lon="7.024838135713896"><ele></ele><time>2016-7-22T18:43:28Z</time></trkpt>
<trkpt lat="46.676899426816426" lon="7.024638308732405"><ele></ele><time>2016-7-22T18:43:31Z</time></trkpt>
<trkpt lat="46.67682491374401" lon="7.024451893452944"><ele></ele><time>2016-7-22T18:43:34Z</time></trkpt>
<trkpt lat="46.67669298480185" lon="7.0242422589527855"><ele></ele><time>2016-7-22T18:43:37Z</time></trkpt>
<trkpt lat="46.676563737504516" lon="7.024081239554425"><ele></ele><time>2016-7-22T18:43:40Z</time></trkpt>
<trkpt lat="46.676255538658864" lon="7.023714440224534"><ele></ele><time>2016-7-22T18:43:43Z</time></trkpt>
<trkpt lat="46.676086812397976" lon="7.023564400190541"><ele></ele><time>2016-7-22T18:43:46Z</time></trkpt>
<trkpt lat="46.67602093073674" lon="7.023545790817507"><ele></ele><time>2016-7-22T18:43:49Z</time></trkpt>
<trkpt lat="46.675802246295866" lon="7.0235617951166605"><ele></ele><time>2016-7-22T18:43:52Z</time></trkpt>
<trkpt lat="46.67566721302244" lon="7.023610155528082"><ele></ele><time>2016-7-22T18:43:55Z</time></trkpt>
<trkpt lat="46.67555414016728" lon="7.023676286090844"><ele></ele><time>2016-7-22T18:43:58Z</time></trkpt>
<trkpt lat="46.67545950779319" lon="7.023720205042621"><ele></ele><time>2016-7-22T18:44:1Z</time></trkpt>
<trkpt lat="46.675371246325625" lon="7.023708803580978"><ele></ele><time>2016-7-22T18:44:4Z</time></trkpt>
<trkpt lat="46.675183157871146" lon="7.0235556617861095"><ele></ele><time>2016-7-22T18:44:7Z</time></trkpt>
<trkpt lat="46.67512398241931" lon="7.023479552712107"><ele></ele><time>2016-7-22T18:44:10Z</time></trkpt>
<trkpt lat="46.674964980345706" lon="7.023230606441808"><ele></ele><time>2016-7-22T18:44:13Z</time></trkpt>
<trkpt lat="46.67462493064861" lon="7.02282709361444"><ele></ele><time>2016-7-22T18:44:16Z</time></trkpt>
<trkpt lat="46.67416133147291" lon="7.022423996974808"><ele></ele><time>2016-7-22T18:44:19Z</time></trkpt>
<trkpt lat="46.67383628368013" lon="7.022168341273012"><ele></ele><time>2016-7-22T18:44:22Z</time></trkpt>
<trkpt lat="46.67377258187315" lon="7.022102541831675"><ele></ele><time>2016-7-22T18:44:25Z</time></trkpt>
<trkpt lat="46.67366194228978" lon="7.021954430992492"><ele></ele><time>2016-7-22T18:44:28Z</time></trkpt>
<trkpt lat="46.673618357431224" lon="7.02185929536082"><ele></ele><time>2016-7-22T18:44:31Z</time></trkpt>
<trkpt lat="46.67347913826207" lon="7.021476490544905"><ele></ele><time>2016-7-22T18:44:34Z</time></trkpt>
<trkpt lat="46.67344712133291" lon="7.0213062533274355"><ele></ele><time>2016-7-22T18:44:37Z</time></trkpt>
<trkpt lat="46.673429436888796" lon="7.021186726964448"><ele></ele><time>2016-7-22T18:44:40Z</time></trkpt>
<trkpt lat="46.6734073930087" lon="7.0211386143186045"><ele></ele><time>2016-7-22T18:44:43Z</time></trkpt>
<trkpt lat="46.673350061119905" lon="7.021101816412761"><ele></ele><time>2016-7-22T18:44:46Z</time></trkpt>
<trkpt lat="46.673273449776836" lon="7.021153782413986"><ele></ele><time>2016-7-22T18:44:49Z</time></trkpt>
<trkpt lat="46.67322676113006" lon="7.021269786863696"><ele></ele><time>2016-7-22T18:44:52Z</time></trkpt>
<trkpt lat="46.67321653417221" lon="7.021356455507914"><ele></ele><time>2016-7-22T18:44:55Z</time></trkpt>
<trkpt lat="46.67321259143228" lon="7.021632303867522"><ele></ele><time>2016-7-22T18:44:58Z</time></trkpt>
<trkpt lat="46.673242761732915" lon="7.022024661491232"><ele></ele><time>2016-7-22T18:45:1Z</time></trkpt>
<trkpt lat="46.67333663333226" lon="7.0225262368175105"><ele></ele><time>2016-7-22T18:45:4Z</time></trkpt>
<trkpt lat="46.67340125514742" lon="7.02276277565945"><ele></ele><time>2016-7-22T18:45:7Z</time></trkpt>
<trkpt lat="46.67343704465938" lon="7.02287182506791"><ele></ele><time>2016-7-22T18:45:10Z</time></trkpt>
<trkpt lat="46.67348507121186" lon="7.023028651614984"><ele></ele><time>2016-7-22T18:45:13Z</time></trkpt>
<trkpt lat="46.673464953898325" lon="7.023089168487208"><ele></ele><time>2016-7-22T18:45:16Z</time></trkpt>
<trkpt lat="46.67339245079186" lon="7.023047676360353"><ele></ele><time>2016-7-22T18:45:19Z</time></trkpt>
<trkpt lat="46.67318089208532" lon="7.02297005496111"><ele></ele><time>2016-7-22T18:45:22Z</time></trkpt>
<trkpt lat="46.6729244885862" lon="7.023022938749635"><ele></ele><time>2016-7-22T18:45:25Z</time></trkpt>
<trkpt lat="46.67267437145369" lon="7.023082025295038"><ele></ele><time>2016-7-22T18:45:28Z</time></trkpt>
<trkpt lat="46.67252458598279" lon="7.023132564656056"><ele></ele><time>2016-7-22T18:45:31Z</time></trkpt>
<trkpt lat="46.67229559125369" lon="7.023194333907609"><ele></ele><time>2016-7-22T18:45:34Z</time></trkpt>
<trkpt lat="46.67211856461722" lon="7.023239089115498"><ele></ele><time>2016-7-22T18:45:37Z</time></trkpt>
<trkpt lat="46.67195955909525" lon="7.023284682937332"><ele></ele><time>2016-7-22T18:45:40Z</time></trkpt>
<trkpt lat="46.67176442759194" lon="7.023322983654332"><ele></ele><time>2016-7-22T18:45:43Z</time></trkpt>
<trkpt lat="46.67155152693171" lon="7.0233178656917215"><ele></ele><time>2016-7-22T18:45:46Z</time></trkpt>
<trkpt lat="46.67138254745004" lon="7.023318951369763"><ele></ele><time>2016-7-22T18:45:49Z</time></trkpt>
<trkpt lat="46.671178866299044" lon="7.023365130876062"><ele></ele><time>2016-7-22T18:45:52Z</time></trkpt>
<trkpt lat="46.67096479150426" lon="7.023416926014158"><ele></ele><time>2016-7-22T18:45:55Z</time></trkpt>
<trkpt lat="46.67080654010036" lon="7.023484396624306"><ele></ele><time>2016-7-22T18:45:58Z</time></trkpt>
<trkpt lat="46.670650551948256" lon="7.023540467898406"><ele></ele><time>2016-7-22T18:46:1Z</time></trkpt>
<trkpt lat="46.67057545000302" lon="7.023537029553761"><ele></ele><time>2016-7-22T18:46:4Z</time></trkpt>
<trkpt lat="46.6705606142243" lon="7.0235185890163825"><ele></ele><time>2016-7-22T18:46:7Z</time></trkpt>
<trkpt lat="46.670484844092215" lon="7.023313314406238"><ele></ele><time>2016-7-22T18:46:10Z</time></trkpt>
<trkpt lat="46.6704122593774" lon="7.023083480891603"><ele></ele><time>2016-7-22T18:46:13Z</time></trkpt>
<trkpt lat="46.670366915231995" lon="7.02291030968814"><ele></ele><time>2016-7-22T18:46:16Z</time></trkpt>
<trkpt lat="46.6703264319661" lon="7.022791118060951"><ele></ele><time>2016-7-22T18:46:19Z</time></trkpt>
<trkpt lat="46.67024177648906" lon="7.0226295967799715"><ele></ele><time>2016-7-22T18:46:22Z</time></trkpt>
<trkpt lat="46.67011001489092" lon="7.022446113802783"><ele></ele><time>2016-7-22T18:46:25Z</time></trkpt>
<trkpt lat="46.67000591403071" lon="7.022227846573054"><ele></ele><time>2016-7-22T18:46:28Z</time></trkpt>
<trkpt lat="46.66996744323456" lon="7.022039755740406"><ele></ele><time>2016-7-22T18:46:31Z</time></trkpt>
<trkpt lat="46.66991111938437" lon="7.021814951747783"><ele></ele><time>2016-7-22T18:46:34Z</time></trkpt>
<trkpt lat="46.66985647253917" lon="7.021537257979227"><ele></ele><time>2016-7-22T18:46:37Z</time></trkpt>
<trkpt lat="46.669804674879416" lon="7.021316393587305"><ele></ele><time>2016-7-22T18:46:40Z</time></trkpt>
<trkpt lat="46.669731838520406" lon="7.021102820956842"><ele></ele><time>2016-7-22T18:46:43Z</time></trkpt>
<trkpt lat="46.669637628870674" lon="7.020838202026921"><ele></ele><time>2016-7-22T18:46:46Z</time></trkpt>
<trkpt lat="46.66955708142582" lon="7.020600992244388"><ele></ele><time>2016-7-22T18:46:49Z</time></trkpt>
<trkpt lat="46.66942984745707" lon="7.020299240700657"><ele></ele><time>2016-7-22T18:46:52Z</time></trkpt>
<trkpt lat="46.66932306561127" lon="7.019976870152979"><ele></ele><time>2016-7-22T18:46:55Z</time></trkpt>
<trkpt lat="46.669280403917064" lon="7.019783917714475"><ele></ele><time>2016-7-22T18:46:58Z</time></trkpt>
<trkpt lat="46.66926204825385" lon="7.019721220639067"><ele></ele><time>2016-7-22T18:47:1Z</time></trkpt>
<trkpt lat="46.669224582595334" lon="7.019592389889682"><ele></ele><time>2016-7-22T18:47:4Z</time></trkpt>
<trkpt lat="46.6691752990615" lon="7.019410082313152"><ele></ele><time>2016-7-22T18:47:7Z</time></trkpt>
<trkpt lat="46.66914101818125" lon="7.019311091217419"><ele></ele><time>2016-7-22T18:47:10Z</time></trkpt>
<trkpt lat="46.669126267034756" lon="7.019223583790211"><ele></ele><time>2016-7-22T18:47:13Z</time></trkpt>
<trkpt lat="46.66906717704598" lon="7.019008251279695"><ele></ele><time>2016-7-22T18:47:16Z</time></trkpt>
<trkpt lat="46.66899023300663" lon="7.0188410304785664"><ele></ele><time>2016-7-22T18:47:19Z</time></trkpt>
<trkpt lat="46.6689035659261" lon="7.018675234371807"><ele></ele><time>2016-7-22T18:47:22Z</time></trkpt>
<trkpt lat="46.668830477239226" lon="7.018536093039987"><ele></ele><time>2016-7-22T18:47:25Z</time></trkpt>
<trkpt lat="46.66875118664737" lon="7.018336266575071"><ele></ele><time>2016-7-22T18:47:28Z</time></trkpt>
<trkpt lat="46.66869712519168" lon="7.018173572539983"><ele></ele><time>2016-7-22T18:47:31Z</time></trkpt>
<trkpt lat="46.66864876276465" lon="7.0180682946831"><ele></ele><time>2016-7-22T18:47:34Z</time></trkpt>
<trkpt lat="46.66859277318807" lon="7.017929405210273"><ele></ele><time>2016-7-22T18:47:37Z</time></trkpt>
<trkpt lat="46.66853628021221" lon="7.017831670875335"><ele></ele><time>2016-7-22T18:47:40Z</time></trkpt>
<trkpt lat="46.66853535842127" lon="7.017812979207096"><ele></ele><time>2016-7-22T18:47:43Z</time></trkpt>
<trkpt lat="46.668491270652346" lon="7.017717927373709"><ele></ele><time>2016-7-22T18:47:46Z</time></trkpt>
<trkpt lat="46.668440980213" lon="7.017627233984254"><ele></ele><time>2016-7-22T18:47:49Z</time></trkpt>
<trkpt lat="46.66841725987204" lon="7.017585910637118"><ele></ele><time>2016-7-22T18:47:52Z</time></trkpt>
<trkpt lat="46.668313996630054" lon="7.017417264289035"><ele></ele><time>2016-7-22T18:47:55Z</time></trkpt>
<trkpt lat="46.668227496881535" lon="7.0172777035435745"><ele></ele><time>2016-7-22T18:47:58Z</time></trkpt>
<trkpt lat="46.668106547795595" lon="7.017108889139619"><ele></ele><time>2016-7-22T18:48:1Z</time></trkpt>
<trkpt lat="46.66799389688863" lon="7.016933285588261"><ele></ele><time>2016-7-22T18:48:4Z</time></trkpt>
<trkpt lat="46.66784905913643" lon="7.016781569704812"><ele></ele><time>2016-7-22T18:48:7Z</time></trkpt>
<trkpt lat="46.667752165293635" lon="7.016685929891469"><ele></ele><time>2016-7-22T18:48:10Z</time></trkpt>
<trkpt lat="46.66760850058697" lon="7.016570172404454"><ele></ele><time>2016-7-22T18:48:13Z</time></trkpt>
<trkpt lat="46.66754915746846" lon="7.016497248436959"><ele></ele><time>2016-7-22T18:48:16Z</time></trkpt>
<trkpt lat="46.667494172753685" lon="7.016440753104723"><ele></ele><time>2016-7-22T18:48:19Z</time></trkpt>
<trkpt lat="46.66737070881803" lon="7.0162954079707625"><ele></ele><time>2016-7-22T18:48:22Z</time></trkpt>
<trkpt lat="46.66725789042001" lon="7.016107483013045"><ele></ele><time>2016-7-22T18:48:25Z</time></trkpt>
<trkpt lat="46.667155046179445" lon="7.015947134755593"><ele></ele><time>2016-7-22T18:48:28Z</time></trkpt>
<trkpt lat="46.66705672868758" lon="7.015743284520519"><ele></ele><time>2016-7-22T18:48:31Z</time></trkpt>
<trkpt lat="46.66696411046045" lon="7.01557673389415"><ele></ele><time>2016-7-22T18:48:34Z</time></trkpt>
<trkpt lat="46.66689781096201" lon="7.0154520095916215"><ele></ele><time>2016-7-22T18:48:37Z</time></trkpt>
<trkpt lat="46.66684374915547" lon="7.015319490406527"><ele></ele><time>2016-7-22T18:48:40Z</time></trkpt>
<trkpt lat="46.6667971475672" lon="7.015160568398272"><ele></ele><time>2016-7-22T18:48:43Z</time></trkpt>
<trkpt lat="46.66679672889537" lon="7.015124610018271"><ele></ele><time>2016-7-22T18:48:46Z</time></trkpt>
<trkpt lat="46.666802261998" lon="7.015036683971112"><ele></ele><time>2016-7-22T18:48:49Z</time></trkpt>
<trkpt lat="46.66677552550557" lon="7.014881953383746"><ele></ele><time>2016-7-22T18:48:52Z</time></trkpt>
<trkpt lat="46.66676965849638" lon="7.014853706227228"><ele></ele><time>2016-7-22T18:48:55Z</time></trkpt>
<trkpt lat="46.66674342517634" lon="7.014677182700015"><ele></ele><time>2016-7-22T18:48:58Z</time></trkpt>
<trkpt lat="46.666668074553826" lon="7.014438380462822"><ele></ele><time>2016-7-22T18:49:1Z</time></trkpt>
<trkpt lat="46.66661920936934" lon="7.014320110636934"><ele></ele><time>2016-7-22T18:49:4Z</time></trkpt>
<trkpt lat="46.66660646921452" lon="7.014289600203817"><ele></ele><time>2016-7-22T18:49:7Z</time></trkpt>
<trkpt lat="46.66654519992865" lon="7.014075022002317"><ele></ele><time>2016-7-22T18:49:10Z</time></trkpt>
<trkpt lat="46.666538578858685" lon="7.014020371828725"><ele></ele><time>2016-7-22T18:49:13Z</time></trkpt>
<trkpt lat="46.66650496867971" lon="7.013909310800524"><ele></ele><time>2016-7-22T18:49:16Z</time></trkpt>
<trkpt lat="46.666453002265456" lon="7.0137843353772045"><ele></ele><time>2016-7-22T18:49:19Z</time></trkpt>
<trkpt lat="46.66642148764529" lon="7.013666568874677"><ele></ele><time>2016-7-22T18:49:22Z</time></trkpt>
<trkpt lat="46.6663561112705" lon="7.013447799622896"><ele></ele><time>2016-7-22T18:49:25Z</time></trkpt>
<trkpt lat="46.66630255430072" lon="7.01315275531898"><ele></ele><time>2016-7-22T18:49:28Z</time></trkpt>
<trkpt lat="46.66624229178866" lon="7.012858465227605"><ele></ele><time>2016-7-22T18:49:31Z</time></trkpt>
<trkpt lat="46.66618135719409" lon="7.012693675544729"><ele></ele><time>2016-7-22T18:49:34Z</time></trkpt>
<trkpt lat="46.66617347828559" lon="7.012685712549224"><ele></ele><time>2016-7-22T18:49:37Z</time></trkpt>
<trkpt lat="46.66616358796839" lon="7.01265645946869"><ele></ele><time>2016-7-22T18:49:40Z</time></trkpt>
<trkpt lat="46.66613165394755" lon="7.012564593040341"><ele></ele><time>2016-7-22T18:49:43Z</time></trkpt>
<trkpt lat="46.66609343346185" lon="7.01247498957754"><ele></ele><time>2016-7-22T18:49:46Z</time></trkpt>
<trkpt lat="46.66606744980347" lon="7.012450765259256"><ele></ele><time>2016-7-22T18:49:49Z</time></trkpt>
<trkpt lat="46.6660735683716" lon="7.012470379060493"><ele></ele><time>2016-7-22T18:49:52Z</time></trkpt>
<trkpt lat="46.666048338813475" lon="7.0124692049974975"><ele></ele><time>2016-7-22T18:49:55Z</time></trkpt>
<trkpt lat="46.665993439124975" lon="7.012310785704005"><ele></ele><time>2016-7-22T18:49:58Z</time></trkpt>
<trkpt lat="46.665867462745815" lon="7.011985648648349"><ele></ele><time>2016-7-22T18:50:1Z</time></trkpt>
<trkpt lat="46.66575665705293" lon="7.011710049006364"><ele></ele><time>2016-7-22T18:50:4Z</time></trkpt>
<trkpt lat="46.6657212027009" lon="7.011611979884497"><ele></ele><time>2016-7-22T18:50:7Z</time></trkpt>
<trkpt lat="46.66565339498752" lon="7.0114428314465735"><ele></ele><time>2016-7-22T18:50:10Z</time></trkpt>
<trkpt lat="46.66554895917979" lon="7.011198831734004"><ele></ele><time>2016-7-22T18:50:13Z</time></trkpt>
<trkpt lat="46.66550285935979" lon="7.011137391282876"><ele></ele><time>2016-7-22T18:50:16Z</time></trkpt>
<trkpt lat="46.665473775295396" lon="7.011036807739741"><ele></ele><time>2016-7-22T18:50:19Z</time></trkpt>
<trkpt lat="46.665391215849304" lon="7.0108303594762615"><ele></ele><time>2016-7-22T18:50:22Z</time></trkpt>
<trkpt lat="46.66537210561864" lon="7.010784593824975"><ele></ele><time>2016-7-22T18:50:25Z</time></trkpt>
<trkpt lat="46.665325838992494" lon="7.010652829189821"><ele></ele><time>2016-7-22T18:50:28Z</time></trkpt>
<trkpt lat="46.665287283082115" lon="7.010575882393153"><ele></ele><time>2016-7-22T18:50:31Z</time></trkpt>
<trkpt lat="46.66525484601621" lon="7.0104951638841255"><ele></ele><time>2016-7-22T18:50:34Z</time></trkpt>
<trkpt lat="46.66517077736392" lon="7.0103277752593165"><ele></ele><time>2016-7-22T18:50:37Z</time></trkpt>
<trkpt lat="46.66512207969166" lon="7.010220569546578"><ele></ele><time>2016-7-22T18:50:40Z</time></trkpt>
<trkpt lat="46.66509207275428" lon="7.010192908551087"><ele></ele><time>2016-7-22T18:50:43Z</time></trkpt>
<trkpt lat="46.66508754686896" lon="7.010163320320601"><ele></ele><time>2016-7-22T18:50:46Z</time></trkpt>
<trkpt lat="46.66508620628986" lon="7.010118728556205"><ele></ele><time>2016-7-22T18:50:49Z</time></trkpt>
<trkpt lat="46.665062906425064" lon="7.009961064378463"><ele></ele><time>2016-7-22T18:50:52Z</time></trkpt>
<trkpt lat="46.66499375786564" lon="7.009770122953804"><ele></ele><time>2016-7-22T18:50:55Z</time></trkpt>
<trkpt lat="46.66483400288323" lon="7.009401399185676"><ele></ele><time>2016-7-22T18:50:58Z</time></trkpt>
<trkpt lat="46.66473535089941" lon="7.009132421528758"><ele></ele><time>2016-7-22T18:51:1Z</time></trkpt>
<trkpt lat="46.664667123599976" lon="7.009005014961833"><ele></ele><time>2016-7-22T18:51:4Z</time></trkpt>
<trkpt lat="46.66462571817652" lon="7.008899569620251"><ele></ele><time>2016-7-22T18:51:7Z</time></trkpt>
<trkpt lat="46.66458431262806" lon="7.008804685478461"><ele></ele><time>2016-7-22T18:51:10Z</time></trkpt>
<trkpt lat="46.66449580142843" lon="7.008648612316429"><ele></ele><time>2016-7-22T18:51:13Z</time></trkpt>
<trkpt lat="46.66433973354154" lon="7.00836027109714"><ele></ele><time>2016-7-22T18:51:16Z</time></trkpt>
<trkpt lat="46.664189616083945" lon="7.008133788474593"><ele></ele><time>2016-7-22T18:51:19Z</time></trkpt>
<trkpt lat="46.66409104559026" lon="7.008061617939058"><ele></ele><time>2016-7-22T18:51:22Z</time></trkpt>
<trkpt lat="46.6639780577637" lon="7.008026159804502"><ele></ele><time>2016-7-22T18:51:25Z</time></trkpt>
<trkpt lat="46.66380178653944" lon="7.0079840784654"><ele></ele><time>2016-7-22T18:51:28Z</time></trkpt>
<trkpt lat="46.663738084086475" lon="7.007974018670055"><ele></ele><time>2016-7-22T18:51:31Z</time></trkpt>
<trkpt lat="46.66358402523677" lon="7.007907211237927"><ele></ele><time>2016-7-22T18:51:34Z</time></trkpt>
<trkpt lat="46.66354211637117" lon="7.007846357615858"><ele></ele><time>2016-7-22T18:51:37Z</time></trkpt>
<trkpt lat="46.66341228452614" lon="7.007504289003266"><ele></ele><time>2016-7-22T18:51:40Z</time></trkpt>
<trkpt lat="46.663237360250264" lon="7.006969686966348"><ele></ele><time>2016-7-22T18:51:43Z</time></trkpt>
<trkpt lat="46.66305623185468" lon="7.006561819181261"><ele></ele><time>2016-7-22T18:51:46Z</time></trkpt>
<trkpt lat="46.66299496109412" lon="7.006472885717525"><ele></ele><time>2016-7-22T18:51:49Z</time></trkpt>
<trkpt lat="46.66273563037025" lon="7.005984298330637"><ele></ele><time>2016-7-22T18:51:52Z</time></trkpt>
<trkpt lat="46.66267595211593" lon="7.005900310227732"><ele></ele><time>2016-7-22T18:51:55Z</time></trkpt>
<trkpt lat="46.66251410110786" lon="7.005578944153292"><ele></ele><time>2016-7-22T18:51:58Z</time></trkpt>
<trkpt lat="46.662325097140496" lon="7.004882738644438"><ele></ele><time>2016-7-22T18:52:1Z</time></trkpt>
<trkpt lat="46.662151934929376" lon="7.004192568480013"><ele></ele><time>2016-7-22T18:52:4Z</time></trkpt>
<trkpt lat="46.66213969897271" lon="7.004054350576784"><ele></ele><time>2016-7-22T18:52:7Z</time></trkpt>
<trkpt lat="46.66204926167311" lon="7.0037525160312155"><ele></ele><time>2016-7-22T18:52:10Z</time></trkpt>
<trkpt lat="46.66200886240632" lon="7.003620080973109"><ele></ele><time>2016-7-22T18:52:13Z</time></trkpt>
<trkpt lat="46.66184558905703" lon="7.003081958794488"><ele></ele><time>2016-7-22T18:52:16Z</time></trkpt>
<trkpt lat="46.66168323543499" lon="7.002736033717068"><ele></ele><time>2016-7-22T18:52:19Z</time></trkpt>
<trkpt lat="46.661620120924624" lon="7.002624552880375"><ele></ele><time>2016-7-22T18:52:22Z</time></trkpt>
<trkpt lat="46.66134469707391" lon="7.002124649517289"><ele></ele><time>2016-7-22T18:52:25Z</time></trkpt>
<trkpt lat="46.661142528702605" lon="7.001833038233488"><ele></ele><time>2016-7-22T18:52:28Z</time></trkpt>
<trkpt lat="46.66101286062505" lon="7.001817863901723"><ele></ele><time>2016-7-22T18:52:31Z</time></trkpt>
<trkpt lat="46.66101663031404" lon="7.002000505702845"><ele></ele><time>2016-7-22T18:52:34Z</time></trkpt>
<trkpt lat="46.66101620953244" lon="7.002142159888532"><ele></ele><time>2016-7-22T18:52:37Z</time></trkpt>
<trkpt lat="46.661009084266524" lon="7.002195636273476"><ele></ele><time>2016-7-22T18:52:40Z</time></trkpt>
<trkpt lat="46.66099273816474" lon="7.002310216527196"><ele></ele><time>2016-7-22T18:52:43Z</time></trkpt>
<trkpt lat="46.660935150090175" lon="7.002671978181379"><ele></ele><time>2016-7-22T18:52:46Z</time></trkpt>
<trkpt lat="46.66086498864955" lon="7.003075062329469"><ele></ele><time>2016-7-22T18:52:49Z</time></trkpt>
<trkpt lat="46.66083288452748" lon="7.00319106713305"><ele></ele><time>2016-7-22T18:52:52Z</time></trkpt>
<trkpt lat="46.66079901933983" lon="7.00337965919305"><ele></ele><time>2016-7-22T18:52:55Z</time></trkpt>
<trkpt lat="46.660724833746464" lon="7.00385298361186"><ele></ele><time>2016-7-22T18:52:58Z</time></trkpt>
<trkpt lat="46.66070178174695" lon="7.003998325298924"><ele></ele><time>2016-7-22T18:53:1Z</time></trkpt>
<trkpt lat="46.660670515091326" lon="7.004175434211384"><ele></ele><time>2016-7-22T18:53:4Z</time></trkpt>
<trkpt lat="46.66060110774148" lon="7.0046026582671965"><ele></ele><time>2016-7-22T18:53:7Z</time></trkpt>
<trkpt lat="46.66055089707795" lon="7.0048535274955865"><ele></ele><time>2016-7-22T18:53:10Z</time></trkpt>
<trkpt lat="46.66052549806617" lon="7.005005323194592"><ele></ele><time>2016-7-22T18:53:13Z</time></trkpt>
<trkpt lat="46.660513174901006" lon="7.005152425337209"><ele></ele><time>2016-7-22T18:53:16Z</time></trkpt>
<trkpt lat="46.66049154691428" lon="7.005374796767187"><ele></ele><time>2016-7-22T18:53:19Z</time></trkpt>
<trkpt lat="46.660478134037646" lon="7.005527179484327"><ele></ele><time>2016-7-22T18:53:22Z</time></trkpt>
<trkpt lat="46.660447955652415" lon="7.0058206292672995"><ele></ele><time>2016-7-22T18:53:25Z</time></trkpt>
<trkpt lat="46.66043915343064" lon="7.0059224692059825"><ele></ele><time>2016-7-22T18:53:28Z</time></trkpt>
<trkpt lat="46.660353148295805" lon="7.006484138630054"><ele></ele><time>2016-7-22T18:53:31Z</time></trkpt>
<trkpt lat="46.66028416142397" lon="7.006795524770745"><ele></ele><time>2016-7-22T18:53:34Z</time></trkpt>
<trkpt lat="46.660226742818324" lon="7.007004065209842"><ele></ele><time>2016-7-22T18:53:37Z</time></trkpt>
<trkpt lat="46.66010000271645" lon="7.007469174123609"><ele></ele><time>2016-7-22T18:53:40Z</time></trkpt>
<trkpt lat="46.66003478913584" lon="7.007660280016214"><ele></ele><time>2016-7-22T18:53:43Z</time></trkpt>
<trkpt lat="46.660016348209794" lon="7.007720042563191"><ele></ele><time>2016-7-22T18:53:46Z</time></trkpt>
<trkpt lat="46.659958846198975" lon="7.007893798095228"><ele></ele><time>2016-7-22T18:53:49Z</time></trkpt>
<trkpt lat="46.659939399465856" lon="7.0079516327802995"><ele></ele><time>2016-7-22T18:53:52Z</time></trkpt>
<trkpt lat="46.659891370004196" lon="7.00804249149459"><ele></ele><time>2016-7-22T18:53:55Z</time></trkpt>
<trkpt lat="46.65986060721425" lon="7.008139888504235"><ele></ele><time>2016-7-22T18:53:58Z</time></trkpt>
<trkpt lat="46.65978541812354" lon="7.008417914518947"><ele></ele><time>2016-7-22T18:54:1Z</time></trkpt>
<trkpt lat="46.65975038064263" lon="7.008508019170068"><ele></ele><time>2016-7-22T18:54:4Z</time></trkpt>
<trkpt lat="46.659702601377774" lon="7.008705328087424"><ele></ele><time>2016-7-22T18:54:7Z</time></trkpt>
<trkpt lat="46.65967980007409" lon="7.008915461911697"><ele></ele><time>2016-7-22T18:54:10Z</time></trkpt>
<trkpt lat="46.659684241307644" lon="7.009015290508318"><ele></ele><time>2016-7-22T18:54:13Z</time></trkpt>
<trkpt lat="46.65971080811707" lon="7.009341850165658"><ele></ele><time>2016-7-22T18:54:16Z</time></trkpt>
<trkpt lat="46.65971499499946" lon="7.0096860951130004"><ele></ele><time>2016-7-22T18:54:19Z</time></trkpt>
<trkpt lat="46.65971314974624" lon="7.009790114513348"><ele></ele><time>2016-7-22T18:54:22Z</time></trkpt>
<trkpt lat="46.65960275752646" lon="7.009990523254522"><ele></ele><time>2016-7-22T18:54:25Z</time></trkpt>
<trkpt lat="46.65938415490427" lon="7.0101786080343365"><ele></ele><time>2016-7-22T18:54:28Z</time></trkpt>
<trkpt lat="46.65932950429844" lon="7.010221438276822"><ele></ele><time>2016-7-22T18:54:31Z</time></trkpt>
<trkpt lat="46.659256245866665" lon="7.010261753507376"><ele></ele><time>2016-7-22T18:54:34Z</time></trkpt>
<trkpt lat="46.659134036910785" lon="7.01031296405638"><ele></ele><time>2016-7-22T18:54:37Z</time></trkpt>
<trkpt lat="46.65907234600671" lon="7.010312543501065"><ele></ele><time>2016-7-22T18:54:40Z</time></trkpt>
<trkpt lat="46.65881912897742" lon="7.010254869999365"><ele></ele><time>2016-7-22T18:54:43Z</time></trkpt>
<trkpt lat="46.658712092233166" lon="7.010226536625917"><ele></ele><time>2016-7-22T18:54:46Z</time></trkpt>
<trkpt lat="46.6584234194939" lon="7.010185961371408"><ele></ele><time>2016-7-22T18:54:49Z</time></trkpt>
<trkpt lat="46.65817824788441" lon="7.010231553133891"><ele></ele><time>2016-7-22T18:54:52Z</time></trkpt>
<trkpt lat="46.6581012177407" lon="7.010259211598603"><ele></ele><time>2016-7-22T18:54:55Z</time></trkpt>
<trkpt lat="46.657949838774144" lon="7.010389965740634"><ele></ele><time>2016-7-22T18:54:58Z</time></trkpt>
<trkpt lat="46.6579231838916" lon="7.010422654541042"><ele></ele><time>2016-7-22T18:55:1Z</time></trkpt>
<trkpt lat="46.657887894331374" lon="7.010565481374728"><ele></ele><time>2016-7-22T18:55:4Z</time></trkpt>
<trkpt lat="46.65790775607377" lon="7.010852897382517"><ele></ele><time>2016-7-22T18:55:7Z</time></trkpt>
<trkpt lat="46.657929715332585" lon="7.010968149101951"><ele></ele><time>2016-7-22T18:55:10Z</time></trkpt>
<trkpt lat="46.65796667525353" lon="7.011334439244178"><ele></ele><time>2016-7-22T18:55:13Z</time></trkpt>
<trkpt lat="46.65796415992212" lon="7.011398393123212"><ele></ele><time>2016-7-22T18:55:16Z</time></trkpt>
<trkpt lat="46.657956865517434" lon="7.01157910683205"><ele></ele><time>2016-7-22T18:55:19Z</time></trkpt>
<trkpt lat="46.657957451761995" lon="7.011620513458811"><ele></ele><time>2016-7-22T18:55:22Z</time></trkpt>
<trkpt lat="46.657953679566404" lon="7.011648676571895"><ele></ele><time>2016-7-22T18:55:25Z</time></trkpt>
<trkpt lat="46.657940183216425" lon="7.011772476996159"><ele></ele><time>2016-7-22T18:55:28Z</time></trkpt>
<trkpt lat="46.657916291582374" lon="7.012040697405574"><ele></ele><time>2016-7-22T18:55:31Z</time></trkpt>
<trkpt lat="46.65782752043445" lon="7.012603204982159"><ele></ele><time>2016-7-22T18:55:34Z</time></trkpt>
<trkpt lat="46.65766633010949" lon="7.013116425244772"><ele></ele><time>2016-7-22T18:55:37Z</time></trkpt>
<trkpt lat="46.657403214948566" lon="7.013691417745588"><ele></ele><time>2016-7-22T18:55:40Z</time></trkpt>
<trkpt lat="46.65708268253682" lon="7.014361627341781"><ele></ele><time>2016-7-22T18:55:43Z</time></trkpt>
<trkpt lat="46.6570105124" lon="7.0145169423476545"><ele></ele><time>2016-7-22T18:55:46Z</time></trkpt>
<trkpt lat="46.65666617481039" lon="7.015232916593882"><ele></ele><time>2016-7-22T18:55:49Z</time></trkpt>
<trkpt lat="46.656590148923016" lon="7.015394182663509"><ele></ele><time>2016-7-22T18:55:52Z</time></trkpt>
<trkpt lat="46.65633935564844" lon="7.015930534886868"><ele></ele><time>2016-7-22T18:55:55Z</time></trkpt>
<trkpt lat="46.6562931698898" lon="7.016049053943085"><ele></ele><time>2016-7-22T18:55:58Z</time></trkpt>
<trkpt lat="46.65625503157273" lon="7.016099595934458"><ele></ele><time>2016-7-22T18:56:1Z</time></trkpt>
<trkpt lat="46.65624145297332" lon="7.016090626975093"><ele></ele><time>2016-7-22T18:56:4Z</time></trkpt>
<trkpt lat="46.656140452131496" lon="7.015984174390565"><ele></ele><time>2016-7-22T18:56:7Z</time></trkpt>
<trkpt lat="46.6559725640302" lon="7.015840756023629"><ele></ele><time>2016-7-22T18:56:10Z</time></trkpt>
<trkpt lat="46.655815907977505" lon="7.015673617127944"><ele></ele><time>2016-7-22T18:56:13Z</time></trkpt>
<trkpt lat="46.65566109632758" lon="7.015474207938072"><ele></ele><time>2016-7-22T18:56:16Z</time></trkpt>
<trkpt lat="46.65549564017994" lon="7.015229368567081"><ele></ele><time>2016-7-22T18:56:19Z</time></trkpt>
<trkpt lat="46.65537796051609" lon="7.0150219974414645"><ele></ele><time>2016-7-22T18:56:22Z</time></trkpt>
<trkpt lat="46.65524393692432" lon="7.014746061940242"><ele></ele><time>2016-7-22T18:56:25Z</time></trkpt>
<trkpt lat="46.65518878668331" lon="7.014511283457718"><ele></ele><time>2016-7-22T18:56:28Z</time></trkpt>
<trkpt lat="46.655096337161076" lon="7.014255549329616"><ele></ele><time>2016-7-22T18:56:31Z</time></trkpt>
<trkpt lat="46.65496289779023" lon="7.014192681885024"><ele></ele><time>2016-7-22T18:56:34Z</time></trkpt>
<trkpt lat="46.65483255819022" lon="7.014260153148685"><ele></ele><time>2016-7-22T18:56:37Z</time></trkpt>
<trkpt lat="46.654620494114994" lon="7.0143944262722"><ele></ele><time>2016-7-22T18:56:40Z</time></trkpt>
<trkpt lat="46.65437364483527" lon="7.014549988616031"><ele></ele><time>2016-7-22T18:56:43Z</time></trkpt>
<trkpt lat="46.6541634247721" lon="7.014685183794382"><ele></ele><time>2016-7-22T18:56:46Z</time></trkpt>
<trkpt lat="46.653926801498336" lon="7.014835130504579"><ele></ele><time>2016-7-22T18:56:49Z</time></trkpt>
<trkpt lat="46.653743655287904" lon="7.0149481980919814"><ele></ele><time>2016-7-22T18:56:52Z</time></trkpt>
<trkpt lat="46.65357978769851" lon="7.015043245037207"><ele></ele><time>2016-7-22T18:56:55Z</time></trkpt>
<trkpt lat="46.65347518094933" lon="7.015079787677994"><ele></ele><time>2016-7-22T18:56:58Z</time></trkpt>
<trkpt lat="46.65325699807692" lon="7.0152142282999845"><ele></ele><time>2016-7-22T18:57:1Z</time></trkpt>
<trkpt lat="46.6530589320538" lon="7.0153275469943885"><ele></ele><time>2016-7-22T18:57:4Z</time></trkpt>
<trkpt lat="46.65294116520706" lon="7.015405579760053"><ele></ele><time>2016-7-22T18:57:7Z</time></trkpt>
<trkpt lat="46.65288986620755" lon="7.015547232761297"><ele></ele><time>2016-7-22T18:57:10Z</time></trkpt>
<trkpt lat="46.65285222905791" lon="7.015746050684262"><ele></ele><time>2016-7-22T18:57:13Z</time></trkpt>
<trkpt lat="46.65283571324501" lon="7.016037572986528"><ele></ele><time>2016-7-22T18:57:16Z</time></trkpt>
<trkpt lat="46.65281609625017" lon="7.016318366376075"><ele></ele><time>2016-7-22T18:57:19Z</time></trkpt>
<trkpt lat="46.65280712318644" lon="7.016692785907321"><ele></ele><time>2016-7-22T18:57:22Z</time></trkpt>
<trkpt lat="46.65279496382043" lon="7.017166950045535"><ele></ele><time>2016-7-22T18:57:25Z</time></trkpt>
<trkpt lat="46.652749529702106" lon="7.0175176479235635"><ele></ele><time>2016-7-22T18:57:28Z</time></trkpt>
<trkpt lat="46.65265305293365" lon="7.017594926823366"><ele></ele><time>2016-7-22T18:57:31Z</time></trkpt>
<trkpt lat="46.652488097110535" lon="7.017570112493279"><ele></ele><time>2016-7-22T18:57:34Z</time></trkpt>
<trkpt lat="46.65229078721481" lon="7.017534736198759"><ele></ele><time>2016-7-22T18:57:37Z</time></trkpt>
<trkpt lat="46.65210194316068" lon="7.017490391464041"><ele></ele><time>2016-7-22T18:57:40Z</time></trkpt>
<trkpt lat="46.65184822327866" lon="7.017428694654058"><ele></ele><time>2016-7-22T18:57:43Z</time></trkpt>
<trkpt lat="46.65154882201651" lon="7.017361632346791"><ele></ele><time>2016-7-22T18:57:46Z</time></trkpt>
<trkpt lat="46.65132829423831" lon="7.0173242438463825"><ele></ele><time>2016-7-22T18:57:49Z</time></trkpt>
<trkpt lat="46.65114967427568" lon="7.0174368086362175"><ele></ele><time>2016-7-22T18:57:52Z</time></trkpt>
<trkpt lat="46.651043892857025" lon="7.017575610510052"><ele></ele><time>2016-7-22T18:57:55Z</time></trkpt>
<trkpt lat="46.6509257901214" lon="7.0177059463685625"><ele></ele><time>2016-7-22T18:57:58Z</time></trkpt>
<trkpt lat="46.65083719258124" lon="7.017764114709878"><ele></ele><time>2016-7-22T18:58:1Z</time></trkpt>
<trkpt lat="46.65079343928136" lon="7.01773838122641"><ele></ele><time>2016-7-22T18:58:4Z</time></trkpt>
<trkpt lat="46.65080366602573" lon="7.017669901293196"><ele></ele><time>2016-7-22T18:58:7Z</time></trkpt>
<trkpt lat="46.65083585395848" lon="7.017553225916597"><ele></ele><time>2016-7-22T18:58:10Z</time></trkpt>
<trkpt lat="46.65086988625552" lon="7.017407465368844"><ele></ele><time>2016-7-22T18:58:13Z</time></trkpt>
<trkpt lat="46.650870056859226" lon="7.017155756727757"><ele></ele><time>2016-7-22T18:58:16Z</time></trkpt>
<trkpt lat="46.65085438587974" lon="7.016883847319054"><ele></ele><time>2016-7-22T18:58:19Z</time></trkpt>
<trkpt lat="46.65078658004653" lon="7.016555526451498"><ele></ele><time>2016-7-22T18:58:22Z</time></trkpt>
<trkpt lat="46.65070427270861" lon="7.01629426049154"><ele></ele><time>2016-7-22T18:58:25Z</time></trkpt>
<trkpt lat="46.65063814074118" lon="7.01617959445358"><ele></ele><time>2016-7-22T18:58:28Z</time></trkpt>
<trkpt lat="46.65055583188608" lon="7.016047074573373"><ele></ele><time>2016-7-22T18:58:31Z</time></trkpt>
<trkpt lat="46.6505242325738" lon="7.016003655553258"><ele></ele><time>2016-7-22T18:58:34Z</time></trkpt>
<trkpt lat="46.650459357318965" lon="7.015937772239123"><ele></ele><time>2016-7-22T18:58:37Z</time></trkpt>
<trkpt lat="46.650362883273004" lon="7.015784297258315"><ele></ele><time>2016-7-22T18:58:40Z</time></trkpt>
<trkpt lat="46.65017429318614" lon="7.015527555017324"><ele></ele><time>2016-7-22T18:58:43Z</time></trkpt>
<trkpt lat="46.64998536832891" lon="7.015227981225656"><ele></ele><time>2016-7-22T18:58:46Z</time></trkpt>
<trkpt lat="46.64980298069684" lon="7.014985236912048"><ele></ele><time>2016-7-22T18:58:49Z</time></trkpt>
<trkpt lat="46.64965093515204" lon="7.014780630987719"><ele></ele><time>2016-7-22T18:58:52Z</time></trkpt>
<trkpt lat="46.64949821867069" lon="7.014608546843589"><ele></ele><time>2016-7-22T18:58:55Z</time></trkpt>
<trkpt lat="46.64934030473793" lon="7.01449270516815"><ele></ele><time>2016-7-22T18:58:58Z</time></trkpt>
<trkpt lat="46.64923787835115" lon="7.014439477643641"><ele></ele><time>2016-7-22T18:59:1Z</time></trkpt>
<trkpt lat="46.649106953331994" lon="7.014396223914677"><ele></ele><time>2016-7-22T18:59:4Z</time></trkpt>
<trkpt lat="46.64895029509837" lon="7.014414995685742"><ele></ele><time>2016-7-22T18:59:7Z</time></trkpt>
<trkpt lat="46.64876513710566" lon="7.0145392111675555"><ele></ele><time>2016-7-22T18:59:10Z</time></trkpt>
<trkpt lat="46.64859674293269" lon="7.014664516693642"><ele></ele><time>2016-7-22T18:59:13Z</time></trkpt>
<trkpt lat="46.64844829741664" lon="7.014815555144325"><ele></ele><time>2016-7-22T18:59:16Z</time></trkpt>
<trkpt lat="46.64829834327084" lon="7.014956870548405"><ele></ele><time>2016-7-22T18:59:19Z</time></trkpt>
<trkpt lat="46.648163476704845" lon="7.0150871221925435"><ele></ele><time>2016-7-22T18:59:22Z</time></trkpt>
<trkpt lat="46.6480315435368" lon="7.015240507968553"><ele></ele><time>2016-7-22T18:59:25Z</time></trkpt>
<trkpt lat="46.647897347696805" lon="7.015356175112038"><ele></ele><time>2016-7-22T18:59:28Z</time></trkpt>
<trkpt lat="46.64772375614497" lon="7.015531771958475"><ele></ele><time>2016-7-22T18:59:31Z</time></trkpt>
<trkpt lat="46.64758503370029" lon="7.015678871146016"><ele></ele><time>2016-7-22T18:59:34Z</time></trkpt>
<trkpt lat="46.647454944768796" lon="7.015814152049454"><ele></ele><time>2016-7-22T18:59:37Z</time></trkpt>
<trkpt lat="46.64730222461907" lon="7.015953288096473"><ele></ele><time>2016-7-22T18:59:40Z</time></trkpt>
<trkpt lat="46.647203065330714" lon="7.016056969942452"><ele></ele><time>2016-7-22T18:59:43Z</time></trkpt>
<trkpt lat="46.647031904416124" lon="7.016242792775699"><ele></ele><time>2016-7-22T18:59:46Z</time></trkpt>
<trkpt lat="46.646912460790944" lon="7.0163550236888055"><ele></ele><time>2016-7-22T18:59:49Z</time></trkpt>
<trkpt lat="46.646781365883925" lon="7.016502793611965"><ele></ele><time>2016-7-22T18:59:52Z</time></trkpt>
<trkpt lat="46.64661640813291" lon="7.016642432287454"><ele></ele><time>2016-7-22T18:59:55Z</time></trkpt>
<trkpt lat="46.64648833143259" lon="7.0167294334589005"><ele></ele><time>2016-7-22T18:59:58Z</time></trkpt>
<trkpt lat="46.64638607069852" lon="7.01684484990341"><ele></ele><time>2016-7-22T19:0:1Z</time></trkpt>
<trkpt lat="46.64628607295054" lon="7.016971414337622"><ele></ele><time>2016-7-22T19:0:4Z</time></trkpt>
<trkpt lat="46.64623267849001" lon="7.0171119776553805"><ele></ele><time>2016-7-22T19:0:7Z</time></trkpt>
<trkpt lat="46.64619562759135" lon="7.017352202230457"><ele></ele><time>2016-7-22T19:0:10Z</time></trkpt>
<trkpt lat="46.646148267513304" lon="7.017543476227076"><ele></ele><time>2016-7-22T19:0:13Z</time></trkpt>
<trkpt lat="46.646110880554986" lon="7.017850253134801"><ele></ele><time>2016-7-22T19:0:16Z</time></trkpt>
<trkpt lat="46.64606301672475" lon="7.018112689508956"><ele></ele><time>2016-7-22T19:0:19Z</time></trkpt>
<trkpt lat="46.64600475978922" lon="7.018335227762143"><ele></ele><time>2016-7-22T19:0:22Z</time></trkpt>
<trkpt lat="46.645893613748704" lon="7.018491212429412"><ele></ele><time>2016-7-22T19:0:25Z</time></trkpt>
<trkpt lat="46.64574475082889" lon="7.01849925555272"><ele></ele><time>2016-7-22T19:0:28Z</time></trkpt>
<trkpt lat="46.64558759017681" lon="7.01847636924422"><ele></ele><time>2016-7-22T19:0:31Z</time></trkpt>
<trkpt lat="46.64544853432792" lon="7.018464966574608"><ele></ele><time>2016-7-22T19:0:34Z</time></trkpt>
<trkpt lat="46.64531040088173" lon="7.0184202877562925"><ele></ele><time>2016-7-22T19:0:37Z</time></trkpt>
<trkpt lat="46.64509431558465" lon="7.018378540768512"><ele></ele><time>2016-7-22T19:0:40Z</time></trkpt>
<trkpt lat="46.64489122137814" lon="7.018411476877465"><ele></ele><time>2016-7-22T19:0:43Z</time></trkpt>
<trkpt lat="46.64472961728092" lon="7.018476181391541"><ele></ele><time>2016-7-22T19:0:46Z</time></trkpt>
<trkpt lat="46.644602966037986" lon="7.018518339399616"><ele></ele><time>2016-7-22T19:0:49Z</time></trkpt>
<trkpt lat="46.64444203301361" lon="7.018538955099169"><ele></ele><time>2016-7-22T19:0:52Z</time></trkpt>
<trkpt lat="46.64428914717528" lon="7.018513135223538"><ele></ele><time>2016-7-22T19:0:55Z</time></trkpt>
<trkpt lat="46.64411203756242" lon="7.018490583720794"><ele></ele><time>2016-7-22T19:0:58Z</time></trkpt>
<trkpt lat="46.6439722272703" lon="7.018485383644351"><ele></ele><time>2016-7-22T19:1:1Z</time></trkpt>
<trkpt lat="46.64380534289646" lon="7.018522176284397"><ele></ele><time>2016-7-22T19:1:4Z</time></trkpt>
<trkpt lat="46.643708865550465" lon="7.01864932754173"><ele></ele><time>2016-7-22T19:1:7Z</time></trkpt>
<trkpt lat="46.643610543256806" lon="7.018855184863536"><ele></ele><time>2016-7-22T19:1:10Z</time></trkpt>
<trkpt lat="46.64359377813019" lon="7.018965238908767"><ele></ele><time>2016-7-22T19:1:13Z</time></trkpt>
<trkpt lat="46.643582545705236" lon="7.019021145964521"><ele></ele><time>2016-7-22T19:1:16Z</time></trkpt>
<trkpt lat="46.64357969319352" lon="7.019247205931741"><ele></ele><time>2016-7-22T19:1:19Z</time></trkpt>
<trkpt lat="46.64353811747571" lon="7.019367569138583"><ele></ele><time>2016-7-22T19:1:22Z</time></trkpt>
<trkpt lat="46.64346653463615" lon="7.019476364607155"><ele></ele><time>2016-7-22T19:1:25Z</time></trkpt>
<trkpt lat="46.64343124580892" lon="7.019558171189622"><ele></ele><time>2016-7-22T19:1:28Z</time></trkpt>
<trkpt lat="46.64337533753048" lon="7.0196347805042585"><ele></ele><time>2016-7-22T19:1:31Z</time></trkpt>
<trkpt lat="46.64329554075421" lon="7.01971465820034"><ele></ele><time>2016-7-22T19:1:34Z</time></trkpt>
<trkpt lat="46.6432246284832" lon="7.019822196399333"><ele></ele><time>2016-7-22T19:1:37Z</time></trkpt>
<trkpt lat="46.64319235726024" lon="7.019894280040998"><ele></ele><time>2016-7-22T19:1:40Z</time></trkpt>
<trkpt lat="46.643176766294864" lon="7.019945493126611"><ele></ele><time>2016-7-22T19:1:43Z</time></trkpt>
<trkpt lat="46.643157067509634" lon="7.020054625093939"><ele></ele><time>2016-7-22T19:1:46Z</time></trkpt>
<trkpt lat="46.643148684990734" lon="7.020105922168368"><ele></ele><time>2016-7-22T19:1:49Z</time></trkpt>
<trkpt lat="46.6431437383564" lon="7.020216814683529"><ele></ele><time>2016-7-22T19:1:52Z</time></trkpt>
<trkpt lat="46.64315371100067" lon="7.0203728860293975"><ele></ele><time>2016-7-22T19:1:55Z</time></trkpt>
<trkpt lat="46.64316368497955" lon="7.020415466352461"><ele></ele><time>2016-7-22T19:1:58Z</time></trkpt>
<trkpt lat="46.643186314705886" lon="7.0205384294629045"><ele></ele><time>2016-7-22T19:2:1Z</time></trkpt>
<trkpt lat="46.643231993508934" lon="7.0207627303730185"><ele></ele><time>2016-7-22T19:2:4Z</time></trkpt>
<trkpt lat="46.643273147232655" lon="7.020888795224748"><ele></ele><time>2016-7-22T19:2:7Z</time></trkpt>
<trkpt lat="46.643307428495056" lon="7.020954510183283"><ele></ele><time>2016-7-22T19:2:10Z</time></trkpt>
<trkpt lat="46.64341680985072" lon="7.021179399324906"><ele></ele><time>2016-7-22T19:2:13Z</time></trkpt>
<trkpt lat="46.643463159031036" lon="7.0214187876825696"><ele></ele><time>2016-7-22T19:2:16Z</time></trkpt>
<trkpt lat="46.64350481514562" lon="7.021589528110315"><ele></ele><time>2016-7-22T19:2:19Z</time></trkpt>
<trkpt lat="46.64357262243942" lon="7.021794132057584"><ele></ele><time>2016-7-22T19:2:22Z</time></trkpt>
<trkpt lat="46.643647889420976" lon="7.022017260194595"><ele></ele><time>2016-7-22T19:2:25Z</time></trkpt>
<trkpt lat="46.64370915906357" lon="7.02220124449596"><ele></ele><time>2016-7-22T19:2:28Z</time></trkpt>
<trkpt lat="46.643773026592484" lon="7.022428479498675"><ele></ele><time>2016-7-22T19:2:31Z</time></trkpt>
<trkpt lat="46.643857175685355" lon="7.0228833675740026"><ele></ele><time>2016-7-22T19:2:34Z</time></trkpt>
<trkpt lat="46.64391995190618" lon="7.023252089141502"><ele></ele><time>2016-7-22T19:2:37Z</time></trkpt>
<trkpt lat="46.643928582849945" lon="7.023459122449013"><ele></ele><time>2016-7-22T19:2:40Z</time></trkpt>
<trkpt lat="46.64398482262277" lon="7.023704713647386"><ele></ele><time>2016-7-22T19:2:43Z</time></trkpt>
<trkpt lat="46.64405556253411" lon="7.023999423161351"><ele></ele><time>2016-7-22T19:2:46Z</time></trkpt>
<trkpt lat="46.6441372830566" lon="7.024268484297058"><ele></ele><time>2016-7-22T19:2:49Z</time></trkpt>
<trkpt lat="46.644174497557245" lon="7.024371247351376"><ele></ele><time>2016-7-22T19:2:52Z</time></trkpt>
<trkpt lat="46.644237107420935" lon="7.024631087939858"><ele></ele><time>2016-7-22T19:2:55Z</time></trkpt>
<trkpt lat="46.644281695968985" lon="7.024907775738035"><ele></ele><time>2016-7-22T19:2:58Z</time></trkpt>
<trkpt lat="46.644288232847366" lon="7.024994444810264"><ele></ele><time>2016-7-22T19:3:1Z</time></trkpt>
<trkpt lat="46.64427565828018" lon="7.025138948592478"><ele></ele><time>2016-7-22T19:3:4Z</time></trkpt>
<trkpt lat="46.644190999465046" lon="7.025264088477726"><ele></ele><time>2016-7-22T19:3:7Z</time></trkpt>
<trkpt lat="46.64404263850533" lon="7.025353855220511"><ele></ele><time>2016-7-22T19:3:10Z</time></trkpt>
<trkpt lat="46.6439667818217" lon="7.025383441572286"><ele></ele><time>2016-7-22T19:3:13Z</time></trkpt>
<trkpt lat="46.64374281832368" lon="7.025273465695207"><ele></ele><time>2016-7-22T19:3:16Z</time></trkpt>
<trkpt lat="46.64360879427734" lon="7.025035835483012"><ele></ele><time>2016-7-22T19:3:19Z</time></trkpt>
<trkpt lat="46.64355515064991" lon="7.024981854741997"><ele></ele><time>2016-7-22T19:3:22Z</time></trkpt>
<trkpt lat="46.643424560995776" lon="7.024931392595669"><ele></ele><time>2016-7-22T19:3:25Z</time></trkpt>
<trkpt lat="46.643186346647376" lon="7.024957538554176"><ele></ele><time>2016-7-22T19:3:28Z</time></trkpt>
<trkpt lat="46.64280563907355" lon="7.02504009140353"><ele></ele><time>2016-7-22T19:3:31Z</time></trkpt>
<trkpt lat="46.64273765910555" lon="7.025264724921234"><ele></ele><time>2016-7-22T19:3:34Z</time></trkpt>
<trkpt lat="46.64280529951502" lon="7.025405458730764"><ele></ele><time>2016-7-22T19:3:37Z</time></trkpt>
<trkpt lat="46.64279406575934" lon="7.025575192088146"><ele></ele><time>2016-7-22T19:3:40Z</time></trkpt>
<trkpt lat="46.64269096750058" lon="7.025634701210178"><ele></ele><time>2016-7-22T19:3:43Z</time></trkpt>
<trkpt lat="46.6426300309882" lon="7.025633526313309"><ele></ele><time>2016-7-22T19:3:46Z</time></trkpt>
<trkpt lat="46.64253070543913" lon="7.025620699664583"><ele></ele><time>2016-7-22T19:3:49Z</time></trkpt>
<trkpt lat="46.642294922205096" lon="7.02561641935923"><ele></ele><time>2016-7-22T19:3:52Z</time></trkpt>
<trkpt lat="46.64206148653264" lon="7.02555883017852"><ele></ele><time>2016-7-22T19:3:55Z</time></trkpt>
<trkpt lat="46.64178245520892" lon="7.025333266504643"><ele></ele><time>2016-7-22T19:3:58Z</time></trkpt>
<trkpt lat="46.641556899997234" lon="7.025151206183399"><ele></ele><time>2016-7-22T19:4:1Z</time></trkpt>
<trkpt lat="46.6413286626" lon="7.024966882683084"><ele></ele><time>2016-7-22T19:4:4Z</time></trkpt>
<trkpt lat="46.64109304936078" lon="7.0247618556971805"><ele></ele><time>2016-7-22T19:4:7Z</time></trkpt>
<trkpt lat="46.64093295555476" lon="7.024695467231868"><ele></ele><time>2016-7-22T19:4:10Z</time></trkpt>
<trkpt lat="46.64084829662713" lon="7.024830413953842"><ele></ele><time>2016-7-22T19:4:13Z</time></trkpt>
<trkpt lat="46.64076539781645" lon="7.024972652976924"><ele></ele><time>2016-7-22T19:4:16Z</time></trkpt>
<trkpt lat="46.64073706629595" lon="7.025027805262834"><ele></ele><time>2016-7-22T19:4:19Z</time></trkpt>
<trkpt lat="46.640712507158106" lon="7.025038533527871"><ele></ele><time>2016-7-22T19:4:22Z</time></trkpt>
<trkpt lat="46.64062785035514" lon="7.024992263411523"><ele></ele><time>2016-7-22T19:4:25Z</time></trkpt>
<trkpt lat="46.64060706345751" lon="7.0249707214214006"><ele></ele><time>2016-7-22T19:4:28Z</time></trkpt>
<trkpt lat="46.64046314760475" lon="7.024831326921757"><ele></ele><time>2016-7-22T19:4:31Z</time></trkpt>
<trkpt lat="46.64041218627672" lon="7.024770137800767"><ele></ele><time>2016-7-22T19:4:34Z</time></trkpt>
<trkpt lat="46.640414449784984" lon="7.024736777862144"><ele></ele><time>2016-7-22T19:4:37Z</time></trkpt>
<trkpt lat="46.64042216121098" lon="7.0247313298033305"><ele></ele><time>2016-7-22T19:4:40Z</time></trkpt>
<trkpt lat="46.640398943352615" lon="7.024727305942634"><ele></ele><time>2016-7-22T19:4:43Z</time></trkpt>
<trkpt lat="46.64040472707765" lon="7.024709955529942"><ele></ele><time>2016-7-22T19:4:46Z</time></trkpt>
<trkpt lat="46.6403957582867" lon="7.024722025266142"><ele></ele><time>2016-7-22T19:4:49Z</time></trkpt>
<trkpt lat="46.64038905284877" lon="7.024713978477533"><ele></ele><time>2016-7-22T19:4:52Z</time></trkpt>
<trkpt lat="46.64032887152601" lon="7.024643233765392"><ele></ele><time>2016-7-22T19:4:55Z</time></trkpt>
<trkpt lat="46.64015863704573" lon="7.024453882477857"><ele></ele><time>2016-7-22T19:4:58Z</time></trkpt>
<trkpt lat="46.63998706172701" lon="7.024241732369501"><ele></ele><time>2016-7-22T19:5:1Z</time></trkpt>
<trkpt lat="46.63978505891305" lon="7.02412706313027"><ele></ele><time>2016-7-22T19:5:4Z</time></trkpt>
<trkpt lat="46.63956897578385" lon="7.023901417103432"><ele></ele><time>2016-7-22T19:5:7Z</time></trkpt>
<trkpt lat="46.63953662199307" lon="7.023867134341477"><ele></ele><time>2016-7-22T19:5:10Z</time></trkpt>
<trkpt lat="46.63953603527768" lon="7.023865541765257"><ele></ele><time>2016-7-22T19:5:13Z</time></trkpt>
<trkpt lat="46.63952346315802" lon="7.023801336057904"><ele></ele><time>2016-7-22T19:5:16Z</time></trkpt>
<trkpt lat="46.63953234828716" lon="7.023775855267593"><ele></ele><time>2016-7-22T19:5:19Z</time></trkpt>
<trkpt lat="46.63953779655766" lon="7.023773676099613"><ele></ele><time>2016-7-22T19:5:22Z</time></trkpt>
<trkpt lat="46.6395284087378" lon="7.023780046128838"><ele></ele><time>2016-7-22T19:5:25Z</time></trkpt>
<trkpt lat="46.63952145174618" lon="7.023780213603564"><ele></ele><time>2016-7-22T19:5:28Z</time></trkpt>
<trkpt lat="46.63949161231761" lon="7.023764035820971"><ele></ele><time>2016-7-22T19:5:31Z</time></trkpt>
<trkpt lat="46.639468143212525" lon="7.023742074671784"><ele></ele><time>2016-7-22T19:5:34Z</time></trkpt>
<trkpt lat="46.639403018040156" lon="7.0235452659516895"><ele></ele><time>2016-7-22T19:5:37Z</time></trkpt>
<trkpt lat="46.63930679719126" lon="7.0232437664747"><ele></ele><time>2016-7-22T19:5:40Z</time></trkpt>
<trkpt lat="46.6392186201453" lon="7.023183917582344"><ele></ele><time>2016-7-22T19:5:43Z</time></trkpt>
<trkpt lat="46.6391891994231" lon="7.023200932163429"><ele></ele><time>2016-7-22T19:5:46Z</time></trkpt>
<trkpt lat="46.63912381891616" lon="7.0233345382345"><ele></ele><time>2016-7-22T19:5:49Z</time></trkpt>
<trkpt lat="46.639102611111525" lon="7.023467390971986"><ele></ele><time>2016-7-22T19:5:52Z</time></trkpt>
<trkpt lat="46.639059694365905" lon="7.023581551545527"><ele></ele><time>2016-7-22T19:5:55Z</time></trkpt>
<trkpt lat="46.63892390608828" lon="7.023688166220541"><ele></ele><time>2016-7-22T19:5:58Z</time></trkpt>
<trkpt lat="46.63874796851876" lon="7.023787822969428"><ele></ele><time>2016-7-22T19:6:1Z</time></trkpt>
<trkpt lat="46.638699604310496" lon="7.023835347249774"><ele></ele><time>2016-7-22T19:6:4Z</time></trkpt>
<trkpt lat="46.63839810402388" lon="7.024073805441502"><ele></ele><time>2016-7-22T19:6:7Z</time></trkpt>
<trkpt lat="46.63819484100717" lon="7.024207995010067"><ele></ele><time>2016-7-22T19:6:10Z</time></trkpt>
<trkpt lat="46.63816273775896" lon="7.024251747814458"><ele></ele><time>2016-7-22T19:6:13Z</time></trkpt>
<trkpt lat="46.63809928343996" lon="7.024526421440876"><ele></ele><time>2016-7-22T19:6:16Z</time></trkpt>
<trkpt lat="46.63809014620592" lon="7.024607138997879"><ele></ele><time>2016-7-22T19:6:19Z</time></trkpt>
<trkpt lat="46.63800271842045" lon="7.024983316964995"><ele></ele><time>2016-7-22T19:6:22Z</time></trkpt>
<trkpt lat="46.637883862752865" lon="7.024992785730581"><ele></ele><time>2016-7-22T19:6:25Z</time></trkpt>
<trkpt lat="46.63774757477054" lon="7.024825814928137"><ele></ele><time>2016-7-22T19:6:28Z</time></trkpt>
<trkpt lat="46.63771731655034" lon="7.024783737040656"><ele></ele><time>2016-7-22T19:6:31Z</time></trkpt>
<trkpt lat="46.63752411594006" lon="7.024567730740441"><ele></ele><time>2016-7-22T19:6:34Z</time></trkpt>
<trkpt lat="46.63736787978941" lon="7.024333536567203"><ele></ele><time>2016-7-22T19:6:37Z</time></trkpt>
<trkpt lat="46.6371714947039" lon="7.024062041960066"><ele></ele><time>2016-7-22T19:6:40Z</time></trkpt>
<trkpt lat="46.63695700245658" lon="7.023980313320272"><ele></ele><time>2016-7-22T19:6:43Z</time></trkpt>
<trkpt lat="46.63676371456583" lon="7.024059601628675"><ele></ele><time>2016-7-22T19:6:46Z</time></trkpt>
<trkpt lat="46.63670311230357" lon="7.024146269132886"><ele></ele><time>2016-7-22T19:6:49Z</time></trkpt>
<trkpt lat="46.63667930721462" lon="7.024184657711952"><ele></ele><time>2016-7-22T19:6:52Z</time></trkpt>
<trkpt lat="46.63653362882392" lon="7.024245004027431"><ele></ele><time>2016-7-22T19:6:55Z</time></trkpt>
<trkpt lat="46.63644251768224" lon="7.024221616364462"><ele></ele><time>2016-7-22T19:6:58Z</time></trkpt>
<trkpt lat="46.636419970416455" lon="7.024214323575006"><ele></ele><time>2016-7-22T19:7:1Z</time></trkpt>
<trkpt lat="46.63629499497472" lon="7.024307192179793"><ele></ele><time>2016-7-22T19:7:4Z</time></trkpt>
<trkpt lat="46.63617630503063" lon="7.0244801081535195"><ele></ele><time>2016-7-22T19:7:7Z</time></trkpt>
<trkpt lat="46.63602324899677" lon="7.024673391357252"><ele></ele><time>2016-7-22T19:7:10Z</time></trkpt>
<trkpt lat="46.63596641688317" lon="7.0249062394266355"><ele></ele><time>2016-7-22T19:7:13Z</time></trkpt>
<trkpt lat="46.63591402803979" lon="7.025066165001163"><ele></ele><time>2016-7-22T19:7:16Z</time></trkpt>
<trkpt lat="46.63586298004563" lon="7.025248051206368"><ele></ele><time>2016-7-22T19:7:19Z</time></trkpt>
<trkpt lat="46.63584722068973" lon="7.0253637211668645"><ele></ele><time>2016-7-22T19:7:22Z</time></trkpt>
<trkpt lat="46.63583867099109" lon="7.025376126190034"><ele></ele><time>2016-7-22T19:7:25Z</time></trkpt>
<trkpt lat="46.63581486627016" lon="7.025383166434036"><ele></ele><time>2016-7-22T19:7:28Z</time></trkpt>
<trkpt lat="46.635810423782544" lon="7.025389368941692"><ele></ele><time>2016-7-22T19:7:31Z</time></trkpt>
<trkpt lat="46.63578812752533" lon="7.025420381478008"><ele></ele><time>2016-7-22T19:7:34Z</time></trkpt>
<trkpt lat="46.63576490919852" lon="7.02545642313751"><ele></ele><time>2016-7-22T19:7:37Z</time></trkpt>
<trkpt lat="46.6357492345618" lon="7.0254953148228045"><ele></ele><time>2016-7-22T19:7:40Z</time></trkpt>
<trkpt lat="46.63574806035993" lon="7.025557927648105"><ele></ele><time>2016-7-22T19:7:43Z</time></trkpt>
<trkpt lat="46.63577840141565" lon="7.025683908437557"><ele></ele><time>2016-7-22T19:7:46Z</time></trkpt>
<trkpt lat="46.63577814753134" lon="7.025891025378548"><ele></ele><time>2016-7-22T19:7:49Z</time></trkpt>
<trkpt lat="46.63577772523239" lon="7.026164443207985"><ele></ele><time>2016-7-22T19:7:52Z</time></trkpt>
<trkpt lat="46.635778311193704" lon="7.0262304088377885"><ele></ele><time>2016-7-22T19:7:55Z</time></trkpt>
<trkpt lat="46.635785099992034" lon="7.026277599139159"><ele></ele><time>2016-7-22T19:7:58Z</time></trkpt>
<trkpt lat="46.63576942593776" lon="7.026266786110127"><ele></ele><time>2016-7-22T19:8:1Z</time></trkpt>
<trkpt lat="46.63574210053477" lon="7.026297547071523"><ele></ele><time>2016-7-22T19:8:4Z</time></trkpt>
<trkpt lat="46.635741849025266" lon="7.026301989476871"><ele></ele><time>2016-7-22T19:8:7Z</time></trkpt>
<trkpt lat="46.63571603236011" lon="7.0263333372072445"><ele></ele><time>2016-7-22T19:8:10Z</time></trkpt>
<trkpt lat="46.63569868078696" lon="7.026419502814678"><ele></ele><time>2016-7-22T19:8:13Z</time></trkpt>
<trkpt lat="46.63558166627931" lon="7.026673555702453"><ele></ele><time>2016-7-22T19:8:16Z</time></trkpt>
<trkpt lat="46.63542316233088" lon="7.02683901084998"><ele></ele><time>2016-7-22T19:8:19Z</time></trkpt>
<trkpt lat="46.63519785437896" lon="7.027016618198441"><ele></ele><time>2016-7-22T19:8:22Z</time></trkpt>
<trkpt lat="46.635024347216095" lon="7.027146868981761"><ele></ele><time>2016-7-22T19:8:25Z</time></trkpt>
<trkpt lat="46.63484874501846" lon="7.027239233491857"><ele></ele><time>2016-7-22T19:8:28Z</time></trkpt>
<trkpt lat="46.634784875133434" lon="7.027213080440984"><ele></ele><time>2016-7-22T19:8:31Z</time></trkpt>
<trkpt lat="46.634737602086496" lon="7.027131691004599"><ele></ele><time>2016-7-22T19:8:34Z</time></trkpt>
<trkpt lat="46.63467490685507" lon="7.027004284530783"><ele></ele><time>2016-7-22T19:8:37Z</time></trkpt>
<trkpt lat="46.63461799469459" lon="7.026915351150775"><ele></ele><time>2016-7-22T19:8:40Z</time></trkpt>
<trkpt lat="46.63459628615936" lon="7.02686204170586"><ele></ele><time>2016-7-22T19:8:43Z</time></trkpt>
<trkpt lat="46.63456217283485" lon="7.026770761926059"><ele></ele><time>2016-7-22T19:8:46Z</time></trkpt>
<trkpt lat="46.63449905794476" lon="7.026691467594643"><ele></ele><time>2016-7-22T19:8:49Z</time></trkpt>
<trkpt lat="46.634454298575584" lon="7.026686688857213"><ele></ele><time>2016-7-22T19:8:52Z</time></trkpt>
<trkpt lat="46.634348435294825" lon="7.026660786278037"><ele></ele><time>2016-7-22T19:8:55Z</time></trkpt>
<trkpt lat="46.63420543954272" lon="7.026685174277009"><ele></ele><time>2016-7-22T19:8:58Z</time></trkpt>
<trkpt lat="46.63402128718275" lon="7.026829674055516"><ele></ele><time>2016-7-22T19:9:1Z</time></trkpt>
<trkpt lat="46.633880134182434" lon="7.026962523990642"><ele></ele><time>2016-7-22T19:9:4Z</time></trkpt>
<trkpt lat="46.63369682029361" lon="7.027083219170693"><ele></ele><time>2016-7-22T19:9:7Z</time></trkpt>
<trkpt lat="46.63364284068217" lon="7.027090091069705"><ele></ele><time>2016-7-22T19:9:10Z</time></trkpt>
<trkpt lat="46.63351434634241" lon="7.027054800222828"><ele></ele><time>2016-7-22T19:9:13Z</time></trkpt>
<trkpt lat="46.63348559658588" lon="7.0270367784458685"><ele></ele><time>2016-7-22T19:9:16Z</time></trkpt>
<trkpt lat="46.63343580846188" lon="7.02699838813842"><ele></ele><time>2016-7-22T19:9:19Z</time></trkpt>
<trkpt lat="46.63340731022662" lon="7.026974918126934"><ele></ele><time>2016-7-22T19:9:22Z</time></trkpt>
<trkpt lat="46.633398928701524" lon="7.026941641754483"><ele></ele><time>2016-7-22T19:9:25Z</time></trkpt>
<trkpt lat="46.63337051416766" lon="7.02692823003487"><ele></ele><time>2016-7-22T19:9:28Z</time></trkpt>
<trkpt lat="46.633352493221786" lon="7.02691364509183"><ele></ele><time>2016-7-22T19:9:31Z</time></trkpt>
<trkpt lat="46.63334754805209" lon="7.026899982465341"><ele></ele><time>2016-7-22T19:9:34Z</time></trkpt>
<trkpt lat="46.633349224694136" lon="7.02687785426677"><ele></ele><time>2016-7-22T19:9:37Z</time></trkpt>
<trkpt lat="46.63335123617602" lon="7.026893025567951"><ele></ele><time>2016-7-22T19:9:40Z</time></trkpt>
<trkpt lat="46.633370849526685" lon="7.02692118923977"><ele></ele><time>2016-7-22T19:9:43Z</time></trkpt>
<trkpt lat="46.63338484724476" lon="7.026927978913748"><ele></ele><time>2016-7-22T19:9:46Z</time></trkpt>
<trkpt lat="46.63335660006164" lon="7.0269391261893475"><ele></ele><time>2016-7-22T19:9:49Z</time></trkpt>
<trkpt lat="46.633362048188445" lon="7.026949184607062"><ele></ele><time>2016-7-22T19:9:52Z</time></trkpt>
<trkpt lat="46.633333130698475" lon="7.026939293277135"><ele></ele><time>2016-7-22T19:9:55Z</time></trkpt>
<trkpt lat="46.63333614838505" lon="7.026922445712231"><ele></ele><time>2016-7-22T19:9:58Z</time></trkpt>
<trkpt lat="46.63335425369573" lon="7.026890427247147"><ele></ele><time>2016-7-22T19:10:1Z</time></trkpt>
<trkpt lat="46.633349643747664" lon="7.0268814584971615"><ele></ele><time>2016-7-22T19:10:4Z</time></trkpt>
<trkpt lat="46.6333524099287" lon="7.026868718061433"><ele></ele><time>2016-7-22T19:10:7Z</time></trkpt>
<trkpt lat="46.63337336525532" lon="7.026822618057283"><ele></ele><time>2016-7-22T19:10:10Z</time></trkpt>
<trkpt lat="46.6333512363939" lon="7.026874417731551"><ele></ele><time>2016-7-22T19:10:13Z</time></trkpt>
<trkpt lat="46.63334847003621" lon="7.026902245602203"><ele></ele><time>2016-7-22T19:10:16Z</time></trkpt>
<trkpt lat="46.63332868869392" lon="7.026904256796294"><ele></ele><time>2016-7-22T19:10:19Z</time></trkpt>
<trkpt lat="46.6333202231544" lon="7.026887660419333"><ele></ele><time>2016-7-22T19:10:22Z</time></trkpt>
<trkpt lat="46.6332221560646" lon="7.026775592005435"><ele></ele><time>2016-7-22T19:10:25Z</time></trkpt>
<trkpt lat="46.63304479686306" lon="7.026595125359508"><ele></ele><time>2016-7-22T19:10:28Z</time></trkpt>
<trkpt lat="46.6328739749381" lon="7.02646738106955"><ele></ele><time>2016-7-22T19:10:31Z</time></trkpt>
<trkpt lat="46.632674150218264" lon="7.02645664753941"><ele></ele><time>2016-7-22T19:10:34Z</time></trkpt>
<trkpt lat="46.63248572420866" lon="7.026505174368898"><ele></ele><time>2016-7-22T19:10:37Z</time></trkpt>
<trkpt lat="46.63230316489865" lon="7.026608435198147"><ele></ele><time>2016-7-22T19:10:40Z</time></trkpt>
<trkpt lat="46.632139800678075" lon="7.026668613468787"><ele></ele><time>2016-7-22T19:10:43Z</time></trkpt>
<trkpt lat="46.63211968409285" lon="7.026667774806103"><ele></ele><time>2016-7-22T19:10:46Z</time></trkpt>
<trkpt lat="46.6320915209334" lon="7.0266614877142"><ele></ele><time>2016-7-22T19:10:49Z</time></trkpt>
<trkpt lat="46.63207232677601" lon="7.026625025962294"><ele></ele><time>2016-7-22T19:10:52Z</time></trkpt>
<trkpt lat="46.63207844536653" lon="7.026642711932613"><ele></ele><time>2016-7-22T19:10:55Z</time></trkpt>
<trkpt lat="46.63206696220439" lon="7.0266375148800355"><ele></ele><time>2016-7-22T19:10:58Z</time></trkpt>
<trkpt lat="46.63205891554086" lon="7.026639693987491"><ele></ele><time>2016-7-22T19:11:1Z</time></trkpt>
<trkpt lat="46.63205447347855" lon="7.026609602832003"><ele></ele><time>2016-7-22T19:11:4Z</time></trkpt>
<trkpt lat="46.632043074248465" lon="7.026594766586679"><ele></ele><time>2016-7-22T19:11:7Z</time></trkpt>
<trkpt lat="46.63199571713197" lon="7.026534918649556"><ele></ele><time>2016-7-22T19:11:10Z</time></trkpt>
<trkpt lat="46.631813664668925" lon="7.026302567876444"><ele></ele><time>2016-7-22T19:11:13Z</time></trkpt>
<trkpt lat="46.63166924686164" lon="7.026082287933452"><ele></ele><time>2016-7-22T19:11:16Z</time></trkpt>
<trkpt lat="46.631607976904796" lon="7.025925377168964"><ele></ele><time>2016-7-22T19:11:19Z</time></trkpt>
<trkpt lat="46.63146020883786" lon="7.025491358479206"><ele></ele><time>2016-7-22T19:11:22Z</time></trkpt>
<trkpt lat="46.6313448762672" lon="7.02527183358816"><ele></ele><time>2016-7-22T19:11:25Z</time></trkpt>
<trkpt lat="46.6312372558339" lon="7.024986175619245"><ele></ele><time>2016-7-22T19:11:28Z</time></trkpt>
<trkpt lat="46.63112259594885" lon="7.024584930965503"><ele></ele><time>2016-7-22T19:11:31Z</time></trkpt>
<trkpt lat="46.631054285644325" lon="7.0243889603395395"><ele></ele><time>2016-7-22T19:11:34Z</time></trkpt>
<trkpt lat="46.63097424009938" lon="7.0242407663163196"><ele></ele><time>2016-7-22T19:11:37Z</time></trkpt>
<trkpt lat="46.63094113202984" lon="7.0241987721767805"><ele></ele><time>2016-7-22T19:11:40Z</time></trkpt>
<trkpt lat="46.63082152299724" lon="7.024123164551928"><ele></ele><time>2016-7-22T19:11:43Z</time></trkpt>
<trkpt lat="46.63077793740291" lon="7.02409240192361"><ele></ele><time>2016-7-22T19:11:46Z</time></trkpt>
<trkpt lat="46.6306968851496" lon="7.024019142138595"><ele></ele><time>2016-7-22T19:11:49Z</time></trkpt>
<trkpt lat="46.630618179965225" lon="7.02393456683196"><ele></ele><time>2016-7-22T19:11:52Z</time></trkpt>
<trkpt lat="46.63035960126587" lon="7.02364815093954"><ele></ele><time>2016-7-22T19:11:55Z</time></trkpt>
<trkpt lat="46.6300831686613" lon="7.02339827974723"><ele></ele><time>2016-7-22T19:11:58Z</time></trkpt>
<trkpt lat="46.629776979798606" lon="7.023187886643531"><ele></ele><time>2016-7-22T19:12:1Z</time></trkpt>
<trkpt lat="46.62956961249202" lon="7.0230810124335665"><ele></ele><time>2016-7-22T19:12:4Z</time></trkpt>
<trkpt lat="46.6295295469434" lon="7.0230808438536325"><ele></ele><time>2016-7-22T19:12:7Z</time></trkpt>
<trkpt lat="46.62947430870578" lon="7.023201961136204"><ele></ele><time>2016-7-22T19:12:10Z</time></trkpt>
<trkpt lat="46.62947170832754" lon="7.023371024173941"><ele></ele><time>2016-7-22T19:12:13Z</time></trkpt>
<trkpt lat="46.62947287947944" lon="7.023568334332721"><ele></ele><time>2016-7-22T19:12:16Z</time></trkpt>
<trkpt lat="46.62946231593188" lon="7.023767320597539"><ele></ele><time>2016-7-22T19:12:19Z</time></trkpt>
<trkpt lat="46.62943163514405" lon="7.024021375530143"><ele></ele><time>2016-7-22T19:12:22Z</time></trkpt>
<trkpt lat="46.62932141076358" lon="7.024209462972782"><ele></ele><time>2016-7-22T19:12:25Z</time></trkpt>
<trkpt lat="46.629178330825184" lon="7.024265786038637"><ele></ele><time>2016-7-22T19:12:28Z</time></trkpt>
<trkpt lat="46.629075902293316" lon="7.024396960504861"><ele></ele><time>2016-7-22T19:12:31Z</time></trkpt>
<trkpt lat="46.62900725333159" lon="7.024489327527165"><ele></ele><time>2016-7-22T19:12:34Z</time></trkpt>
<trkpt lat="46.628928462453246" lon="7.024564679036619"><ele></ele><time>2016-7-22T19:12:37Z</time></trkpt>
<trkpt lat="46.628740035621" lon="7.0246839491736255"><ele></ele><time>2016-7-22T19:12:40Z</time></trkpt>
<trkpt lat="46.6285319950332" lon="7.024809756739538"><ele></ele><time>2016-7-22T19:12:43Z</time></trkpt>
<trkpt lat="46.62839277041607" lon="7.024896841503125"><ele></ele><time>2016-7-22T19:12:46Z</time></trkpt>
<trkpt lat="46.62831867388717" lon="7.0249315408659045"><ele></ele><time>2016-7-22T19:12:49Z</time></trkpt>
<trkpt lat="46.62824005176751" lon="7.024911422438496"><ele></ele><time>2016-7-22T19:12:52Z</time></trkpt>
<trkpt lat="46.62813913542233" lon="7.024749230132061"><ele></ele><time>2016-7-22T19:12:55Z</time></trkpt>
<trkpt lat="46.62801156682327" lon="7.024396684048328"><ele></ele><time>2016-7-22T19:12:58Z</time></trkpt>
<trkpt lat="46.62786287590881" lon="7.024035001186489"><ele></ele><time>2016-7-22T19:13:1Z</time></trkpt>
<trkpt lat="46.627702618143054" lon="7.023657224786312"><ele></ele><time>2016-7-22T19:13:4Z</time></trkpt>
<trkpt lat="46.62751579027773" lon="7.023231167964546"><ele></ele><time>2016-7-22T19:13:7Z</time></trkpt>
<trkpt lat="46.627296443290895" lon="7.022574943155998"><ele></ele><time>2016-7-22T19:13:10Z</time></trkpt>
<trkpt lat="46.62720458182597" lon="7.022207729563887"><ele></ele><time>2016-7-22T19:13:13Z</time></trkpt>
<trkpt lat="46.62718999836987" lon="7.022116282594001"><ele></ele><time>2016-7-22T19:13:16Z</time></trkpt>
<trkpt lat="46.62716427136156" lon="7.021651002221681"><ele></ele><time>2016-7-22T19:13:19Z</time></trkpt>
<trkpt lat="46.62716217768704" lon="7.021497529419109"><ele></ele><time>2016-7-22T19:13:22Z</time></trkpt>
<trkpt lat="46.6271573171287" lon="7.021416560064058"><ele></ele><time>2016-7-22T19:13:25Z</time></trkpt>
<trkpt lat="46.62711809303744" lon="7.021138698858524"><ele></ele><time>2016-7-22T19:13:28Z</time></trkpt>
<trkpt lat="46.62707157679492" lon="7.020851198285766"><ele></ele><time>2016-7-22T19:13:31Z</time></trkpt>
<trkpt lat="46.627050208367045" lon="7.020387594396996"><ele></ele><time>2016-7-22T19:13:34Z</time></trkpt>
<trkpt lat="46.626983158442975" lon="7.019929605311304"><ele></ele><time>2016-7-22T19:13:37Z</time></trkpt>
<trkpt lat="46.626798094717884" lon="7.019170283816212"><ele></ele><time>2016-7-22T19:13:40Z</time></trkpt>
<trkpt lat="46.62662920677193" lon="7.018523028822485"><ele></ele><time>2016-7-22T19:13:43Z</time></trkpt>
<trkpt lat="46.626527707494624" lon="7.018039055002788"><ele></ele><time>2016-7-22T19:13:46Z</time></trkpt>
<trkpt lat="46.62642721153472" lon="7.017768400790597"><ele></ele><time>2016-7-22T19:13:49Z</time></trkpt>
<trkpt lat="46.62631053775525" lon="7.017559353227711"><ele></ele><time>2016-7-22T19:13:52Z</time></trkpt>
<trkpt lat="46.626088252823195" lon="7.017268579559814"><ele></ele><time>2016-7-22T19:13:55Z</time></trkpt>
<trkpt lat="46.62586110636749" lon="7.016979063061857"><ele></ele><time>2016-7-22T19:13:58Z</time></trkpt>
<trkpt lat="46.62564368194566" lon="7.016773282063667"><ele></ele><time>2016-7-22T19:14:1Z</time></trkpt>
<trkpt lat="46.62537680358189" lon="7.016622652859555"><ele></ele><time>2016-7-22T19:14:4Z</time></trkpt>
<trkpt lat="46.62489040406073" lon="7.016373111945411"><ele></ele><time>2016-7-22T19:14:7Z</time></trkpt>
<trkpt lat="46.62452394918612" lon="7.016169674359784"><ele></ele><time>2016-7-22T19:14:10Z</time></trkpt>
<trkpt lat="46.624384140055845" lon="7.016068585234219"><ele></ele><time>2016-7-22T19:14:13Z</time></trkpt>
<trkpt lat="46.62433644723903" lon="7.016045450038901"><ele></ele><time>2016-7-22T19:14:16Z</time></trkpt>
<trkpt lat="46.62423796010357" lon="7.016015608117152"><ele></ele><time>2016-7-22T19:14:19Z</time></trkpt>
<trkpt lat="46.62407007042105" lon="7.01601124556133"><ele></ele><time>2016-7-22T19:14:22Z</time></trkpt>
<trkpt lat="46.623873681835306" lon="7.0160404937891325"><ele></ele><time>2016-7-22T19:14:25Z</time></trkpt>
<trkpt lat="46.62367544978977" lon="7.016022216547572"><ele></ele><time>2016-7-22T19:14:28Z</time></trkpt>
<trkpt lat="46.62356279842759" lon="7.015890114996976"><ele></ele><time>2016-7-22T19:14:31Z</time></trkpt>
<trkpt lat="46.6234948221714" lon="7.015799924047514"><ele></ele><time>2016-7-22T19:14:34Z</time></trkpt>
<trkpt lat="46.62341033422" lon="7.015652568086133"><ele></ele><time>2016-7-22T19:14:37Z</time></trkpt>
<trkpt lat="46.623229874492516" lon="7.015408985538493"><ele></ele><time>2016-7-22T19:14:40Z</time></trkpt>
<trkpt lat="46.62311705359029" lon="7.015438068100023"><ele></ele><time>2016-7-22T19:14:43Z</time></trkpt>
<trkpt lat="46.622884118353745" lon="7.015595139582411"><ele></ele><time>2016-7-22T19:14:46Z</time></trkpt>
<trkpt lat="46.62271010839863" lon="7.015716002608112"><ele></ele><time>2016-7-22T19:14:49Z</time></trkpt>
<trkpt lat="46.622451272936445" lon="7.015882712676667"><ele></ele><time>2016-7-22T19:14:52Z</time></trkpt>
<trkpt lat="46.62210199604246" lon="7.0160989576967285"><ele></ele><time>2016-7-22T19:14:55Z</time></trkpt>
<trkpt lat="46.62158667251023" lon="7.016394156387984"><ele></ele><time>2016-7-22T19:14:58Z</time></trkpt>
<trkpt lat="46.62155088150089" lon="7.0164143559453755"><ele></ele><time>2016-7-22T19:15:1Z</time></trkpt>
<trkpt lat="46.621327250940155" lon="7.016508144236024"><ele></ele><time>2016-7-22T19:15:4Z</time></trkpt>
<trkpt lat="46.62111988262532" lon="7.016488944769068"><ele></ele><time>2016-7-22T19:15:7Z</time></trkpt>
<trkpt lat="46.62088275791176" lon="7.016521125705943"><ele></ele><time>2016-7-22T19:15:10Z</time></trkpt>
<trkpt lat="46.62063917860233" lon="7.016597646792935"><ele></ele><time>2016-7-22T19:15:13Z</time></trkpt>
<trkpt lat="46.62021857208179" lon="7.016775836268009"><ele></ele><time>2016-7-22T19:15:16Z</time></trkpt>
<trkpt lat="46.6198591542818" lon="7.016890408493498"><ele></ele><time>2016-7-22T19:15:19Z</time></trkpt>
<trkpt lat="46.61950334068931" lon="7.017006405729734"><ele></ele><time>2016-7-22T19:15:22Z</time></trkpt>
<trkpt lat="46.619148532780635" lon="7.0171348920364345"><ele></ele><time>2016-7-22T19:15:25Z</time></trkpt>
<trkpt lat="46.618994137393" lon="7.017180988898144"><ele></ele><time>2016-7-22T19:15:28Z</time></trkpt>
<trkpt lat="46.618811325672716" lon="7.017366727708649"><ele></ele><time>2016-7-22T19:15:31Z</time></trkpt>
<trkpt lat="46.61855986471239" lon="7.017668721991597"><ele></ele><time>2016-7-22T19:15:34Z</time></trkpt>
<trkpt lat="46.61824545529723" lon="7.0179951061501775"><ele></ele><time>2016-7-22T19:15:37Z</time></trkpt>
<trkpt lat="46.61788586755232" lon="7.018306150351016"><ele></ele><time>2016-7-22T19:15:40Z</time></trkpt>
<trkpt lat="46.61761546487133" lon="7.018489456348182"><ele></ele><time>2016-7-22T19:15:43Z</time></trkpt>
<trkpt lat="46.61728244924556" lon="7.018677370921211"><ele></ele><time>2016-7-22T19:15:46Z</time></trkpt>
<trkpt lat="46.61708186789861" lon="7.018861097662432"><ele></ele><time>2016-7-22T19:15:49Z</time></trkpt>
<trkpt lat="46.61689679340666" lon="7.019018086476801"><ele></ele><time>2016-7-22T19:15:52Z</time></trkpt>
<trkpt lat="46.616681209037765" lon="7.019150767033469"><ele></ele><time>2016-7-22T19:15:55Z</time></trkpt>
<trkpt lat="46.61664130851525" lon="7.019372886712421"><ele></ele><time>2016-7-22T19:15:58Z</time></trkpt>
<trkpt lat="46.61664516011413" lon="7.019719478788435"><ele></ele><time>2016-7-22T19:16:1Z</time></trkpt>
<trkpt lat="46.6165969590932" lon="7.020145949242332"><ele></ele><time>2016-7-22T19:16:4Z</time></trkpt>
<trkpt lat="46.61651053741198" lon="7.020499160901873"><ele></ele><time>2016-7-22T19:16:7Z</time></trkpt>
<trkpt lat="46.616403412722974" lon="7.020825466143142"><ele></ele><time>2016-7-22T19:16:10Z</time></trkpt>
<trkpt lat="46.61633585056522" lon="7.021160238046043"><ele></ele><time>2016-7-22T19:16:13Z</time></trkpt>
<trkpt lat="46.61633458869643" lon="7.021549829202821"><ele></ele><time>2016-7-22T19:16:16Z</time></trkpt>
<trkpt lat="46.61632989077563" lon="7.021894241782819"><ele></ele><time>2016-7-22T19:16:19Z</time></trkpt>
<trkpt lat="46.61631328946638" lon="7.022329933085143"><ele></ele><time>2016-7-22T19:16:22Z</time></trkpt>
<trkpt lat="46.61631822935923" lon="7.022792530826199"><ele></ele><time>2016-7-22T19:16:25Z</time></trkpt>
<trkpt lat="46.61630489682305" lon="7.023243225825192"><ele></ele><time>2016-7-22T19:16:28Z</time></trkpt>
<trkpt lat="46.616267090158274" lon="7.0236039823524505"><ele></ele><time>2016-7-22T19:16:31Z</time></trkpt>
<trkpt lat="46.61629960946268" lon="7.023818476199525"><ele></ele><time>2016-7-22T19:16:34Z</time></trkpt>
<trkpt lat="46.616433633086956" lon="7.024088209220177"><ele></ele><time>2016-7-22T19:16:37Z</time></trkpt>
<trkpt lat="46.61649532285188" lon="7.024183261531617"><ele></ele><time>2016-7-22T19:16:40Z</time></trkpt>
<trkpt lat="46.61663219754654" lon="7.024349142750657"><ele></ele><time>2016-7-22T19:16:43Z</time></trkpt>
<trkpt lat="46.61671953463426" lon="7.024557686728059"><ele></ele><time>2016-7-22T19:16:46Z</time></trkpt>
<trkpt lat="46.61669036294072" lon="7.024782321235666"><ele></ele><time>2016-7-22T19:16:49Z</time></trkpt>
<trkpt lat="46.616676699488075" lon="7.0248619490614805"><ele></ele><time>2016-7-22T19:16:52Z</time></trkpt>
<trkpt lat="46.61655071265582" lon="7.025431245443119"><ele></ele><time>2016-7-22T19:16:55Z</time></trkpt>
<trkpt lat="46.616389185248146" lon="7.0261085838154385"><ele></ele><time>2016-7-22T19:16:58Z</time></trkpt>
<trkpt lat="46.616423127105065" lon="7.026525919922192"><ele></ele><time>2016-7-22T19:17:1Z</time></trkpt>
<trkpt lat="46.61646126027643" lon="7.02691282979289"><ele></ele><time>2016-7-22T19:17:4Z</time></trkpt>
<trkpt lat="46.61651448140417" lon="7.027256070264947"><ele></ele><time>2016-7-22T19:17:7Z</time></trkpt>
<trkpt lat="46.61646946950572" lon="7.027343576351841"><ele></ele><time>2016-7-22T19:17:10Z</time></trkpt>
<trkpt lat="46.616392775161536" lon="7.027329828220139"><ele></ele><time>2016-7-22T19:17:13Z</time></trkpt>
<trkpt lat="46.61620996637557" lon="7.02726670814796"><ele></ele><time>2016-7-22T19:17:16Z</time></trkpt>
<trkpt lat="46.6160619422044" lon="7.027231333014414"><ele></ele><time>2016-7-22T19:17:19Z</time></trkpt>
<trkpt lat="46.615912492793115" lon="7.027222863779298"><ele></ele><time>2016-7-22T19:17:22Z</time></trkpt>
<trkpt lat="46.61573337145891" lon="7.027210202892932"><ele></ele><time>2016-7-22T19:17:25Z</time></trkpt>
<trkpt lat="46.61555357919799" lon="7.027229477069095"><ele></ele><time>2016-7-22T19:17:28Z</time></trkpt>
<trkpt lat="46.615373870530725" lon="7.027268029641089"><ele></ele><time>2016-7-22T19:17:31Z</time></trkpt>
<trkpt lat="46.615229030581766" lon="7.027310019614422"><ele></ele><time>2016-7-22T19:17:34Z</time></trkpt>
<trkpt lat="46.61500498102504" lon="7.027397270046033"><ele></ele><time>2016-7-22T19:17:37Z</time></trkpt>
<trkpt lat="46.61472259259975" lon="7.027548976000968"><ele></ele><time>2016-7-22T19:17:40Z</time></trkpt>
<trkpt lat="46.61445327959561" lon="7.027731779151476"><ele></ele><time>2016-7-22T19:17:43Z</time></trkpt>
<trkpt lat="46.61417164488216" lon="7.027940063022247"><ele></ele><time>2016-7-22T19:17:46Z</time></trkpt>
<trkpt lat="46.61387944863983" lon="7.02817567167527"><ele></ele><time>2016-7-22T19:17:49Z</time></trkpt>
<trkpt lat="46.61365036958512" lon="7.028293180690136"><ele></ele><time>2016-7-22T19:17:52Z</time></trkpt>
<trkpt lat="46.613380303551175" lon="7.028361654567921"><ele></ele><time>2016-7-22T19:17:55Z</time></trkpt>
<trkpt lat="46.613078135573915" lon="7.028363323865958"><ele></ele><time>2016-7-22T19:17:58Z</time></trkpt>
<trkpt lat="46.612829359713054" lon="7.028422159046298"><ele></ele><time>2016-7-22T19:18:1Z</time></trkpt>
<trkpt lat="46.6125641551126" lon="7.028497338567672"><ele></ele><time>2016-7-22T19:18:4Z</time></trkpt>
<trkpt lat="46.612322000646515" lon="7.028583331294696"><ele></ele><time>2016-7-22T19:18:7Z</time></trkpt>
<trkpt lat="46.61220867583744" lon="7.028698579910536"><ele></ele><time>2016-7-22T19:18:10Z</time></trkpt>
<trkpt lat="46.61218654714348" lon="7.028736549447401"><ele></ele><time>2016-7-22T19:18:13Z</time></trkpt>
<trkpt lat="46.61204774092675" lon="7.028885408928508"><ele></ele><time>2016-7-22T19:18:16Z</time></trkpt>
<trkpt lat="46.61182360635462" lon="7.029075673049602"><ele></ele><time>2016-7-22T19:18:19Z</time></trkpt>
<trkpt lat="46.61155823232289" lon="7.029304409176035"><ele></ele><time>2016-7-22T19:18:22Z</time></trkpt>
<trkpt lat="46.61132730823471" lon="7.0295090900271955"><ele></ele><time>2016-7-22T19:18:25Z</time></trkpt>
<trkpt lat="46.61106268875083" lon="7.029722990192184"><ele></ele><time>2016-7-22T19:18:28Z</time></trkpt>
<trkpt lat="46.61077065991892" lon="7.029979218366645"><ele></ele><time>2016-7-22T19:18:31Z</time></trkpt>
<trkpt lat="46.61055054825019" lon="7.030205357167283"><ele></ele><time>2016-7-22T19:18:34Z</time></trkpt>
<trkpt lat="46.61035784534732" lon="7.030439124150099"><ele></ele><time>2016-7-22T19:18:37Z</time></trkpt>
<trkpt lat="46.61009942698239" lon="7.030781435342523"><ele></ele><time>2016-7-22T19:18:40Z</time></trkpt>
<trkpt lat="46.609996160822774" lon="7.0308667607785225"><ele></ele><time>2016-7-22T19:18:43Z</time></trkpt>
<trkpt lat="46.609971350522315" lon="7.0308530138636325"><ele></ele><time>2016-7-22T19:18:46Z</time></trkpt>
<trkpt lat="46.60991569553407" lon="7.030775060788358"><ele></ele><time>2016-7-22T19:18:49Z</time></trkpt>
<trkpt lat="46.609882587668245" lon="7.030716135178867"><ele></ele><time>2016-7-22T19:18:52Z</time></trkpt>
<trkpt lat="46.60970707370316" lon="7.030435253231102"><ele></ele><time>2016-7-22T19:18:55Z</time></trkpt>
<trkpt lat="46.60950264301128" lon="7.030079939234696"><ele></ele><time>2016-7-22T19:18:58Z</time></trkpt>
<trkpt lat="46.609392675318766" lon="7.029823450180741"><ele></ele><time>2016-7-22T19:19:1Z</time></trkpt>
<trkpt lat="46.60931673755625" lon="7.029621276707039"><ele></ele><time>2016-7-22T19:19:4Z</time></trkpt>
<trkpt lat="46.60923962670194" lon="7.029387000486076"><ele></ele><time>2016-7-22T19:19:7Z</time></trkpt>
<trkpt lat="46.60914734403157" lon="7.029200165525745"><ele></ele><time>2016-7-22T19:19:10Z</time></trkpt>
<trkpt lat="46.60909378542338" lon="7.029045266553805"><ele></ele><time>2016-7-22T19:19:13Z</time></trkpt>
<trkpt lat="46.60901834978858" lon="7.028910483655455"><ele></ele><time>2016-7-22T19:19:16Z</time></trkpt>
<trkpt lat="46.60894509351991" lon="7.028769833470156"><ele></ele><time>2016-7-22T19:19:19Z</time></trkpt>
<trkpt lat="46.60885909717916" lon="7.028592051119719"><ele></ele><time>2016-7-22T19:19:22Z</time></trkpt>
<trkpt lat="46.60876689827661" lon="7.028409742391447"><ele></ele><time>2016-7-22T19:19:25Z</time></trkpt>
<trkpt lat="46.60867956098961" lon="7.028218381312718"><ele></ele><time>2016-7-22T19:19:28Z</time></trkpt>
<trkpt lat="46.60865642885747" lon="7.028052167472685"><ele></ele><time>2016-7-22T19:19:31Z</time></trkpt>
<trkpt lat="46.60866372362217" lon="7.027838596548373"><ele></ele><time>2016-7-22T19:19:34Z</time></trkpt>
<trkpt lat="46.60865207586997" lon="7.027573392607276"><ele></ele><time>2016-7-22T19:19:37Z</time></trkpt>
<trkpt lat="46.608647384572464" lon="7.027353702606734"><ele></ele><time>2016-7-22T19:19:40Z</time></trkpt>
<trkpt lat="46.60867320391669" lon="7.027093025776761"><ele></ele><time>2016-7-22T19:19:43Z</time></trkpt>
<trkpt lat="46.60867765004986" lon="7.026775602907171"><ele></ele><time>2016-7-22T19:19:46Z</time></trkpt>
<trkpt lat="46.60863322973584" lon="7.026449545522151"><ele></ele><time>2016-7-22T19:19:49Z</time></trkpt>
<trkpt lat="46.60858126534484" lon="7.0261539142970495"><ele></ele><time>2016-7-22T19:19:52Z</time></trkpt>
<trkpt lat="46.60853223384543" lon="7.025924667876571"><ele></ele><time>2016-7-22T19:19:55Z</time></trkpt>
<trkpt lat="46.60847339694041" lon="7.0255733805994725"><ele></ele><time>2016-7-22T19:19:58Z</time></trkpt>
<trkpt lat="46.608403914033254" lon="7.025305157811172"><ele></ele><time>2016-7-22T19:20:1Z</time></trkpt>
<trkpt lat="46.60828112239531" lon="7.025017236278791"><ele></ele><time>2016-7-22T19:20:4Z</time></trkpt>
<trkpt lat="46.608170065747366" lon="7.024702744362852"><ele></ele><time>2016-7-22T19:20:7Z</time></trkpt>
<trkpt lat="46.6081476050646" lon="7.02446059042158"><ele></ele><time>2016-7-22T19:20:10Z</time></trkpt>
<trkpt lat="46.608206784742805" lon="7.024172924621585"><ele></ele><time>2016-7-22T19:20:13Z</time></trkpt>
<trkpt lat="46.60826965181352" lon="7.02394057952235"><ele></ele><time>2016-7-22T19:20:16Z</time></trkpt>
<trkpt lat="46.608332687070316" lon="7.023661631001585"><ele></ele><time>2016-7-22T19:20:19Z</time></trkpt>
<trkpt lat="46.60832070401924" lon="7.023399109263028"><ele></ele><time>2016-7-22T19:20:22Z</time></trkpt>
<trkpt lat="46.60826848737881" lon="7.023171539147618"><ele></ele><time>2016-7-22T19:20:25Z</time></trkpt>
<trkpt lat="46.60821878534702" lon="7.022941035422156"><ele></ele><time>2016-7-22T19:20:28Z</time></trkpt>
<trkpt lat="46.60814427317634" lon="7.022683206082387"><ele></ele><time>2016-7-22T19:20:31Z</time></trkpt>
<trkpt lat="46.608133377057776" lon="7.022651941297446"><ele></ele><time>2016-7-22T19:20:34Z</time></trkpt>
<trkpt lat="46.60804059262835" lon="7.022367792326134"><ele></ele><time>2016-7-22T19:20:37Z</time></trkpt>
<trkpt lat="46.607941185669006" lon="7.022153380699247"><ele></ele><time>2016-7-22T19:20:40Z</time></trkpt>
<trkpt lat="46.6078182249906" lon="7.021985404305394"><ele></ele><time>2016-7-22T19:20:43Z</time></trkpt>
<trkpt lat="46.60772828871185" lon="7.02184592718638"><ele></ele><time>2016-7-22T19:20:46Z</time></trkpt>
<trkpt lat="46.607616894915424" lon="7.021691362121756"><ele></ele><time>2016-7-22T19:20:49Z</time></trkpt>
<trkpt lat="46.60751354773536" lon="7.021538473628345"><ele></ele><time>2016-7-22T19:20:52Z</time></trkpt>
<trkpt lat="46.60742503626521" lon="7.021408971016127"><ele></ele><time>2016-7-22T19:20:55Z</time></trkpt>
<trkpt lat="46.607316660116915" lon="7.021240911144175"><ele></ele><time>2016-7-22T19:20:58Z</time></trkpt>
<trkpt lat="46.607228232265236" lon="7.021128507632175"><ele></ele><time>2016-7-22T19:21:1Z</time></trkpt>
<trkpt lat="46.60718632333132" lon="7.021075197689739"><ele></ele><time>2016-7-22T19:21:4Z</time></trkpt>
<trkpt lat="46.6071834744497" lon="7.020992887254148"><ele></ele><time>2016-7-22T19:21:7Z</time></trkpt>
<trkpt lat="46.60717542811082" lon="7.020967657511783"><ele></ele><time>2016-7-22T19:21:10Z</time></trkpt>
<trkpt lat="46.60712849039856" lon="7.020882999102679"><ele></ele><time>2016-7-22T19:21:13Z</time></trkpt>
<trkpt lat="46.60711281682936" lon="7.0208314499793"><ele></ele><time>2016-7-22T19:21:16Z</time></trkpt>
<trkpt lat="46.6070645390037" lon="7.020662469511155"><ele></ele><time>2016-7-22T19:21:19Z</time></trkpt>
<trkpt lat="46.60700611980355" lon="7.020430708288499"><ele></ele><time>2016-7-22T19:21:22Z</time></trkpt>
<trkpt lat="46.60693294934933" lon="7.020121581676865"><ele></ele><time>2016-7-22T19:21:25Z</time></trkpt>
<trkpt lat="46.60686774153681" lon="7.019827375054413"><ele></ele><time>2016-7-22T19:21:28Z</time></trkpt>
<trkpt lat="46.60676925827618" lon="7.019470135674274"><ele></ele><time>2016-7-22T19:21:31Z</time></trkpt>
<trkpt lat="46.60668133623592" lon="7.019112058351117"><ele></ele><time>2016-7-22T19:21:34Z</time></trkpt>
<trkpt lat="46.60659215595675" lon="7.018834866441627"><ele></ele><time>2016-7-22T19:21:37Z</time></trkpt>
<trkpt lat="46.60650808868624" lon="7.018554154249339"><ele></ele><time>2016-7-22T19:21:40Z</time></trkpt>
<trkpt lat="46.60652452057874" lon="7.0182704269389165"><ele></ele><time>2016-7-22T19:21:43Z</time></trkpt>
<trkpt lat="46.60652008020502" lon="7.018097424184692"><ele></ele><time>2016-7-22T19:21:46Z</time></trkpt>
<trkpt lat="46.60648915162815" lon="7.018039839724355"><ele></ele><time>2016-7-22T19:21:49Z</time></trkpt>
<trkpt lat="46.606351020321455" lon="7.017818889283063"><ele></ele><time>2016-7-22T19:21:52Z</time></trkpt>
<trkpt lat="46.606278351791644" lon="7.017594336163805"><ele></ele><time>2016-7-22T19:21:55Z</time></trkpt>
<trkpt lat="46.60628883211736" lon="7.017345477463588"><ele></ele><time>2016-7-22T19:21:58Z</time></trkpt>
<trkpt lat="46.60629344561543" lon="7.0170533679625295"><ele></ele><time>2016-7-22T19:22:1Z</time></trkpt>
<trkpt lat="46.606250533836636" lon="7.0167473433667595"><ele></ele><time>2016-7-22T19:22:4Z</time></trkpt>
<trkpt lat="46.60617375985399" lon="7.016380297656547"><ele></ele><time>2016-7-22T19:22:7Z</time></trkpt>
<trkpt lat="46.6061101463198" lon="7.015941670733593"><ele></ele><time>2016-7-22T19:22:10Z</time></trkpt>
<trkpt lat="46.606035217744534" lon="7.015457445944926"><ele></ele><time>2016-7-22T19:22:13Z</time></trkpt>
<trkpt lat="46.60591108601915" lon="7.015085621423997"><ele></ele><time>2016-7-22T19:22:16Z</time></trkpt>
<trkpt lat="46.605784772949455" lon="7.014887134777596"><ele></ele><time>2016-7-22T19:22:19Z</time></trkpt>
<trkpt lat="46.60569307570605" lon="7.014813120332839"><ele></ele><time>2016-7-22T19:22:22Z</time></trkpt>
<trkpt lat="46.60559442130145" lon="7.0147538578875075"><ele></ele><time>2016-7-22T19:22:25Z</time></trkpt>
<trkpt lat="46.60545251585637" lon="7.014726278044822"><ele></ele><time>2016-7-22T19:22:28Z</time></trkpt>
<trkpt lat="46.605315555129394" lon="7.014750330893298"><ele></ele><time>2016-7-22T19:22:31Z</time></trkpt>
<trkpt lat="46.60529124749636" lon="7.014757790219925"><ele></ele><time>2016-7-22T19:22:34Z</time></trkpt>
<trkpt lat="46.60519016127083" lon="7.014788800902932"><ele></ele><time>2016-7-22T19:22:37Z</time></trkpt>
<trkpt lat="46.60504280665049" lon="7.014840178537272"><ele></ele><time>2016-7-22T19:22:40Z</time></trkpt>
<trkpt lat="46.60491732851459" lon="7.014917456795314"><ele></ele><time>2016-7-22T19:22:43Z</time></trkpt>
<trkpt lat="46.60482621678957" lon="7.014946372236539"><ele></ele><time>2016-7-22T19:22:46Z</time></trkpt>
<trkpt lat="46.604704510244055" lon="7.015046533202507"><ele></ele><time>2016-7-22T19:22:49Z</time></trkpt>
<trkpt lat="46.60462496462483" lon="7.015154406523732"><ele></ele><time>2016-7-22T19:22:52Z</time></trkpt>
<trkpt lat="46.60452999628578" lon="7.01526244711898"><ele></ele><time>2016-7-22T19:22:55Z</time></trkpt>
<trkpt lat="46.604406110294285" lon="7.015375264720786"><ele></ele><time>2016-7-22T19:22:58Z</time></trkpt>
<trkpt lat="46.60424333227725" lon="7.015484225724731"><ele></ele><time>2016-7-22T19:23:1Z</time></trkpt>
<trkpt lat="46.60405742053619" lon="7.015563346577359"><ele></ele><time>2016-7-22T19:23:4Z</time></trkpt>
<trkpt lat="46.603976115263976" lon="7.015624867887435"><ele></ele><time>2016-7-22T19:23:7Z</time></trkpt>
<trkpt lat="46.60385181033835" lon="7.015724106783978"><ele></ele><time>2016-7-22T19:23:10Z</time></trkpt>
<trkpt lat="46.60370562848536" lon="7.015834996021194"><ele></ele><time>2016-7-22T19:23:13Z</time></trkpt>
<trkpt lat="46.6035338825855" lon="7.015879499914775"><ele></ele><time>2016-7-22T19:23:16Z</time></trkpt>
<trkpt lat="46.60340488526302" lon="7.015854015856049"><ele></ele><time>2016-7-22T19:23:19Z</time></trkpt>
<trkpt lat="46.603224423137675" lon="7.015817047362424"><ele></ele><time>2016-7-22T19:23:22Z</time></trkpt>
<trkpt lat="46.60310598685726" lon="7.015805728983692"><ele></ele><time>2016-7-22T19:23:25Z</time></trkpt>
<trkpt lat="46.6030934139836" lon="7.015806231601368"><ele></ele><time>2016-7-22T19:23:28Z</time></trkpt>
<trkpt lat="46.60301319895389" lon="7.0158175452871365"><ele></ele><time>2016-7-22T19:23:31Z</time></trkpt>
<trkpt lat="46.60292502059128" lon="7.015872612363918"><ele></ele><time>2016-7-22T19:23:34Z</time></trkpt>
<trkpt lat="46.60279836973973" lon="7.015886523345428"><ele></ele><time>2016-7-22T19:23:37Z</time></trkpt>
<trkpt lat="46.602636179688346" lon="7.0158914648418484"><ele></ele><time>2016-7-22T19:23:40Z</time></trkpt>
<trkpt lat="46.60250936213252" lon="7.015826334391605"><ele></ele><time>2016-7-22T19:23:43Z</time></trkpt>
<trkpt lat="46.60235807043023" lon="7.015673528565757"><ele></ele><time>2016-7-22T19:23:46Z</time></trkpt>
<trkpt lat="46.60223251091125" lon="7.015544947072362"><ele></ele><time>2016-7-22T19:23:49Z</time></trkpt>
<trkpt lat="46.60205900735669" lon="7.0153741196100805"><ele></ele><time>2016-7-22T19:23:52Z</time></trkpt>
<trkpt lat="46.60191660032967" lon="7.015234222136523"><ele></ele><time>2016-7-22T19:23:55Z</time></trkpt>
<trkpt lat="46.6017551659089" lon="7.0151327971880395"><ele></ele><time>2016-7-22T19:23:58Z</time></trkpt>
<trkpt lat="46.60160655572126" lon="7.015039167720237"><ele></ele><time>2016-7-22T19:24:1Z</time></trkpt>
<trkpt lat="46.60146087918918" lon="7.014946711789047"><ele></ele><time>2016-7-22T19:24:4Z</time></trkpt>
<trkpt lat="46.60135568705092" lon="7.014874541041241"><ele></ele><time>2016-7-22T19:24:7Z</time></trkpt>
<trkpt lat="46.60117438754654" lon="7.014769259942039"><ele></ele><time>2016-7-22T19:24:10Z</time></trkpt>
<trkpt lat="46.601115798069515" lon="7.014762050112725"><ele></ele><time>2016-7-22T19:24:13Z</time></trkpt>
<trkpt lat="46.601095934366725" lon="7.01464126629249"><ele></ele><time>2016-7-22T19:24:16Z</time></trkpt>
<trkpt lat="46.601054948847285" lon="7.0144696875866"><ele></ele><time>2016-7-22T19:24:19Z</time></trkpt>
<trkpt lat="46.60101488550191" lon="7.014284278747677"><ele></ele><time>2016-7-22T19:24:22Z</time></trkpt>
<trkpt lat="46.600960740749564" lon="7.014081602836993"><ele></ele><time>2016-7-22T19:24:25Z</time></trkpt>
<trkpt lat="46.600883042676294" lon="7.013891583055956"><ele></ele><time>2016-7-22T19:24:28Z</time></trkpt>
<trkpt lat="46.600778355510435" lon="7.013645571464333"><ele></ele><time>2016-7-22T19:24:31Z</time></trkpt>
<trkpt lat="46.6006967170828" lon="7.013527971308431"><ele></ele><time>2016-7-22T19:24:34Z</time></trkpt>
<trkpt lat="46.60060971429445" lon="7.013405090420819"><ele></ele><time>2016-7-22T19:24:37Z</time></trkpt>
<trkpt lat="46.60050770870389" lon="7.013212974585062"><ele></ele><time>2016-7-22T19:24:40Z</time></trkpt>
<trkpt lat="46.60042229919245" lon="7.013029827787351"><ele></ele><time>2016-7-22T19:24:43Z</time></trkpt>
<trkpt lat="46.60033445904612" lon="7.012836622637317"><ele></ele><time>2016-7-22T19:24:46Z</time></trkpt>
<trkpt lat="46.600249552093956" lon="7.012683566914735"><ele></ele><time>2016-7-22T19:24:49Z</time></trkpt>
<trkpt lat="46.60018140894128" lon="7.012532523247514"><ele></ele><time>2016-7-22T19:24:52Z</time></trkpt>
<trkpt lat="46.6001266765079" lon="7.012410146036576"><ele></ele><time>2016-7-22T19:24:55Z</time></trkpt>
<trkpt lat="46.600066663404895" lon="7.012293300762372"><ele></ele><time>2016-7-22T19:24:58Z</time></trkpt>
<trkpt lat="46.59999323970523" lon="7.012137479279563"><ele></ele><time>2016-7-22T19:25:1Z</time></trkpt>
<trkpt lat="46.59989944812468" lon="7.011967827159305"><ele></ele><time>2016-7-22T19:25:4Z</time></trkpt>
<trkpt lat="46.5997838635647" lon="7.011799012713722"><ele></ele><time>2016-7-22T19:25:7Z</time></trkpt>
<trkpt lat="46.599639695802324" lon="7.011704880427082"><ele></ele><time>2016-7-22T19:25:10Z</time></trkpt>
<trkpt lat="46.59943878188313" lon="7.0116627984700495"><ele></ele><time>2016-7-22T19:25:13Z</time></trkpt>
<trkpt lat="46.5993036657527" lon="7.011638990639547"><ele></ele><time>2016-7-22T19:25:16Z</time></trkpt>
<trkpt lat="46.599177518159486" lon="7.011624319305564"><ele></ele><time>2016-7-22T19:25:19Z</time></trkpt>
<trkpt lat="46.59899445743568" lon="7.011605623305674"><ele></ele><time>2016-7-22T19:25:22Z</time></trkpt>
<trkpt lat="46.599002838229005" lon="7.011700003834782"><ele></ele><time>2016-7-22T19:25:25Z</time></trkpt>
<trkpt lat="46.59895522771822" lon="7.011805866257461"><ele></ele><time>2016-7-22T19:25:28Z</time></trkpt>
<trkpt lat="46.59890812052631" lon="7.011877614309776"><ele></ele><time>2016-7-22T19:25:31Z</time></trkpt>
<trkpt lat="46.598862438078704" lon="7.011964617476035"><ele></ele><time>2016-7-22T19:25:34Z</time></trkpt>
<trkpt lat="46.598760513872435" lon="7.011978445217448"><ele></ele><time>2016-7-22T19:25:37Z</time></trkpt>
<trkpt lat="46.59865959651224" lon="7.011906442202082"><ele></ele><time>2016-7-22T19:25:40Z</time></trkpt>
<trkpt lat="46.59864652126961" lon="7.011860928109333"><ele></ele><time>2016-7-22T19:25:43Z</time></trkpt>
<trkpt lat="46.598612574743015" lon="7.011842822375091"><ele></ele><time>2016-7-22T19:25:46Z</time></trkpt>
<trkpt lat="46.59856999550302" lon="7.011769395815984"><ele></ele><time>2016-7-22T19:25:49Z</time></trkpt>
<trkpt lat="46.598567481157964" lon="7.011750117358415"><ele></ele><time>2016-7-22T19:25:52Z</time></trkpt>
<trkpt lat="46.5985276683033" lon="7.011646767438228"><ele></ele><time>2016-7-22T19:25:55Z</time></trkpt>
<trkpt lat="46.59851551518127" lon="7.011591949444673"><ele></ele><time>2016-7-22T19:25:58Z</time></trkpt>
<trkpt lat="46.59850998369174" lon="7.011543669499456"><ele></ele><time>2016-7-22T19:26:1Z</time></trkpt>
<trkpt lat="46.598480480204906" lon="7.011472674004352"><ele></ele><time>2016-7-22T19:26:4Z</time></trkpt>
<trkpt lat="46.59847201494914" lon="7.011432608263556"><ele></ele><time>2016-7-22T19:26:7Z</time></trkpt>
<trkpt lat="46.59847352393751" lon="7.011411988795314"><ele></ele><time>2016-7-22T19:26:10Z</time></trkpt>
<trkpt lat="46.59846698692559" lon="7.011337808717569"><ele></ele><time>2016-7-22T19:26:13Z</time></trkpt>
<trkpt lat="46.59845718027206" lon="7.011322385766818"><ele></ele><time>2016-7-22T19:26:16Z</time></trkpt>
<trkpt lat="46.59844511117885" lon="7.011249881940433"><ele></ele><time>2016-7-22T19:26:19Z</time></trkpt>
<trkpt lat="46.598444692322644" lon="7.011229681522124"><ele></ele><time>2016-7-22T19:26:22Z</time></trkpt>
<trkpt lat="46.59843270761681" lon="7.011109233159967"><ele></ele><time>2016-7-22T19:26:25Z</time></trkpt>
<trkpt lat="46.598403875372576" lon="7.010980067209903"><ele></ele><time>2016-7-22T19:26:28Z</time></trkpt>
<trkpt lat="46.59836993011291" lon="7.01085509209469"><ele></ele><time>2016-7-22T19:26:31Z</time></trkpt>
<trkpt lat="46.59832827374435" lon="7.010709078197002"><ele></ele><time>2016-7-22T19:26:34Z</time></trkpt>
<trkpt lat="46.598320227329076" lon="7.0106905539803455"><ele></ele><time>2016-7-22T19:26:37Z</time></trkpt>
<trkpt lat="46.5983145281063" lon="7.010650320666702"><ele></ele><time>2016-7-22T19:26:40Z</time></trkpt>
<trkpt lat="46.59829843572491" lon="7.010575385990205"><ele></ele><time>2016-7-22T19:26:43Z</time></trkpt>
<trkpt lat="46.5982829295775" lon="7.010542612345976"><ele></ele><time>2016-7-22T19:26:46Z</time></trkpt>
<trkpt lat="46.59823381292864" lon="7.010428617175787"><ele></ele><time>2016-7-22T19:26:49Z</time></trkpt>
<trkpt lat="46.59816013791587" lon="7.010260977185122"><ele></ele><time>2016-7-22T19:26:52Z</time></trkpt>
<trkpt lat="46.5981214988553" lon="7.01013021843851"><ele></ele><time>2016-7-22T19:26:55Z</time></trkpt>
<trkpt lat="46.59812820556928" lon="7.010030306203822"><ele></ele><time>2016-7-22T19:26:58Z</time></trkpt>
<trkpt lat="46.598104235191784" lon="7.009871049303292"><ele></ele><time>2016-7-22T19:27:1Z</time></trkpt>
<trkpt lat="46.598053526865456" lon="7.009682455075858"><ele></ele><time>2016-7-22T19:27:4Z</time></trkpt>
<trkpt lat="46.59799795733124" lon="7.009468547357958"><ele></ele><time>2016-7-22T19:27:7Z</time></trkpt>
<trkpt lat="46.59792872491602" lon="7.009285484752744"><ele></ele><time>2016-7-22T19:27:10Z</time></trkpt>
<trkpt lat="46.59789612153702" lon="7.009095382209795"><ele></ele><time>2016-7-22T19:27:13Z</time></trkpt>
<trkpt lat="46.597852621481636" lon="7.008921456498825"><ele></ele><time>2016-7-22T19:27:16Z</time></trkpt>
<trkpt lat="46.597786573984706" lon="7.008755995984092"><ele></ele><time>2016-7-22T19:27:19Z</time></trkpt>
<trkpt lat="46.59767794601363" lon="7.008621296076738"><ele></ele><time>2016-7-22T19:27:22Z</time></trkpt>
<trkpt lat="46.597605443741024" lon="7.008515179347076"><ele></ele><time>2016-7-22T19:27:25Z</time></trkpt>
<trkpt lat="46.59752070355373" lon="7.0084363873608275"><ele></ele><time>2016-7-22T19:27:28Z</time></trkpt>
<trkpt lat="46.59739271283097" lon="7.008346949319385"><ele></ele><time>2016-7-22T19:27:31Z</time></trkpt>
<trkpt lat="46.59731383962751" lon="7.008297997079745"><ele></ele><time>2016-7-22T19:27:34Z</time></trkpt>
<trkpt lat="46.59725466391556" lon="7.008249045307477"><ele></ele><time>2016-7-22T19:27:37Z</time></trkpt>
<trkpt lat="46.59710010252785" lon="7.0081601933685835"><ele></ele><time>2016-7-22T19:27:40Z</time></trkpt>
<trkpt lat="46.5969571066241" lon="7.008202183355483"><ele></ele><time>2016-7-22T19:27:43Z</time></trkpt>
<trkpt lat="46.59683607065904" lon="7.008300500314754"><ele></ele><time>2016-7-22T19:27:46Z</time></trkpt>
<trkpt lat="46.59668368594933" lon="7.008432260360764"><ele></ele><time>2016-7-22T19:27:49Z</time></trkpt>
<trkpt lat="46.5965761449991" lon="7.008519010601903"><ele></ele><time>2016-7-22T19:27:52Z</time></trkpt>
<trkpt lat="46.59650095855647" lon="7.008577933661871"><ele></ele><time>2016-7-22T19:27:55Z</time></trkpt>
<trkpt lat="46.596398446637835" lon="7.008674407041155"><ele></ele><time>2016-7-22T19:27:58Z</time></trkpt>
<trkpt lat="46.59625863472232" lon="7.0088123700021985"><ele></ele><time>2016-7-22T19:28:1Z</time></trkpt>
<trkpt lat="46.596102310514915" lon="7.008944213775927"><ele></ele><time>2016-7-22T19:28:4Z</time></trkpt>
<trkpt lat="46.59597180266971" lon="7.009069687909178"><ele></ele><time>2016-7-22T19:28:7Z</time></trkpt>
<trkpt lat="46.59588823415859" lon="7.009141938012158"><ele></ele><time>2016-7-22T19:28:10Z</time></trkpt>
<trkpt lat="46.595880271214725" lon="7.009152750490346"><ele></ele><time>2016-7-22T19:28:13Z</time></trkpt>
<trkpt lat="46.59583442231328" lon="7.009139925076618"><ele></ele><time>2016-7-22T19:28:16Z</time></trkpt>
<trkpt lat="46.59574507112524" lon="7.009141264062983"><ele></ele><time>2016-7-22T19:28:19Z</time></trkpt>
<trkpt lat="46.59564884662995" lon="7.009154421382909"><ele></ele><time>2016-7-22T19:28:22Z</time></trkpt>
<trkpt lat="46.595625880347825" lon="7.009141428873721"><ele></ele><time>2016-7-22T19:28:25Z</time></trkpt>
<trkpt lat="46.59557399640489" lon="7.009134135379011"><ele></ele><time>2016-7-22T19:28:28Z</time></trkpt>
<trkpt lat="46.595465115966235" lon="7.009084763331317"><ele></ele><time>2016-7-22T19:28:31Z</time></trkpt>
<trkpt lat="46.595314913117235" lon="7.009000773004342"><ele></ele><time>2016-7-22T19:28:34Z</time></trkpt>
<trkpt lat="46.59515079599779" lon="7.0089419280845355"><ele></ele><time>2016-7-22T19:28:37Z</time></trkpt>
<trkpt lat="46.5951310147594" lon="7.008935892638168"><ele></ele><time>2016-7-22T19:28:40Z</time></trkpt>
<trkpt lat="46.59510880263951" lon="7.008940585982195"><ele></ele><time>2016-7-22T19:28:43Z</time></trkpt>
<trkpt lat="46.59508826725998" lon="7.0089151044807885"><ele></ele><time>2016-7-22T19:28:46Z</time></trkpt>
<trkpt lat="46.5950724255616" lon="7.008905548724602"><ele></ele><time>2016-7-22T19:28:49Z</time></trkpt>
<trkpt lat="46.59506806694996" lon="7.008907057365448"><ele></ele><time>2016-7-22T19:28:52Z</time></trkpt>
<trkpt lat="46.59499757529034" lon="7.008889202219153"><ele></ele><time>2016-7-22T19:28:55Z</time></trkpt>
<trkpt lat="46.59486338072716" lon="7.008903364467413"><ele></ele><time>2016-7-22T19:28:58Z</time></trkpt>
<trkpt lat="46.59468065379426" lon="7.009010648613266"><ele></ele><time>2016-7-22T19:29:1Z</time></trkpt>
<trkpt lat="46.59457378278494" lon="7.00914919909332"><ele></ele><time>2016-7-22T19:29:4Z</time></trkpt>
<trkpt lat="46.594439502144255" lon="7.009353714576031"><ele></ele><time>2016-7-22T19:29:7Z</time></trkpt>
<trkpt lat="46.59427496236405" lon="7.009595445034008"><ele></ele><time>2016-7-22T19:29:10Z</time></trkpt>
<trkpt lat="46.59415090808345" lon="7.009763918536422"><ele></ele><time>2016-7-22T19:29:13Z</time></trkpt>
<trkpt lat="46.59402350161955" lon="7.00988344158981"><ele></ele><time>2016-7-22T19:29:16Z</time></trkpt>
<trkpt lat="46.593853850487115" lon="7.009989301124153"><ele></ele><time>2016-7-22T19:29:19Z</time></trkpt>
<trkpt lat="46.593703731175054" lon="7.009929283069243"><ele></ele><time>2016-7-22T19:29:22Z</time></trkpt>
<trkpt lat="46.593540033252225" lon="7.009862140066215"><ele></ele><time>2016-7-22T19:29:25Z</time></trkpt>
<trkpt lat="46.59346669125776" lon="7.009885272406098"><ele></ele><time>2016-7-22T19:29:28Z</time></trkpt>
<trkpt lat="46.59341824362013" lon="7.009901532167921"><ele></ele><time>2016-7-22T19:29:31Z</time></trkpt>
<trkpt lat="46.593403491368534" lon="7.009908991720431"><ele></ele><time>2016-7-22T19:29:34Z</time></trkpt>
<trkpt lat="46.59332210292576" lon="7.009916449692697"><ele></ele><time>2016-7-22T19:29:37Z</time></trkpt>
<trkpt lat="46.593209784754784" lon="7.009964140112843"><ele></ele><time>2016-7-22T19:29:40Z</time></trkpt>
<trkpt lat="46.59307726649311" lon="7.0099853432096655"><ele></ele><time>2016-7-22T19:29:43Z</time></trkpt>
<trkpt lat="46.59298456206835" lon="7.010026747660552"><ele></ele><time>2016-7-22T19:29:46Z</time></trkpt>
<trkpt lat="46.59293921582053" lon="7.0100360505084565"><ele></ele><time>2016-7-22T19:29:49Z</time></trkpt>
<trkpt lat="46.592841985200884" lon="7.010074353544397"><ele></ele><time>2016-7-22T19:29:52Z</time></trkpt>
<trkpt lat="46.59272631428021" lon="7.0101208704177465"><ele></ele><time>2016-7-22T19:29:55Z</time></trkpt>
<trkpt lat="46.59262916805657" lon="7.010110558361358"><ele></ele><time>2016-7-22T19:29:58Z</time></trkpt>
<trkpt lat="46.592612907158646" lon="7.010109803603612"><ele></ele><time>2016-7-22T19:30:1Z</time></trkpt>
<trkpt lat="46.592529004302435" lon="7.010103850455911"><ele></ele><time>2016-7-22T19:30:4Z</time></trkpt>
<trkpt lat="46.59251265950885" lon="7.010109549769075"><ele></ele><time>2016-7-22T19:30:7Z</time></trkpt>
<trkpt lat="46.59241777554933" lon="7.0101710707596"><ele></ele><time>2016-7-22T19:30:10Z</time></trkpt>
<trkpt lat="46.592337392836356" lon="7.01018699448803"><ele></ele><time>2016-7-22T19:30:13Z</time></trkpt>
<trkpt lat="46.592304954922305" lon="7.0101802043694255"><ele></ele><time>2016-7-22T19:30:16Z</time></trkpt>
<trkpt lat="46.59221979459588" lon="7.0101897577307914"><ele></ele><time>2016-7-22T19:30:19Z</time></trkpt>
<trkpt lat="46.59216346808319" lon="7.010195875191592"><ele></ele><time>2016-7-22T19:30:22Z</time></trkpt>
<trkpt lat="46.59210177702641" lon="7.010212218458943"><ele></ele><time>2016-7-22T19:30:25Z</time></trkpt>
<trkpt lat="46.59202910557216" lon="7.010236524283228"><ele></ele><time>2016-7-22T19:30:28Z</time></trkpt>
<trkpt lat="46.59194813567348" lon="7.010290585701686"><ele></ele><time>2016-7-22T19:30:31Z</time></trkpt>
<trkpt lat="46.59192324093045" lon="7.010330063921316"><ele></ele><time>2016-7-22T19:30:34Z</time></trkpt>
<trkpt lat="46.591879738265185" lon="7.010376331049256"><ele></ele><time>2016-7-22T19:30:37Z</time></trkpt>
<trkpt lat="46.59186490214407" lon="7.01038806537561"><ele></ele><time>2016-7-22T19:30:40Z</time></trkpt>
<trkpt lat="46.59176247481766" lon="7.010419914216291"><ele></ele><time>2016-7-22T19:30:43Z</time></trkpt>
<trkpt lat="46.591714110818245" lon="7.010451512881453"><ele></ele><time>2016-7-22T19:30:46Z</time></trkpt>
<trkpt lat="46.591668848071144" lon="7.010487721672309"><ele></ele><time>2016-7-22T19:30:49Z</time></trkpt>
<trkpt lat="46.591652503210135" lon="7.010499120686429"><ele></ele><time>2016-7-22T19:30:52Z</time></trkpt>
<trkpt lat="46.591631632307234" lon="7.010494510139477"><ele></ele><time>2016-7-22T19:30:55Z</time></trkpt>
<trkpt lat="46.591541610811255" lon="7.0104755648818635"><ele></ele><time>2016-7-22T19:30:58Z</time></trkpt>
<trkpt lat="46.59142987959025" lon="7.010505234204812"><ele></ele><time>2016-7-22T19:31:1Z</time></trkpt>
<trkpt lat="46.59133474516281" lon="7.010483438975494"><ele></ele><time>2016-7-22T19:31:4Z</time></trkpt>
<trkpt lat="46.59123139645512" lon="7.010462314104398"><ele></ele><time>2016-7-22T19:31:7Z</time></trkpt>
<trkpt lat="46.59120239511091" lon="7.010456697535073"><ele></ele><time>2016-7-22T19:31:10Z</time></trkpt>
<trkpt lat="46.591152020498015" lon="7.01040020224695"><ele></ele><time>2016-7-22T19:31:13Z</time></trkpt>
<trkpt lat="46.591137855248" lon="7.010385114467645"><ele></ele><time>2016-7-22T19:31:16Z</time></trkpt>
<trkpt lat="46.591037273437934" lon="7.010290899380285"><ele></ele><time>2016-7-22T19:31:19Z</time></trkpt>
<trkpt lat="46.590937363407846" lon="7.010093251501635"><ele></ele><time>2016-7-22T19:31:22Z</time></trkpt>
<trkpt lat="46.59084650539716" lon="7.009933070988501"><ele></ele><time>2016-7-22T19:31:25Z</time></trkpt>
<trkpt lat="46.59078464866016" lon="7.009784458202896"><ele></ele><time>2016-7-22T19:31:28Z</time></trkpt>
<trkpt lat="46.59071474385209" lon="7.009756963869949"><ele></ele><time>2016-7-22T19:31:31Z</time></trkpt>
<trkpt lat="46.59069764490268" lon="7.009744474413895"><ele></ele><time>2016-7-22T19:31:34Z</time></trkpt>
<trkpt lat="46.590674009108355" lon="7.009643890896407"><ele></ele><time>2016-7-22T19:31:37Z</time></trkpt>
<trkpt lat="46.59062799424054" lon="7.009490416976471"><ele></ele><time>2016-7-22T19:31:40Z</time></trkpt>
<trkpt lat="46.59057510596055" lon="7.009357646218587"><ele></ele><time>2016-7-22T19:31:43Z</time></trkpt>
<trkpt lat="46.59050294003465" lon="7.009161843016708"><ele></ele><time>2016-7-22T19:31:46Z</time></trkpt>
<trkpt lat="46.59042415218288" lon="7.008984312227871"><ele></ele><time>2016-7-22T19:31:49Z</time></trkpt>
<trkpt lat="46.59036556522349" lon="7.008765710543912"><ele></ele><time>2016-7-22T19:31:52Z</time></trkpt>
<trkpt lat="46.59032256797417" lon="7.008601340207463"><ele></ele><time>2016-7-22T19:31:55Z</time></trkpt>
<trkpt lat="46.590299100273036" lon="7.008462535169406"><ele></ele><time>2016-7-22T19:31:58Z</time></trkpt>
<trkpt lat="46.590311926361146" lon="7.00831392415455"><ele></ele><time>2016-7-22T19:32:1Z</time></trkpt>
<trkpt lat="46.59030715073203" lon="7.008140502259085"><ele></ele><time>2016-7-22T19:32:4Z</time></trkpt>
<trkpt lat="46.590330705574424" lon="7.007999602859136"><ele></ele><time>2016-7-22T19:32:7Z</time></trkpt>
<trkpt lat="46.590347052483786" lon="7.007815787893085"><ele></ele><time>2016-7-22T19:32:10Z</time></trkpt>
<trkpt lat="46.59036130332218" lon="7.007681929079398"><ele></ele><time>2016-7-22T19:32:13Z</time></trkpt>
<trkpt lat="46.59037136186682" lon="7.007660723078148"><ele></ele><time>2016-7-22T19:32:16Z</time></trkpt>
<trkpt lat="46.590367507464855" lon="7.00755326686078"><ele></ele><time>2016-7-22T19:32:19Z</time></trkpt>
<trkpt lat="46.59034521191552" lon="7.007525270741525"><ele></ele><time>2016-7-22T19:32:22Z</time></trkpt>
<trkpt lat="46.5902883835333" lon="7.007443545739097"><ele></ele><time>2016-7-22T19:32:25Z</time></trkpt>
<trkpt lat="46.59025955040657" lon="7.007389230257355"><ele></ele><time>2016-7-22T19:32:28Z</time></trkpt>
<trkpt lat="46.590169614638576" lon="7.007209855180558"><ele></ele><time>2016-7-22T19:32:31Z</time></trkpt>
<trkpt lat="46.59011328926897" lon="7.007119915914795"><ele></ele><time>2016-7-22T19:32:34Z</time></trkpt>
<trkpt lat="46.59001103143545" lon="7.006995861171218"><ele></ele><time>2016-7-22T19:32:37Z</time></trkpt>
<trkpt lat="46.589935930029554" lon="7.006952776353421"><ele></ele><time>2016-7-22T19:32:40Z</time></trkpt>
<trkpt lat="46.589919417707726" lon="7.00694925555759"><ele></ele><time>2016-7-22T19:32:43Z</time></trkpt>
<trkpt lat="46.58982026035738" lon="7.0068945193088545"><ele></ele><time>2016-7-22T19:32:46Z</time></trkpt>
<trkpt lat="46.58971003967563" lon="7.006773314225721"><ele></ele><time>2016-7-22T19:32:49Z</time></trkpt>
<trkpt lat="46.58963552538157" lon="7.006698461970544"><ele></ele><time>2016-7-22T19:32:52Z</time></trkpt>
<trkpt lat="46.58958079262951" lon="7.006603996508469"><ele></ele><time>2016-7-22T19:32:55Z</time></trkpt>
<trkpt lat="46.589501919962544" lon="7.0065106201212775"><ele></ele><time>2016-7-22T19:32:58Z</time></trkpt>
<trkpt lat="46.58941759893929" lon="7.006426882804565"><ele></ele><time>2016-7-22T19:33:1Z</time></trkpt>
<trkpt lat="46.589209646139096" lon="7.006225292849395"><ele></ele><time>2016-7-22T19:33:4Z</time></trkpt>
<trkpt lat="46.58898493035764" lon="7.005953210604232"><ele></ele><time>2016-7-22T19:33:7Z</time></trkpt>
<trkpt lat="46.588853503097674" lon="7.005861174072218"><ele></ele><time>2016-7-22T19:33:10Z</time></trkpt>
<trkpt lat="46.58873054082047" lon="7.005831918271486"><ele></ele><time>2016-7-22T19:33:13Z</time></trkpt>
<trkpt lat="46.58860430918357" lon="7.005837531152151"><ele></ele><time>2016-7-22T19:33:16Z</time></trkpt>
<trkpt lat="46.5884868784081" lon="7.005855298016344"><ele></ele><time>2016-7-22T19:33:19Z</time></trkpt>
<trkpt lat="46.58826006257313" lon="7.005968029357823"><ele></ele><time>2016-7-22T19:33:22Z</time></trkpt>
<trkpt lat="46.588098291789755" lon="7.005960817066367"><ele></ele><time>2016-7-22T19:33:25Z</time></trkpt>
<trkpt lat="46.587937946728275" lon="7.0058866333210155"><ele></ele><time>2016-7-22T19:33:28Z</time></trkpt>
<trkpt lat="46.587595800625735" lon="7.0055945993235"><ele></ele><time>2016-7-22T19:33:31Z</time></trkpt>
<trkpt lat="46.58714686997696" lon="7.005219581840282"><ele></ele><time>2016-7-22T19:33:34Z</time></trkpt>
<trkpt lat="46.58665209120349" lon="7.004767282019124"><ele></ele><time>2016-7-22T19:33:37Z</time></trkpt>
<trkpt lat="46.58627968770748" lon="7.004366617691552"><ele></ele><time>2016-7-22T19:33:40Z</time></trkpt>
<trkpt lat="46.58588901221983" lon="7.003918176017538"><ele></ele><time>2016-7-22T19:33:43Z</time></trkpt>
<trkpt lat="46.58554485288027" lon="7.003759749657412"><ele></ele><time>2016-7-22T19:33:46Z</time></trkpt>
<trkpt lat="46.585427925759596" lon="7.003715741827104"><ele></ele><time>2016-7-22T19:33:49Z</time></trkpt>
<trkpt lat="46.58506683613489" lon="7.003459079033545"><ele></ele><time>2016-7-22T19:33:52Z</time></trkpt>
<trkpt lat="46.58503892560247" lon="7.003356064649921"><ele></ele><time>2016-7-22T19:33:55Z</time></trkpt>
<trkpt lat="46.58501286322245" lon="7.002906458179933"><ele></ele><time>2016-7-22T19:33:58Z</time></trkpt>
<trkpt lat="46.584961903005784" lon="7.002755833977322"><ele></ele><time>2016-7-22T19:34:1Z</time></trkpt>
<trkpt lat="46.5847894085288" lon="7.002317288143737"><ele></ele><time>2016-7-22T19:34:4Z</time></trkpt>
<trkpt lat="46.584761749484755" lon="7.002211759191265"><ele></ele><time>2016-7-22T19:34:7Z</time></trkpt>
<trkpt lat="46.58466938413201" lon="7.001935572933709"><ele></ele><time>2016-7-22T19:34:10Z</time></trkpt>
<trkpt lat="46.58444332788574" lon="7.001611690399556"><ele></ele><time>2016-7-22T19:34:13Z</time></trkpt>
<trkpt lat="46.58426663910737" lon="7.001453938570909"><ele></ele><time>2016-7-22T19:34:16Z</time></trkpt>
<trkpt lat="46.58423855992727" lon="7.001435665329514"><ele></ele><time>2016-7-22T19:34:19Z</time></trkpt>
<trkpt lat="46.58415499307491" lon="7.00136953003766"><ele></ele><time>2016-7-22T19:34:22Z</time></trkpt>
<trkpt lat="46.58413076942035" lon="7.001364081216181"><ele></ele><time>2016-7-22T19:34:25Z</time></trkpt>
<trkpt lat="46.58407243208891" lon="7.001300293461542"><ele></ele><time>2016-7-22T19:34:28Z</time></trkpt>
<trkpt lat="46.583952235857375" lon="7.001270450982647"><ele></ele><time>2016-7-22T19:34:31Z</time></trkpt>
<trkpt lat="46.58380924030189" lon="7.001284948283991"><ele></ele><time>2016-7-22T19:34:34Z</time></trkpt>
<trkpt lat="46.58379566131776" lon="7.0013092555102325"><ele></ele><time>2016-7-22T19:34:37Z</time></trkpt>
<trkpt lat="46.58370991332436" lon="7.0013976826563935"><ele></ele><time>2016-7-22T19:34:40Z</time></trkpt>
<trkpt lat="46.58359608386235" lon="7.001659614749386"><ele></ele><time>2016-7-22T19:34:43Z</time></trkpt>
<trkpt lat="46.58348828958314" lon="7.001904196425441"><ele></ele><time>2016-7-22T19:34:46Z</time></trkpt>
<trkpt lat="46.58347462682307" lon="7.001924899426963"><ele></ele><time>2016-7-22T19:34:49Z</time></trkpt>
<trkpt lat="46.583364990247404" lon="7.0020250606842716"><ele></ele><time>2016-7-22T19:34:52Z</time></trkpt>
<trkpt lat="46.583212858870326" lon="7.002001084784703"><ele></ele><time>2016-7-22T19:34:55Z</time></trkpt>
<trkpt lat="46.583036838915596" lon="7.001988423899367"><ele></ele><time>2016-7-22T19:34:58Z</time></trkpt>
<trkpt lat="46.582843552059096" lon="7.001989844217743"><ele></ele><time>2016-7-22T19:35:1Z</time></trkpt>
<trkpt lat="46.58268144646941" lon="7.00194415892301"><ele></ele><time>2016-7-22T19:35:4Z</time></trkpt>
<trkpt lat="46.58255990952523" lon="7.001881543128902"><ele></ele><time>2016-7-22T19:35:7Z</time></trkpt>
<trkpt lat="46.582433260204496" lon="7.00176964155864"><ele></ele><time>2016-7-22T19:35:10Z</time></trkpt>
<trkpt lat="46.582358243164805" lon="7.001681462035426"><ele></ele><time>2016-7-22T19:35:13Z</time></trkpt>
<trkpt lat="46.58226654621798" lon="7.001585486934369"><ele></ele><time>2016-7-22T19:35:16Z</time></trkpt>
<trkpt lat="46.58219136276204" lon="7.001394964237081"><ele></ele><time>2016-7-22T19:35:19Z</time></trkpt>
<trkpt lat="46.58208994428339" lon="7.001174768938286"><ele></ele><time>2016-7-22T19:35:22Z</time></trkpt>
<trkpt lat="46.58198022767564" lon="7.000957842387454"><ele></ele><time>2016-7-22T19:35:25Z</time></trkpt>
<trkpt lat="46.58192314870743" lon="7.000804032904059"><ele></ele><time>2016-7-22T19:35:28Z</time></trkpt>
<trkpt lat="46.58180538474454" lon="7.000647623579475"><ele></ele><time>2016-7-22T19:35:31Z</time></trkpt>
<trkpt lat="46.581735731848156" lon="7.000582913541631"><ele></ele><time>2016-7-22T19:35:34Z</time></trkpt>
<trkpt lat="46.581701283435926" lon="7.000479396081563"><ele></ele><time>2016-7-22T19:35:37Z</time></trkpt>
<trkpt lat="46.5816737911978" lon="7.000443772291034"><ele></ele><time>2016-7-22T19:35:40Z</time></trkpt>
<trkpt lat="46.5815541822774" lon="7.000365901455941"><ele></ele><time>2016-7-22T19:35:43Z</time></trkpt>
<trkpt lat="46.58150456178092" lon="7.00033170206272"><ele></ele><time>2016-7-22T19:35:46Z</time></trkpt>
<trkpt lat="46.58146541868852" lon="7.000296077994049"><ele></ele><time>2016-7-22T19:35:49Z</time></trkpt>
<trkpt lat="46.58136022576787" lon="7.0002923036228175"><ele></ele><time>2016-7-22T19:35:52Z</time></trkpt>
<trkpt lat="46.581345809112655" lon="7.0002731086956125"><ele></ele><time>2016-7-22T19:35:55Z</time></trkpt>
<trkpt lat="46.58125469880969" lon="7.000184844966421"><ele></ele><time>2016-7-22T19:35:58Z</time></trkpt>
<trkpt lat="46.58113458736408" lon="7.0000744522917495"><ele></ele><time>2016-7-22T19:36:1Z</time></trkpt>
<trkpt lat="46.58098832376998" lon="7.00001351228582"><ele></ele><time>2016-7-22T19:36:4Z</time></trkpt>
<trkpt lat="46.58084063481085" lon="6.999989452667754"><ele></ele><time>2016-7-22T19:36:7Z</time></trkpt>
<trkpt lat="46.580635697725334" lon="6.999938988653745"><ele></ele><time>2016-7-22T19:36:10Z</time></trkpt>
<trkpt lat="46.58044517758881" lon="6.999883160558415"><ele></ele><time>2016-7-22T19:36:13Z</time></trkpt>
<trkpt lat="46.580303691307826" lon="6.999853736662773"><ele></ele><time>2016-7-22T19:36:16Z</time></trkpt>
<trkpt lat="46.58015382319774" lon="6.999817607035569"><ele></ele><time>2016-7-22T19:36:19Z</time></trkpt>
<trkpt lat="46.580052905475355" lon="6.9997784610874625"><ele></ele><time>2016-7-22T19:36:22Z</time></trkpt>
<trkpt lat="46.57991100005152" lon="6.9997530605002085"><ele></ele><time>2016-7-22T19:36:25Z</time></trkpt>
<trkpt lat="46.57971452870197" lon="6.999702177591027"><ele></ele><time>2016-7-22T19:36:28Z</time></trkpt>
<trkpt lat="46.57952962502311" lon="6.999598153621173"><ele></ele><time>2016-7-22T19:36:31Z</time></trkpt>
<trkpt lat="46.57935335341497" lon="6.9996025918277684"><ele></ele><time>2016-7-22T19:36:34Z</time></trkpt>
<trkpt lat="46.57925436360293" lon="6.999557578584852"><ele></ele><time>2016-7-22T19:36:37Z</time></trkpt>
<trkpt lat="46.57904741435133" lon="6.999549946102299"><ele></ele><time>2016-7-22T19:36:40Z</time></trkpt>
<trkpt lat="46.57884021389546" lon="6.999521191189491"><ele></ele><time>2016-7-22T19:36:43Z</time></trkpt>
<trkpt lat="46.57871079793954" lon="6.999460586858947"><ele></ele><time>2016-7-22T19:36:46Z</time></trkpt>
<trkpt lat="46.57857568249594" lon="6.999382380371895"><ele></ele><time>2016-7-22T19:36:49Z</time></trkpt>
<trkpt lat="46.578430175066494" lon="6.999171907027258"><ele></ele><time>2016-7-22T19:36:52Z</time></trkpt>
<trkpt lat="46.57833973580353" lon="6.99904324248153"><ele></ele><time>2016-7-22T19:36:55Z</time></trkpt>
<trkpt lat="46.57820814119477" lon="6.998928910026225"><ele></ele><time>2016-7-22T19:36:58Z</time></trkpt>
<trkpt lat="46.57798962749547" lon="6.998705191511005"><ele></ele><time>2016-7-22T19:37:1Z</time></trkpt>
<trkpt lat="46.57780908404561" lon="6.998464793891752"><ele></ele><time>2016-7-22T19:37:4Z</time></trkpt>
<trkpt lat="46.577686710172244" lon="6.998297487955381"><ele></ele><time>2016-7-22T19:37:7Z</time></trkpt>
<trkpt lat="46.57753860574772" lon="6.997970589751802"><ele></ele><time>2016-7-22T19:37:10Z</time></trkpt>
<trkpt lat="46.57739812696963" lon="6.997801774636716"><ele></ele><time>2016-7-22T19:37:13Z</time></trkpt>
<trkpt lat="46.57724515781502" lon="6.9977442710472335"><ele></ele><time>2016-7-22T19:37:16Z</time></trkpt>
<trkpt lat="46.577184890523625" lon="6.9978582636443685"><ele></ele><time>2016-7-22T19:37:19Z</time></trkpt>
<trkpt lat="46.57717323711" lon="6.998072169824623"><ele></ele><time>2016-7-22T19:37:22Z</time></trkpt>
<trkpt lat="46.577185723455784" lon="6.998297727442955"><ele></ele><time>2016-7-22T19:37:25Z</time></trkpt>
<trkpt lat="46.57712721451887" lon="6.998566114948477"><ele></ele><time>2016-7-22T19:37:28Z</time></trkpt>
<trkpt lat="46.57704858864061" lon="6.998864593047214"><ele></ele><time>2016-7-22T19:37:31Z</time></trkpt>
<trkpt lat="46.57695596486259" lon="6.999172458556686"><ele></ele><time>2016-7-22T19:37:34Z</time></trkpt>
<trkpt lat="46.57680257343756" lon="6.999380494013375"><ele></ele><time>2016-7-22T19:37:37Z</time></trkpt>
<trkpt lat="46.57658464297122" lon="6.999449807243246"><ele></ele><time>2016-7-22T19:37:40Z</time></trkpt>
<trkpt lat="46.576466960730656" lon="6.999469585751718"><ele></ele><time>2016-7-22T19:37:43Z</time></trkpt>
<trkpt lat="46.57642857148772" lon="6.999477882930539"><ele></ele><time>2016-7-22T19:37:46Z</time></trkpt>
<trkpt lat="46.57634827273833" lon="6.999482910161953"><ele></ele><time>2016-7-22T19:37:49Z</time></trkpt>
<trkpt lat="46.5762548148898" lon="6.999446278963369"><ele></ele><time>2016-7-22T19:37:52Z</time></trkpt>
<trkpt lat="46.57621785096131" lon="6.999421970528243"><ele></ele><time>2016-7-22T19:37:55Z</time></trkpt>
<trkpt lat="46.576149371785284" lon="6.999336557182684"><ele></ele><time>2016-7-22T19:37:58Z</time></trkpt>
<trkpt lat="46.5760848329776" lon="6.999178305092653"><ele></ele><time>2016-7-22T19:38:1Z</time></trkpt>
<trkpt lat="46.57602993294962" lon="6.9990548381784485"><ele></ele><time>2016-7-22T19:38:4Z</time></trkpt>
<trkpt lat="46.57597729610043" lon="6.998926090711884"><ele></ele><time>2016-7-22T19:38:7Z</time></trkpt>
<trkpt lat="46.57592038596263" lon="6.998673206986698"><ele></ele><time>2016-7-22T19:38:10Z</time></trkpt>
<trkpt lat="46.57574227573232" lon="6.998227117231613"><ele></ele><time>2016-7-22T19:38:13Z</time></trkpt>
<trkpt lat="46.57565686697606" lon="6.997985045494084"><ele></ele><time>2016-7-22T19:38:16Z</time></trkpt>
<trkpt lat="46.57561286323473" lon="6.997878007391629"><ele></ele><time>2016-7-22T19:38:19Z</time></trkpt>
<trkpt lat="46.575602302676444" lon="6.997823943789364"><ele></ele><time>2016-7-22T19:38:22Z</time></trkpt>
<trkpt lat="46.5755294668198" lon="6.997578938681384"><ele></ele><time>2016-7-22T19:38:25Z</time></trkpt>
<trkpt lat="46.57541949998802" lon="6.99726033947395"><ele></ele><time>2016-7-22T19:38:28Z</time></trkpt>
<trkpt lat="46.575397540403145" lon="6.997175430152741"><ele></ele><time>2016-7-22T19:38:31Z</time></trkpt>
<trkpt lat="46.57528966712045" lon="6.997017931395508"><ele></ele><time>2016-7-22T19:38:34Z</time></trkpt>
<trkpt lat="46.57526452172174" lon="6.9969905219330135"><ele></ele><time>2016-7-22T19:38:37Z</time></trkpt>
<trkpt lat="46.57523367658981" lon="6.99696604600435"><ele></ele><time>2016-7-22T19:38:40Z</time></trkpt>
<trkpt lat="46.575103086332554" lon="6.996975682083404"><ele></ele><time>2016-7-22T19:38:43Z</time></trkpt>
<trkpt lat="46.57497442405911" lon="6.996973248251297"><ele></ele><time>2016-7-22T19:38:46Z</time></trkpt>
<trkpt lat="46.57490066376329" lon="6.996931253094341"><ele></ele><time>2016-7-22T19:38:49Z</time></trkpt>
<trkpt lat="46.574814582215" lon="6.996876433312999"><ele></ele><time>2016-7-22T19:38:52Z</time></trkpt>
<trkpt lat="46.574693297400316" lon="6.996758915966859"><ele></ele><time>2016-7-22T19:38:55Z</time></trkpt>
<trkpt lat="46.57460076183971" lon="6.996699318339329"><ele></ele><time>2016-7-22T19:38:58Z</time></trkpt>
<trkpt lat="46.57442885047249" lon="6.996567047611445"><ele></ele><time>2016-7-22T19:39:1Z</time></trkpt>
<trkpt lat="46.57419483064036" lon="6.996311309791302"><ele></ele><time>2016-7-22T19:39:4Z</time></trkpt>
<trkpt lat="46.57411034180947" lon="6.996243665717014"><ele></ele><time>2016-7-22T19:39:7Z</time></trkpt>
<trkpt lat="46.573968688391496" lon="6.996173421881211"><ele></ele><time>2016-7-22T19:39:10Z</time></trkpt>
<trkpt lat="46.57373055802095" lon="6.9962018308751075"><ele></ele><time>2016-7-22T19:39:13Z</time></trkpt>
<trkpt lat="46.57359560758256" lon="6.996344236380773"><ele></ele><time>2016-7-22T19:39:16Z</time></trkpt>
<trkpt lat="46.573499633420134" lon="6.996453282797934"><ele></ele><time>2016-7-22T19:39:19Z</time></trkpt>
<trkpt lat="46.573446743246215" lon="6.996480774213636"><ele></ele><time>2016-7-22T19:39:22Z</time></trkpt>
<trkpt lat="46.57339234447637" lon="6.996495944178314"><ele></ele><time>2016-7-22T19:39:25Z</time></trkpt>
<trkpt lat="46.573192939511216" lon="6.99644212751384"><ele></ele><time>2016-7-22T19:39:28Z</time></trkpt>
<trkpt lat="46.57303972035325" lon="6.996264008154749"><ele></ele><time>2016-7-22T19:39:31Z</time></trkpt>
<trkpt lat="46.57283469939571" lon="6.996219746738034"><ele></ele><time>2016-7-22T19:39:34Z</time></trkpt>
<trkpt lat="46.57270829896865" lon="6.996323511821597"><ele></ele><time>2016-7-22T19:39:37Z</time></trkpt>
<trkpt lat="46.57264082252051" lon="6.996497351124937"><ele></ele><time>2016-7-22T19:39:40Z</time></trkpt>
<trkpt lat="46.57263000918241" lon="6.996553761154432"><ele></ele><time>2016-7-22T19:39:43Z</time></trkpt>
<trkpt lat="46.572602011830924" lon="6.996702036561704"><ele></ele><time>2016-7-22T19:39:46Z</time></trkpt>
<trkpt lat="46.57259932932695" lon="6.996726511689454"><ele></ele><time>2016-7-22T19:39:49Z</time></trkpt>
<trkpt lat="46.572569991392385" lon="6.996831201106572"><ele></ele><time>2016-7-22T19:39:52Z</time></trkpt>
<trkpt lat="46.572556998873644" lon="6.9968779718817595"><ele></ele><time>2016-7-22T19:39:55Z</time></trkpt>
<trkpt lat="46.57256135701136" lon="6.996915942061165"><ele></ele><time>2016-7-22T19:39:58Z</time></trkpt>
<trkpt lat="46.572491198750896" lon="6.997056588917722"><ele></ele><time>2016-7-22T19:40:1Z</time></trkpt>
<trkpt lat="46.572302521766396" lon="6.9970749407992265"><ele></ele><time>2016-7-22T19:40:4Z</time></trkpt>
<trkpt lat="46.57217570372606" lon="6.997055072627408"><ele></ele><time>2016-7-22T19:40:7Z</time></trkpt>
<trkpt lat="46.5721111632572" lon="6.997036044136518"><ele></ele><time>2016-7-22T19:40:10Z</time></trkpt>
<trkpt lat="46.57199289461843" lon="6.997028329945935"><ele></ele><time>2016-7-22T19:40:13Z</time></trkpt>
<trkpt lat="46.571774295175004" lon="6.996967052917875"><ele></ele><time>2016-7-22T19:40:16Z</time></trkpt>
<trkpt lat="46.57173154782454" lon="6.996935032979572"><ele></ele><time>2016-7-22T19:40:19Z</time></trkpt>
<trkpt lat="46.57164253274115" lon="6.996869400454754"><ele></ele><time>2016-7-22T19:40:22Z</time></trkpt>
<trkpt lat="46.571621494478855" lon="6.99684199108896"><ele></ele><time>2016-7-22T19:40:25Z</time></trkpt>
<trkpt lat="46.57157011387711" lon="6.996800415560707"><ele></ele><time>2016-7-22T19:40:28Z</time></trkpt>
<trkpt lat="46.57150138217233" lon="6.996804940150743"><ele></ele><time>2016-7-22T19:40:31Z</time></trkpt>
<trkpt lat="46.57146701591334" lon="6.996841149202194"><ele></ele><time>2016-7-22T19:40:34Z</time></trkpt>
<trkpt lat="46.57146341199487" lon="6.99681591955132"><ele></ele><time>2016-7-22T19:40:37Z</time></trkpt>
<trkpt lat="46.57146818958136" lon="6.996824385399929"><ele></ele><time>2016-7-22T19:40:40Z</time></trkpt>
<trkpt lat="46.57145318645495" lon="6.996783481294996"><ele></ele><time>2016-7-22T19:40:43Z</time></trkpt>
<trkpt lat="46.57148260702443" lon="6.996777614658166"><ele></ele><time>2016-7-22T19:40:46Z</time></trkpt>
<trkpt lat="46.571493419571055" lon="6.996787254119264"><ele></ele><time>2016-7-22T19:40:49Z</time></trkpt>
<trkpt lat="46.57150263952691" lon="6.996799240478507"><ele></ele><time>2016-7-22T19:40:52Z</time></trkpt>
<trkpt lat="46.57158050801512" lon="6.9967527227121025"><ele></ele><time>2016-7-22T19:40:55Z</time></trkpt>
<trkpt lat="46.571635829529754" lon="6.996676113331019"><ele></ele><time>2016-7-22T19:40:58Z</time></trkpt>
<trkpt lat="46.5716254358024" lon="6.996689524146613"><ele></ele><time>2016-7-22T19:41:1Z</time></trkpt>
<trkpt lat="46.5716112702664" lon="6.996698743914405"><ele></ele><time>2016-7-22T19:41:4Z</time></trkpt>
<trkpt lat="46.57155418882613" lon="6.996752386805891"><ele></ele><time>2016-7-22T19:41:7Z</time></trkpt>
<trkpt lat="46.571522504746696" lon="6.996791194315152"><ele></ele><time>2016-7-22T19:41:10Z</time></trkpt>
<trkpt lat="46.57161319668355" lon="6.9968174318790695"><ele></ele><time>2016-7-22T19:41:13Z</time></trkpt>
<trkpt lat="46.571598779993515" lon="6.99680133825711"><ele></ele><time>2016-7-22T19:41:16Z</time></trkpt>
<trkpt lat="46.5715791670423" lon="6.996741658552015"><ele></ele><time>2016-7-22T19:41:19Z</time></trkpt>
<trkpt lat="46.57157581447165" lon="6.996725565194713"><ele></ele><time>2016-7-22T19:41:22Z</time></trkpt>
<trkpt lat="46.57158310688577" lon="6.996712741038971"><ele></ele><time>2016-7-22T19:41:25Z</time></trkpt>
<trkpt lat="46.571575227762146" lon="6.996723553521041"><ele></ele><time>2016-7-22T19:41:28Z</time></trkpt>
<trkpt lat="46.57154253772315" lon="6.996773257495927"><ele></ele><time>2016-7-22T19:41:31Z</time></trkpt>
<trkpt lat="46.57151085275311" lon="6.996886412592709"><ele></ele><time>2016-7-22T19:41:34Z</time></trkpt>
<trkpt lat="46.57150951162767" lon="6.996888088943665"><ele></ele><time>2016-7-22T19:41:37Z</time></trkpt>
<trkpt lat="46.57158494972181" lon="6.996811563862762"><ele></ele><time>2016-7-22T19:41:40Z</time></trkpt>
<trkpt lat="46.57156399507279" lon="6.996801337425009"><ele></ele><time>2016-7-22T19:41:43Z</time></trkpt>
<trkpt lat="46.57163432002406" lon="6.996739732030905"><ele></ele><time>2016-7-22T19:41:46Z</time></trkpt>
<trkpt lat="46.571625602853146" lon="6.996738558354249"><ele></ele><time>2016-7-22T19:41:49Z</time></trkpt>
<trkpt lat="46.57165527502854" lon="6.996720286489043"><ele></ele><time>2016-7-22T19:41:52Z</time></trkpt>
<trkpt lat="46.571677738356854" lon="6.996735877388592"><ele></ele><time>2016-7-22T19:41:55Z</time></trkpt>
<trkpt lat="46.57157807634989" lon="6.996828830443567"><ele></ele><time>2016-7-22T19:41:58Z</time></trkpt>
<trkpt lat="46.571531304673364" lon="6.99688113247537"><ele></ele><time>2016-7-22T19:42:1Z</time></trkpt>
<trkpt lat="46.57153666942218" lon="6.996853807560261"><ele></ele><time>2016-7-22T19:42:4Z</time></trkpt>
<trkpt lat="46.571580842635775" lon="6.996807456626089"><ele></ele><time>2016-7-22T19:42:7Z</time></trkpt>
<trkpt lat="46.57162384237018" lon="6.996762111493712"><ele></ele><time>2016-7-22T19:42:10Z</time></trkpt>
<trkpt lat="46.571671536553836" lon="6.99666831900415"><ele></ele><time>2016-7-22T19:42:13Z</time></trkpt>
<trkpt lat="46.571659550435555" lon="6.996667396706737"><ele></ele><time>2016-7-22T19:42:16Z</time></trkpt>
<trkpt lat="46.57168603726678" lon="6.996667397340382"><ele></ele><time>2016-7-22T19:42:19Z</time></trkpt>
<trkpt lat="46.5715740528189" lon="6.996846767645764"><ele></ele><time>2016-7-22T19:42:22Z</time></trkpt>
<trkpt lat="46.571545470854964" lon="6.996818016993057"><ele></ele><time>2016-7-22T19:42:25Z</time></trkpt>
<trkpt lat="46.57157447212217" lon="6.996829417091414"><ele></ele><time>2016-7-22T19:42:28Z</time></trkpt>
<trkpt lat="46.57165653175153" lon="6.9967673090630935"><ele></ele><time>2016-7-22T19:42:31Z</time></trkpt>
<trkpt lat="46.57158503317239" lon="6.996842325493386"><ele></ele><time>2016-7-22T19:42:34Z</time></trkpt>
<trkpt lat="46.57147699034941" lon="6.996844083111103"><ele></ele><time>2016-7-22T19:42:37Z</time></trkpt>
<trkpt lat="46.57145980748098" lon="6.996840394657397"><ele></ele><time>2016-7-22T19:42:40Z</time></trkpt>
<trkpt lat="46.57144438465269" lon="6.99685011731007"><ele></ele><time>2016-7-22T19:42:43Z</time></trkpt>
<trkpt lat="46.5714583820806" lon="6.9968801249012165"><ele></ele><time>2016-7-22T19:42:46Z</time></trkpt>
<trkpt lat="46.57151001491668" lon="6.996856824412131"><ele></ele><time>2016-7-22T19:42:49Z</time></trkpt>
<trkpt lat="46.57159408616585" lon="6.99679790155961"><ele></ele><time>2016-7-22T19:42:52Z</time></trkpt>
<trkpt lat="46.57161730435795" lon="6.9967724210929525"><ele></ele><time>2016-7-22T19:42:55Z</time></trkpt>
<trkpt lat="46.57164949092317" lon="6.9967694043734525"><ele></ele><time>2016-7-22T19:42:58Z</time></trkpt>
<trkpt lat="46.571650915955075" lon="6.996760435758331"><ele></ele><time>2016-7-22T19:43:1Z</time></trkpt>
<trkpt lat="46.57167958184657" lon="6.9967801339446645"><ele></ele><time>2016-7-22T19:43:4Z</time></trkpt>
<trkpt lat="46.571679246209754" lon="6.996810225012012"><ele></ele><time>2016-7-22T19:43:7Z</time></trkpt>
<trkpt lat="46.571669019620586" lon="6.996865377769055"><ele></ele><time>2016-7-22T19:43:10Z</time></trkpt>
<trkpt lat="46.57162501346379" lon="6.996960259995955"><ele></ele><time>2016-7-22T19:43:13Z</time></trkpt>
<trkpt lat="46.57159190444187" lon="6.997000576215931"><ele></ele><time>2016-7-22T19:43:16Z</time></trkpt>
<trkpt lat="46.57153524203895" lon="6.997059080628496"><ele></ele><time>2016-7-22T19:43:19Z</time></trkpt>
<trkpt lat="46.57149861287649" lon="6.997077603784929"><ele></ele><time>2016-7-22T19:43:22Z</time></trkpt>
<trkpt lat="46.57146919201288" lon="6.9971080294333285"><ele></ele><time>2016-7-22T19:43:25Z</time></trkpt>
<trkpt lat="46.57139308321675" lon="6.997197043552248"><ele></ele><time>2016-7-22T19:43:28Z</time></trkpt>
<trkpt lat="46.5713754811525" lon="6.997201737003779"><ele></ele><time>2016-7-22T19:43:31Z</time></trkpt>
<trkpt lat="46.57135544801255" lon="6.997233336344919"><ele></ele><time>2016-7-22T19:43:34Z</time></trkpt>
<trkpt lat="46.57133323556431" lon="6.99726594146378"><ele></ele><time>2016-7-22T19:43:37Z</time></trkpt>
<trkpt lat="46.5713213330865" lon="6.997279938977497"><ele></ele><time>2016-7-22T19:43:40Z</time></trkpt>
<trkpt lat="46.57127246593112" lon="6.997332408597966"><ele></ele><time>2016-7-22T19:43:43Z</time></trkpt>
<trkpt lat="46.57121873699984" lon="6.997407341634987"><ele></ele><time>2016-7-22T19:43:46Z</time></trkpt>
<trkpt lat="46.57117967657419" lon="6.997468444862791"><ele></ele><time>2016-7-22T19:43:49Z</time></trkpt>
<trkpt lat="46.571114883481584" lon="6.997546898039835"><ele></ele><time>2016-7-22T19:43:52Z</time></trkpt>
<trkpt lat="46.57104715701111" lon="6.997601127411878"><ele></ele><time>2016-7-22T19:43:55Z</time></trkpt>
<trkpt lat="46.57097222241546" lon="6.99762895357868"><ele></ele><time>2016-7-22T19:43:58Z</time></trkpt>
<trkpt lat="46.57092100890608" lon="6.997632975673431"><ele></ele><time>2016-7-22T19:44:1Z</time></trkpt>
<trkpt lat="46.5708866432356" lon="6.997620066702241"><ele></ele><time>2016-7-22T19:44:4Z</time></trkpt>
<trkpt lat="46.57081673798896" lon="6.9976308777014005"><ele></ele><time>2016-7-22T19:44:7Z</time></trkpt>
<trkpt lat="46.57076242393924" lon="6.997570945708594"><ele></ele><time>2016-7-22T19:44:10Z</time></trkpt>
<trkpt lat="46.570759994436315" lon="6.99746650698639"><ele></ele><time>2016-7-22T19:44:13Z</time></trkpt>
<trkpt lat="46.570787236909716" lon="6.997360392590739"><ele></ele><time>2016-7-22T19:44:16Z</time></trkpt>
<trkpt lat="46.570801320490524" lon="6.9971955206545555"><ele></ele><time>2016-7-22T19:44:19Z</time></trkpt>
<trkpt lat="46.57079369448271" lon="6.997067863902897"><ele></ele><time>2016-7-22T19:44:22Z</time></trkpt>
<trkpt lat="46.570784726595555" lon="6.997004831685707"><ele></ele><time>2016-7-22T19:44:25Z</time></trkpt>
<trkpt lat="46.57076352152263" lon="6.99690835533393"><ele></ele><time>2016-7-22T19:44:28Z</time></trkpt>
<trkpt lat="46.57075136837779" lon="6.996856387168644"><ele></ele><time>2016-7-22T19:44:31Z</time></trkpt>
<trkpt lat="46.5707214459986" lon="6.996770052725708"><ele></ele><time>2016-7-22T19:44:34Z</time></trkpt>
<trkpt lat="46.57068431521534" lon="6.996680616801606"><ele></ele><time>2016-7-22T19:44:37Z</time></trkpt>
<trkpt lat="46.570656152582174" lon="6.996632252476772"><ele></ele><time>2016-7-22T19:44:40Z</time></trkpt>
<trkpt lat="46.570612231943976" lon="6.996585312700471"><ele></ele><time>2016-7-22T19:44:43Z</time></trkpt>
<trkpt lat="46.57054241098759" lon="6.996556812518023"><ele></ele><time>2016-7-22T19:44:46Z</time></trkpt>
<trkpt lat="46.5705013395084" lon="6.996567456567743"><ele></ele><time>2016-7-22T19:44:49Z</time></trkpt>
<trkpt lat="46.570470577308704" lon="6.996617160589352"><ele></ele><time>2016-7-22T19:44:52Z</time></trkpt>
<trkpt lat="46.57044325171258" lon="6.996665104491019"><ele></ele><time>2016-7-22T19:44:55Z</time></trkpt>
<trkpt lat="46.57044056900478" lon="6.996706594907508"><ele></ele><time>2016-7-22T19:44:58Z</time></trkpt>
<trkpt lat="46.57044132327712" lon="6.996714893021688"><ele></ele><time>2016-7-22T19:45:1Z</time></trkpt>
<trkpt lat="46.5703785418547" lon="6.996792340417021"><ele></ele><time>2016-7-22T19:45:4Z</time></trkpt>
<trkpt lat="46.57029329646278" lon="6.9969077573514324"><ele></ele><time>2016-7-22T19:45:7Z</time></trkpt>
<trkpt lat="46.57025281165108" lon="6.996923933479514"><ele></ele><time>2016-7-22T19:45:10Z</time></trkpt>
<trkpt lat="46.570247614705174" lon="6.996937512058"><ele></ele><time>2016-7-22T19:45:13Z</time></trkpt>
<trkpt lat="46.570238561985974" lon="6.996959053363803"><ele></ele><time>2016-7-22T19:45:16Z</time></trkpt>
<trkpt lat="46.57018374329957" lon="6.9970429550248205"><ele></ele><time>2016-7-22T19:45:19Z</time></trkpt>
<trkpt lat="46.57010000680522" lon="6.997145547665472"><ele></ele><time>2016-7-22T19:45:22Z</time></trkpt>
<trkpt lat="46.570031692886026" lon="6.997259540080087"><ele></ele><time>2016-7-22T19:45:25Z</time></trkpt>
<trkpt lat="46.569945945123436" lon="6.997329610841541"><ele></ele><time>2016-7-22T19:45:28Z</time></trkpt>
<trkpt lat="46.56991468007895" lon="6.9973735313302425"><ele></ele><time>2016-7-22T19:45:31Z</time></trkpt>
<trkpt lat="46.56990160406892" lon="6.997392977061143"><ele></ele><time>2016-7-22T19:45:34Z</time></trkpt>
<trkpt lat="46.56986799211924" lon="6.997434466738316"><ele></ele><time>2016-7-22T19:45:37Z</time></trkpt>
<trkpt lat="46.56985005449092" lon="6.997463216279025"><ele></ele><time>2016-7-22T19:45:40Z</time></trkpt>
<trkpt lat="46.56979263800264" lon="6.997497916035538"><ele></ele><time>2016-7-22T19:45:43Z</time></trkpt>
<trkpt lat="46.569742346037195" lon="6.997540914058707"><ele></ele><time>2016-7-22T19:45:46Z</time></trkpt>
<trkpt lat="46.56967688297515" lon="6.997570752111984"><ele></ele><time>2016-7-22T19:45:49Z</time></trkpt>
<trkpt lat="46.56963195589788" lon="6.997574774357001"><ele></ele><time>2016-7-22T19:45:52Z</time></trkpt>
<trkpt lat="46.56953028248983" lon="6.997646521121433"><ele></ele><time>2016-7-22T19:45:55Z</time></trkpt>
<trkpt lat="46.56943900291125" lon="6.997696307516214"><ele></ele><time>2016-7-22T19:45:58Z</time></trkpt>
<trkpt lat="46.56935652401449" lon="6.997773000070051"><ele></ele><time>2016-7-22T19:46:1Z</time></trkpt>
<trkpt lat="46.56923297444214" lon="6.997793281351159"><ele></ele><time>2016-7-22T19:46:4Z</time></trkpt>
<trkpt lat="46.56911001114499" lon="6.997851867999936"><ele></ele><time>2016-7-22T19:46:7Z</time></trkpt>
<trkpt lat="46.568981013050646" lon="6.997895702333379"><ele></ele><time>2016-7-22T19:46:10Z</time></trkpt>
<trkpt lat="46.56879811942241" lon="6.997928135973261"><ele></ele><time>2016-7-22T19:46:13Z</time></trkpt>
<trkpt lat="46.56864808297953" lon="6.997951853206745"><ele></ele><time>2016-7-22T19:46:16Z</time></trkpt>
<trkpt lat="46.56862561954854" lon="6.997944895679776"><ele></ele><time>2016-7-22T19:46:19Z</time></trkpt>
<trkpt lat="46.56857792667593" lon="6.9979293879957405"><ele></ele><time>2016-7-22T19:46:22Z</time></trkpt>
<trkpt lat="46.56841112714335" lon="6.99789241976"><ele></ele><time>2016-7-22T19:46:25Z</time></trkpt>
<trkpt lat="46.568330913803436" lon="6.997765264183292"><ele></ele><time>2016-7-22T19:46:28Z</time></trkpt>
<trkpt lat="46.56825120419924" lon="6.9975695445491946"><ele></ele><time>2016-7-22T19:46:31Z</time></trkpt>
<trkpt lat="46.56819420993925" lon="6.997342728551325"><ele></ele><time>2016-7-22T19:46:34Z</time></trkpt>
<trkpt lat="46.568106287152176" lon="6.997056316393655"><ele></ele><time>2016-7-22T19:46:37Z</time></trkpt>
<trkpt lat="46.56805633388199" lon="6.996813994019714"><ele></ele><time>2016-7-22T19:46:40Z</time></trkpt>
<trkpt lat="46.568001267196315" lon="6.996609390143179"><ele></ele><time>2016-7-22T19:46:43Z</time></trkpt>
<trkpt lat="46.56790697315641" lon="6.99640679698732"><ele></ele><time>2016-7-22T19:46:46Z</time></trkpt>
<trkpt lat="46.56782038979842" lon="6.996260446669086"><ele></ele><time>2016-7-22T19:46:49Z</time></trkpt>
<trkpt lat="46.56771519914805" lon="6.996068749741759"><ele></ele><time>2016-7-22T19:46:52Z</time></trkpt>
<trkpt lat="46.567627861614895" lon="6.995906054669282"><ele></ele><time>2016-7-22T19:46:55Z</time></trkpt>
<trkpt lat="46.56750682932169" lon="6.9957007786584"><ele></ele><time>2016-7-22T19:46:58Z</time></trkpt>
<trkpt lat="46.56741295376521" lon="6.995549399014599"><ele></ele><time>2016-7-22T19:47:1Z</time></trkpt>
<trkpt lat="46.56724414401542" lon="6.995392569330814"><ele></ele><time>2016-7-22T19:47:4Z</time></trkpt>
<trkpt lat="46.567125709562305" lon="6.995233393916357"><ele></ele><time>2016-7-22T19:47:7Z</time></trkpt>
<trkpt lat="46.56702546408046" lon="6.995055024350176"><ele></ele><time>2016-7-22T19:47:10Z</time></trkpt>
<trkpt lat="46.56692479932362" lon="6.994891658402534"><ele></ele><time>2016-7-22T19:47:13Z</time></trkpt>
<trkpt lat="46.56681692652946" lon="6.994694680799876"><ele></ele><time>2016-7-22T19:47:16Z</time></trkpt>
<trkpt lat="46.56674400580873" lon="6.994538021048591"><ele></ele><time>2016-7-22T19:47:19Z</time></trkpt>
<trkpt lat="46.566650215485154" lon="6.9942690431265415"><ele></ele><time>2016-7-22T19:47:22Z</time></trkpt>
<trkpt lat="46.56658970081917" lon="6.9940432328672655"><ele></ele><time>2016-7-22T19:47:25Z</time></trkpt>
<trkpt lat="46.56650010123859" lon="6.993791940886735"><ele></ele><time>2016-7-22T19:47:28Z</time></trkpt>
<trkpt lat="46.566466156850815" lon="6.9935970605326645"><ele></ele><time>2016-7-22T19:47:31Z</time></trkpt>
<trkpt lat="46.56642995002869" lon="6.9933455183739515"><ele></ele><time>2016-7-22T19:47:34Z</time></trkpt>
<trkpt lat="46.56640128771775" lon="6.993027926900096"><ele></ele><time>2016-7-22T19:47:37Z</time></trkpt>
<trkpt lat="46.5663192309585" lon="6.9928514017870995"><ele></ele><time>2016-7-22T19:47:40Z</time></trkpt>
<trkpt lat="46.5662352457736" lon="6.992723743196209"><ele></ele><time>2016-7-22T19:47:43Z</time></trkpt>
<trkpt lat="46.56606568170682" lon="6.992562890165877"><ele></ele><time>2016-7-22T19:47:46Z</time></trkpt>
<trkpt lat="46.56599736944955" lon="6.992538497152372"><ele></ele><time>2016-7-22T19:47:49Z</time></trkpt>
<trkpt lat="46.56590617430649" lon="6.992537153858263"><ele></ele><time>2016-7-22T19:47:52Z</time></trkpt>
<trkpt lat="46.56576737085279" lon="6.992458695796859"><ele></ele><time>2016-7-22T19:47:55Z</time></trkpt>
<trkpt lat="46.565632675573916" lon="6.992293736462625"><ele></ele><time>2016-7-22T19:47:58Z</time></trkpt>
<trkpt lat="46.56544685190432" lon="6.992025007783145"><ele></ele><time>2016-7-22T19:48:1Z</time></trkpt>
<trkpt lat="46.56525205805647" lon="6.99188418692276"><ele></ele><time>2016-7-22T19:48:4Z</time></trkpt>
<trkpt lat="46.56502826227175" lon="6.991787957157935"><ele></ele><time>2016-7-22T19:48:7Z</time></trkpt>
<trkpt lat="46.56481838068462" lon="6.9916726169581835"><ele></ele><time>2016-7-22T19:48:10Z</time></trkpt>
<trkpt lat="46.56458335411947" lon="6.991495333795549"><ele></ele><time>2016-7-22T19:48:13Z</time></trkpt>
<trkpt lat="46.56436190525906" lon="6.991400109914711"><ele></ele><time>2016-7-22T19:48:16Z</time></trkpt>
<trkpt lat="46.56420005271972" lon="6.991225426900741"><ele></ele><time>2016-7-22T19:48:19Z</time></trkpt>
<trkpt lat="46.56406552503207" lon="6.991064742341756"><ele></ele><time>2016-7-22T19:48:22Z</time></trkpt>
<trkpt lat="46.563853550153596" lon="6.990768017425861"><ele></ele><time>2016-7-22T19:48:25Z</time></trkpt>
<trkpt lat="46.56369614033199" lon="6.9905680211296275"><ele></ele><time>2016-7-22T19:48:28Z</time></trkpt>
<trkpt lat="46.56352464946895" lon="6.990321253402872"><ele></ele><time>2016-7-22T19:48:31Z</time></trkpt>
<trkpt lat="46.56334922074587" lon="6.989938614721332"><ele></ele><time>2016-7-22T19:48:34Z</time></trkpt>
<trkpt lat="46.56312400377121" lon="6.989532840753163"><ele></ele><time>2016-7-22T19:48:37Z</time></trkpt>
<trkpt lat="46.56282904997698" lon="6.989073085566515"><ele></ele><time>2016-7-22T19:48:40Z</time></trkpt>
<trkpt lat="46.5627138010428" lon="6.988882478023663"><ele></ele><time>2016-7-22T19:48:43Z</time></trkpt>
<trkpt lat="46.56260366482429" lon="6.988712490116809"><ele></ele><time>2016-7-22T19:48:46Z</time></trkpt>
<trkpt lat="46.56251121420908" lon="6.98856094285023"><ele></ele><time>2016-7-22T19:48:49Z</time></trkpt>
<trkpt lat="46.5624379572889" lon="6.988481899619433"><ele></ele><time>2016-7-22T19:48:52Z</time></trkpt>
<trkpt lat="46.56233921966259" lon="6.988378548218845"><ele></ele><time>2016-7-22T19:48:55Z</time></trkpt>
<trkpt lat="46.56227736201682" lon="6.988309479742063"><ele></ele><time>2016-7-22T19:48:58Z</time></trkpt>
<trkpt lat="46.56220477545261" lon="6.988246781263386"><ele></ele><time>2016-7-22T19:49:1Z</time></trkpt>
<trkpt lat="46.5620528970126" lon="6.988103614482064"><ele></ele><time>2016-7-22T19:49:4Z</time></trkpt>
<trkpt lat="46.562006294035854" lon="6.988067990217285"><ele></ele><time>2016-7-22T19:49:7Z</time></trkpt>
<trkpt lat="46.56184695567852" lon="6.987926499638956"><ele></ele><time>2016-7-22T19:49:10Z</time></trkpt>
<trkpt lat="46.56156474013883" lon="6.987653829114666"><ele></ele><time>2016-7-22T19:49:13Z</time></trkpt>
<trkpt lat="46.56132275716039" lon="6.987430612862335"><ele></ele><time>2016-7-22T19:49:16Z</time></trkpt>
<trkpt lat="46.56108052167041" lon="6.987294903808339"><ele></ele><time>2016-7-22T19:49:19Z</time></trkpt>
<trkpt lat="46.56082638399103" lon="6.987149387624808"><ele></ele><time>2016-7-22T19:49:22Z</time></trkpt>
<trkpt lat="46.56076787907176" lon="6.987083504354403"><ele></ele><time>2016-7-22T19:49:25Z</time></trkpt>
<trkpt lat="46.56065631706168" lon="6.9869858523438495"><ele></ele><time>2016-7-22T19:49:28Z</time></trkpt>
<trkpt lat="46.56062413083442" lon="6.986961208735056"><ele></ele><time>2016-7-22T19:49:31Z</time></trkpt>
<trkpt lat="46.560406119784744" lon="6.986765401920975"><ele></ele><time>2016-7-22T19:49:34Z</time></trkpt>
<trkpt lat="46.56015659303632" lon="6.98654704699178"><ele></ele><time>2016-7-22T19:49:37Z</time></trkpt>
<trkpt lat="46.559996585240874" lon="6.986313690586541"><ele></ele><time>2016-7-22T19:49:40Z</time></trkpt>
<trkpt lat="46.55980464192994" lon="6.986117549119964"><ele></ele><time>2016-7-22T19:49:43Z</time></trkpt>
<trkpt lat="46.55963507673071" lon="6.986052417545206"><ele></ele><time>2016-7-22T19:49:46Z</time></trkpt>
<trkpt lat="46.55938554811895" lon="6.98598870896975"><ele></ele><time>2016-7-22T19:49:49Z</time></trkpt>
<trkpt lat="46.55904784139214" lon="6.985962381617183"><ele></ele><time>2016-7-22T19:49:52Z</time></trkpt>
<trkpt lat="46.55881985334575" lon="6.985976373925755"><ele></ele><time>2016-7-22T19:49:55Z</time></trkpt>
<trkpt lat="46.558586249619516" lon="6.98597402136177"><ele></ele><time>2016-7-22T19:49:58Z</time></trkpt>
<trkpt lat="46.55848809753056" lon="6.985970330954038"><ele></ele><time>2016-7-22T19:50:1Z</time></trkpt>
<trkpt lat="46.55831325114165" lon="6.985954149643007"><ele></ele><time>2016-7-22T19:50:4Z</time></trkpt>
<trkpt lat="46.558144608807716" lon="6.985818442350594"><ele></ele><time>2016-7-22T19:50:7Z</time></trkpt>
<trkpt lat="46.557895752717094" lon="6.985592124606083"><ele></ele><time>2016-7-22T19:50:10Z</time></trkpt>
<trkpt lat="46.55773247539427" lon="6.985407634686422"><ele></ele><time>2016-7-22T19:50:13Z</time></trkpt>
<trkpt lat="46.55752410356272" lon="6.985210654623253"><ele></ele><time>2016-7-22T19:50:16Z</time></trkpt>
<trkpt lat="46.55738203172796" lon="6.985087269385524"><ele></ele><time>2016-7-22T19:50:19Z</time></trkpt>
<trkpt lat="46.557168882470165" lon="6.984868831498523"><ele></ele><time>2016-7-22T19:50:22Z</time></trkpt>
<trkpt lat="46.55704491501173" lon="6.98479045758873"><ele></ele><time>2016-7-22T19:50:25Z</time></trkpt>
<trkpt lat="46.556946680323215" lon="6.984686016538039"><ele></ele><time>2016-7-22T19:50:28Z</time></trkpt>
<trkpt lat="46.556806955619585" lon="6.984546454255535"><ele></ele><time>2016-7-22T19:50:31Z</time></trkpt>
<trkpt lat="46.556724813717906" lon="6.984481324781779"><ele></ele><time>2016-7-22T19:50:34Z</time></trkpt>
<trkpt lat="46.55652549303203" lon="6.984393393668574"><ele></ele><time>2016-7-22T19:50:37Z</time></trkpt>
<trkpt lat="46.55643161629275" lon="6.98434217789323"><ele></ele><time>2016-7-22T19:50:40Z</time></trkpt>
<trkpt lat="46.556141605797336" lon="6.984053832961038"><ele></ele><time>2016-7-22T19:50:43Z</time></trkpt>
<trkpt lat="46.555907921773" lon="6.983760963150254"><ele></ele><time>2016-7-22T19:50:46Z</time></trkpt>
<trkpt lat="46.55562151641647" lon="6.9833969295913185"><ele></ele><time>2016-7-22T19:50:49Z</time></trkpt>
<trkpt lat="46.5553846476815" lon="6.983070112936107"><ele></ele><time>2016-7-22T19:50:52Z</time></trkpt>
<trkpt lat="46.55504526903291" lon="6.982676741383873"><ele></ele><time>2016-7-22T19:50:55Z</time></trkpt>
<trkpt lat="46.55483723219534" lon="6.982504068872585"><ele></ele><time>2016-7-22T19:50:58Z</time></trkpt>
<trkpt lat="46.5546704350574" lon="6.982272137203115"><ele></ele><time>2016-7-22T19:51:1Z</time></trkpt>
<trkpt lat="46.55451880898175" lon="6.982055880083731"><ele></ele><time>2016-7-22T19:51:4Z</time></trkpt>
<trkpt lat="46.554406828872104" lon="6.9818770910899906"><ele></ele><time>2016-7-22T19:51:7Z</time></trkpt>
<trkpt lat="46.55429124358475" lon="6.981777427305129"><ele></ele><time>2016-7-22T19:51:10Z</time></trkpt>
<trkpt lat="46.55417599372721" lon="6.981665106833348"><ele></ele><time>2016-7-22T19:51:13Z</time></trkpt>
<trkpt lat="46.55408689531236" lon="6.981561588005841"><ele></ele><time>2016-7-22T19:51:16Z</time></trkpt>
<trkpt lat="46.55400332889727" lon="6.981462930823607"><ele></ele><time>2016-7-22T19:51:19Z</time></trkpt>
<trkpt lat="46.553872404337795" lon="6.981394950313336"><ele></ele><time>2016-7-22T19:51:22Z</time></trkpt>
<trkpt lat="46.55374533605984" lon="6.981277097489463"><ele></ele><time>2016-7-22T19:51:25Z</time></trkpt>
<trkpt lat="46.55366520751273" lon="6.981072325319424"><ele></ele><time>2016-7-22T19:51:28Z</time></trkpt>
<trkpt lat="46.55358038406133" lon="6.980953132408844"><ele></ele><time>2016-7-22T19:51:31Z</time></trkpt>
<trkpt lat="46.553469995293064" lon="6.980875345550524"><ele></ele><time>2016-7-22T19:51:34Z</time></trkpt>
<trkpt lat="46.55342381135301" lon="6.980845169532817"><ele></ele><time>2016-7-22T19:51:37Z</time></trkpt>
<trkpt lat="46.553393804310026" lon="6.980830081356817"><ele></ele><time>2016-7-22T19:51:40Z</time></trkpt>
<trkpt lat="46.55334569224508" lon="6.980823542298672"><ele></ele><time>2016-7-22T19:51:43Z</time></trkpt>
<trkpt lat="46.553316607009705" lon="6.980825134159961"><ele></ele><time>2016-7-22T19:51:46Z</time></trkpt>
<trkpt lat="46.55324946839155" lon="6.980787665367796"><ele></ele><time>2016-7-22T19:51:49Z</time></trkpt>
<trkpt lat="46.55322465801393" lon="6.980782216522014"><ele></ele><time>2016-7-22T19:51:52Z</time></trkpt>
<trkpt lat="46.55309976801553" lon="6.980748350558248"><ele></ele><time>2016-7-22T19:51:55Z</time></trkpt>
<trkpt lat="46.55288611350755" lon="6.980724289291865"><ele></ele><time>2016-7-22T19:51:58Z</time></trkpt>
<trkpt lat="46.55277270614272" lon="6.980738200533165"><ele></ele><time>2016-7-22T19:52:1Z</time></trkpt>
<trkpt lat="46.552693496821746" lon="6.980763260550933"><ele></ele><time>2016-7-22T19:52:4Z</time></trkpt>
<trkpt lat="46.552677990329116" lon="6.980760410324287"><ele></ele><time>2016-7-22T19:52:7Z</time></trkpt>
<trkpt lat="46.55263088389734" lon="6.980770048390435"><ele></ele><time>2016-7-22T19:52:10Z</time></trkpt>
<trkpt lat="46.55257899976058" lon="6.980781195086203"><ele></ele><time>2016-7-22T19:52:13Z</time></trkpt>
<trkpt lat="46.55250775338514" lon="6.980795191165827"><ele></ele><time>2016-7-22T19:52:16Z</time></trkpt>
<trkpt lat="46.55246969941052" lon="6.980804997089154"><ele></ele><time>2016-7-22T19:52:19Z</time></trkpt>
<trkpt lat="46.55234958587804" lon="6.98087196570445"><ele></ele><time>2016-7-22T19:52:22Z</time></trkpt>
<trkpt lat="46.55225512150897" lon="6.98089526515112"><ele></ele><time>2016-7-22T19:52:25Z</time></trkpt>
<trkpt lat="46.55224464411768" lon="6.980895935451261"><ele></ele><time>2016-7-22T19:52:28Z</time></trkpt>
<trkpt lat="46.5522070933105" lon="6.980884870412911"><ele></ele><time>2016-7-22T19:52:31Z</time></trkpt>
<trkpt lat="46.552191922322756" lon="6.980863160880593"><ele></ele><time>2016-7-22T19:52:34Z</time></trkpt>
<trkpt lat="46.55218337287054" lon="6.980855533129266"><ele></ele><time>2016-7-22T19:52:37Z</time></trkpt>
<trkpt lat="46.55209771035167" lon="6.980808843779701"><ele></ele><time>2016-7-22T19:52:40Z</time></trkpt>
<trkpt lat="46.55196770732201" lon="6.980780761214514"><ele></ele><time>2016-7-22T19:52:43Z</time></trkpt>
<trkpt lat="46.551867963455486" lon="6.98071303291196"><ele></ele><time>2016-7-22T19:52:46Z</time></trkpt>
<trkpt lat="46.551766291170566" lon="6.980693165310263"><ele></ele><time>2016-7-22T19:52:49Z</time></trkpt>
<trkpt lat="46.551644167409876" lon="6.980642284120104"><ele></ele><time>2016-7-22T19:52:52Z</time></trkpt>
<trkpt lat="46.55156277890407" lon="6.980658291614621"><ele></ele><time>2016-7-22T19:52:55Z</time></trkpt>
<trkpt lat="46.55147719927444" lon="6.98068838062893"><ele></ele><time>2016-7-22T19:52:58Z</time></trkpt>
<trkpt lat="46.551395475839996" lon="6.9806757219581685"><ele></ele><time>2016-7-22T19:53:1Z</time></trkpt>
<trkpt lat="46.551272345828494" lon="6.980659709519436"><ele></ele><time>2016-7-22T19:53:4Z</time></trkpt>
<trkpt lat="46.55114904887601" lon="6.980586197123567"><ele></ele><time>2016-7-22T19:53:7Z</time></trkpt>
<trkpt lat="46.551104542733086" lon="6.980439344855536"><ele></ele><time>2016-7-22T19:53:10Z</time></trkpt>
<trkpt lat="46.55102918940567" lon="6.980438421022711"><ele></ele><time>2016-7-22T19:53:13Z</time></trkpt>
<trkpt lat="46.550971437991315" lon="6.980444957521915"><ele></ele><time>2016-7-22T19:53:16Z</time></trkpt>
<trkpt lat="46.55091569831685" lon="6.980444704716695"><ele></ele><time>2016-7-22T19:53:19Z</time></trkpt>
<trkpt lat="46.55088761916517" lon="6.9804253418086395"><ele></ele><time>2016-7-22T19:53:22Z</time></trkpt>
<trkpt lat="46.55080656655213" lon="6.9803905548917164"><ele></ele><time>2016-7-22T19:53:25Z</time></trkpt>
<trkpt lat="46.55068352107301" lon="6.9803157852133175"><ele></ele><time>2016-7-22T19:53:28Z</time></trkpt>
<trkpt lat="46.55057380236794" lon="6.980278734485265"><ele></ele><time>2016-7-22T19:53:31Z</time></trkpt>
<trkpt lat="46.550454276430166" lon="6.980274875912928"><ele></ele><time>2016-7-22T19:53:34Z</time></trkpt>
<trkpt lat="46.550349082633744" lon="6.980346790220773"><ele></ele><time>2016-7-22T19:53:37Z</time></trkpt>
<trkpt lat="46.550280936928445" lon="6.98041334099747"><ele></ele><time>2016-7-22T19:53:40Z</time></trkpt>
<trkpt lat="46.55026475963585" lon="6.9804309426329425"><ele></ele><time>2016-7-22T19:53:43Z</time></trkpt>
<trkpt lat="46.55018462720821" lon="6.980546694975446"><ele></ele><time>2016-7-22T19:53:46Z</time></trkpt>
<trkpt lat="46.55005277837417" lon="6.9806661341115435"><ele></ele><time>2016-7-22T19:53:49Z</time></trkpt>
<trkpt lat="46.54992973117801" lon="6.98073310265735"><ele></ele><time>2016-7-22T19:53:52Z</time></trkpt>
<trkpt lat="46.54981498247463" lon="6.980766627553137"><ele></ele><time>2016-7-22T19:53:55Z</time></trkpt>
<trkpt lat="46.54967885975805" lon="6.980812724808548"><ele></ele><time>2016-7-22T19:53:58Z</time></trkpt>
<trkpt lat="46.54947819764983" lon="6.9807527054277365"><ele></ele><time>2016-7-22T19:54:1Z</time></trkpt>
<trkpt lat="46.549268566038904" lon="6.980763932128969"><ele></ele><time>2016-7-22T19:54:4Z</time></trkpt>
<trkpt lat="46.54907846433194" lon="6.9807700463326405"><ele></ele><time>2016-7-22T19:54:7Z</time></trkpt>
<trkpt lat="46.548961032888485" lon="6.980847408592893"><ele></ele><time>2016-7-22T19:54:10Z</time></trkpt>
<trkpt lat="46.54888760656747" lon="6.980915300350332"><ele></ele><time>2016-7-22T19:54:13Z</time></trkpt>
<trkpt lat="46.54881216733759" lon="6.981086457284331"><ele></ele><time>2016-7-22T19:54:16Z</time></trkpt>
<trkpt lat="46.548741589948754" lon="6.981229954008041"><ele></ele><time>2016-7-22T19:54:19Z</time></trkpt>
<trkpt lat="46.548630191817" lon="6.9814444445878605"><ele></ele><time>2016-7-22T19:54:22Z</time></trkpt>
<trkpt lat="46.548634380857955" lon="6.981602276198383"><ele></ele><time>2016-7-22T19:54:25Z</time></trkpt>
<trkpt lat="46.5486549162366" lon="6.9816263327983"><ele></ele><time>2016-7-22T19:54:28Z</time></trkpt>
<trkpt lat="46.54875859941569" lon="6.981708897192652"><ele></ele><time>2016-7-22T19:54:31Z</time></trkpt>
<trkpt lat="46.54891483573962" lon="6.981907636234823"><ele></ele><time>2016-7-22T19:54:34Z</time></trkpt>
<trkpt lat="46.549137037800044" lon="6.982095312738606"><ele></ele><time>2016-7-22T19:54:37Z</time></trkpt>
<trkpt lat="46.54919671663934" lon="6.982122806870086"><ele></ele><time>2016-7-22T19:54:40Z</time></trkpt>
<trkpt lat="46.54937047308951" lon="6.98216128406945"><ele></ele><time>2016-7-22T19:54:43Z</time></trkpt>
<trkpt lat="46.54942830823748" lon="6.982161704562504"><ele></ele><time>2016-7-22T19:54:46Z</time></trkpt>
<trkpt lat="46.54947005017115" lon="6.982158352803875"><ele></ele><time>2016-7-22T19:54:49Z</time></trkpt>
<trkpt lat="46.54958873811288" lon="6.982146034252318"><ele></ele><time>2016-7-22T19:54:52Z</time></trkpt>
<trkpt lat="46.54969820582391" lon="6.982144779609174"><ele></ele><time>2016-7-22T19:54:55Z</time></trkpt>
<trkpt lat="46.54982460491473" lon="6.982149392717293"><ele></ele><time>2016-7-22T19:54:58Z</time></trkpt>
<trkpt lat="46.54993507825694" lon="6.982164482837524"><ele></ele><time>2016-7-22T19:55:1Z</time></trkpt>
<trkpt lat="46.550078325043756" lon="6.982163815744503"><ele></ele><time>2016-7-22T19:55:4Z</time></trkpt>
<trkpt lat="46.55023003692999" lon="6.982214865286724"><ele></ele><time>2016-7-22T19:55:7Z</time></trkpt>
<trkpt lat="46.550378060548425" lon="6.982284857873048"><ele></ele><time>2016-7-22T19:55:10Z</time></trkpt>
<trkpt lat="46.550453161266276" lon="6.982380916460986"><ele></ele><time>2016-7-22T19:55:13Z</time></trkpt>
<trkpt lat="46.55055106073913" lon="6.982479490174587"><ele></ele><time>2016-7-22T19:55:16Z</time></trkpt>
<trkpt lat="46.55056757234378" lon="6.982541516762381"><ele></ele><time>2016-7-22T19:55:19Z</time></trkpt>
<trkpt lat="46.550576959807984" lon="6.982563896708643"><ele></ele><time>2016-7-22T19:55:22Z</time></trkpt>
<trkpt lat="46.550625993296656" lon="6.9826187156327935"><ele></ele><time>2016-7-22T19:55:25Z</time></trkpt>
<trkpt lat="46.550677122201094" lon="6.982678563757929"><ele></ele><time>2016-7-22T19:55:28Z</time></trkpt>
<trkpt lat="46.55079966407649" lon="6.98281041427798"><ele></ele><time>2016-7-22T19:55:31Z</time></trkpt>
<trkpt lat="46.550887505681466" lon="6.982874370428807"><ele></ele><time>2016-7-22T19:55:34Z</time></trkpt>
<trkpt lat="46.5509288281199" lon="6.982904127233316"><ele></ele><time>2016-7-22T19:55:37Z</time></trkpt>
<trkpt lat="46.551002169235936" lon="6.982950816283982"><ele></ele><time>2016-7-22T19:55:40Z</time></trkpt>
<trkpt lat="46.55107542700163" lon="6.98295878087424"><ele></ele><time>2016-7-22T19:55:43Z</time></trkpt>
<trkpt lat="46.55118648762997" lon="6.982928357195624"><ele></ele><time>2016-7-22T19:55:46Z</time></trkpt>
<trkpt lat="46.551288411432694" lon="6.982943195650201"><ele></ele><time>2016-7-22T19:55:49Z</time></trkpt>
<trkpt lat="46.551440459592015" lon="6.982912102407867"><ele></ele><time>2016-7-22T19:55:52Z</time></trkpt>
<trkpt lat="46.55152721226505" lon="6.98291696601446"><ele></ele><time>2016-7-22T19:55:55Z</time></trkpt>
<trkpt lat="46.55162821444497" lon="6.982899869341688"><ele></ele><time>2016-7-22T19:55:58Z</time></trkpt>
<trkpt lat="46.55170767506448" lon="6.982887801299235"><ele></ele><time>2016-7-22T19:56:1Z</time></trkpt>
<trkpt lat="46.55184463580812" lon="6.98285545040522"><ele></ele><time>2016-7-22T19:56:4Z</time></trkpt>
<trkpt lat="46.55196751435768" lon="6.982871965749014"><ele></ele><time>2016-7-22T19:56:7Z</time></trkpt>
<trkpt lat="46.55201361428051" lon="6.982918486502892"><ele></ele><time>2016-7-22T19:56:10Z</time></trkpt>
<trkpt lat="46.55203280823986" lon="6.982968610831567"><ele></ele><time>2016-7-22T19:56:13Z</time></trkpt>
<trkpt lat="46.55204588196012" lon="6.983138344971925"><ele></ele><time>2016-7-22T19:56:16Z</time></trkpt>
<trkpt lat="46.55204680230863" lon="6.983275640799058"><ele></ele><time>2016-7-22T19:56:19Z</time></trkpt>
<trkpt lat="46.55203271857713" lon="6.983451576902711"><ele></ele><time>2016-7-22T19:56:22Z</time></trkpt>
<trkpt lat="46.552030790003485" lon="6.9835123457564166"><ele></ele><time>2016-7-22T19:56:25Z</time></trkpt>
<trkpt lat="46.55202483802958" lon="6.983580155323548"><ele></ele><time>2016-7-22T19:56:28Z</time></trkpt>
<trkpt lat="46.552026681110156" lon="6.983657771922025"><ele></ele><time>2016-7-22T19:56:31Z</time></trkpt>
<trkpt lat="46.55199977392394" lon="6.983762461419538"><ele></ele><time>2016-7-22T19:56:34Z</time></trkpt>
<trkpt lat="46.55200270726986" lon="6.983789032168106"><ele></ele><time>2016-7-22T19:56:37Z</time></trkpt>
<trkpt lat="46.551990049440406" lon="6.983884166623841"><ele></ele><time>2016-7-22T19:56:40Z</time></trkpt>
<trkpt lat="46.551983175236" lon="6.983970248748497"><ele></ele><time>2016-7-22T19:56:43Z</time></trkpt>
<trkpt lat="46.551982587818344" lon="6.98402682667601"><ele></ele><time>2016-7-22T19:56:46Z</time></trkpt>
<trkpt lat="46.55196791877039" lon="6.984085667381448"><ele></ele><time>2016-7-22T19:56:49Z</time></trkpt>
<trkpt lat="46.55197822764376" lon="6.984157752118856"><ele></ele><time>2016-7-22T19:56:52Z</time></trkpt>
<trkpt lat="46.55203379805025" lon="6.9842928699661435"><ele></ele><time>2016-7-22T19:56:55Z</time></trkpt>
<trkpt lat="46.55196732824148" lon="6.984399570169748"><ele></ele><time>2016-7-22T19:56:58Z</time></trkpt>
<trkpt lat="46.55190203202036" lon="6.984496295920274"><ele></ele><time>2016-7-22T19:57:1Z</time></trkpt>
<trkpt lat="46.551883004158334" lon="6.984573576738831"><ele></ele><time>2016-7-22T19:57:4Z</time></trkpt>
<trkpt lat="46.551881746345465" lon="6.984617162678476"><ele></ele><time>2016-7-22T19:57:7Z</time></trkpt>
<trkpt lat="46.55193974764512" lon="6.984740713538429"><ele></ele><time>2016-7-22T19:57:10Z</time></trkpt>
<trkpt lat="46.55194913510385" lon="6.984763596399059"><ele></ele><time>2016-7-22T19:57:13Z</time></trkpt>
<trkpt lat="46.55197335802854" lon="6.984828556842301"><ele></ele><time>2016-7-22T19:57:16Z</time></trkpt>
<trkpt lat="46.55195315652353" lon="6.9849204221687"><ele></ele><time>2016-7-22T19:57:19Z</time></trkpt>
<trkpt lat="46.551912587093135" lon="6.985003402171656"><ele></ele><time>2016-7-22T19:57:22Z</time></trkpt>
<trkpt lat="46.551917867158394" lon="6.985047742641517"><ele></ele><time>2016-7-22T19:57:25Z</time></trkpt>
<trkpt lat="46.55193127763046" lon="6.985095603712695"><ele></ele><time>2016-7-22T19:57:28Z</time></trkpt>
<trkpt lat="46.55186908269401" lon="6.985194089741375"><ele></ele><time>2016-7-22T19:57:31Z</time></trkpt>
<trkpt lat="46.55183471598503" lon="6.985267933604277"><ele></ele><time>2016-7-22T19:57:34Z</time></trkpt>
<trkpt lat="46.55182876443442" lon="6.985300790576659"><ele></ele><time>2016-7-22T19:57:37Z</time></trkpt>
<trkpt lat="46.55180412076035" lon="6.985372706833091"><ele></ele><time>2016-7-22T19:57:40Z</time></trkpt>
<trkpt lat="46.55181526791625" lon="6.985437247865204"><ele></ele><time>2016-7-22T19:57:43Z</time></trkpt>
<trkpt lat="46.55183270148179" lon="6.985503465432319"><ele></ele><time>2016-7-22T19:57:46Z</time></trkpt>
<trkpt lat="46.55185323681657" lon="6.98553129389287"><ele></ele><time>2016-7-22T19:57:49Z</time></trkpt>
<trkpt lat="46.551837226706816" lon="6.985586614161208"><ele></ele><time>2016-7-22T19:57:52Z</time></trkpt>
<trkpt lat="46.55184912743961" lon="6.985716953262387"><ele></ele><time>2016-7-22T19:57:55Z</time></trkpt>
<trkpt lat="46.55183856598631" lon="6.985737740162758"><ele></ele><time>2016-7-22T19:57:58Z</time></trkpt>
<trkpt lat="46.55180126445022" lon="6.985907640727798"><ele></ele><time>2016-7-22T19:58:1Z</time></trkpt>
<trkpt lat="46.55184099242565" lon="6.986094893718313"><ele></ele><time>2016-7-22T19:58:4Z</time></trkpt>
<trkpt lat="46.55182984381486" lon="6.986150800838188"><ele></ele><time>2016-7-22T19:58:7Z</time></trkpt>
<trkpt lat="46.55179975225429" lon="6.986193547891386"><ele></ele><time>2016-7-22T19:58:10Z</time></trkpt>
<trkpt lat="46.551804025101596" lon="6.986352972061954"><ele></ele><time>2016-7-22T19:58:13Z</time></trkpt>
<trkpt lat="46.55178365655266" lon="6.986395719349542"><ele></ele><time>2016-7-22T19:58:16Z</time></trkpt>
<trkpt lat="46.55175272665073" lon="6.9864509554395084"><ele></ele><time>2016-7-22T19:58:19Z</time></trkpt>
<trkpt lat="46.55177954754533" lon="6.986550868540375"><ele></ele><time>2016-7-22T19:58:22Z</time></trkpt>
<trkpt lat="46.55176747684712" lon="6.9866132297145285"><ele></ele><time>2016-7-22T19:58:25Z</time></trkpt>
<trkpt lat="46.55174006609243" lon="6.986772317845247"><ele></ele><time>2016-7-22T19:58:28Z</time></trkpt>
<trkpt lat="46.551741572886066" lon="6.98693383742872"><ele></ele><time>2016-7-22T19:58:31Z</time></trkpt>
<trkpt lat="46.551803345680774" lon="6.987087647099844"><ele></ele><time>2016-7-22T19:58:34Z</time></trkpt>
<trkpt lat="46.55173293620448" lon="6.987208764109582"><ele></ele><time>2016-7-22T19:58:37Z</time></trkpt>
<trkpt lat="46.55168574469734" lon="6.987322589410628"><ele></ele><time>2016-7-22T19:58:40Z</time></trkpt>
<trkpt lat="46.55156646936591" lon="6.987389055142795"><ele></ele><time>2016-7-22T19:58:43Z</time></trkpt>
<trkpt lat="46.551412492357336" lon="6.987503967521968"><ele></ele><time>2016-7-22T19:58:46Z</time></trkpt>
<trkpt lat="46.5514071264052" lon="6.987630953441161"><ele></ele><time>2016-7-22T19:58:49Z</time></trkpt>
<trkpt lat="46.55144559765822" lon="6.9877716867603965"><ele></ele><time>2016-7-22T19:58:52Z</time></trkpt>
<trkpt lat="46.551398741387594" lon="6.987888864837328"><ele></ele><time>2016-7-22T19:58:55Z</time></trkpt>
<trkpt lat="46.55143268625878" lon="6.988042254742776"><ele></ele><time>2016-7-22T19:58:58Z</time></trkpt>
<trkpt lat="46.551377363829204" lon="6.988195391041765"><ele></ele><time>2016-7-22T19:59:1Z</time></trkpt>
<trkpt lat="46.551228835603666" lon="6.988265292657627"><ele></ele><time>2016-7-22T19:59:4Z</time></trkpt>
<trkpt lat="46.551215675825546" lon="6.988280631249726"><ele></ele><time>2016-7-22T19:59:7Z</time></trkpt>
<trkpt lat="46.55114836786245" lon="6.988384649224784"><ele></ele><time>2016-7-22T19:59:10Z</time></trkpt>
<trkpt lat="46.55117669707914" lon="6.988519598777145"><ele></ele><time>2016-7-22T19:59:13Z</time></trkpt>
<trkpt lat="46.551187174145895" lon="6.9885458344308296"><ele></ele><time>2016-7-22T19:59:16Z</time></trkpt>
<trkpt lat="46.551193207993805" lon="6.988639125316947"><ele></ele><time>2016-7-22T19:59:19Z</time></trkpt>
<trkpt lat="46.55117024110328" lon="6.9886778492227215"><ele></ele><time>2016-7-22T19:59:22Z</time></trkpt>
<trkpt lat="46.55114341847923" lon="6.988721266909496"><ele></ele><time>2016-7-22T19:59:25Z</time></trkpt>
<trkpt lat="46.551103436215584" lon="6.9887685399616375"><ele></ele><time>2016-7-22T19:59:28Z</time></trkpt>
<trkpt lat="46.55109664629946" lon="6.988815981450918"><ele></ele><time>2016-7-22T19:59:31Z</time></trkpt>
<trkpt lat="46.55106680537886" lon="6.988926622043014"><ele></ele><time>2016-7-22T19:59:34Z</time></trkpt>
<trkpt lat="46.55106261218693" lon="6.989112365232586"><ele></ele><time>2016-7-22T19:59:37Z</time></trkpt>
<trkpt lat="46.5509676440859" lon="6.989203725847891"><ele></ele><time>2016-7-22T19:59:40Z</time></trkpt>
<trkpt lat="46.55084970996751" lon="6.989261390602698"><ele></ele><time>2016-7-22T19:59:43Z</time></trkpt>
<trkpt lat="46.55075675433949" lon="6.989285109192807"><ele></ele><time>2016-7-22T19:59:46Z</time></trkpt>
<trkpt lat="46.55073596721361" lon="6.989284941054361"><ele></ele><time>2016-7-22T19:59:49Z</time></trkpt>
<trkpt lat="46.550691878217215" lon="6.989298937795865"><ele></ele><time>2016-7-22T19:59:52Z</time></trkpt>
<trkpt lat="46.55066161930179" lon="6.989318299297295"><ele></ele><time>2016-7-22T19:59:55Z</time></trkpt>
<trkpt lat="46.55062029559015" lon="6.9893940708372835"><ele></ele><time>2016-7-22T19:59:58Z</time></trkpt>
<trkpt lat="46.550607890148505" lon="6.98941234311899"><ele></ele><time>2016-7-22T20:0:1Z</time></trkpt>
<trkpt lat="46.550557765608964" lon="6.989473697549278"><ele></ele><time>2016-7-22T20:0:4Z</time></trkpt>
<trkpt lat="46.550518034961634" lon="6.989507810997779"><ele></ele><time>2016-7-22T20:0:7Z</time></trkpt>
<trkpt lat="46.5504242398144" lon="6.989641835602611"><ele></ele><time>2016-7-22T20:0:10Z</time></trkpt>
<trkpt lat="46.55034787966273" lon="6.989723557461759"><ele></ele><time>2016-7-22T20:0:13Z</time></trkpt>
<trkpt lat="46.55036439133871" lon="6.989779968163869"><ele></ele><time>2016-7-22T20:0:16Z</time></trkpt>
<trkpt lat="46.55042197301006" lon="6.989948110814297"><ele></ele><time>2016-7-22T20:0:19Z</time></trkpt>
<trkpt lat="46.55049866486392" lon="6.990163108842946"><ele></ele><time>2016-7-22T20:0:22Z</time></trkpt>
<trkpt lat="46.55048307402845" lon="6.990203760768001"><ele></ele><time>2016-7-22T20:0:25Z</time></trkpt>
<trkpt lat="46.55046345985167" lon="6.990246591894888"><ele></ele><time>2016-7-22T20:0:28Z</time></trkpt>
<trkpt lat="46.55043638498083" lon="6.990355639990849"><ele></ele><time>2016-7-22T20:0:31Z</time></trkpt>
<trkpt lat="46.55042372722625" lon="6.990444990927336"><ele></ele><time>2016-7-22T20:0:34Z</time></trkpt>
<trkpt lat="46.550429677511794" lon="6.990517075561126"><ele></ele><time>2016-7-22T20:0:37Z</time></trkpt>
<trkpt lat="46.55043495584214" lon="6.990705668832385"><ele></ele><time>2016-7-22T20:0:40Z</time></trkpt>
<trkpt lat="46.55042715892554" lon="6.990850508179866"><ele></ele><time>2016-7-22T20:0:43Z</time></trkpt>
<trkpt lat="46.55045666251255" lon="6.990910607237719"><ele></ele><time>2016-7-22T20:0:46Z</time></trkpt>
<trkpt lat="46.55043755062587" lon="6.991005322446431"><ele></ele><time>2016-7-22T20:0:49Z</time></trkpt>
<trkpt lat="46.550388514226825" lon="6.991191986571388"><ele></ele><time>2016-7-22T20:0:52Z</time></trkpt>
<trkpt lat="46.550396141248136" lon="6.991234650714949"><ele></ele><time>2016-7-22T20:0:55Z</time></trkpt>
<trkpt lat="46.550385578622794" lon="6.991352919317585"><ele></ele><time>2016-7-22T20:0:58Z</time></trkpt>
<trkpt lat="46.550456571923505" lon="6.991473117720989"><ele></ele><time>2016-7-22T20:1:1Z</time></trkpt>
<trkpt lat="46.55054709516211" lon="6.991585353771756"><ele></ele><time>2016-7-22T20:1:4Z</time></trkpt>
<trkpt lat="46.55064750952244" lon="6.991658362685922"><ele></ele><time>2016-7-22T20:1:7Z</time></trkpt>
<trkpt lat="46.55065974690511" lon="6.991675042995782"><ele></ele><time>2016-7-22T20:1:10Z</time></trkpt>
<trkpt lat="46.5507593228431" lon="6.991767330299808"><ele></ele><time>2016-7-22T20:1:13Z</time></trkpt>
<trkpt lat="46.550833584546616" lon="6.991932539677652"><ele></ele><time>2016-7-22T20:1:16Z</time></trkpt>
<trkpt lat="46.55082645766173" lon="6.992120797373401"><ele></ele><time>2016-7-22T20:1:19Z</time></trkpt>
<trkpt lat="46.55081237384619" lon="6.992304780124222"><ele></ele><time>2016-7-22T20:1:22Z</time></trkpt>
<trkpt lat="46.550723272824136" lon="6.992417598594008"><ele></ele><time>2016-7-22T20:1:25Z</time></trkpt>
<trkpt lat="46.55066769952168" lon="6.992522622685904"><ele></ele><time>2016-7-22T20:1:28Z</time></trkpt>
<trkpt lat="46.55058153203319" lon="6.992646589176939"><ele></ele><time>2016-7-22T20:1:31Z</time></trkpt>
<trkpt lat="46.55047952332728" lon="6.992721856346992"><ele></ele><time>2016-7-22T20:1:34Z</time></trkpt>
<trkpt lat="46.550384890995446" lon="6.9927724808567495"><ele></ele><time>2016-7-22T20:1:37Z</time></trkpt>
<trkpt lat="46.55035689516511" lon="6.992794356989368"><ele></ele><time>2016-7-22T20:1:40Z</time></trkpt>
<trkpt lat="46.55032185831074" lon="6.992834756990752"><ele></ele><time>2016-7-22T20:1:43Z</time></trkpt>
<trkpt lat="46.55032311530244" lon="6.9928592322202086"><ele></ele><time>2016-7-22T20:1:46Z</time></trkpt>
<trkpt lat="46.55028556387718" lon="6.992899548342096"><ele></ele><time>2016-7-22T20:1:49Z</time></trkpt>
<trkpt lat="46.55027198518281" lon="6.992900050931135"><ele></ele><time>2016-7-22T20:1:52Z</time></trkpt>
<trkpt lat="46.55018883621011" lon="6.992938438117282"><ele></ele><time>2016-7-22T20:1:55Z</time></trkpt>
<trkpt lat="46.55008724723396" lon="6.992960983036543"><ele></ele><time>2016-7-22T20:1:58Z</time></trkpt>
<trkpt lat="46.549996136140635" lon="6.992941953896113"><ele></ele><time>2016-7-22T20:2:1Z</time></trkpt>
<trkpt lat="46.54986261262253" lon="6.992921163534613"><ele></ele><time>2016-7-22T20:2:4Z</time></trkpt>
<trkpt lat="46.54975867724002" lon="6.992899870968366"><ele></ele><time>2016-7-22T20:2:7Z</time></trkpt>
<trkpt lat="46.54974358998598" lon="6.99288511843109"><ele></ele><time>2016-7-22T20:2:10Z</time></trkpt>
<trkpt lat="46.54972070761449" lon="6.992865755651945"><ele></ele><time>2016-7-22T20:2:13Z</time></trkpt>
<trkpt lat="46.549708218653684" lon="6.992859133637148"><ele></ele><time>2016-7-22T20:2:16Z</time></trkpt>
<trkpt lat="46.54964719864882" lon="6.992836417175198"><ele></ele><time>2016-7-22T20:2:19Z</time></trkpt>
<trkpt lat="46.549577210784236" lon="6.992748824455286"><ele></ele><time>2016-7-22T20:2:22Z</time></trkpt>
<trkpt lat="46.549565140937936" lon="6.992740609886163"><ele></ele><time>2016-7-22T20:2:25Z</time></trkpt>
<trkpt lat="46.549461626010704" lon="6.992606245260404"><ele></ele><time>2016-7-22T20:2:28Z</time></trkpt>
<trkpt lat="46.54937093490046" lon="6.9925134552538815"><ele></ele><time>2016-7-22T20:2:31Z</time></trkpt>
<trkpt lat="46.54927797936737" lon="6.992529462484196"><ele></ele><time>2016-7-22T20:2:34Z</time></trkpt>
<trkpt lat="46.54920748616595" lon="6.992643371052576"><ele></ele><time>2016-7-22T20:2:37Z</time></trkpt>
<trkpt lat="46.549192229232126" lon="6.99279843616345"><ele></ele><time>2016-7-22T20:2:40Z</time></trkpt>
<trkpt lat="46.54920295629557" lon="6.992946209629911"><ele></ele><time>2016-7-22T20:2:43Z</time></trkpt>
<trkpt lat="46.54921468960508" lon="6.993059281981275"><ele></ele><time>2016-7-22T20:2:46Z</time></trkpt>
<trkpt lat="46.54920052264501" lon="6.993187273524308"><ele></ele><time>2016-7-22T20:2:49Z</time></trkpt>
<trkpt lat="46.54915500712898" lon="6.993334123629693"><ele></ele><time>2016-7-22T20:2:52Z</time></trkpt>
<trkpt lat="46.5491435222261" lon="6.993474855752213"><ele></ele><time>2016-7-22T20:2:55Z</time></trkpt>
<trkpt lat="46.54908744622569" lon="6.993562026350373"><ele></ele><time>2016-7-22T20:2:58Z</time></trkpt>
<trkpt lat="46.548983006156014" lon="6.993688339343631"><ele></ele><time>2016-7-22T20:3:1Z</time></trkpt>
<trkpt lat="46.54884520700315" lon="6.993739465734529"><ele></ele><time>2016-7-22T20:3:4Z</time></trkpt>
<trkpt lat="46.54868938589314" lon="6.993862089451543"><ele></ele><time>2016-7-22T20:3:7Z</time></trkpt>
<trkpt lat="46.54853960080026" lon="6.993897792826559"><ele></ele><time>2016-7-22T20:3:10Z</time></trkpt>
<trkpt lat="46.548483860912604" lon="6.993915393516214"><ele></ele><time>2016-7-22T20:3:13Z</time></trkpt>
<trkpt lat="46.54838210460271" lon="6.993912792679678"><ele></ele><time>2016-7-22T20:3:16Z</time></trkpt>
<trkpt lat="46.548214130442744" lon="6.993976072127963"><ele></ele><time>2016-7-22T20:3:19Z</time></trkpt>
<trkpt lat="46.5482016412777" lon="6.993986465406334"><ele></ele><time>2016-7-22T20:3:22Z</time></trkpt>
<trkpt lat="46.548176997401185" lon="6.994075732239704"><ele></ele><time>2016-7-22T20:3:25Z</time></trkpt>
<trkpt lat="46.54815042513862" lon="6.994210596659829"><ele></ele><time>2016-7-22T20:3:28Z</time></trkpt>
<trkpt lat="46.548149334638055" lon="6.994281591477634"><ele></ele><time>2016-7-22T20:3:31Z</time></trkpt>
<trkpt lat="46.54812871495258" lon="6.994297935722646"><ele></ele><time>2016-7-22T20:3:34Z</time></trkpt>
<trkpt lat="46.548140616168034" lon="6.994388795997441"><ele></ele><time>2016-7-22T20:3:37Z</time></trkpt>
<trkpt lat="46.548067692318114" lon="6.99449423877417"><ele></ele><time>2016-7-22T20:3:40Z</time></trkpt>
<trkpt lat="46.548037433216145" lon="6.994529274464778"><ele></ele><time>2016-7-22T20:3:43Z</time></trkpt>
<trkpt lat="46.54798772809497" lon="6.994564058231365"><ele></ele><time>2016-7-22T20:3:46Z</time></trkpt>
<trkpt lat="46.54796140763237" lon="6.994670424137432"><ele></ele><time>2016-7-22T20:3:49Z</time></trkpt>
<trkpt lat="46.54796744155301" lon="6.994758015323714"><ele></ele><time>2016-7-22T20:3:52Z</time></trkpt>
<trkpt lat="46.54793785325123" lon="6.994772431512654"><ele></ele><time>2016-7-22T20:3:55Z</time></trkpt>
<trkpt lat="46.54780508263333" lon="6.994874436268236"><ele></ele><time>2016-7-22T20:3:58Z</time></trkpt>
<trkpt lat="46.54773484119329" lon="6.994963282912888"><ele></ele><time>2016-7-22T20:4:1Z</time></trkpt>
<trkpt lat="46.54773894763998" lon="6.9950205315104945"><ele></ele><time>2016-7-22T20:4:4Z</time></trkpt>
<trkpt lat="46.547705168089415" lon="6.995059590437637"><ele></ele><time>2016-7-22T20:4:7Z</time></trkpt>
<trkpt lat="46.54768899039983" lon="6.995110468291191"><ele></ele><time>2016-7-22T20:4:10Z</time></trkpt>
<trkpt lat="46.547626209585985" lon="6.995138546210416"><ele></ele><time>2016-7-22T20:4:13Z</time></trkpt>
<trkpt lat="46.547560494097894" lon="6.9952505270574985"><ele></ele><time>2016-7-22T20:4:16Z</time></trkpt>
<trkpt lat="46.54744188981981" lon="6.995276089062766"><ele></ele><time>2016-7-22T20:4:19Z</time></trkpt>
<trkpt lat="46.547427556604454" lon="6.995289080691802"><ele></ele><time>2016-7-22T20:4:22Z</time></trkpt>
<trkpt lat="46.54738447316751" lon="6.995325708639911"><ele></ele><time>2016-7-22T20:4:25Z</time></trkpt>
<trkpt lat="46.54731029355429" lon="6.995304416789442"><ele></ele><time>2016-7-22T20:4:28Z</time></trkpt>
<trkpt lat="46.54723133572345" lon="6.995327381351055"><ele></ele><time>2016-7-22T20:4:31Z</time></trkpt>
<trkpt lat="46.54719420387255" lon="6.995327967194835"><ele></ele><time>2016-7-22T20:4:34Z</time></trkpt>
<trkpt lat="46.54718096055959" lon="6.995319752597649"><ele></ele><time>2016-7-22T20:4:37Z</time></trkpt>
<trkpt lat="46.54712010809465" lon="6.995305334239422"><ele></ele><time>2016-7-22T20:4:40Z</time></trkpt>
<trkpt lat="46.54711683903558" lon="6.995314973366671"><ele></ele><time>2016-7-22T20:4:43Z</time></trkpt>
<trkpt lat="46.54709563279518" lon="6.995316481603338"><ele></ele><time>2016-7-22T20:4:46Z</time></trkpt>
<trkpt lat="46.54706319548282" lon="6.995261160166895"><ele></ele><time>2016-7-22T20:4:49Z</time></trkpt>
<trkpt lat="46.54702002905406" lon="6.995228888747484"><ele></ele><time>2016-7-22T20:4:52Z</time></trkpt>
<trkpt lat="46.54699446398005" lon="6.995250597301885"><ele></ele><time>2016-7-22T20:4:55Z</time></trkpt>
<trkpt lat="46.546951129231026" lon="6.995275155282245"><ele></ele><time>2016-7-22T20:4:58Z</time></trkpt>
<trkpt lat="46.54693109648265" lon="6.995274568067549"><ele></ele><time>2016-7-22T20:5:1Z</time></trkpt>
<trkpt lat="46.546910225797234" lon="6.995252858399451"><ele></ele><time>2016-7-22T20:5:4Z</time></trkpt>
<trkpt lat="46.54688231459249" lon="6.995207679192141"><ele></ele><time>2016-7-22T20:5:7Z</time></trkpt>
<trkpt lat="46.54684124424409" lon="6.995125116314976"><ele></ele><time>2016-7-22T20:5:10Z</time></trkpt>
<trkpt lat="46.54676656297696" lon="6.9949988828387895"><ele></ele><time>2016-7-22T20:5:13Z</time></trkpt>
<trkpt lat="46.54672314656265" lon="6.9948440677719885"><ele></ele><time>2016-7-22T20:5:16Z</time></trkpt>
<trkpt lat="46.54671099323976" lon="6.994807354679621"><ele></ele><time>2016-7-22T20:5:19Z</time></trkpt>
<trkpt lat="46.5466943138034" lon="6.994761002272963"><ele></ele><time>2016-7-22T20:5:22Z</time></trkpt>
<trkpt lat="46.54669221959515" lon="6.994655390055961"><ele></ele><time>2016-7-22T20:5:25Z</time></trkpt>
<trkpt lat="46.54671384599879" lon="6.994564949679667"><ele></ele><time>2016-7-22T20:5:28Z</time></trkpt>
<trkpt lat="46.546714349142654" lon="6.994545838918714"><ele></ele><time>2016-7-22T20:5:31Z</time></trkpt>
<trkpt lat="46.546678980287986" lon="6.9943136589416195"><ele></ele><time>2016-7-22T20:5:34Z</time></trkpt>
<trkpt lat="46.54664922649113" lon="6.994149707911609"><ele></ele><time>2016-7-22T20:5:37Z</time></trkpt>
<trkpt lat="46.54664126661285" lon="6.993905626268532"><ele></ele><time>2016-7-22T20:5:40Z</time></trkpt>
<trkpt lat="46.546637663252355" lon="6.993834128421548"><ele></ele><time>2016-7-22T20:5:43Z</time></trkpt>
<trkpt lat="46.54661100941976" lon="6.993781824613466"><ele></ele><time>2016-7-22T20:5:46Z</time></trkpt>
<trkpt lat="46.546601286781474" lon="6.993750811283492"><ele></ele><time>2016-7-22T20:5:49Z</time></trkpt>
<trkpt lat="46.54659986246984" lon="6.993699849187873"><ele></ele><time>2016-7-22T20:5:52Z</time></trkpt>
<trkpt lat="46.546512021021805" lon="6.993622733433561"><ele></ele><time>2016-7-22T20:5:55Z</time></trkpt>
<trkpt lat="46.54650104119235" lon="6.993583841070418"><ele></ele><time>2016-7-22T20:5:58Z</time></trkpt>
<trkpt lat="46.54647958430583" lon="6.993517874860567"><ele></ele><time>2016-7-22T20:6:1Z</time></trkpt>
<trkpt lat="46.54637573382064" lon="6.993407231049456"><ele></ele><time>2016-7-22T20:6:4Z</time></trkpt>
<trkpt lat="46.54636760353707" lon="6.993393484508698"><ele></ele><time>2016-7-22T20:6:7Z</time></trkpt>
<trkpt lat="46.546326197716525" lon="6.993327350181332"><ele></ele><time>2016-7-22T20:6:10Z</time></trkpt>
<trkpt lat="46.54628521110215" lon="6.993251995754123"><ele></ele><time>2016-7-22T20:6:13Z</time></trkpt>
<trkpt lat="46.54623316029544" lon="6.993183011318858"><ele></ele><time>2016-7-22T20:6:16Z</time></trkpt>
<trkpt lat="46.54616711174214" lon="6.993111009056862"><ele></ele><time>2016-7-22T20:6:19Z</time></trkpt>
<trkpt lat="46.54610215290728" lon="6.993033139478262"><ele></ele><time>2016-7-22T20:6:22Z</time></trkpt>
<trkpt lat="46.54608614368257" lon="6.993015201789172"><ele></ele><time>2016-7-22T20:6:25Z</time></trkpt>
<trkpt lat="46.545987656657786" lon="6.992984437784674"><ele></ele><time>2016-7-22T20:6:28Z</time></trkpt>
<trkpt lat="46.545936443646966" lon="6.992948310487872"><ele></ele><time>2016-7-22T20:6:31Z</time></trkpt>
<trkpt lat="46.54591959608965" lon="6.992942191283058"><ele></ele><time>2016-7-22T20:6:34Z</time></trkpt>
<trkpt lat="46.54590040164704" lon="6.992932048701207"><ele></ele><time>2016-7-22T20:6:37Z</time></trkpt>
<trkpt lat="46.54589134914733" lon="6.992935485070202"><ele></ele><time>2016-7-22T20:6:40Z</time></trkpt>
<trkpt lat="46.5458342684719" lon="6.992926850323682"><ele></ele><time>2016-7-22T20:6:43Z</time></trkpt>
<trkpt lat="46.54581373296569" lon="6.992913271123189"><ele></ele><time>2016-7-22T20:6:46Z</time></trkpt>
<trkpt lat="46.54574701334242" lon="6.992884351903353"><ele></ele><time>2016-7-22T20:6:49Z</time></trkpt>
<trkpt lat="46.545544340368934" lon="6.992758702083072"><ele></ele><time>2016-7-22T20:6:52Z</time></trkpt>
<trkpt lat="46.5454912831628" lon="6.992737243098262"><ele></ele><time>2016-7-22T20:6:55Z</time></trkpt>
<trkpt lat="46.54546102460861" lon="6.992726764973792"><ele></ele><time>2016-7-22T20:6:58Z</time></trkpt>
<trkpt lat="46.54538634206729" lon="6.992706814214728"><ele></ele><time>2016-7-22T20:7:1Z</time></trkpt>
<trkpt lat="46.54536848874792" lon="6.9926951629196745"><ele></ele><time>2016-7-22T20:7:4Z</time></trkpt>
<trkpt lat="46.545298751513" lon="6.9926767210246"><ele></ele><time>2016-7-22T20:7:7Z</time></trkpt>
<trkpt lat="46.54527511452137" lon="6.992678145382888"><ele></ele><time>2016-7-22T20:7:10Z</time></trkpt>
<trkpt lat="46.5452243208292" lon="6.9926234940564305"><ele></ele><time>2016-7-22T20:7:13Z</time></trkpt>
<trkpt lat="46.54520127103672" lon="6.992586193966959"><ele></ele><time>2016-7-22T20:7:16Z</time></trkpt>
<trkpt lat="46.54515475258034" lon="6.9924929859195855"><ele></ele><time>2016-7-22T20:7:19Z</time></trkpt>
<trkpt lat="46.54513019504298" lon="6.992372704804084"><ele></ele><time>2016-7-22T20:7:22Z</time></trkpt>
<trkpt lat="46.545160455671" lon="6.992210766872464"><ele></ele><time>2016-7-22T20:7:25Z</time></trkpt>
<trkpt lat="46.54528048526337" lon="6.992152515425502"><ele></ele><time>2016-7-22T20:7:28Z</time></trkpt>
<trkpt lat="46.545406130904325" lon="6.9920800148528555"><ele></ele><time>2016-7-22T20:7:31Z</time></trkpt>
<trkpt lat="46.545495567289976" lon="6.991959485019553"><ele></ele><time>2016-7-22T20:7:34Z</time></trkpt>
<trkpt lat="46.545568994071246" lon="6.991852617328303"><ele></ele><time>2016-7-22T20:7:37Z</time></trkpt>
<trkpt lat="46.54567645117774" lon="6.9917634363023"><ele></ele><time>2016-7-22T20:7:40Z</time></trkpt>
<trkpt lat="46.54578365721257" lon="6.991642236343479"><ele></ele><time>2016-7-22T20:7:43Z</time></trkpt>
<trkpt lat="46.54591869113491" lon="6.991524389821111"><ele></ele><time>2016-7-22T20:7:46Z</time></trkpt>
<trkpt lat="46.54607509908816" lon="6.991392378371461"><ele></ele><time>2016-7-22T20:7:49Z</time></trkpt>
<trkpt lat="46.546146514676096" lon="6.991247037629533"><ele></ele><time>2016-7-22T20:7:52Z</time></trkpt>
<trkpt lat="46.54621340480293" lon="6.991037910382996"><ele></ele><time>2016-7-22T20:7:55Z</time></trkpt>
<trkpt lat="46.54622002700306" lon="6.990996839143932"><ele></ele><time>2016-7-22T20:7:58Z</time></trkpt>
<trkpt lat="46.54618423752816" lon="6.99089189666985"><ele></ele><time>2016-7-22T20:8:1Z</time></trkpt>
<trkpt lat="46.546166216810875" lon="6.990860296405618"><ele></ele><time>2016-7-22T20:8:4Z</time></trkpt>
<trkpt lat="46.54612606850281" lon="6.990775470429846"><ele></ele><time>2016-7-22T20:8:7Z</time></trkpt>
<trkpt lat="46.5461187763385" lon="6.990767675070735"><ele></ele><time>2016-7-22T20:8:10Z</time></trkpt>
<trkpt lat="46.54609824075882" lon="6.990760214669887"><ele></ele><time>2016-7-22T20:8:13Z</time></trkpt>
<trkpt lat="46.546283144983036" lon="6.990811767911861"><ele></ele><time>2016-7-22T20:8:16Z</time></trkpt>
<trkpt lat="46.546360174364665" lon="6.990839513912623"><ele></ele><time>2016-7-22T20:8:19Z</time></trkpt>
<trkpt lat="46.54634005685891" lon="6.9909168785320475"><ele></ele><time>2016-7-22T20:8:22Z</time></trkpt>
<trkpt lat="46.546315414064495" lon="6.990916123566923"><ele></ele><time>2016-7-22T20:8:25Z</time></trkpt>
<trkpt lat="46.54633779353945" lon="6.990933893771174"><ele></ele><time>2016-7-22T20:8:28Z</time></trkpt>
<trkpt lat="46.54630418224494" lon="6.99092157154357"><ele></ele><time>2016-7-22T20:8:31Z</time></trkpt>
<trkpt lat="46.54628909486167" lon="6.990917631679351"><ele></ele><time>2016-7-22T20:8:34Z</time></trkpt>
<trkpt lat="46.54627124155639" lon="6.990904806915534"><ele></ele><time>2016-7-22T20:8:37Z</time></trkpt>
<trkpt lat="46.54626143504534" lon="6.990878319818837"><ele></ele><time>2016-7-22T20:8:40Z</time></trkpt>
<trkpt lat="46.54624475540978" lon="6.990848647428022"><ele></ele><time>2016-7-22T20:8:43Z</time></trkpt>
<trkpt lat="46.54618281389192" lon="6.9907849433617075"><ele></ele><time>2016-7-22T20:8:46Z</time></trkpt>
<trkpt lat="46.54612171014083" lon="6.9907564433711284"><ele></ele><time>2016-7-22T20:8:49Z</time></trkpt>
<trkpt lat="46.54610905335894" lon="6.9907650764423455"><ele></ele><time>2016-7-22T20:8:52Z</time></trkpt>
<trkpt lat="46.54609513926287" lon="6.990776056420379"><ele></ele><time>2016-7-22T20:8:55Z</time></trkpt>
<trkpt lat="46.54619345702322" lon="6.990941853122915"><ele></ele><time>2016-7-22T20:8:58Z</time></trkpt>
<trkpt lat="46.546191528082915" lon="6.991033383621297"><ele></ele><time>2016-7-22T20:9:1Z</time></trkpt>
<trkpt lat="46.54615012053019" lon="6.991111250644206"><ele></ele><time>2016-7-22T20:9:4Z</time></trkpt>
<trkpt lat="46.5461191071705" lon="6.991136814748585"><ele></ele><time>2016-7-22T20:9:7Z</time></trkpt>
<trkpt lat="46.54601776926498" lon="6.991191881513823"><ele></ele><time>2016-7-22T20:9:10Z</time></trkpt>
<trkpt lat="46.54599664642923" lon="6.991227839434423"><ele></ele><time>2016-7-22T20:9:13Z</time></trkpt>
<trkpt lat="46.545935123263035" lon="6.991225910114245"><ele></ele><time>2016-7-22T20:9:16Z</time></trkpt>
<trkpt lat="46.54582716385792" lon="6.99126387760769"><ele></ele><time>2016-7-22T20:9:19Z</time></trkpt>
<trkpt lat="46.545776453154744" lon="6.991278209468504"><ele></ele><time>2016-7-22T20:9:22Z</time></trkpt>
<trkpt lat="46.545708810812016" lon="6.991308298928287"><ele></ele><time>2016-7-22T20:9:25Z</time></trkpt>
<trkpt lat="46.54566933195459" lon="6.991315003513697"><ele></ele><time>2016-7-22T20:9:28Z</time></trkpt>
<trkpt lat="46.545579644834305" lon="6.991375434987102"><ele></ele><time>2016-7-22T20:9:31Z</time></trkpt>
<trkpt lat="46.54547981582091" lon="6.99141818036965"><ele></ele><time>2016-7-22T20:9:34Z</time></trkpt>
<trkpt lat="46.545369592913495" lon="6.991488418193879"><ele></ele><time>2016-7-22T20:9:37Z</time></trkpt>
<trkpt lat="46.54534654249286" lon="6.991503337454054"><ele></ele><time>2016-7-22T20:9:40Z</time></trkpt>
<trkpt lat="46.545249479495595" lon="6.991547172552724"><ele></ele><time>2016-7-22T20:9:43Z</time></trkpt>
<trkpt lat="46.545211257845594" lon="6.991560415064641"><ele></ele><time>2016-7-22T20:9:46Z</time></trkpt>
<trkpt lat="46.545141268916794" lon="6.991561670670034"><ele></ele><time>2016-7-22T20:9:49Z</time></trkpt>
<trkpt lat="46.545090810181684" lon="6.991533590031344"><ele></ele><time>2016-7-22T20:9:52Z</time></trkpt>
<trkpt lat="46.545036411822736" lon="6.991516154333969"><ele></ele><time>2016-7-22T20:9:55Z</time></trkpt>
<trkpt lat="46.544929626539464" lon="6.9914998070266305"><ele></ele><time>2016-7-22T20:9:58Z</time></trkpt>
<trkpt lat="46.54492283729663" lon="6.991491424945256"><ele></ele><time>2016-7-22T20:10:1Z</time></trkpt>
<trkpt lat="46.54482937964726" lon="6.991441550285496"><ele></ele><time>2016-7-22T20:10:4Z</time></trkpt>
<trkpt lat="46.544824266798734" lon="6.991432078595044"><ele></ele><time>2016-7-22T20:10:7Z</time></trkpt>
<trkpt lat="46.544774394595485" lon="6.991420761806587"><ele></ele><time>2016-7-22T20:10:10Z</time></trkpt>
<trkpt lat="46.54470809357143" lon="6.991433165451648"><ele></ele><time>2016-7-22T20:10:13Z</time></trkpt>
<trkpt lat="46.54463123173458" lon="6.99141329845777"><ele></ele><time>2016-7-22T20:10:16Z</time></trkpt>
<trkpt lat="46.544584209543856" lon="6.9913883192110875"><ele></ele><time>2016-7-22T20:10:19Z</time></trkpt>
<trkpt lat="46.544524865680316" lon="6.9913858870281445"><ele></ele><time>2016-7-22T20:10:22Z</time></trkpt>
<trkpt lat="46.544489577848985" lon="6.991386556733257"><ele></ele><time>2016-7-22T20:10:25Z</time></trkpt>
<trkpt lat="46.54445655305559" lon="6.991393596750622"><ele></ele><time>2016-7-22T20:10:28Z</time></trkpt>
<trkpt lat="46.5444231930606" lon="6.991394434140446"><ele></ele><time>2016-7-22T20:10:31Z</time></trkpt>
<trkpt lat="46.544372063667595" lon="6.991375154499318"><ele></ele><time>2016-7-22T20:10:34Z</time></trkpt>
<trkpt lat="46.544337865675814" lon="6.991359898585969"><ele></ele><time>2016-7-22T20:10:37Z</time></trkpt>
<trkpt lat="46.544234851498416" lon="6.9914060804788996"><ele></ele><time>2016-7-22T20:10:40Z</time></trkpt>
<trkpt lat="46.54414583575043" lon="6.991398534612436"><ele></ele><time>2016-7-22T20:10:43Z</time></trkpt>
<trkpt lat="46.54406235231658" lon="6.991369698806547"><ele></ele><time>2016-7-22T20:10:46Z</time></trkpt>
<trkpt lat="46.544033183162625" lon="6.991379840226374"><ele></ele><time>2016-7-22T20:10:49Z</time></trkpt>
<trkpt lat="46.54397132423946" lon="6.99141797646734"><ele></ele><time>2016-7-22T20:10:52Z</time></trkpt>
<trkpt lat="46.543765883506026" lon="6.9914366632060565"><ele></ele><time>2016-7-22T20:10:55Z</time></trkpt>
<trkpt lat="46.54369555949498" lon="6.991421909339134"><ele></ele><time>2016-7-22T20:10:58Z</time></trkpt>
<trkpt lat="46.543654068811705" lon="6.991442695499047"><ele></ele><time>2016-7-22T20:11:1Z</time></trkpt>
<trkpt lat="46.5435361345304" lon="6.991514860980524"><ele></ele><time>2016-7-22T20:11:4Z</time></trkpt>
<trkpt lat="46.54346119961693" lon="6.9915711018510756"><ele></ele><time>2016-7-22T20:11:7Z</time></trkpt>
<trkpt lat="46.54343638904307" lon="6.991582165386838"><ele></ele><time>2016-7-22T20:11:10Z</time></trkpt>
<trkpt lat="46.54337218323426" lon="6.991616362070186"><ele></ele><time>2016-7-22T20:11:13Z</time></trkpt>
<trkpt lat="46.54335768238114" lon="6.9916293536950365"><ele></ele><time>2016-7-22T20:11:16Z</time></trkpt>
<trkpt lat="46.54328459128741" lon="6.991702190808503"><ele></ele><time>2016-7-22T20:11:19Z</time></trkpt>
<trkpt lat="46.54325600845762" lon="6.991746362831187"><ele></ele><time>2016-7-22T20:11:22Z</time></trkpt>
<trkpt lat="46.54324444103949" lon="6.991778632938836"><ele></ele><time>2016-7-22T20:11:25Z</time></trkpt>
<trkpt lat="46.54314620478084" lon="6.991805620354626"><ele></ele><time>2016-7-22T20:11:28Z</time></trkpt>
<trkpt lat="46.543064060805705" lon="6.991913661308096"><ele></ele><time>2016-7-22T20:11:31Z</time></trkpt>
<trkpt lat="46.543044027183925" lon="6.991985745324724"><ele></ele><time>2016-7-22T20:11:34Z</time></trkpt>
<trkpt lat="46.54302214955202" lon="6.9920570749244195"><ele></ele><time>2016-7-22T20:11:37Z</time></trkpt>
<trkpt lat="46.54305114939036" lon="6.99218632480301"><ele></ele><time>2016-7-22T20:11:40Z</time></trkpt>
<trkpt lat="46.54304963825652" lon="6.992385060051797"><ele></ele><time>2016-7-22T20:11:43Z</time></trkpt>
<trkpt lat="46.54301912686987" lon="6.992488995106756"><ele></ele><time>2016-7-22T20:11:46Z</time></trkpt>
<trkpt lat="46.54291552464551" lon="6.992644561023073"><ele></ele><time>2016-7-22T20:11:49Z</time></trkpt>
<trkpt lat="46.54279029701132" lon="6.992807921604438"><ele></ele><time>2016-7-22T20:11:52Z</time></trkpt>
<trkpt lat="46.54269918403256" lon="6.992946388708117"><ele></ele><time>2016-7-22T20:11:55Z</time></trkpt>
<trkpt lat="46.54265459041222" lon="6.993102961873432"><ele></ele><time>2016-7-22T20:11:58Z</time></trkpt>
<trkpt lat="46.542573116491276" lon="6.993252577160832"><ele></ele><time>2016-7-22T20:12:1Z</time></trkpt>
<trkpt lat="46.54243975905186" lon="6.993362544728116"><ele></ele><time>2016-7-22T20:12:4Z</time></trkpt>
<trkpt lat="46.54236172230011" lon="6.993463293514043"><ele></ele><time>2016-7-22T20:12:7Z</time></trkpt>
<trkpt lat="46.54226440721818" lon="6.993559683239599"><ele></ele><time>2016-7-22T20:12:10Z</time></trkpt>
<trkpt lat="46.54216566751476" lon="6.993630927175667"><ele></ele><time>2016-7-22T20:12:13Z</time></trkpt>
<trkpt lat="46.54217094672698" lon="6.993746430139492"><ele></ele><time>2016-7-22T20:12:16Z</time></trkpt>
<trkpt lat="46.542164827076654" lon="6.993817927757436"><ele></ele><time>2016-7-22T20:12:19Z</time></trkpt>
<trkpt lat="46.54214613513321" lon="6.993842402510667"><ele></ele><time>2016-7-22T20:12:22Z</time></trkpt>
<trkpt lat="46.54208679188084" lon="6.993789259722333"><ele></ele><time>2016-7-22T20:12:25Z</time></trkpt>
<trkpt lat="46.54204052557178" lon="6.993638719354685"><ele></ele><time>2016-7-22T20:12:28Z</time></trkpt>
<trkpt lat="46.54196349794383" lon="6.993465379429684"><ele></ele><time>2016-7-22T20:12:31Z</time></trkpt>
<trkpt lat="46.541919326732724" lon="6.99334635512563"><ele></ele><time>2016-7-22T20:12:34Z</time></trkpt>
<trkpt lat="46.54186945626344" lon="6.993190953158091"><ele></ele><time>2016-7-22T20:12:37Z</time></trkpt>
<trkpt lat="46.54188563425812" lon="6.993114678088021"><ele></ele><time>2016-7-22T20:12:40Z</time></trkpt>
<trkpt lat="46.54191170225228" lon="6.993092382810927"><ele></ele><time>2016-7-22T20:12:43Z</time></trkpt>
<trkpt lat="46.54196517956118" lon="6.993029854983357"><ele></ele><time>2016-7-22T20:12:46Z</time></trkpt>
<trkpt lat="46.541990912546254" lon="6.992985347614188"><ele></ele><time>2016-7-22T20:12:49Z</time></trkpt>
<trkpt lat="46.54200114038713" lon="6.99282600758882"><ele></ele><time>2016-7-22T20:12:52Z</time></trkpt>
<trkpt lat="46.54195118642704" lon="6.992643364383992"><ele></ele><time>2016-7-22T20:12:55Z</time></trkpt>
<trkpt lat="46.54190290860033" lon="6.992481340738805"><ele></ele><time>2016-7-22T20:12:58Z</time></trkpt>
<trkpt lat="46.54186502470975" lon="6.992288304244661"><ele></ele><time>2016-7-22T20:13:1Z</time></trkpt>
<trkpt lat="46.54181590898147" lon="6.99210230829196"><ele></ele><time>2016-7-22T20:13:4Z</time></trkpt>
<trkpt lat="46.54173167188042" lon="6.992015134314382"><ele></ele><time>2016-7-22T20:13:7Z</time></trkpt>
<trkpt lat="46.54158456938823" lon="6.992019405556871"><ele></ele><time>2016-7-22T20:13:10Z</time></trkpt>
<trkpt lat="46.54146537806449" lon="6.992071622044502"><ele></ele><time>2016-7-22T20:13:13Z</time></trkpt>
<trkpt lat="46.54139781959706" lon="6.992097352910635"><ele></ele><time>2016-7-22T20:13:16Z</time></trkpt>
<trkpt lat="46.541314670437686" lon="6.992152001021205"><ele></ele><time>2016-7-22T20:13:19Z</time></trkpt>
<trkpt lat="46.54118123006986" lon="6.992188040063792"><ele></ele><time>2016-7-22T20:13:22Z</time></trkpt>
<trkpt lat="46.54108399985526" lon="6.992197341656419"><ele></ele><time>2016-7-22T20:13:25Z</time></trkpt>
<trkpt lat="46.541070925241655" lon="6.992101033097212"><ele></ele><time>2016-7-22T20:13:28Z</time></trkpt>
<trkpt lat="46.54112918175359" lon="6.991912441328774"><ele></ele><time>2016-7-22T20:13:31Z</time></trkpt>
<trkpt lat="46.54114175750485" lon="6.991672048205401"><ele></ele><time>2016-7-22T20:13:34Z</time></trkpt>
<trkpt lat="46.54111845781763" lon="6.9915050798265055"><ele></ele><time>2016-7-22T20:13:37Z</time></trkpt>
<trkpt lat="46.54101620070398" lon="6.99132796742724"><ele></ele><time>2016-7-22T20:13:40Z</time></trkpt>
<trkpt lat="46.54088175609215" lon="6.991232410321652"><ele></ele><time>2016-7-22T20:13:43Z</time></trkpt>
<trkpt lat="46.540684781743096" lon="6.991196950068517"><ele></ele><time>2016-7-22T20:13:46Z</time></trkpt>
<trkpt lat="46.54033550823344" lon="6.991156624639225"><ele></ele><time>2016-7-22T20:13:49Z</time></trkpt>
<trkpt lat="46.54013568505843" lon="6.9910364231186515"><ele></ele><time>2016-7-22T20:13:52Z</time></trkpt>
<trkpt lat="46.53973251919351" lon="6.990722678201516"><ele></ele><time>2016-7-22T20:13:55Z</time></trkpt>
<trkpt lat="46.539456422190554" lon="6.9904773327958045"><ele></ele><time>2016-7-22T20:13:58Z</time></trkpt>
<trkpt lat="46.539403365653506" lon="6.990400720781314"><ele></ele><time>2016-7-22T20:14:1Z</time></trkpt>
<trkpt lat="46.5392243323174" lon="6.990055549056244"><ele></ele><time>2016-7-22T20:14:4Z</time></trkpt>
<trkpt lat="46.53907497026631" lon="6.9897651957929945"><ele></ele><time>2016-7-22T20:14:7Z</time></trkpt>
<trkpt lat="46.53903314500101" lon="6.989728565800819"><ele></ele><time>2016-7-22T20:14:10Z</time></trkpt>
<trkpt lat="46.538887048687116" lon="6.989704254719003"><ele></ele><time>2016-7-22T20:14:13Z</time></trkpt>
<trkpt lat="46.538856622429016" lon="6.989699476292755"><ele></ele><time>2016-7-22T20:14:16Z</time></trkpt>
<trkpt lat="46.53881219856312" lon="6.989680280629076"><ele></ele><time>2016-7-22T20:14:19Z</time></trkpt>
<trkpt lat="46.53879560245459" lon="6.989674999620642"><ele></ele><time>2016-7-22T20:14:22Z</time></trkpt>
<trkpt lat="46.538747658250216" lon="6.989650690901666"><ele></ele><time>2016-7-22T20:14:25Z</time></trkpt>
<trkpt lat="46.53868093868952" lon="6.989617161619854"><ele></ele><time>2016-7-22T20:14:28Z</time></trkpt>
<trkpt lat="46.53862159469517" lon="6.989625961205891"><ele></ele><time>2016-7-22T20:14:31Z</time></trkpt>
<trkpt lat="46.53860357370323" lon="6.989617327395564"><ele></ele><time>2016-7-22T20:14:34Z</time></trkpt>
<trkpt lat="46.538595611012596" lon="6.989607436539571"><ele></ele><time>2016-7-22T20:14:37Z</time></trkpt>
<trkpt lat="46.53857457245803" lon="6.989605172914938"><ele></ele><time>2016-7-22T20:14:40Z</time></trkpt>
<trkpt lat="46.53846175181218" lon="6.989622017855558"><ele></ele><time>2016-7-22T20:14:43Z</time></trkpt>
<trkpt lat="46.53839369166831" lon="6.989545237839736"><ele></ele><time>2016-7-22T20:14:46Z</time></trkpt>
<trkpt lat="46.538378269832954" lon="6.989473069146643"><ele></ele><time>2016-7-22T20:14:49Z</time></trkpt>
<trkpt lat="46.538366955155375" lon="6.989398888891889"><ele></ele><time>2016-7-22T20:14:52Z</time></trkpt>
<trkpt lat="46.53835287411264" lon="6.989352620360461"><ele></ele><time>2016-7-22T20:14:55Z</time></trkpt>
<trkpt lat="46.53832739397919" lon="6.989281457255349"><ele></ele><time>2016-7-22T20:14:58Z</time></trkpt>
<trkpt lat="46.538250785574064" lon="6.989098394301365"><ele></ele><time>2016-7-22T20:15:1Z</time></trkpt>
<trkpt lat="46.53823393856446" lon="6.989047012732659"><ele></ele><time>2016-7-22T20:15:4Z</time></trkpt>
<trkpt lat="46.53816713710499" lon="6.988854310807697"><ele></ele><time>2016-7-22T20:15:7Z</time></trkpt>
<trkpt lat="46.53809958012187" lon="6.98875716274"><ele></ele><time>2016-7-22T20:15:10Z</time></trkpt>
<trkpt lat="46.53801014538703" lon="6.988741234939587"><ele></ele><time>2016-7-22T20:15:13Z</time></trkpt>
<trkpt lat="46.53795599795994" lon="6.988767804318247"><ele></ele><time>2016-7-22T20:15:16Z</time></trkpt>
<trkpt lat="46.53793001396939" lon="6.988774844504224"><ele></ele><time>2016-7-22T20:15:19Z</time></trkpt>
<trkpt lat="46.537888942405196" lon="6.9887938704708565"><ele></ele><time>2016-7-22T20:15:22Z</time></trkpt>
<trkpt lat="46.53785751032602" lon="6.988788505285552"><ele></ele><time>2016-7-22T20:15:25Z</time></trkpt>
<trkpt lat="46.537771427623525" lon="6.98883309502077"><ele></ele><time>2016-7-22T20:15:28Z</time></trkpt>
<trkpt lat="46.537741336355005" lon="6.98885212125197"><ele></ele><time>2016-7-22T20:15:31Z</time></trkpt>
<trkpt lat="46.537646033299374" lon="6.988918084658626"><ele></ele><time>2016-7-22T20:15:34Z</time></trkpt>
<trkpt lat="46.53760336947971" lon="6.988911713372509"><ele></ele><time>2016-7-22T20:15:37Z</time></trkpt>
<trkpt lat="46.53757545763898" lon="6.988919759342394"><ele></ele><time>2016-7-22T20:15:40Z</time></trkpt>
<trkpt lat="46.53754084039761" lon="6.9889175792095894"><ele></ele><time>2016-7-22T20:15:43Z</time></trkpt>
<trkpt lat="46.537497003364045" lon="6.988890253097694"><ele></ele><time>2016-7-22T20:15:46Z</time></trkpt>
<trkpt lat="46.53743673691415" lon="6.988936100742919"><ele></ele><time>2016-7-22T20:15:49Z</time></trkpt>
<trkpt lat="46.53743036648845" lon="6.98895085276692"><ele></ele><time>2016-7-22T20:15:52Z</time></trkpt>
<trkpt lat="46.537406058309955" lon="6.989005083197388"><ele></ele><time>2016-7-22T20:15:55Z</time></trkpt>
<trkpt lat="46.53742231875784" lon="6.98904221549027"><ele></ele><time>2016-7-22T20:15:58Z</time></trkpt>
<trkpt lat="46.53749817450171" lon="6.989083372539679"><ele></ele><time>2016-7-22T20:16:1Z</time></trkpt>
<trkpt lat="46.53752130847965" lon="6.989089994812892"><ele></ele><time>2016-7-22T20:16:4Z</time></trkpt>
<trkpt lat="46.53753270792098" lon="6.989085804127957"><ele></ele><time>2016-7-22T20:16:7Z</time></trkpt>
<trkpt lat="46.53756824738722" lon="6.989070130795441"><ele></ele><time>2016-7-22T20:16:10Z</time></trkpt>
<trkpt lat="46.53756062002853" lon="6.989055629891867"><ele></ele><time>2016-7-22T20:16:13Z</time></trkpt>
<trkpt lat="46.53755257374948" lon="6.98902662825834"><ele></ele><time>2016-7-22T20:16:16Z</time></trkpt>
<trkpt lat="46.53760839688605" lon="6.98905571486182"><ele></ele><time>2016-7-22T20:16:19Z</time></trkpt>
<trkpt lat="46.53761350977837" lon="6.989061498509073"><ele></ele><time>2016-7-22T20:16:22Z</time></trkpt>
<trkpt lat="46.53766237589239" lon="6.989094021531714"><ele></ele><time>2016-7-22T20:16:25Z</time></trkpt>
<trkpt lat="46.53776941184819" lon="6.989174574351033"><ele></ele><time>2016-7-22T20:16:28Z</time></trkpt>
<trkpt lat="46.53781718856331" lon="6.989186477826626"><ele></ele><time>2016-7-22T20:16:31Z</time></trkpt>
<trkpt lat="46.53784074151433" lon="6.989203242231801"><ele></ele><time>2016-7-22T20:16:34Z</time></trkpt>
<trkpt lat="46.537931516731305" lon="6.989270802684754"><ele></ele><time>2016-7-22T20:16:37Z</time></trkpt>
<trkpt lat="46.53797132963221" lon="6.989366022242813"><ele></ele><time>2016-7-22T20:16:40Z</time></trkpt>
<trkpt lat="46.53796579729999" lon="6.989388820929136"><ele></ele><time>2016-7-22T20:16:43Z</time></trkpt>
<trkpt lat="46.537928748656185" lon="6.989440536476923"><ele></ele><time>2016-7-22T20:16:46Z</time></trkpt>
<trkpt lat="46.537897986960594" lon="6.989449169112704"><ele></ele><time>2016-7-22T20:16:49Z</time></trkpt>
<trkpt lat="46.537884911215" lon="6.9894469894989095"><ele></ele><time>2016-7-22T20:16:52Z</time></trkpt>
<trkpt lat="46.53779354886546" lon="6.989412537611901"><ele></ele><time>2016-7-22T20:16:55Z</time></trkpt>
<trkpt lat="46.5377518070906" lon="6.989403232676659"><ele></ele><time>2016-7-22T20:16:58Z</time></trkpt>
<trkpt lat="46.53774652650052" lon="6.9894023943576"><ele></ele><time>2016-7-22T20:17:1Z</time></trkpt>
<trkpt lat="46.53772272186096" lon="6.989404824540859"><ele></ele><time>2016-7-22T20:17:4Z</time></trkpt>
<trkpt lat="46.537673184644646" lon="6.989417899141559"><ele></ele><time>2016-7-22T20:17:7Z</time></trkpt>
<trkpt lat="46.537566482616896" lon="6.9894491611299125"><ele></ele><time>2016-7-22T20:17:10Z</time></trkpt>
<trkpt lat="46.5374638040927" lon="6.989464749026675"><ele></ele><time>2016-7-22T20:17:13Z</time></trkpt>
<trkpt lat="46.53735106773537" lon="6.989442785684038"><ele></ele><time>2016-7-22T20:17:16Z</time></trkpt>
<trkpt lat="46.53724495386736" lon="6.989355778809091"><ele></ele><time>2016-7-22T20:17:19Z</time></trkpt>
<trkpt lat="46.53712299817899" lon="6.989270447936143"><ele></ele><time>2016-7-22T20:17:22Z</time></trkpt>
<trkpt lat="46.53700657412766" lon="6.98921998597941"><ele></ele><time>2016-7-22T20:17:25Z</time></trkpt>
<trkpt lat="46.53688947935432" lon="6.989183605630377"><ele></ele><time>2016-7-22T20:17:28Z</time></trkpt>
<trkpt lat="46.53679484785795" lon="6.989166168959397"><ele></ele><time>2016-7-22T20:17:31Z</time></trkpt>
<trkpt lat="46.53677766493266" lon="6.98916784492934"><ele></ele><time>2016-7-22T20:17:34Z</time></trkpt>
<trkpt lat="46.536718655771175" lon="6.98921352496708"><ele></ele><time>2016-7-22T20:17:37Z</time></trkpt>
<trkpt lat="46.53670574757395" lon="6.989218805265205"><ele></ele><time>2016-7-22T20:17:40Z</time></trkpt>
<trkpt lat="46.536692755615256" lon="6.989219307867429"><ele></ele><time>2016-7-22T20:17:43Z</time></trkpt>
<trkpt lat="46.53663005858147" lon="6.9892512414691055"><ele></ele><time>2016-7-22T20:17:46Z</time></trkpt>
<trkpt lat="46.5365692056598" lon="6.98927546374966"><ele></ele><time>2016-7-22T20:17:49Z</time></trkpt>
<trkpt lat="46.53646652687208" lon="6.989313012274279"><ele></ele><time>2016-7-22T20:17:52Z</time></trkpt>
<trkpt lat="46.53645697137822" lon="6.989323154166276"><ele></ele><time>2016-7-22T20:17:55Z</time></trkpt>
<trkpt lat="46.536407434004026" lon="6.989349388380052"><ele></ele><time>2016-7-22T20:17:58Z</time></trkpt>
<trkpt lat="46.53638371333146" lon="6.9893395809633665"><ele></ele><time>2016-7-22T20:18:1Z</time></trkpt>
<trkpt lat="46.53636443490578" lon="6.98934326854347"><ele></ele><time>2016-7-22T20:18:4Z</time></trkpt>
<trkpt lat="46.53633434366919" lon="6.989359696380243"><ele></ele><time>2016-7-22T20:18:7Z</time></trkpt>
<trkpt lat="46.536249602252205" lon="6.989389450152255"><ele></ele><time>2016-7-22T20:18:10Z</time></trkpt>
<trkpt lat="46.5361646933468" lon="6.989406798679936"><ele></ele><time>2016-7-22T20:18:13Z</time></trkpt>
<trkpt lat="46.536094536642494" lon="6.989420124241736"><ele></ele><time>2016-7-22T20:18:16Z</time></trkpt>
<trkpt lat="46.53603242686606" lon="6.989408639516601"><ele></ele><time>2016-7-22T20:18:19Z</time></trkpt>
<trkpt lat="46.535977022834885" lon="6.989378798549939"><ele></ele><time>2016-7-22T20:18:22Z</time></trkpt>
<trkpt lat="46.53583369284046" lon="6.989330850520011"><ele></ele><time>2016-7-22T20:18:25Z</time></trkpt>
<trkpt lat="46.53571601107582" lon="6.989316011688519"><ele></ele><time>2016-7-22T20:18:28Z</time></trkpt>
<trkpt lat="46.53561559582294" lon="6.98931877530321"><ele></ele><time>2016-7-22T20:18:31Z</time></trkpt>
<trkpt lat="46.53558516952674" lon="6.989317265824886"><ele></ele><time>2016-7-22T20:18:34Z</time></trkpt>
<trkpt lat="46.53557251281512" lon="6.989320199191757"><ele></ele><time>2016-7-22T20:18:37Z</time></trkpt>
<trkpt lat="46.535544852052276" lon="6.989359761184264"><ele></ele><time>2016-7-22T20:18:40Z</time></trkpt>
<trkpt lat="46.53550956456464" lon="6.98933226763924"><ele></ele><time>2016-7-22T20:18:43Z</time></trkpt>
<trkpt lat="46.53548651429618" lon="6.9893347816598075"><ele></ele><time>2016-7-22T20:18:46Z</time></trkpt>
<trkpt lat="46.53536304872465" lon="6.989344250254679"><ele></ele><time>2016-7-22T20:18:49Z</time></trkpt>
<trkpt lat="46.5353089015582" lon="6.989349361921193"><ele></ele><time>2016-7-22T20:18:52Z</time></trkpt>
<trkpt lat="46.53525358100197" lon="6.989348103300813"><ele></ele><time>2016-7-22T20:18:55Z</time></trkpt>
<trkpt lat="46.53512374547528" lon="6.9893333479955295"><ele></ele><time>2016-7-22T20:18:58Z</time></trkpt>
<trkpt lat="46.53504101651319" lon="6.989297052292284"><ele></ele><time>2016-7-22T20:19:1Z</time></trkpt>
<trkpt lat="46.53500681845813" lon="6.989287412261338"><ele></ele><time>2016-7-22T20:19:4Z</time></trkpt>
<trkpt lat="46.5349765601217" lon="6.989259248283638"><ele></ele><time>2016-7-22T20:19:7Z</time></trkpt>
<trkpt lat="46.534922664511726" lon="6.989256145675218"><ele></ele><time>2016-7-22T20:19:10Z</time></trkpt>
<trkpt lat="46.53490992411459" lon="6.989248014906594"><ele></ele><time>2016-7-22T20:19:13Z</time></trkpt>
<trkpt lat="46.53486139332397" lon="6.989211720026931"><ele></ele><time>2016-7-22T20:19:16Z</time></trkpt>
<trkpt lat="46.53480456437394" lon="6.989181543748414"><ele></ele><time>2016-7-22T20:19:19Z</time></trkpt>
<trkpt lat="46.534693756160905" lon="6.989134518511603"><ele></ele><time>2016-7-22T20:19:22Z</time></trkpt>
<trkpt lat="46.53460222615999" lon="6.989101491544361"><ele></ele><time>2016-7-22T20:19:25Z</time></trkpt>
<trkpt lat="46.53451002546025" lon="6.989080618343915"><ele></ele><time>2016-7-22T20:19:28Z</time></trkpt>
<trkpt lat="46.53439594821387" lon="6.989041136755361"><ele></ele><time>2016-7-22T20:19:31Z</time></trkpt>
<trkpt lat="46.53427047147021" lon="6.9890105397265385"><ele></ele><time>2016-7-22T20:19:34Z</time></trkpt>
<trkpt lat="46.534147844487364" lon="6.988987151216912"><ele></ele><time>2016-7-22T20:19:37Z</time></trkpt>
<trkpt lat="46.534064444591905" lon="6.988982539151789"><ele></ele><time>2016-7-22T20:19:40Z</time></trkpt>
<trkpt lat="46.53395849740346" lon="6.988975411967555"><ele></ele><time>2016-7-22T20:19:43Z</time></trkpt>
<trkpt lat="46.533866045160416" lon="6.988961747211281"><ele></ele><time>2016-7-22T20:19:46Z</time></trkpt>
<trkpt lat="46.533749033866265" lon="6.9889539492068025"><ele></ele><time>2016-7-22T20:19:49Z</time></trkpt>
<trkpt lat="46.53362707724758" lon="6.988946234902304"><ele></ele><time>2016-7-22T20:19:52Z</time></trkpt>
<trkpt lat="46.533509898177186" lon="6.9889499201233365"><ele></ele><time>2016-7-22T20:19:55Z</time></trkpt>
<trkpt lat="46.53347754393459" lon="6.988957463071248"><ele></ele><time>2016-7-22T20:19:58Z</time></trkpt>
<trkpt lat="46.53342951569831" lon="6.988951091655163"><ele></ele><time>2016-7-22T20:20:1Z</time></trkpt>
<trkpt lat="46.53331845530932" lon="6.988963829496645"><ele></ele><time>2016-7-22T20:20:4Z</time></trkpt>
<trkpt lat="46.53321795618191" lon="6.988971454621732"><ele></ele><time>2016-7-22T20:20:7Z</time></trkpt>
<trkpt lat="46.533098849377204" lon="6.988966590238379"><ele></ele><time>2016-7-22T20:20:10Z</time></trkpt>
<trkpt lat="46.532957446615725" lon="6.9889692690452865"><ele></ele><time>2016-7-22T20:20:13Z</time></trkpt>
<trkpt lat="46.53286750827895" lon="6.989010841198944"><ele></ele><time>2016-7-22T20:20:16Z</time></trkpt>
<trkpt lat="46.53285376194344" lon="6.989011846698053"><ele></ele><time>2016-7-22T20:20:19Z</time></trkpt>
<trkpt lat="46.53277740275715" lon="6.989014862349099"><ele></ele><time>2016-7-22T20:20:22Z</time></trkpt>
<trkpt lat="46.5326546917514" lon="6.989008572952503"><ele></ele><time>2016-7-22T20:20:25Z</time></trkpt>
<trkpt lat="46.53255176173806" lon="6.989027345972036"><ele></ele><time>2016-7-22T20:20:28Z</time></trkpt>
<trkpt lat="46.53241396309537" lon="6.989038406785363"><ele></ele><time>2016-7-22T20:20:31Z</time></trkpt>
<trkpt lat="46.532271386791685" lon="6.989047455822858"><ele></ele><time>2016-7-22T20:20:34Z</time></trkpt>
<trkpt lat="46.53223039937305" lon="6.989039659649937"><ele></ele><time>2016-7-22T20:20:37Z</time></trkpt>
<trkpt lat="46.53219284859895" lon="6.989026582950464"><ele></ele><time>2016-7-22T20:20:40Z</time></trkpt>
<trkpt lat="46.532078771322716" lon="6.988989867393496"><ele></ele><time>2016-7-22T20:20:43Z</time></trkpt>
<trkpt lat="46.53196159273394" lon="6.988953822315215"><ele></ele><time>2016-7-22T20:20:46Z</time></trkpt>
<trkpt lat="46.53184743150351" lon="6.988928338528276"><ele></ele><time>2016-7-22T20:20:49Z</time></trkpt>
<trkpt lat="46.53177568251526" lon="6.9889189490491255"><ele></ele><time>2016-7-22T20:20:52Z</time></trkpt>
<trkpt lat="46.53163587297632" lon="6.988867061596899"><ele></ele><time>2016-7-22T20:20:55Z</time></trkpt>
<trkpt lat="46.53149489031485" lon="6.988786675589209"><ele></ele><time>2016-7-22T20:20:58Z</time></trkpt>
<trkpt lat="46.531376537755804" lon="6.988792456261213"><ele></ele><time>2016-7-22T20:21:1Z</time></trkpt>
<trkpt lat="46.53124720463735" lon="6.9888201972982165"><ele></ele><time>2016-7-22T20:21:4Z</time></trkpt>
<trkpt lat="46.53114150902114" lon="6.988803850007203"><ele></ele><time>2016-7-22T20:21:7Z</time></trkpt>
<trkpt lat="46.53097085354469" lon="6.988795966889318"><ele></ele><time>2016-7-22T20:21:10Z</time></trkpt>
<trkpt lat="46.530790976929296" lon="6.988874668780338"><ele></ele><time>2016-7-22T20:21:13Z</time></trkpt>
<trkpt lat="46.530511103833696" lon="6.98898345935368"><ele></ele><time>2016-7-22T20:21:16Z</time></trkpt>
<trkpt lat="46.530336172917075" lon="6.989031148261336"><ele></ele><time>2016-7-22T20:21:19Z</time></trkpt>
<trkpt lat="46.53020658812584" lon="6.98907691042049"><ele></ele><time>2016-7-22T20:21:22Z</time></trkpt>
<trkpt lat="46.52993333745365" lon="6.9891262733428485"><ele></ele><time>2016-7-22T20:21:25Z</time></trkpt>
<trkpt lat="46.529772991717905" lon="6.989118725750429"><ele></ele><time>2016-7-22T20:21:28Z</time></trkpt>
<trkpt lat="46.529653884800226" lon="6.989123668212519"><ele></ele><time>2016-7-22T20:21:31Z</time></trkpt>
<trkpt lat="46.52956193547155" lon="6.989110422562913"><ele></ele><time>2016-7-22T20:21:34Z</time></trkpt>
<trkpt lat="46.52941500207545" lon="6.988995754356784"><ele></ele><time>2016-7-22T20:21:37Z</time></trkpt>
<trkpt lat="46.52932900443901" lon="6.988937749397883"><ele></ele><time>2016-7-22T20:21:40Z</time></trkpt>
<trkpt lat="46.52928575394022" lon="6.988927270955401"><ele></ele><time>2016-7-22T20:21:43Z</time></trkpt>
<trkpt lat="46.52928206602884" lon="6.988916793466566"><ele></ele><time>2016-7-22T20:21:46Z</time></trkpt>
<trkpt lat="46.52926404508164" lon="6.988904639248236"><ele></ele><time>2016-7-22T20:21:49Z</time></trkpt>
<trkpt lat="46.52924803560233" lon="6.988908159268702"><ele></ele><time>2016-7-22T20:21:52Z</time></trkpt>
<trkpt lat="46.5291874342021" lon="6.988927520042984"><ele></ele><time>2016-7-22T20:21:55Z</time></trkpt>
<trkpt lat="46.52903546954076" lon="6.988988872034053"><ele></ele><time>2016-7-22T20:21:58Z</time></trkpt>
<trkpt lat="46.52893714941667" lon="6.989021140056024"><ele></ele><time>2016-7-22T20:22:1Z</time></trkpt>
<trkpt lat="46.528914266343286" lon="6.989060534528406"><ele></ele><time>2016-7-22T20:22:4Z</time></trkpt>
<trkpt lat="46.528925498027995" lon="6.989066066866329"><ele></ele><time>2016-7-22T20:22:7Z</time></trkpt>
<trkpt lat="46.528950977904096" lon="6.989158268600385"><ele></ele><time>2016-7-22T20:22:10Z</time></trkpt>
<trkpt lat="46.52887118298227" lon="6.989091546593917"><ele></ele><time>2016-7-22T20:22:13Z</time></trkpt>
<trkpt lat="46.52868401717829" lon="6.988916359954077"><ele></ele><time>2016-7-22T20:22:16Z</time></trkpt>
<trkpt lat="46.5284002928867" lon="6.988654501932018"><ele></ele><time>2016-7-22T20:22:19Z</time></trkpt>
<trkpt lat="46.52832074976984" lon="6.988559029944711"><ele></ele><time>2016-7-22T20:22:22Z</time></trkpt>
<trkpt lat="46.528273727787116" lon="6.988517705944999"><ele></ele><time>2016-7-22T20:22:25Z</time></trkpt>
<trkpt lat="46.528188819671286" lon="6.988470346049205"><ele></ele><time>2016-7-22T20:22:28Z</time></trkpt>
<trkpt lat="46.52810156491381" lon="6.988398846166868"><ele></ele><time>2016-7-22T20:22:31Z</time></trkpt>
<trkpt lat="46.52803266696526" lon="6.98829096919386"><ele></ele><time>2016-7-22T20:22:34Z</time></trkpt>
<trkpt lat="46.52797835288625" lon="6.98823640158418"><ele></ele><time>2016-7-22T20:22:37Z</time></trkpt>
<trkpt lat="46.52795111213044" lon="6.988200610128392"><ele></ele><time>2016-7-22T20:22:40Z</time></trkpt>
<trkpt lat="46.527883220434674" lon="6.988057612934019"><ele></ele><time>2016-7-22T20:22:43Z</time></trkpt>
<trkpt lat="46.5278810410759" lon="6.988062893491115"><ele></ele><time>2016-7-22T20:22:46Z</time></trkpt>
<trkpt lat="46.52788456155549" lon="6.988056271859152"><ele></ele><time>2016-7-22T20:22:49Z</time></trkpt>
<trkpt lat="46.52788514827561" lon="6.988057361522913"><ele></ele><time>2016-7-22T20:22:52Z</time></trkpt>
<trkpt lat="46.52787852673746" lon="6.988043615014235"><ele></ele><time>2016-7-22T20:22:55Z</time></trkpt>
<trkpt lat="46.527873665285796" lon="6.98803925629852"><ele></ele><time>2016-7-22T20:22:58Z</time></trkpt>
<trkpt lat="46.52785606345448" lon="6.988025425705783"><ele></ele><time>2016-7-22T20:23:1Z</time></trkpt>
<trkpt lat="46.52784391000342" lon="6.987999776737112"><ele></ele><time>2016-7-22T20:23:4Z</time></trkpt>
<trkpt lat="46.52784525195406" lon="6.987929703917397"><ele></ele><time>2016-7-22T20:23:7Z</time></trkpt>
<trkpt lat="46.52783217633978" lon="6.98791679544502"><ele></ele><time>2016-7-22T20:23:10Z</time></trkpt>
<trkpt lat="46.52777543025604" lon="6.9879659959472455"><ele></ele><time>2016-7-22T20:23:13Z</time></trkpt>
<trkpt lat="46.52773217792864" lon="6.988107062619545"><ele></ele><time>2016-7-22T20:23:16Z</time></trkpt>
<trkpt lat="46.527706109400945" lon="6.988173865894166"><ele></ele><time>2016-7-22T20:23:19Z</time></trkpt>
<trkpt lat="46.52766973031294" lon="6.988308478654015"><ele></ele><time>2016-7-22T20:23:22Z</time></trkpt>
<trkpt lat="46.527691856201265" lon="6.98850218536179"><ele></ele><time>2016-7-22T20:23:25Z</time></trkpt>
<trkpt lat="46.52774826340945" lon="6.988751213568899"><ele></ele><time>2016-7-22T20:23:28Z</time></trkpt>
<trkpt lat="46.5278095333401" lon="6.988899323574668"><ele></ele><time>2016-7-22T20:23:31Z</time></trkpt>
<trkpt lat="46.527820426932095" lon="6.98913829237992"><ele></ele><time>2016-7-22T20:23:34Z</time></trkpt>
<trkpt lat="46.52785914755094" lon="6.989451441848918"><ele></ele><time>2016-7-22T20:23:37Z</time></trkpt>
<trkpt lat="46.527853611253796" lon="6.989803063264637"><ele></ele><time>2016-7-22T20:23:40Z</time></trkpt>
<trkpt lat="46.52781127867317" lon="6.990131968790544"><ele></ele><time>2016-7-22T20:23:43Z</time></trkpt>
<trkpt lat="46.52773567053388" lon="6.990411168728993"><ele></ele><time>2016-7-22T20:23:46Z</time></trkpt>
<trkpt lat="46.52771044051909" lon="6.990451317518768"><ele></ele><time>2016-7-22T20:23:49Z</time></trkpt>
<trkpt lat="46.527581022616076" lon="6.990559692629129"><ele></ele><time>2016-7-22T20:23:52Z</time></trkpt>
<trkpt lat="46.527552523936635" lon="6.9905767910598495"><ele></ele><time>2016-7-22T20:23:55Z</time></trkpt>
<trkpt lat="46.52739930147235" lon="6.990681393733238"><ele></ele><time>2016-7-22T20:23:58Z</time></trkpt>
<trkpt lat="46.52737189226878" lon="6.9907127414546"><ele></ele><time>2016-7-22T20:24:1Z</time></trkpt>
<trkpt lat="46.527373233360265" lon="6.990713831136524"><ele></ele><time>2016-7-22T20:24:4Z</time></trkpt>
<trkpt lat="46.52742159682763" lon="6.990723639147946"><ele></ele><time>2016-7-22T20:24:7Z</time></trkpt>
<trkpt lat="46.52748923850333" lon="6.990747613068745"><ele></ele><time>2016-7-22T20:24:10Z</time></trkpt>
<trkpt lat="46.52750432561726" lon="6.990773597384641"><ele></ele><time>2016-7-22T20:24:13Z</time></trkpt>
<trkpt lat="46.52749166882214" lon="6.990783571564836"><ele></ele><time>2016-7-22T20:24:16Z</time></trkpt>
<trkpt lat="46.52748747726919" lon="6.990833443888946"><ele></ele><time>2016-7-22T20:24:19Z</time></trkpt>
<trkpt lat="46.52747163528798" lon="6.990848614782957"><ele></ele><time>2016-7-22T20:24:22Z</time></trkpt>
<trkpt lat="46.52741581087062" lon="6.990926397657906"><ele></ele><time>2016-7-22T20:24:25Z</time></trkpt>
<trkpt lat="46.527319082151315" lon="6.991054890165189"><ele></ele><time>2016-7-22T20:24:28Z</time></trkpt>
<trkpt lat="46.52731463960187" lon="6.991066540927293"><ele></ele><time>2016-7-22T20:24:31Z</time></trkpt>
<trkpt lat="46.52729686922235" lon="6.9911282314320795"><ele></ele><time>2016-7-22T20:24:34Z</time></trkpt>
<trkpt lat="46.52729016327913" lon="6.99116310005866"><ele></ele><time>2016-7-22T20:24:37Z</time></trkpt>
<trkpt lat="46.52729318013543" lon="6.991215319494177"><ele></ele><time>2016-7-22T20:24:40Z</time></trkpt>
<trkpt lat="46.52728119334539" lon="6.9912707236981255"><ele></ele><time>2016-7-22T20:24:43Z</time></trkpt>
<trkpt lat="46.52725638162449" lon="6.991377424945015"><ele></ele><time>2016-7-22T20:24:46Z</time></trkpt>
<trkpt lat="46.52725394809597" lon="6.991607927692266"><ele></ele><time>2016-7-22T20:24:49Z</time></trkpt>
<trkpt lat="46.527254114301584" lon="6.9917268671441075"><ele></ele><time>2016-7-22T20:24:52Z</time></trkpt>
<trkpt lat="46.5272599794934" lon="6.991904647813052"><ele></ele><time>2016-7-22T20:24:55Z</time></trkpt>
<trkpt lat="46.5272645036808" lon="6.992074130348716"><ele></ele><time>2016-7-22T20:24:58Z</time></trkpt>
<trkpt lat="46.52728696516597" lon="6.992241685474385"><ele></ele><time>2016-7-22T20:25:1Z</time></trkpt>
<trkpt lat="46.527334488177814" lon="6.992439667573363"><ele></ele><time>2016-7-22T20:25:4Z</time></trkpt>
<trkpt lat="46.527404726389726" lon="6.992617701248511"><ele></ele><time>2016-7-22T20:25:7Z</time></trkpt>
<trkpt lat="46.52749633810799" lon="6.992824736881376"><ele></ele><time>2016-7-22T20:25:10Z</time></trkpt>
<trkpt lat="46.527553583479" lon="6.993076782598621"><ele></ele><time>2016-7-22T20:25:13Z</time></trkpt>
<trkpt lat="46.527521981410004" lon="6.993267219065473"><ele></ele><time>2016-7-22T20:25:16Z</time></trkpt>
<trkpt lat="46.52749775554784" lon="6.993446759213644"><ele></ele><time>2016-7-22T20:25:19Z</time></trkpt>
<trkpt lat="46.52751351170542" lon="6.993598220890606"><ele></ele><time>2016-7-22T20:25:22Z</time></trkpt>
<trkpt lat="46.52754276257934" lon="6.9937620881338765"><ele></ele><time>2016-7-22T20:25:25Z</time></trkpt>
<trkpt lat="46.527590285517284" lon="6.993966440490861"><ele></ele><time>2016-7-22T20:25:28Z</time></trkpt>
<trkpt lat="46.527629510459356" lon="6.994163416558398"><ele></ele><time>2016-7-22T20:25:31Z</time></trkpt>
<trkpt lat="46.52761777350335" lon="6.994353937322428"><ele></ele><time>2016-7-22T20:25:34Z</time></trkpt>
<trkpt lat="46.52760176195395" lon="6.994529705804286"><ele></ele><time>2016-7-22T20:25:37Z</time></trkpt>
<trkpt lat="46.5276027674288" lon="6.994559126368365"><ele></ele><time>2016-7-22T20:25:40Z</time></trkpt>
<trkpt lat="46.52760360298382" lon="6.99477839742103"><ele></ele><time>2016-7-22T20:25:43Z</time></trkpt>
<trkpt lat="46.527596895472286" lon="6.994943856364781"><ele></ele><time>2016-7-22T20:25:46Z</time></trkpt>
<trkpt lat="46.52759345593471" lon="6.995189949459548"><ele></ele><time>2016-7-22T20:25:49Z</time></trkpt>
<trkpt lat="46.52759957209035" lon="6.995409220639242"><ele></ele><time>2016-7-22T20:25:52Z</time></trkpt>
<trkpt lat="46.527613314789384" lon="6.995710886277836"><ele></ele><time>2016-7-22T20:25:55Z</time></trkpt>
<trkpt lat="46.527619262190655" lon="6.996023196767939"><ele></ele><time>2016-7-22T20:25:58Z</time></trkpt>
<trkpt lat="46.52760559584892" lon="6.996342882877058"><ele></ele><time>2016-7-22T20:26:1Z</time></trkpt>
<trkpt lat="46.52755354104284" lon="6.996608001764333"><ele></ele><time>2016-7-22T20:26:4Z</time></trkpt>
<trkpt lat="46.527489501480794" lon="6.996759293887567"><ele></ele><time>2016-7-22T20:26:7Z</time></trkpt>
<trkpt lat="46.52738078648165" lon="6.996901364826669"><ele></ele><time>2016-7-22T20:26:10Z</time></trkpt>
<trkpt lat="46.52736469223634" lon="6.996983842535765"><ele></ele><time>2016-7-22T20:26:13Z</time></trkpt>
<trkpt lat="46.52736553030602" lon="6.996993900860186"><ele></ele><time>2016-7-22T20:26:16Z</time></trkpt>
<trkpt lat="46.527400231504004" lon="6.996984262484629"><ele></ele><time>2016-7-22T20:26:19Z</time></trkpt>
<trkpt lat="46.52738271346358" lon="6.996972695014287"><ele></ele><time>2016-7-22T20:26:22Z</time></trkpt>
<trkpt lat="46.527392268722416" lon="6.996981999175076"><ele></ele><time>2016-7-22T20:26:25Z</time></trkpt>
<trkpt lat="46.527405595899374" lon="6.996986190455021"><ele></ele><time>2016-7-22T20:26:28Z</time></trkpt>
<trkpt lat="46.527406014898006" lon="6.99699423710852"><ele></ele><time>2016-7-22T20:26:31Z</time></trkpt>
<trkpt lat="46.52741272028235" lon="6.9970058043193815"><ele></ele><time>2016-7-22T20:26:34Z</time></trkpt>
<trkpt lat="46.52743208258305" lon="6.996997255225364"><ele></ele><time>2016-7-22T20:26:37Z</time></trkpt>
<trkpt lat="46.527458150253004" lon="6.997001530630242"><ele></ele><time>2016-7-22T20:26:40Z</time></trkpt>
<trkpt lat="46.52754205301798" lon="6.997009327829479"><ele></ele><time>2016-7-22T20:26:43Z</time></trkpt>
<trkpt lat="46.52767641390351" lon="6.997095581012789"><ele></ele><time>2016-7-22T20:26:46Z</time></trkpt>
<trkpt lat="46.527696025809895" lon="6.997241343076037"><ele></ele><time>2016-7-22T20:26:49Z</time></trkpt>
<trkpt lat="46.52770482458976" lon="6.997426332266455"><ele></ele><time>2016-7-22T20:26:52Z</time></trkpt>
<trkpt lat="46.527772548505745" lon="6.997582069968813"><ele></ele><time>2016-7-22T20:26:55Z</time></trkpt>
<trkpt lat="46.52795191937114" lon="6.997738816179288"><ele></ele><time>2016-7-22T20:26:58Z</time></trkpt>
<trkpt lat="46.52810320933996" lon="6.998022212529426"><ele></ele><time>2016-7-22T20:27:1Z</time></trkpt>
<trkpt lat="46.52820160913758" lon="6.998335447246082"><ele></ele><time>2016-7-22T20:27:4Z</time></trkpt>
<trkpt lat="46.5283453553214" lon="6.998624962214995"><ele></ele><time>2016-7-22T20:27:7Z</time></trkpt>
<trkpt lat="46.52853444891505" lon="6.998805345669468"><ele></ele><time>2016-7-22T20:27:10Z</time></trkpt>
<trkpt lat="46.52863679079153" lon="6.998903165130489"><ele></ele><time>2016-7-22T20:27:13Z</time></trkpt>
<trkpt lat="46.528717591011045" lon="6.999014646604744"><ele></ele><time>2016-7-22T20:27:16Z</time></trkpt>
<trkpt lat="46.52884717266329" lon="6.999230400333935"><ele></ele><time>2016-7-22T20:27:19Z</time></trkpt>
<trkpt lat="46.5290154776098" lon="6.999538272292003"><ele></ele><time>2016-7-22T20:27:22Z</time></trkpt>
<trkpt lat="46.529172047647776" lon="6.999866512033379"><ele></ele><time>2016-7-22T20:27:25Z</time></trkpt>
<trkpt lat="46.52929802359132" lon="7.000206904824814"><ele></ele><time>2016-7-22T20:27:28Z</time></trkpt>
<trkpt lat="46.52938426954807" lon="7.000527431513338"><ele></ele><time>2016-7-22T20:27:31Z</time></trkpt>
<trkpt lat="46.5293884568214" lon="7.000834796622255"><ele></ele><time>2016-7-22T20:27:34Z</time></trkpt>
<trkpt lat="46.52936012212882" lon="7.00115708077054"><ele></ele><time>2016-7-22T20:27:37Z</time></trkpt>
<trkpt lat="46.52938819840115" lon="7.001416753326261"><ele></ele><time>2016-7-22T20:27:40Z</time></trkpt>
<trkpt lat="46.52946656437789" lon="7.001820344652684"><ele></ele><time>2016-7-22T20:27:43Z</time></trkpt>
<trkpt lat="46.52949807714022" lon="7.002087728656635"><ele></ele><time>2016-7-22T20:27:46Z</time></trkpt>
<trkpt lat="46.52949824097524" lon="7.00240582252702"><ele></ele><time>2016-7-22T20:27:49Z</time></trkpt>
<trkpt lat="46.529448784652594" lon="7.002664152120801"><ele></ele><time>2016-7-22T20:27:52Z</time></trkpt>
<trkpt lat="46.52943151628904" lon="7.0028014475587135"><ele></ele><time>2016-7-22T20:27:55Z</time></trkpt>
<trkpt lat="46.52943201870642" lon="7.002843021894315"><ele></ele><time>2016-7-22T20:27:58Z</time></trkpt>
<trkpt lat="46.52942765922977" lon="7.002917201782778"><ele></ele><time>2016-7-22T20:28:1Z</time></trkpt>
<trkpt lat="46.529413240845116" lon="7.003043516973667"><ele></ele><time>2016-7-22T20:28:4Z</time></trkpt>
<trkpt lat="46.52939756481345" lon="7.003200090866066"><ele></ele><time>2016-7-22T20:28:7Z</time></trkpt>
<trkpt lat="46.52935691160977" lon="7.003281143061459"><ele></ele><time>2016-7-22T20:28:10Z</time></trkpt>
<trkpt lat="46.529281725552806" lon="7.0033126572836375"><ele></ele><time>2016-7-22T20:28:13Z</time></trkpt>
<trkpt lat="46.52924099010541" lon="7.0032618618739875"><ele></ele><time>2016-7-22T20:28:16Z</time></trkpt>
<trkpt lat="46.52923294490853" lon="7.003142084043344"><ele></ele><time>2016-7-22T20:28:19Z</time></trkpt>
<trkpt lat="46.52923202415303" lon="7.0030371423816185"><ele></ele><time>2016-7-22T20:28:22Z</time></trkpt>
<trkpt lat="46.52919506088919" lon="7.002959022002435"><ele></ele><time>2016-7-22T20:28:25Z</time></trkpt>
<trkpt lat="46.529173772017586" lon="7.002861539762528"><ele></ele><time>2016-7-22T20:28:28Z</time></trkpt>
<trkpt lat="46.52915541720222" lon="7.0027314519235055"><ele></ele><time>2016-7-22T20:28:31Z</time></trkpt>
<trkpt lat="46.52914653386954" lon="7.002607147835836"><ele></ele><time>2016-7-22T20:28:34Z</time></trkpt>
<trkpt lat="46.529116863030985" lon="7.002514946004996"><ele></ele><time>2016-7-22T20:28:37Z</time></trkpt>
<trkpt lat="46.529077971829416" lon="7.002445207499461"><ele></ele><time>2016-7-22T20:28:40Z</time></trkpt>
<trkpt lat="46.52905760396666" lon="7.002431460663306"><ele></ele><time>2016-7-22T20:28:43Z</time></trkpt>
<trkpt lat="46.52902097505961" lon="7.002430286318384"><ele></ele><time>2016-7-22T20:28:46Z</time></trkpt>
<trkpt lat="46.528942352978206" lon="7.0024152808008235"><ele></ele><time>2016-7-22T20:28:49Z</time></trkpt>
<trkpt lat="46.528843781809755" lon="7.002413266782275"><ele></ele><time>2016-7-22T20:28:52Z</time></trkpt>
<trkpt lat="46.52870363706147" lon="7.0023556796386295"><ele></ele><time>2016-7-22T20:28:55Z</time></trkpt>
<trkpt lat="46.52856600620825" lon="7.002354670516042"><ele></ele><time>2016-7-22T20:28:58Z</time></trkpt>
<trkpt lat="46.528391746534716" lon="7.0023452785970255"><ele></ele><time>2016-7-22T20:29:1Z</time></trkpt>
<trkpt lat="46.52830264644459" lon="7.002382911287385"><ele></ele><time>2016-7-22T20:29:4Z</time></trkpt>
<trkpt lat="46.52826752601005" lon="7.00240436816302"><ele></ele><time>2016-7-22T20:29:7Z</time></trkpt>
<trkpt lat="46.528211031901584" lon="7.002410653251822"><ele></ele><time>2016-7-22T20:29:10Z</time></trkpt>
<trkpt lat="46.528143892924334" lon="7.0024044490248585"><ele></ele><time>2016-7-22T20:29:13Z</time></trkpt>
<trkpt lat="46.52807599925813" lon="7.00242481546696"><ele></ele><time>2016-7-22T20:29:16Z</time></trkpt>
<trkpt lat="46.52805102107789" lon="7.00243369970492"><ele></ele><time>2016-7-22T20:29:19Z</time></trkpt>
<trkpt lat="46.52800634509353" lon="7.002470159989301"><ele></ele><time>2016-7-22T20:29:22Z</time></trkpt>
<trkpt lat="46.52797256517161" lon="7.002541154045763"><ele></ele><time>2016-7-22T20:29:25Z</time></trkpt>
<trkpt lat="46.52795798020572" lon="7.002579039976425"><ele></ele><time>2016-7-22T20:29:28Z</time></trkpt>
<trkpt lat="46.52793912058801" lon="7.002606951319763"><ele></ele><time>2016-7-22T20:29:31Z</time></trkpt>
<trkpt lat="46.52790374833186" lon="7.002658918379301"><ele></ele><time>2016-7-22T20:29:34Z</time></trkpt>
<trkpt lat="46.52783392546344" lon="7.002793446529541"><ele></ele><time>2016-7-22T20:29:37Z</time></trkpt>
<trkpt lat="46.52782067976509" lon="7.002985056910066"><ele></ele><time>2016-7-22T20:29:40Z</time></trkpt>
<trkpt lat="46.5278040819815" lon="7.003120089248726"><ele></ele><time>2016-7-22T20:29:43Z</time></trkpt>
<trkpt lat="46.52777516355333" lon="7.003192005433207"><ele></ele><time>2016-7-22T20:29:46Z</time></trkpt>
<trkpt lat="46.52773669052181" lon="7.0031997158799575"><ele></ele><time>2016-7-22T20:29:49Z</time></trkpt>
<trkpt lat="46.52772034613553" lon="7.003172390429039"><ele></ele><time>2016-7-22T20:29:52Z</time></trkpt>
<trkpt lat="46.52772034612551" lon="7.003173228621065"><ele></ele><time>2016-7-22T20:29:55Z</time></trkpt>
<trkpt lat="46.52772545900182" lon="7.003180353375558"><ele></ele><time>2016-7-22T20:29:58Z</time></trkpt>
<trkpt lat="46.5277144785974" lon="7.00318957322532"><ele></ele><time>2016-7-22T20:30:1Z</time></trkpt>
<trkpt lat="46.52769947454558" lon="7.003226704773425"><ele></ele><time>2016-7-22T20:30:4Z</time></trkpt>
<trkpt lat="46.52775789544299" lon="7.003308178435377"><ele></ele><time>2016-7-22T20:30:7Z</time></trkpt>
<trkpt lat="46.527806257204524" lon="7.003460898179039"><ele></ele><time>2016-7-22T20:30:10Z</time></trkpt>
<trkpt lat="46.52774925783915" lon="7.003663320191201"><ele></ele><time>2016-7-22T20:30:13Z</time></trkpt>
<trkpt lat="46.527667782435536" lon="7.003939334878916"><ele></ele><time>2016-7-22T20:30:16Z</time></trkpt>
<trkpt lat="46.52764456117726" lon="7.004222727049271"><ele></ele><time>2016-7-22T20:30:19Z</time></trkpt>
<trkpt lat="46.52769141360173" lon="7.004425319182456"><ele></ele><time>2016-7-22T20:30:22Z</time></trkpt>
<trkpt lat="46.52780314131124" lon="7.004682562985597"><ele></ele><time>2016-7-22T20:30:25Z</time></trkpt>
<trkpt lat="46.52786198058566" lon="7.004824302663201"><ele></ele><time>2016-7-22T20:30:28Z</time></trkpt>
<trkpt lat="46.52786114190705" lon="7.0048652064141494"><ele></ele><time>2016-7-22T20:30:31Z</time></trkpt>
<trkpt lat="46.527849993201414" lon="7.004929998391642"><ele></ele><time>2016-7-22T20:30:34Z</time></trkpt>
<trkpt lat="46.52784739440202" lon="7.004964280383535"><ele></ele><time>2016-7-22T20:30:37Z</time></trkpt>
<trkpt lat="46.52783331158992" lon="7.005065952740252"><ele></ele><time>2016-7-22T20:30:40Z</time></trkpt>
<trkpt lat="46.527824174061266" lon="7.00517097798324"><ele></ele><time>2016-7-22T20:30:43Z</time></trkpt>
<trkpt lat="46.52781679740761" lon="7.005219425306353"><ele></ele><time>2016-7-22T20:30:46Z</time></trkpt>
<trkpt lat="46.52781076176864" lon="7.005275416389767"><ele></ele><time>2016-7-22T20:30:49Z</time></trkpt>
<trkpt lat="46.527787961577594" lon="7.005393768559855"><ele></ele><time>2016-7-22T20:30:52Z</time></trkpt>
<trkpt lat="46.52776532938976" lon="7.005481526724947"><ele></ele><time>2016-7-22T20:30:55Z</time></trkpt>
<trkpt lat="46.52776138910189" lon="7.005547995258848"><ele></ele><time>2016-7-22T20:30:58Z</time></trkpt>
<trkpt lat="46.527748311004956" lon="7.005743042232057"><ele></ele><time>2016-7-22T20:31:1Z</time></trkpt>
<trkpt lat="46.52776766964929" lon="7.006041019961072"><ele></ele><time>2016-7-22T20:31:4Z</time></trkpt>
<trkpt lat="46.527776803242965" lon="7.006265907100917"><ele></ele><time>2016-7-22T20:31:7Z</time></trkpt>
<trkpt lat="46.52783128211743" lon="7.006559610888594"><ele></ele><time>2016-7-22T20:31:10Z</time></trkpt>
<trkpt lat="46.52786723763213" lon="7.006798999390416"><ele></ele><time>2016-7-22T20:31:13Z</time></trkpt>
<trkpt lat="46.5278910403165" lon="7.006960351924128"><ele></ele><time>2016-7-22T20:31:16Z</time></trkpt>
<trkpt lat="46.52796815144531" lon="7.007160765478023"><ele></ele><time>2016-7-22T20:31:19Z</time></trkpt>
<trkpt lat="46.527981729937075" lon="7.0071769429080994"><ele></ele><time>2016-7-22T20:31:22Z</time></trkpt>
<trkpt lat="46.52798441215536" lon="7.007176188599258"><ele></ele><time>2016-7-22T20:31:25Z</time></trkpt>
<trkpt lat="46.52800092428459" lon="7.00719479685619"><ele></ele><time>2016-7-22T20:31:28Z</time></trkpt>
<trkpt lat="46.52800955741306" lon="7.007214326936403"><ele></ele><time>2016-7-22T20:31:31Z</time></trkpt>
<trkpt lat="46.52802104005829" lon="7.007261601240738"><ele></ele><time>2016-7-22T20:31:34Z</time></trkpt>
<trkpt lat="46.52800896938441" lon="7.007323040428548"><ele></ele><time>2016-7-22T20:31:37Z</time></trkpt>
<trkpt lat="46.52800737662189" lon="7.007339888050341"><ele></ele><time>2016-7-22T20:31:40Z</time></trkpt>
<trkpt lat="46.52800762812596" lon="7.007335948553802"><ele></ele><time>2016-7-22T20:31:43Z</time></trkpt>
<trkpt lat="46.528017099608626" lon="7.00734173230472"><ele></ele><time>2016-7-22T20:31:46Z</time></trkpt>
<trkpt lat="46.52797795539368" lon="7.007402416473983"><ele></ele><time>2016-7-22T20:31:49Z</time></trkpt>
<trkpt lat="46.527960520819555" lon="7.007420353367583"><ele></ele><time>2016-7-22T20:31:52Z</time></trkpt>
<trkpt lat="46.52791517427332" lon="7.0074577356505685"><ele></ele><time>2016-7-22T20:31:55Z</time></trkpt>
<trkpt lat="46.527882484238425" lon="7.007508864584763"><ele></ele><time>2016-7-22T20:31:58Z</time></trkpt>
<trkpt lat="46.52783344964249" lon="7.007547252610324"><ele></ele><time>2016-7-22T20:32:1Z</time></trkpt>
<trkpt lat="46.527827833407315" lon="7.007577427389512"><ele></ele><time>2016-7-22T20:32:4Z</time></trkpt>
<trkpt lat="46.527766475968726" lon="7.0077370176891325"><ele></ele><time>2016-7-22T20:32:7Z</time></trkpt>
<trkpt lat="46.5276421720496" lon="7.0077607355593905"><ele></ele><time>2016-7-22T20:32:10Z</time></trkpt>
<trkpt lat="46.527617445790206" lon="7.007730727694919"><ele></ele><time>2016-7-22T20:32:13Z</time></trkpt>
<trkpt lat="46.52762004440811" lon="7.007711616978512"><ele></ele><time>2016-7-22T20:32:16Z</time></trkpt>
<trkpt lat="46.52762775578176" lon="7.007709773139936"><ele></ele><time>2016-7-22T20:32:19Z</time></trkpt>
<trkpt lat="46.52762825905245" lon="7.007679849696326"><ele></ele><time>2016-7-22T20:32:22Z</time></trkpt>
<trkpt lat="46.52767377330046" lon="7.007637102988054"><ele></ele><time>2016-7-22T20:32:25Z</time></trkpt>
<trkpt lat="46.52769363855077" lon="7.007625536411757"><ele></ele><time>2016-7-22T20:32:28Z</time></trkpt>
<trkpt lat="46.52770344560912" lon="7.00760617440968"><ele></ele><time>2016-7-22T20:32:31Z</time></trkpt>
<trkpt lat="46.52771232975937" lon="7.0076622496685586"><ele></ele><time>2016-7-22T20:32:34Z</time></trkpt>
<trkpt lat="46.527734457895136" lon="7.0076698777437745"><ele></ele><time>2016-7-22T20:32:37Z</time></trkpt>
<trkpt lat="46.52774032540766" lon="7.007654790427116"><ele></ele><time>2016-7-22T20:32:40Z</time></trkpt>
<trkpt lat="46.5277289265534" lon="7.007609863062317"><ele></ele><time>2016-7-22T20:32:43Z</time></trkpt>
<trkpt lat="46.527709145220975" lon="7.007613131539484"><ele></ele><time>2016-7-22T20:32:46Z</time></trkpt>
<trkpt lat="46.527694895306176" lon="7.007670044438686"><ele></ele><time>2016-7-22T20:32:49Z</time></trkpt>
<trkpt lat="46.52767964004517" lon="7.00768647263873"><ele></ele><time>2016-7-22T20:32:52Z</time></trkpt>
<trkpt lat="46.5276628761263" lon="7.007695776170517"><ele></ele><time>2016-7-22T20:32:55Z</time></trkpt>
<trkpt lat="46.527648291259865" lon="7.007725447820692"><ele></ele><time>2016-7-22T20:32:58Z</time></trkpt>
<trkpt lat="46.52765172769674" lon="7.007737517867931"><ele></ele><time>2016-7-22T20:33:1Z</time></trkpt>
<trkpt lat="46.527643177770265" lon="7.007769788057339"><ele></ele><time>2016-7-22T20:33:4Z</time></trkpt>
<trkpt lat="46.5276362210615" lon="7.00774698906812"><ele></ele><time>2016-7-22T20:33:7Z</time></trkpt>
<trkpt lat="46.52761996027057" lon="7.007738355302395"><ele></ele><time>2016-7-22T20:33:10Z</time></trkpt>
<trkpt lat="46.527589534471225" lon="7.007695355325452"><ele></ele><time>2016-7-22T20:33:13Z</time></trkpt>
<trkpt lat="46.527541088464005" lon="7.007578007285219"><ele></ele><time>2016-7-22T20:33:16Z</time></trkpt>
<trkpt lat="46.52753103302332" lon="7.007339289953873"><ele></ele><time>2016-7-22T20:33:19Z</time></trkpt>
<trkpt lat="46.527522906840474" lon="7.006981465580453"><ele></ele><time>2016-7-22T20:33:22Z</time></trkpt>
<trkpt lat="46.52746356497923" lon="7.00681206555438"><ele></ele><time>2016-7-22T20:33:25Z</time></trkpt>
<trkpt lat="46.52741813606773" lon="7.006727490894038"><ele></ele><time>2016-7-22T20:33:28Z</time></trkpt>
<trkpt lat="46.52720742148463" lon="7.006183750691159"><ele></ele><time>2016-7-22T20:33:31Z</time></trkpt>
<trkpt lat="46.527075916316775" lon="7.005604808311101"><ele></ele><time>2016-7-22T20:33:34Z</time></trkpt>
<trkpt lat="46.52689629900648" lon="7.005027289706533"><ele></ele><time>2016-7-22T20:33:37Z</time></trkpt>
<trkpt lat="46.52681491393085" lon="7.004758228117492"><ele></ele><time>2016-7-22T20:33:40Z</time></trkpt>
<trkpt lat="46.52676101903716" lon="7.00469553006524"><ele></ele><time>2016-7-22T20:33:43Z</time></trkpt>
<trkpt lat="46.52653219410863" lon="7.004607765891237"><ele></ele><time>2016-7-22T20:33:46Z</time></trkpt>
<trkpt lat="46.52629607558465" lon="7.004632235457297"><ele></ele><time>2016-7-22T20:33:49Z</time></trkpt>
<trkpt lat="46.5260256747896" lon="7.004680592677686"><ele></ele><time>2016-7-22T20:33:52Z</time></trkpt>
<trkpt lat="46.525972197658895" lon="7.004729541815671"><ele></ele><time>2016-7-22T20:33:55Z</time></trkpt>
<trkpt lat="46.52585384216864" lon="7.004981583337782"><ele></ele><time>2016-7-22T20:33:58Z</time></trkpt>
<trkpt lat="46.525667427230786" lon="7.005098674314361"><ele></ele><time>2016-7-22T20:34:1Z</time></trkpt>
<trkpt lat="46.52549551426635" lon="7.005108560873904"><ele></ele><time>2016-7-22T20:34:4Z</time></trkpt>
<trkpt lat="46.5254049058297" lon="7.005113336404129"><ele></ele><time>2016-7-22T20:34:7Z</time></trkpt>
<trkpt lat="46.52504934430691" lon="7.005211061104524"><ele></ele><time>2016-7-22T20:34:10Z</time></trkpt>
<trkpt lat="46.5249656922757" lon="7.005264032844597"><ele></ele><time>2016-7-22T20:34:13Z</time></trkpt>
<trkpt lat="46.524466713453045" lon="7.005607344396345"><ele></ele><time>2016-7-22T20:34:16Z</time></trkpt>
<trkpt lat="46.524362441087675" lon="7.00573172960913"><ele></ele><time>2016-7-22T20:34:19Z</time></trkpt>
<trkpt lat="46.52433436091653" lon="7.005798281388911"><ele></ele><time>2016-7-22T20:34:22Z</time></trkpt>
<trkpt lat="46.524200918985976" lon="7.005968012096751"><ele></ele><time>2016-7-22T20:34:25Z</time></trkpt>
<trkpt lat="46.52392750009446" lon="7.006068253339903"><ele></ele><time>2016-7-22T20:34:28Z</time></trkpt>
<trkpt lat="46.523824232151185" lon="7.0063106560226664"><ele></ele><time>2016-7-22T20:34:31Z</time></trkpt>
<trkpt lat="46.52367494592193" lon="7.006690269650981"><ele></ele><time>2016-7-22T20:34:34Z</time></trkpt>
<trkpt lat="46.52362071402453" lon="7.006772578818698"><ele></ele><time>2016-7-22T20:34:37Z</time></trkpt>
<trkpt lat="46.523401941779625" lon="7.007155292101693"><ele></ele><time>2016-7-22T20:34:40Z</time></trkpt>
<trkpt lat="46.52320647462042" lon="7.0072533559109536"><ele></ele><time>2016-7-22T20:34:43Z</time></trkpt>
<trkpt lat="46.523074291649365" lon="7.0072829409372845"><ele></ele><time>2016-7-22T20:34:46Z</time></trkpt>
<trkpt lat="46.52297404348011" lon="7.0073335653471585"><ele></ele><time>2016-7-22T20:34:49Z</time></trkpt>
<trkpt lat="46.52297035415202" lon="7.007441859676913"><ele></ele><time>2016-7-22T20:34:52Z</time></trkpt>
<trkpt lat="46.52309013139628" lon="7.007455022150675"><ele></ele><time>2016-7-22T20:34:55Z</time></trkpt>
<trkpt lat="46.52329020691396" lon="7.007498612912965"><ele></ele><time>2016-7-22T20:34:58Z</time></trkpt>
<trkpt lat="46.52346815258091" lon="7.007678660817982"><ele></ele><time>2016-7-22T20:35:1Z</time></trkpt>
<trkpt lat="46.52367652495998" lon="7.007825014126235"><ele></ele><time>2016-7-22T20:35:4Z</time></trkpt>
<trkpt lat="46.52372572664612" lon="7.007832391390206"><ele></ele><time>2016-7-22T20:35:7Z</time></trkpt>
<trkpt lat="46.52390811800364" lon="7.007737093301726"><ele></ele><time>2016-7-22T20:35:10Z</time></trkpt>
<trkpt lat="46.524126300090145" lon="7.007641796067493"><ele></ele><time>2016-7-22T20:35:13Z</time></trkpt>
<trkpt lat="46.52419939008306" lon="7.007659148387045"><ele></ele><time>2016-7-22T20:35:16Z</time></trkpt>
<trkpt lat="46.52451697897142" lon="7.007780107078941"><ele></ele><time>2016-7-22T20:35:19Z</time></trkpt>
<trkpt lat="46.52471504256955" lon="7.007846077519104"><ele></ele><time>2016-7-22T20:35:22Z</time></trkpt>
<trkpt lat="46.524772207608045" lon="7.0078078573243126"><ele></ele><time>2016-7-22T20:35:25Z</time></trkpt>
<trkpt lat="46.524930460672145" lon="7.007579369941912"><ele></ele><time>2016-7-22T20:35:28Z</time></trkpt>
<trkpt lat="46.525117547180145" lon="7.007376531925573"><ele></ele><time>2016-7-22T20:35:31Z</time></trkpt>
<trkpt lat="46.52520061035906" lon="7.007501340705293"><ele></ele><time>2016-7-22T20:35:34Z</time></trkpt>
<trkpt lat="46.52519398584795" lon="7.0077369563359895"><ele></ele><time>2016-7-22T20:35:37Z</time></trkpt>
<trkpt lat="46.52518392420471" lon="7.008018923905907"><ele></ele><time>2016-7-22T20:35:40Z</time></trkpt>
<trkpt lat="46.525192385400565" lon="7.008399044208262"><ele></ele><time>2016-7-22T20:35:43Z</time></trkpt>
<trkpt lat="46.525305118742615" lon="7.008673135700441"><ele></ele><time>2016-7-22T20:35:46Z</time></trkpt>
<trkpt lat="46.525469232304594" lon="7.009018726199232"><ele></ele><time>2016-7-22T20:35:49Z</time></trkpt>
<trkpt lat="46.52574574403351" lon="7.009630277714781"><ele></ele><time>2016-7-22T20:35:52Z</time></trkpt>
<trkpt lat="46.52605041691932" lon="7.010413743087094"><ele></ele><time>2016-7-22T20:35:55Z</time></trkpt>
<trkpt lat="46.52626599415831" lon="7.010861929511335"><ele></ele><time>2016-7-22T20:35:58Z</time></trkpt>
<trkpt lat="46.5266202056641" lon="7.011514302815751"><ele></ele><time>2016-7-22T20:36:1Z</time></trkpt>
<trkpt lat="46.52672715642198" lon="7.0117109452153965"><ele></ele><time>2016-7-22T20:36:4Z</time></trkpt>
<trkpt lat="46.52688976167849" lon="7.012020744864878"><ele></ele><time>2016-7-22T20:36:7Z</time></trkpt>
<trkpt lat="46.52704549692436" lon="7.012065340386448"><ele></ele><time>2016-7-22T20:36:10Z</time></trkpt>
<trkpt lat="46.527110540407556" lon="7.012073053300516"><ele></ele><time>2016-7-22T20:36:13Z</time></trkpt>
<trkpt lat="46.527229982013665" lon="7.012117312681638"><ele></ele><time>2016-7-22T20:36:16Z</time></trkpt>
<trkpt lat="46.52728924111127" lon="7.012198451080944"><ele></ele><time>2016-7-22T20:36:19Z</time></trkpt>
<trkpt lat="46.52724766497737" lon="7.0123576227610105"><ele></ele><time>2016-7-22T20:36:22Z</time></trkpt>
<trkpt lat="46.527180608810966" lon="7.012436327399106"><ele></ele><time>2016-7-22T20:36:25Z</time></trkpt>
<trkpt lat="46.52714104580519" lon="7.0124716143432675"><ele></ele><time>2016-7-22T20:36:28Z</time></trkpt>
<trkpt lat="46.52700056318898" lon="7.012632124779124"><ele></ele><time>2016-7-22T20:36:31Z</time></trkpt>
<trkpt lat="46.526962087418" lon="7.012870673320723"><ele></ele><time>2016-7-22T20:36:34Z</time></trkpt>
<trkpt lat="46.52696635794612" lon="7.013228162330396"><ele></ele><time>2016-7-22T20:36:37Z</time></trkpt>
<trkpt lat="46.52699376446157" lon="7.013422874994458"><ele></ele><time>2016-7-22T20:36:40Z</time></trkpt>
<trkpt lat="46.527079425020034" lon="7.013633598510989"><ele></ele><time>2016-7-22T20:36:43Z</time></trkpt>
<trkpt lat="46.52736113280714" lon="7.014308601258639"><ele></ele><time>2016-7-22T20:36:46Z</time></trkpt>
<trkpt lat="46.52751895818868" lon="7.014803808866492"><ele></ele><time>2016-7-22T20:36:49Z</time></trkpt>
<trkpt lat="46.52754385078544" lon="7.014943703709518"><ele></ele><time>2016-7-22T20:36:52Z</time></trkpt>
<trkpt lat="46.52769404593921" lon="7.0156666479114795"><ele></ele><time>2016-7-22T20:36:55Z</time></trkpt>
<trkpt lat="46.52796829261109" lon="7.016445921559226"><ele></ele><time>2016-7-22T20:36:58Z</time></trkpt>
<trkpt lat="46.5282026437884" lon="7.017025536912332"><ele></ele><time>2016-7-22T20:37:1Z</time></trkpt>
<trkpt lat="46.52826617749072" lon="7.017121092311222"><ele></ele><time>2016-7-22T20:37:4Z</time></trkpt>
<trkpt lat="46.52842459296035" lon="7.017333913025518"><ele></ele><time>2016-7-22T20:37:7Z</time></trkpt>
<trkpt lat="46.52848041500387" lon="7.01745545219405"><ele></ele><time>2016-7-22T20:37:10Z</time></trkpt>
<trkpt lat="46.52847974376529" lon="7.01751345506688"><ele></ele><time>2016-7-22T20:37:13Z</time></trkpt>
<trkpt lat="46.528411010315835" lon="7.017668602782928"><ele></ele><time>2016-7-22T20:37:16Z</time></trkpt>
<trkpt lat="46.52829936191411" lon="7.017790221800538"><ele></ele><time>2016-7-22T20:37:19Z</time></trkpt>
<trkpt lat="46.52822140919747" lon="7.017875464082822"><ele></ele><time>2016-7-22T20:37:22Z</time></trkpt>
<trkpt lat="46.527928541857705" lon="7.018180726681802"><ele></ele><time>2016-7-22T20:37:25Z</time></trkpt>
<trkpt lat="46.52771270384939" lon="7.0185171718526265"><ele></ele><time>2016-7-22T20:37:28Z</time></trkpt>
<trkpt lat="46.52772954960463" lon="7.018675506728894"><ele></ele><time>2016-7-22T20:37:31Z</time></trkpt>
<trkpt lat="46.52782443122388" lon="7.018805344924471"><ele></ele><time>2016-7-22T20:37:34Z</time></trkpt>
<trkpt lat="46.52788092432803" lon="7.018883968676481"><ele></ele><time>2016-7-22T20:37:37Z</time></trkpt>
<trkpt lat="46.52812533508441" lon="7.019355038393069"><ele></ele><time>2016-7-22T20:37:40Z</time></trkpt>
<trkpt lat="46.528200937542124" lon="7.01955117712079"><ele></ele><time>2016-7-22T20:37:43Z</time></trkpt>
<trkpt lat="46.52820663661899" lon="7.019603480438995"><ele></ele><time>2016-7-22T20:37:46Z</time></trkpt>
<trkpt lat="46.52817193488634" lon="7.019658465015055"><ele></ele><time>2016-7-22T20:37:49Z</time></trkpt>
<trkpt lat="46.528022988460194" lon="7.0196576232960135"><ele></ele><time>2016-7-22T20:37:52Z</time></trkpt>
<trkpt lat="46.52781637385198" lon="7.019714531643161"><ele></ele><time>2016-7-22T20:37:55Z</time></trkpt>
<trkpt lat="46.52773632629279" lon="7.019746297226174"><ele></ele><time>2016-7-22T20:37:58Z</time></trkpt>
<trkpt lat="46.52748402936177" lon="7.019883335651784"><ele></ele><time>2016-7-22T20:38:1Z</time></trkpt>
<trkpt lat="46.52744396221697" lon="7.020022474583144"><ele></ele><time>2016-7-22T20:38:4Z</time></trkpt>
<trkpt lat="46.527608749809104" lon="7.020076793329232"><ele></ele><time>2016-7-22T20:38:7Z</time></trkpt>
<trkpt lat="46.5276670873882" lon="7.020116860290155"><ele></ele><time>2016-7-22T20:38:10Z</time></trkpt>
<trkpt lat="46.52770899637992" lon="7.020161620737549"><ele></ele><time>2016-7-22T20:38:13Z</time></trkpt>
<trkpt lat="46.52780949313718" lon="7.020354072010069"><ele></ele><time>2016-7-22T20:38:16Z</time></trkpt>
<trkpt lat="46.5278547527501" lon="7.020580133475717"><ele></ele><time>2016-7-22T20:38:19Z</time></trkpt>
<trkpt lat="46.52766783443971" lon="7.0207367871453705"><ele></ele><time>2016-7-22T20:38:22Z</time></trkpt>
<trkpt lat="46.527451413431564" lon="7.020757569186467"><ele></ele><time>2016-7-22T20:38:25Z</time></trkpt>
<trkpt lat="46.527374048536416" lon="7.020750861819177"><ele></ele><time>2016-7-22T20:38:28Z</time></trkpt>
<trkpt lat="46.527234574295576" lon="7.020696459854236"><ele></ele><time>2016-7-22T20:38:31Z</time></trkpt>
<trkpt lat="46.52716249056721" lon="7.020641724207206"><ele></ele><time>2016-7-22T20:38:34Z</time></trkpt>
<trkpt lat="46.52708789216186" lon="7.020595957155514"><ele></ele><time>2016-7-22T20:38:37Z</time></trkpt>
<trkpt lat="46.52693031314261" lon="7.0205302391687034"><ele></ele><time>2016-7-22T20:38:40Z</time></trkpt>
<trkpt lat="46.52685839486261" lon="7.020660995427167"><ele></ele><time>2016-7-22T20:38:43Z</time></trkpt>
<trkpt lat="46.52685302724307" lon="7.020932150430359"><ele></ele><time>2016-7-22T20:38:46Z</time></trkpt>
<trkpt lat="46.52685730097825" lon="7.021019909239808"><ele></ele><time>2016-7-22T20:38:49Z</time></trkpt>
<trkpt lat="46.5268879768207" lon="7.021183105959044"><ele></ele><time>2016-7-22T20:38:52Z</time></trkpt>
<trkpt lat="46.526922340618086" lon="7.021353343578692"><ele></ele><time>2016-7-22T20:38:55Z</time></trkpt>
<trkpt lat="46.52699928253392" lon="7.021689208955576"><ele></ele><time>2016-7-22T20:38:58Z</time></trkpt>
<trkpt lat="46.52707630941963" lon="7.021927592597883"><ele></ele><time>2016-7-22T20:39:1Z</time></trkpt>
<trkpt lat="46.52705962735847" lon="7.022103277258116"><ele></ele><time>2016-7-22T20:39:4Z</time></trkpt>
<trkpt lat="46.527025175525644" lon="7.022290444729467"><ele></ele><time>2016-7-22T20:39:7Z</time></trkpt>
<trkpt lat="46.52702969992626" lon="7.022445426547573"><ele></ele><time>2016-7-22T20:39:10Z</time></trkpt>
<trkpt lat="46.52705920345156" lon="7.022511309140684"><ele></ele><time>2016-7-22T20:39:13Z</time></trkpt>
<trkpt lat="46.52711787455516" lon="7.022699987559354"><ele></ele><time>2016-7-22T20:39:16Z</time></trkpt>
<trkpt lat="46.5271443596802" lon="7.022843486665234"><ele></ele><time>2016-7-22T20:39:19Z</time></trkpt>
<trkpt lat="46.52724359605561" lon="7.023298962573015"><ele></ele><time>2016-7-22T20:39:22Z</time></trkpt>
<trkpt lat="46.527436540743764" lon="7.023871284665599"><ele></ele><time>2016-7-22T20:39:25Z</time></trkpt>
<trkpt lat="46.527469648466074" lon="7.023939095184683"><ele></ele><time>2016-7-22T20:39:28Z</time></trkpt>
<trkpt lat="46.52760350546701" lon="7.024109502790387"><ele></ele><time>2016-7-22T20:39:31Z</time></trkpt>
<trkpt lat="46.527764855419825" lon="7.024253927091184"><ele></ele><time>2016-7-22T20:39:34Z</time></trkpt>
<trkpt lat="46.52787801016184" lon="7.024335737307271"><ele></ele><time>2016-7-22T20:39:37Z</time></trkpt>
<trkpt lat="46.52821227688142" lon="7.0246429425848085"><ele></ele><time>2016-7-22T20:39:40Z</time></trkpt>
<trkpt lat="46.52848778670462" lon="7.0249289402137824"><ele></ele><time>2016-7-22T20:39:43Z</time></trkpt>
<trkpt lat="46.52865022521991" lon="7.025165817118442"><ele></ele><time>2016-7-22T20:39:46Z</time></trkpt>
<trkpt lat="46.52866070194322" lon="7.025221640955531"><ele></ele><time>2016-7-22T20:39:49Z</time></trkpt>
<trkpt lat="46.528671847465326" lon="7.025426495353008"><ele></ele><time>2016-7-22T20:39:52Z</time></trkpt>
<trkpt lat="46.528675869852314" lon="7.025505285499643"><ele></ele><time>2016-7-22T20:39:55Z</time></trkpt>
<trkpt lat="46.52871031286173" lon="7.026067796990034"><ele></ele><time>2016-7-22T20:39:58Z</time></trkpt>
<trkpt lat="46.5286127443259" lon="7.026337441068121"><ele></ele><time>2016-7-22T20:40:1Z</time></trkpt>
<trkpt lat="46.528575276064004" lon="7.026435257195694"><ele></ele><time>2016-7-22T20:40:4Z</time></trkpt>
<trkpt lat="46.52854585429029" lon="7.026544975840128"><ele></ele><time>2016-7-22T20:40:7Z</time></trkpt>
<trkpt lat="46.52850042178593" lon="7.026764748722345"><ele></ele><time>2016-7-22T20:40:10Z</time></trkpt>
<trkpt lat="46.52840570256731" lon="7.027079655239927"><ele></ele><time>2016-7-22T20:40:13Z</time></trkpt>
<trkpt lat="46.52834929114456" lon="7.027182416254752"><ele></ele><time>2016-7-22T20:40:16Z</time></trkpt>
<trkpt lat="46.52806388174062" lon="7.027656239491694"><ele></ele><time>2016-7-22T20:40:19Z</time></trkpt>
<trkpt lat="46.5277855138851" lon="7.028066527940864"><ele></ele><time>2016-7-22T20:40:22Z</time></trkpt>
<trkpt lat="46.527746453087765" lon="7.02816224855297"><ele></ele><time>2016-7-22T20:40:25Z</time></trkpt>
<trkpt lat="46.52769682974092" lon="7.02837296886613"><ele></ele><time>2016-7-22T20:40:28Z</time></trkpt>
<trkpt lat="46.52768266302287" lon="7.028483693702743"><ele></ele><time>2016-7-22T20:40:31Z</time></trkpt>
<trkpt lat="46.527596154635006" lon="7.029091716181974"><ele></ele><time>2016-7-22T20:40:34Z</time></trkpt>
<trkpt lat="46.52751828110028" lon="7.029572836588897"><ele></ele><time>2016-7-22T20:40:37Z</time></trkpt>
<trkpt lat="46.527490284341894" lon="7.029675011541631"><ele></ele><time>2016-7-22T20:40:40Z</time></trkpt>
<trkpt lat="46.52740830508721" lon="7.0300358512931345"><ele></ele><time>2016-7-22T20:40:43Z</time></trkpt>
<trkpt lat="46.527388267633995" lon="7.030436841902756"><ele></ele><time>2016-7-22T20:40:46Z</time></trkpt>
<trkpt lat="46.52739497210468" lon="7.030526612430085"><ele></ele><time>2016-7-22T20:40:49Z</time></trkpt>
<trkpt lat="46.52746831092748" lon="7.030768684022199"><ele></ele><time>2016-7-22T20:40:52Z</time></trkpt>
<trkpt lat="46.527612139106495" lon="7.031220472924659"><ele></ele><time>2016-7-22T20:40:55Z</time></trkpt>
<trkpt lat="46.52766050162257" lon="7.031311836996275"><ele></ele><time>2016-7-22T20:40:58Z</time></trkpt>
<trkpt lat="46.52779930288471" lon="7.031573859096997"><ele></ele><time>2016-7-22T20:41:1Z</time></trkpt>
<trkpt lat="46.527858478333464" lon="7.031641670225624"><ele></ele><time>2016-7-22T20:41:4Z</time></trkpt>
<trkpt lat="46.52797087738114" lon="7.031836887797655"><ele></ele><time>2016-7-22T20:41:7Z</time></trkpt>
<trkpt lat="46.52796936529953" lon="7.032121956879741"><ele></ele><time>2016-7-22T20:41:10Z</time></trkpt>
<trkpt lat="46.52788227370442" lon="7.032430325689906"><ele></ele><time>2016-7-22T20:41:13Z</time></trkpt>
<trkpt lat="46.52787062179286" lon="7.03252126925414"><ele></ele><time>2016-7-22T20:41:16Z</time></trkpt>
<trkpt lat="46.527808844750304" lon="7.032727043952356"><ele></ele><time>2016-7-22T20:41:19Z</time></trkpt>
<trkpt lat="46.52772519074507" lon="7.032949330520542"><ele></ele><time>2016-7-22T20:41:22Z</time></trkpt>
<trkpt lat="46.52763164621513" lon="7.033161223275432"><ele></ele><time>2016-7-22T20:41:25Z</time></trkpt>
<trkpt lat="46.52745059364563" lon="7.033455256797591"><ele></ele><time>2016-7-22T20:41:28Z</time></trkpt>
<trkpt lat="46.52718781877943" lon="7.033640993987394"><ele></ele><time>2016-7-22T20:41:31Z</time></trkpt>
<trkpt lat="46.52714155042381" lon="7.033661947702442"><ele></ele><time>2016-7-22T20:41:34Z</time></trkpt>
<trkpt lat="46.52710181971807" lon="7.033703018180626"><ele></ele><time>2016-7-22T20:41:37Z</time></trkpt>
<trkpt lat="46.52706963214062" lon="7.033794128902367"><ele></ele><time>2016-7-22T20:41:40Z</time></trkpt>
<trkpt lat="46.52728974095522" lon="7.033792960602177"><ele></ele><time>2016-7-22T20:41:43Z</time></trkpt>
<trkpt lat="46.527378337626516" lon="7.033797656558175"><ele></ele><time>2016-7-22T20:41:46Z</time></trkpt>
<trkpt lat="46.52768436100139" lon="7.0337928860494"><ele></ele><time>2016-7-22T20:41:49Z</time></trkpt>
<trkpt lat="46.52772258264992" lon="7.033778721501108"><ele></ele><time>2016-7-22T20:41:52Z</time></trkpt>
<trkpt lat="46.527984517065164" lon="7.033786355199406"><ele></ele><time>2016-7-22T20:41:55Z</time></trkpt>
<trkpt lat="46.52823077707046" lon="7.033815362426828"><ele></ele><time>2016-7-22T20:41:58Z</time></trkpt>
<trkpt lat="46.52828827646454" lon="7.033855429357017"><ele></ele><time>2016-7-22T20:42:1Z</time></trkpt>
<trkpt lat="46.528279388293384" lon="7.034142090830274"><ele></ele><time>2016-7-22T20:42:4Z</time></trkpt>
<trkpt lat="46.528225825960384" lon="7.034310147079562"><ele></ele><time>2016-7-22T20:42:7Z</time></trkpt>
<trkpt lat="46.528202020544896" lon="7.034379213545995"><ele></ele><time>2016-7-22T20:42:10Z</time></trkpt>
<trkpt lat="46.5280754525952" lon="7.034481553825094"><ele></ele><time>2016-7-22T20:42:13Z</time></trkpt>
<trkpt lat="46.527811339877225" lon="7.034389011222768"><ele></ele><time>2016-7-22T20:42:16Z</time></trkpt>
<trkpt lat="46.52762677095887" lon="7.034336787524999"><ele></ele><time>2016-7-22T20:42:19Z</time></trkpt>
<trkpt lat="46.527434154639714" lon="7.034350696991736"><ele></ele><time>2016-7-22T20:42:22Z</time></trkpt>
<trkpt lat="46.527340109107314" lon="7.034399309923804"><ele></ele><time>2016-7-22T20:42:25Z</time></trkpt>
<trkpt lat="46.52714271423424" lon="7.03448756691478"><ele></ele><time>2016-7-22T20:42:28Z</time></trkpt>
<trkpt lat="46.52708797983227" lon="7.034536180769901"><ele></ele><time>2016-7-22T20:42:31Z</time></trkpt>
<trkpt lat="46.52693810863024" lon="7.034772044500293"><ele></ele><time>2016-7-22T20:42:34Z</time></trkpt>
<trkpt lat="46.52688396010842" lon="7.0348936648987985"><ele></ele><time>2016-7-22T20:42:37Z</time></trkpt>
<trkpt lat="46.526883372251376" lon="7.034989805515419"><ele></ele><time>2016-7-22T20:42:40Z</time></trkpt>
<trkpt lat="46.5269039041723" lon="7.035310163006326"><ele></ele><time>2016-7-22T20:42:43Z</time></trkpt>
<trkpt lat="46.52691882284397" lon="7.035405801071515"><ele></ele><time>2016-7-22T20:42:46Z</time></trkpt>
<trkpt lat="46.52690675032552" lon="7.035626329121957"><ele></ele><time>2016-7-22T20:42:49Z</time></trkpt>
<trkpt lat="46.526875820154615" lon="7.035707213931248"><ele></ele><time>2016-7-22T20:42:52Z</time></trkpt>
<trkpt lat="46.52670130647748" lon="7.035915668206354"><ele></ele><time>2016-7-22T20:42:55Z</time></trkpt>
<trkpt lat="46.52655822516919" lon="7.036104593344252"><ele></ele><time>2016-7-22T20:42:58Z</time></trkpt>
<trkpt lat="46.52648245112123" lon="7.036244653463144"><ele></ele><time>2016-7-22T20:43:1Z</time></trkpt>
<trkpt lat="46.52645185623978" lon="7.036324448631385"><ele></ele><time>2016-7-22T20:43:4Z</time></trkpt>
<trkpt lat="46.52638194804817" lon="7.036590992072751"><ele></ele><time>2016-7-22T20:43:7Z</time></trkpt>
<trkpt lat="46.52637909601864" lon="7.0367779088391815"><ele></ele><time>2016-7-22T20:43:10Z</time></trkpt>
<trkpt lat="46.526393760881284" lon="7.037075132093674"><ele></ele><time>2016-7-22T20:43:13Z</time></trkpt>
<trkpt lat="46.526379175179756" lon="7.037176972089297"><ele></ele><time>2016-7-22T20:43:16Z</time></trkpt>
<trkpt lat="46.52634958433554" lon="7.037410324070453"><ele></ele><time>2016-7-22T20:43:19Z</time></trkpt>
<trkpt lat="46.52625536955378" lon="7.037597238696518"><ele></ele><time>2016-7-22T20:43:22Z</time></trkpt>
<trkpt lat="46.52621563843607" lon="7.037673764702541"><ele></ele><time>2016-7-22T20:43:25Z</time></trkpt>
<trkpt lat="46.52620625075643" lon="7.037669238245358"><ele></ele><time>2016-7-22T20:43:28Z</time></trkpt>
<trkpt lat="46.52619334303501" lon="7.037634033875548"><ele></ele><time>2016-7-22T20:43:31Z</time></trkpt>
<trkpt lat="46.526132573854724" lon="7.037666302846853"><ele></ele><time>2016-7-22T20:43:34Z</time></trkpt>
<trkpt lat="46.52605470575955" lon="7.03768407069457"><ele></ele><time>2016-7-22T20:43:37Z</time></trkpt>
<trkpt lat="46.52595781081094" lon="7.037695970751937"><ele></ele><time>2016-7-22T20:43:40Z</time></trkpt>
<trkpt lat="46.52568531520974" lon="7.0376877500849595"><ele></ele><time>2016-7-22T20:43:43Z</time></trkpt>
<trkpt lat="46.525471911928335" lon="7.0376884156385024"><ele></ele><time>2016-7-22T20:43:46Z</time></trkpt>
<trkpt lat="46.52540167016948" lon="7.037808778376839"><ele></ele><time>2016-7-22T20:43:49Z</time></trkpt>
<trkpt lat="46.525376772898646" lon="7.0380673600534855"><ele></ele><time>2016-7-22T20:43:52Z</time></trkpt>
<trkpt lat="46.52535120632919" lon="7.038218485488612"><ele></ele><time>2016-7-22T20:43:55Z</time></trkpt>
<trkpt lat="46.52531373847981" lon="7.038281851933124"><ele></ele><time>2016-7-22T20:43:58Z</time></trkpt>
<trkpt lat="46.525099411521445" lon="7.038425596857186"><ele></ele><time>2016-7-22T20:44:1Z</time></trkpt>
<trkpt lat="46.52478517167495" lon="7.038620385340955"><ele></ele><time>2016-7-22T20:44:4Z</time></trkpt>
<trkpt lat="46.52470805773173" lon="7.038657096348987"><ele></ele><time>2016-7-22T20:44:7Z</time></trkpt>
<trkpt lat="46.52453304364076" lon="7.038651895459392"><ele></ele><time>2016-7-22T20:44:10Z</time></trkpt>
<trkpt lat="46.524222828235374" lon="7.038750208128379"><ele></ele><time>2016-7-22T20:44:13Z</time></trkpt>
<trkpt lat="46.52404429092101" lon="7.03898732849455"><ele></ele><time>2016-7-22T20:44:16Z</time></trkpt>
<trkpt lat="46.523986370926586" lon="7.039076510778672"><ele></ele><time>2016-7-22T20:44:19Z</time></trkpt>
<trkpt lat="46.52317901827095" lon="7.0397364843487615"><ele></ele><time>2016-7-22T20:44:22Z</time></trkpt>
<trkpt lat="46.52273510616636" lon="7.040293452624835"><ele></ele><time>2016-7-22T20:44:25Z</time></trkpt>
<trkpt lat="46.522690346338365" lon="7.040333181884223"><ele></ele><time>2016-7-22T20:44:28Z</time></trkpt>
<trkpt lat="46.52253938511446" lon="7.040602824759151"><ele></ele><time>2016-7-22T20:44:31Z</time></trkpt>
<trkpt lat="46.522444921387034" lon="7.0405748269321"><ele></ele><time>2016-7-22T20:44:34Z</time></trkpt>
<trkpt lat="46.5222741814208" lon="7.040625533561411"><ele></ele><time>2016-7-22T20:44:37Z</time></trkpt>
<trkpt lat="46.521859608559375" lon="7.040961555089319"><ele></ele><time>2016-7-22T20:44:40Z</time></trkpt>
<trkpt lat="46.5214992669394" lon="7.04126983372946"><ele></ele><time>2016-7-22T20:44:43Z</time></trkpt>
<trkpt lat="46.52124470436882" lon="7.0416274843633495"><ele></ele><time>2016-7-22T20:44:46Z</time></trkpt>
<trkpt lat="46.52116130365802" lon="7.041693783411824"><ele></ele><time>2016-7-22T20:44:49Z</time></trkpt>
<trkpt lat="46.520687470652604" lon="7.042038017848561"><ele></ele><time>2016-7-22T20:44:52Z</time></trkpt>
<trkpt lat="46.52067137601354" lon="7.04215704075769"><ele></ele><time>2016-7-22T20:44:55Z</time></trkpt>
<trkpt lat="46.52073733786041" lon="7.042477986073889"><ele></ele><time>2016-7-22T20:44:58Z</time></trkpt>
<trkpt lat="46.52063532570723" lon="7.042855421615564"><ele></ele><time>2016-7-22T20:45:1Z</time></trkpt>
<trkpt lat="46.52041512949813" lon="7.043165715205941"><ele></ele><time>2016-7-22T20:45:4Z</time></trkpt>
<trkpt lat="46.520391491432605" lon="7.043260178909572"><ele></ele><time>2016-7-22T20:45:7Z</time></trkpt>
<trkpt lat="46.520456615847685" lon="7.043516080495703"><ele></ele><time>2016-7-22T20:45:10Z</time></trkpt>
<trkpt lat="46.520484776562256" lon="7.043729568695174"><ele></ele><time>2016-7-22T20:45:13Z</time></trkpt>
<trkpt lat="46.52045753236323" lon="7.043988904711632"><ele></ele><time>2016-7-22T20:45:16Z</time></trkpt>
<trkpt lat="46.520440180978056" lon="7.044061659385542"><ele></ele><time>2016-7-22T20:45:19Z</time></trkpt>
<trkpt lat="46.52031536885076" lon="7.044542611130906"><ele></ele><time>2016-7-22T20:45:22Z</time></trkpt>
<trkpt lat="46.52009759969619" lon="7.045171836902096"><ele></ele><time>2016-7-22T20:45:25Z</time></trkpt>
<trkpt lat="46.52003523690324" lon="7.045295217333024"><ele></ele><time>2016-7-22T20:45:28Z</time></trkpt>
<trkpt lat="46.51995426552243" lon="7.045484311595558"><ele></ele><time>2016-7-22T20:45:31Z</time></trkpt>
<trkpt lat="46.51988712530569" lon="7.0455852283656135"><ele></ele><time>2016-7-22T20:45:34Z</time></trkpt>
<trkpt lat="46.519796096046065" lon="7.045739453600256"><ele></ele><time>2016-7-22T20:45:37Z</time></trkpt>
<trkpt lat="46.51976365665843" lon="7.045861996538076"><ele></ele><time>2016-7-22T20:45:40Z</time></trkpt>
<trkpt lat="46.519749320899535" lon="7.04609509744489"><ele></ele><time>2016-7-22T20:45:43Z</time></trkpt>
<trkpt lat="46.51974956838228" lon="7.046437750407992"><ele></ele><time>2016-7-22T20:45:46Z</time></trkpt>
<trkpt lat="46.51971486531578" lon="7.046609076077615"><ele></ele><time>2016-7-22T20:45:49Z</time></trkpt>
<trkpt lat="46.5196426087048" lon="7.047006209841918"><ele></ele><time>2016-7-22T20:45:52Z</time></trkpt>
<trkpt lat="46.51963791358163" lon="7.04711467179899"><ele></ele><time>2016-7-22T20:45:55Z</time></trkpt>
<trkpt lat="46.51964084466155" lon="7.047337798622404"><ele></ele><time>2016-7-22T20:45:58Z</time></trkpt>
<trkpt lat="46.51968157656885" lon="7.047695288531169"><ele></ele><time>2016-7-22T20:46:1Z</time></trkpt>
<trkpt lat="46.519795732047314" lon="7.04821706581472"><ele></ele><time>2016-7-22T20:46:4Z</time></trkpt>
<trkpt lat="46.51985180060626" lon="7.0487675079164624"><ele></ele><time>2016-7-22T20:46:7Z</time></trkpt>
<trkpt lat="46.51988507097181" lon="7.0492677417762195"><ele></ele><time>2016-7-22T20:46:10Z</time></trkpt>
<trkpt lat="46.520039627790226" lon="7.049741240127953"><ele></ele><time>2016-7-22T20:46:13Z</time></trkpt>
<trkpt lat="46.52023349532668" lon="7.05025027874001"><ele></ele><time>2016-7-22T20:46:16Z</time></trkpt>
<trkpt lat="46.520314797815864" lon="7.050420936555609"><ele></ele><time>2016-7-22T20:46:19Z</time></trkpt>
<trkpt lat="46.52033374069168" lon="7.050440466873599"><ele></ele><time>2016-7-22T20:46:22Z</time></trkpt>
<trkpt lat="46.52035159380567" lon="7.050469887833751"><ele></ele><time>2016-7-22T20:46:25Z</time></trkpt>
<trkpt lat="46.520302895643916" lon="7.050409620684573"><ele></ele><time>2016-7-22T20:46:28Z</time></trkpt>
<trkpt lat="46.520279929460315" lon="7.050389587357686"><ele></ele><time>2016-7-22T20:46:31Z</time></trkpt>
<trkpt lat="46.52028202438753" lon="7.0504370290828575"><ele></ele><time>2016-7-22T20:46:34Z</time></trkpt>
<trkpt lat="46.520310354268176" lon="7.050519424031411"><ele></ele><time>2016-7-22T20:46:37Z</time></trkpt>
<trkpt lat="46.520364668125985" lon="7.050595197866119"><ele></ele><time>2016-7-22T20:46:40Z</time></trkpt>
<trkpt lat="46.52038009031458" lon="7.0506396224093955"><ele></ele><time>2016-7-22T20:46:43Z</time></trkpt>
<trkpt lat="46.52039978732819" lon="7.050679353175955"><ele></ele><time>2016-7-22T20:46:46Z</time></trkpt>
<trkpt lat="46.52043574505902" lon="7.050734255598763"><ele></ele><time>2016-7-22T20:46:49Z</time></trkpt>
<trkpt lat="46.52046114159643" lon="7.050788738679849"><ele></ele><time>2016-7-22T20:46:52Z</time></trkpt>
<trkpt lat="46.52046273401564" lon="7.0508010601416515"><ele></ele><time>2016-7-22T20:46:55Z</time></trkpt>
<trkpt lat="46.52044563460321" lon="7.050829558277527"><ele></ele><time>2016-7-22T20:46:58Z</time></trkpt>
<trkpt lat="46.520389140325264" lon="7.050851098502424"><ele></ele><time>2016-7-22T20:47:1Z</time></trkpt>
<trkpt lat="46.520352846532404" lon="7.0508641734562225"><ele></ele><time>2016-7-22T20:47:4Z</time></trkpt>
<trkpt lat="46.52032912550161" lon="7.050885295347151"><ele></ele><time>2016-7-22T20:47:7Z</time></trkpt>
<trkpt lat="46.52031563001122" lon="7.0509394422471"><ele></ele><time>2016-7-22T20:47:10Z</time></trkpt>
<trkpt lat="46.52030112868758" lon="7.050994008219767"><ele></ele><time>2016-7-22T20:47:13Z</time></trkpt>
<trkpt lat="46.520293835940414" lon="7.051036504392906"><ele></ele><time>2016-7-22T20:47:16Z</time></trkpt>
<trkpt lat="46.52030204907316" lon="7.0511344892478025"><ele></ele><time>2016-7-22T20:47:19Z</time></trkpt>
<trkpt lat="46.52030414355309" lon="7.051220655450934"><ele></ele><time>2016-7-22T20:47:22Z</time></trkpt>
<trkpt lat="46.52027748733537" lon="7.05137337344355"><ele></ele><time>2016-7-22T20:47:25Z</time></trkpt>
<trkpt lat="46.52026625364765" lon="7.051541011615316"><ele></ele><time>2016-7-22T20:47:28Z</time></trkpt>
<trkpt lat="46.5202768141302" lon="7.051602954261731"><ele></ele><time>2016-7-22T20:47:31Z</time></trkpt>
<trkpt lat="46.520240687156196" lon="7.051686940276978"><ele></ele><time>2016-7-22T20:47:34Z</time></trkpt>
<trkpt lat="46.52024127374128" lon="7.051699764630737"><ele></ele><time>2016-7-22T20:47:37Z</time></trkpt>
<trkpt lat="46.5202296223436" lon="7.05174754131336"><ele></ele><time>2016-7-22T20:47:40Z</time></trkpt>
<trkpt lat="46.5202274427669" lon="7.051771932654712"><ele></ele><time>2016-7-22T20:47:43Z</time></trkpt>
<trkpt lat="46.520172706824994" lon="7.051954824913258"><ele></ele><time>2016-7-22T20:47:46Z</time></trkpt>
<trkpt lat="46.52013540453569" lon="7.052198905605367"><ele></ele><time>2016-7-22T20:47:49Z</time></trkpt>
<trkpt lat="46.520073711597234" lon="7.052383306448843"><ele></ele><time>2016-7-22T20:47:52Z</time></trkpt>
<trkpt lat="46.520010593356155" lon="7.05260056439258"><ele></ele><time>2016-7-22T20:47:55Z</time></trkpt>
<trkpt lat="46.519973459213304" lon="7.052800723819997"><ele></ele><time>2016-7-22T20:47:58Z</time></trkpt>
<trkpt lat="46.51996255931957" lon="7.053096940679556"><ele></ele><time>2016-7-22T20:48:1Z</time></trkpt>
<trkpt lat="46.519999939766414" lon="7.053343202406955"><ele></ele><time>2016-7-22T20:48:4Z</time></trkpt>
<trkpt lat="46.52000454743488" lon="7.05354931396842"><ele></ele><time>2016-7-22T20:48:7Z</time></trkpt>
<trkpt lat="46.52007755142744" lon="7.053756097671271"><ele></ele><time>2016-7-22T20:48:10Z</time></trkpt>
<trkpt lat="46.52005273861481" lon="7.053962292368969"><ele></ele><time>2016-7-22T20:48:13Z</time></trkpt>
<trkpt lat="46.51997704727692" lon="7.054200756284717"><ele></ele><time>2016-7-22T20:48:16Z</time></trkpt>
<trkpt lat="46.51991460094652" lon="7.054300499703976"><ele></ele><time>2016-7-22T20:48:19Z</time></trkpt>
<trkpt lat="46.519822900737466" lon="7.054490096645538"><ele></ele><time>2016-7-22T20:48:22Z</time></trkpt>
<trkpt lat="46.51975575882623" lon="7.054738619067176"><ele></ele><time>2016-7-22T20:48:25Z</time></trkpt>
<trkpt lat="46.519680067503614" lon="7.054975909515898"><ele></ele><time>2016-7-22T20:48:28Z</time></trkpt>
<trkpt lat="46.51953371522283" lon="7.055344543040522"><ele></ele><time>2016-7-22T20:48:31Z</time></trkpt>
<trkpt lat="46.519437822311296" lon="7.055686271767795"><ele></ele><time>2016-7-22T20:48:34Z</time></trkpt>
<trkpt lat="46.51933983478912" lon="7.055952982247463"><ele></ele><time>2016-7-22T20:48:37Z</time></trkpt>
<trkpt lat="46.51931971761292" lon="7.05600578788845"><ele></ele><time>2016-7-22T20:48:40Z</time></trkpt>
<trkpt lat="46.519214437781635" lon="7.0562771920762914"><ele></ele><time>2016-7-22T20:48:43Z</time></trkpt>
<trkpt lat="46.51920069124016" lon="7.056296302539423"><ele></ele><time>2016-7-22T20:48:46Z</time></trkpt>
<trkpt lat="46.51913749183322" lon="7.056283812011101"><ele></ele><time>2016-7-22T20:48:49Z</time></trkpt>
<trkpt lat="46.51911511230881" lon="7.056270148959813"><ele></ele><time>2016-7-22T20:48:52Z</time></trkpt>
<trkpt lat="46.51901955911828" lon="7.056226141655417"><ele></ele><time>2016-7-22T20:48:55Z</time></trkpt>
<trkpt lat="46.51880858778722" lon="7.0561242125954475"><ele></ele><time>2016-7-22T20:48:58Z</time></trkpt>
<trkpt lat="46.51867783031105" lon="7.056105601697819"><ele></ele><time>2016-7-22T20:49:1Z</time></trkpt>
<trkpt lat="46.51858084969435" lon="7.056278937594414"><ele></ele><time>2016-7-22T20:49:4Z</time></trkpt>
<trkpt lat="46.51856333089787" lon="7.056332665307699"><ele></ele><time>2016-7-22T20:49:7Z</time></trkpt>
<trkpt lat="46.51852510855917" lon="7.056407347345903"><ele></ele><time>2016-7-22T20:49:10Z</time></trkpt>
<trkpt lat="46.51849468209221" lon="7.056421092992629"><ele></ele><time>2016-7-22T20:49:13Z</time></trkpt>
<trkpt lat="46.518363757464925" lon="7.056360237205042"><ele></ele><time>2016-7-22T20:49:16Z</time></trkpt>
<trkpt lat="46.518134178913904" lon="7.056205920700773"><ele></ele><time>2016-7-22T20:49:19Z</time></trkpt>
<trkpt lat="46.51807139899981" lon="7.056158980482552"><ele></ele><time>2016-7-22T20:49:22Z</time></trkpt>
<trkpt lat="46.517597908033665" lon="7.055920922921081"><ele></ele><time>2016-7-22T20:49:25Z</time></trkpt>
<trkpt lat="46.51736288116942" lon="7.055773479463161"><ele></ele><time>2016-7-22T20:49:28Z</time></trkpt>
<trkpt lat="46.5172896238831" lon="7.055726036085681"><ele></ele><time>2016-7-22T20:49:31Z</time></trkpt>
<trkpt lat="46.51723262680507" lon="7.055737937093273"><ele></ele><time>2016-7-22T20:49:34Z</time></trkpt>
<trkpt lat="46.51718325606625" lon="7.055853355015117"><ele></ele><time>2016-7-22T20:49:37Z</time></trkpt>
<trkpt lat="46.51717403551322" lon="7.055893252750309"><ele></ele><time>2016-7-22T20:49:40Z</time></trkpt>
<trkpt lat="46.517167664646976" lon="7.055947064542207"><ele></ele><time>2016-7-22T20:49:43Z</time></trkpt>
<trkpt lat="46.51715056521035" lon="7.055977825799698"><ele></ele><time>2016-7-22T20:49:46Z</time></trkpt>
<trkpt lat="46.517138829425065" lon="7.056075139642751"><ele></ele><time>2016-7-22T20:49:49Z</time></trkpt>
<trkpt lat="46.51707546000873" lon="7.056268676754213"><ele></ele><time>2016-7-22T20:49:52Z</time></trkpt>
<trkpt lat="46.516962386823764" lon="7.056382668273351"><ele></ele><time>2016-7-22T20:49:55Z</time></trkpt>
<trkpt lat="46.5167087479536" lon="7.056598413069206"><ele></ele><time>2016-7-22T20:49:58Z</time></trkpt>
<trkpt lat="46.51648469699373" lon="7.056832263504104"><ele></ele><time>2016-7-22T20:50:1Z</time></trkpt>
<trkpt lat="46.51644555292488" lon="7.05688280558754"><ele></ele><time>2016-7-22T20:50:4Z</time></trkpt>
<trkpt lat="46.516197779231085" lon="7.057286054121925"><ele></ele><time>2016-7-22T20:50:7Z</time></trkpt>
<trkpt lat="46.515948496467" lon="7.057717968798289"><ele></ele><time>2016-7-22T20:50:10Z</time></trkpt>
<trkpt lat="46.51573274195509" lon="7.058094395928955"><ele></ele><time>2016-7-22T20:50:13Z</time></trkpt>
<trkpt lat="46.5154007281579" lon="7.058670310120897"><ele></ele><time>2016-7-22T20:50:16Z</time></trkpt>
<trkpt lat="46.515156893791115" lon="7.0590888976770545"><ele></ele><time>2016-7-22T20:50:19Z</time></trkpt>
<trkpt lat="46.51487886052895" lon="7.059571354693333"><ele></ele><time>2016-7-22T20:50:22Z</time></trkpt>
<trkpt lat="46.514789088437" lon="7.059737817594604"><ele></ele><time>2016-7-22T20:50:25Z</time></trkpt>
<trkpt lat="46.51465933419616" lon="7.0599454348103485"><ele></ele><time>2016-7-22T20:50:28Z</time></trkpt>
<trkpt lat="46.51437459561126" lon="7.060410960195307"><ele></ele><time>2016-7-22T20:50:31Z</time></trkpt>
<trkpt lat="46.51430309706619" lon="7.060490586804969"><ele></ele><time>2016-7-22T20:50:34Z</time></trkpt>
<trkpt lat="46.51417904400925" lon="7.060568619634172"><ele></ele><time>2016-7-22T20:50:37Z</time></trkpt>
<trkpt lat="46.51389330406432" lon="7.060645307617063"><ele></ele><time>2016-7-22T20:50:40Z</time></trkpt>
<trkpt lat="46.51384494049526" lon="7.060644468306407"><ele></ele><time>2016-7-22T20:50:43Z</time></trkpt>
<trkpt lat="46.51365701881414" lon="7.060594172425518"><ele></ele><time>2016-7-22T20:50:46Z</time></trkpt>
<trkpt lat="46.51319702206625" lon="7.060413866632676"><ele></ele><time>2016-7-22T20:50:49Z</time></trkpt>
<trkpt lat="46.512880941904605" lon="7.0602931596361005"><ele></ele><time>2016-7-22T20:50:52Z</time></trkpt>
<trkpt lat="46.512661672231026" lon="7.060214951225671"><ele></ele><time>2016-7-22T20:50:55Z</time></trkpt>
<trkpt lat="46.51243603239309" lon="7.060129701852258"><ele></ele><time>2016-7-22T20:50:58Z</time></trkpt>
<trkpt lat="46.51206278790829" lon="7.0599873681694145"><ele></ele><time>2016-7-22T20:51:1Z</time></trkpt>
<trkpt lat="46.5115502367546" lon="7.059797338120571"><ele></ele><time>2016-7-22T20:51:4Z</time></trkpt>
<trkpt lat="46.51118227278939" lon="7.059662296828618"><ele></ele><time>2016-7-22T20:51:7Z</time></trkpt>
<trkpt lat="46.51088270491354" lon="7.059547792829133"><ele></ele><time>2016-7-22T20:51:10Z</time></trkpt>
<trkpt lat="46.51084004113737" lon="7.05953848790725"><ele></ele><time>2016-7-22T20:51:13Z</time></trkpt>
<trkpt lat="46.51064222905368" lon="7.059467823718658"><ele></ele><time>2016-7-22T20:51:16Z</time></trkpt>
<trkpt lat="46.510396891784765" lon="7.059379724029766"><ele></ele><time>2016-7-22T20:51:19Z</time></trkpt>
<trkpt lat="46.51035758081991" lon="7.059366060585381"><ele></ele><time>2016-7-22T20:51:22Z</time></trkpt>
<trkpt lat="46.51020972504301" lon="7.0592808130063025"><ele></ele><time>2016-7-22T20:51:25Z</time></trkpt>
<trkpt lat="46.51010227012031" lon="7.059188190270045"><ele></ele><time>2016-7-22T20:51:28Z</time></trkpt>
<trkpt lat="46.50983690218006" lon="7.0589197949523514"><ele></ele><time>2016-7-22T20:51:31Z</time></trkpt>
<trkpt lat="46.509553933295635" lon="7.0585602039026405"><ele></ele><time>2016-7-22T20:51:34Z</time></trkpt>
<trkpt lat="46.50922587056945" lon="7.058131963855553"><ele></ele><time>2016-7-22T20:51:37Z</time></trkpt>
<trkpt lat="46.509148925475074" lon="7.058065241965294"><ele></ele><time>2016-7-22T20:51:40Z</time></trkpt>
<trkpt lat="46.5090557188955" lon="7.058050236163314"><ele></ele><time>2016-7-22T20:51:43Z</time></trkpt>
<trkpt lat="46.50891414734506" lon="7.058156515667431"><ele></ele><time>2016-7-22T20:51:46Z</time></trkpt>
<trkpt lat="46.50888581609817" lon="7.058192808737914"><ele></ele><time>2016-7-22T20:51:49Z</time></trkpt>
<trkpt lat="46.50865941763024" lon="7.058478878527861"><ele></ele><time>2016-7-22T20:51:52Z</time></trkpt>
<trkpt lat="46.50855288425592" lon="7.0584265728596165"><ele></ele><time>2016-7-22T20:51:55Z</time></trkpt>
<trkpt lat="46.50845976312377" lon="7.058270080197424"><ele></ele><time>2016-7-22T20:51:58Z</time></trkpt>
<trkpt lat="46.508443837883945" lon="7.058237557966693"><ele></ele><time>2016-7-22T20:52:1Z</time></trkpt>
<trkpt lat="46.5083519749287" lon="7.058003616363357"><ele></ele><time>2016-7-22T20:52:4Z</time></trkpt>
<trkpt lat="46.508265643925235" lon="7.057778727364666"><ele></ele><time>2016-7-22T20:52:7Z</time></trkpt>
<trkpt lat="46.50812290391013" lon="7.057450571764517"><ele></ele><time>2016-7-22T20:52:10Z</time></trkpt>
<trkpt lat="46.508022240010845" lon="7.057212187535885"><ele></ele><time>2016-7-22T20:52:13Z</time></trkpt>
<trkpt lat="46.50789115049222" lon="7.056914374765686"><ele></ele><time>2016-7-22T20:52:16Z</time></trkpt>
<trkpt lat="46.507809513681906" lon="7.0566612387920795"><ele></ele><time>2016-7-22T20:52:19Z</time></trkpt>
<trkpt lat="46.50774321486841" lon="7.056484881590243"><ele></ele><time>2016-7-22T20:52:22Z</time></trkpt>
<trkpt lat="46.507658810498896" lon="7.056364766672777"><ele></ele><time>2016-7-22T20:52:25Z</time></trkpt>
<trkpt lat="46.50770172629591" lon="7.05632495353315"><ele></ele><time>2016-7-22T20:52:28Z</time></trkpt>
<trkpt lat="46.50771631071947" lon="7.056332413783142"><ele></ele><time>2016-7-22T20:52:31Z</time></trkpt>
<trkpt lat="46.50779686109822" lon="7.056306347870692"><ele></ele><time>2016-7-22T20:52:34Z</time></trkpt>
<trkpt lat="46.50793063824803" lon="7.056133348079897"><ele></ele><time>2016-7-22T20:52:37Z</time></trkpt>
<trkpt lat="46.508006495961524" lon="7.056003178573182"><ele></ele><time>2016-7-22T20:52:40Z</time></trkpt>
<trkpt lat="46.508088137128745" lon="7.055878122174081"><ele></ele><time>2016-7-22T20:52:43Z</time></trkpt>
<trkpt lat="46.508129041081276" lon="7.055854653738436"><ele></ele><time>2016-7-22T20:52:46Z</time></trkpt>
<trkpt lat="46.50813532771551" lon="7.055836632749558"><ele></ele><time>2016-7-22T20:52:49Z</time></trkpt>
<trkpt lat="46.508149327152665" lon="7.0556925478156085"><ele></ele><time>2016-7-22T20:52:52Z</time></trkpt>
<trkpt lat="46.508183862155335" lon="7.055556677643029"><ele></ele><time>2016-7-22T20:52:55Z</time></trkpt>
<trkpt lat="46.508214123458885" lon="7.055327935663128"><ele></ele><time>2016-7-22T20:52:58Z</time></trkpt>
<trkpt lat="46.50824187003273" lon="7.055113023798259"><ele></ele><time>2016-7-22T20:53:1Z</time></trkpt>
<trkpt lat="46.508239609716576" lon="7.0548704508906015"><ele></ele><time>2016-7-22T20:53:4Z</time></trkpt>
<trkpt lat="46.50820784442498" lon="7.054686886036613"><ele></ele><time>2016-7-22T20:53:7Z</time></trkpt>
<trkpt lat="46.50817850921711" lon="7.054561240327731"><ele></ele><time>2016-7-22T20:53:10Z</time></trkpt>
<trkpt lat="46.508147498182126" lon="7.054387649979544"><ele></ele><time>2016-7-22T20:53:13Z</time></trkpt>
<trkpt lat="46.50810265689778" lon="7.054223698521583"><ele></ele><time>2016-7-22T20:53:16Z</time></trkpt>
<trkpt lat="46.508062089816946" lon="7.054108865232307"><ele></ele><time>2016-7-22T20:53:19Z</time></trkpt>
<trkpt lat="46.50798816309792" lon="7.053965281171518"><ele></ele><time>2016-7-22T20:53:22Z</time></trkpt>
<trkpt lat="46.50790962572164" lon="7.05387467075763"><ele></ele><time>2016-7-22T20:53:25Z</time></trkpt>
<trkpt lat="46.507840895107954" lon="7.053789508821451"><ele></ele><time>2016-7-22T20:53:28Z</time></trkpt>
<trkpt lat="46.50777375669491" lon="7.053735611495509"><ele></ele><time>2016-7-22T20:53:31Z</time></trkpt>
<trkpt lat="46.50767426417217" lon="7.053678947382998"><ele></ele><time>2016-7-22T20:53:34Z</time></trkpt>
<trkpt lat="46.50758700897103" lon="7.0536444118318995"><ele></ele><time>2016-7-22T20:53:37Z</time></trkpt>
<trkpt lat="46.507485504586974" lon="7.053605517349504"><ele></ele><time>2016-7-22T20:53:40Z</time></trkpt>
<trkpt lat="46.50737754582503" lon="7.053593780148193"><ele></ele><time>2016-7-22T20:53:43Z</time></trkpt>
<trkpt lat="46.507244273755155" lon="7.053578941046961"><ele></ele><time>2016-7-22T20:53:46Z</time></trkpt>
<trkpt lat="46.50706934396869" lon="7.05353501570384"><ele></ele><time>2016-7-22T20:53:49Z</time></trkpt>
<trkpt lat="46.506878237569694" lon="7.0534514434874005"><ele></ele><time>2016-7-22T20:53:52Z</time></trkpt>
<trkpt lat="46.50663709094604" lon="7.053391339492559"><ele></ele><time>2016-7-22T20:53:55Z</time></trkpt>
<trkpt lat="46.50653164800539" lon="7.053271391719106"><ele></ele><time>2016-7-22T20:53:58Z</time></trkpt>
<trkpt lat="46.50650717335138" lon="7.053228140425886"><ele></ele><time>2016-7-22T20:54:1Z</time></trkpt>
<trkpt lat="46.506478926675065" lon="7.053199305953053"><ele></ele><time>2016-7-22T20:54:4Z</time></trkpt>
<trkpt lat="46.506418242053094" lon="7.053169213437616"><ele></ele><time>2016-7-22T20:54:7Z</time></trkpt>
<trkpt lat="46.506348252772845" lon="7.053203829153937"><ele></ele><time>2016-7-22T20:54:10Z</time></trkpt>
<trkpt lat="46.50632293922116" lon="7.053221849700658"><ele></ele><time>2016-7-22T20:54:13Z</time></trkpt>
<trkpt lat="46.50610551075469" lon="7.05338923165575"><ele></ele><time>2016-7-22T20:54:16Z</time></trkpt>
<trkpt lat="46.5058278155723" lon="7.05362961876389"><ele></ele><time>2016-7-22T20:54:19Z</time></trkpt>
<trkpt lat="46.50568481820009" lon="7.053813933936362"><ele></ele><time>2016-7-22T20:54:22Z</time></trkpt>
<trkpt lat="46.50563712240236" lon="7.054054494030279"><ele></ele><time>2016-7-22T20:54:25Z</time></trkpt>
<trkpt lat="46.50568791403514" lon="7.054287764139306"><ele></ele><time>2016-7-22T20:54:28Z</time></trkpt>
<trkpt lat="46.50571188380417" lon="7.0545018390203715"><ele></ele><time>2016-7-22T20:54:31Z</time></trkpt>
<trkpt lat="46.50574213972241" lon="7.054739970167567"><ele></ele><time>2016-7-22T20:54:34Z</time></trkpt>
<trkpt lat="46.505763930648314" lon="7.054914985234682"><ele></ele><time>2016-7-22T20:54:37Z</time></trkpt>
<trkpt lat="46.50577951931707" lon="7.055059657594921"><ele></ele><time>2016-7-22T20:54:40Z</time></trkpt>
<trkpt lat="46.50579736957431" lon="7.055336596759208"><ele></ele><time>2016-7-22T20:54:43Z</time></trkpt>
<trkpt lat="46.50581303998116" lon="7.055661815751755"><ele></ele><time>2016-7-22T20:54:46Z</time></trkpt>
<trkpt lat="46.50582426888323" lon="7.055908747476427"><ele></ele><time>2016-7-22T20:54:49Z</time></trkpt>
<trkpt lat="46.50582116427591" lon="7.0561954091855235"><ele></ele><time>2016-7-22T20:54:52Z</time></trkpt>
<trkpt lat="46.50582292061412" lon="7.056530518524942"><ele></ele><time>2016-7-22T20:54:55Z</time></trkpt>
<trkpt lat="46.505820151501574" lon="7.056798320914343"><ele></ele><time>2016-7-22T20:54:58Z</time></trkpt>
<trkpt lat="46.505818387920506" lon="7.057091939651354"><ele></ele><time>2016-7-22T20:55:1Z</time></trkpt>
<trkpt lat="46.505794495606935" lon="7.057430065888852"><ele></ele><time>2016-7-22T20:55:4Z</time></trkpt>
<trkpt lat="46.505769514433446" lon="7.057699879425372"><ele></ele><time>2016-7-22T20:55:7Z</time></trkpt>
<trkpt lat="46.50573464220836" lon="7.058005148269122"><ele></ele><time>2016-7-22T20:55:10Z</time></trkpt>
<trkpt lat="46.50571041588472" lon="7.058233471302627"><ele></ele><time>2016-7-22T20:55:13Z</time></trkpt>
<trkpt lat="46.50568292065742" lon="7.05845852531045"><ele></ele><time>2016-7-22T20:55:16Z</time></trkpt>
<trkpt lat="46.50565257571313" lon="7.058672347475035"><ele></ele><time>2016-7-22T20:55:19Z</time></trkpt>
<trkpt lat="46.505597920946315" lon="7.059086832324847"><ele></ele><time>2016-7-22T20:55:22Z</time></trkpt>
<trkpt lat="46.50555466666881" lon="7.05940551205401"><ele></ele><time>2016-7-22T20:55:25Z</time></trkpt>
<trkpt lat="46.50550629939834" lon="7.059727125338522"><ele></ele><time>2016-7-22T20:55:28Z</time></trkpt>
<trkpt lat="46.50545340718195" lon="7.059937342755413"><ele></ele><time>2016-7-22T20:55:31Z</time></trkpt>
<trkpt lat="46.5054397435223" lon="7.0600382607981516"><ele></ele><time>2016-7-22T20:55:34Z</time></trkpt>
<trkpt lat="46.50542147038885" lon="7.060089390108564"><ele></ele><time>2016-7-22T20:55:37Z</time></trkpt>
<trkpt lat="46.50536774039613" lon="7.060263649054765"><ele></ele><time>2016-7-22T20:55:40Z</time></trkpt>
<trkpt lat="46.505301604911764" lon="7.060462047653919"><ele></ele><time>2016-7-22T20:55:43Z</time></trkpt>
<trkpt lat="46.50516698967941" lon="7.060626581697623"><ele></ele><time>2016-7-22T20:55:46Z</time></trkpt>
<trkpt lat="46.50504477988736" lon="7.060771502327874"><ele></ele><time>2016-7-22T20:55:49Z</time></trkpt>
<trkpt lat="46.504938411603085" lon="7.0609414014574545"><ele></ele><time>2016-7-22T20:55:52Z</time></trkpt>
<trkpt lat="46.504878226921925" lon="7.061170142759661"><ele></ele><time>2016-7-22T20:55:55Z</time></trkpt>
<trkpt lat="46.504845030879316" lon="7.06149343278479"><ele></ele><time>2016-7-22T20:55:58Z</time></trkpt>
<trkpt lat="46.504848464840954" lon="7.061721505005338"><ele></ele><time>2016-7-22T20:56:1Z</time></trkpt>
<trkpt lat="46.50488140294894" lon="7.06196248607051"><ele></ele><time>2016-7-22T20:56:4Z</time></trkpt>
<trkpt lat="46.50485281803345" lon="7.062191731020072"><ele></ele><time>2016-7-22T20:56:7Z</time></trkpt>
<trkpt lat="46.50485759520098" lon="7.0622367420602705"><ele></ele><time>2016-7-22T20:56:10Z</time></trkpt>
<trkpt lat="46.50487603530975" lon="7.062243280387004"><ele></ele><time>2016-7-22T20:56:13Z</time></trkpt>
<trkpt lat="46.50486287577982" lon="7.062238418567077"><ele></ele><time>2016-7-22T20:56:16Z</time></trkpt>
<trkpt lat="46.50486245697712" lon="7.06221293750964"><ele></ele><time>2016-7-22T20:56:19Z</time></trkpt>
<trkpt lat="46.50487075481072" lon="7.0622346468836135"><ele></ele><time>2016-7-22T20:56:22Z</time></trkpt>
<trkpt lat="46.504898079971916" lon="7.06222056588371"><ele></ele><time>2016-7-22T20:56:25Z</time></trkpt>
<trkpt lat="46.5048959005986" lon="7.062227439010674"><ele></ele><time>2016-7-22T20:56:28Z</time></trkpt>
<trkpt lat="46.504882657115004" lon="7.062234311881844"><ele></ele><time>2016-7-22T20:56:31Z</time></trkpt>
<trkpt lat="46.50487419165107" lon="7.062211931950112"><ele></ele><time>2016-7-22T20:56:34Z</time></trkpt>
<trkpt lat="46.50488751941147" lon="7.062165161124557"><ele></ele><time>2016-7-22T20:56:37Z</time></trkpt>
<trkpt lat="46.50488969877611" lon="7.062159042370717"><ele></ele><time>2016-7-22T20:56:40Z</time></trkpt>
<trkpt lat="46.50487268326846" lon="7.062180583520966"><ele></ele><time>2016-7-22T20:56:43Z</time></trkpt>
<trkpt lat="46.504861368464795" lon="7.06211403078596"><ele></ele><time>2016-7-22T20:56:46Z</time></trkpt>
<trkpt lat="46.50482649967669" lon="7.062120735518636"><ele></ele><time>2016-7-22T20:56:49Z</time></trkpt>
<trkpt lat="46.50489338720433" lon="7.062124928026952"><ele></ele><time>2016-7-22T20:56:52Z</time></trkpt>
<trkpt lat="46.50492096430927" lon="7.062068434499532"><ele></ele><time>2016-7-22T20:56:55Z</time></trkpt>
<trkpt lat="46.504918365905304" lon="7.062069691727989"><ele></ele><time>2016-7-22T20:56:58Z</time></trkpt>
<trkpt lat="46.50490629557152" lon="7.062104141154884"><ele></ele><time>2016-7-22T20:57:1Z</time></trkpt>
<trkpt lat="46.50488835783054" lon="7.062145212165774"><ele></ele><time>2016-7-22T20:57:4Z</time></trkpt>
<trkpt lat="46.50489791258777" lon="7.06219843760154"><ele></ele><time>2016-7-22T20:57:7Z</time></trkpt>
<trkpt lat="46.50493521176963" lon="7.062222913680786"><ele></ele><time>2016-7-22T20:57:10Z</time></trkpt>
<trkpt lat="46.50503856001791" lon="7.062275219273287"><ele></ele><time>2016-7-22T20:57:13Z</time></trkpt>
<trkpt lat="46.50514651783533" lon="7.062369099313084"><ele></ele><time>2016-7-22T20:57:16Z</time></trkpt>
<trkpt lat="46.505289680503914" lon="7.062387710492837"><ele></ele><time>2016-7-22T20:57:19Z</time></trkpt>
<trkpt lat="46.505378109367626" lon="7.062405146937954"><ele></ele><time>2016-7-22T20:57:22Z</time></trkpt>
<trkpt lat="46.505461172672945" lon="7.062522076691323"><ele></ele><time>2016-7-22T20:57:25Z</time></trkpt>
<trkpt lat="46.505549768095165" lon="7.062633642141221"><ele></ele><time>2016-7-22T20:57:28Z</time></trkpt>
<trkpt lat="46.50562176733956" lon="7.062746296857343"><ele></ele><time>2016-7-22T20:57:31Z</time></trkpt>
<trkpt lat="46.505716900750436" lon="7.062848726161161"><ele></ele><time>2016-7-22T20:57:34Z</time></trkpt>
<trkpt lat="46.505824187917234" lon="7.062951323383999"><ele></ele><time>2016-7-22T20:57:37Z</time></trkpt>
<trkpt lat="46.505919489504805" lon="7.063006813919603"><ele></ele><time>2016-7-22T20:57:40Z</time></trkpt>
<trkpt lat="46.50604463018933" lon="7.063103628027177"><ele></ele><time>2016-7-22T20:57:43Z</time></trkpt>
<trkpt lat="46.50616055123761" lon="7.063160711604203"><ele></ele><time>2016-7-22T20:57:46Z</time></trkpt>
<trkpt lat="46.506252165052224" lon="7.063193235583764"><ele></ele><time>2016-7-22T20:57:49Z</time></trkpt>
<trkpt lat="46.50639298020248" lon="7.06326314407837"><ele></ele><time>2016-7-22T20:57:52Z</time></trkpt>
<trkpt lat="46.50652801196372" lon="7.063322323577098"><ele></ele><time>2016-7-22T20:57:55Z</time></trkpt>
<trkpt lat="46.50672456645112" lon="7.0634193907904095"><ele></ele><time>2016-7-22T20:57:58Z</time></trkpt>
<trkpt lat="46.50686906964696" lon="7.063488628815284"><ele></ele><time>2016-7-22T20:58:1Z</time></trkpt>
<trkpt lat="46.50705313523212" lon="7.063574296323342"><ele></ele><time>2016-7-22T20:58:4Z</time></trkpt>
<trkpt lat="46.50720115864311" lon="7.063659627721584"><ele></ele><time>2016-7-22T20:58:7Z</time></trkpt>
<trkpt lat="46.507393103043256" lon="7.063760466691814"><ele></ele><time>2016-7-22T20:58:10Z</time></trkpt>
<trkpt lat="46.507552106470115" lon="7.0638699382817896"><ele></ele><time>2016-7-22T20:58:13Z</time></trkpt>
<trkpt lat="46.5076880595669" lon="7.063988126539234"><ele></ele><time>2016-7-22T20:58:16Z</time></trkpt>
<trkpt lat="46.50772954963437" lon="7.064018470059435"><ele></ele><time>2016-7-22T20:58:19Z</time></trkpt>
<trkpt lat="46.50792518154307" lon="7.064165577329226"><ele></ele><time>2016-7-22T20:58:22Z</time></trkpt>
<trkpt lat="46.508159704797464" lon="7.064372113331539"><ele></ele><time>2016-7-22T20:58:25Z</time></trkpt>
<trkpt lat="46.50833547120329" lon="7.064553837483669"><ele></ele><time>2016-7-22T20:58:28Z</time></trkpt>
<trkpt lat="46.508481062812045" lon="7.06473120233848"><ele></ele><time>2016-7-22T20:58:31Z</time></trkpt>
<trkpt lat="46.50861927828796" lon="7.0649137638147135"><ele></ele><time>2016-7-22T20:58:34Z</time></trkpt>
<trkpt lat="46.50877107272424" lon="7.065072018026332"><ele></ele><time>2016-7-22T20:58:37Z</time></trkpt>
<trkpt lat="46.50889663219773" lon="7.065196157204849"><ele></ele><time>2016-7-22T20:58:40Z</time></trkpt>
<trkpt lat="46.50902470619233" lon="7.065324655040937"><ele></ele><time>2016-7-22T20:58:43Z</time></trkpt>
<trkpt lat="46.509172561742254" lon="7.065429935405767"><ele></ele><time>2016-7-22T20:58:46Z</time></trkpt>
<trkpt lat="46.509304240323935" lon="7.065526246739309"><ele></ele><time>2016-7-22T20:58:49Z</time></trkpt>
<trkpt lat="46.50943172736875" lon="7.065673771525845"><ele></ele><time>2016-7-22T20:58:52Z</time></trkpt>
<trkpt lat="46.509495176734454" lon="7.065816600958284"><ele></ele><time>2016-7-22T20:58:55Z</time></trkpt>
<trkpt lat="46.50959843948406" lon="7.066016428385295"><ele></ele><time>2016-7-22T20:58:58Z</time></trkpt>
<trkpt lat="46.50978929278988" lon="7.066244504911592"><ele></ele><time>2016-7-22T20:59:1Z</time></trkpt>
<trkpt lat="46.51000193964085" lon="7.066420278739263"><ele></ele><time>2016-7-22T20:59:4Z</time></trkpt>
<trkpt lat="46.5101948890989" lon="7.066589346573458"><ele></ele><time>2016-7-22T20:59:7Z</time></trkpt>
<trkpt lat="46.510406110227" lon="7.066835193242191"><ele></ele><time>2016-7-22T20:59:10Z</time></trkpt>
<trkpt lat="46.51059352660018" lon="7.067094450437716"><ele></ele><time>2016-7-22T20:59:13Z</time></trkpt>
<trkpt lat="46.51075462438908" lon="7.067302242018769"><ele></ele><time>2016-7-22T20:59:16Z</time></trkpt>
<trkpt lat="46.510905161100446" lon="7.067499639771192"><ele></ele><time>2016-7-22T20:59:19Z</time></trkpt>
<trkpt lat="46.51105829583639" lon="7.067729056528092"><ele></ele><time>2016-7-22T20:59:22Z</time></trkpt>
<trkpt lat="46.51118360302562" lon="7.067926202240134"><ele></ele><time>2016-7-22T20:59:25Z</time></trkpt>
<trkpt lat="46.51129264956779" lon="7.068102057493001"><ele></ele><time>2016-7-22T20:59:28Z</time></trkpt>
<trkpt lat="46.51143463720635" lon="7.068258718900254"><ele></ele><time>2016-7-22T20:59:31Z</time></trkpt>
<trkpt lat="46.51164175129652" lon="7.068496937915163"><ele></ele><time>2016-7-22T20:59:34Z</time></trkpt>
<trkpt lat="46.51183042664054" lon="7.068609176204288"><ele></ele><time>2016-7-22T20:59:37Z</time></trkpt>
<trkpt lat="46.51205774179897" lon="7.0687877163912525"><ele></ele><time>2016-7-22T20:59:40Z</time></trkpt>
<trkpt lat="46.51227801649799" lon="7.068936668227614"><ele></ele><time>2016-7-22T20:59:43Z</time></trkpt>
<trkpt lat="46.51250114215832" lon="7.0689880545478"><ele></ele><time>2016-7-22T20:59:46Z</time></trkpt>
<trkpt lat="46.5128048202362" lon="7.068835091445158"><ele></ele><time>2016-7-22T20:59:49Z</time></trkpt>
<trkpt lat="46.51290615794239" lon="7.068791004863464"><ele></ele><time>2016-7-22T20:59:52Z</time></trkpt>
<trkpt lat="46.512990060946734" lon="7.068777092802372"><ele></ele><time>2016-7-22T20:59:55Z</time></trkpt>
<trkpt lat="46.51314948406746" lon="7.068835602290809"><ele></ele><time>2016-7-22T20:59:58Z</time></trkpt>
<trkpt lat="46.513316365971185" lon="7.068991426072457"><ele></ele><time>2016-7-22T21:0:1Z</time></trkpt>
<trkpt lat="46.513501604047306" lon="7.069164349397743"><ele></ele><time>2016-7-22T21:0:4Z</time></trkpt>
<trkpt lat="46.51361752480915" lon="7.069247836013478"><ele></ele><time>2016-7-22T21:0:7Z</time></trkpt>
<trkpt lat="46.51359883312878" lon="7.069251104533361"><ele></ele><time>2016-7-22T21:0:10Z</time></trkpt>
<trkpt lat="46.51359061885454" lon="7.0692519425366775"><ele></ele><time>2016-7-22T21:0:13Z</time></trkpt>
<trkpt lat="46.51357234639557" lon="7.069244146928348"><ele></ele><time>2016-7-22T21:0:16Z</time></trkpt>
<trkpt lat="46.51358072826483" lon="7.06924708079406"><ele></ele><time>2016-7-22T21:0:19Z</time></trkpt>
<trkpt lat="46.513596150951486" lon="7.069248338437202"><ele></ele><time>2016-7-22T21:0:22Z</time></trkpt>
<trkpt lat="46.51362062591707" lon="7.069265019026163"><ele></ele><time>2016-7-22T21:0:25Z</time></trkpt>
<trkpt lat="46.51363906595194" lon="7.069278262888035"><ele></ele><time>2016-7-22T21:0:28Z</time></trkpt>
<trkpt lat="46.51375708194685" lon="7.0693830396349835"><ele></ele><time>2016-7-22T21:0:31Z</time></trkpt>
<trkpt lat="46.51393184311959" lon="7.069514472200357"><ele></ele><time>2016-7-22T21:0:34Z</time></trkpt>
<trkpt lat="46.51424850977608" lon="7.069657391262017"><ele></ele><time>2016-7-22T21:0:37Z</time></trkpt>
<trkpt lat="46.514552603295904" lon="7.069825204342971"><ele></ele><time>2016-7-22T21:0:40Z</time></trkpt>
<trkpt lat="46.51477966682692" lon="7.0700195863457544"><ele></ele><time>2016-7-22T21:0:43Z</time></trkpt>
<trkpt lat="46.51502500315573" lon="7.070192175768845"><ele></ele><time>2016-7-22T21:0:46Z</time></trkpt>
<trkpt lat="46.51511611359903" lon="7.070265938780529"><ele></ele><time>2016-7-22T21:0:49Z</time></trkpt>
<trkpt lat="46.51528433679237" lon="7.07040608838987"><ele></ele><time>2016-7-22T21:0:52Z</time></trkpt>
<trkpt lat="46.51544845277928" lon="7.070552775803593"><ele></ele><time>2016-7-22T21:0:55Z</time></trkpt>
<trkpt lat="46.51553151663475" lon="7.070623185860461"><ele></ele><time>2016-7-22T21:0:58Z</time></trkpt>
<trkpt lat="46.51567551701845" lon="7.0706853830333705"><ele></ele><time>2016-7-22T21:1:1Z</time></trkpt>
<trkpt lat="46.515783727195554" lon="7.070702065545231"><ele></ele><time>2016-7-22T21:1:4Z</time></trkpt>
<trkpt lat="46.51603233297915" lon="7.070830063211386"><ele></ele><time>2016-7-22T21:1:7Z</time></trkpt>
<trkpt lat="46.516077343356905" lon="7.070868788726639"><ele></ele><time>2016-7-22T21:1:10Z</time></trkpt>
<trkpt lat="46.51639819902544" lon="7.071182866726151"><ele></ele><time>2016-7-22T21:1:13Z</time></trkpt>
<trkpt lat="46.51669851981766" lon="7.071428128669366"><ele></ele><time>2016-7-22T21:1:16Z</time></trkpt>
<trkpt lat="46.51701007167728" lon="7.071733489250592"><ele></ele><time>2016-7-22T21:1:19Z</time></trkpt>
<trkpt lat="46.517402507356394" lon="7.072174806463452"><ele></ele><time>2016-7-22T21:1:22Z</time></trkpt>
<trkpt lat="46.51749261173221" lon="7.072269943348232"><ele></ele><time>2016-7-22T21:1:25Z</time></trkpt>
<trkpt lat="46.51759897763205" lon="7.072309592281255"><ele></ele><time>2016-7-22T21:1:28Z</time></trkpt>
<trkpt lat="46.517757897958184" lon="7.07235863017304"><ele></ele><time>2016-7-22T21:1:31Z</time></trkpt>
<trkpt lat="46.517786562781865" lon="7.072471535322076"><ele></ele><time>2016-7-22T21:1:34Z</time></trkpt>
<trkpt lat="46.517773067466436" lon="7.072511181504113"><ele></ele><time>2016-7-22T21:1:37Z</time></trkpt>
<trkpt lat="46.517766864742626" lon="7.0725213234875675"><ele></ele><time>2016-7-22T21:1:40Z</time></trkpt>
<trkpt lat="46.517736270150074" lon="7.072578068398434"><ele></ele><time>2016-7-22T21:1:43Z</time></trkpt>
<trkpt lat="46.51768438544238" lon="7.0726419374546685"><ele></ele><time>2016-7-22T21:1:46Z</time></trkpt>
<trkpt lat="46.51763685917368" lon="7.07271905004801"><ele></ele><time>2016-7-22T21:1:49Z</time></trkpt>
<trkpt lat="46.51759352439276" lon="7.072749056335065"><ele></ele><time>2016-7-22T21:1:52Z</time></trkpt>
<trkpt lat="46.51753895772042" lon="7.072791467609266"><ele></ele><time>2016-7-22T21:1:55Z</time></trkpt>
<trkpt lat="46.51748179232048" lon="7.072863550828418"><ele></ele><time>2016-7-22T21:1:58Z</time></trkpt>
<trkpt lat="46.51748489340241" lon="7.072883080778243"><ele></ele><time>2016-7-22T21:2:1Z</time></trkpt>
<trkpt lat="46.51749897480324" lon="7.072900347860985"><ele></ele><time>2016-7-22T21:2:4Z</time></trkpt>
<trkpt lat="46.517502242786904" lon="7.072984586253842"><ele></ele><time>2016-7-22T21:2:7Z</time></trkpt>
<trkpt lat="46.51750567868717" lon="7.073044349437786"><ele></ele><time>2016-7-22T21:2:10Z</time></trkpt>
<trkpt lat="46.51752311238868" lon="7.073102101281503"><ele></ele><time>2016-7-22T21:2:13Z</time></trkpt>
<trkpt lat="46.517546245753834" lon="7.073162535471031"><ele></ele><time>2016-7-22T21:2:16Z</time></trkpt>
<trkpt lat="46.517616401510985" lon="7.0732304306498115"><ele></ele><time>2016-7-22T21:2:19Z</time></trkpt>
<trkpt lat="46.51768345576191" lon="7.073316095432293"><ele></ele><time>2016-7-22T21:2:22Z</time></trkpt>
<trkpt lat="46.517732907879896" lon="7.073413745959598"><ele></ele><time>2016-7-22T21:2:25Z</time></trkpt>
<trkpt lat="46.51778160541032" lon="7.073530423432735"><ele></ele><time>2016-7-22T21:2:28Z</time></trkpt>
<trkpt lat="46.5178256930762" lon="7.073631091328718"><ele></ele><time>2016-7-22T21:2:31Z</time></trkpt>
<trkpt lat="46.517875983651784" lon="7.073705272492849"><ele></ele><time>2016-7-22T21:2:34Z</time></trkpt>
<trkpt lat="46.51796022079823" lon="7.073791524403091"><ele></ele><time>2016-7-22T21:2:37Z</time></trkpt>
<trkpt lat="46.518059880819315" lon="7.073862605387685"><ele></ele><time>2016-7-22T21:2:40Z</time></trkpt>
<trkpt lat="46.51809089377547" lon="7.073870149828626"><ele></ele><time>2016-7-22T21:2:43Z</time></trkpt>
<trkpt lat="46.51811243504376" lon="7.073889764020247"><ele></ele><time>2016-7-22T21:2:46Z</time></trkpt>
<trkpt lat="46.518209329324854" lon="7.073935531536375"><ele></ele><time>2016-7-22T21:2:49Z</time></trkpt>
<trkpt lat="46.51827051707371" lon="7.073948273460738"><ele></ele><time>2016-7-22T21:2:52Z</time></trkpt>
<trkpt lat="46.518254172205104" lon="7.073962103257478"><ele></ele><time>2016-7-22T21:2:55Z</time></trkpt>
<trkpt lat="46.518300691422226" lon="7.073992530701136"><ele></ele><time>2016-7-22T21:2:58Z</time></trkpt>
<trkpt lat="46.518358526396526" lon="7.074006446017652"><ele></ele><time>2016-7-22T21:3:1Z</time></trkpt>
<trkpt lat="46.51850202408307" lon="7.074050202940451"><ele></ele><time>2016-7-22T21:3:4Z</time></trkpt>
<trkpt lat="46.51866387853456" lon="7.074059091488105"><ele></ele><time>2016-7-22T21:3:7Z</time></trkpt>
<trkpt lat="46.51887811938661" lon="7.074111567231032"><ele></ele><time>2016-7-22T21:3:10Z</time></trkpt>
<trkpt lat="46.51917827435318" lon="7.074198829919031"><ele></ele><time>2016-7-22T21:3:13Z</time></trkpt>
<trkpt lat="46.51925815326047" lon="7.074254403892588"><ele></ele><time>2016-7-22T21:3:16Z</time></trkpt>
<trkpt lat="46.51941648583739" lon="7.0743932121490944"><ele></ele><time>2016-7-22T21:3:19Z</time></trkpt>
<trkpt lat="46.51950910506766" lon="7.074463790054463"><ele></ele><time>2016-7-22T21:3:22Z</time></trkpt>
<trkpt lat="46.51963441392425" lon="7.074516515214993"><ele></ele><time>2016-7-22T21:3:25Z</time></trkpt>
<trkpt lat="46.51973055403345" lon="7.074544932133358"><ele></ele><time>2016-7-22T21:3:28Z</time></trkpt>
<trkpt lat="46.51980942772084" lon="7.07454702942118"><ele></ele><time>2016-7-22T21:3:31Z</time></trkpt>
<trkpt lat="46.51989140269445" lon="7.074550719345214"><ele></ele><time>2016-7-22T21:3:34Z</time></trkpt>
<trkpt lat="46.52003557011821" lon="7.074666476989911"><ele></ele><time>2016-7-22T21:3:37Z</time></trkpt>
<trkpt lat="46.52007312054466" lon="7.074710566759371"><ele></ele><time>2016-7-22T21:3:40Z</time></trkpt>
<trkpt lat="46.520166158846344" lon="7.074783323972859"><ele></ele><time>2016-7-22T21:3:43Z</time></trkpt>
<trkpt lat="46.52019138824912" lon="7.074794472506956"><ele></ele><time>2016-7-22T21:3:46Z</time></trkpt>
<trkpt lat="46.52029331174869" lon="7.074833786055532"><ele></ele><time>2016-7-22T21:3:49Z</time></trkpt>
<trkpt lat="46.52043312119411" lon="7.0748958154800805"><ele></ele><time>2016-7-22T21:3:52Z</time></trkpt>
<trkpt lat="46.52056027373794" lon="7.074977877407575"><ele></ele><time>2016-7-22T21:3:55Z</time></trkpt>
<trkpt lat="46.52070821334185" lon="7.075065304240848"><ele></ele><time>2016-7-22T21:3:58Z</time></trkpt>
<trkpt lat="46.52083352165801" lon="7.075165806353372"><ele></ele><time>2016-7-22T21:4:1Z</time></trkpt>
<trkpt lat="46.52096528392789" lon="7.075276199281027"><ele></ele><time>2016-7-22T21:4:4Z</time></trkpt>
<trkpt lat="46.52108556305493" lon="7.0753808922384795"><ele></ele><time>2016-7-22T21:4:7Z</time></trkpt>
<trkpt lat="46.52115085732602" lon="7.07544761383092"><ele></ele><time>2016-7-22T21:4:10Z</time></trkpt>
<trkpt lat="46.521236100612434" lon="7.075506875969673"><ele></ele><time>2016-7-22T21:4:13Z</time></trkpt>
<trkpt lat="46.52133726907322" lon="7.075605114408982"><ele></ele><time>2016-7-22T21:4:16Z</time></trkpt>
<trkpt lat="46.5214469871178" lon="7.075699664998185"><ele></ele><time>2016-7-22T21:4:19Z</time></trkpt>
<trkpt lat="46.52155460962293" lon="7.075799831426651"><ele></ele><time>2016-7-22T21:4:22Z</time></trkpt>
<trkpt lat="46.52167748700358" lon="7.075916678228189"><ele></ele><time>2016-7-22T21:4:25Z</time></trkpt>
<trkpt lat="46.5218238333703" lon="7.076063868122986"><ele></ele><time>2016-7-22T21:4:28Z</time></trkpt>
<trkpt lat="46.52193229378983" lon="7.076188425961553"><ele></ele><time>2016-7-22T21:4:31Z</time></trkpt>
<trkpt lat="46.522104372545606" lon="7.07634056177787"><ele></ele><time>2016-7-22T21:4:34Z</time></trkpt>
<trkpt lat="46.52230126043676" lon="7.0766072790297665"><ele></ele><time>2016-7-22T21:4:37Z</time></trkpt>
<trkpt lat="46.52232908776934" lon="7.076659079942122"><ele></ele><time>2016-7-22T21:4:40Z</time></trkpt>
<trkpt lat="46.52246722007808" lon="7.076788164695331"><ele></ele><time>2016-7-22T21:4:43Z</time></trkpt>
<trkpt lat="46.52258431444589" lon="7.076861090092054"><ele></ele><time>2016-7-22T21:4:46Z</time></trkpt>
<trkpt lat="46.52271507182294" lon="7.076889423978232"><ele></ele><time>2016-7-22T21:4:49Z</time></trkpt>
<trkpt lat="46.52284289528761" lon="7.07693946697402"><ele></ele><time>2016-7-22T21:4:52Z</time></trkpt>
<trkpt lat="46.522959821848794" lon="7.0770273121865594"><ele></ele><time>2016-7-22T21:4:55Z</time></trkpt>
<trkpt lat="46.52307087999194" lon="7.077210878808569"><ele></ele><time>2016-7-22T21:4:58Z</time></trkpt>
<trkpt lat="46.52309418110368" lon="7.077262092882086"><ele></ele><time>2016-7-22T21:5:1Z</time></trkpt>
<trkpt lat="46.52316500650168" lon="7.077411041247461"><ele></ele><time>2016-7-22T21:5:4Z</time></trkpt>
<trkpt lat="46.523179087865316" lon="7.077431744915647"><ele></ele><time>2016-7-22T21:5:7Z</time></trkpt>
<trkpt lat="46.52327246156188" lon="7.077494527643011"><ele></ele><time>2016-7-22T21:5:10Z</time></trkpt>
<trkpt lat="46.52338318641726" lon="7.0775028282771295"><ele></ele><time>2016-7-22T21:5:13Z</time></trkpt>
<trkpt lat="46.52354738769955" lon="7.077521691355037"><ele></ele><time>2016-7-22T21:5:16Z</time></trkpt>
<trkpt lat="46.52370530233955" lon="7.077559497431585"><ele></ele><time>2016-7-22T21:5:19Z</time></trkpt>
<trkpt lat="46.52383572409758" lon="7.077618257682972"><ele></ele><time>2016-7-22T21:5:22Z</time></trkpt>
<trkpt lat="46.52389246852824" lon="7.077711633585258"><ele></ele><time>2016-7-22T21:5:25Z</time></trkpt>
<trkpt lat="46.523991457168385" lon="7.077856726908378"><ele></ele><time>2016-7-22T21:5:28Z</time></trkpt>
<trkpt lat="46.52409639675256" lon="7.078020176775032"><ele></ele><time>2016-7-22T21:5:31Z</time></trkpt>
<trkpt lat="46.52416512698336" lon="7.0781420514834155"><ele></ele><time>2016-7-22T21:5:34Z</time></trkpt>
<trkpt lat="46.52419991126432" lon="7.078196786225255"><ele></ele><time>2016-7-22T21:5:37Z</time></trkpt>
<trkpt lat="46.52423637239723" lon="7.078209946675166"><ele></ele><time>2016-7-22T21:5:40Z</time></trkpt>
<trkpt lat="46.52440761382356" lon="7.078286812807864"><ele></ele><time>2016-7-22T21:5:43Z</time></trkpt>
<trkpt lat="46.524696871640444" lon="7.078435849979844"><ele></ele><time>2016-7-22T21:5:46Z</time></trkpt>
<trkpt lat="46.52482410806822" lon="7.078513050382755"><ele></ele><time>2016-7-22T21:5:49Z</time></trkpt>
<trkpt lat="46.524917900832236" lon="7.078578515331396"><ele></ele><time>2016-7-22T21:5:52Z</time></trkpt>
<trkpt lat="46.52505209361697" lon="7.07871078511574"><ele></ele><time>2016-7-22T21:5:55Z</time></trkpt>
<trkpt lat="46.52522844729773" lon="7.078850264314979"><ele></ele><time>2016-7-22T21:5:58Z</time></trkpt>
<trkpt lat="46.525506389650545" lon="7.07899024874913"><ele></ele><time>2016-7-22T21:6:1Z</time></trkpt>
<trkpt lat="46.525670673686975" lon="7.079103576076717"><ele></ele><time>2016-7-22T21:6:4Z</time></trkpt>
<trkpt lat="46.52580880590312" lon="7.079241629474134"><ele></ele><time>2016-7-22T21:6:7Z</time></trkpt>
<trkpt lat="46.52590268117912" lon="7.0794226811162595"><ele></ele><time>2016-7-22T21:6:10Z</time></trkpt>
<trkpt lat="46.52591726479457" lon="7.079501974423983"><ele></ele><time>2016-7-22T21:6:13Z</time></trkpt>
<trkpt lat="46.52596973388033" lon="7.0796463123052815"><ele></ele><time>2016-7-22T21:6:16Z</time></trkpt>
<trkpt lat="46.52606260395105" lon="7.079772378520447"><ele></ele><time>2016-7-22T21:6:19Z</time></trkpt>
<trkpt lat="46.526180703121824" lon="7.079936583052589"><ele></ele><time>2016-7-22T21:6:22Z</time></trkpt>
<trkpt lat="46.526282457644434" lon="7.080095087504734"><ele></ele><time>2016-7-22T21:6:25Z</time></trkpt>
<trkpt lat="46.52634758372138" lon="7.080211597695439"><ele></ele><time>2016-7-22T21:6:28Z</time></trkpt>
<trkpt lat="46.526389240654595" lon="7.080311511146451"><ele></ele><time>2016-7-22T21:6:31Z</time></trkpt>
<trkpt lat="46.52643240580817" lon="7.080457609017379"><ele></ele><time>2016-7-22T21:6:34Z</time></trkpt>
<trkpt lat="46.52653541734155" lon="7.080640504887465"><ele></ele><time>2016-7-22T21:6:37Z</time></trkpt>
<trkpt lat="46.52660272296842" lon="7.080734551578325"><ele></ele><time>2016-7-22T21:6:40Z</time></trkpt>
<trkpt lat="46.52660599137068" lon="7.080782328603423"><ele></ele><time>2016-7-22T21:6:43Z</time></trkpt>
<trkpt lat="46.52660481742914" lon="7.0808243220015825"><ele></ele><time>2016-7-22T21:6:46Z</time></trkpt>
<trkpt lat="46.52661219338538" lon="7.080834883390493"><ele></ele><time>2016-7-22T21:6:49Z</time></trkpt>
<trkpt lat="46.526628956669555" lon="7.0808812357968325"><ele></ele><time>2016-7-22T21:6:52Z</time></trkpt>
<trkpt lat="46.52666365644197" lon="7.080997158557772"><ele></ele><time>2016-7-22T21:6:55Z</time></trkpt>
<trkpt lat="46.52679240114654" lon="7.081116017136001"><ele></ele><time>2016-7-22T21:6:58Z</time></trkpt>
<trkpt lat="46.52700680862363" lon="7.081260442526781"><ele></ele><time>2016-7-22T21:7:1Z</time></trkpt>
<trkpt lat="46.527346357474556" lon="7.081445355448973"><ele></ele><time>2016-7-22T21:7:4Z</time></trkpt>
<trkpt lat="46.52776218040512" lon="7.081740995284805"><ele></ele><time>2016-7-22T21:7:7Z</time></trkpt>
<trkpt lat="46.52831898762377" lon="7.081978803075754"><ele></ele><time>2016-7-22T21:7:10Z</time></trkpt>
<trkpt lat="46.52836969760165" lon="7.082026916457819"><ele></ele><time>2016-7-22T21:7:13Z</time></trkpt>
<trkpt lat="46.52854646965559" lon="7.082231355538201"><ele></ele><time>2016-7-22T21:7:16Z</time></trkpt>
<trkpt lat="46.52879214063522" lon="7.082464965272191"><ele></ele><time>2016-7-22T21:7:19Z</time></trkpt>
<trkpt lat="46.52882684139294" lon="7.0824938836899465"><ele></ele><time>2016-7-22T21:7:22Z</time></trkpt>
<trkpt lat="46.52886338629654" lon="7.0825115703757"><ele></ele><time>2016-7-22T21:7:25Z</time></trkpt>
<trkpt lat="46.5289227297729" lon="7.082547613987616"><ele></ele><time>2016-7-22T21:7:28Z</time></trkpt>
<trkpt lat="46.52897880412389" lon="7.0825998346322745"><ele></ele><time>2016-7-22T21:7:31Z</time></trkpt>
<trkpt lat="46.52900386568594" lon="7.082629255745521"><ele></ele><time>2016-7-22T21:7:34Z</time></trkpt>
<trkpt lat="46.529100925871624" lon="7.082830088780664"><ele></ele><time>2016-7-22T21:7:37Z</time></trkpt>
<trkpt lat="46.529266800439366" lon="7.083124297980848"><ele></ele><time>2016-7-22T21:7:40Z</time></trkpt>
<trkpt lat="46.52932002408984" lon="7.083252123485824"><ele></ele><time>2016-7-22T21:7:43Z</time></trkpt>
<trkpt lat="46.52939537653227" lon="7.08332999324637"><ele></ele><time>2016-7-22T21:7:46Z</time></trkpt>
<trkpt lat="46.52945430137582" lon="7.083325133074137"><ele></ele><time>2016-7-22T21:7:49Z</time></trkpt>
<trkpt lat="46.529766526849116" lon="7.083366798330424"><ele></ele><time>2016-7-22T21:7:52Z</time></trkpt>
<trkpt lat="46.53012728199311" lon="7.083546514925858"><ele></ele><time>2016-7-22T21:7:55Z</time></trkpt>
<trkpt lat="46.53046364640863" lon="7.083671999937044"><ele></ele><time>2016-7-22T21:7:58Z</time></trkpt>
<trkpt lat="46.53073044130186" lon="7.083772253781992"><ele></ele><time>2016-7-22T21:8:1Z</time></trkpt>
<trkpt lat="46.530841331352676" lon="7.083998065248867"><ele></ele><time>2016-7-22T21:8:4Z</time></trkpt>
<trkpt lat="46.531021791605276" lon="7.084189093327589"><ele></ele><time>2016-7-22T21:8:7Z</time></trkpt>
<trkpt lat="46.53108465513308" lon="7.084256233942472"><ele></ele><time>2016-7-22T21:8:10Z</time></trkpt>
<trkpt lat="46.531471642746645" lon="7.084693108449894"><ele></ele><time>2016-7-22T21:8:13Z</time></trkpt>
<trkpt lat="46.53176550766644" lon="7.085106511456984"><ele></ele><time>2016-7-22T21:8:16Z</time></trkpt>
<trkpt lat="46.531807248256854" lon="7.085221428537095"><ele></ele><time>2016-7-22T21:8:19Z</time></trkpt>
<trkpt lat="46.53198494195626" lon="7.085459395302038"><ele></ele><time>2016-7-22T21:8:22Z</time></trkpt>
<trkpt lat="46.532064904492046" lon="7.08553357711685"><ele></ele><time>2016-7-22T21:8:25Z</time></trkpt>
<trkpt lat="46.53220932284275" lon="7.08569945860728"><ele></ele><time>2016-7-22T21:8:28Z</time></trkpt>
<trkpt lat="46.532377965253026" lon="7.0858339084458155"><ele></ele><time>2016-7-22T21:8:31Z</time></trkpt>
<trkpt lat="46.53281164144215" lon="7.08615067107728"><ele></ele><time>2016-7-22T21:8:34Z</time></trkpt>
<trkpt lat="46.53322117754555" lon="7.08648545428496"><ele></ele><time>2016-7-22T21:8:37Z</time></trkpt>
<trkpt lat="46.53363146877091" lon="7.086753852696548"><ele></ele><time>2016-7-22T21:8:40Z</time></trkpt>
<trkpt lat="46.534008399673766" lon="7.087052760537016"><ele></ele><time>2016-7-22T21:8:43Z</time></trkpt>
<trkpt lat="46.53407260435014" lon="7.087116380770261"><ele></ele><time>2016-7-22T21:8:46Z</time></trkpt>
<trkpt lat="46.53447174748467" lon="7.087399279643385"><ele></ele><time>2016-7-22T21:8:49Z</time></trkpt>
<trkpt lat="46.53460493529698" lon="7.087457872289982"><ele></ele><time>2016-7-22T21:8:52Z</time></trkpt>
<trkpt lat="46.53473451937321" lon="7.087473549422982"><ele></ele><time>2016-7-22T21:8:55Z</time></trkpt>
<trkpt lat="46.53479319273056" lon="7.087471622913481"><ele></ele><time>2016-7-22T21:8:58Z</time></trkpt>
<trkpt lat="46.53495999397475" lon="7.087353190168277"><ele></ele><time>2016-7-22T21:9:1Z</time></trkpt>
<trkpt lat="46.535012633038725" lon="7.087290997515721"><ele></ele><time>2016-7-22T21:9:4Z</time></trkpt>
<trkpt lat="46.535236181803846" lon="7.086992857691766"><ele></ele><time>2016-7-22T21:9:7Z</time></trkpt>
<trkpt lat="46.53537029407784" lon="7.0868336880740985"><ele></ele><time>2016-7-22T21:9:10Z</time></trkpt>
<trkpt lat="46.53553131170924" lon="7.086724140035295"><ele></ele><time>2016-7-22T21:9:13Z</time></trkpt>
<trkpt lat="46.53574815219649" lon="7.086670835948822"><ele></ele><time>2016-7-22T21:9:16Z</time></trkpt>
<trkpt lat="46.53590866353556" lon="7.08686144445722"><ele></ele><time>2016-7-22T21:9:19Z</time></trkpt>
<trkpt lat="46.53591276707589" lon="7.087180711886058"><ele></ele><time>2016-7-22T21:9:22Z</time></trkpt>
<trkpt lat="46.53587865021851" lon="7.087403167270311"><ele></ele><time>2016-7-22T21:9:25Z</time></trkpt>
<trkpt lat="46.535869093542345" lon="7.087519089008085"><ele></ele><time>2016-7-22T21:9:28Z</time></trkpt>
<trkpt lat="46.535875546341074" lon="7.0876318259797015"><ele></ele><time>2016-7-22T21:9:31Z</time></trkpt>
<trkpt lat="46.53598190972854" lon="7.087897619079692"><ele></ele><time>2016-7-22T21:9:34Z</time></trkpt>
<trkpt lat="46.536132782528576" lon="7.0880304759368595"><ele></ele><time>2016-7-22T21:9:37Z</time></trkpt>
<trkpt lat="46.53623386793542" lon="7.0880634191767085"><ele></ele><time>2016-7-22T21:9:40Z</time></trkpt>
<trkpt lat="46.53640217600393" lon="7.0881158099964034"><ele></ele><time>2016-7-22T21:9:43Z</time></trkpt>
<trkpt lat="46.53646260922237" lon="7.088144142257461"><ele></ele><time>2016-7-22T21:9:46Z</time></trkpt>
<trkpt lat="46.53655833021123" lon="7.088177001556016"><ele></ele><time>2016-7-22T21:9:49Z</time></trkpt>
<trkpt lat="46.53656671214007" lon="7.0881749062662145"><ele></ele><time>2016-7-22T21:9:52Z</time></trkpt>
<trkpt lat="46.53657006486167" lon="7.0881785105678965"><ele></ele><time>2016-7-22T21:9:55Z</time></trkpt>
<trkpt lat="46.536609626350995" lon="7.088276663748814"><ele></ele><time>2016-7-22T21:9:58Z</time></trkpt>
<trkpt lat="46.53656427889098" lon="7.08839694327196"><ele></ele><time>2016-7-22T21:10:1Z</time></trkpt>
<trkpt lat="46.53646000675574" lon="7.088506660239217"><ele></ele><time>2016-7-22T21:10:4Z</time></trkpt>
<trkpt lat="46.53638833945209" lon="7.088685780244316"><ele></ele><time>2016-7-22T21:10:7Z</time></trkpt>
<trkpt lat="46.53633427451436" lon="7.088832462618522"><ele></ele><time>2016-7-22T21:10:10Z</time></trkpt>
<trkpt lat="46.53633854704972" lon="7.089031449497139"><ele></ele><time>2016-7-22T21:10:13Z</time></trkpt>
<trkpt lat="46.536361763437235" lon="7.089164051998662"><ele></ele><time>2016-7-22T21:10:16Z</time></trkpt>
<trkpt lat="46.536448598973784" lon="7.089253237596992"><ele></ele><time>2016-7-22T21:10:19Z</time></trkpt>
<trkpt lat="46.536559993147414" lon="7.089373185398415"><ele></ele><time>2016-7-22T21:10:22Z</time></trkpt>
<trkpt lat="46.536667028800224" lon="7.089486930479826"><ele></ele><time>2016-7-22T21:10:25Z</time></trkpt>
<trkpt lat="46.53673559138835" lon="7.089611319727055"><ele></ele><time>2016-7-22T21:10:28Z</time></trkpt>
<trkpt lat="46.536836759239094" lon="7.089766806636318"><ele></ele><time>2016-7-22T21:10:31Z</time></trkpt>
<trkpt lat="46.53695804328932" lon="7.089955570223376"><ele></ele><time>2016-7-22T21:10:34Z</time></trkpt>
<trkpt lat="46.537049907660716" lon="7.090072332450587"><ele></ele><time>2016-7-22T21:10:37Z</time></trkpt>
<trkpt lat="46.53716515726031" lon="7.090214743882489"><ele></ele><time>2016-7-22T21:10:40Z</time></trkpt>
<trkpt lat="46.53722483577433" lon="7.090272831940091"><ele></ele><time>2016-7-22T21:10:43Z</time></trkpt>
<trkpt lat="46.537266074164364" lon="7.09032488459739"><ele></ele><time>2016-7-22T21:10:46Z</time></trkpt>
<trkpt lat="46.53735902766954" lon="7.090487495950273"><ele></ele><time>2016-7-22T21:10:49Z</time></trkpt>
<trkpt lat="46.53744544355978" lon="7.090625967225263"><ele></ele><time>2016-7-22T21:10:52Z</time></trkpt>
<trkpt lat="46.53751509549275" lon="7.090777513915215"><ele></ele><time>2016-7-22T21:10:55Z</time></trkpt>
<trkpt lat="46.53758307081728" lon="7.090949344813071"><ele></ele><time>2016-7-22T21:10:58Z</time></trkpt>
<trkpt lat="46.537642915678816" lon="7.091122516633654"><ele></ele><time>2016-7-22T21:11:1Z</time></trkpt>
<trkpt lat="46.5376875063539" lon="7.091217149519128"><ele></ele><time>2016-7-22T21:11:4Z</time></trkpt>
<trkpt lat="46.537709718148434" lon="7.091239865025049"><ele></ele><time>2016-7-22T21:11:7Z</time></trkpt>
<trkpt lat="46.53777459388106" lon="7.09125906109076"><ele></ele><time>2016-7-22T21:11:10Z</time></trkpt>
<trkpt lat="46.53783586549222" lon="7.091269539878141"><ele></ele><time>2016-7-22T21:11:13Z</time></trkpt>
<trkpt lat="46.537876935677936" lon="7.091372135507417"><ele></ele><time>2016-7-22T21:11:16Z</time></trkpt>
<trkpt lat="46.53791624650605" lon="7.0913996290947345"><ele></ele><time>2016-7-22T21:11:19Z</time></trkpt>
<trkpt lat="46.53799545363689" lon="7.0915668501894205"><ele></ele><time>2016-7-22T21:11:22Z</time></trkpt>
<trkpt lat="46.53813467567645" lon="7.091692582139166"><ele></ele><time>2016-7-22T21:11:25Z</time></trkpt>
<trkpt lat="46.538221595145075" lon="7.091772044706942"><ele></ele><time>2016-7-22T21:11:28Z</time></trkpt>
<trkpt lat="46.53834103603213" lon="7.091884951870765"><ele></ele><time>2016-7-22T21:11:31Z</time></trkpt>
<trkpt lat="46.538442372048706" lon="7.091993835302894"><ele></ele><time>2016-7-22T21:11:34Z</time></trkpt>
<trkpt lat="46.538515460662424" lon="7.092136748689778"><ele></ele><time>2016-7-22T21:11:37Z</time></trkpt>
<trkpt lat="46.53854571848527" lon="7.092213108663928"><ele></ele><time>2016-7-22T21:11:40Z</time></trkpt>
<trkpt lat="46.538560302706756" lon="7.092239344402941"><ele></ele><time>2016-7-22T21:11:43Z</time></trkpt>
<trkpt lat="46.538573294110634" lon="7.092288378927738"><ele></ele><time>2016-7-22T21:11:46Z</time></trkpt>
<trkpt lat="46.538588213432654" lon="7.092330288864322"><ele></ele><time>2016-7-22T21:11:49Z</time></trkpt>
<trkpt lat="46.53867840159924" lon="7.09243171213457"><ele></ele><time>2016-7-22T21:11:52Z</time></trkpt>
<trkpt lat="46.538755430676936" lon="7.0924882918360215"><ele></ele><time>2016-7-22T21:11:55Z</time></trkpt>
<trkpt lat="46.53877831184645" lon="7.092616116630264"><ele></ele><time>2016-7-22T21:11:58Z</time></trkpt>
<trkpt lat="46.53881326379982" lon="7.092669007334784"><ele></ele><time>2016-7-22T21:12:1Z</time></trkpt>
<trkpt lat="46.538825920177565" lon="7.092695745945178"><ele></ele><time>2016-7-22T21:12:4Z</time></trkpt>
<trkpt lat="46.538897835669474" lon="7.092807981477731"><ele></ele><time>2016-7-22T21:12:7Z</time></trkpt>
<trkpt lat="46.5389421749637" lon="7.092895992638185"><ele></ele><time>2016-7-22T21:12:10Z</time></trkpt>
<trkpt lat="46.53894955093541" lon="7.092905380555156"><ele></ele><time>2016-7-22T21:12:13Z</time></trkpt>
<trkpt lat="46.53898441918919" lon="7.09294762621943"><ele></ele><time>2016-7-22T21:12:16Z</time></trkpt>
<trkpt lat="46.53899573425177" lon="7.092993140299609"><ele></ele><time>2016-7-22T21:12:19Z</time></trkpt>
<trkpt lat="46.53901635327838" lon="7.093034295991946"><ele></ele><time>2016-7-22T21:12:22Z</time></trkpt>
<trkpt lat="46.53906840420579" lon="7.093097329205707"><ele></ele><time>2016-7-22T21:12:25Z</time></trkpt>
<trkpt lat="46.53913872807619" lon="7.093125661684947"><ele></ele><time>2016-7-22T21:12:28Z</time></trkpt>
<trkpt lat="46.53920821263498" lon="7.093254074266657"><ele></ele><time>2016-7-22T21:12:31Z</time></trkpt>
<trkpt lat="46.53922011460949" lon="7.093283662712444"><ele></ele><time>2016-7-22T21:12:34Z</time></trkpt>
<trkpt lat="46.539264705442164" lon="7.0933644654269346"><ele></ele><time>2016-7-22T21:12:37Z</time></trkpt>
<trkpt lat="46.539323461099286" lon="7.0934984936518015"><ele></ele><time>2016-7-22T21:12:40Z</time></trkpt>
<trkpt lat="46.53938640772912" lon="7.09363076176807"><ele></ele><time>2016-7-22T21:12:43Z</time></trkpt>
<trkpt lat="46.53942948880738" lon="7.0938019215424175"><ele></ele><time>2016-7-22T21:12:46Z</time></trkpt>
<trkpt lat="46.53936184539417" lon="7.0939300795655935"><ele></ele><time>2016-7-22T21:12:49Z</time></trkpt>
<trkpt lat="46.539343405210275" lon="7.093929324775978"><ele></ele><time>2016-7-22T21:12:52Z</time></trkpt>
<trkpt lat="46.5392881691534" lon="7.093866710587047"><ele></ele><time>2016-7-22T21:12:55Z</time></trkpt>
<trkpt lat="46.53927425545947" lon="7.093842654162911"><ele></ele><time>2016-7-22T21:12:58Z</time></trkpt>
<trkpt lat="46.53921910379237" lon="7.093729077903813"><ele></ele><time>2016-7-22T21:13:1Z</time></trkpt>
<trkpt lat="46.539148361997896" lon="7.0935961390574604"><ele></ele><time>2016-7-22T21:13:4Z</time></trkpt>
<trkpt lat="46.539069321858015" lon="7.093486334121698"><ele></ele><time>2016-7-22T21:13:7Z</time></trkpt>
<trkpt lat="46.538977122197" lon="7.093370242448286"><ele></ele><time>2016-7-22T21:13:10Z</time></trkpt>
<trkpt lat="46.53888257524024" lon="7.093286504931774"><ele></ele><time>2016-7-22T21:13:13Z</time></trkpt>
<trkpt lat="46.53881267112914" lon="7.093198912289264"><ele></ele><time>2016-7-22T21:13:16Z</time></trkpt>
<trkpt lat="46.53877361180517" lon="7.093167143929928"><ele></ele><time>2016-7-22T21:13:19Z</time></trkpt>
<trkpt lat="46.538749472088135" lon="7.093151888289961"><ele></ele><time>2016-7-22T21:13:22Z</time></trkpt>
<trkpt lat="46.538735893473444" lon="7.0931454339046205"><ele></ele><time>2016-7-22T21:13:25Z</time></trkpt>
<trkpt lat="46.53869079927712" lon="7.093104780573748"><ele></ele><time>2016-7-22T21:13:28Z</time></trkpt>
<trkpt lat="46.53866758193873" lon="7.093056584009834"><ele></ele><time>2016-7-22T21:13:31Z</time></trkpt>
<trkpt lat="46.538625337062584" lon="7.093063037132552"><ele></ele><time>2016-7-22T21:13:34Z</time></trkpt>
<trkpt lat="46.53859834734371" lon="7.093061527776521"><ele></ele><time>2016-7-22T21:13:37Z</time></trkpt>
<trkpt lat="46.538567250778485" lon="7.093034369653001"><ele></ele><time>2016-7-22T21:13:40Z</time></trkpt>
<trkpt lat="46.5385606293943" lon="7.0930057033375125"><ele></ele><time>2016-7-22T21:13:43Z</time></trkpt>
<trkpt lat="46.538520563963885" lon="7.092998745437812"><ele></ele><time>2016-7-22T21:13:46Z</time></trkpt>
<trkpt lat="46.5384975137284" lon="7.0929983258204325"><ele></ele><time>2016-7-22T21:13:49Z</time></trkpt>
<trkpt lat="46.53843741606978" lon="7.092944428716625"><ele></ele><time>2016-7-22T21:13:52Z</time></trkpt>
<trkpt lat="46.53838645415758" lon="7.092937889666373"><ele></ele><time>2016-7-22T21:13:55Z</time></trkpt>
<trkpt lat="46.53835443549647" lon="7.092918442888094"><ele></ele><time>2016-7-22T21:13:58Z</time></trkpt>
<trkpt lat="46.53826567107788" lon="7.092921961286473"><ele></ele><time>2016-7-22T21:14:1Z</time></trkpt>
<trkpt lat="46.538210770324845" lon="7.092857000165775"><ele></ele><time>2016-7-22T21:14:4Z</time></trkpt>
<trkpt lat="46.538208675442064" lon="7.092804026384979"><ele></ele><time>2016-7-22T21:14:7Z</time></trkpt>
<trkpt lat="46.53818872775349" lon="7.092692797857371"><ele></ele><time>2016-7-22T21:14:10Z</time></trkpt>
<trkpt lat="46.538112034394935" lon="7.092596739320702"><ele></ele><time>2016-7-22T21:14:13Z</time></trkpt>
<trkpt lat="46.53807331031013" lon="7.092568323736215"><ele></ele><time>2016-7-22T21:14:16Z</time></trkpt>
<trkpt lat="46.538040453452105" lon="7.092549463673094"><ele></ele><time>2016-7-22T21:14:19Z</time></trkpt>
<trkpt lat="46.53799175476646" lon="7.092532950189063"><ele></ele><time>2016-7-22T21:14:22Z</time></trkpt>
<trkpt lat="46.5379835405489" lon="7.0925285075856666"><ele></ele><time>2016-7-22T21:14:25Z</time></trkpt>
<trkpt lat="46.537899218917346" lon="7.092498414585343"><ele></ele><time>2016-7-22T21:14:28Z</time></trkpt>
<trkpt lat="46.53780366550442" lon="7.092470835906746"><ele></ele><time>2016-7-22T21:14:31Z</time></trkpt>
<trkpt lat="46.53771381207763" lon="7.092417357224559"><ele></ele><time>2016-7-22T21:14:34Z</time></trkpt>
<trkpt lat="46.53768782830141" lon="7.092405705767904"><ele></ele><time>2016-7-22T21:14:37Z</time></trkpt>
<trkpt lat="46.53767215396352" lon="7.092421295784223"><ele></ele><time>2016-7-22T21:14:40Z</time></trkpt>
<trkpt lat="46.537649103758376" lon="7.092418193952252"><ele></ele><time>2016-7-22T21:14:43Z</time></trkpt>
<trkpt lat="46.53760861899738" lon="7.092432274661564"><ele></ele><time>2016-7-22T21:14:46Z</time></trkpt>
<trkpt lat="46.53757768968089" lon="7.092439901508784"><ele></ele><time>2016-7-22T21:14:49Z</time></trkpt>
<trkpt lat="46.5375363666937" lon="7.092457167328722"><ele></ele><time>2016-7-22T21:14:52Z</time></trkpt>
<trkpt lat="46.537520357185784" lon="7.092463285767988"><ele></ele><time>2016-7-22T21:14:55Z</time></trkpt>
<trkpt lat="46.53750828743366" lon="7.092446186378222"><ele></ele><time>2016-7-22T21:14:58Z</time></trkpt>
<trkpt lat="46.537493702933304" lon="7.092444844941"><ele></ele><time>2016-7-22T21:15:1Z</time></trkpt>
<trkpt lat="46.537482471258976" lon="7.092437803874097"><ele></ele><time>2016-7-22T21:15:4Z</time></trkpt>
<trkpt lat="46.5374625223805" lon="7.092432774270714"><ele></ele><time>2016-7-22T21:15:7Z</time></trkpt>
<trkpt lat="46.53741315297934" lon="7.0924308453119345"><ele></ele><time>2016-7-22T21:15:10Z</time></trkpt>
<trkpt lat="46.537410722614794" lon="7.092396227927602"><ele></ele><time>2016-7-22T21:15:13Z</time></trkpt>
<trkpt lat="46.537407621555026" lon="7.092374351046393"><ele></ele><time>2016-7-22T21:15:16Z</time></trkpt>
<trkpt lat="46.53738398469926" lon="7.092363873111562"><ele></ele><time>2016-7-22T21:15:19Z</time></trkpt>
<trkpt lat="46.537305530142845" lon="7.092356914342547"><ele></ele><time>2016-7-22T21:15:22Z</time></trkpt>
<trkpt lat="46.53729949525272" lon="7.092349621935616"><ele></ele><time>2016-7-22T21:15:25Z</time></trkpt>
<trkpt lat="46.53725498728442" lon="7.0923541471651435"><ele></ele><time>2016-7-22T21:15:28Z</time></trkpt>
<trkpt lat="46.53723537370196" lon="7.092347357366111"><ele></ele><time>2016-7-22T21:15:31Z</time></trkpt>
<trkpt lat="46.537178210112735" lon="7.092257669528847"><ele></ele><time>2016-7-22T21:15:34Z</time></trkpt>
<trkpt lat="46.53708927871516" lon="7.092202514482707"><ele></ele><time>2016-7-22T21:15:37Z</time></trkpt>
<trkpt lat="46.53701870342353" lon="7.0921711645046335"><ele></ele><time>2016-7-22T21:15:40Z</time></trkpt>
<trkpt lat="46.53697050862652" lon="7.092067814340375"><ele></ele><time>2016-7-22T21:15:43Z</time></trkpt>
<trkpt lat="46.536929522288915" lon="7.091962620316757"><ele></ele><time>2016-7-22T21:15:46Z</time></trkpt>
<trkpt lat="46.53691275915591" lon="7.091902186294148"><ele></ele><time>2016-7-22T21:15:49Z</time></trkpt>
<trkpt lat="46.53689515709172" lon="7.0919078017820745"><ele></ele><time>2016-7-22T21:15:52Z</time></trkpt>
<trkpt lat="46.536856432768026" lon="7.091900760092647"><ele></ele><time>2016-7-22T21:15:55Z</time></trkpt>
<trkpt lat="46.536839752828115" lon="7.091896149659051"><ele></ele><time>2016-7-22T21:15:58Z</time></trkpt>
<trkpt lat="46.53682198363436" lon="7.091856418955982"><ele></ele><time>2016-7-22T21:16:1Z</time></trkpt>
<trkpt lat="46.53680781822093" lon="7.091855831900898"><ele></ele><time>2016-7-22T21:16:4Z</time></trkpt>
<trkpt lat="46.53678887552567" lon="7.091819202481635"><ele></ele><time>2016-7-22T21:16:7Z</time></trkpt>
<trkpt lat="46.5367416010824" lon="7.091863541768251"><ele></ele><time>2016-7-22T21:16:10Z</time></trkpt>
<trkpt lat="46.53667538414695" lon="7.091853146688371"><ele></ele><time>2016-7-22T21:16:13Z</time></trkpt>
<trkpt lat="46.53667722867937" lon="7.09180738144682"><ele></ele><time>2016-7-22T21:16:16Z</time></trkpt>
<trkpt lat="46.53667203227971" lon="7.091773350733893"><ele></ele><time>2016-7-22T21:16:19Z</time></trkpt>
<trkpt lat="46.53665510097011" lon="7.091760945108941"><ele></ele><time>2016-7-22T21:16:22Z</time></trkpt>
<trkpt lat="46.53665711291692" lon="7.091735128840826"><ele></ele><time>2016-7-22T21:16:25Z</time></trkpt>
<trkpt lat="46.53660078651889" lon="7.091734624650365"><ele></ele><time>2016-7-22T21:16:28Z</time></trkpt>
<trkpt lat="46.53658712401231" lon="7.0917347081602395"><ele></ele><time>2016-7-22T21:16:31Z</time></trkpt>
<trkpt lat="46.53653892834637" lon="7.091708890755353"><ele></ele><time>2016-7-22T21:16:34Z</time></trkpt>
<trkpt lat="46.53646701196278" lon="7.091676451096518"><ele></ele><time>2016-7-22T21:16:37Z</time></trkpt>
<trkpt lat="46.53639610166735" lon="7.0916208773610485"><ele></ele><time>2016-7-22T21:16:40Z</time></trkpt>
<trkpt lat="46.53628755634281" lon="7.091589777979866"><ele></ele><time>2016-7-22T21:16:43Z</time></trkpt>
<trkpt lat="46.53618412454009" lon="7.091508806289901"><ele></ele><time>2016-7-22T21:16:46Z</time></trkpt>
<trkpt lat="46.536091169887804" lon="7.091448454360363"><ele></ele><time>2016-7-22T21:16:49Z</time></trkpt>
<trkpt lat="46.53598212197478" lon="7.091388353523803"><ele></ele><time>2016-7-22T21:16:52Z</time></trkpt>
<trkpt lat="46.53591607289535" lon="7.091358596211644"><ele></ele><time>2016-7-22T21:16:55Z</time></trkpt>
<trkpt lat="46.53589235222674" lon="7.0913476153590995"><ele></ele><time>2016-7-22T21:16:58Z</time></trkpt>
<trkpt lat="46.53576645703818" lon="7.091255998120953"><ele></ele><time>2016-7-22T21:17:1Z</time></trkpt>
<trkpt lat="46.53567911903892" lon="7.091126495476772"><ele></ele><time>2016-7-22T21:17:4Z</time></trkpt>
<trkpt lat="46.53556420380149" lon="7.091065640133587"><ele></ele><time>2016-7-22T21:17:7Z</time></trkpt>
<trkpt lat="46.53555213372069" lon="7.091077877463598"><ele></ele><time>2016-7-22T21:17:10Z</time></trkpt>
<trkpt lat="46.535545343552634" lon="7.091151386749512"><ele></ele><time>2016-7-22T21:17:13Z</time></trkpt>
<trkpt lat="46.53560720085527" lon="7.091254569587577"><ele></ele><time>2016-7-22T21:17:16Z</time></trkpt>
<trkpt lat="46.53563419020348" lon="7.091289019890635"><ele></ele><time>2016-7-22T21:17:19Z</time></trkpt>
<trkpt lat="46.5356978077365" lon="7.0913895205538715"><ele></ele><time>2016-7-22T21:17:22Z</time></trkpt>
<trkpt lat="46.53578833011634" lon="7.091585324258011"><ele></ele><time>2016-7-22T21:17:25Z</time></trkpt>
<trkpt lat="46.53589033613545" lon="7.091742906665945"><ele></ele><time>2016-7-22T21:17:28Z</time></trkpt>
<trkpt lat="46.536009776348614" lon="7.091915576924297"><ele></ele><time>2016-7-22T21:17:31Z</time></trkpt>
<trkpt lat="46.53618101713336" lon="7.092052876651878"><ele></ele><time>2016-7-22T21:17:34Z</time></trkpt>
<trkpt lat="46.536353264230286" lon="7.0921470933324215"><ele></ele><time>2016-7-22T21:17:37Z</time></trkpt>
<trkpt lat="46.536467760387374" lon="7.092206775194764"><ele></ele><time>2016-7-22T21:17:40Z</time></trkpt>
<trkpt lat="46.53661653802057" lon="7.092312558392955"><ele></ele><time>2016-7-22T21:17:43Z</time></trkpt>
<trkpt lat="46.53674980865293" lon="7.092460837574218"><ele></ele><time>2016-7-22T21:17:46Z</time></trkpt>
<trkpt lat="46.53695289933034" lon="7.092718586209865"><ele></ele><time>2016-7-22T21:17:49Z</time></trkpt>
<trkpt lat="46.53700151377079" lon="7.092773069789727"><ele></ele><time>2016-7-22T21:17:52Z</time></trkpt>
<trkpt lat="46.53710611682861" lon="7.093051603357175"><ele></ele><time>2016-7-22T21:17:55Z</time></trkpt>
<trkpt lat="46.53709454655393" lon="7.093341282249949"><ele></ele><time>2016-7-22T21:17:58Z</time></trkpt>
<trkpt lat="46.53710988435259" lon="7.093438429049401"><ele></ele><time>2016-7-22T21:18:1Z</time></trkpt>
<trkpt lat="46.53715204349372" lon="7.093602967091955"><ele></ele><time>2016-7-22T21:18:4Z</time></trkpt>
<trkpt lat="46.53722169559074" lon="7.093740180696861"><ele></ele><time>2016-7-22T21:18:7Z</time></trkpt>
<trkpt lat="46.53741674002127" lon="7.0939641500078965"><ele></ele><time>2016-7-22T21:18:10Z</time></trkpt>
<trkpt lat="46.53753928240755" lon="7.094059790484668"><ele></ele><time>2016-7-22T21:18:13Z</time></trkpt>
<trkpt lat="46.53773424347553" lon="7.0942431074803025"><ele></ele><time>2016-7-22T21:18:16Z</time></trkpt>
<trkpt lat="46.538036490976445" lon="7.09460135756736"><ele></ele><time>2016-7-22T21:18:19Z</time></trkpt>
<trkpt lat="46.53809843240712" lon="7.094677382980279"><ele></ele><time>2016-7-22T21:18:22Z</time></trkpt>
<trkpt lat="46.53829305809157" lon="7.094870506811307"><ele></ele><time>2016-7-22T21:18:25Z</time></trkpt>
<trkpt lat="46.53846186905042" lon="7.094925747476895"><ele></ele><time>2016-7-22T21:18:28Z</time></trkpt>
<trkpt lat="46.538867634458754" lon="7.0951616238664315"><ele></ele><time>2016-7-22T21:18:31Z</time></trkpt>
<trkpt lat="46.53901523899351" lon="7.095235136636835"><ele></ele><time>2016-7-22T21:18:34Z</time></trkpt>
<trkpt lat="46.53930055789724" lon="7.095339078885855"><ele></ele><time>2016-7-22T21:18:37Z</time></trkpt>
<trkpt lat="46.53968151277734" lon="7.095583252809991"><ele></ele><time>2016-7-22T21:18:40Z</time></trkpt>
<trkpt lat="46.53976021847868" lon="7.095618374830671"><ele></ele><time>2016-7-22T21:18:43Z</time></trkpt>
<trkpt lat="46.54005584687368" lon="7.095745199950138"><ele></ele><time>2016-7-22T21:18:46Z</time></trkpt>
<trkpt lat="46.54037343567176" lon="7.095889124680189"><ele></ele><time>2016-7-22T21:18:49Z</time></trkpt>
<trkpt lat="46.54046446169312" lon="7.096021058149548"><ele></ele><time>2016-7-22T21:18:52Z</time></trkpt>
<trkpt lat="46.54059823534593" lon="7.096160871587845"><ele></ele><time>2016-7-22T21:18:55Z</time></trkpt>
<trkpt lat="46.5406932013179" lon="7.096252152835444"><ele></ele><time>2016-7-22T21:18:58Z</time></trkpt>
<trkpt lat="46.54078682625818" lon="7.096336896155261"><ele></ele><time>2016-7-22T21:19:1Z</time></trkpt>
<trkpt lat="46.54084633745474" lon="7.096366820951136"><ele></ele><time>2016-7-22T21:19:4Z</time></trkpt>
<trkpt lat="46.541110701618635" lon="7.096469253973782"><ele></ele><time>2016-7-22T21:19:7Z</time></trkpt>
<trkpt lat="46.54118446178092" lon="7.096523738115083"><ele></ele><time>2016-7-22T21:19:10Z</time></trkpt>
<trkpt lat="46.54140021091288" lon="7.096624326017318"><ele></ele><time>2016-7-22T21:19:13Z</time></trkpt>
<trkpt lat="46.541465338364304" lon="7.096620471803861"><ele></ele><time>2016-7-22T21:19:16Z</time></trkpt>
<trkpt lat="46.54172584752995" lon="7.0966623872790535"><ele></ele><time>2016-7-22T21:19:19Z</time></trkpt>
<trkpt lat="46.54177571967134" lon="7.096680158073509"><ele></ele><time>2016-7-22T21:19:22Z</time></trkpt>
<trkpt lat="46.54188602481667" lon="7.096746042448936"><ele></ele><time>2016-7-22T21:19:25Z</time></trkpt>
<trkpt lat="46.54193061615146" lon="7.096782253346871"><ele></ele><time>2016-7-22T21:19:28Z</time></trkpt>
<trkpt lat="46.54201259050756" lon="7.096843443207973"><ele></ele><time>2016-7-22T21:19:31Z</time></trkpt>
<trkpt lat="46.542101018775895" lon="7.096918547200724"><ele></ele><time>2016-7-22T21:19:34Z</time></trkpt>
<trkpt lat="46.542119542581034" lon="7.096937071660468"><ele></ele><time>2016-7-22T21:19:37Z</time></trkpt>
<trkpt lat="46.54213605482521" lon="7.096946962697844"><ele></ele><time>2016-7-22T21:19:40Z</time></trkpt>
<trkpt lat="46.542206043192834" lon="7.096995914685878"><ele></ele><time>2016-7-22T21:19:43Z</time></trkpt>
<trkpt lat="46.5422963993476" lon="7.097066743942815"><ele></ele><time>2016-7-22T21:19:46Z</time></trkpt>
<trkpt lat="46.54238549769991" lon="7.097183841366117"><ele></ele><time>2016-7-22T21:19:49Z</time></trkpt>
<trkpt lat="46.54252354676882" lon="7.097266406385335"><ele></ele><time>2016-7-22T21:19:52Z</time></trkpt>
<trkpt lat="46.54261817778696" lon="7.0973291052762155"><ele></ele><time>2016-7-22T21:19:55Z</time></trkpt>
<trkpt lat="46.542731500633394" lon="7.097375878941704"><ele></ele><time>2016-7-22T21:19:58Z</time></trkpt>
<trkpt lat="46.54279486808781" lon="7.097353919742074"><ele></ele><time>2016-7-22T21:20:1Z</time></trkpt>
<trkpt lat="46.54282780872281" lon="7.097376803124665"><ele></ele><time>2016-7-22T21:20:4Z</time></trkpt>
<trkpt lat="46.54286016289021" lon="7.097375881843152"><ele></ele><time>2016-7-22T21:20:7Z</time></trkpt>
<trkpt lat="46.5429320793666" lon="7.097400693946069"><ele></ele><time>2016-7-22T21:20:10Z</time></trkpt>
<trkpt lat="46.54294213774365" lon="7.0973926475303575"><ele></ele><time>2016-7-22T21:20:13Z</time></trkpt>
<trkpt lat="46.54299209368534" lon="7.097412178528852"><ele></ele><time>2016-7-22T21:20:16Z</time></trkpt>
<trkpt lat="46.54300651051872" lon="7.097416202175214"><ele></ele><time>2016-7-22T21:20:19Z</time></trkpt>
<trkpt lat="46.54311346348594" lon="7.097429950934627"><ele></ele><time>2016-7-22T21:20:22Z</time></trkpt>
<trkpt lat="46.54319988035958" lon="7.097481669325222"><ele></ele><time>2016-7-22T21:20:25Z</time></trkpt>
<trkpt lat="46.54334698231165" lon="7.0975263482718285"><ele></ele><time>2016-7-22T21:20:28Z</time></trkpt>
<trkpt lat="46.543530378157755" lon="7.0975494865041036"><ele></ele><time>2016-7-22T21:20:31Z</time></trkpt>
<trkpt lat="46.5437188865927" lon="7.09760615252834"><ele></ele><time>2016-7-22T21:20:34Z</time></trkpt>
<trkpt lat="46.54401619153593" lon="7.097719566597906"><ele></ele><time>2016-7-22T21:20:37Z</time></trkpt>
<trkpt lat="46.54441340918996" lon="7.097798197954263"><ele></ele><time>2016-7-22T21:20:40Z</time></trkpt>
<trkpt lat="46.54492302699397" lon="7.097985629152665"><ele></ele><time>2016-7-22T21:20:43Z</time></trkpt>
<trkpt lat="46.54531177715973" lon="7.098222678584762"><ele></ele><time>2016-7-22T21:20:46Z</time></trkpt>
<trkpt lat="46.54551512070273" lon="7.098357380605527"><ele></ele><time>2016-7-22T21:20:49Z</time></trkpt>
<trkpt lat="46.545635735686034" lon="7.0984154700219495"><ele></ele><time>2016-7-22T21:20:52Z</time></trkpt>
<trkpt lat="46.545772779368605" lon="7.098458975269306"><ele></ele><time>2016-7-22T21:20:55Z</time></trkpt>
<trkpt lat="46.54587990001523" lon="7.098469371262393"><ele></ele><time>2016-7-22T21:20:58Z</time></trkpt>
<trkpt lat="46.54599012110712" lon="7.098556880979588"><ele></ele><time>2016-7-22T21:21:1Z</time></trkpt>
<trkpt lat="46.546048290334646" lon="7.09866467376769"><ele></ele><time>2016-7-22T21:21:4Z</time></trkpt>
<trkpt lat="46.5461342877335" lon="7.098750758012459"><ele></ele><time>2016-7-22T21:21:7Z</time></trkpt>
<trkpt lat="46.546301422382356" lon="7.098801304748477"><ele></ele><time>2016-7-22T21:21:10Z</time></trkpt>
<trkpt lat="46.54644173541823" lon="7.098808181082628"><ele></ele><time>2016-7-22T21:21:13Z</time></trkpt>
<trkpt lat="46.54661297752533" lon="7.098829726471444"><ele></ele><time>2016-7-22T21:21:16Z</time></trkpt>
<trkpt lat="46.54707658024092" lon="7.098877094755303"><ele></ele><time>2016-7-22T21:21:19Z</time></trkpt>
<trkpt lat="46.5475551857512" lon="7.098998056622882"><ele></ele><time>2016-7-22T21:21:22Z</time></trkpt>
<trkpt lat="46.54796589777298" lon="7.099123375557351"><ele></ele><time>2016-7-22T21:21:25Z</time></trkpt>
<trkpt lat="46.548424888849176" lon="7.099314158361948"><ele></ele><time>2016-7-22T21:21:28Z</time></trkpt>
<trkpt lat="46.5488101192061" lon="7.0994999103520895"><ele></ele><time>2016-7-22T21:21:31Z</time></trkpt>
<trkpt lat="46.54926022589366" lon="7.099652387583668"><ele></ele><time>2016-7-22T21:21:34Z</time></trkpt>
<trkpt lat="46.54971133959905" lon="7.099698414470684"><ele></ele><time>2016-7-22T21:21:37Z</time></trkpt>
<trkpt lat="46.54991593997055" lon="7.099875361375104"><ele></ele><time>2016-7-22T21:21:40Z</time></trkpt>
<trkpt lat="46.54993831897792" lon="7.099936717522038"><ele></ele><time>2016-7-22T21:21:43Z</time></trkpt>
<trkpt lat="46.54991711132503" lon="7.100064960397554"><ele></ele><time>2016-7-22T21:21:46Z</time></trkpt>
<trkpt lat="46.54989707749501" lon="7.100161268190134"><ele></ele><time>2016-7-22T21:21:49Z</time></trkpt>
<trkpt lat="46.549891461266384" lon="7.100192784077275"><ele></ele><time>2016-7-22T21:21:52Z</time></trkpt>
<trkpt lat="46.549895986957274" lon="7.100241147848781"><ele></ele><time>2016-7-22T21:21:55Z</time></trkpt>
<trkpt lat="46.5499642146399" lon="7.100334356317441"><ele></ele><time>2016-7-22T21:21:58Z</time></trkpt>
<trkpt lat="46.55008130939172" lon="7.100377944928003"><ele></ele><time>2016-7-22T21:22:1Z</time></trkpt>
<trkpt lat="46.55018306572023" lon="7.100379707420238"><ele></ele><time>2016-7-22T21:22:4Z</time></trkpt>
<trkpt lat="46.55029471250747" lon="7.100398653067778"><ele></ele><time>2016-7-22T21:22:7Z</time></trkpt>
<trkpt lat="46.550534016224624" lon="7.100373680334719"><ele></ele><time>2016-7-22T21:22:10Z</time></trkpt>
<trkpt lat="46.55070760567812" lon="7.100359015882936"><ele></ele><time>2016-7-22T21:22:13Z</time></trkpt>
<trkpt lat="46.55076393199303" lon="7.100367901983651"><ele></ele><time>2016-7-22T21:22:16Z</time></trkpt>
<trkpt lat="46.550966437040955" lon="7.100531437766752"><ele></ele><time>2016-7-22T21:22:19Z</time></trkpt>
<trkpt lat="46.55101337504912" lon="7.100591620996424"><ele></ele><time>2016-7-22T21:22:22Z</time></trkpt>
<trkpt lat="46.5512799162362" lon="7.1009015903316755"><ele></ele><time>2016-7-22T21:22:25Z</time></trkpt>
<trkpt lat="46.551335906857226" lon="7.100948027418363"><ele></ele><time>2016-7-22T21:22:28Z</time></trkpt>
<trkpt lat="46.5516669879665" lon="7.101326562293461"><ele></ele><time>2016-7-22T21:22:31Z</time></trkpt>
<trkpt lat="46.551781986600865" lon="7.1014279860900045"><ele></ele><time>2016-7-22T21:22:34Z</time></trkpt>
<trkpt lat="46.551916515458316" lon="7.101495295917955"><ele></ele><time>2016-7-22T21:22:37Z</time></trkpt>
<trkpt lat="46.55207577164582" lon="7.101499322818814"><ele></ele><time>2016-7-22T21:22:40Z</time></trkpt>
<trkpt lat="46.552155651041105" lon="7.101515334078308"><ele></ele><time>2016-7-22T21:22:43Z</time></trkpt>
<trkpt lat="46.55222865717763" lon="7.1015398947398305"><ele></ele><time>2016-7-22T21:22:46Z</time></trkpt>
<trkpt lat="46.55243384497566" lon="7.101655402184944"><ele></ele><time>2016-7-22T21:22:49Z</time></trkpt>
<trkpt lat="46.55250165399344" lon="7.10171022145403"><ele></ele><time>2016-7-22T21:22:52Z</time></trkpt>
<trkpt lat="46.552928121580756" lon="7.102055649885695"><ele></ele><time>2016-7-22T21:22:55Z</time></trkpt>
<trkpt lat="46.5529848662562" lon="7.102130753147231"><ele></ele><time>2016-7-22T21:22:58Z</time></trkpt>
<trkpt lat="46.553111264187095" lon="7.102241145848925"><ele></ele><time>2016-7-22T21:23:1Z</time></trkpt>
<trkpt lat="46.55318217474068" lon="7.102275345668018"><ele></ele><time>2016-7-22T21:23:4Z</time></trkpt>
<trkpt lat="46.55346288484962" lon="7.102271747750071"><ele></ele><time>2016-7-22T21:23:7Z</time></trkpt>
<trkpt lat="46.55356246199105" lon="7.102264122441861"><ele></ele><time>2016-7-22T21:23:10Z</time></trkpt>
<trkpt lat="46.553819115887016" lon="7.102273180679608"><ele></ele><time>2016-7-22T21:23:13Z</time></trkpt>
<trkpt lat="46.5539098916563" lon="7.102298831388185"><ele></ele><time>2016-7-22T21:23:16Z</time></trkpt>
<trkpt lat="46.554065208123994" lon="7.102323310078125"><ele></ele><time>2016-7-22T21:23:19Z</time></trkpt>
<trkpt lat="46.55421398671185" lon="7.102347118067619"><ele></ele><time>2016-7-22T21:23:22Z</time></trkpt>
<trkpt lat="46.55443828495861" lon="7.10249011862684"><ele></ele><time>2016-7-22T21:23:25Z</time></trkpt>
<trkpt lat="46.55467641362899" lon="7.1026083090186765"><ele></ele><time>2016-7-22T21:23:28Z</time></trkpt>
<trkpt lat="46.55475528718421" lon="7.102625577541166"><ele></ele><time>2016-7-22T21:23:31Z</time></trkpt>
<trkpt lat="46.55488101536909" lon="7.102663718091565"><ele></ele><time>2016-7-22T21:23:34Z</time></trkpt>
<trkpt lat="46.55502216574547" lon="7.102748462451628"><ele></ele><time>2016-7-22T21:23:37Z</time></trkpt>
<trkpt lat="46.55533589986378" lon="7.102808903125311"><ele></ele><time>2016-7-22T21:23:40Z</time></trkpt>
<trkpt lat="46.555419802627426" lon="7.1028204720561625"><ele></ele><time>2016-7-22T21:23:43Z</time></trkpt>
<trkpt lat="46.55579950217096" lon="7.102897761865116"><ele></ele><time>2016-7-22T21:23:46Z</time></trkpt>
<trkpt lat="46.5560787867415" lon="7.1029502389417605"><ele></ele><time>2016-7-22T21:23:49Z</time></trkpt>
<trkpt lat="46.556238628153345" lon="7.103090807291457"><ele></ele><time>2016-7-22T21:23:52Z</time></trkpt>
<trkpt lat="46.556310963796335" lon="7.1031104226030575"><ele></ele><time>2016-7-22T21:23:55Z</time></trkpt>
<trkpt lat="46.55666124287521" lon="7.103185364811616"><ele></ele><time>2016-7-22T21:23:58Z</time></trkpt>
<trkpt lat="46.55676467536267" lon="7.103207914492284"><ele></ele><time>2016-7-22T21:24:1Z</time></trkpt>
<trkpt lat="46.55678680376045" lon="7.103193330452311"><ele></ele><time>2016-7-22T21:24:4Z</time></trkpt>
<trkpt lat="46.55688227426124" lon="7.1031416161636365"><ele></ele><time>2016-7-22T21:24:7Z</time></trkpt>
<trkpt lat="46.55694589334327" lon="7.103105240069301"><ele></ele><time>2016-7-22T21:24:10Z</time></trkpt>
<trkpt lat="46.55706097905327" lon="7.102914470207546"><ele></ele><time>2016-7-22T21:24:13Z</time></trkpt>
<trkpt lat="46.557192828969164" lon="7.102688580488049"><ele></ele><time>2016-7-22T21:24:16Z</time></trkpt>
<trkpt lat="46.557214957942044" lon="7.102622280016601"><ele></ele><time>2016-7-22T21:24:19Z</time></trkpt>
<trkpt lat="46.55724077657395" lon="7.102410301899847"><ele></ele><time>2016-7-22T21:24:22Z</time></trkpt>
<trkpt lat="46.55721873359623" lon="7.102280884596679"><ele></ele><time>2016-7-22T21:24:25Z</time></trkpt>
<trkpt lat="46.55706937366984" lon="7.10177151210685"><ele></ele><time>2016-7-22T21:24:28Z</time></trkpt>
<trkpt lat="46.556851033256685" lon="7.1010276958276215"><ele></ele><time>2016-7-22T21:24:31Z</time></trkpt>
<trkpt lat="46.5567966374073" lon="7.100782439693949"><ele></ele><time>2016-7-22T21:24:34Z</time></trkpt>
<trkpt lat="46.55670133990813" lon="7.100352361355495"><ele></ele><time>2016-7-22T21:24:37Z</time></trkpt>
<trkpt lat="46.556638059015235" lon="7.100127137804268"><ele></ele><time>2016-7-22T21:24:40Z</time></trkpt>
<trkpt lat="46.55662414563706" lon="7.100074331409928"><ele></ele><time>2016-7-22T21:24:43Z</time></trkpt>
<trkpt lat="46.55665281320579" lon="7.099944579969229"><ele></ele><time>2016-7-22T21:24:46Z</time></trkpt>
<trkpt lat="46.55677585975557" lon="7.099931255488316"><ele></ele><time>2016-7-22T21:24:49Z</time></trkpt>
<trkpt lat="46.55703008355618" lon="7.099882143170268"><ele></ele><time>2016-7-22T21:24:52Z</time></trkpt>
<trkpt lat="46.557390757747314" lon="7.0998182810724515"><ele></ele><time>2016-7-22T21:24:55Z</time></trkpt>
<trkpt lat="46.55769720081894" lon="7.099770511036722"><ele></ele><time>2016-7-22T21:24:58Z</time></trkpt>
<trkpt lat="46.55809291051742" lon="7.099784685379992"><ele></ele><time>2016-7-22T21:25:1Z</time></trkpt>
<trkpt lat="46.55852617091195" lon="7.0998214917448115"><ele></ele><time>2016-7-22T21:25:4Z</time></trkpt>
<trkpt lat="46.55857185353085" lon="7.09971177347321"><ele></ele><time>2016-7-22T21:25:7Z</time></trkpt>
<trkpt lat="46.55856229988937" lon="7.099556204870556"><ele></ele><time>2016-7-22T21:25:10Z</time></trkpt>
<trkpt lat="46.558561881915665" lon="7.099455538032689"><ele></ele><time>2016-7-22T21:25:13Z</time></trkpt>
<trkpt lat="46.55859440949318" lon="7.0989372848096215"><ele></ele><time>2016-7-22T21:25:16Z</time></trkpt>
<trkpt lat="46.55858787617761" lon="7.0985271574425886"><ele></ele><time>2016-7-22T21:25:19Z</time></trkpt>
<trkpt lat="46.55855091336601" lon="7.098401511668013"><ele></ele><time>2016-7-22T21:25:22Z</time></trkpt>
<trkpt lat="46.55844287473488" lon="7.098028681547288"><ele></ele><time>2016-7-22T21:25:25Z</time></trkpt>
<trkpt lat="46.55833332900125" lon="7.09750891637856"><ele></ele><time>2016-7-22T21:25:28Z</time></trkpt>
<trkpt lat="46.55829234287708" lon="7.097383102874078"><ele></ele><time>2016-7-22T21:25:31Z</time></trkpt>
<trkpt lat="46.55826577365375" lon="7.097255529491654"><ele></ele><time>2016-7-22T21:25:34Z</time></trkpt>
<trkpt lat="46.55827365542188" lon="7.097006921997405"><ele></ele><time>2016-7-22T21:25:37Z</time></trkpt>
<trkpt lat="46.55840223804607" lon="7.09663418102663"><ele></ele><time>2016-7-22T21:25:40Z</time></trkpt>
<trkpt lat="46.55844700199049" lon="7.09622606647584"><ele></ele><time>2016-7-22T21:25:43Z</time></trkpt>
<trkpt lat="46.558526802105966" lon="7.09583622529588"><ele></ele><time>2016-7-22T21:25:46Z</time></trkpt>
<trkpt lat="46.558735767055026" lon="7.095478992689418"><ele></ele><time>2016-7-22T21:25:49Z</time></trkpt>
<trkpt lat="46.558817156701906" lon="7.095360558032819"><ele></ele><time>2016-7-22T21:25:52Z</time></trkpt>
<trkpt lat="46.55912846542607" lon="7.094942475018796"><ele></ele><time>2016-7-22T21:25:55Z</time></trkpt>
<trkpt lat="46.55924656825406" lon="7.094786071106519"><ele></ele><time>2016-7-22T21:25:58Z</time></trkpt>
<trkpt lat="46.55928495834539" lon="7.094700744054559"><ele></ele><time>2016-7-22T21:26:1Z</time></trkpt>
<trkpt lat="46.559359391818134" lon="7.0945100571155715"><ele></ele><time>2016-7-22T21:26:4Z</time></trkpt>
<trkpt lat="46.55949425636544" lon="7.094541157072844"><ele></ele><time>2016-7-22T21:26:7Z</time></trkpt>
<trkpt lat="46.55957656589314" lon="7.094613243419318"><ele></ele><time>2016-7-22T21:26:10Z</time></trkpt>
<trkpt lat="46.55961855891438" lon="7.094643335450138"><ele></ele><time>2016-7-22T21:26:13Z</time></trkpt>
<trkpt lat="46.559706819937006" lon="7.094684995570977"><ele></ele><time>2016-7-22T21:26:16Z</time></trkpt>
<trkpt lat="46.56016572749393" lon="7.094854320655617"><ele></ele><time>2016-7-22T21:26:19Z</time></trkpt>
<trkpt lat="46.560446604014615" lon="7.0949625375446335"><ele></ele><time>2016-7-22T21:26:22Z</time></trkpt>
<trkpt lat="46.56053402697585" lon="7.094992714419067"><ele></ele><time>2016-7-22T21:26:25Z</time></trkpt>
<trkpt lat="46.56071457258285" lon="7.09505424176468"><ele></ele><time>2016-7-22T21:26:28Z</time></trkpt>
<trkpt lat="46.561261908914695" lon="7.095255755400508"><ele></ele><time>2016-7-22T21:26:31Z</time></trkpt>
<trkpt lat="46.56157832467675" lon="7.095368666961112"><ele></ele><time>2016-7-22T21:26:34Z</time></trkpt>
<trkpt lat="46.56176180386702" lon="7.095437989553651"><ele></ele><time>2016-7-22T21:26:37Z</time></trkpt>
<trkpt lat="46.562285419765686" lon="7.095607399905947"><ele></ele><time>2016-7-22T21:26:40Z</time></trkpt>
<trkpt lat="46.56247610801948" lon="7.095621150550253"><ele></ele><time>2016-7-22T21:26:43Z</time></trkpt>
<trkpt lat="46.56257543335339" lon="7.095645879445216"><ele></ele><time>2016-7-22T21:26:46Z</time></trkpt>
<trkpt lat="46.56262513783115" lon="7.095667086815968"><ele></ele><time>2016-7-22T21:26:49Z</time></trkpt>
<trkpt lat="46.56282169208046" lon="7.095800866642351"><ele></ele><time>2016-7-22T21:26:52Z</time></trkpt>
<trkpt lat="46.5628718993633" lon="7.09583188086702"><ele></ele><time>2016-7-22T21:26:55Z</time></trkpt>
<trkpt lat="46.5630816978156" lon="7.095895169070116"><ele></ele><time>2016-7-22T21:26:58Z</time></trkpt>
<trkpt lat="46.56338453644945" lon="7.0958688566795045"><ele></ele><time>2016-7-22T21:27:1Z</time></trkpt>
<trkpt lat="46.563849733955436" lon="7.095725284934044"><ele></ele><time>2016-7-22T21:27:4Z</time></trkpt>
<trkpt lat="46.56416925347815" lon="7.0956194285304495"><ele></ele><time>2016-7-22T21:27:7Z</time></trkpt>
<trkpt lat="46.56457535855066" lon="7.095474514348556"><ele></ele><time>2016-7-22T21:27:10Z</time></trkpt>
<trkpt lat="46.565031336102315" lon="7.095318620982196"><ele></ele><time>2016-7-22T21:27:13Z</time></trkpt>
<trkpt lat="46.56516544780119" lon="7.095214269144967"><ele></ele><time>2016-7-22T21:27:16Z</time></trkpt>
<trkpt lat="46.565240718566784" lon="7.095104300096746"><ele></ele><time>2016-7-22T21:27:19Z</time></trkpt>
<trkpt lat="46.565338789219304" lon="7.094896263138873"><ele></ele><time>2016-7-22T21:27:22Z</time></trkpt>
<trkpt lat="46.565421018193916" lon="7.094676742598452"><ele></ele><time>2016-7-22T21:27:25Z</time></trkpt>
<trkpt lat="46.56566644620595" lon="7.094163774842602"><ele></ele><time>2016-7-22T21:27:28Z</time></trkpt>
<trkpt lat="46.56592871939054" lon="7.0938712518752975"><ele></ele><time>2016-7-22T21:27:31Z</time></trkpt>
<trkpt lat="46.566331053722166" lon="7.093627347187916"><ele></ele><time>2016-7-22T21:27:34Z</time></trkpt>
<trkpt lat="46.5667183840377" lon="7.0934194005858835"><ele></ele><time>2016-7-22T21:27:37Z</time></trkpt>
<trkpt lat="46.567211578332454" lon="7.0931692115181155"><ele></ele><time>2016-7-22T21:27:40Z</time></trkpt>
<trkpt lat="46.567702677257586" lon="7.092909718479227"><ele></ele><time>2016-7-22T21:27:43Z</time></trkpt>
<trkpt lat="46.567752382291516" lon="7.092881472543903"><ele></ele><time>2016-7-22T21:27:46Z</time></trkpt>
<trkpt lat="46.56786143004938" lon="7.092959426828265"><ele></ele><time>2016-7-22T21:27:49Z</time></trkpt>
<trkpt lat="46.56788573707669" lon="7.093004773544319"><ele></ele><time>2016-7-22T21:27:52Z</time></trkpt>
<trkpt lat="46.56791373220384" lon="7.093044755917207"><ele></ele><time>2016-7-22T21:27:55Z</time></trkpt>
<trkpt lat="46.56801599043504" lon="7.0931388871462095"><ele></ele><time>2016-7-22T21:27:58Z</time></trkpt>
<trkpt lat="46.56830575168528" lon="7.093257749261671"><ele></ele><time>2016-7-22T21:28:1Z</time></trkpt>
<trkpt lat="46.56847297159805" lon="7.093183070163958"><ele></ele><time>2016-7-22T21:28:4Z</time></trkpt>
<trkpt lat="46.56858001086496" lon="7.09297813472985"><ele></ele><time>2016-7-22T21:28:7Z</time></trkpt>
<trkpt lat="46.56870859040657" lon="7.092883170523231"><ele></ele><time>2016-7-22T21:28:10Z</time></trkpt>
<trkpt lat="46.56882526651979" lon="7.09288811848885"><ele></ele><time>2016-7-22T21:28:13Z</time></trkpt>
<trkpt lat="46.56886030295619" lon="7.092882922492105"><ele></ele><time>2016-7-22T21:28:16Z</time></trkpt>
<trkpt lat="46.569079993710645" lon="7.092800030303056"><ele></ele><time>2016-7-22T21:28:19Z</time></trkpt>
<trkpt lat="46.56935684878292" lon="7.092743961537149"><ele></ele><time>2016-7-22T21:28:22Z</time></trkpt>
<trkpt lat="46.56957301864353" lon="7.092705158148066"><ele></ele><time>2016-7-22T21:28:25Z</time></trkpt>
<trkpt lat="46.569667566656776" lon="7.092697784197406"><ele></ele><time>2016-7-22T21:28:28Z</time></trkpt>
<trkpt lat="46.56997576989162" lon="7.092657641780721"><ele></ele><time>2016-7-22T21:28:31Z</time></trkpt>
<trkpt lat="46.570333677754" lon="7.092625798583784"><ele></ele><time>2016-7-22T21:28:34Z</time></trkpt>
<trkpt lat="46.57048321092677" lon="7.0926330104089494"><ele></ele><time>2016-7-22T21:28:37Z</time></trkpt>
<trkpt lat="46.57063710286977" lon="7.092624380511363"><ele></ele><time>2016-7-22T21:28:40Z</time></trkpt>
<trkpt lat="46.570785127549094" lon="7.092609296405998"><ele></ele><time>2016-7-22T21:28:43Z</time></trkpt>
<trkpt lat="46.570883866666414" lon="7.0925886791229775"><ele></ele><time>2016-7-22T21:28:46Z</time></trkpt>
<trkpt lat="46.57121595870838" lon="7.092516183051346"><ele></ele><time>2016-7-22T21:28:49Z</time></trkpt>
<trkpt lat="46.57161259164017" lon="7.0924267569681465"><ele></ele><time>2016-7-22T21:28:52Z</time></trkpt>
<trkpt lat="46.57166523034368" lon="7.0923985949199695"><ele></ele><time>2016-7-22T21:28:55Z</time></trkpt>
<trkpt lat="46.57185223246795" lon="7.092243617520788"><ele></ele><time>2016-7-22T21:28:58Z</time></trkpt>
<trkpt lat="46.57193144254209" lon="7.092151250598106"><ele></ele><time>2016-7-22T21:29:1Z</time></trkpt>
<trkpt lat="46.57203479316383" lon="7.0920008813638225"><ele></ele><time>2016-7-22T21:29:4Z</time></trkpt>
<trkpt lat="46.5720876847491" lon="7.0918455656595185"><ele></ele><time>2016-7-22T21:29:7Z</time></trkpt>
<trkpt lat="46.572108472171614" lon="7.091819833647807"><ele></ele><time>2016-7-22T21:29:10Z</time></trkpt>
<trkpt lat="46.57218801680162" lon="7.0917918398465645"><ele></ele><time>2016-7-22T21:29:13Z</time></trkpt>
<trkpt lat="46.57222364012143" lon="7.09177340043686"><ele></ele><time>2016-7-22T21:29:16Z</time></trkpt>
<trkpt lat="46.57247266772379" lon="7.091676511118227"><ele></ele><time>2016-7-22T21:29:19Z</time></trkpt>
<trkpt lat="46.57253980690062" lon="7.0916688850921235"><ele></ele><time>2016-7-22T21:29:22Z</time></trkpt>
<trkpt lat="46.57272077209917" lon="7.091688335225971"><ele></ele><time>2016-7-22T21:29:25Z</time></trkpt>
<trkpt lat="46.572895032003686" lon="7.091686998057283"><ele></ele><time>2016-7-22T21:29:28Z</time></trkpt>
<trkpt lat="46.57300299118418" lon="7.091669901388911"><ele></ele><time>2016-7-22T21:29:31Z</time></trkpt>
<trkpt lat="46.573057892683096" lon="7.091670405544484"><ele></ele><time>2016-7-22T21:29:34Z</time></trkpt>
<trkpt lat="46.573300213743835" lon="7.0916642922218704"><ele></ele><time>2016-7-22T21:29:37Z</time></trkpt>
<trkpt lat="46.573667843524596" lon="7.091731607311383"><ele></ele><time>2016-7-22T21:29:40Z</time></trkpt>
<trkpt lat="46.57381561634654" lon="7.091752733077669"><ele></ele><time>2016-7-22T21:29:43Z</time></trkpt>
<trkpt lat="46.57396129340604" lon="7.091799339819768"><ele></ele><time>2016-7-22T21:29:46Z</time></trkpt>
<trkpt lat="46.57401443457133" lon="7.0918117462554795"><ele></ele><time>2016-7-22T21:29:49Z</time></trkpt>
<trkpt lat="46.57406673768844" lon="7.091811412160615"><ele></ele><time>2016-7-22T21:29:52Z</time></trkpt>
<trkpt lat="46.57419984318389" lon="7.091742012907515"><ele></ele><time>2016-7-22T21:29:55Z</time></trkpt>
<trkpt lat="46.57423940597093" lon="7.0917263396194254"><ele></ele><time>2016-7-22T21:29:58Z</time></trkpt>
<trkpt lat="46.57437561214124" lon="7.0917133507280266"><ele></ele><time>2016-7-22T21:30:1Z</time></trkpt>
<trkpt lat="46.57441827593529" lon="7.09172441582049"><ele></ele><time>2016-7-22T21:30:4Z</time></trkpt>
<trkpt lat="46.574525815715305" lon="7.09173472800642"><ele></ele><time>2016-7-22T21:30:7Z</time></trkpt>
<trkpt lat="46.574718013045555" lon="7.091721237465216"><ele></ele><time>2016-7-22T21:30:10Z</time></trkpt>
<trkpt lat="46.574764784230666" lon="7.091709503840373"><ele></ele><time>2016-7-22T21:30:13Z</time></trkpt>
<trkpt lat="46.57493477001825" lon="7.091649912262469"><ele></ele><time>2016-7-22T21:30:16Z</time></trkpt>
<trkpt lat="46.57521045105159" lon="7.091646649544672"><ele></ele><time>2016-7-22T21:30:19Z</time></trkpt>
<trkpt lat="46.57548085136935" lon="7.091653528825096"><ele></ele><time>2016-7-22T21:30:22Z</time></trkpt>
<trkpt lat="46.57562241999787" lon="7.091816057362573"><ele></ele><time>2016-7-22T21:30:25Z</time></trkpt>
<trkpt lat="46.57566089236478" lon="7.091869367213395"><ele></ele><time>2016-7-22T21:30:28Z</time></trkpt>
<trkpt lat="46.57583028905129" lon="7.092021335165331"><ele></ele><time>2016-7-22T21:30:31Z</time></trkpt>
<trkpt lat="46.57588368148833" lon="7.092050421617621"><ele></ele><time>2016-7-22T21:30:34Z</time></trkpt>
<trkpt lat="46.57616573127906" lon="7.092180850590803"><ele></ele><time>2016-7-22T21:30:37Z</time></trkpt>
<trkpt lat="46.5762156035415" lon="7.09218965272832"><ele></ele><time>2016-7-22T21:30:40Z</time></trkpt>
<trkpt lat="46.576390700927355" lon="7.092252353409402"><ele></ele><time>2016-7-22T21:30:43Z</time></trkpt>
<trkpt lat="46.576448116789265" lon="7.092271800749587"><ele></ele><time>2016-7-22T21:30:46Z</time></trkpt>
<trkpt lat="46.57650402405014" lon="7.0922785075444805"><ele></ele><time>2016-7-22T21:30:49Z</time></trkpt>
<trkpt lat="46.57663327304786" lon="7.092282617602078"><ele></ele><time>2016-7-22T21:30:52Z</time></trkpt>
<trkpt lat="46.57668683340048" lon="7.092286977407669"><ele></ele><time>2016-7-22T21:30:55Z</time></trkpt>
<trkpt lat="46.57689311171305" lon="7.0923298136531665"><ele></ele><time>2016-7-22T21:30:58Z</time></trkpt>
<trkpt lat="46.57693652998258" lon="7.092331742474234"><ele></ele><time>2016-7-22T21:31:1Z</time></trkpt>
<trkpt lat="46.577230985557854" lon="7.092412634605593"><ele></ele><time>2016-7-22T21:31:4Z</time></trkpt>
<trkpt lat="46.577370794560835" lon="7.092524117234356"><ele></ele><time>2016-7-22T21:31:7Z</time></trkpt>
<trkpt lat="46.57745545096712" lon="7.092602741510001"><ele></ele><time>2016-7-22T21:31:10Z</time></trkpt>
<trkpt lat="46.57760045690751" lon="7.092700561733704"><ele></ele><time>2016-7-22T21:31:13Z</time></trkpt>
<trkpt lat="46.57770439234025" lon="7.09272252469798"><ele></ele><time>2016-7-22T21:31:16Z</time></trkpt>
<trkpt lat="46.5778927346776" lon="7.092648432820958"><ele></ele><time>2016-7-22T21:31:19Z</time></trkpt>
<trkpt lat="46.57793338733495" lon="7.092613062057194"><ele></ele><time>2016-7-22T21:31:22Z</time></trkpt>
<trkpt lat="46.57801745851483" lon="7.092557072762764"><ele></ele><time>2016-7-22T21:31:25Z</time></trkpt>
<trkpt lat="46.57811628104699" lon="7.09257333590939"><ele></ele><time>2016-7-22T21:31:28Z</time></trkpt>
<trkpt lat="46.57825374389742" lon="7.092615080950176"><ele></ele><time>2016-7-22T21:31:31Z</time></trkpt>
<trkpt lat="46.578323732033205" lon="7.092687418457206"><ele></ele><time>2016-7-22T21:31:34Z</time></trkpt>
<trkpt lat="46.578541995091655" lon="7.092854391132146"><ele></ele><time>2016-7-22T21:31:37Z</time></trkpt>
<trkpt lat="46.57873561669733" lon="7.092899741663291"><ele></ele><time>2016-7-22T21:31:40Z</time></trkpt>
<trkpt lat="46.578840809523996" lon="7.0929122330912735"><ele></ele><time>2016-7-22T21:31:43Z</time></trkpt>
<trkpt lat="46.5789780209888" lon="7.0929476916889875"><ele></ele><time>2016-7-22T21:31:46Z</time></trkpt>
<trkpt lat="46.57911833309086" lon="7.093042997229251"><ele></ele><time>2016-7-22T21:31:49Z</time></trkpt>
<trkpt lat="46.579323940766045" lon="7.093093963912945"><ele></ele><time>2016-7-22T21:31:52Z</time></trkpt>
<trkpt lat="46.579379093805215" lon="7.093087427264177"><ele></ele><time>2016-7-22T21:31:55Z</time></trkpt>
<trkpt lat="46.57964848894052" lon="7.093037728589461"><ele></ele><time>2016-7-22T21:31:58Z</time></trkpt>
<trkpt lat="46.579918386803726" lon="7.093004793756107"><ele></ele><time>2016-7-22T21:32:1Z</time></trkpt>
<trkpt lat="46.579992566388384" lon="7.09303312630264"><ele></ele><time>2016-7-22T21:32:4Z</time></trkpt>
<trkpt lat="46.58016447809814" lon="7.0931457831181195"><ele></ele><time>2016-7-22T21:32:7Z</time></trkpt>
<trkpt lat="46.5802355555035" lon="7.093252151221293"><ele></ele><time>2016-7-22T21:32:10Z</time></trkpt>
<trkpt lat="46.580365472588554" lon="7.093477208565623"><ele></ele><time>2016-7-22T21:32:13Z</time></trkpt>
<trkpt lat="46.58041132116945" lon="7.093518867716712"><ele></ele><time>2016-7-22T21:32:16Z</time></trkpt>
<trkpt lat="46.58043202386151" lon="7.093574775555513"><ele></ele><time>2016-7-22T21:32:19Z</time></trkpt>
<trkpt lat="46.58053604221257" lon="7.093677623996864"><ele></ele><time>2016-7-22T21:32:22Z</time></trkpt>
<trkpt lat="46.5805781187983" lon="7.093731436839047"><ele></ele><time>2016-7-22T21:32:25Z</time></trkpt>
<trkpt lat="46.580841140436505" lon="7.093972339002821"><ele></ele><time>2016-7-22T21:32:28Z</time></trkpt>
<trkpt lat="46.580892437568494" lon="7.09398633795756"><ele></ele><time>2016-7-22T21:32:31Z</time></trkpt>
<trkpt lat="46.58122570139167" lon="7.0940681529624445"><ele></ele><time>2016-7-22T21:32:34Z</time></trkpt>
<trkpt lat="46.58152619141147" lon="7.094197995598305"><ele></ele><time>2016-7-22T21:32:37Z</time></trkpt>
<trkpt lat="46.58169181580316" lon="7.094390280455702"><ele></ele><time>2016-7-22T21:32:40Z</time></trkpt>
<trkpt lat="46.58184428199526" lon="7.094457423030081"><ele></ele><time>2016-7-22T21:32:43Z</time></trkpt>
<trkpt lat="46.58207738243354" lon="7.09450025986998"><ele></ele><time>2016-7-22T21:32:46Z</time></trkpt>
<trkpt lat="46.58223672280421" lon="7.094476877921203"><ele></ele><time>2016-7-22T21:32:49Z</time></trkpt>
<trkpt lat="46.58241115118186" lon="7.0944026180913395"><ele></ele><time>2016-7-22T21:32:52Z</time></trkpt>
<trkpt lat="46.58253662894759" lon="7.09435140742295"><ele></ele><time>2016-7-22T21:32:55Z</time></trkpt>
<trkpt lat="46.582625645731696" lon="7.094270943050767"><ele></ele><time>2016-7-22T21:32:58Z</time></trkpt>
<trkpt lat="46.58264450648521" lon="7.094140688524263"><ele></ele><time>2016-7-22T21:33:1Z</time></trkpt>
<trkpt lat="46.582690440827136" lon="7.094008758225581"><ele></ele><time>2016-7-22T21:33:4Z</time></trkpt>
<trkpt lat="46.58276478943016" lon="7.093913876630184"><ele></ele><time>2016-7-22T21:33:7Z</time></trkpt>
<trkpt lat="46.58287475992826" lon="7.093928379822814"><ele></ele><time>2016-7-22T21:33:10Z</time></trkpt>
<trkpt lat="46.58304650404605" lon="7.094037516223263"><ele></ele><time>2016-7-22T21:33:13Z</time></trkpt>
<trkpt lat="46.58329184039831" lon="7.094230473427431"><ele></ele><time>2016-7-22T21:33:16Z</time></trkpt>
<trkpt lat="46.58340834769479" lon="7.094342709889223"><ele></ele><time>2016-7-22T21:33:19Z</time></trkpt>
<trkpt lat="46.58348772259381" lon="7.094502890063942"><ele></ele><time>2016-7-22T21:33:22Z</time></trkpt>
<trkpt lat="46.58361579460154" lon="7.094823249720772"><ele></ele><time>2016-7-22T21:33:25Z</time></trkpt>
<trkpt lat="46.58364102317168" lon="7.094910925114311"><ele></ele><time>2016-7-22T21:33:28Z</time></trkpt>
<trkpt lat="46.583717799657066" lon="7.0950731168888"><ele></ele><time>2016-7-22T21:33:31Z</time></trkpt>
<trkpt lat="46.58380781918734" lon="7.09526875279986"><ele></ele><time>2016-7-22T21:33:34Z</time></trkpt>
<trkpt lat="46.58394653798501" lon="7.095431365065124"><ele></ele><time>2016-7-22T21:33:37Z</time></trkpt>
<trkpt lat="46.5840426767598" lon="7.095586767923998"><ele></ele><time>2016-7-22T21:33:40Z</time></trkpt>
<trkpt lat="46.58409816350431" lon="7.09572121508067"><ele></ele><time>2016-7-22T21:33:43Z</time></trkpt>
<trkpt lat="46.58419220623882" lon="7.095927077016051"><ele></ele><time>2016-7-22T21:33:46Z</time></trkpt>
<trkpt lat="46.5842691499443" lon="7.0961269035874395"><ele></ele><time>2016-7-22T21:33:49Z</time></trkpt>
<trkpt lat="46.58434902841598" lon="7.0962284103692745"><ele></ele><time>2016-7-22T21:33:52Z</time></trkpt>
<trkpt lat="46.58441373597917" lon="7.096298652268753"><ele></ele><time>2016-7-22T21:33:55Z</time></trkpt>
<trkpt lat="46.58445606368214" lon="7.096383226737606"><ele></ele><time>2016-7-22T21:33:58Z</time></trkpt>
<trkpt lat="46.58446050550442" lon="7.096436116717055"><ele></ele><time>2016-7-22T21:34:1Z</time></trkpt>
<trkpt lat="46.584535019170545" lon="7.096571989226187"><ele></ele><time>2016-7-22T21:34:4Z</time></trkpt>
<trkpt lat="46.58455806897022" lon="7.096612642029651"><ele></ele><time>2016-7-22T21:34:7Z</time></trkpt>
<trkpt lat="46.58465462693253" lon="7.096759998257337"><ele></ele><time>2016-7-22T21:34:10Z</time></trkpt>
<trkpt lat="46.58480038562309" lon="7.097004669617176"><ele></ele><time>2016-7-22T21:34:13Z</time></trkpt>
<trkpt lat="46.584965758821106" lon="7.097174323284744"><ele></ele><time>2016-7-22T21:34:16Z</time></trkpt>
<trkpt lat="46.58500112995352" lon="7.097221765715652"><ele></ele><time>2016-7-22T21:34:19Z</time></trkpt>
<trkpt lat="46.58510782982394" lon="7.097387478562073"><ele></ele><time>2016-7-22T21:34:22Z</time></trkpt>
<trkpt lat="46.58518184041174" lon="7.097538187045899"><ele></ele><time>2016-7-22T21:34:25Z</time></trkpt>
<trkpt lat="46.58534427947643" lon="7.097749666397297"><ele></ele><time>2016-7-22T21:34:28Z</time></trkpt>
<trkpt lat="46.58539004361844" lon="7.09784731672772"><ele></ele><time>2016-7-22T21:34:31Z</time></trkpt>
<trkpt lat="46.585456175185186" lon="7.098000371969219"><ele></ele><time>2016-7-22T21:34:34Z</time></trkpt>
<trkpt lat="46.58548023068407" lon="7.098052759474232"><ele></ele><time>2016-7-22T21:34:37Z</time></trkpt>
<trkpt lat="46.58552976590334" lon="7.098220650330208"><ele></ele><time>2016-7-22T21:34:40Z</time></trkpt>
<trkpt lat="46.58563076671933" lon="7.098328695476057"><ele></ele><time>2016-7-22T21:34:43Z</time></trkpt>
<trkpt lat="46.58565758809195" lon="7.098395164658897"><ele></ele><time>2016-7-22T21:34:46Z</time></trkpt>
<trkpt lat="46.585827234887766" lon="7.098670765812496"><ele></ele><time>2016-7-22T21:34:49Z</time></trkpt>
<trkpt lat="46.58603141432282" lon="7.099021134415449"><ele></ele><time>2016-7-22T21:34:52Z</time></trkpt>
<trkpt lat="46.58608346541802" lon="7.099072181442799"><ele></ele><time>2016-7-22T21:34:55Z</time></trkpt>
<trkpt lat="46.58624431270917" lon="7.099213168854411"><ele></ele><time>2016-7-22T21:34:58Z</time></trkpt>
<trkpt lat="46.586352438652" lon="7.099276203279078"><ele></ele><time>2016-7-22T21:35:1Z</time></trkpt>
<trkpt lat="46.58669265840711" lon="7.099454997153593"><ele></ele><time>2016-7-22T21:35:4Z</time></trkpt>
<trkpt lat="46.58685132659538" lon="7.099578717771129"><ele></ele><time>2016-7-22T21:35:7Z</time></trkpt>
<trkpt lat="46.58698074176807" lon="7.099715764974098"><ele></ele><time>2016-7-22T21:35:10Z</time></trkpt>
<trkpt lat="46.5872084744029" lon="7.100063870980677"><ele></ele><time>2016-7-22T21:35:13Z</time></trkpt>
<trkpt lat="46.587243091136614" lon="7.100113911785048"><ele></ele><time>2016-7-22T21:35:16Z</time></trkpt>
<trkpt lat="46.58738071984524" lon="7.100317260110539"><ele></ele><time>2016-7-22T21:35:19Z</time></trkpt>
<trkpt lat="46.5874191923335" lon="7.100360511650932"><ele></ele><time>2016-7-22T21:35:22Z</time></trkpt>
<trkpt lat="46.58758783422011" lon="7.100554137651724"><ele></ele><time>2016-7-22T21:35:25Z</time></trkpt>
<trkpt lat="46.58767073031626" lon="7.10064399363118"><ele></ele><time>2016-7-22T21:35:28Z</time></trkpt>
<trkpt lat="46.58780936606204" lon="7.100738880010458"><ele></ele><time>2016-7-22T21:35:31Z</time></trkpt>
<trkpt lat="46.58795697032197" lon="7.100845501270247"><ele></ele><time>2016-7-22T21:35:34Z</time></trkpt>
<trkpt lat="46.58800357326772" lon="7.10088841771599"><ele></ele><time>2016-7-22T21:35:37Z</time></trkpt>
<trkpt lat="46.58799737056998" lon="7.10089596129926"><ele></ele><time>2016-7-22T21:35:40Z</time></trkpt>
<trkpt lat="46.588004411317094" lon="7.1009011582439845"><ele></ele><time>2016-7-22T21:35:43Z</time></trkpt>
<trkpt lat="46.587972056412326" lon="7.100966787903642"><ele></ele><time>2016-7-22T21:35:46Z</time></trkpt>
<trkpt lat="46.587996196665344" lon="7.1009352724492505"><ele></ele><time>2016-7-22T21:35:49Z</time></trkpt>
<trkpt lat="46.588036094664254" lon="7.100925885601458"><ele></ele><time>2016-7-22T21:35:52Z</time></trkpt>
<trkpt lat="46.588042466623044" lon="7.100772412900515"><ele></ele><time>2016-7-22T21:35:55Z</time></trkpt>
<trkpt lat="46.587971807249886" lon="7.100760425176947"><ele></ele><time>2016-7-22T21:35:58Z</time></trkpt>
<trkpt lat="46.5879502657937" lon="7.10075556318315"><ele></ele><time>2016-7-22T21:36:1Z</time></trkpt>
<trkpt lat="46.587898968440214" lon="7.100761010275326"><ele></ele><time>2016-7-22T21:36:4Z</time></trkpt>
<trkpt lat="46.587928723699896" lon="7.100808033480687"><ele></ele><time>2016-7-22T21:36:7Z</time></trkpt>
<trkpt lat="46.587990582640174" lon="7.100768472235923"><ele></ele><time>2016-7-22T21:36:10Z</time></trkpt>
<trkpt lat="46.588115975310814" lon="7.100832512873927"><ele></ele><time>2016-7-22T21:36:13Z</time></trkpt>
<trkpt lat="46.58834873936035" lon="7.100977189934115"><ele></ele><time>2016-7-22T21:36:16Z</time></trkpt>
<trkpt lat="46.5885829280485" lon="7.101147683320003"><ele></ele><time>2016-7-22T21:36:19Z</time></trkpt>
<trkpt lat="46.588871264213296" lon="7.101288254487772"><ele></ele><time>2016-7-22T21:36:22Z</time></trkpt>
<trkpt lat="46.58914434574338" lon="7.101389095040541"><ele></ele><time>2016-7-22T21:36:25Z</time></trkpt>
<trkpt lat="46.58944844072621" lon="7.101455570442097"><ele></ele><time>2016-7-22T21:36:28Z</time></trkpt>
<trkpt lat="46.58975538603401" lon="7.101479381966113"><ele></ele><time>2016-7-22T21:36:31Z</time></trkpt>
<trkpt lat="46.59007498871304" lon="7.1014415867083"><ele></ele><time>2016-7-22T21:36:34Z</time></trkpt>
<trkpt lat="46.590124861281794" lon="7.101423650532341"><ele></ele><time>2016-7-22T21:36:37Z</time></trkpt>
<trkpt lat="46.590449997674384" lon="7.1012373278893275"><ele></ele><time>2016-7-22T21:36:40Z</time></trkpt>
<trkpt lat="46.590799274775144" lon="7.100978753694658"><ele></ele><time>2016-7-22T21:36:43Z</time></trkpt>
<trkpt lat="46.5910227391163" lon="7.100745238599192"><ele></ele><time>2016-7-22T21:36:46Z</time></trkpt>
<trkpt lat="46.59121183715937" lon="7.100553464662942"><ele></ele><time>2016-7-22T21:36:49Z</time></trkpt>
<trkpt lat="46.59134276371287" lon="7.100454141927571"><ele></ele><time>2016-7-22T21:36:52Z</time></trkpt>
<trkpt lat="46.5917051165691" lon="7.100198334065073"><ele></ele><time>2016-7-22T21:36:55Z</time></trkpt>
<trkpt lat="46.592128575263565" lon="7.09978930620016"><ele></ele><time>2016-7-22T21:36:58Z</time></trkpt>
<trkpt lat="46.59234642413851" lon="7.099519078205896"><ele></ele><time>2016-7-22T21:37:1Z</time></trkpt>
<trkpt lat="46.59238841812296" lon="7.099464261435801"><ele></ele><time>2016-7-22T21:37:4Z</time></trkpt>
<trkpt lat="46.59255035868483" lon="7.099280952628872"><ele></ele><time>2016-7-22T21:37:7Z</time></trkpt>
<trkpt lat="46.592628646586036" lon="7.099204427519082"><ele></ele><time>2016-7-22T21:37:10Z</time></trkpt>
<trkpt lat="46.592952191201725" lon="7.0989486187952116"><ele></ele><time>2016-7-22T21:37:13Z</time></trkpt>
<trkpt lat="46.59329392367388" lon="7.098772941573596"><ele></ele><time>2016-7-22T21:37:16Z</time></trkpt>
<trkpt lat="46.593705058418706" lon="7.098593074957234"><ele></ele><time>2016-7-22T21:37:19Z</time></trkpt>
<trkpt lat="46.593856520052086" lon="7.098548318945655"><ele></ele><time>2016-7-22T21:37:22Z</time></trkpt>
<trkpt lat="46.59405877567362" lon="7.098538935749927"><ele></ele><time>2016-7-22T21:37:25Z</time></trkpt>
<trkpt lat="46.594416598634496" lon="7.098613375183227"><ele></ele><time>2016-7-22T21:37:28Z</time></trkpt>
<trkpt lat="46.59456235909925" lon="7.09870063417579"><ele></ele><time>2016-7-22T21:37:31Z</time></trkpt>
<trkpt lat="46.594690181795414" lon="7.0988308919791265"><ele></ele><time>2016-7-22T21:37:34Z</time></trkpt>
<trkpt lat="46.594774418968605" lon="7.098923849289016"><ele></ele><time>2016-7-22T21:37:37Z</time></trkpt>
<trkpt lat="46.594922860633346" lon="7.099102052097882"><ele></ele><time>2016-7-22T21:37:40Z</time></trkpt>
<trkpt lat="46.59499888371868" lon="7.099178413034636"><ele></ele><time>2016-7-22T21:37:43Z</time></trkpt>
<trkpt lat="46.595107428454824" lon="7.099269610688166"><ele></ele><time>2016-7-22T21:37:46Z</time></trkpt>
<trkpt lat="46.59514439249802" lon="7.099286291525793"><ele></ele><time>2016-7-22T21:37:49Z</time></trkpt>
<trkpt lat="46.59535704161519" lon="7.099283865549306"><ele></ele><time>2016-7-22T21:37:52Z</time></trkpt>
<trkpt lat="46.59545477496255" lon="7.099260398388892"><ele></ele><time>2016-7-22T21:37:55Z</time></trkpt>
<trkpt lat="46.59563565683798" lon="7.099239866766504"><ele></ele><time>2016-7-22T21:37:58Z</time></trkpt>
<trkpt lat="46.59621468026527" lon="7.099151031500202"><ele></ele><time>2016-7-22T21:38:1Z</time></trkpt>
<trkpt lat="46.59626522330959" lon="7.099140387606547"><ele></ele><time>2016-7-22T21:38:4Z</time></trkpt>
<trkpt lat="46.59672564279658" lon="7.099042329572086"><ele></ele><time>2016-7-22T21:38:7Z</time></trkpt>
<trkpt lat="46.59682530397395" lon="7.099019868285236"><ele></ele><time>2016-7-22T21:38:10Z</time></trkpt>
<trkpt lat="46.59691448695684" lon="7.099069742670988"><ele></ele><time>2016-7-22T21:38:13Z</time></trkpt>
<trkpt lat="46.59701481679794" lon="7.099217015134455"><ele></ele><time>2016-7-22T21:38:16Z</time></trkpt>
<trkpt lat="46.597045494029544" lon="7.099267726396516"><ele></ele><time>2016-7-22T21:38:19Z</time></trkpt>
<trkpt lat="46.59730256321345" lon="7.099630920455199"><ele></ele><time>2016-7-22T21:38:22Z</time></trkpt>
<trkpt lat="46.59759844038117" lon="7.100018255291676"><ele></ele><time>2016-7-22T21:38:25Z</time></trkpt>
<trkpt lat="46.59786347212782" lon="7.100404583602844"><ele></ele><time>2016-7-22T21:38:28Z</time></trkpt>
<trkpt lat="46.598053401636484" lon="7.100818989633004"><ele></ele><time>2016-7-22T21:38:31Z</time></trkpt>
<trkpt lat="46.59831063635659" lon="7.101372034007611"><ele></ele><time>2016-7-22T21:38:34Z</time></trkpt>
<trkpt lat="46.59860667949764" lon="7.101910075625131"><ele></ele><time>2016-7-22T21:38:37Z</time></trkpt>
<trkpt lat="46.59867499126294" lon="7.101983418893287"><ele></ele><time>2016-7-22T21:38:40Z</time></trkpt>
<trkpt lat="46.5987732264083" lon="7.102060786150519"><ele></ele><time>2016-7-22T21:38:43Z</time></trkpt>
<trkpt lat="46.59890490474748" lon="7.102195234982685"><ele></ele><time>2016-7-22T21:38:46Z</time></trkpt>
<trkpt lat="46.59901361625991" lon="7.102364719694126"><ele></ele><time>2016-7-22T21:38:49Z</time></trkpt>
<trkpt lat="46.59902107384762" lon="7.1025730942093785"><ele></ele><time>2016-7-22T21:38:52Z</time></trkpt>
<trkpt lat="46.59904202669127" lon="7.102747438461873"><ele></ele><time>2016-7-22T21:38:55Z</time></trkpt>
<trkpt lat="46.599073791609584" lon="7.102975091920957"><ele></ele><time>2016-7-22T21:38:58Z</time></trkpt>
<trkpt lat="46.5991426896688" lon="7.103088165466583"><ele></ele><time>2016-7-22T21:39:1Z</time></trkpt>
<trkpt lat="46.59922575507341" lon="7.103028739567988"><ele></ele><time>2016-7-22T21:39:4Z</time></trkpt>
<trkpt lat="46.59924436446179" lon="7.102889600235829"><ele></ele><time>2016-7-22T21:39:7Z</time></trkpt>
<trkpt lat="46.59927244607588" lon="7.1026905304409915"><ele></ele><time>2016-7-22T21:39:10Z</time></trkpt>
<trkpt lat="46.59929985662459" lon="7.10253764496971"><ele></ele><time>2016-7-22T21:39:13Z</time></trkpt>
<trkpt lat="46.59931527985123" lon="7.102491796253615"><ele></ele><time>2016-7-22T21:39:16Z</time></trkpt>
<trkpt lat="46.59935400505679" lon="7.102422143428279"><ele></ele><time>2016-7-22T21:39:19Z</time></trkpt>
<trkpt lat="46.599403039366955" lon="7.1024107451266625"><ele></ele><time>2016-7-22T21:39:22Z</time></trkpt>
<trkpt lat="46.599540083113816" lon="7.102456681080509"><ele></ele><time>2016-7-22T21:39:25Z</time></trkpt>
<trkpt lat="46.59963580359391" lon="7.102542430192276"><ele></ele><time>2016-7-22T21:39:28Z</time></trkpt>
<trkpt lat="46.59974786832566" lon="7.102671095062485"><ele></ele><time>2016-7-22T21:39:31Z</time></trkpt>
<trkpt lat="46.5998792952525" lon="7.1028016882062195"><ele></ele><time>2016-7-22T21:39:34Z</time></trkpt>
<trkpt lat="46.60003963974189" lon="7.102935299486176"><ele></ele><time>2016-7-22T21:39:37Z</time></trkpt>
<trkpt lat="46.600178695108816" lon="7.102984839706008"><ele></ele><time>2016-7-22T21:39:40Z</time></trkpt>
<trkpt lat="46.60032630076001" lon="7.1029682468278175"><ele></ele><time>2016-7-22T21:39:43Z</time></trkpt>
<trkpt lat="46.600472398287906" lon="7.102895746559759"><ele></ele><time>2016-7-22T21:39:46Z</time></trkpt>
<trkpt lat="46.60062612370382" lon="7.102791898110444"><ele></ele><time>2016-7-22T21:39:49Z</time></trkpt>
<trkpt lat="46.6008084317159" lon="7.10266315602246"><ele></ele><time>2016-7-22T21:39:52Z</time></trkpt>
<trkpt lat="46.600933826508665" lon="7.102537849243189"><ele></ele><time>2016-7-22T21:39:55Z</time></trkpt>
<trkpt lat="46.6010697833744" lon="7.102334758554224"><ele></ele><time>2016-7-22T21:39:58Z</time></trkpt>
<trkpt lat="46.6011893949977" lon="7.102178019474916"><ele></ele><time>2016-7-22T21:40:1Z</time></trkpt>
<trkpt lat="46.6012956785408" lon="7.102096968765837"><ele></ele><time>2016-7-22T21:40:4Z</time></trkpt>
<trkpt lat="46.601288050226486" lon="7.102166706105605"><ele></ele><time>2016-7-22T21:40:7Z</time></trkpt>
<trkpt lat="46.601255108911495" lon="7.1022028314091745"><ele></ele><time>2016-7-22T21:40:10Z</time></trkpt>
<trkpt lat="46.601213114411266" lon="7.102303832511514"><ele></ele><time>2016-7-22T21:40:13Z</time></trkpt>
<trkpt lat="46.60110238677248" lon="7.102536428097274"><ele></ele><time>2016-7-22T21:40:16Z</time></trkpt>
<trkpt lat="46.60098604334822" lon="7.102760474007245"><ele></ele><time>2016-7-22T21:40:19Z</time></trkpt>
<trkpt lat="46.600822426264365" lon="7.10295543362227"><ele></ele><time>2016-7-22T21:40:22Z</time></trkpt>
<trkpt lat="46.60049879816403" lon="7.103179223430896"><ele></ele><time>2016-7-22T21:40:25Z</time></trkpt>
<trkpt lat="46.600222948309295" lon="7.103281644219276"><ele></ele><time>2016-7-22T21:40:28Z</time></trkpt>
<trkpt lat="46.59995665452783" lon="7.103321619974244"><ele></ele><time>2016-7-22T21:40:31Z</time></trkpt>
<trkpt lat="46.59973486929948" lon="7.10330744957181"><ele></ele><time>2016-7-22T21:40:34Z</time></trkpt>
<trkpt lat="46.59965465283216" lon="7.1034491020964055"><ele></ele><time>2016-7-22T21:40:37Z</time></trkpt>
<trkpt lat="46.59964031943663" lon="7.103478522288311"><ele></ele><time>2016-7-22T21:40:40Z</time></trkpt>
<trkpt lat="46.59958935536642" lon="7.103663007041962"><ele></ele><time>2016-7-22T21:40:43Z</time></trkpt>
<trkpt lat="46.59955373056506" lon="7.10381413212749"><ele></ele><time>2016-7-22T21:40:46Z</time></trkpt>
<trkpt lat="46.599511317375736" lon="7.10387867190416"><ele></ele><time>2016-7-22T21:40:49Z</time></trkpt>
<trkpt lat="46.59935951831126" lon="7.104116966278668"><ele></ele><time>2016-7-22T21:40:52Z</time></trkpt>
<trkpt lat="46.59922188466807" lon="7.104356182981852"><ele></ele><time>2016-7-22T21:40:55Z</time></trkpt>
<trkpt lat="46.599109480719164" lon="7.104582827381999"><ele></ele><time>2016-7-22T21:40:58Z</time></trkpt>
<trkpt lat="46.59912523673406" lon="7.10476136247383"><ele></ele><time>2016-7-22T21:41:1Z</time></trkpt>
<trkpt lat="46.599231013709044" lon="7.105009553274814"><ele></ele><time>2016-7-22T21:41:4Z</time></trkpt>
<trkpt lat="46.59935749378097" lon="7.105278112586106"><ele></ele><time>2016-7-22T21:41:7Z</time></trkpt>
<trkpt lat="46.59953610816557" lon="7.1056531233530045"><ele></ele><time>2016-7-22T21:41:10Z</time></trkpt>
<trkpt lat="46.599664683657025" lon="7.105927130952107"><ele></ele><time>2016-7-22T21:41:13Z</time></trkpt>
<trkpt lat="46.599808263320845" lon="7.106151517963549"><ele></ele><time>2016-7-22T21:41:16Z</time></trkpt>
<trkpt lat="46.59995326991768" lon="7.106194604237792"><ele></ele><time>2016-7-22T21:41:19Z</time></trkpt>
<trkpt lat="46.60013071435663" lon="7.1062518566695925"><ele></ele><time>2016-7-22T21:41:22Z</time></trkpt>
<trkpt lat="46.60031561865016" lon="7.106313384043315"><ele></ele><time>2016-7-22T21:41:25Z</time></trkpt>
<trkpt lat="46.600484178822946" lon="7.106320093343539"><ele></ele><time>2016-7-22T21:41:28Z</time></trkpt>
<trkpt lat="46.60065475012503" lon="7.106374663408825"><ele></ele><time>2016-7-22T21:41:31Z</time></trkpt>
<trkpt lat="46.60081249554163" lon="7.1065702169541725"><ele></ele><time>2016-7-22T21:41:34Z</time></trkpt>
<trkpt lat="46.600999493271075" lon="7.106816397903753"><ele></ele><time>2016-7-22T21:41:37Z</time></trkpt>
<trkpt lat="46.60125387987794" lon="7.107215801717061"><ele></ele><time>2016-7-22T21:41:40Z</time></trkpt>
<trkpt lat="46.60146912427003" lon="7.107496600592814"><ele></ele><time>2016-7-22T21:41:43Z</time></trkpt>
<trkpt lat="46.60160231066204" lon="7.107694500520079"><ele></ele><time>2016-7-22T21:41:46Z</time></trkpt>
<trkpt lat="46.601690067805436" lon="7.1078278587065045"><ele></ele><time>2016-7-22T21:41:49Z</time></trkpt>
<trkpt lat="46.601823422042344" lon="7.108007150790931"><ele></ele><time>2016-7-22T21:41:52Z</time></trkpt>
<trkpt lat="46.6020223216269" lon="7.108295409198885"><ele></ele><time>2016-7-22T21:41:55Z</time></trkpt>
<trkpt lat="46.6020211477571" lon="7.108331786672054"><ele></ele><time>2016-7-22T21:41:58Z</time></trkpt>
<trkpt lat="46.601986194155614" lon="7.108424825117876"><ele></ele><time>2016-7-22T21:42:1Z</time></trkpt>
<trkpt lat="46.60196423284854" lon="7.10848794042703"><ele></ele><time>2016-7-22T21:42:4Z</time></trkpt>
<trkpt lat="46.601907904352636" lon="7.108673179431114"><ele></ele><time>2016-7-22T21:42:7Z</time></trkpt>
<trkpt lat="46.60181964005273" lon="7.108923545181165"><ele></ele><time>2016-7-22T21:42:10Z</time></trkpt>
<trkpt lat="46.601751073961445" lon="7.109109203008399"><ele></ele><time>2016-7-22T21:42:13Z</time></trkpt>
<trkpt lat="46.6016694319619" lon="7.109306259944893"><ele></ele><time>2016-7-22T21:42:16Z</time></trkpt>
<trkpt lat="46.60162777186702" lon="7.109486637768729"><ele></ele><time>2016-7-22T21:42:19Z</time></trkpt>
<trkpt lat="46.60159524862945" lon="7.109615131759218"><ele></ele><time>2016-7-22T21:42:22Z</time></trkpt>
<trkpt lat="46.601591728182" lon="7.109619154998574"><ele></ele><time>2016-7-22T21:42:25Z</time></trkpt>
<trkpt lat="46.60158820713749" lon="7.109677241572639"><ele></ele><time>2016-7-22T21:42:28Z</time></trkpt>
<trkpt lat="46.60156641306676" lon="7.109776818205091"><ele></ele><time>2016-7-22T21:42:31Z</time></trkpt>
<trkpt lat="46.60155476159642" lon="7.109832306204913"><ele></ele><time>2016-7-22T21:42:34Z</time></trkpt>
<trkpt lat="46.60155149179187" lon="7.109910090278692"><ele></ele><time>2016-7-22T21:42:37Z</time></trkpt>
<trkpt lat="46.60153732515388" lon="7.110019390099827"><ele></ele><time>2016-7-22T21:42:40Z</time></trkpt>
<trkpt lat="46.60153388826828" lon="7.110046715057457"><ele></ele><time>2016-7-22T21:42:43Z</time></trkpt>
<trkpt lat="46.601540928777275" lon="7.110073621153254"><ele></ele><time>2016-7-22T21:42:46Z</time></trkpt>
<trkpt lat="46.60152684640641" lon="7.110142352520459"><ele></ele><time>2016-7-22T21:42:49Z</time></trkpt>
<trkpt lat="46.60152961059235" lon="7.110309487914782"><ele></ele><time>2016-7-22T21:42:52Z</time></trkpt>
<trkpt lat="46.60153472173885" lon="7.110474360245126"><ele></ele><time>2016-7-22T21:42:55Z</time></trkpt>
<trkpt lat="46.60153614634935" lon="7.1105028587789665"><ele></ele><time>2016-7-22T21:42:58Z</time></trkpt>
<trkpt lat="46.60154394069585" lon="7.110578212345035"><ele></ele><time>2016-7-22T21:43:1Z</time></trkpt>
<trkpt lat="46.601552572341944" lon="7.110734367565005"><ele></ele><time>2016-7-22T21:43:4Z</time></trkpt>
<trkpt lat="46.60156464059894" lon="7.110888092107004"><ele></ele><time>2016-7-22T21:43:7Z</time></trkpt>
<trkpt lat="46.6015718474776" lon="7.1110299980441205"><ele></ele><time>2016-7-22T21:43:10Z</time></trkpt>
<trkpt lat="46.60158743620551" lon="7.111177603868518"><ele></ele><time>2016-7-22T21:43:13Z</time></trkpt>
<trkpt lat="46.60160620997695" lon="7.111332753485008"><ele></ele><time>2016-7-22T21:43:16Z</time></trkpt>
<trkpt lat="46.60161534478" lon="7.111467031924756"><ele></ele><time>2016-7-22T21:43:19Z</time></trkpt>
<trkpt lat="46.601617438779" lon="7.1116011425692784"><ele></ele><time>2016-7-22T21:43:22Z</time></trkpt>
<trkpt lat="46.601594471059165" lon="7.111717315362717"><ele></ele><time>2016-7-22T21:43:25Z</time></trkpt>
<trkpt lat="46.60160394230081" lon="7.111746233171496"><ele></ele><time>2016-7-22T21:43:28Z</time></trkpt>
<trkpt lat="46.60161031197999" lon="7.111798284989273"><ele></ele><time>2016-7-22T21:43:31Z</time></trkpt>
<trkpt lat="46.60162380555244" lon="7.111916721711754"><ele></ele><time>2016-7-22T21:43:34Z</time></trkpt>
<trkpt lat="46.601646100342336" lon="7.112016131689275"><ele></ele><time>2016-7-22T21:43:37Z</time></trkpt>
<trkpt lat="46.60165188316487" lon="7.112079331437368"><ele></ele><time>2016-7-22T21:43:40Z</time></trkpt>
<trkpt lat="46.601647524308234" lon="7.1121031359713465"><ele></ele><time>2016-7-22T21:43:43Z</time></trkpt>
<trkpt lat="46.601648780228544" lon="7.112227104483196"><ele></ele><time>2016-7-22T21:43:46Z</time></trkpt>
<trkpt lat="46.6016383866078" lon="7.1122316304842785"><ele></ele><time>2016-7-22T21:43:49Z</time></trkpt>
<trkpt lat="46.60160988795744" lon="7.112245208547289"><ele></ele><time>2016-7-22T21:43:52Z</time></trkpt>
<trkpt lat="46.60160393676852" lon="7.1122480582648855"><ele></ele><time>2016-7-22T21:43:55Z</time></trkpt>
<trkpt lat="46.60158599971342" lon="7.112226600169532"><ele></ele><time>2016-7-22T21:43:58Z</time></trkpt>
<trkpt lat="46.601580635425584" lon="7.112214278638812"><ele></ele><time>2016-7-22T21:44:1Z</time></trkpt>
<trkpt lat="46.60159161558613" lon="7.112227354666782"><ele></ele><time>2016-7-22T21:44:4Z</time></trkpt>
<trkpt lat="46.6015782886242" lon="7.112202124813578"><ele></ele><time>2016-7-22T21:44:7Z</time></trkpt>
<trkpt lat="46.60154694040465" lon="7.112190221799468"><ele></ele><time>2016-7-22T21:44:10Z</time></trkpt>
<trkpt lat="46.60158918472264" lon="7.112237245269213"><ele></ele><time>2016-7-22T21:44:13Z</time></trkpt>
<trkpt lat="46.60161893999369" lon="7.112284100822377"><ele></ele><time>2016-7-22T21:44:16Z</time></trkpt>
<trkpt lat="46.601646600626545" lon="7.112254764745433"><ele></ele><time>2016-7-22T21:44:19Z</time></trkpt>
<trkpt lat="46.601682474820855" lon="7.112290053395832"><ele></ele><time>2016-7-22T21:44:22Z</time></trkpt>
<trkpt lat="46.601713403703734" lon="7.112323833191782"><ele></ele><time>2016-7-22T21:44:25Z</time></trkpt>
<trkpt lat="46.601762436493004" lon="7.112450484979931"><ele></ele><time>2016-7-22T21:44:28Z</time></trkpt>
<trkpt lat="46.601836949843204" lon="7.112618124886917"><ele></ele><time>2016-7-22T21:44:31Z</time></trkpt>
<trkpt lat="46.6019125532505" lon="7.112748716765316"><ele></ele><time>2016-7-22T21:44:34Z</time></trkpt>
<trkpt lat="46.60197030286406" lon="7.112908477300689"><ele></ele><time>2016-7-22T21:44:37Z</time></trkpt>
<trkpt lat="46.60203442203763" lon="7.113131186139201"><ele></ele><time>2016-7-22T21:44:40Z</time></trkpt>
<trkpt lat="46.6020927575705" lon="7.113364958972809"><ele></ele><time>2016-7-22T21:44:43Z</time></trkpt>
<trkpt lat="46.60216073206462" lon="7.113620357354408"><ele></ele><time>2016-7-22T21:44:46Z</time></trkpt>
<trkpt lat="46.60223733960299" lon="7.11390534407813"><ele></ele><time>2016-7-22T21:44:49Z</time></trkpt>
<trkpt lat="46.602325933764355" lon="7.114145990752007"><ele></ele><time>2016-7-22T21:44:52Z</time></trkpt>
<trkpt lat="46.60241662418282" lon="7.1143158941322815"><ele></ele><time>2016-7-22T21:44:55Z</time></trkpt>
<trkpt lat="46.602578895350405" lon="7.1145567100825655"><ele></ele><time>2016-7-22T21:44:58Z</time></trkpt>
<trkpt lat="46.6027016880928" lon="7.114762991675061"><ele></ele><time>2016-7-22T21:45:1Z</time></trkpt>
<trkpt lat="46.602802100581876" lon="7.115019145146868"><ele></ele><time>2016-7-22T21:45:4Z</time></trkpt>
<trkpt lat="46.602841911260015" lon="7.115328690051208"><ele></ele><time>2016-7-22T21:45:7Z</time></trkpt>
<trkpt lat="46.602854397602194" lon="7.1155748670912216"><ele></ele><time>2016-7-22T21:45:10Z</time></trkpt>
<trkpt lat="46.60285548401467" lon="7.1158692398731125"><ele></ele><time>2016-7-22T21:45:13Z</time></trkpt>
<trkpt lat="46.60284156709625" lon="7.116137125478894"><ele></ele><time>2016-7-22T21:45:16Z</time></trkpt>
<trkpt lat="46.6028372902173" lon="7.116328568259409"><ele></ele><time>2016-7-22T21:45:19Z</time></trkpt>
<trkpt lat="46.602852542548305" lon="7.116578768678727"><ele></ele><time>2016-7-22T21:45:22Z</time></trkpt>
<trkpt lat="46.60285329504749" lon="7.11674925679042"><ele></ele><time>2016-7-22T21:45:25Z</time></trkpt>
<trkpt lat="46.602874163244834" lon="7.117000882259475"><ele></ele><time>2016-7-22T21:45:28Z</time></trkpt>
<trkpt lat="46.60288388344162" lon="7.117257788085526"><ele></ele><time>2016-7-22T21:45:31Z</time></trkpt>
<trkpt lat="46.60287466053049" lon="7.117513520023152"><ele></ele><time>2016-7-22T21:45:34Z</time></trkpt>
<trkpt lat="46.602877255814185" lon="7.117796744895442"><ele></ele><time>2016-7-22T21:45:37Z</time></trkpt>
<trkpt lat="46.602899212846395" lon="7.118122717949991"><ele></ele><time>2016-7-22T21:45:40Z</time></trkpt>
<trkpt lat="46.60292594833174" lon="7.118379205057973"><ele></ele><time>2016-7-22T21:45:43Z</time></trkpt>
<trkpt lat="46.60297422480957" lon="7.118683301905303"><ele></ele><time>2016-7-22T21:45:46Z</time></trkpt>
<trkpt lat="46.60304337296727" lon="7.118921936480823"><ele></ele><time>2016-7-22T21:45:49Z</time></trkpt>
<trkpt lat="46.603102128239186" lon="7.119098125579303"><ele></ele><time>2016-7-22T21:45:52Z</time></trkpt>
<trkpt lat="46.60314127026801" lon="7.119235003074144"><ele></ele><time>2016-7-22T21:45:55Z</time></trkpt>
<trkpt lat="46.60315065777434" lon="7.1192564609776525"><ele></ele><time>2016-7-22T21:45:58Z</time></trkpt>
<trkpt lat="46.603211760046534" lon="7.119426782789118"><ele></ele><time>2016-7-22T21:46:1Z</time></trkpt>
<trkpt lat="46.6032512367707" lon="7.119616717795269"><ele></ele><time>2016-7-22T21:46:4Z</time></trkpt>
<trkpt lat="46.60325442152798" lon="7.119650413152962"><ele></ele><time>2016-7-22T21:46:7Z</time></trkpt>
<trkpt lat="46.603263054340765" lon="7.119701207732364"><ele></ele><time>2016-7-22T21:46:10Z</time></trkpt>
<trkpt lat="46.6032719377465" lon="7.1198308761111555"><ele></ele><time>2016-7-22T21:46:13Z</time></trkpt>
<trkpt lat="46.60325140069309" lon="7.119955766147655"><ele></ele><time>2016-7-22T21:46:16Z</time></trkpt>
<trkpt lat="46.603241676704165" lon="7.120044362744096"><ele></ele><time>2016-7-22T21:46:19Z</time></trkpt>
<trkpt lat="46.60326749259038" lon="7.12008115991104"><ele></ele><time>2016-7-22T21:46:22Z</time></trkpt>
<trkpt lat="46.60326128862812" lon="7.12020412242557"><ele></ele><time>2016-7-22T21:46:25Z</time></trkpt>
<trkpt lat="46.60325835369253" lon="7.120319708929846"><ele></ele><time>2016-7-22T21:46:28Z</time></trkpt>
<trkpt lat="46.60326195637032" lon="7.120460692773045"><ele></ele><time>2016-7-22T21:46:31Z</time></trkpt>
<trkpt lat="46.60325583585116" lon="7.120618021129549"><ele></ele><time>2016-7-22T21:46:34Z</time></trkpt>
<trkpt lat="46.60325717679369" lon="7.120632940963002"><ele></ele><time>2016-7-22T21:46:37Z</time></trkpt>
<trkpt lat="46.60325793046717" lon="7.1206967273316195"><ele></ele><time>2016-7-22T21:46:40Z</time></trkpt>
<trkpt lat="46.60325482857308" lon="7.120750287681896"><ele></ele><time>2016-7-22T21:46:43Z</time></trkpt>
<trkpt lat="46.60325625215157" lon="7.1208732503655705"><ele></ele><time>2016-7-22T21:46:46Z</time></trkpt>
<trkpt lat="46.603232446450846" lon="7.1209709829344705"><ele></ele><time>2016-7-22T21:46:49Z</time></trkpt>
<trkpt lat="46.603225572071416" lon="7.121081624023383"><ele></ele><time>2016-7-22T21:46:52Z</time></trkpt>
<trkpt lat="46.60320972890662" lon="7.1212050054202"><ele></ele><time>2016-7-22T21:46:55Z</time></trkpt>
<trkpt lat="46.60321936702554" lon="7.121303660740513"><ele></ele><time>2016-7-22T21:46:58Z</time></trkpt>
<trkpt lat="46.603247445032906" lon="7.121431401704658"><ele></ele><time>2016-7-22T21:47:1Z</time></trkpt>
<trkpt lat="46.60327686432893" lon="7.121542462693117"><ele></ele><time>2016-7-22T21:47:4Z</time></trkpt>
<trkpt lat="46.60332103588403" lon="7.1216449744577695"><ele></ele><time>2016-7-22T21:47:7Z</time></trkpt>
<trkpt lat="46.60334374988998" lon="7.121734158506682"><ele></ele><time>2016-7-22T21:47:10Z</time></trkpt>
<trkpt lat="46.60336721817633" lon="7.121831724484448"><ele></ele><time>2016-7-22T21:47:13Z</time></trkpt>
<trkpt lat="46.60341197645917" lon="7.121934822995647"><ele></ele><time>2016-7-22T21:47:16Z</time></trkpt>
<trkpt lat="46.60347081663704" lon="7.1220121055289765"><ele></ele><time>2016-7-22T21:47:19Z</time></trkpt>
<trkpt lat="46.603540218206824" lon="7.122072708290781"><ele></ele><time>2016-7-22T21:47:22Z</time></trkpt>
<trkpt lat="46.603610877193724" lon="7.122121408765022"><ele></ele><time>2016-7-22T21:47:25Z</time></trkpt>
<trkpt lat="46.60363317291143" lon="7.122136831977065"><ele></ele><time>2016-7-22T21:47:28Z</time></trkpt>
<trkpt lat="46.603665275209636" lon="7.12217572476029"><ele></ele><time>2016-7-22T21:47:31Z</time></trkpt>
<trkpt lat="46.60371372218438" lon="7.122219395595277"><ele></ele><time>2016-7-22T21:47:34Z</time></trkpt>
<trkpt lat="46.60373861610235" lon="7.122252420880325"><ele></ele><time>2016-7-22T21:47:37Z</time></trkpt>
<trkpt lat="46.6037454888284" lon="7.122292821849083"><ele></ele><time>2016-7-22T21:47:40Z</time></trkpt>
<trkpt lat="46.603770717867015" lon="7.122340096392171"><ele></ele><time>2016-7-22T21:47:43Z</time></trkpt>
<trkpt lat="46.603781614197004" lon="7.122354345884053"><ele></ele><time>2016-7-22T21:47:46Z</time></trkpt>
<trkpt lat="46.60381581104562" lon="7.122478063664425"><ele></ele><time>2016-7-22T21:47:49Z</time></trkpt>
<trkpt lat="46.60386601723577" lon="7.122611923912737"><ele></ele><time>2016-7-22T21:47:52Z</time></trkpt>
<trkpt lat="46.60389032346676" lon="7.12273212107085"><ele></ele><time>2016-7-22T21:47:55Z</time></trkpt>
<trkpt lat="46.60387825201373" lon="7.122869248886366"><ele></ele><time>2016-7-22T21:47:58Z</time></trkpt>
<trkpt lat="46.60388763855578" lon="7.1229789683240545"><ele></ele><time>2016-7-22T21:48:1Z</time></trkpt>
<trkpt lat="46.603850756742744" lon="7.123106959306418"><ele></ele><time>2016-7-22T21:48:4Z</time></trkpt>
<trkpt lat="46.603820412814066" lon="7.123235620986552"><ele></ele><time>2016-7-22T21:48:7Z</time></trkpt>
<trkpt lat="46.60379643902977" lon="7.123374257283193"><ele></ele><time>2016-7-22T21:48:10Z</time></trkpt>
<trkpt lat="46.603798617326554" lon="7.123465787812135"><ele></ele><time>2016-7-22T21:48:13Z</time></trkpt>
<trkpt lat="46.603773639113655" lon="7.123476264649769"><ele></ele><time>2016-7-22T21:48:16Z</time></trkpt>
<trkpt lat="46.60375167815466" lon="7.123508199249297"><ele></ele><time>2016-7-22T21:48:19Z</time></trkpt>
<trkpt lat="46.60373650652991" lon="7.123541475104978"><ele></ele><time>2016-7-22T21:48:22Z</time></trkpt>
<trkpt lat="46.60371714374847" lon="7.123593107255603"><ele></ele><time>2016-7-22T21:48:25Z</time></trkpt>
<trkpt lat="46.60369652380386" lon="7.123633423797025"><ele></ele><time>2016-7-22T21:48:28Z</time></trkpt>
<trkpt lat="46.60364162139693" lon="7.1237141403968725"><ele></ele><time>2016-7-22T21:48:31Z</time></trkpt>
<trkpt lat="46.60359392752067" lon="7.1237869781588286"><ele></ele><time>2016-7-22T21:48:34Z</time></trkpt>
<trkpt lat="46.60358562932411" lon="7.123796449536062"><ele></ele><time>2016-7-22T21:48:37Z</time></trkpt>
<trkpt lat="46.60351379529538" lon="7.123891750288919"><ele></ele><time>2016-7-22T21:48:40Z</time></trkpt>
<trkpt lat="46.60341069672341" lon="7.123988056180037"><ele></ele><time>2016-7-22T21:48:43Z</time></trkpt>
<trkpt lat="46.60332763109291" lon="7.124068688338586"><ele></ele><time>2016-7-22T21:48:46Z</time></trkpt>
<trkpt lat="46.603245487305344" lon="7.124164659417084"><ele></ele><time>2016-7-22T21:48:49Z</time></trkpt>
<trkpt lat="46.60315018391949" lon="7.124260294928346"><ele></ele><time>2016-7-22T21:48:52Z</time></trkpt>
<trkpt lat="46.60305270085033" lon="7.124391302061373"><ele></ele><time>2016-7-22T21:48:55Z</time></trkpt>
<trkpt lat="46.60301623830497" lon="7.124503702698552"><ele></ele><time>2016-7-22T21:48:58Z</time></trkpt>
<trkpt lat="46.60297742879319" lon="7.124618953134136"><ele></ele><time>2016-7-22T21:49:1Z</time></trkpt>
<trkpt lat="46.60292512391979" lon="7.12477845976832"><ele></ele><time>2016-7-22T21:49:4Z</time></trkpt>
<trkpt lat="46.602874663248464" lon="7.12492137025721"><ele></ele><time>2016-7-22T21:49:7Z</time></trkpt>
<trkpt lat="46.60282135242712" lon="7.125091773355608"><ele></ele><time>2016-7-22T21:49:10Z</time></trkpt>
<trkpt lat="46.60278153671325" lon="7.125241221971759"><ele></ele><time>2016-7-22T21:49:13Z</time></trkpt>
<trkpt lat="46.60273811665479" lon="7.1254019022709265"><ele></ele><time>2016-7-22T21:49:16Z</time></trkpt>
<trkpt lat="46.60268447086319" lon="7.1255443097755755"><ele></ele><time>2016-7-22T21:49:19Z</time></trkpt>
<trkpt lat="46.60261548620374" lon="7.12568386709142"><ele></ele><time>2016-7-22T21:49:22Z</time></trkpt>
<trkpt lat="46.60255060828545" lon="7.125859718178592"><ele></ele><time>2016-7-22T21:49:25Z</time></trkpt>
<trkpt lat="46.60249201639375" lon="7.126072952733896"><ele></ele><time>2016-7-22T21:49:28Z</time></trkpt>
<trkpt lat="46.602463766643915" lon="7.1263210567148825"><ele></ele><time>2016-7-22T21:49:31Z</time></trkpt>
<trkpt lat="46.60247331928703" lon="7.1265720113809055"><ele></ele><time>2016-7-22T21:49:34Z</time></trkpt>
<trkpt lat="46.60253064883051" lon="7.126822883282423"><ele></ele><time>2016-7-22T21:49:37Z</time></trkpt>
<trkpt lat="46.60259736580914" lon="7.127101918616134"><ele></ele><time>2016-7-22T21:49:40Z</time></trkpt>
<trkpt lat="46.602652096000185" lon="7.12744096817698"><ele></ele><time>2016-7-22T21:49:43Z</time></trkpt>
<trkpt lat="46.60270992709609" lon="7.127817065858151"><ele></ele><time>2016-7-22T21:49:46Z</time></trkpt>
<trkpt lat="46.60277513522985" lon="7.128105572717948"><ele></ele><time>2016-7-22T21:49:49Z</time></trkpt>
<trkpt lat="46.60288183282913" lon="7.12848594625084"><ele></ele><time>2016-7-22T21:49:52Z</time></trkpt>
<trkpt lat="46.60294729220666" lon="7.128794234427918"><ele></ele><time>2016-7-22T21:49:55Z</time></trkpt>
<trkpt lat="46.60301895418543" lon="7.129103863847146"><ele></ele><time>2016-7-22T21:49:58Z</time></trkpt>
<trkpt lat="46.6030944723882" lon="7.129363537153665"><ele></ele><time>2016-7-22T21:50:1Z</time></trkpt>
<trkpt lat="46.60312120742425" lon="7.129663526382735"><ele></ele><time>2016-7-22T21:50:4Z</time></trkpt>
<trkpt lat="46.60305959670671" lon="7.130000310260278"><ele></ele><time>2016-7-22T21:50:7Z</time></trkpt>
<trkpt lat="46.6030782009988" lon="7.130327037610414"><ele></ele><time>2016-7-22T21:50:10Z</time></trkpt>
<trkpt lat="46.603168555313644" lon="7.130575228022449"><ele></ele><time>2016-7-22T21:50:13Z</time></trkpt>
<trkpt lat="46.60328556524681" lon="7.130718812755897"><ele></ele><time>2016-7-22T21:50:16Z</time></trkpt>
<trkpt lat="46.60332311566582" lon="7.1307691888752895"><ele></ele><time>2016-7-22T21:50:19Z</time></trkpt>
<trkpt lat="46.60349393650561" lon="7.131002042157975"><ele></ele><time>2016-7-22T21:50:22Z</time></trkpt>
<trkpt lat="46.60364254550195" lon="7.1312143592657184"><ele></ele><time>2016-7-22T21:50:25Z</time></trkpt>
<trkpt lat="46.603735750230335" lon="7.13141091715829"><ele></ele><time>2016-7-22T21:50:28Z</time></trkpt>
<trkpt lat="46.60377455548386" lon="7.1316871020190895"><ele></ele><time>2016-7-22T21:50:31Z</time></trkpt>
<trkpt lat="46.6038716143418" lon="7.132026487779094"><ele></ele><time>2016-7-22T21:50:34Z</time></trkpt>
<trkpt lat="46.6039542571225" lon="7.132291190383656"><ele></ele><time>2016-7-22T21:50:37Z</time></trkpt>
<trkpt lat="46.60402818152065" lon="7.132665947302633"><ele></ele><time>2016-7-22T21:50:40Z</time></trkpt>
<trkpt lat="46.60403513479941" lon="7.133007678014579"><ele></ele><time>2016-7-22T21:50:43Z</time></trkpt>
<trkpt lat="46.60406346118439" lon="7.133420487811471"><ele></ele><time>2016-7-22T21:50:46Z</time></trkpt>
<trkpt lat="46.60415934565911" lon="7.133844782312268"><ele></ele><time>2016-7-22T21:50:49Z</time></trkpt>
<trkpt lat="46.60417937795954" lon="7.133888117238281"><ele></ele><time>2016-7-22T21:50:52Z</time></trkpt>
<trkpt lat="46.6042567416421" lon="7.134014266715967"><ele></ele><time>2016-7-22T21:50:55Z</time></trkpt>
<trkpt lat="46.60431415654533" lon="7.134124573941177"><ele></ele><time>2016-7-22T21:50:58Z</time></trkpt>
<trkpt lat="46.60440962449642" lon="7.134311827955484"><ele></ele><time>2016-7-22T21:51:1Z</time></trkpt>
<trkpt lat="46.60453887111847" lon="7.134539315889354"><ele></ele><time>2016-7-22T21:51:4Z</time></trkpt>
<trkpt lat="46.604672308105165" lon="7.134821453981303"><ele></ele><time>2016-7-22T21:51:7Z</time></trkpt>
<trkpt lat="46.60482141856238" lon="7.1351688036923155"><ele></ele><time>2016-7-22T21:51:10Z</time></trkpt>
<trkpt lat="46.60500481120487" lon="7.1355011505317725"><ele></ele><time>2016-7-22T21:51:13Z</time></trkpt>
<trkpt lat="46.60517043344218" lon="7.135902983030393"><ele></ele><time>2016-7-22T21:51:16Z</time></trkpt>
<trkpt lat="46.605288112031396" lon="7.136222671737498"><ele></ele><time>2016-7-22T21:51:19Z</time></trkpt>
<trkpt lat="46.60542741549305" lon="7.13658510866917"><ele></ele><time>2016-7-22T21:51:22Z</time></trkpt>
<trkpt lat="46.60558473999246" lon="7.1369545029815855"><ele></ele><time>2016-7-22T21:51:25Z</time></trkpt>
<trkpt lat="46.60573527460673" lon="7.137373601881579"><ele></ele><time>2016-7-22T21:51:28Z</time></trkpt>
<trkpt lat="46.60585563510094" lon="7.137722124419767"><ele></ele><time>2016-7-22T21:51:31Z</time></trkpt>
<trkpt lat="46.60602469404478" lon="7.138113479593959"><ele></ele><time>2016-7-22T21:51:34Z</time></trkpt>
<trkpt lat="46.60622728105401" lon="7.138466530163275"><ele></ele><time>2016-7-22T21:51:37Z</time></trkpt>
<trkpt lat="46.60647152595896" lon="7.138839111497679"><ele></ele><time>2016-7-22T21:51:40Z</time></trkpt>
<trkpt lat="46.60673664145416" lon="7.139246310582503"><ele></ele><time>2016-7-22T21:51:43Z</time></trkpt>
<trkpt lat="46.6067646363777" lon="7.139307834428545"><ele></ele><time>2016-7-22T21:51:46Z</time></trkpt>
<trkpt lat="46.60680469902013" lon="7.139576391761706"><ele></ele><time>2016-7-22T21:51:49Z</time></trkpt>
<trkpt lat="46.60677133698781" lon="7.139763559123354"><ele></ele><time>2016-7-22T21:51:52Z</time></trkpt>
<trkpt lat="46.60673864643066" lon="7.139865314817936"><ele></ele><time>2016-7-22T21:51:55Z</time></trkpt>
<trkpt lat="46.60667896484251" lon="7.14008500342204"><ele></ele><time>2016-7-22T21:51:58Z</time></trkpt>
<trkpt lat="46.60659321426615" lon="7.140419691287278"><ele></ele><time>2016-7-22T21:52:1Z</time></trkpt>
<trkpt lat="46.6066045268154" lon="7.140700820859536"><ele></ele><time>2016-7-22T21:52:4Z</time></trkpt>
<trkpt lat="46.60668456984226" lon="7.141093766639394"><ele></ele><time>2016-7-22T21:52:7Z</time></trkpt>
<trkpt lat="46.606742401522396" lon="7.141419908095159"><ele></ele><time>2016-7-22T21:52:10Z</time></trkpt>
<trkpt lat="46.60681071041441" lon="7.141762729784075"><ele></ele><time>2016-7-22T21:52:13Z</time></trkpt>
<trkpt lat="46.606869380877484" lon="7.14203413737266"><ele></ele><time>2016-7-22T21:52:16Z</time></trkpt>
<trkpt lat="46.606874158241574" lon="7.142064396178891"><ele></ele><time>2016-7-22T21:52:19Z</time></trkpt>
<trkpt lat="46.60689653514863" lon="7.142324235935599"><ele></ele><time>2016-7-22T21:52:22Z</time></trkpt>
<trkpt lat="46.60693483773254" lon="7.142580136541527"><ele></ele><time>2016-7-22T21:52:25Z</time></trkpt>
<trkpt lat="46.60697171474922" lon="7.14289571632846"><ele></ele><time>2016-7-22T21:52:28Z</time></trkpt>
<trkpt lat="46.60693793361099" lon="7.143084308607393"><ele></ele><time>2016-7-22T21:52:31Z</time></trkpt>
<trkpt lat="46.60683483504522" lon="7.143181033618693"><ele></ele><time>2016-7-22T21:52:34Z</time></trkpt>
<trkpt lat="46.60675520653859" lon="7.143212380230133"><ele></ele><time>2016-7-22T21:52:37Z</time></trkpt>
<trkpt lat="46.60670902175204" lon="7.143254037323605"><ele></ele><time>2016-7-22T21:52:40Z</time></trkpt>
<trkpt lat="46.60657440614629" lon="7.143448243282683"><ele></ele><time>2016-7-22T21:52:43Z</time></trkpt>
<trkpt lat="46.60649611754249" lon="7.143591404628716"><ele></ele><time>2016-7-22T21:52:46Z</time></trkpt>
<trkpt lat="46.606392430616594" lon="7.143839339319687"><ele></ele><time>2016-7-22T21:52:49Z</time></trkpt>
<trkpt lat="46.60629670734683" lon="7.144009322404198"><ele></ele><time>2016-7-22T21:52:52Z</time></trkpt>
<trkpt lat="46.60621967590637" lon="7.144164050817385"><ele></ele><time>2016-7-22T21:52:55Z</time></trkpt>
<trkpt lat="46.606087491951754" lon="7.144275108265997"><ele></ele><time>2016-7-22T21:52:58Z</time></trkpt>
<trkpt lat="46.605974502330895" lon="7.144409048753586"><ele></ele><time>2016-7-22T21:53:1Z</time></trkpt>
<trkpt lat="46.605808705005984" lon="7.144696963812799"><ele></ele><time>2016-7-22T21:53:4Z</time></trkpt>
<trkpt lat="46.60577073406559" lon="7.144778518988171"><ele></ele><time>2016-7-22T21:53:7Z</time></trkpt>
<trkpt lat="46.6057983931672" lon="7.144891004850655"><ele></ele><time>2016-7-22T21:53:10Z</time></trkpt>
<trkpt lat="46.60579478618381" lon="7.145147826555741"><ele></ele><time>2016-7-22T21:53:13Z</time></trkpt>
<trkpt lat="46.605729068273924" lon="7.145493578992851"><ele></ele><time>2016-7-22T21:53:16Z</time></trkpt>
<trkpt lat="46.60569310803743" lon="7.145664066299127"><ele></ele><time>2016-7-22T21:53:19Z</time></trkpt>
<trkpt lat="46.605654130390164" lon="7.145827345095465"><ele></ele><time>2016-7-22T21:53:22Z</time></trkpt>
<trkpt lat="46.60564784333356" lon="7.145885263970481"><ele></ele><time>2016-7-22T21:53:25Z</time></trkpt>
<trkpt lat="46.605624121529914" lon="7.145977548304744"><ele></ele><time>2016-7-22T21:53:28Z</time></trkpt>
<trkpt lat="46.60556242969182" lon="7.146067149599555"><ele></ele><time>2016-7-22T21:53:31Z</time></trkpt>
<trkpt lat="46.6054518701385" lon="7.146265295590396"><ele></ele><time>2016-7-22T21:53:34Z</time></trkpt>
<trkpt lat="46.60538313621967" lon="7.146473584606948"><ele></ele><time>2016-7-22T21:53:37Z</time></trkpt>
<trkpt lat="46.605318007146394" lon="7.146623870870976"><ele></ele><time>2016-7-22T21:53:40Z</time></trkpt>
<trkpt lat="46.60531540673584" lon="7.146811793282852"><ele></ele><time>2016-7-22T21:53:43Z</time></trkpt>
<trkpt lat="46.60530811252301" lon="7.1469933453393315"><ele></ele><time>2016-7-22T21:53:46Z</time></trkpt>
<trkpt lat="46.60540366497046" lon="7.147119495197391"><ele></ele><time>2016-7-22T21:53:49Z</time></trkpt>
<trkpt lat="46.605503827738076" lon="7.147220667057628"><ele></ele><time>2016-7-22T21:53:52Z</time></trkpt>
<trkpt lat="46.6056102765966" lon="7.147353857958458"><ele></ele><time>2016-7-22T21:53:55Z</time></trkpt>
<trkpt lat="46.60562536363962" lon="7.147391073976468"><ele></ele><time>2016-7-22T21:53:58Z</time></trkpt>
<trkpt lat="46.60564045035346" lon="7.147458967792485"><ele></ele><time>2016-7-22T21:54:1Z</time></trkpt>
<trkpt lat="46.60568294489307" lon="7.147622667459795"><ele></ele><time>2016-7-22T21:54:4Z</time></trkpt>
<trkpt lat="46.60567204724501" lon="7.147730961525888"><ele></ele><time>2016-7-22T21:54:7Z</time></trkpt>
<trkpt lat="46.605653606233716" lon="7.147805895417897"><ele></ele><time>2016-7-22T21:54:10Z</time></trkpt>
<trkpt lat="46.60559526611355" lon="7.1479932298816955"><ele></ele><time>2016-7-22T21:54:13Z</time></trkpt>
<trkpt lat="46.60553642293514" lon="7.14819397539414"><ele></ele><time>2016-7-22T21:54:16Z</time></trkpt>
<trkpt lat="46.60550926369797" lon="7.148365636361719"><ele></ele><time>2016-7-22T21:54:19Z</time></trkpt>
<trkpt lat="46.60549274879426" lon="7.148602173560381"><ele></ele><time>2016-7-22T21:54:22Z</time></trkpt>
<trkpt lat="46.60541185918459" lon="7.148989751413871"><ele></ele><time>2016-7-22T21:54:25Z</time></trkpt>
<trkpt lat="46.6053603925247" lon="7.1491500124529335"><ele></ele><time>2016-7-22T21:54:28Z</time></trkpt>
<trkpt lat="46.60535117159556" lon="7.149227042024281"><ele></ele><time>2016-7-22T21:54:31Z</time></trkpt>
<trkpt lat="46.60529459157877" lon="7.149423764269999"><ele></ele><time>2016-7-22T21:54:34Z</time></trkpt>
<trkpt lat="46.60523482800264" lon="7.149474222080901"><ele></ele><time>2016-7-22T21:54:37Z</time></trkpt>
<trkpt lat="46.605175567548734" lon="7.149505317685893"><ele></ele><time>2016-7-22T21:54:40Z</time></trkpt>
<trkpt lat="46.605087556961166" lon="7.14955267357515"><ele></ele><time>2016-7-22T21:54:43Z</time></trkpt>
<trkpt lat="46.605042797512155" lon="7.149556109185675"><ele></ele><time>2016-7-22T21:54:46Z</time></trkpt>
<trkpt lat="46.60495067970147" lon="7.1496115116214"><ele></ele><time>2016-7-22T21:54:49Z</time></trkpt>
<trkpt lat="46.60493609472674" lon="7.149653253226584"><ele></ele><time>2016-7-22T21:54:52Z</time></trkpt>
<trkpt lat="46.60479535985908" lon="7.149892134662052"><ele></ele><time>2016-7-22T21:54:55Z</time></trkpt>
<trkpt lat="46.6046147264951" lon="7.150186503489617"><ele></ele><time>2016-7-22T21:54:58Z</time></trkpt>
<trkpt lat="46.604511375742355" lon="7.15035212782745"><ele></ele><time>2016-7-22T21:55:1Z</time></trkpt>
<trkpt lat="46.60448807365182" lon="7.1503870798947196"><ele></ele><time>2016-7-22T21:55:4Z</time></trkpt>
<trkpt lat="46.60445714395197" lon="7.150428485868606"><ele></ele><time>2016-7-22T21:55:7Z</time></trkpt>
<trkpt lat="46.60431138119446" lon="7.150550104246353"><ele></ele><time>2016-7-22T21:55:10Z</time></trkpt>
<trkpt lat="46.60417190516672" lon="7.150644146270035"><ele></ele><time>2016-7-22T21:55:13Z</time></trkpt>
<trkpt lat="46.60403066865597" lon="7.150764507460252"><ele></ele><time>2016-7-22T21:55:16Z</time></trkpt>
<trkpt lat="46.60380317988211" lon="7.1511078256429625"><ele></ele><time>2016-7-22T21:55:19Z</time></trkpt>
<trkpt lat="46.60376168853646" lon="7.151190051300873"><ele></ele><time>2016-7-22T21:55:22Z</time></trkpt>
<trkpt lat="46.60353704901297" lon="7.15158961217975"><ele></ele><time>2016-7-22T21:55:25Z</time></trkpt>
<trkpt lat="46.603441912163504" lon="7.151790189275001"><ele></ele><time>2016-7-22T21:55:28Z</time></trkpt>
<trkpt lat="46.6032589315029" lon="7.152119007722084"><ele></ele><time>2016-7-22T21:55:31Z</time></trkpt>
<trkpt lat="46.60315130457935" lon="7.152415557444133"><ele></ele><time>2016-7-22T21:55:34Z</time></trkpt>
<trkpt lat="46.60306697974974" lon="7.1526768198218384"><ele></ele><time>2016-7-22T21:55:37Z</time></trkpt>
<trkpt lat="46.60293772692373" lon="7.153026761858186"><ele></ele><time>2016-7-22T21:55:40Z</time></trkpt>
<trkpt lat="46.60290629290541" lon="7.153199680028501"><ele></ele><time>2016-7-22T21:55:43Z</time></trkpt>
<trkpt lat="46.602995055709734" lon="7.153353741503734"><ele></ele><time>2016-7-22T21:55:46Z</time></trkpt>
<trkpt lat="46.60301441918952" lon="7.153235556959426"><ele></ele><time>2016-7-22T21:55:49Z</time></trkpt>
<trkpt lat="46.60300696022974" lon="7.153147379079474"><ele></ele><time>2016-7-22T21:55:52Z</time></trkpt>
<trkpt lat="46.60295960273298" lon="7.153118628092494"><ele></ele><time>2016-7-22T21:55:55Z</time></trkpt>
<trkpt lat="46.60299673486466" lon="7.153094237533186"><ele></ele><time>2016-7-22T21:55:58Z</time></trkpt>
<trkpt lat="46.603026742461424" lon="7.153061381087825"><ele></ele><time>2016-7-22T21:56:1Z</time></trkpt>
<trkpt lat="46.60312078915462" lon="7.152908077951562"><ele></ele><time>2016-7-22T21:56:4Z</time></trkpt>
<trkpt lat="46.603129758154516" lon="7.152874969592405"><ele></ele><time>2016-7-22T21:56:7Z</time></trkpt>
<trkpt lat="46.60324568340658" lon="7.1525562918010435"><ele></ele><time>2016-7-22T21:56:10Z</time></trkpt>
<trkpt lat="46.60340695565978" lon="7.152157651551786"><ele></ele><time>2016-7-22T21:56:13Z</time></trkpt>
<trkpt lat="46.60345867310069" lon="7.152060171034486"><ele></ele><time>2016-7-22T21:56:16Z</time></trkpt>
<trkpt lat="46.60375355367132" lon="7.151602273569679"><ele></ele><time>2016-7-22T21:56:19Z</time></trkpt>
<trkpt lat="46.6039859039313" lon="7.151260967149587"><ele></ele><time>2016-7-22T21:56:22Z</time></trkpt>
<trkpt lat="46.604051283655295" lon="7.151185447540666"><ele></ele><time>2016-7-22T21:56:25Z</time></trkpt>
<trkpt lat="46.60411766861061" lon="7.151165835308286"><ele></ele><time>2016-7-22T21:56:28Z</time></trkpt>
<trkpt lat="46.604342304276905" lon="7.151126948115985"><ele></ele><time>2016-7-22T21:56:31Z</time></trkpt>
<trkpt lat="46.60446543457716" lon="7.15112619641901"><ele></ele><time>2016-7-22T21:56:34Z</time></trkpt>
<trkpt lat="46.60504001460267" lon="7.151132495336305"><ele></ele><time>2016-7-22T21:56:37Z</time></trkpt>
<trkpt lat="46.6054184579804" lon="7.1511294860698325"><ele></ele><time>2016-7-22T21:56:40Z</time></trkpt>
<trkpt lat="46.605487273808855" lon="7.151098893585863"><ele></ele><time>2016-7-22T21:56:43Z</time></trkpt>
<trkpt lat="46.60564334650307" lon="7.150960176332357"><ele></ele><time>2016-7-22T21:56:46Z</time></trkpt>
<trkpt lat="46.605818697320075" lon="7.150847275787411"><ele></ele><time>2016-7-22T21:56:49Z</time></trkpt>
<trkpt lat="46.60587309598043" lon="7.1508427507369685"><ele></ele><time>2016-7-22T21:56:52Z</time></trkpt>
<trkpt lat="46.606092366263816" lon="7.150893885164698"><ele></ele><time>2016-7-22T21:56:55Z</time></trkpt>
<trkpt lat="46.6061510392889" lon="7.150927749363985"><ele></ele><time>2016-7-22T21:56:58Z</time></trkpt>
<trkpt lat="46.606218094034574" lon="7.150979551036951"><ele></ele><time>2016-7-22T21:57:1Z</time></trkpt>
<trkpt lat="46.60638606704561" lon="7.151027750680277"><ele></ele><time>2016-7-22T21:57:4Z</time></trkpt>
<trkpt lat="46.60645555332109" lon="7.151007132686585"><ele></ele><time>2016-7-22T21:57:7Z</time></trkpt>
<trkpt lat="46.60650157046044" lon="7.1509660623178855"><ele></ele><time>2016-7-22T21:57:10Z</time></trkpt>
<trkpt lat="46.6067692073142" lon="7.150743109276184"><ele></ele><time>2016-7-22T21:57:13Z</time></trkpt>
<trkpt lat="46.60693584141737" lon="7.150586035868463"><ele></ele><time>2016-7-22T21:57:16Z</time></trkpt>
<trkpt lat="46.607066265326615" lon="7.150459974748387"><ele></ele><time>2016-7-22T21:57:19Z</time></trkpt>
<trkpt lat="46.607070791811566" lon="7.150436421674415"><ele></ele><time>2016-7-22T21:57:22Z</time></trkpt>
<trkpt lat="46.60709275375158" lon="7.1503122860370105"><ele></ele><time>2016-7-22T21:57:25Z</time></trkpt>
<trkpt lat="46.607102560846876" lon="7.150288230163127"><ele></ele><time>2016-7-22T21:57:28Z</time></trkpt>
<trkpt lat="46.60711706312987" lon="7.150141211744284"><ele></ele><time>2016-7-22T21:57:31Z</time></trkpt>
<trkpt lat="46.60714874916688" lon="7.14991640955706"><ele></ele><time>2016-7-22T21:57:34Z</time></trkpt>
<trkpt lat="46.60718345292899" lon="7.149669563007508"><ele></ele><time>2016-7-22T21:57:37Z</time></trkpt>
<trkpt lat="46.60725864152976" lon="7.1494040256753335"><ele></ele><time>2016-7-22T21:57:40Z</time></trkpt>
<trkpt lat="46.60732578264983" lon="7.149217361959057"><ele></ele><time>2016-7-22T21:57:43Z</time></trkpt>
<trkpt lat="46.607381188571566" lon="7.149079313076459"><ele></ele><time>2016-7-22T21:57:46Z</time></trkpt>
<trkpt lat="46.607408599412025" lon="7.1488939896023345"><ele></ele><time>2016-7-22T21:57:49Z</time></trkpt>
<trkpt lat="46.60741631324336" lon="7.148663403375942"><ele></ele><time>2016-7-22T21:57:52Z</time></trkpt>
<trkpt lat="46.607407177486074" lon="7.14861420135475"><ele></ele><time>2016-7-22T21:57:55Z</time></trkpt>
<trkpt lat="46.60740541818126" lon="7.1485305498364795"><ele></ele><time>2016-7-22T21:57:58Z</time></trkpt>
<trkpt lat="46.60742779875337" lon="7.148449832512701"><ele></ele><time>2016-7-22T21:58:1Z</time></trkpt>
<trkpt lat="46.60743232523153" lon="7.148426949991947"><ele></ele><time>2016-7-22T21:58:4Z</time></trkpt>
<trkpt lat="46.6074474132" lon="7.148377916136186"><ele></ele><time>2016-7-22T21:58:7Z</time></trkpt>
<trkpt lat="46.60748848564141" lon="7.1482781722795306"><ele></ele><time>2016-7-22T21:58:10Z</time></trkpt>
<trkpt lat="46.60750809985354" lon="7.148228132692945"><ele></ele><time>2016-7-22T21:58:13Z</time></trkpt>
<trkpt lat="46.60753550930919" lon="7.1481720582995685"><ele></ele><time>2016-7-22T21:58:16Z</time></trkpt>
<trkpt lat="46.60758194652547" lon="7.1480396251039355"><ele></ele><time>2016-7-22T21:58:19Z</time></trkpt>
<trkpt lat="46.60760918957287" lon="7.147868886153707"><ele></ele><time>2016-7-22T21:58:22Z</time></trkpt>
<trkpt lat="46.60762268683595" lon="7.14764668196592"><ele></ele><time>2016-7-22T21:58:25Z</time></trkpt>
<trkpt lat="46.60763383660718" lon="7.147476361761097"><ele></ele><time>2016-7-22T21:58:28Z</time></trkpt>
<trkpt lat="46.60768723105372" lon="7.147321381374976"><ele></ele><time>2016-7-22T21:58:31Z</time></trkpt>
<trkpt lat="46.60771774386135" lon="7.147074870014074"><ele></ele><time>2016-7-22T21:58:34Z</time></trkpt>
<trkpt lat="46.60773199499235" lon="7.146899772187469"><ele></ele><time>2016-7-22T21:58:37Z</time></trkpt>
<trkpt lat="46.60777935532648" lon="7.1466643253175715"><ele></ele><time>2016-7-22T21:58:40Z</time></trkpt>
<trkpt lat="46.60789452472328" lon="7.146485793106529"><ele></ele><time>2016-7-22T21:58:43Z</time></trkpt>
<trkpt lat="46.60797365060794" lon="7.146427205267656"><ele></ele><time>2016-7-22T21:58:46Z</time></trkpt>
<trkpt lat="46.60807104854385" lon="7.1464168976387"><ele></ele><time>2016-7-22T21:58:49Z</time></trkpt>
<trkpt lat="46.608165596841985" lon="7.146386808636008"><ele></ele><time>2016-7-22T21:58:52Z</time></trkpt>
<trkpt lat="46.60821295486739" lon="7.146366441622575"><ele></ele><time>2016-7-22T21:58:55Z</time></trkpt>
<trkpt lat="46.60832871019156" lon="7.146263095173881"><ele></ele><time>2016-7-22T21:58:58Z</time></trkpt>
<trkpt lat="46.608442705474545" lon="7.146144828884364"><ele></ele><time>2016-7-22T21:59:1Z</time></trkpt>
<trkpt lat="46.60855728752317" lon="7.146023628938931"><ele></ele><time>2016-7-22T21:59:4Z</time></trkpt>
<trkpt lat="46.608669522226826" lon="7.145940566640793"><ele></ele><time>2016-7-22T21:59:7Z</time></trkpt>
<trkpt lat="46.60881168119122" lon="7.145780056131666"><ele></ele><time>2016-7-22T21:59:10Z</time></trkpt>
<trkpt lat="46.60897521345715" lon="7.145673190323592"><ele></ele><time>2016-7-22T21:59:13Z</time></trkpt>
<trkpt lat="46.609073282249845" lon="7.14563471948741"><ele></ele><time>2016-7-22T21:59:16Z</time></trkpt>
<trkpt lat="46.6092699224468" lon="7.145586024868376"><ele></ele><time>2016-7-22T21:59:19Z</time></trkpt>
<trkpt lat="46.60946798773692" lon="7.1455217399251625"><ele></ele><time>2016-7-22T21:59:22Z</time></trkpt>
<trkpt lat="46.60969706631844" lon="7.1454375905282115"><ele></ele><time>2016-7-22T21:59:25Z</time></trkpt>
<trkpt lat="46.60993871798786" lon="7.145333157180115"><ele></ele><time>2016-7-22T21:59:28Z</time></trkpt>
<trkpt lat="46.61013452012437" lon="7.145272476410773"><ele></ele><time>2016-7-22T21:59:31Z</time></trkpt>
<trkpt lat="46.610278436843245" lon="7.145339953936532"><ele></ele><time>2016-7-22T21:59:34Z</time></trkpt>
<trkpt lat="46.610377425131205" lon="7.145535673727576"><ele></ele><time>2016-7-22T21:59:37Z</time></trkpt>
<trkpt lat="46.610483704357435" lon="7.145854859232579"><ele></ele><time>2016-7-22T21:59:40Z</time></trkpt>
<trkpt lat="46.6106293773259" lon="7.146290386525815"><ele></ele><time>2016-7-22T21:59:43Z</time></trkpt>
<trkpt lat="46.61084059436664" lon="7.1469577589147075"><ele></ele><time>2016-7-22T21:59:46Z</time></trkpt>
<trkpt lat="46.61107175964605" lon="7.14769210320599"><ele></ele><time>2016-7-22T21:59:49Z</time></trkpt>
<trkpt lat="46.61109464142686" lon="7.1477705583946625"><ele></ele><time>2016-7-22T21:59:52Z</time></trkpt>
<trkpt lat="46.611331757319384" lon="7.1485562839268795"><ele></ele><time>2016-7-22T21:59:55Z</time></trkpt>
<trkpt lat="46.611484889453514" lon="7.149061632693312"><ele></ele><time>2016-7-22T21:59:58Z</time></trkpt>
<trkpt lat="46.611545404543776" lon="7.149278306417486"><ele></ele><time>2016-7-22T22:0:1Z</time></trkpt>
<trkpt lat="46.61157080063296" lon="7.149381655936476"><ele></ele><time>2016-7-22T22:0:4Z</time></trkpt>
<trkpt lat="46.61170431961606" lon="7.149838305368405"><ele></ele><time>2016-7-22T22:0:7Z</time></trkpt>
<trkpt lat="46.61189106180815" lon="7.150476256696668"><ele></ele><time>2016-7-22T22:0:10Z</time></trkpt>
<trkpt lat="46.612019803136" lon="7.150930056170964"><ele></ele><time>2016-7-22T22:0:13Z</time></trkpt>
<trkpt lat="46.61212373491223" lon="7.15129886252459"><ele></ele><time>2016-7-22T22:0:16Z</time></trkpt>
<trkpt lat="46.612228921621245" lon="7.151887945532177"><ele></ele><time>2016-7-22T22:0:19Z</time></trkpt>
<trkpt lat="46.6123232122619" lon="7.15243813623346"><ele></ele><time>2016-7-22T22:0:22Z</time></trkpt>
<trkpt lat="46.61239353146295" lon="7.152910709915223"><ele></ele><time>2016-7-22T22:0:25Z</time></trkpt>
<trkpt lat="46.61247080819181" lon="7.1533329084605395"><ele></ele><time>2016-7-22T22:0:28Z</time></trkpt>
<trkpt lat="46.612523106106146" lon="7.153822077934014"><ele></ele><time>2016-7-22T22:0:31Z</time></trkpt>
<trkpt lat="46.612482029641015" lon="7.154299007792362"><ele></ele><time>2016-7-22T22:0:34Z</time></trkpt>
<trkpt lat="46.61246995863509" lon="7.154397494987689"><ele></ele><time>2016-7-22T22:0:37Z</time></trkpt>
<trkpt lat="46.612432486837484" lon="7.154832934464324"><ele></ele><time>2016-7-22T22:0:40Z</time></trkpt>
<trkpt lat="46.6124449702621" lon="7.155360408409113"><ele></ele><time>2016-7-22T22:0:43Z</time></trkpt>
<trkpt lat="46.612473459004384" lon="7.156276216648111"><ele></ele><time>2016-7-22T22:0:46Z</time></trkpt>
<trkpt lat="46.6125172033139" lon="7.157147098172524"><ele></ele><time>2016-7-22T22:0:49Z</time></trkpt>
<trkpt lat="46.61268978167572" lon="7.157638281903824"><ele></ele><time>2016-7-22T22:0:52Z</time></trkpt>
<trkpt lat="46.6127634570265" lon="7.157794773779648"><ele></ele><time>2016-7-22T22:0:55Z</time></trkpt>
<trkpt lat="46.61314968750214" lon="7.158554434741477"><ele></ele><time>2016-7-22T22:0:58Z</time></trkpt>
<trkpt lat="46.613227051014036" lon="7.1586998625723295"><ele></ele><time>2016-7-22T22:1:1Z</time></trkpt>
<trkpt lat="46.613422848161946" lon="7.159108401152925"><ele></ele><time>2016-7-22T22:1:4Z</time></trkpt>
<trkpt lat="46.61345637448252" lon="7.159233711448767"><ele></ele><time>2016-7-22T22:1:7Z</time></trkpt>
<trkpt lat="46.61344580918765" lon="7.159617938026817"><ele></ele><time>2016-7-22T22:1:10Z</time></trkpt>
<trkpt lat="46.613394090183924" lon="7.159862521076723"><ele></ele><time>2016-7-22T22:1:13Z</time></trkpt>
<trkpt lat="46.6133281208704" lon="7.16020668092375"><ele></ele><time>2016-7-22T22:1:16Z</time></trkpt>
<trkpt lat="46.61329224237792" lon="7.160574226953175"><ele></ele><time>2016-7-22T22:1:19Z</time></trkpt>
<trkpt lat="46.61326089158635" lon="7.160803639184833"><ele></ele><time>2016-7-22T22:1:22Z</time></trkpt>
<trkpt lat="46.61326273449387" lon="7.160908496933217"><ele></ele><time>2016-7-22T22:1:25Z</time></trkpt>
<trkpt lat="46.61323004168127" lon="7.161224159002074"><ele></ele><time>2016-7-22T22:1:28Z</time></trkpt>
<trkpt lat="46.61319684682557" lon="7.161457762150088"><ele></ele><time>2016-7-22T22:1:31Z</time></trkpt>
<trkpt lat="46.613162813668744" lon="7.161701758850118"><ele></ele><time>2016-7-22T22:1:34Z</time></trkpt>
<trkpt lat="46.613034983969726" lon="7.16222235659677"><ele></ele><time>2016-7-22T22:1:37Z</time></trkpt>
<trkpt lat="46.613033805817416" lon="7.16266408329119"><ele></ele><time>2016-7-22T22:1:40Z</time></trkpt>
<trkpt lat="46.613037073480285" lon="7.162785118159253"><ele></ele><time>2016-7-22T22:1:43Z</time></trkpt>
<trkpt lat="46.61310135524024" lon="7.163494061592987"><ele></ele><time>2016-7-22T22:1:46Z</time></trkpt>
<trkpt lat="46.61302423809831" lon="7.163828246730923"><ele></ele><time>2016-7-22T22:1:49Z</time></trkpt>
<trkpt lat="46.61294276332126" lon="7.164071907134753"><ele></ele><time>2016-7-22T22:1:52Z</time></trkpt>
<trkpt lat="46.61293697776479" lon="7.164264188053293"><ele></ele><time>2016-7-22T22:1:55Z</time></trkpt>
<trkpt lat="46.61300260491702" lon="7.164569039576922"><ele></ele><time>2016-7-22T22:1:58Z</time></trkpt>
<trkpt lat="46.61296521811489" lon="7.16489677150022"><ele></ele><time>2016-7-22T22:2:1Z</time></trkpt>
<trkpt lat="46.61289774153859" lon="7.165102294510829"><ele></ele><time>2016-7-22T22:2:4Z</time></trkpt>
<trkpt lat="46.6127511379811" lon="7.165470508716197"><ele></ele><time>2016-7-22T22:2:7Z</time></trkpt>
<trkpt lat="46.61268693042122" lon="7.16566949390759"><ele></ele><time>2016-7-22T22:2:10Z</time></trkpt>
<trkpt lat="46.612635881287225" lon="7.165979874982944"><ele></ele><time>2016-7-22T22:2:13Z</time></trkpt>
<trkpt lat="46.61260419303436" lon="7.166416907154225"><ele></ele><time>2016-7-22T22:2:16Z</time></trkpt>
<trkpt lat="46.61258524880833" lon="7.166521177722926"><ele></ele><time>2016-7-22T22:2:19Z</time></trkpt>
<trkpt lat="46.61255264091752" lon="7.166733909929669"><ele></ele><time>2016-7-22T22:2:22Z</time></trkpt>
<trkpt lat="46.61252866644635" lon="7.166942032271011"><ele></ele><time>2016-7-22T22:2:25Z</time></trkpt>
<trkpt lat="46.612492370874996" lon="7.167120650020021"><ele></ele><time>2016-7-22T22:2:28Z</time></trkpt>
<trkpt lat="46.612447694064684" lon="7.167235481244287"><ele></ele><time>2016-7-22T22:2:31Z</time></trkpt>
<trkpt lat="46.61241081266925" lon="7.167328016752214"><ele></ele><time>2016-7-22T22:2:34Z</time></trkpt>
<trkpt lat="46.61240737574662" lon="7.167360035579457"><ele></ele><time>2016-7-22T22:2:37Z</time></trkpt>
<trkpt lat="46.61239773629239" lon="7.167384091457693"><ele></ele><time>2016-7-22T22:2:40Z</time></trkpt>
<trkpt lat="46.61240620268168" lon="7.167321897857909"><ele></ele><time>2016-7-22T22:2:43Z</time></trkpt>
<trkpt lat="46.61239656381189" lon="7.167290633121676"><ele></ele><time>2016-7-22T22:2:46Z</time></trkpt>
<trkpt lat="46.612372507675154" lon="7.167294991198566"><ele></ele><time>2016-7-22T22:2:49Z</time></trkpt>
<trkpt lat="46.612373345782345" lon="7.167302954032299"><ele></ele><time>2016-7-22T22:2:52Z</time></trkpt>
<trkpt lat="46.61254106711059" lon="7.167374287701579"><ele></ele><time>2016-7-22T22:2:55Z</time></trkpt>
<trkpt lat="46.61243361084249" lon="7.167387696450463"><ele></ele><time>2016-7-22T22:2:58Z</time></trkpt>
<trkpt lat="46.612459595211526" lon="7.1673462065480225"><ele></ele><time>2016-7-22T22:3:1Z</time></trkpt>
<trkpt lat="46.612503013905" lon="7.167309913805274"><ele></ele><time>2016-7-22T22:3:4Z</time></trkpt>
<trkpt lat="46.612578451530645" lon="7.167271358634642"><ele></ele><time>2016-7-22T22:3:7Z</time></trkpt>
<trkpt lat="46.61265380544525" lon="7.167222577530563"><ele></ele><time>2016-7-22T22:3:10Z</time></trkpt>
<trkpt lat="46.61267693962296" lon="7.1672133579253785"><ele></ele><time>2016-7-22T22:3:13Z</time></trkpt>
<trkpt lat="46.61267853262396" lon="7.167171951318037"><ele></ele><time>2016-7-22T22:3:16Z</time></trkpt>
<trkpt lat="46.61267442560165" lon="7.1671610547451445"><ele></ele><time>2016-7-22T22:3:19Z</time></trkpt>
<trkpt lat="46.612657829657145" lon="7.167138004132513"><ele></ele><time>2016-7-22T22:3:22Z</time></trkpt>
<trkpt lat="46.6126639479206" lon="7.1671884633697465"><ele></ele><time>2016-7-22T22:3:25Z</time></trkpt>
<trkpt lat="46.61262270853682" lon="7.167223582691597"><ele></ele><time>2016-7-22T22:3:28Z</time></trkpt>
<trkpt lat="46.6126161706924" lon="7.167219056319011"><ele></ele><time>2016-7-22T22:3:31Z</time></trkpt>
<trkpt lat="46.6125770271766" lon="7.167217295276389"><ele></ele><time>2016-7-22T22:3:34Z</time></trkpt>
<trkpt lat="46.612518353622534" lon="7.167232632913024"><ele></ele><time>2016-7-22T22:3:37Z</time></trkpt>
<trkpt lat="46.61248750805644" lon="7.167244534564119"><ele></ele><time>2016-7-22T22:3:40Z</time></trkpt>
<trkpt lat="46.61245104632428" lon="7.1672833420297275"><ele></ele><time>2016-7-22T22:3:43Z</time></trkpt>
<trkpt lat="46.61243336035562" lon="7.167295830697451"><ele></ele><time>2016-7-22T22:3:46Z</time></trkpt>
<trkpt lat="46.612516592243004" lon="7.1673441122950585"><ele></ele><time>2016-7-22T22:3:49Z</time></trkpt>
<trkpt lat="46.612505779320024" lon="7.167368251967151"><ele></ele><time>2016-7-22T22:3:52Z</time></trkpt>
<trkpt lat="46.61238901931702" lon="7.167363807045062"><ele></ele><time>2016-7-22T22:3:55Z</time></trkpt>
<trkpt lat="46.61237175271499" lon="7.16735064707329"><ele></ele><time>2016-7-22T22:3:58Z</time></trkpt>
<trkpt lat="46.61236932206025" lon="7.167341175461299"><ele></ele><time>2016-7-22T22:4:1Z</time></trkpt>
<trkpt lat="46.612371166206884" lon="7.167329273186904"><ele></ele><time>2016-7-22T22:4:4Z</time></trkpt>
<trkpt lat="46.612399915787265" lon="7.167365399842369"><ele></ele><time>2016-7-22T22:4:7Z</time></trkpt>
<trkpt lat="46.61240318490073" lon="7.167349558100292"><ele></ele><time>2016-7-22T22:4:10Z</time></trkpt>
<trkpt lat="46.61240762716946" lon="7.16736330453026"><ele></ele><time>2016-7-22T22:4:13Z</time></trkpt>
<trkpt lat="46.61248465642695" lon="7.167412927100323"><ele></ele><time>2016-7-22T22:4:16Z</time></trkpt>
<trkpt lat="46.61260183384527" lon="7.167576460707009"><ele></ele><time>2016-7-22T22:4:19Z</time></trkpt>
<trkpt lat="46.61267793819351" lon="7.167900590850318"><ele></ele><time>2016-7-22T22:4:22Z</time></trkpt>
<trkpt lat="46.612736442818886" lon="7.1680074614754785"><ele></ele><time>2016-7-22T22:4:25Z</time></trkpt>
<trkpt lat="46.612811627864886" lon="7.168075188933252"><ele></ele><time>2016-7-22T22:4:28Z</time></trkpt>
<trkpt lat="46.612892345257755" lon="7.168116010574668"><ele></ele><time>2016-7-22T22:4:31Z</time></trkpt>
<trkpt lat="46.612993849675064" lon="7.168168232061705"><ele></ele><time>2016-7-22T22:4:34Z</time></trkpt>
<trkpt lat="46.61326466780838" lon="7.168308634890568"><ele></ele><time>2016-7-22T22:4:37Z</time></trkpt>
<trkpt lat="46.61342040290483" lon="7.168389272220476"><ele></ele><time>2016-7-22T22:4:40Z</time></trkpt>
<trkpt lat="46.613621819266015" lon="7.1684853332474425"><ele></ele><time>2016-7-22T22:4:43Z</time></trkpt>
<trkpt lat="46.61381929634169" lon="7.168561193783469"><ele></ele><time>2016-7-22T22:4:46Z</time></trkpt>
<trkpt lat="46.614055330162365" lon="7.168642419569993"><ele></ele><time>2016-7-22T22:4:49Z</time></trkpt>
<trkpt lat="46.614265965982405" lon="7.1687998363822345"><ele></ele><time>2016-7-22T22:4:52Z</time></trkpt>
<trkpt lat="46.614476264864166" lon="7.169114833113813"><ele></ele><time>2016-7-22T22:4:55Z</time></trkpt>
<trkpt lat="46.61465705840633" lon="7.169525215357735"><ele></ele><time>2016-7-22T22:4:58Z</time></trkpt>
<trkpt lat="46.61483860785572" lon="7.169790171459979"><ele></ele><time>2016-7-22T22:5:1Z</time></trkpt>
<trkpt lat="46.61507908323871" lon="7.169952534234562"><ele></ele><time>2016-7-22T22:5:4Z</time></trkpt>
<trkpt lat="46.615329701374826" lon="7.1700544636477"><ele></ele><time>2016-7-22T22:5:7Z</time></trkpt>
<trkpt lat="46.61558643872647" lon="7.170116746752738"><ele></ele><time>2016-7-22T22:5:10Z</time></trkpt>
<trkpt lat="46.61576371637248" lon="7.170099986733389"><ele></ele><time>2016-7-22T22:5:13Z</time></trkpt>
<trkpt lat="46.61603336272651" lon="7.170081217036761"><ele></ele><time>2016-7-22T22:5:16Z</time></trkpt>
<trkpt lat="46.61621550207407" lon="7.170046352194474"><ele></ele><time>2016-7-22T22:5:19Z</time></trkpt>
<trkpt lat="46.61643150482973" lon="7.169966225760392"><ele></ele><time>2016-7-22T22:5:22Z</time></trkpt>
<trkpt lat="46.61664130494169" lon="7.16988878140519"><ele></ele><time>2016-7-22T22:5:25Z</time></trkpt>
<trkpt lat="46.61689687057348" lon="7.169785605566259"><ele></ele><time>2016-7-22T22:5:28Z</time></trkpt>
<trkpt lat="46.61713567233382" lon="7.1696867041428725"><ele></ele><time>2016-7-22T22:5:31Z</time></trkpt>
<trkpt lat="46.617365589787056" lon="7.1695384330755605"><ele></ele><time>2016-7-22T22:5:34Z</time></trkpt>
<trkpt lat="46.61759358029466" lon="7.16930542085107"><ele></ele><time>2016-7-22T22:5:37Z</time></trkpt>
<trkpt lat="46.61776415515108" lon="7.169029156736861"><ele></ele><time>2016-7-22T22:5:40Z</time></trkpt>
<trkpt lat="46.61787991227018" lon="7.168755070743962"><ele></ele><time>2016-7-22T22:5:43Z</time></trkpt>
<trkpt lat="46.61794135370499" lon="7.168564802691924"><ele></ele><time>2016-7-22T22:5:46Z</time></trkpt>
<trkpt lat="46.617975301975015" lon="7.168420802196457"><ele></ele><time>2016-7-22T22:5:49Z</time></trkpt>
<trkpt lat="46.61802316539777" lon="7.168165406407978"><ele></ele><time>2016-7-22T22:5:52Z</time></trkpt>
<trkpt lat="46.61805367778633" lon="7.167954853468899"><ele></ele><time>2016-7-22T22:5:55Z</time></trkpt>
<trkpt lat="46.618099781812845" lon="7.167623266075945"><ele></ele><time>2016-7-22T22:5:58Z</time></trkpt>
<trkpt lat="46.618126858021505" lon="7.167374491551235"><ele></ele><time>2016-7-22T22:6:1Z</time></trkpt>
<trkpt lat="46.61814496502783" lon="7.167178271413385"><ele></ele><time>2016-7-22T22:6:4Z</time></trkpt>
<trkpt lat="46.61815108654886" lon="7.166920443975205"><ele></ele><time>2016-7-22T22:6:7Z</time></trkpt>
<trkpt lat="46.618154777706195" lon="7.166625652259161"><ele></ele><time>2016-7-22T22:6:10Z</time></trkpt>
<trkpt lat="46.618193001987905" lon="7.166364975661807"><ele></ele><time>2016-7-22T22:6:13Z</time></trkpt>
<trkpt lat="46.61826601134132" lon="7.166092062223411"><ele></ele><time>2016-7-22T22:6:16Z</time></trkpt>
<trkpt lat="46.61834882660457" lon="7.165907075238341"><ele></ele><time>2016-7-22T22:6:19Z</time></trkpt>
<trkpt lat="46.618431055286706" lon="7.1657076713549515"><ele></ele><time>2016-7-22T22:6:22Z</time></trkpt>
<trkpt lat="46.61856139670181" lon="7.1654564683000626"><ele></ele><time>2016-7-22T22:6:25Z</time></trkpt>
<trkpt lat="46.61867681765939" lon="7.165266871967388"><ele></ele><time>2016-7-22T22:6:28Z</time></trkpt>
<trkpt lat="46.61876776280403" lon="7.165136367577706"><ele></ele><time>2016-7-22T22:6:31Z</time></trkpt>
<trkpt lat="46.61891134768618" lon="7.164881225312254"><ele></ele><time>2016-7-22T22:6:34Z</time></trkpt>
<trkpt lat="46.61908619823331" lon="7.164519717277074"><ele></ele><time>2016-7-22T22:6:37Z</time></trkpt>
<trkpt lat="46.61923498130696" lon="7.164132057121811"><ele></ele><time>2016-7-22T22:6:40Z</time></trkpt>
<trkpt lat="46.619348727281995" lon="7.163810529486905"><ele></ele><time>2016-7-22T22:6:43Z</time></trkpt>
<trkpt lat="46.61948259057484" lon="7.1634206897165615"><ele></ele><time>2016-7-22T22:6:46Z</time></trkpt>
<trkpt lat="46.61969650243761" lon="7.162908978695713"><ele></ele><time>2016-7-22T22:6:49Z</time></trkpt>
<trkpt lat="46.619860877409174" lon="7.1623768147488285"><ele></ele><time>2016-7-22T22:6:52Z</time></trkpt>
<trkpt lat="46.61998979650018" lon="7.161881195169016"><ele></ele><time>2016-7-22T22:6:55Z</time></trkpt>
<trkpt lat="46.6200238288087" lon="7.161717329555651"><ele></ele><time>2016-7-22T22:6:58Z</time></trkpt>
<trkpt lat="46.6201201420745" lon="7.161238976010119"><ele></ele><time>2016-7-22T22:7:1Z</time></trkpt>
<trkpt lat="46.62014067860317" lon="7.161159851219667"><ele></ele><time>2016-7-22T22:7:4Z</time></trkpt>
<trkpt lat="46.62024076085738" lon="7.160952317279571"><ele></ele><time>2016-7-22T22:7:7Z</time></trkpt>
<trkpt lat="46.62043765649282" lon="7.160530459983311"><ele></ele><time>2016-7-22T22:7:10Z</time></trkpt>
<trkpt lat="46.62062482778968" lon="7.160232906208844"><ele></ele><time>2016-7-22T22:7:13Z</time></trkpt>
<trkpt lat="46.62086924747501" lon="7.1599433164869515"><ele></ele><time>2016-7-22T22:7:16Z</time></trkpt>
<trkpt lat="46.620938818258054" lon="7.1598588283341025"><ele></ele><time>2016-7-22T22:7:19Z</time></trkpt>
<trkpt lat="46.62094627839119" lon="7.159837203166808"><ele></ele><time>2016-7-22T22:7:22Z</time></trkpt>
<trkpt lat="46.62094829119847" lon="7.159729160387392"><ele></ele><time>2016-7-22T22:7:25Z</time></trkpt>
<trkpt lat="46.62095022005042" lon="7.159633941928828"><ele></ele><time>2016-7-22T22:7:28Z</time></trkpt>
<trkpt lat="46.62093655937365" lon="7.159460519911077"><ele></ele><time>2016-7-22T22:7:31Z</time></trkpt>
<trkpt lat="46.62096941961835" lon="7.159164890647164"><ele></ele><time>2016-7-22T22:7:34Z</time></trkpt>
<trkpt lat="46.62104125345548" lon="7.15908635370039"><ele></ele><time>2016-7-22T22:7:37Z</time></trkpt>
<trkpt lat="46.621127755360526" lon="7.159034303906967"><ele></ele><time>2016-7-22T22:7:40Z</time></trkpt>
<trkpt lat="46.62147837316536" lon="7.1588137834262495"><ele></ele><time>2016-7-22T22:7:43Z</time></trkpt>
<trkpt lat="46.62175087152466" lon="7.158594099450356"><ele></ele><time>2016-7-22T22:7:46Z</time></trkpt>
<trkpt lat="46.62203259128154" lon="7.158253045617302"><ele></ele><time>2016-7-22T22:7:49Z</time></trkpt>
<trkpt lat="46.62226544509676" lon="7.15785415555095"><ele></ele><time>2016-7-22T22:7:52Z</time></trkpt>
<trkpt lat="46.6223117979126" lon="7.157776037151483"><ele></ele><time>2016-7-22T22:7:55Z</time></trkpt>
<trkpt lat="46.622502405548566" lon="7.157502539548738"><ele></ele><time>2016-7-22T22:7:58Z</time></trkpt>
<trkpt lat="46.62276928717332" lon="7.157363405614873"><ele></ele><time>2016-7-22T22:8:1Z</time></trkpt>
<trkpt lat="46.62292041321449" lon="7.157351171295202"><ele></ele><time>2016-7-22T22:8:4Z</time></trkpt>
<trkpt lat="46.62321470279058" lon="7.157297449618039"><ele></ele><time>2016-7-22T22:8:7Z</time></trkpt>
<trkpt lat="46.62346046109364" lon="7.15724288870049"><ele></ele><time>2016-7-22T22:8:10Z</time></trkpt>
<trkpt lat="46.62351125553796" lon="7.157238698844316"><ele></ele><time>2016-7-22T22:8:13Z</time></trkpt>
<trkpt lat="46.623757851435485" lon="7.1572402967415485"><ele></ele><time>2016-7-22T22:8:16Z</time></trkpt>
<trkpt lat="46.62379364212153" lon="7.157248511787453"><ele></ele><time>2016-7-22T22:8:19Z</time></trkpt>
<trkpt lat="46.62393211054162" lon="7.1573238681524645"><ele></ele><time>2016-7-22T22:8:22Z</time></trkpt>
<trkpt lat="46.62396278806826" lon="7.157350104193908"><ele></ele><time>2016-7-22T22:8:25Z</time></trkpt>
<trkpt lat="46.62406278362474" lon="7.157413976509899"><ele></ele><time>2016-7-22T22:8:28Z</time></trkpt>
<trkpt lat="46.624079044527576" lon="7.157414982690796"><ele></ele><time>2016-7-22T22:8:31Z</time></trkpt>
<trkpt lat="46.62408264916285" lon="7.157376258345263"><ele></ele><time>2016-7-22T22:8:34Z</time></trkpt>
<trkpt lat="46.62400285363505" lon="7.157348512497665"><ele></ele><time>2016-7-22T22:8:37Z</time></trkpt>
<trkpt lat="46.623897325910924" lon="7.1572944468964055"><ele></ele><time>2016-7-22T22:8:40Z</time></trkpt>
<trkpt lat="46.62378383540688" lon="7.15723677690148"><ele></ele><time>2016-7-22T22:8:43Z</time></trkpt>
<trkpt lat="46.623682331209764" lon="7.1571631815368635"><ele></ele><time>2016-7-22T22:8:46Z</time></trkpt>
<trkpt lat="46.623673530703165" lon="7.157115907374666"><ele></ele><time>2016-7-22T22:8:49Z</time></trkpt>
<trkpt lat="46.62371259191971" lon="7.156975343590828"><ele></ele><time>2016-7-22T22:8:52Z</time></trkpt>
<trkpt lat="46.62382516414909" lon="7.156682146818907"><ele></ele><time>2016-7-22T22:8:55Z</time></trkpt>
<trkpt lat="46.62387143254564" lon="7.15666052249268"><ele></ele><time>2016-7-22T22:8:58Z</time></trkpt>
<trkpt lat="46.62392557957198" lon="7.156673599443822"><ele></ele><time>2016-7-22T22:9:1Z</time></trkpt>
<trkpt lat="46.624070502592446" lon="7.1566995026813816"><ele></ele><time>2016-7-22T22:9:4Z</time></trkpt>
<trkpt lat="46.62424300189849" lon="7.156745355460943"><ele></ele><time>2016-7-22T22:9:7Z</time></trkpt>
<trkpt lat="46.62436219360413" lon="7.156662209494781"><ele></ele><time>2016-7-22T22:9:10Z</time></trkpt>
<trkpt lat="46.624432687555085" lon="7.15646951091389"><ele></ele><time>2016-7-22T22:9:13Z</time></trkpt>
<trkpt lat="46.624515334934735" lon="7.156309418225563"><ele></ele><time>2016-7-22T22:9:16Z</time></trkpt>
<trkpt lat="46.624610806572875" lon="7.15615594752396"><ele></ele><time>2016-7-22T22:9:19Z</time></trkpt>
<trkpt lat="46.624698734688565" lon="7.155983701181583"><ele></ele><time>2016-7-22T22:9:22Z</time></trkpt>
<trkpt lat="46.624834859094705" lon="7.155784885229284"><ele></ele><time>2016-7-22T22:9:25Z</time></trkpt>
<trkpt lat="46.62489780870903" lon="7.155649937845404"><ele></ele><time>2016-7-22T22:9:28Z</time></trkpt>
<trkpt lat="46.62499101726372" lon="7.155493449609054"><ele></ele><time>2016-7-22T22:9:31Z</time></trkpt>
<trkpt lat="46.625085063904656" lon="7.155346852044748"><ele></ele><time>2016-7-22T22:9:34Z</time></trkpt>
<trkpt lat="46.625247507189066" lon="7.155179385007216"><ele></ele><time>2016-7-22T22:9:37Z</time></trkpt>
<trkpt lat="46.625404334636066" lon="7.155007726893964"><ele></ele><time>2016-7-22T22:9:40Z</time></trkpt>
<trkpt lat="46.62549008226844" lon="7.1549468760873385"><ele></ele><time>2016-7-22T22:9:43Z</time></trkpt>
<trkpt lat="46.62557951796466" lon="7.1548840137024445"><ele></ele><time>2016-7-22T22:9:46Z</time></trkpt>
<trkpt lat="46.62559988616308" lon="7.154870267811884"><ele></ele><time>2016-7-22T22:9:49Z</time></trkpt>
<trkpt lat="46.62576224426664" lon="7.154830624896849"><ele></ele><time>2016-7-22T22:9:52Z</time></trkpt>
<trkpt lat="46.6257994599708" lon="7.1548302066076825"><ele></ele><time>2016-7-22T22:9:55Z</time></trkpt>
<trkpt lat="46.62597019956985" lon="7.154829875030529"><ele></ele><time>2016-7-22T22:9:58Z</time></trkpt>
<trkpt lat="46.62609609489489" lon="7.154926353537655"><ele></ele><time>2016-7-22T22:10:1Z</time></trkpt>
<trkpt lat="46.62619969509389" lon="7.154950998596285"><ele></ele><time>2016-7-22T22:10:4Z</time></trkpt>
<trkpt lat="46.62623624033088" lon="7.154942533659329"><ele></ele><time>2016-7-22T22:10:7Z</time></trkpt>
<trkpt lat="46.62628141862781" lon="7.154963321773835"><ele></ele><time>2016-7-22T22:10:10Z</time></trkpt>
<trkpt lat="46.62633279970049" lon="7.15496919022365"><ele></ele><time>2016-7-22T22:10:13Z</time></trkpt>
<trkpt lat="46.62636808703102" lon="7.155018811892747"><ele></ele><time>2016-7-22T22:10:16Z</time></trkpt>
<trkpt lat="46.62641494159382" lon="7.1550505803450015"><ele></ele><time>2016-7-22T22:10:19Z</time></trkpt>
<trkpt lat="46.62644888825245" lon="7.155059465904508"><ele></ele><time>2016-7-22T22:10:22Z</time></trkpt>
<trkpt lat="46.62651267454785" lon="7.155066340452111"><ele></ele><time>2016-7-22T22:10:25Z</time></trkpt>
<trkpt lat="46.62650135872029" lon="7.155089139000962"><ele></ele><time>2016-7-22T22:10:28Z</time></trkpt>
<trkpt lat="46.62652566587084" lon="7.155126774301378"><ele></ele><time>2016-7-22T22:10:31Z</time></trkpt>
<trkpt lat="46.62651552413152" lon="7.155091402423393"><ele></ele><time>2016-7-22T22:10:34Z</time></trkpt>
<trkpt lat="46.62650001785976" lon="7.155066088720651"><ele></ele><time>2016-7-22T22:10:37Z</time></trkpt>
<trkpt lat="46.62652541559667" lon="7.155015797813539"><ele></ele><time>2016-7-22T22:10:40Z</time></trkpt>
<trkpt lat="46.62653119848755" lon="7.155074890401121"><ele></ele><time>2016-7-22T22:10:43Z</time></trkpt>
<trkpt lat="46.62654896750534" lon="7.15513498907748"><ele></ele><time>2016-7-22T22:10:46Z</time></trkpt>
<trkpt lat="46.62655827071455" lon="7.155202128374455"><ele></ele><time>2016-7-22T22:10:49Z</time></trkpt>
<trkpt lat="46.62657721315129" lon="7.155266837126423"><ele></ele><time>2016-7-22T22:10:52Z</time></trkpt>
<trkpt lat="46.62658903084288" lon="7.155342609844644"><ele></ele><time>2016-7-22T22:10:55Z</time></trkpt>
<trkpt lat="46.626594142914506" lon="7.155426680508057"><ele></ele><time>2016-7-22T22:10:58Z</time></trkpt>
<trkpt lat="46.62661098987457" lon="7.1554912215763675"><ele></ele><time>2016-7-22T22:11:1Z</time></trkpt>
<trkpt lat="46.62664225370782" lon="7.1555576069769495"><ele></ele><time>2016-7-22T22:11:4Z</time></trkpt>
<trkpt lat="46.626662537619126" lon="7.1555877822905245"><ele></ele><time>2016-7-22T22:11:7Z</time></trkpt>
<trkpt lat="46.62668432999099" lon="7.155644612109054"><ele></ele><time>2016-7-22T22:11:10Z</time></trkpt>
<trkpt lat="46.626664547830565" lon="7.155723653087587"><ele></ele><time>2016-7-22T22:11:13Z</time></trkpt>
<trkpt lat="46.62665599804919" lon="7.155745110590869"><ele></ele><time>2016-7-22T22:11:16Z</time></trkpt>
<trkpt lat="46.62674283412" lon="7.155797918501104"><ele></ele><time>2016-7-22T22:11:19Z</time></trkpt>
<trkpt lat="46.62677451712422" lon="7.155857263106506"><ele></ele><time>2016-7-22T22:11:22Z</time></trkpt>
<trkpt lat="46.62680703845835" lon="7.155903615770255"><ele></ele><time>2016-7-22T22:11:25Z</time></trkpt>
<trkpt lat="46.6268329380417" lon="7.155953572511693"><ele></ele><time>2016-7-22T22:11:28Z</time></trkpt>
<trkpt lat="46.62688054669062" lon="7.156012246908961"><ele></ele><time>2016-7-22T22:11:31Z</time></trkpt>
<trkpt lat="46.626938130687634" lon="7.155989281723554"><ele></ele><time>2016-7-22T22:11:34Z</time></trkpt>
<trkpt lat="46.626950284543966" lon="7.155981738268123"><ele></ele><time>2016-7-22T22:11:37Z</time></trkpt>
<trkpt lat="46.62697341945487" lon="7.155904122287036"><ele></ele><time>2016-7-22T22:11:40Z</time></trkpt>
<trkpt lat="46.626962355640394" lon="7.1558747853642535"><ele></ele><time>2016-7-22T22:11:43Z</time></trkpt>
<trkpt lat="46.62701599988759" lon="7.155875289440264"><ele></ele><time>2016-7-22T22:11:46Z</time></trkpt>
<trkpt lat="46.62711230838225" lon="7.155847379766846"><ele></ele><time>2016-7-22T22:11:49Z</time></trkpt>
<trkpt lat="46.627228313707974" lon="7.155882167202774"><ele></ele><time>2016-7-22T22:11:52Z</time></trkpt>
<trkpt lat="46.62728757374693" lon="7.155891220948007"><ele></ele><time>2016-7-22T22:11:55Z</time></trkpt>
<trkpt lat="46.62732395121026" lon="7.1558954965094195"><ele></ele><time>2016-7-22T22:11:58Z</time></trkpt>
<trkpt lat="46.627322861464926" lon="7.155904548948038"><ele></ele><time>2016-7-22T22:12:1Z</time></trkpt>
<trkpt lat="46.62739653827008" lon="7.155925505316773"><ele></ele><time>2016-7-22T22:12:4Z</time></trkpt>
<trkpt lat="46.627426964567924" lon="7.155930367482981"><ele></ele><time>2016-7-22T22:12:7Z</time></trkpt>
<trkpt lat="46.62743710678806" lon="7.155920644687604"><ele></ele><time>2016-7-22T22:12:10Z</time></trkpt>
<trkpt lat="46.62747708847113" lon="7.155925255603397"><ele></ele><time>2016-7-22T22:12:13Z</time></trkpt>
<trkpt lat="46.62750558678667" lon="7.155943444963855"><ele></ele><time>2016-7-22T22:12:16Z</time></trkpt>
<trkpt lat="46.62753483959774" lon="7.155950067305619"><ele></ele><time>2016-7-22T22:12:19Z</time></trkpt>
<trkpt lat="46.62765168304762" lon="7.155991225010461"><ele></ele><time>2016-7-22T22:12:22Z</time></trkpt>
<trkpt lat="46.6277637486769" lon="7.156044536380364"><ele></ele><time>2016-7-22T22:12:25Z</time></trkpt>
<trkpt lat="46.627893332608636" lon="7.156088376571712"><ele></ele><time>2016-7-22T22:12:28Z</time></trkpt>
<trkpt lat="46.6279976873689" lon="7.156095503453703"><ele></ele><time>2016-7-22T22:12:31Z</time></trkpt>
<trkpt lat="46.62810950211358" lon="7.156095086778734"><ele></ele><time>2016-7-22T22:12:34Z</time></trkpt>
<trkpt lat="46.62822492064773" lon="7.156135406261203"><ele></ele><time>2016-7-22T22:12:37Z</time></trkpt>
<trkpt lat="46.628363724140655" lon="7.156230460117661"><ele></ele><time>2016-7-22T22:12:40Z</time></trkpt>
<trkpt lat="46.62848475789191" lon="7.156333308764804"><ele></ele><time>2016-7-22T22:12:43Z</time></trkpt>
<trkpt lat="46.62860143353613" lon="7.1563903082733775"><ele></ele><time>2016-7-22T22:12:46Z</time></trkpt>
<trkpt lat="46.6286985799417" lon="7.156388885451346"><ele></ele><time>2016-7-22T22:12:49Z</time></trkpt>
<trkpt lat="46.62878206410686" lon="7.156361143138478"><ele></ele><time>2016-7-22T22:12:52Z</time></trkpt>
<trkpt lat="46.62880285142742" lon="7.156344966503481"><ele></ele><time>2016-7-22T22:12:55Z</time></trkpt>
<trkpt lat="46.62886202839737" lon="7.156283696027513"><ele></ele><time>2016-7-22T22:12:58Z</time></trkpt>
<trkpt lat="46.628895053399056" lon="7.1562594730245435"><ele></ele><time>2016-7-22T22:13:1Z</time></trkpt>
<trkpt lat="46.62892413875535" lon="7.156248912448417"><ele></ele><time>2016-7-22T22:13:4Z</time></trkpt>
<trkpt lat="46.62895506797217" lon="7.156253439348883"><ele></ele><time>2016-7-22T22:13:7Z</time></trkpt>
<trkpt lat="46.62900980138821" lon="7.156299121939019"><ele></ele><time>2016-7-22T22:13:10Z</time></trkpt>
<trkpt lat="46.62906160097975" lon="7.156359305168583"><ele></ele><time>2016-7-22T22:13:13Z</time></trkpt>
<trkpt lat="46.62911926815174" lon="7.156396941189191"><ele></ele><time>2016-7-22T22:13:16Z</time></trkpt>
<trkpt lat="46.62920870269911" lon="7.156442205434656"><ele></ele><time>2016-7-22T22:13:19Z</time></trkpt>
<trkpt lat="46.62928003224037" lon="7.156494090996464"><ele></ele><time>2016-7-22T22:13:22Z</time></trkpt>
<trkpt lat="46.62934423704626" lon="7.156556118514138"><ele></ele><time>2016-7-22T22:13:25Z</time></trkpt>
<trkpt lat="46.629436772727416" lon="7.156617811368396"><ele></ele><time>2016-7-22T22:13:28Z</time></trkpt>
<trkpt lat="46.62951941794839" lon="7.156660812350978"><ele></ele><time>2016-7-22T22:13:31Z</time></trkpt>
<trkpt lat="46.62961262442751" lon="7.156699538788299"><ele></ele><time>2016-7-22T22:13:34Z</time></trkpt>
<trkpt lat="46.629694934468475" lon="7.15673348730151"><ele></ele><time>2016-7-22T22:13:37Z</time></trkpt>
<trkpt lat="46.62971119523218" lon="7.1567476530798615"><ele></ele><time>2016-7-22T22:13:40Z</time></trkpt>
<trkpt lat="46.62973575426461" lon="7.156745558133969"><ele></ele><time>2016-7-22T22:13:43Z</time></trkpt>
<trkpt lat="46.62977028781215" lon="7.156740026821151"><ele></ele><time>2016-7-22T22:13:46Z</time></trkpt>
<trkpt lat="46.629815298618354" lon="7.1567471524178705"><ele></ele><time>2016-7-22T22:13:49Z</time></trkpt>
<trkpt lat="46.62989308258264" lon="7.156766348672897"><ele></ele><time>2016-7-22T22:13:52Z</time></trkpt>
<trkpt lat="46.629957455420936" lon="7.156791411974093"><ele></ele><time>2016-7-22T22:13:55Z</time></trkpt>
<trkpt lat="46.63002191185355" lon="7.156837597688069"><ele></ele><time>2016-7-22T22:13:58Z</time></trkpt>
<trkpt lat="46.630039597350084" lon="7.156869868420874"><ele></ele><time>2016-7-22T22:14:1Z</time></trkpt>
<trkpt lat="46.630081925369915" lon="7.1569308896351265"><ele></ele><time>2016-7-22T22:14:4Z</time></trkpt>
<trkpt lat="46.630178650869986" lon="7.157099619558287"><ele></ele><time>2016-7-22T22:14:7Z</time></trkpt>
<trkpt lat="46.63028350681525" lon="7.157269523124125"><ele></ele><time>2016-7-22T22:14:10Z</time></trkpt>
<trkpt lat="46.630405713430605" lon="7.157429452592901"><ele></ele><time>2016-7-22T22:14:13Z</time></trkpt>
<trkpt lat="46.63050495452026" lon="7.157502880262793"><ele></ele><time>2016-7-22T22:14:16Z</time></trkpt>
<trkpt lat="46.63061953462299" lon="7.157566082335143"><ele></ele><time>2016-7-22T22:14:19Z</time></trkpt>
<trkpt lat="46.630728331416016" lon="7.1576094191577635"><ele></ele><time>2016-7-22T22:14:22Z</time></trkpt>
<trkpt lat="46.63085003634198" lon="7.1576542650030115"><ele></ele><time>2016-7-22T22:14:25Z</time></trkpt>
<trkpt lat="46.630945338014364" lon="7.157719981230629"><ele></ele><time>2016-7-22T22:14:28Z</time></trkpt>
<trkpt lat="46.631038963215616" lon="7.157793995511748"><ele></ele><time>2016-7-22T22:14:31Z</time></trkpt>
<trkpt lat="46.63112538014236" lon="7.1578518325524305"><ele></ele><time>2016-7-22T22:14:34Z</time></trkpt>
<trkpt lat="46.6312348476275" lon="7.157882177429855"><ele></ele><time>2016-7-22T22:14:37Z</time></trkpt>
<trkpt lat="46.631375663577835" lon="7.157902799970549"><ele></ele><time>2016-7-22T22:14:40Z</time></trkpt>
<trkpt lat="46.6314846277873" lon="7.157967091568198"><ele></ele><time>2016-7-22T22:14:43Z</time></trkpt>
<trkpt lat="46.63161496542702" lon="7.158073963725163"><ele></ele><time>2016-7-22T22:14:46Z</time></trkpt>
<trkpt lat="46.63172175035683" lon="7.158136578893424"><ele></ele><time>2016-7-22T22:14:49Z</time></trkpt>
<trkpt lat="46.6319070735318" lon="7.158227191334989"><ele></ele><time>2016-7-22T22:14:52Z</time></trkpt>
<trkpt lat="46.63203196335371" lon="7.158293997848544"><ele></ele><time>2016-7-22T22:14:55Z</time></trkpt>
<trkpt lat="46.632122655075186" lon="7.158350242417492"><ele></ele><time>2016-7-22T22:14:58Z</time></trkpt>
<trkpt lat="46.63222265069299" lon="7.158409253217318"><ele></ele><time>2016-7-22T22:15:1Z</time></trkpt>
<trkpt lat="46.63228425732489" lon="7.158450912635926"><ele></ele><time>2016-7-22T22:15:4Z</time></trkpt>
<trkpt lat="46.63231258833023" lon="7.158438424204036"><ele></ele><time>2016-7-22T22:15:7Z</time></trkpt>
<trkpt lat="46.63235977864511" lon="7.158425852360681"><ele></ele><time>2016-7-22T22:15:10Z</time></trkpt>
<trkpt lat="46.63243923964549" lon="7.158383860714768"><ele></ele><time>2016-7-22T22:15:13Z</time></trkpt>
<trkpt lat="46.63253940456153" lon="7.158286800375403"><ele></ele><time>2016-7-22T22:15:16Z</time></trkpt>
<trkpt lat="46.63264644227544" lon="7.158224776563764"><ele></ele><time>2016-7-22T22:15:19Z</time></trkpt>
<trkpt lat="46.632789773757196" lon="7.158155628914397"><ele></ele><time>2016-7-22T22:15:22Z</time></trkpt>
<trkpt lat="46.63289035773832" lon="7.158061502252983"><ele></ele><time>2016-7-22T22:15:25Z</time></trkpt>
<trkpt lat="46.63289329154944" lon="7.158048258900517"><ele></ele><time>2016-7-22T22:15:28Z</time></trkpt>
<trkpt lat="46.63293637615639" lon="7.157901241151813"><ele></ele><time>2016-7-22T22:15:31Z</time></trkpt>
<trkpt lat="46.63293578950882" lon="7.157893110687605"><ele></ele><time>2016-7-22T22:15:34Z</time></trkpt>
<trkpt lat="46.6329407348351" lon="7.1578934460708785"><ele></ele><time>2016-7-22T22:15:37Z</time></trkpt>
<trkpt lat="46.63295029023605" lon="7.157891769895719"><ele></ele><time>2016-7-22T22:15:40Z</time></trkpt>
<trkpt lat="46.63293444770252" lon="7.157958908642578"><ele></ele><time>2016-7-22T22:15:43Z</time></trkpt>
<trkpt lat="46.63292028176065" lon="7.158006433759149"><ele></ele><time>2016-7-22T22:15:46Z</time></trkpt>
<trkpt lat="46.632817182981164" lon="7.15812159895717"><ele></ele><time>2016-7-22T22:15:49Z</time></trkpt>
<trkpt lat="46.63260922654172" lon="7.158227709427393"><ele></ele><time>2016-7-22T22:15:52Z</time></trkpt>
<trkpt lat="46.63247712629867" lon="7.158346478220206"><ele></ele><time>2016-7-22T22:15:55Z</time></trkpt>
<trkpt lat="46.63243882064868" lon="7.1583745567868915"><ele></ele><time>2016-7-22T22:15:58Z</time></trkpt>
<trkpt lat="46.63233840567912" lon="7.158339602056568"><ele></ele><time>2016-7-22T22:16:1Z</time></trkpt>
<trkpt lat="46.63232809681775" lon="7.158255531287868"><ele></ele><time>2016-7-22T22:16:4Z</time></trkpt>
<trkpt lat="46.63238375410497" lon="7.158126534913679"><ele></ele><time>2016-7-22T22:16:7Z</time></trkpt>
<trkpt lat="46.63242214446565" lon="7.158014637260444"><ele></ele><time>2016-7-22T22:16:10Z</time></trkpt>
<trkpt lat="46.63244075393066" lon="7.15786292511264"><ele></ele><time>2016-7-22T22:16:13Z</time></trkpt>
<trkpt lat="46.632372023499514" lon="7.157743397606323"><ele></ele><time>2016-7-22T22:16:16Z</time></trkpt>
<trkpt lat="46.63225467751774" lon="7.1576656109546395"><ele></ele><time>2016-7-22T22:16:19Z</time></trkpt>
<trkpt lat="46.632165159640905" lon="7.157573994754837"><ele></ele><time>2016-7-22T22:16:22Z</time></trkpt>
<trkpt lat="46.6321195632482" lon="7.157458910159808"><ele></ele><time>2016-7-22T22:16:25Z</time></trkpt>
<trkpt lat="46.632089724934225" lon="7.157336449825645"><ele></ele><time>2016-7-22T22:16:28Z</time></trkpt>
<trkpt lat="46.6320784954957" lon="7.157117765579865"><ele></ele><time>2016-7-22T22:16:31Z</time></trkpt>
<trkpt lat="46.6320453053182" lon="7.156910564074085"><ele></ele><time>2016-7-22T22:16:34Z</time></trkpt>
<trkpt lat="46.632008342435114" lon="7.1567826553446405"><ele></ele><time>2016-7-22T22:16:37Z</time></trkpt>
<trkpt lat="46.63199225100766" lon="7.15660898184412"><ele></ele><time>2016-7-22T22:16:40Z</time></trkpt>
<trkpt lat="46.63193106461575" lon="7.156459950179764"><ele></ele><time>2016-7-22T22:16:43Z</time></trkpt>
<trkpt lat="46.63186979378984" lon="7.156368669865726"><ele></ele><time>2016-7-22T22:16:46Z</time></trkpt>
<trkpt lat="46.6318315735318" lon="7.156249059198306"><ele></ele><time>2016-7-22T22:16:49Z</time></trkpt>
<trkpt lat="46.63175898870322" lon="7.15600925121293"><ele></ele><time>2016-7-22T22:16:52Z</time></trkpt>
<trkpt lat="46.63172009828708" lon="7.155852592493168"><ele></ele><time>2016-7-22T22:16:55Z</time></trkpt>
<trkpt lat="46.63172060182624" lon="7.155794002960665"><ele></ele><time>2016-7-22T22:16:58Z</time></trkpt>
<trkpt lat="46.63175270496131" lon="7.155756368884663"><ele></ele><time>2016-7-22T22:17:1Z</time></trkpt>
<trkpt lat="46.631841888117" lon="7.155795681968426"><ele></ele><time>2016-7-22T22:17:4Z</time></trkpt>
<trkpt lat="46.63198169713156" lon="7.1559201563425425"><ele></ele><time>2016-7-22T22:17:7Z</time></trkpt>
<trkpt lat="46.632124272089115" lon="7.15605301268492"><ele></ele><time>2016-7-22T22:17:10Z</time></trkpt>
<trkpt lat="46.63225184345768" lon="7.1561822644811866"><ele></ele><time>2016-7-22T22:17:13Z</time></trkpt>
<trkpt lat="46.632443032756804" lon="7.1563870386525785"><ele></ele><time>2016-7-22T22:17:16Z</time></trkpt>
<trkpt lat="46.63262659490943" lon="7.1565546808017295"><ele></ele><time>2016-7-22T22:17:19Z</time></trkpt>
<trkpt lat="46.63285969390457" lon="7.15674822412004"><ele></ele><time>2016-7-22T22:17:22Z</time></trkpt>
<trkpt lat="46.63298978103895" lon="7.156765745124113"><ele></ele><time>2016-7-22T22:17:25Z</time></trkpt>
<trkpt lat="46.63303596554328" lon="7.1567514130594025"><ele></ele><time>2016-7-22T22:17:28Z</time></trkpt>
<trkpt lat="46.63317066367089" lon="7.156680672663987"><ele></ele><time>2016-7-22T22:17:31Z</time></trkpt>
<trkpt lat="46.633297985866136" lon="7.156595599045287"><ele></ele><time>2016-7-22T22:17:34Z</time></trkpt>
<trkpt lat="46.63346344601787" lon="7.1564877274605045"><ele></ele><time>2016-7-22T22:17:37Z</time></trkpt>
<trkpt lat="46.63354332579067" lon="7.156476245974236"><ele></ele><time>2016-7-22T22:17:40Z</time></trkpt>
<trkpt lat="46.633667628380834" lon="7.156589907346194"><ele></ele><time>2016-7-22T22:17:43Z</time></trkpt>
<trkpt lat="46.633716324779215" lon="7.156827367873166"><ele></ele><time>2016-7-22T22:17:46Z</time></trkpt>
<trkpt lat="46.633712049507274" lon="7.156873887373905"><ele></ele><time>2016-7-22T22:17:49Z</time></trkpt>
<trkpt lat="46.63368983315527" lon="7.157275715596084"><ele></ele><time>2016-7-22T22:17:52Z</time></trkpt>
<trkpt lat="46.63364372808448" lon="7.157702186113584"><ele></ele><time>2016-7-22T22:17:55Z</time></trkpt>
<trkpt lat="46.633616987022876" lon="7.157960935057087"><ele></ele><time>2016-7-22T22:17:58Z</time></trkpt>
<trkpt lat="46.63366224681736" lon="7.158200407167176"><ele></ele><time>2016-7-22T22:18:1Z</time></trkpt>
<trkpt lat="46.633747909259455" lon="7.158269056851067"><ele></ele><time>2016-7-22T22:18:4Z</time></trkpt>
<trkpt lat="46.63377255216111" lon="7.158262351856783"><ele></ele><time>2016-7-22T22:18:7Z</time></trkpt>
<trkpt lat="46.633790154350365" lon="7.158246594248932"><ele></ele><time>2016-7-22T22:18:10Z</time></trkpt>
<trkpt lat="46.63380599615384" lon="7.158248103334927"><ele></ele><time>2016-7-22T22:18:13Z</time></trkpt>
<trkpt lat="46.63379166347838" lon="7.158210552074207"><ele></ele><time>2016-7-22T22:18:16Z</time></trkpt>
<trkpt lat="46.633765176376215" lon="7.1582341046650715"><ele></ele><time>2016-7-22T22:18:19Z</time></trkpt>
<trkpt lat="46.63374304783516" lon="7.158260926294558"><ele></ele><time>2016-7-22T22:18:22Z</time></trkpt>
<trkpt lat="46.63372485836548" lon="7.15832806499002"><ele></ele><time>2016-7-22T22:18:25Z</time></trkpt>
<trkpt lat="46.63374120243591" lon="7.158390510563042"><ele></ele><time>2016-7-22T22:18:28Z</time></trkpt>
<trkpt lat="46.63386533651833" lon="7.1585861469945655"><ele></ele><time>2016-7-22T22:18:31Z</time></trkpt>
<trkpt lat="46.63402769139022" lon="7.158851773188579"><ele></ele><time>2016-7-22T22:18:34Z</time></trkpt>
<trkpt lat="46.63417135481765" lon="7.1590961927487164"><ele></ele><time>2016-7-22T22:18:37Z</time></trkpt>
<trkpt lat="46.63412525389165" lon="7.159133155969911"><ele></ele><time>2016-7-22T22:18:40Z</time></trkpt>
<trkpt lat="46.634077142379425" lon="7.159069117148446"><ele></ele><time>2016-7-22T22:18:43Z</time></trkpt>
<trkpt lat="46.634060462655164" lon="7.159042127042229"><ele></ele><time>2016-7-22T22:18:46Z</time></trkpt>
<trkpt lat="46.63406549180334" lon="7.159042210969968"><ele></ele><time>2016-7-22T22:18:49Z</time></trkpt>
<trkpt lat="46.63408242310621" lon="7.159057801685849"><ele></ele><time>2016-7-22T22:18:52Z</time></trkpt>
<trkpt lat="46.6340660785374" lon="7.1590422109826415"><ele></ele><time>2016-7-22T22:18:55Z</time></trkpt>
<trkpt lat="46.63406934735248" lon="7.15905461627807"><ele></ele><time>2016-7-22T22:18:58Z</time></trkpt>
<trkpt lat="46.634061887255605" lon="7.159072721039597"><ele></ele><time>2016-7-22T22:19:1Z</time></trkpt>
<trkpt lat="46.63406163563158" lon="7.159088395203347"><ele></ele><time>2016-7-22T22:19:4Z</time></trkpt>
<trkpt lat="46.634071274546244" lon="7.159115468976536"><ele></ele><time>2016-7-22T22:19:7Z</time></trkpt>
<trkpt lat="46.63407881793938" lon="7.159146566020602"><ele></ele><time>2016-7-22T22:19:10Z</time></trkpt>
<trkpt lat="46.63411108813799" lon="7.159162995258681"><ele></ele><time>2016-7-22T22:19:13Z</time></trkpt>
<trkpt lat="46.634071022331675" lon="7.15918671519465"><ele></ele><time>2016-7-22T22:19:16Z</time></trkpt>
<trkpt lat="46.63405417465292" lon="7.15918948086056"><ele></ele><time>2016-7-22T22:19:19Z</time></trkpt>
<trkpt lat="46.63405635461888" lon="7.159126616592729"><ele></ele><time>2016-7-22T22:19:22Z</time></trkpt>
<trkpt lat="46.63406708362699" lon="7.159111864665277"><ele></ele><time>2016-7-22T22:19:25Z</time></trkpt>
<trkpt lat="46.6341112563829" lon="7.159105914464413"><ele></ele><time>2016-7-22T22:19:28Z</time></trkpt>
<trkpt lat="46.63411041830361" lon="7.15909535324141"><ele></ele><time>2016-7-22T22:19:31Z</time></trkpt>
<trkpt lat="46.63410128204643" lon="7.159092503195093"><ele></ele><time>2016-7-22T22:19:34Z</time></trkpt>
<trkpt lat="46.63406767072982" lon="7.15907716357613"><ele></ele><time>2016-7-22T22:19:37Z</time></trkpt>
<trkpt lat="46.63405124207643" lon="7.1590865509589054"><ele></ele><time>2016-7-22T22:19:40Z</time></trkpt>
<trkpt lat="46.634067921235065" lon="7.159166766185062"><ele></ele><time>2016-7-22T22:19:43Z</time></trkpt>
<trkpt lat="46.63407646994679" lon="7.159245975406517"><ele></ele><time>2016-7-22T22:19:46Z</time></trkpt>
<trkpt lat="46.63409516125947" lon="7.159279671083054"><ele></ele><time>2016-7-22T22:19:49Z</time></trkpt>
<trkpt lat="46.63411972006503" lon="7.159299033822524"><ele></ele><time>2016-7-22T22:19:52Z</time></trkpt>
<trkpt lat="46.63417076659077" lon="7.159236673524859"><ele></ele><time>2016-7-22T22:19:55Z</time></trkpt>
<trkpt lat="46.63417730434561" lon="7.159249749443565"><ele></ele><time>2016-7-22T22:19:58Z</time></trkpt>
<trkpt lat="46.634193817006086" lon="7.159222676235355"><ele></ele><time>2016-7-22T22:20:1Z</time></trkpt>
<trkpt lat="46.63419163777855" lon="7.159216054480455"><ele></ele><time>2016-7-22T22:20:4Z</time></trkpt>
<trkpt lat="46.6342075629666" lon="7.159258467282175"><ele></ele><time>2016-7-22T22:20:7Z</time></trkpt>
<trkpt lat="46.634212592055995" lon="7.159264083269595"><ele></ele><time>2016-7-22T22:20:10Z</time></trkpt>
<trkpt lat="46.63421477129961" lon="7.159269196280937"><ele></ele><time>2016-7-22T22:20:13Z</time></trkpt>
<trkpt lat="46.634218794657166" lon="7.159265592147133"><ele></ele><time>2016-7-22T22:20:16Z</time></trkpt>
<trkpt lat="46.63421762103318" lon="7.159280260461898"><ele></ele><time>2016-7-22T22:20:19Z</time></trkpt>
<trkpt lat="46.63422709273354" lon="7.159267436346282"><ele></ele><time>2016-7-22T22:20:22Z</time></trkpt>
<trkpt lat="46.63418769730138" lon="7.159308003933122"><ele></ele><time>2016-7-22T22:20:25Z</time></trkpt>
<trkpt lat="46.63415836072402" lon="7.159296184808247"><ele></ele><time>2016-7-22T22:20:28Z</time></trkpt>
<trkpt lat="46.63414268657748" lon="7.159292915525303"><ele></ele><time>2016-7-22T22:20:31Z</time></trkpt>
<trkpt lat="46.634141429137024" lon="7.159307332381014"><ele></ele><time>2016-7-22T22:20:34Z</time></trkpt>
<trkpt lat="46.63412541981987" lon="7.159294088619542"><ele></ele><time>2016-7-22T22:20:37Z</time></trkpt>
<trkpt lat="46.63412307274914" lon="7.159306745250904"><ele></ele><time>2016-7-22T22:20:40Z</time></trkpt>
<trkpt lat="46.63416422824006" lon="7.159279672574962"><ele></ele><time>2016-7-22T22:20:43Z</time></trkpt>
<trkpt lat="46.63416724595217" lon="7.159258717868539"><ele></ele><time>2016-7-22T22:20:46Z</time></trkpt>
<trkpt lat="46.634148219777934" lon="7.159185962490509"><ele></ele><time>2016-7-22T22:20:49Z</time></trkpt>
<trkpt lat="46.63413070169469" lon="7.159174730354492"><ele></ele><time>2016-7-22T22:20:52Z</time></trkpt>
<trkpt lat="46.63410664604099" lon="7.15913307174884"><ele></ele><time>2016-7-22T22:20:55Z</time></trkpt>
<trkpt lat="46.634082758146754" lon="7.159080013751019"><ele></ele><time>2016-7-22T22:20:58Z</time></trkpt>
<trkpt lat="46.634037748355595" lon="7.158977166759403"><ele></ele><time>2016-7-22T22:21:1Z</time></trkpt>
<trkpt lat="46.63400271252328" lon="7.158923270329748"><ele></ele><time>2016-7-22T22:21:4Z</time></trkpt>
<trkpt lat="46.6340318811834" lon="7.158961324825275"><ele></ele><time>2016-7-22T22:21:7Z</time></trkpt>
<trkpt lat="46.63404202330335" lon="7.1589610735871405"><ele></ele><time>2016-7-22T22:21:10Z</time></trkpt>
<trkpt lat="46.63409457752361" lon="7.158997536025233"><ele></ele><time>2016-7-22T22:21:13Z</time></trkpt>
<trkpt lat="46.63414277303135" lon="7.159044978669426"><ele></ele><time>2016-7-22T22:21:16Z</time></trkpt>
<trkpt lat="46.63420010491925" lon="7.159083704325947"><ele></ele><time>2016-7-22T22:21:19Z</time></trkpt>
<trkpt lat="46.63423279405333" lon="7.159115221008619"><ele></ele><time>2016-7-22T22:21:22Z</time></trkpt>
<trkpt lat="46.634162972956865" lon="7.1590910796033675"><ele></ele><time>2016-7-22T22:21:25Z</time></trkpt>
<trkpt lat="46.63416221875999" lon="7.159074567227045"><ele></ele><time>2016-7-22T22:21:28Z</time></trkpt>
<trkpt lat="46.634174120977015" lon="7.159084206679119"><ele></ele><time>2016-7-22T22:21:31Z</time></trkpt>
<trkpt lat="46.634181748324714" lon="7.159102563223821"><ele></ele><time>2016-7-22T22:21:34Z</time></trkpt>
<trkpt lat="46.63416967809971" lon="7.159127708688991"><ele></ele><time>2016-7-22T22:21:37Z</time></trkpt>
<trkpt lat="46.63411326814853" lon="7.159095940036581"><ele></ele><time>2016-7-22T22:21:40Z</time></trkpt>
<trkpt lat="46.63404294486771" lon="7.159003066969427"><ele></ele><time>2016-7-22T22:21:43Z</time></trkpt>
<trkpt lat="46.634034898797566" lon="7.1589495902183495"><ele></ele><time>2016-7-22T22:21:46Z</time></trkpt>
<trkpt lat="46.634033390053716" lon="7.1589495063666675"><ele></ele><time>2016-7-22T22:21:49Z</time></trkpt>
<trkpt lat="46.634079322283974" lon="7.159012036397609"><ele></ele><time>2016-7-22T22:21:52Z</time></trkpt>
<trkpt lat="46.63411083771026" lon="7.159066100389284"><ele></ele><time>2016-7-22T22:21:55Z</time></trkpt>
<trkpt lat="46.634211084577835" lon="7.159144892496205"><ele></ele><time>2016-7-22T22:21:58Z</time></trkpt>
<trkpt lat="46.634322143386655" lon="7.159292332668091"><ele></ele><time>2016-7-22T22:22:1Z</time></trkpt>
<trkpt lat="46.63441459330944" lon="7.159537170215684"><ele></ele><time>2016-7-22T22:22:4Z</time></trkpt>
<trkpt lat="46.63449941515229" lon="7.159832634325901"><ele></ele><time>2016-7-22T22:22:7Z</time></trkpt>
<trkpt lat="46.63456537862142" lon="7.160040087988026"><ele></ele><time>2016-7-22T22:22:10Z</time></trkpt>
<trkpt lat="46.634657661359775" lon="7.1602423454345985"><ele></ele><time>2016-7-22T22:22:13Z</time></trkpt>
<trkpt lat="46.634897463060135" lon="7.160703271762851"><ele></ele><time>2016-7-22T22:22:16Z</time></trkpt>
<trkpt lat="46.63504447931311" lon="7.160942578424395"><ele></ele><time>2016-7-22T22:22:19Z</time></trkpt>
<trkpt lat="46.63519183064151" lon="7.161200912024524"><ele></ele><time>2016-7-22T22:22:22Z</time></trkpt>
<trkpt lat="46.63535577766235" lon="7.161506436126435"><ele></ele><time>2016-7-22T22:22:25Z</time></trkpt>
<trkpt lat="46.63547857010082" lon="7.161753453618186"><ele></ele><time>2016-7-22T22:22:28Z</time></trkpt>
<trkpt lat="46.635600439937406" lon="7.1620562945996555"><ele></ele><time>2016-7-22T22:22:31Z</time></trkpt>
<trkpt lat="46.63568861517124" lon="7.162293504510442"><ele></ele><time>2016-7-22T22:22:34Z</time></trkpt>
<trkpt lat="46.63577301809072" lon="7.162573462072475"><ele></ele><time>2016-7-22T22:22:37Z</time></trkpt>
<trkpt lat="46.63585247590916" lon="7.162831878022574"><ele></ele><time>2016-7-22T22:22:40Z</time></trkpt>
<trkpt lat="46.63591005800202" lon="7.162989040046769"><ele></ele><time>2016-7-22T22:22:43Z</time></trkpt>
<trkpt lat="46.63601767865823" lon="7.16328509137151"><ele></ele><time>2016-7-22T22:22:46Z</time></trkpt>
<trkpt lat="46.63611247558405" lon="7.163524564537314"><ele></ele><time>2016-7-22T22:22:49Z</time></trkpt>
<trkpt lat="46.63618782721775" lon="7.163693126338537"><ele></ele><time>2016-7-22T22:22:52Z</time></trkpt>
<trkpt lat="46.636250019577474" lon="7.163830255699499"><ele></ele><time>2016-7-22T22:22:55Z</time></trkpt>
<trkpt lat="46.63634532018796" lon="7.16399714154796"><ele></ele><time>2016-7-22T22:22:58Z</time></trkpt>
<trkpt lat="46.63650390333252" lon="7.164251619701009"><ele></ele><time>2016-7-22T22:23:1Z</time></trkpt>
<trkpt lat="46.63669014690769" lon="7.164495788701057"><ele></ele><time>2016-7-22T22:23:4Z</time></trkpt>
<trkpt lat="46.636883598586884" lon="7.164772479659277"><ele></ele><time>2016-7-22T22:23:7Z</time></trkpt>
<trkpt lat="46.6370182088363" lon="7.165085546831918"><ele></ele><time>2016-7-22T22:23:10Z</time></trkpt>
<trkpt lat="46.63715843371771" lon="7.165517050488434"><ele></ele><time>2016-7-22T22:23:13Z</time></trkpt>
<trkpt lat="46.63725783931425" lon="7.165887868249434"><ele></ele><time>2016-7-22T22:23:16Z</time></trkpt>
<trkpt lat="46.63734810864816" lon="7.166256422697746"><ele></ele><time>2016-7-22T22:23:19Z</time></trkpt>
<trkpt lat="46.63749118480942" lon="7.166553145326442"><ele></ele><time>2016-7-22T22:23:22Z</time></trkpt>
<trkpt lat="46.637676254793945" lon="7.166809551877845"><ele></ele><time>2016-7-22T22:23:25Z</time></trkpt>
<trkpt lat="46.63785227373677" lon="7.166930925691994"><ele></ele><time>2016-7-22T22:23:28Z</time></trkpt>
<trkpt lat="46.63814144915889" lon="7.166993628579884"><ele></ele><time>2016-7-22T22:23:31Z</time></trkpt>
<trkpt lat="46.63834127494881" lon="7.166906125752956"><ele></ele><time>2016-7-22T22:23:34Z</time></trkpt>
<trkpt lat="46.638513860745284" lon="7.166702029998855"><ele></ele><time>2016-7-22T22:23:37Z</time></trkpt>
<trkpt lat="46.638699355202434" lon="7.166449654732515"><ele></ele><time>2016-7-22T22:23:40Z</time></trkpt>
<trkpt lat="46.638845537337446" lon="7.166305069960411"><ele></ele><time>2016-7-22T22:23:43Z</time></trkpt>
<trkpt lat="46.63903455107382" lon="7.166159312642743"><ele></ele><time>2016-7-22T22:23:46Z</time></trkpt>
<trkpt lat="46.639259774420374" lon="7.166038701828672"><ele></ele><time>2016-7-22T22:23:49Z</time></trkpt>
<trkpt lat="46.63949329511899" lon="7.165988583040264"><ele></ele><time>2016-7-22T22:23:52Z</time></trkpt>
<trkpt lat="46.63966772243592" lon="7.166021443870575"><ele></ele><time>2016-7-22T22:23:55Z</time></trkpt>
<trkpt lat="46.63979797666619" lon="7.166091351784136"><ele></ele><time>2016-7-22T22:23:58Z</time></trkpt>
<trkpt lat="46.640183878314" lon="7.166256902763907"><ele></ele><time>2016-7-22T22:24:1Z</time></trkpt>
<trkpt lat="46.64045092675648" lon="7.166199324798267"><ele></ele><time>2016-7-22T22:24:4Z</time></trkpt>
<trkpt lat="46.64078645715115" lon="7.165980899493639"><ele></ele><time>2016-7-22T22:24:7Z</time></trkpt>
<trkpt lat="46.64113774611077" lon="7.16570933323445"><ele></ele><time>2016-7-22T22:24:10Z</time></trkpt>
<trkpt lat="46.641196839047566" lon="7.165668598433454"><ele></ele><time>2016-7-22T22:24:13Z</time></trkpt>
<trkpt lat="46.64159498199705" lon="7.165484205026178"><ele></ele><time>2016-7-22T22:24:16Z</time></trkpt>
<trkpt lat="46.64165667342825" lon="7.165433998725774"><ele></ele><time>2016-7-22T22:24:19Z</time></trkpt>
<trkpt lat="46.64174736708678" lon="7.165308272060565"><ele></ele><time>2016-7-22T22:24:22Z</time></trkpt>
<trkpt lat="46.64181559675463" lon="7.16522571173722"><ele></ele><time>2016-7-22T22:24:25Z</time></trkpt>
<trkpt lat="46.64184015597365" lon="7.1652062662396645"><ele></ele><time>2016-7-22T22:24:28Z</time></trkpt>
<trkpt lat="46.64191391729832" lon="7.165162262811098"><ele></ele><time>2016-7-22T22:24:31Z</time></trkpt>
<trkpt lat="46.64200469391045" lon="7.165118427386894"><ele></ele><time>2016-7-22T22:24:34Z</time></trkpt>
<trkpt lat="46.64211558696029" lon="7.165089763648601"><ele></ele><time>2016-7-22T22:24:37Z</time></trkpt>
<trkpt lat="46.64226294162527" lon="7.165034530047596"><ele></ele><time>2016-7-22T22:24:40Z</time></trkpt>
<trkpt lat="46.642376768885875" lon="7.164954820554957"><ele></ele><time>2016-7-22T22:24:43Z</time></trkpt>
<trkpt lat="46.64249034511564" lon="7.164834794081339"><ele></ele><time>2016-7-22T22:24:46Z</time></trkpt>
<trkpt lat="46.642629821706976" lon="7.164691969376768"><ele></ele><time>2016-7-22T22:24:49Z</time></trkpt>
<trkpt lat="46.642767873200036" lon="7.164565489361966"><ele></ele><time>2016-7-22T22:24:52Z</time></trkpt>
<trkpt lat="46.64283953938369" lon="7.164489634640623"><ele></ele><time>2016-7-22T22:24:55Z</time></trkpt>
<trkpt lat="46.642936602910126" lon="7.164400788509381"><ele></ele><time>2016-7-22T22:24:58Z</time></trkpt>
<trkpt lat="46.6430309003513" lon="7.164316971463389"><ele></ele><time>2016-7-22T22:25:1Z</time></trkpt>
<trkpt lat="46.643107428814716" lon="7.164168529527605"><ele></ele><time>2016-7-22T22:25:4Z</time></trkpt>
<trkpt lat="46.64316534967781" lon="7.163996198754897"><ele></ele><time>2016-7-22T22:25:7Z</time></trkpt>
<trkpt lat="46.64320566837485" lon="7.163837362474605"><ele></ele><time>2016-7-22T22:25:10Z</time></trkpt>
<trkpt lat="46.64321195499372" lon="7.163820179699469"><ele></ele><time>2016-7-22T22:25:13Z</time></trkpt>
<trkpt lat="46.6432671096059" lon="7.163668552179424"><ele></ele><time>2016-7-22T22:25:16Z</time></trkpt>
<trkpt lat="46.64334799701805" lon="7.163486917984857"><ele></ele><time>2016-7-22T22:25:19Z</time></trkpt>
<trkpt lat="46.64344120599791" lon="7.1632910348133345"><ele></ele><time>2016-7-22T22:25:22Z</time></trkpt>
<trkpt lat="46.643575989679164" lon="7.163057601592385"><ele></ele><time>2016-7-22T22:25:25Z</time></trkpt>
<trkpt lat="46.64368705228305" lon="7.162848307754804"><ele></ele><time>2016-7-22T22:25:28Z</time></trkpt>
<trkpt lat="46.643846143198594" lon="7.162645385202702"><ele></ele><time>2016-7-22T22:25:31Z</time></trkpt>
<trkpt lat="46.64400984369156" lon="7.162487473594014"><ele></ele><time>2016-7-22T22:25:34Z</time></trkpt>
<trkpt lat="46.64415451554524" lon="7.162489069274721"><ele></ele><time>2016-7-22T22:25:37Z</time></trkpt>
<trkpt lat="46.64427119127198" lon="7.162540452882181"><ele></ele><time>2016-7-22T22:25:40Z</time></trkpt>
<trkpt lat="46.644341431278114" lon="7.16258295066678"><ele></ele><time>2016-7-22T22:25:43Z</time></trkpt>
<trkpt lat="46.644345035592615" lon="7.162574401198883"><ele></ele><time>2016-7-22T22:25:46Z</time></trkpt>
<trkpt lat="46.64430044418205" lon="7.162538274216753"><ele></ele><time>2016-7-22T22:25:49Z</time></trkpt>
<trkpt lat="46.64427613674543" lon="7.162526958117799"><ele></ele><time>2016-7-22T22:25:52Z</time></trkpt>
<trkpt lat="46.64412350284675" lon="7.162452188213454"><ele></ele><time>2016-7-22T22:25:55Z</time></trkpt>
<trkpt lat="46.64405033035078" lon="7.162298294815157"><ele></ele><time>2016-7-22T22:25:58Z</time></trkpt>
<trkpt lat="46.644059552157024" lon="7.1621380329432265"><ele></ele><time>2016-7-22T22:26:1Z</time></trkpt>
<trkpt lat="46.64401865082458" lon="7.161909960359182"><ele></ele><time>2016-7-22T22:26:4Z</time></trkpt>
<trkpt lat="46.64402728582968" lon="7.161756068724263"><ele></ele><time>2016-7-22T22:26:7Z</time></trkpt>
<trkpt lat="46.644080679254174" lon="7.161697647980674"><ele></ele><time>2016-7-22T22:26:10Z</time></trkpt>
<trkpt lat="46.644082858569234" lon="7.161696055465252"><ele></ele><time>2016-7-22T22:26:13Z</time></trkpt>
<trkpt lat="46.644084199471386" lon="7.161715333881329"><ele></ele><time>2016-7-22T22:26:16Z</time></trkpt>
<trkpt lat="46.64410582421215" lon="7.16177216368024"><ele></ele><time>2016-7-22T22:26:19Z</time></trkpt>
<trkpt lat="46.644126024009466" lon="7.161830669829881"><ele></ele><time>2016-7-22T22:26:22Z</time></trkpt>
<trkpt lat="46.64413230952496" lon="7.161917590345731"><ele></ele><time>2016-7-22T22:26:25Z</time></trkpt>
<trkpt lat="46.64415317826386" lon="7.1621281443109375"><ele></ele><time>2016-7-22T22:26:28Z</time></trkpt>
<trkpt lat="46.64413347703636" lon="7.162479597265827"><ele></ele><time>2016-7-22T22:26:31Z</time></trkpt>
<trkpt lat="46.64415183302302" lon="7.162518238254844"><ele></ele><time>2016-7-22T22:26:34Z</time></trkpt>
<trkpt lat="46.64419575412002" lon="7.162531734072504"><ele></ele><time>2016-7-22T22:26:37Z</time></trkpt>
<trkpt lat="46.64429172673268" lon="7.162562497741358"><ele></ele><time>2016-7-22T22:26:40Z</time></trkpt>
<trkpt lat="46.644307400821546" lon="7.162571382901062"><ele></ele><time>2016-7-22T22:26:43Z</time></trkpt>
<trkpt lat="46.64442642276743" lon="7.162690492370812"><ele></ele><time>2016-7-22T22:26:46Z</time></trkpt>
<trkpt lat="46.644497248028465" lon="7.162872632745289"><ele></ele><time>2016-7-22T22:26:49Z</time></trkpt>
<trkpt lat="46.644539072035144" lon="7.163038260136945"><ele></ele><time>2016-7-22T22:26:52Z</time></trkpt>
<trkpt lat="46.64457779510687" lon="7.163168599631427"><ele></ele><time>2016-7-22T22:26:55Z</time></trkpt>
<trkpt lat="46.64460595672042" lon="7.163321989143605"><ele></ele><time>2016-7-22T22:26:58Z</time></trkpt>
<trkpt lat="46.64463713535887" lon="7.163519299915415"><ele></ele><time>2016-7-22T22:27:1Z</time></trkpt>
<trkpt lat="46.64462925585191" lon="7.163567076617871"><ele></ele><time>2016-7-22T22:27:4Z</time></trkpt>
<trkpt lat="46.64460561838443" lon="7.163610913484463"><ele></ele><time>2016-7-22T22:27:7Z</time></trkpt>
<trkpt lat="46.64458717785493" lon="7.163640585039498"><ele></ele><time>2016-7-22T22:27:10Z</time></trkpt>
<trkpt lat="46.64455054792158" lon="7.163731276488737"><ele></ele><time>2016-7-22T22:27:13Z</time></trkpt>
<trkpt lat="46.64448835272461" lon="7.163861613809603"><ele></ele><time>2016-7-22T22:27:16Z</time></trkpt>
<trkpt lat="46.64447217393294" lon="7.164021624073829"><ele></ele><time>2016-7-22T22:27:19Z</time></trkpt>
<trkpt lat="46.644479129192554" lon="7.164185155237326"><ele></ele><time>2016-7-22T22:27:22Z</time></trkpt>
<trkpt lat="46.64452715592181" lon="7.164341059749223"><ele></ele><time>2016-7-22T22:27:25Z</time></trkpt>
<trkpt lat="46.64461566837016" lon="7.164396382243554"><ele></ele><time>2016-7-22T22:27:28Z</time></trkpt>
<trkpt lat="46.64468699910745" lon="7.164336704598439"><ele></ele><time>2016-7-22T22:27:31Z</time></trkpt>
<trkpt lat="46.64470015894541" lon="7.164314995741596"><ele></ele><time>2016-7-22T22:27:34Z</time></trkpt>
<trkpt lat="46.64471164277446" lon="7.16425791519949"><ele></ele><time>2016-7-22T22:27:37Z</time></trkpt>
<trkpt lat="46.644732850167294" lon="7.164149705231681"><ele></ele><time>2016-7-22T22:27:40Z</time></trkpt>
<trkpt lat="46.644724469305956" lon="7.16405004417238"><ele></ele><time>2016-7-22T22:27:43Z</time></trkpt>
<trkpt lat="46.64475355591214" lon="7.163921801615674"><ele></ele><time>2016-7-22T22:27:46Z</time></trkpt>
<trkpt lat="46.64479865169339" lon="7.163820465326531"><ele></ele><time>2016-7-22T22:27:49Z</time></trkpt>
<trkpt lat="46.64485439233336" lon="7.163735641624304"><ele></ele><time>2016-7-22T22:27:52Z</time></trkpt>
<trkpt lat="46.64490510409089" lon="7.163625588272729"><ele></ele><time>2016-7-22T22:27:55Z</time></trkpt>
<trkpt lat="46.64492279030657" lon="7.163590384642725"><ele></ele><time>2016-7-22T22:27:58Z</time></trkpt>
<trkpt lat="46.64493988987776" lon="7.163546715273668"><ele></ele><time>2016-7-22T22:28:1Z</time></trkpt>
<trkpt lat="46.64494299150799" lon="7.163516372835823"><ele></ele><time>2016-7-22T22:28:4Z</time></trkpt>
<trkpt lat="46.64494986554098" lon="7.163434984663413"><ele></ele><time>2016-7-22T22:28:7Z</time></trkpt>
<trkpt lat="46.64494651357691" lon="7.163359212148666"><ele></ele><time>2016-7-22T22:28:10Z</time></trkpt>
<trkpt lat="46.64494643019179" lon="7.163318224619875"><ele></ele><time>2016-7-22T22:28:13Z</time></trkpt>
<trkpt lat="46.64494492266833" lon="7.163202889542112"><ele></ele><time>2016-7-22T22:28:16Z</time></trkpt>
<trkpt lat="46.64494752122655" lon="7.16318738306948"><ele></ele><time>2016-7-22T22:28:19Z</time></trkpt>
<trkpt lat="46.6449202819408" lon="7.163004070168587"><ele></ele><time>2016-7-22T22:28:22Z</time></trkpt>
<trkpt lat="46.64490695602248" lon="7.162878676547278"><ele></ele><time>2016-7-22T22:28:25Z</time></trkpt>
<trkpt lat="46.644897402390114" lon="7.162713301309087"><ele></ele><time>2016-7-22T22:28:28Z</time></trkpt>
<trkpt lat="46.644921124606995" lon="7.162581705874733"><ele></ele><time>2016-7-22T22:28:31Z</time></trkpt>
<trkpt lat="46.64497602809993" lon="7.162398394744192"><ele></ele><time>2016-7-22T22:28:34Z</time></trkpt>
<trkpt lat="46.645008384424536" lon="7.162197564941511"><ele></ele><time>2016-7-22T22:28:37Z</time></trkpt>
<trkpt lat="46.64503520778834" lon="7.162081308464865"><ele></ele><time>2016-7-22T22:28:40Z</time></trkpt>
<trkpt lat="46.64506982682474" lon="7.161918784027863"><ele></ele><time>2016-7-22T22:28:43Z</time></trkpt>
<trkpt lat="46.64508131072872" lon="7.161854746503392"><ele></ele><time>2016-7-22T22:28:46Z</time></trkpt>
<trkpt lat="46.64511207319619" lon="7.161775957237754"><ele></ele><time>2016-7-22T22:28:49Z</time></trkpt>
<trkpt lat="46.64515322928681" lon="7.161692725785445"><ele></ele><time>2016-7-22T22:28:52Z</time></trkpt>
<trkpt lat="46.645170580739276" lon="7.161609158543554"><ele></ele><time>2016-7-22T22:28:55Z</time></trkpt>
<trkpt lat="46.6451799688373" lon="7.1615759663929985"><ele></ele><time>2016-7-22T22:28:58Z</time></trkpt>
<trkpt lat="46.64519572719072" lon="7.16154285819892"><ele></ele><time>2016-7-22T22:29:1Z</time></trkpt>
<trkpt lat="46.64520897167238" lon="7.161443449063693"><ele></ele><time>2016-7-22T22:29:4Z</time></trkpt>
<trkpt lat="46.645226574564745" lon="7.16136155820882"><ele></ele><time>2016-7-22T22:29:7Z</time></trkpt>
<trkpt lat="46.6452255694051" lon="7.1612983586059205"><ele></ele><time>2016-7-22T22:29:10Z</time></trkpt>
<trkpt lat="46.6452264922098" lon="7.161223508193435"><ele></ele><time>2016-7-22T22:29:13Z</time></trkpt>
<trkpt lat="46.645220458176176" lon="7.16113432456934"><ele></ele><time>2016-7-22T22:29:16Z</time></trkpt>
<trkpt lat="46.64521400451691" lon="7.161095097103835"><ele></ele><time>2016-7-22T22:29:19Z</time></trkpt>
<trkpt lat="46.64521878266079" lon="7.161052517117715"><ele></ele><time>2016-7-22T22:29:22Z</time></trkpt>
<trkpt lat="46.6452031090325" lon="7.16100021367785"><ele></ele><time>2016-7-22T22:29:25Z</time></trkpt>
<trkpt lat="46.645207467890316" lon="7.160975570964358"><ele></ele><time>2016-7-22T22:29:28Z</time></trkpt>
<trkpt lat="46.64516413424481" lon="7.160894433166446"><ele></ele><time>2016-7-22T22:29:31Z</time></trkpt>
<trkpt lat="46.645137480419436" lon="7.160831484467266"><ele></ele><time>2016-7-22T22:29:34Z</time></trkpt>
<trkpt lat="46.645139324572604" lon="7.160819079284208"><ele></ele><time>2016-7-22T22:29:37Z</time></trkpt>
<trkpt lat="46.645106384348445" lon="7.16075252622917"><ele></ele><time>2016-7-22T22:29:40Z</time></trkpt>
<trkpt lat="46.645077719385405" lon="7.160640375690404"><ele></ele><time>2016-7-22T22:29:43Z</time></trkpt>
<trkpt lat="46.645068836090545" lon="7.160495619958926"><ele></ele><time>2016-7-22T22:29:46Z</time></trkpt>
<trkpt lat="46.64508493006336" lon="7.160430241429037"><ele></ele><time>2016-7-22T22:29:49Z</time></trkpt>
<trkpt lat="46.64508954015192" lon="7.160426972584677"><ele></ele><time>2016-7-22T22:29:52Z</time></trkpt>
<trkpt lat="46.64510697455343" lon="7.160425464217655"><ele></ele><time>2016-7-22T22:29:55Z</time></trkpt>
<trkpt lat="46.645138406980834" lon="7.160402666108139"><ele></ele><time>2016-7-22T22:29:58Z</time></trkpt>
<trkpt lat="46.645234966677634" lon="7.160400488896381"><ele></ele><time>2016-7-22T22:30:1Z</time></trkpt>
<trkpt lat="46.64534686444037" lon="7.160477521039736"><ele></ele><time>2016-7-22T22:30:4Z</time></trkpt>
<trkpt lat="46.645424312552876" lon="7.160552205505316"><ele></ele><time>2016-7-22T22:30:7Z</time></trkpt>
<trkpt lat="46.64552179326806" lon="7.160643570398552"><ele></ele><time>2016-7-22T22:30:10Z</time></trkpt>
<trkpt lat="46.645594798741115" lon="7.160739377174238"><ele></ele><time>2016-7-22T22:30:13Z</time></trkpt>
<trkpt lat="46.64568079643249" lon="7.1608117987087905"><ele></ele><time>2016-7-22T22:30:16Z</time></trkpt>
<trkpt lat="46.64576126241591" lon="7.1608506086757036"><ele></ele><time>2016-7-22T22:30:19Z</time></trkpt>
<trkpt lat="46.64585832491183" lon="7.160859411772685"><ele></ele><time>2016-7-22T22:30:22Z</time></trkpt>
<trkpt lat="46.64593409819359" lon="7.160787831919873"><ele></ele><time>2016-7-22T22:30:25Z</time></trkpt>
<trkpt lat="46.64593049443567" lon="7.160743910648183"><ele></ele><time>2016-7-22T22:30:28Z</time></trkpt>
<trkpt lat="46.64591197097456" lon="7.160689846946767"><ele></ele><time>2016-7-22T22:30:31Z</time></trkpt>
<trkpt lat="46.645848185972" lon="7.160559842188884"><ele></ele><time>2016-7-22T22:30:34Z</time></trkpt>
<trkpt lat="46.64575053803899" lon="7.1604288308710204"><ele></ele><time>2016-7-22T22:30:37Z</time></trkpt>
<trkpt lat="46.645741988652645" lon="7.16041298888177"><ele></ele><time>2016-7-22T22:30:40Z</time></trkpt>
<trkpt lat="46.64572371685561" lon="7.16033947916071"><ele></ele><time>2016-7-22T22:30:43Z</time></trkpt>
<trkpt lat="46.64570452269643" lon="7.160299077953392"><ele></ele><time>2016-7-22T22:30:46Z</time></trkpt>
<trkpt lat="46.64566739171535" lon="7.160213581697767"><ele></ele><time>2016-7-22T22:30:49Z</time></trkpt>
<trkpt lat="46.6456218788965" lon="7.160120709182706"><ele></ele><time>2016-7-22T22:30:52Z</time></trkpt>
<trkpt lat="46.64554694494963" lon="7.160084581544642"><ele></ele><time>2016-7-22T22:30:55Z</time></trkpt>
<trkpt lat="46.645465474236616" lon="7.159942171180922"><ele></ele><time>2016-7-22T22:30:58Z</time></trkpt>
<trkpt lat="46.64540730519021" lon="7.159805461016979"><ele></ele><time>2016-7-22T22:31:1Z</time></trkpt>
<trkpt lat="46.64535190171611" lon="7.1597120853732985"><ele></ele><time>2016-7-22T22:31:4Z</time></trkpt>
<trkpt lat="46.6453332950729" lon="7.159598091032137"><ele></ele><time>2016-7-22T22:31:7Z</time></trkpt>
<trkpt lat="46.64530563602273" lon="7.159478229160292"><ele></ele><time>2016-7-22T22:31:10Z</time></trkpt>
<trkpt lat="46.64524386340299" lon="7.15928033099442"><ele></ele><time>2016-7-22T22:31:13Z</time></trkpt>
<trkpt lat="46.645206732795046" lon="7.15915979836512"><ele></ele><time>2016-7-22T22:31:16Z</time></trkpt>
<trkpt lat="46.645172954675836" lon="7.1590654173589705"><ele></ele><time>2016-7-22T22:31:19Z</time></trkpt>
<trkpt lat="46.645178738437515" lon="7.159042870153219"><ele></ele><time>2016-7-22T22:31:22Z</time></trkpt>
<trkpt lat="46.64520162158951" lon="7.158993836489742"><ele></ele><time>2016-7-22T22:31:25Z</time></trkpt>
<trkpt lat="46.645200448203184" lon="7.158986125109656"><ele></ele><time>2016-7-22T22:31:28Z</time></trkpt>
<trkpt lat="46.645200951602675" lon="7.1589405275447024"><ele></ele><time>2016-7-22T22:31:31Z</time></trkpt>
<trkpt lat="46.64519826964424" lon="7.158916555231818"><ele></ele><time>2016-7-22T22:31:34Z</time></trkpt>
<trkpt lat="46.645212016832815" lon="7.158836927409289"><ele></ele><time>2016-7-22T22:31:37Z</time></trkpt>
<trkpt lat="46.6452154535734" lon="7.158822342964811"><ele></ele><time>2016-7-22T22:31:40Z</time></trkpt>
<trkpt lat="46.645233391253356" lon="7.158786636427212"><ele></ele><time>2016-7-22T22:31:43Z</time></trkpt>
<trkpt lat="46.64525074243167" lon="7.158729053098867"><ele></ele><time>2016-7-22T22:31:46Z</time></trkpt>
<trkpt lat="46.64524738998859" lon="7.158698626702872"><ele></ele><time>2016-7-22T22:31:49Z</time></trkpt>
<trkpt lat="46.645267675052295" lon="7.158620843041337"><ele></ele><time>2016-7-22T22:31:52Z</time></trkpt>
<trkpt lat="46.64529089391232" lon="7.15853124095394"><ele></ele><time>2016-7-22T22:31:55Z</time></trkpt>
<trkpt lat="46.64530355186818" lon="7.158412469600934"><ele></ele><time>2016-7-22T22:31:58Z</time></trkpt>
<trkpt lat="46.64532031715997" lon="7.158275174321602"><ele></ele><time>2016-7-22T22:32:1Z</time></trkpt>
<trkpt lat="46.64532920251682" lon="7.158225721260558"><ele></ele><time>2016-7-22T22:32:4Z</time></trkpt>
<trkpt lat="46.64534621834659" lon="7.1581749272701005"><ele></ele><time>2016-7-22T22:32:7Z</time></trkpt>
<trkpt lat="46.64535317652496" lon="7.158063196596179"><ele></ele><time>2016-7-22T22:32:10Z</time></trkpt>
<trkpt lat="46.64537538967581" lon="7.157962278912497"><ele></ele><time>2016-7-22T22:32:13Z</time></trkpt>
<trkpt lat="46.64538544845736" lon="7.157916933011478"><ele></ele><time>2016-7-22T22:32:16Z</time></trkpt>
<trkpt lat="46.64539114857037" lon="7.1578783763611495"><ele></ele><time>2016-7-22T22:32:19Z</time></trkpt>
<trkpt lat="46.64540003430445" lon="7.157793467832357"><ele></ele><time>2016-7-22T22:32:22Z</time></trkpt>
<trkpt lat="46.64541847479719" lon="7.157767400499383"><ele></ele><time>2016-7-22T22:32:25Z</time></trkpt>
<trkpt lat="46.64542367169216" lon="7.1577573423229985"><ele></ele><time>2016-7-22T22:32:28Z</time></trkpt>
<trkpt lat="46.645429539085164" lon="7.157752480943633"><ele></ele><time>2016-7-22T22:32:31Z</time></trkpt>
<trkpt lat="46.64545611061513" lon="7.15767201520819"><ele></ele><time>2016-7-22T22:32:34Z</time></trkpt>
<trkpt lat="46.64549575829722" lon="7.157557435392927"><ele></ele><time>2016-7-22T22:32:37Z</time></trkpt>
<trkpt lat="46.645550410146114" lon="7.157392396820474"><ele></ele><time>2016-7-22T22:32:40Z</time></trkpt>
<trkpt lat="46.645587878441134" lon="7.157286198865669"><ele></ele><time>2016-7-22T22:32:43Z</time></trkpt>
<trkpt lat="46.64560606758264" lon="7.157250157057813"><ele></ele><time>2016-7-22T22:32:46Z</time></trkpt>
<trkpt lat="46.64564026641856" lon="7.15719207118015"><ele></ele><time>2016-7-22T22:32:49Z</time></trkpt>
<trkpt lat="46.64569852114341" lon="7.157153767124021"><ele></ele><time>2016-7-22T22:32:52Z</time></trkpt>
<trkpt lat="46.645737246488856" lon="7.157069865070058"><ele></ele><time>2016-7-22T22:32:55Z</time></trkpt>
<trkpt lat="46.64573758184308" lon="7.157062572818002"><ele></ele><time>2016-7-22T22:32:58Z</time></trkpt>
<trkpt lat="46.64577689325198" lon="7.157041702719322"><ele></ele><time>2016-7-22T22:33:1Z</time></trkpt>
<trkpt lat="46.64578209050651" lon="7.1569978654568445"><ele></ele><time>2016-7-22T22:33:4Z</time></trkpt>
<trkpt lat="46.64581729471227" lon="7.156983030242582"><ele></ele><time>2016-7-22T22:33:7Z</time></trkpt>
<trkpt lat="46.64584529031762" lon="7.156982527933765"><ele></ele><time>2016-7-22T22:33:10Z</time></trkpt>
<trkpt lat="46.64585819858805" lon="7.15697129645731"><ele></ele><time>2016-7-22T22:33:13Z</time></trkpt>
<trkpt lat="46.64587496268263" lon="7.15694665401269"><ele></ele><time>2016-7-22T22:33:16Z</time></trkpt>
<trkpt lat="46.645942940153944" lon="7.15693433407964"><ele></ele><time>2016-7-22T22:33:19Z</time></trkpt>
<trkpt lat="46.64601032984308" lon="7.157020501543741"><ele></ele><time>2016-7-22T22:33:22Z</time></trkpt>
<trkpt lat="46.64602910517389" lon="7.15703567320196"><ele></ele><time>2016-7-22T22:33:25Z</time></trkpt>
<trkpt lat="46.6460723553878" lon="7.157080182064852"><ele></ele><time>2016-7-22T22:33:28Z</time></trkpt>
<trkpt lat="46.646150222116525" lon="7.157199793565015"><ele></ele><time>2016-7-22T22:33:31Z</time></trkpt>
<trkpt lat="46.64621585147342" lon="7.157298198575044"><ele></ele><time>2016-7-22T22:33:34Z</time></trkpt>
<trkpt lat="46.646287348021964" lon="7.157410685315854"><ele></ele><time>2016-7-22T22:33:37Z</time></trkpt>
<trkpt lat="46.646328753683164" lon="7.157505150305279"><ele></ele><time>2016-7-22T22:33:40Z</time></trkpt>
<trkpt lat="46.64640444116782" lon="7.157619732613122"><ele></ele><time>2016-7-22T22:33:43Z</time></trkpt>
<trkpt lat="46.646450959599356" lon="7.157732889365803"><ele></ele><time>2016-7-22T22:33:46Z</time></trkpt>
<trkpt lat="46.64650259131365" lon="7.157816541915679"><ele></ele><time>2016-7-22T22:33:49Z</time></trkpt>
<trkpt lat="46.6465725794665" lon="7.15789625536593"><ele></ele><time>2016-7-22T22:33:52Z</time></trkpt>
<trkpt lat="46.64663653353287" lon="7.157891981975952"><ele></ele><time>2016-7-22T22:33:55Z</time></trkpt>
<trkpt lat="46.646682215303514" lon="7.157861221364371"><ele></ele><time>2016-7-22T22:33:58Z</time></trkpt>
<trkpt lat="46.64670107489139" lon="7.157835237859989"><ele></ele><time>2016-7-22T22:34:1Z</time></trkpt>
<trkpt lat="46.6467517860962" lon="7.157777739073457"><ele></ele><time>2016-7-22T22:34:4Z</time></trkpt>
<trkpt lat="46.646774836696615" lon="7.157746642696391"><ele></ele><time>2016-7-22T22:34:7Z</time></trkpt>
<trkpt lat="46.64680425794118" lon="7.157679085161088"><ele></ele><time>2016-7-22T22:34:10Z</time></trkpt>
<trkpt lat="46.64686745878441" lon="7.157566768972272"><ele></ele><time>2016-7-22T22:34:13Z</time></trkpt>
<trkpt lat="46.64692789351338" lon="7.1574621640783835"><ele></ele><time>2016-7-22T22:34:16Z</time></trkpt>
<trkpt lat="46.64697910798298" lon="7.157371808227343"><ele></ele><time>2016-7-22T22:34:19Z</time></trkpt>
<trkpt lat="46.6470277242263" lon="7.157265694334896"><ele></ele><time>2016-7-22T22:34:22Z</time></trkpt>
<trkpt lat="46.647108023703915" lon="7.157198054081458"><ele></ele><time>2016-7-22T22:34:25Z</time></trkpt>
<trkpt lat="46.64716535711898" lon="7.157093952035595"><ele></ele><time>2016-7-22T22:34:28Z</time></trkpt>
<trkpt lat="46.64722193597081" lon="7.157007787254719"><ele></ele><time>2016-7-22T22:34:31Z</time></trkpt>
<trkpt lat="46.64730307364659" lon="7.156939560286408"><ele></ele><time>2016-7-22T22:34:34Z</time></trkpt>
<trkpt lat="46.647379097912896" lon="7.156912739828488"><ele></ele><time>2016-7-22T22:34:37Z</time></trkpt>
<trkpt lat="46.64740089068389" lon="7.156932605419665"><ele></ele><time>2016-7-22T22:34:40Z</time></trkpt>
<trkpt lat="46.647435256000215" lon="7.15698340051983"><ele></ele><time>2016-7-22T22:34:43Z</time></trkpt>
<trkpt lat="46.64747255508095" lon="7.15702539468101"><ele></ele><time>2016-7-22T22:34:46Z</time></trkpt>
<trkpt lat="46.64756643141816" lon="7.157131176378534"><ele></ele><time>2016-7-22T22:34:49Z</time></trkpt>
<trkpt lat="46.64765611799953" lon="7.157123969878471"><ele></ele><time>2016-7-22T22:34:52Z</time></trkpt>
<trkpt lat="46.64767732448152" lon="7.157102009740786"><ele></ele><time>2016-7-22T22:34:55Z</time></trkpt>
<trkpt lat="46.647714121257444" lon="7.157086671646896"><ele></ele><time>2016-7-22T22:34:58Z</time></trkpt>
<trkpt lat="46.64772593980854" lon="7.157082061853689"><ele></ele><time>2016-7-22T22:35:1Z</time></trkpt>
<trkpt lat="46.647766592434564" lon="7.157050882038978"><ele></ele><time>2016-7-22T22:35:4Z</time></trkpt>
<trkpt lat="46.64777732136596" lon="7.157043506192898"><ele></ele><time>2016-7-22T22:35:7Z</time></trkpt>
<trkpt lat="46.64784144338186" lon="7.157010063771041"><ele></ele><time>2016-7-22T22:35:10Z</time></trkpt>
<trkpt lat="46.64791906017076" lon="7.1569871828439835"><ele></ele><time>2016-7-22T22:35:13Z</time></trkpt>
<trkpt lat="46.64800070002804" lon="7.156987938981702"><ele></ele><time>2016-7-22T22:35:16Z</time></trkpt>
<trkpt lat="46.64803984354088" lon="7.15699137641034"><ele></ele><time>2016-7-22T22:35:19Z</time></trkpt>
<trkpt lat="46.648203541884186" lon="7.15703680988728"><ele></ele><time>2016-7-22T22:35:22Z</time></trkpt>
<trkpt lat="46.64834133980649" lon="7.157110406011073"><ele></ele><time>2016-7-22T22:35:25Z</time></trkpt>
<trkpt lat="46.648456841464" lon="7.157218535108855"><ele></ele><time>2016-7-22T22:35:28Z</time></trkpt>
<trkpt lat="46.648564966691126" lon="7.157359018207448"><ele></ele><time>2016-7-22T22:35:31Z</time></trkpt>
<trkpt lat="46.64865523776344" lon="7.157562784316642"><ele></ele><time>2016-7-22T22:35:34Z</time></trkpt>
<trkpt lat="46.64874475475253" lon="7.157739393030673"><ele></ele><time>2016-7-22T22:35:37Z</time></trkpt>
<trkpt lat="46.64884793462225" lon="7.157882474412119"><ele></ele><time>2016-7-22T22:35:40Z</time></trkpt>
<trkpt lat="46.648991515010536" lon="7.1580555638931"><ele></ele><time>2016-7-22T22:35:43Z</time></trkpt>
<trkpt lat="46.64913392211363" lon="7.158211470438975"><ele></ele><time>2016-7-22T22:35:46Z</time></trkpt>
<trkpt lat="46.649277419279706" lon="7.158328484960086"><ele></ele><time>2016-7-22T22:35:49Z</time></trkpt>
<trkpt lat="46.649487636880934" lon="7.158409793999671"><ele></ele><time>2016-7-22T22:35:52Z</time></trkpt>
<trkpt lat="46.64964940686272" lon="7.158504513042615"><ele></ele><time>2016-7-22T22:35:55Z</time></trkpt>
<trkpt lat="46.64973749882594" lon="7.15869076091499"><ele></ele><time>2016-7-22T22:35:58Z</time></trkpt>
<trkpt lat="46.649835146933164" lon="7.158805595147713"><ele></ele><time>2016-7-22T22:36:1Z</time></trkpt>
<trkpt lat="46.64997420169407" lon="7.1589217713797995"><ele></ele><time>2016-7-22T22:36:4Z</time></trkpt>
<trkpt lat="46.65011157991257" lon="7.1590529511882615"><ele></ele><time>2016-7-22T22:36:7Z</time></trkpt>
<trkpt lat="46.6502295123272" lon="7.159161331789878"><ele></ele><time>2016-7-22T22:36:10Z</time></trkpt>
<trkpt lat="46.65031416920816" lon="7.159206176819511"><ele></ele><time>2016-7-22T22:36:13Z</time></trkpt>
<trkpt lat="46.650468563722406" lon="7.159242809086838"><ele></ele><time>2016-7-22T22:36:16Z</time></trkpt>
<trkpt lat="46.65058507194009" lon="7.159282625660201"><ele></ele><time>2016-7-22T22:36:19Z</time></trkpt>
<trkpt lat="46.65070610632165" lon="7.159329147856523"><ele></ele><time>2016-7-22T22:36:22Z</time></trkpt>
<trkpt lat="46.65080065387095" lon="7.159373406365814"><ele></ele><time>2016-7-22T22:36:25Z</time></trkpt>
<trkpt lat="46.650894111806785" lon="7.159414312088791"><ele></ele><time>2016-7-22T22:36:28Z</time></trkpt>
<trkpt lat="46.65094255892969" lon="7.159447756942636"><ele></ele><time>2016-7-22T22:36:31Z</time></trkpt>
<trkpt lat="46.65101531225698" lon="7.1596086911211785"><ele></ele><time>2016-7-22T22:36:34Z</time></trkpt>
<trkpt lat="46.651068954611695" lon="7.159788735633827"><ele></ele><time>2016-7-22T22:36:37Z</time></trkpt>
<trkpt lat="46.651098205438025" lon="7.159983028860836"><ele></ele><time>2016-7-22T22:36:40Z</time></trkpt>
<trkpt lat="46.651139944972634" lon="7.160210095612151"><ele></ele><time>2016-7-22T22:36:43Z</time></trkpt>
<trkpt lat="46.651164418030675" lon="7.160411597175373"><ele></ele><time>2016-7-22T22:36:46Z</time></trkpt>
<trkpt lat="46.65119878065593" lon="7.160716280222228"><ele></ele><time>2016-7-22T22:36:49Z</time></trkpt>
<trkpt lat="46.65122736064859" lon="7.160937144077993"><ele></ele><time>2016-7-22T22:36:52Z</time></trkpt>
<trkpt lat="46.65128578049168" lon="7.161136634715512"><ele></ele><time>2016-7-22T22:36:55Z</time></trkpt>
<trkpt lat="46.65140656258269" lon="7.161261863005568"><ele></ele><time>2016-7-22T22:36:58Z</time></trkpt>
<trkpt lat="46.6514828370644" lon="7.161352389241951"><ele></ele><time>2016-7-22T22:37:1Z</time></trkpt>
<trkpt lat="46.651480823594824" lon="7.161523044816388"><ele></ele><time>2016-7-22T22:37:4Z</time></trkpt>
<trkpt lat="46.65140018775416" lon="7.161693028142778"><ele></ele><time>2016-7-22T22:37:7Z</time></trkpt>
<trkpt lat="46.651416614110786" lon="7.1619005645040295"><ele></ele><time>2016-7-22T22:37:10Z</time></trkpt>
<trkpt lat="46.651558098934665" lon="7.162082622565454"><ele></ele><time>2016-7-22T22:37:13Z</time></trkpt>
<trkpt lat="46.65158106369772" lon="7.162241963104366"><ele></ele><time>2016-7-22T22:37:16Z</time></trkpt>
<trkpt lat="46.65155398943979" lon="7.162304910639031"><ele></ele><time>2016-7-22T22:37:19Z</time></trkpt>
<trkpt lat="46.651470755740625" lon="7.162424434832575"><ele></ele><time>2016-7-22T22:37:22Z</time></trkpt>
<trkpt lat="46.6514244029741" lon="7.162496853506316"><ele></ele><time>2016-7-22T22:37:25Z</time></trkpt>
<trkpt lat="46.651415852662474" lon="7.162568267166129"><ele></ele><time>2016-7-22T22:37:28Z</time></trkpt>
<trkpt lat="46.65142289164328" lon="7.1627409345934785"><ele></ele><time>2016-7-22T22:37:31Z</time></trkpt>
<trkpt lat="46.651451723519806" lon="7.16292190057791"><ele></ele><time>2016-7-22T22:37:34Z</time></trkpt>
<trkpt lat="46.651464547712926" lon="7.162935060447577"><ele></ele><time>2016-7-22T22:37:37Z</time></trkpt>
<trkpt lat="46.65150612029928" lon="7.163097502692805"><ele></ele><time>2016-7-22T22:37:40Z</time></trkpt>
<trkpt lat="46.65157074300677" lon="7.16327411085652"><ele></ele><time>2016-7-22T22:37:43Z</time></trkpt>
<trkpt lat="46.65165657281838" lon="7.163370001716574"><ele></ele><time>2016-7-22T22:37:46Z</time></trkpt>
<trkpt lat="46.65173796077782" lon="7.1634126673741365"><ele></ele><time>2016-7-22T22:37:49Z</time></trkpt>
<trkpt lat="46.651834101150364" lon="7.163432702201727"><ele></ele><time>2016-7-22T22:37:52Z</time></trkpt>
<trkpt lat="46.651906520727074" lon="7.163450054308216"><ele></ele><time>2016-7-22T22:37:55Z</time></trkpt>
<trkpt lat="46.65192219490247" lon="7.163450892836498"><ele></ele><time>2016-7-22T22:37:58Z</time></trkpt>
<trkpt lat="46.651942311405875" lon="7.16346002954793"><ele></ele><time>2016-7-22T22:38:1Z</time></trkpt>
<trkpt lat="46.6519718153197" lon="7.163500933887276"><ele></ele><time>2016-7-22T22:38:4Z</time></trkpt>
<trkpt lat="46.65202311212297" lon="7.163550723516893"><ele></ele><time>2016-7-22T22:38:7Z</time></trkpt>
<trkpt lat="46.65207809692619" lon="7.163604620360063"><ele></ele><time>2016-7-22T22:38:10Z</time></trkpt>
<trkpt lat="46.65221187184264" lon="7.163649466441084"><ele></ele><time>2016-7-22T22:38:13Z</time></trkpt>
<trkpt lat="46.65227414923918" lon="7.163672601844297"><ele></ele><time>2016-7-22T22:38:16Z</time></trkpt>
<trkpt lat="46.65228881760506" lon="7.163671512512372"><ele></ele><time>2016-7-22T22:38:19Z</time></trkpt>
<trkpt lat="46.65239518396632" lon="7.163686853692068"><ele></ele><time>2016-7-22T22:38:22Z</time></trkpt>
<trkpt lat="46.652507081946524" lon="7.163744355980331"><ele></ele><time>2016-7-22T22:38:25Z</time></trkpt>
<trkpt lat="46.65265359715093" lon="7.163810576196607"><ele></ele><time>2016-7-22T22:38:28Z</time></trkpt>
<trkpt lat="46.65276633284326" lon="7.163913424616267"><ele></ele><time>2016-7-22T22:38:31Z</time></trkpt>
<trkpt lat="46.65291837928127" lon="7.1640582672331625"><ele></ele><time>2016-7-22T22:38:34Z</time></trkpt>
<trkpt lat="46.65298819934276" lon="7.1641816503987235"><ele></ele><time>2016-7-22T22:38:37Z</time></trkpt>
<trkpt lat="46.653063970102465" lon="7.164348787243516"><ele></ele><time>2016-7-22T22:38:40Z</time></trkpt>
<trkpt lat="46.65313320369441" lon="7.164447192314896"><ele></ele><time>2016-7-22T22:38:43Z</time></trkpt>
<trkpt lat="46.65315399078696" lon="7.1644529762777704"><ele></ele><time>2016-7-22T22:38:46Z</time></trkpt>
<trkpt lat="46.653204700983906" lon="7.1644907797671245"><ele></ele><time>2016-7-22T22:38:49Z</time></trkpt>
<trkpt lat="46.65323118748643" lon="7.164524307962749"><ele></ele><time>2016-7-22T22:38:52Z</time></trkpt>
<trkpt lat="46.65324627484896" lon="7.164532606374816"><ele></ele><time>2016-7-22T22:38:55Z</time></trkpt>
<trkpt lat="46.653373930719916" lon="7.164600921659418"><ele></ele><time>2016-7-22T22:38:58Z</time></trkpt>
<trkpt lat="46.653388933981375" lon="7.1646358745318395"><ele></ele><time>2016-7-22T22:39:1Z</time></trkpt>
<trkpt lat="46.65342883147738" lon="7.164676359998244"><ele></ele><time>2016-7-22T22:39:4Z</time></trkpt>
<trkpt lat="46.65354961450482" lon="7.164713662081057"><ele></ele><time>2016-7-22T22:39:7Z</time></trkpt>
<trkpt lat="46.65370333891786" lon="7.164708217150505"><ele></ele><time>2016-7-22T22:39:10Z</time></trkpt>
<trkpt lat="46.65385044216289" lon="7.164651139534677"><ele></ele><time>2016-7-22T22:39:13Z</time></trkpt>
<trkpt lat="46.65386050103499" lon="7.164597076455568"><ele></ele><time>2016-7-22T22:39:16Z</time></trkpt>
<trkpt lat="46.653866117154244" lon="7.164574864524768"><ele></ele><time>2016-7-22T22:39:19Z</time></trkpt>
<trkpt lat="46.65382814851774" lon="7.164438070996695"><ele></ele><time>2016-7-22T22:39:22Z</time></trkpt>
<trkpt lat="46.65375405274044" lon="7.164403284490486"><ele></ele><time>2016-7-22T22:39:25Z</time></trkpt>
<trkpt lat="46.65371306573707" lon="7.164349387950562"><ele></ele><time>2016-7-22T22:39:28Z</time></trkpt>
<trkpt lat="46.65370476819007" lon="7.164297336133722"><ele></ele><time>2016-7-22T22:39:31Z</time></trkpt>
<trkpt lat="46.653753132056174" lon="7.164277891152291"><ele></ele><time>2016-7-22T22:39:34Z</time></trkpt>
<trkpt lat="46.653668223722406" lon="7.164232124115815"><ele></ele><time>2016-7-22T22:39:37Z</time></trkpt>
<trkpt lat="46.65364106648023" lon="7.164216197909119"><ele></ele><time>2016-7-22T22:39:40Z</time></trkpt>
<trkpt lat="46.65360376752575" lon="7.164161798534028"><ele></ele><time>2016-7-22T22:39:43Z</time></trkpt>
<trkpt lat="46.65359991194332" lon="7.16415241071593"><ele></ele><time>2016-7-22T22:39:46Z</time></trkpt>
<trkpt lat="46.65355582361668" lon="7.164099855213978"><ele></ele><time>2016-7-22T22:39:49Z</time></trkpt>
<trkpt lat="46.653549369778396" lon="7.164077391566047"><ele></ele><time>2016-7-22T22:39:52Z</time></trkpt>
<trkpt lat="46.65353621064257" lon="7.164032631902886"><ele></ele><time>2016-7-22T22:39:55Z</time></trkpt>
<trkpt lat="46.65352883464264" lon="7.164024417475856"><ele></ele><time>2016-7-22T22:39:58Z</time></trkpt>
<trkpt lat="46.65351827396404" lon="7.163973706715126"><ele></ele><time>2016-7-22T22:40:1Z</time></trkpt>
<trkpt lat="46.653513412465564" lon="7.163972449324493"><ele></ele><time>2016-7-22T22:40:4Z</time></trkpt>
<trkpt lat="46.65348566876072" lon="7.163930874471636"><ele></ele><time>2016-7-22T22:40:7Z</time></trkpt>
<trkpt lat="46.653485669156346" lon="7.163893491169367"><ele></ele><time>2016-7-22T22:40:10Z</time></trkpt>
<trkpt lat="46.65346153013" lon="7.163809001033621"><ele></ele><time>2016-7-22T22:40:13Z</time></trkpt>
<trkpt lat="46.653471003129724" lon="7.163673549631148"><ele></ele><time>2016-7-22T22:40:16Z</time></trkpt>
<trkpt lat="46.65354308933513" lon="7.163511026019915"><ele></ele><time>2016-7-22T22:40:19Z</time></trkpt>
<trkpt lat="46.653653564313615" lon="7.163386892366938"><ele></ele><time>2016-7-22T22:40:22Z</time></trkpt>
<trkpt lat="46.65374668825049" lon="7.163307517720238"><ele></ele><time>2016-7-22T22:40:25Z</time></trkpt>
<trkpt lat="46.65379035927109" lon="7.16319101016343"><ele></ele><time>2016-7-22T22:40:28Z</time></trkpt>
<trkpt lat="46.65380167665895" lon="7.163021025347479"><ele></ele><time>2016-7-22T22:40:31Z</time></trkpt>
<trkpt lat="46.65380058888286" lon="7.162844167101101"><ele></ele><time>2016-7-22T22:40:34Z</time></trkpt>
<trkpt lat="46.65384929023227" lon="7.1626164317565655"><ele></ele><time>2016-7-22T22:40:37Z</time></trkpt>
<trkpt lat="46.65393956525405" lon="7.1624487117574995"><ele></ele><time>2016-7-22T22:40:40Z</time></trkpt>
<trkpt lat="46.654037551669916" lon="7.162278142076973"><ele></ele><time>2016-7-22T22:40:43Z</time></trkpt>
<trkpt lat="46.65411483465273" lon="7.16211687586652"><ele></ele><time>2016-7-22T22:40:46Z</time></trkpt>
<trkpt lat="46.65418264551803" lon="7.162007661090025"><ele></ele><time>2016-7-22T22:40:49Z</time></trkpt>
<trkpt lat="46.65424249246966" lon="7.162001543588839"><ele></ele><time>2016-7-22T22:40:52Z</time></trkpt>
<trkpt lat="46.6542928669651" lon="7.1620794125839495"><ele></ele><time>2016-7-22T22:40:55Z</time></trkpt>
<trkpt lat="46.65437651733953" lon="7.16218854680659"><ele></ele><time>2016-7-22T22:40:58Z</time></trkpt>
<trkpt lat="46.6544672921206" lon="7.162318719767163"><ele></ele><time>2016-7-22T22:41:1Z</time></trkpt>
<trkpt lat="46.65449495227776" lon="7.162334645985242"><ele></ele><time>2016-7-22T22:41:4Z</time></trkpt>
<trkpt lat="46.65455060736526" lon="7.162414023836785"><ele></ele><time>2016-7-22T22:41:7Z</time></trkpt>
<trkpt lat="46.65462319336386" lon="7.1625463757003285"><ele></ele><time>2016-7-22T22:41:10Z</time></trkpt>
<trkpt lat="46.654636771651994" lon="7.16258577095213"><ele></ele><time>2016-7-22T22:41:13Z</time></trkpt>
<trkpt lat="46.65463316644034" lon="7.162678977671373"><ele></ele><time>2016-7-22T22:41:16Z</time></trkpt>
<trkpt lat="46.654634004429596" lon="7.1626980884355715"><ele></ele><time>2016-7-22T22:41:19Z</time></trkpt>
<trkpt lat="46.654627549218" lon="7.162805292876764"><ele></ele><time>2016-7-22T22:41:22Z</time></trkpt>
<trkpt lat="46.65461287866797" lon="7.163012577101024"><ele></ele><time>2016-7-22T22:41:25Z</time></trkpt>
<trkpt lat="46.654613297382156" lon="7.1630486193067195"><ele></ele><time>2016-7-22T22:41:28Z</time></trkpt>
<trkpt lat="46.65466207819241" lon="7.163232435560691"><ele></ele><time>2016-7-22T22:41:31Z</time></trkpt>
<trkpt lat="46.6547308085519" lon="7.163360847844231"><ele></ele><time>2016-7-22T22:41:34Z</time></trkpt>
<trkpt lat="46.6548289595644" lon="7.163477526092603"><ele></ele><time>2016-7-22T22:41:37Z</time></trkpt>
<trkpt lat="46.65490188112323" lon="7.163583223500159"><ele></ele><time>2016-7-22T22:41:40Z</time></trkpt>
<trkpt lat="46.65492895370364" lon="7.163678777813569"><ele></ele><time>2016-7-22T22:41:43Z</time></trkpt>
<trkpt lat="46.654918475295155" lon="7.16377441513727"><ele></ele><time>2016-7-22T22:41:46Z</time></trkpt>
<trkpt lat="46.65490883385528" lon="7.163985638965105"><ele></ele><time>2016-7-22T22:41:49Z</time></trkpt>
<trkpt lat="46.654924338195976" lon="7.1641940973053595"><ele></ele><time>2016-7-22T22:41:52Z</time></trkpt>
<trkpt lat="46.65493229941114" lon="7.1643458937974565"><ele></ele><time>2016-7-22T22:41:55Z</time></trkpt>
<trkpt lat="46.65494252465911" lon="7.164411189066622"><ele></ele><time>2016-7-22T22:41:58Z</time></trkpt>
<trkpt lat="46.65494160226432" lon="7.164447482700464"><ele></ele><time>2016-7-22T22:42:1Z</time></trkpt>
<trkpt lat="46.65495165874719" lon="7.164619311993338"><ele></ele><time>2016-7-22T22:42:4Z</time></trkpt>
<trkpt lat="46.65493438983697" lon="7.164823662494017"><ele></ele><time>2016-7-22T22:42:7Z</time></trkpt>
<trkpt lat="46.654920641392515" lon="7.165022313374359"><ele></ele><time>2016-7-22T22:42:10Z</time></trkpt>
<trkpt lat="46.65491477280548" lon="7.165140079029777"><ele></ele><time>2016-7-22T22:42:13Z</time></trkpt>
<trkpt lat="46.654936060693906" lon="7.165346358198631"><ele></ele><time>2016-7-22T22:42:16Z</time></trkpt>
<trkpt lat="46.65495919364717" lon="7.165453982371478"><ele></ele><time>2016-7-22T22:42:19Z</time></trkpt>
<trkpt lat="46.65496556388283" lon="7.165455994165992"><ele></ele><time>2016-7-22T22:42:22Z</time></trkpt>
<trkpt lat="46.654976459800814" lon="7.1655103091523324"><ele></ele><time>2016-7-22T22:42:25Z</time></trkpt>
<trkpt lat="46.65498324889667" lon="7.165534616826248"><ele></ele><time>2016-7-22T22:42:28Z</time></trkpt>
<trkpt lat="46.654997078212794" lon="7.165614748146641"><ele></ele><time>2016-7-22T22:42:31Z</time></trkpt>
<trkpt lat="46.6549878571244" lon="7.165707451830455"><ele></ele><time>2016-7-22T22:42:34Z</time></trkpt>
<trkpt lat="46.65498400124771" lon="7.165725891941086"><ele></ele><time>2016-7-22T22:42:37Z</time></trkpt>
<trkpt lat="46.65499607093536" lon="7.165751708471662"><ele></ele><time>2016-7-22T22:42:40Z</time></trkpt>
<trkpt lat="46.655017947108945" lon="7.165811304294967"><ele></ele><time>2016-7-22T22:42:43Z</time></trkpt>
<trkpt lat="46.65504040957572" lon="7.165912642023506"><ele></ele><time>2016-7-22T22:42:46Z</time></trkpt>
<trkpt lat="46.65508089362993" lon="7.165969891313163"><ele></ele><time>2016-7-22T22:42:49Z</time></trkpt>
<trkpt lat="46.65509036500751" lon="7.165987744976947"><ele></ele><time>2016-7-22T22:42:52Z</time></trkpt>
<trkpt lat="46.65512187977126" lon="7.166105511436028"><ele></ele><time>2016-7-22T22:42:55Z</time></trkpt>
<trkpt lat="46.655129004275835" lon="7.166117330076893"><ele></ele><time>2016-7-22T22:42:58Z</time></trkpt>
<trkpt lat="46.6551621125691" lon="7.166143733793161"><ele></ele><time>2016-7-22T22:43:1Z</time></trkpt>
<trkpt lat="46.655177032187446" lon="7.166162090488417"><ele></ele><time>2016-7-22T22:43:4Z</time></trkpt>
<trkpt lat="46.65519999832661" lon="7.166191762929968"><ele></ele><time>2016-7-22T22:43:7Z</time></trkpt>
<trkpt lat="46.655241237289246" lon="7.166198301703456"><ele></ele><time>2016-7-22T22:43:10Z</time></trkpt>
<trkpt lat="46.65530175518169" lon="7.166155555283437"><ele></ele><time>2016-7-22T22:43:13Z</time></trkpt>
<trkpt lat="46.65532254321609" lon="7.1660722395835545"><ele></ele><time>2016-7-22T22:43:16Z</time></trkpt>
<trkpt lat="46.655347522464126" lon="7.165964784084224"><ele></ele><time>2016-7-22T22:43:19Z</time></trkpt>
<trkpt lat="46.65535297210951" lon="7.165832350084724"><ele></ele><time>2016-7-22T22:43:22Z</time></trkpt>
<trkpt lat="46.65536076770065" lon="7.165793709665176"><ele></ele><time>2016-7-22T22:43:25Z</time></trkpt>
<trkpt lat="46.655400414746566" lon="7.165738976670953"><ele></ele><time>2016-7-22T22:43:28Z</time></trkpt>
<trkpt lat="46.65547568537486" lon="7.165643089284043"><ele></ele><time>2016-7-22T22:43:31Z</time></trkpt>
<trkpt lat="46.65547702667382" lon="7.1656249005766455"><ele></ele><time>2016-7-22T22:43:34Z</time></trkpt>
<trkpt lat="46.655488091052334" lon="7.165601431477551"><ele></ele><time>2016-7-22T22:43:37Z</time></trkpt>
<trkpt lat="46.655504352486076" lon="7.165552732952889"><ele></ele><time>2016-7-22T22:43:40Z</time></trkpt>
<trkpt lat="46.655508711215816" lon="7.165540160187496"><ele></ele><time>2016-7-22T22:43:43Z</time></trkpt>
<trkpt lat="46.65554123412944" lon="7.165438404547083"><ele></ele><time>2016-7-22T22:43:46Z</time></trkpt>
<trkpt lat="46.65555464599942" lon="7.165362464766383"><ele></ele><time>2016-7-22T22:43:49Z</time></trkpt>
<trkpt lat="46.655561770849516" lon="7.165341593973491"><ele></ele><time>2016-7-22T22:43:52Z</time></trkpt>
<trkpt lat="46.655555149670235" lon="7.165290967118234"><ele></ele><time>2016-7-22T22:43:55Z</time></trkpt>
<trkpt lat="46.65556336498477" lon="7.165192982812749"><ele></ele><time>2016-7-22T22:43:58Z</time></trkpt>
<trkpt lat="46.65556705427069" lon="7.165075468568704"><ele></ele><time>2016-7-22T22:44:1Z</time></trkpt>
<trkpt lat="46.65555079377082" lon="7.165035821802988"><ele></ele><time>2016-7-22T22:44:4Z</time></trkpt>
<trkpt lat="46.65554350245307" lon="7.164945967612752"><ele></ele><time>2016-7-22T22:44:7Z</time></trkpt>
<trkpt lat="46.65558222795302" lon="7.164847313411412"><ele></ele><time>2016-7-22T22:44:10Z</time></trkpt>
<trkpt lat="46.65562455806301" lon="7.164712197996295"><ele></ele><time>2016-7-22T22:44:13Z</time></trkpt>
<trkpt lat="46.655665965688854" lon="7.164621841939955"><ele></ele><time>2016-7-22T22:44:16Z</time></trkpt>
<trkpt lat="46.655716006579425" lon="7.164541879633095"><ele></ele><time>2016-7-22T22:44:19Z</time></trkpt>
<trkpt lat="46.65576353288519" lon="7.16446283928188"><ele></ele><time>2016-7-22T22:44:22Z</time></trkpt>
<trkpt lat="46.655817513705195" lon="7.164342392453784"><ele></ele><time>2016-7-22T22:44:25Z</time></trkpt>
<trkpt lat="46.65586160377456" lon="7.164230327318986"><ele></ele><time>2016-7-22T22:44:28Z</time></trkpt>
<trkpt lat="46.65590736998443" lon="7.1641412286429995"><ele></ele><time>2016-7-22T22:44:31Z</time></trkpt>
<trkpt lat="46.65596009304543" lon="7.164065373528477"><ele></ele><time>2016-7-22T22:44:34Z</time></trkpt>
<trkpt lat="46.65602664583066" lon="7.164031009146744"><ele></ele><time>2016-7-22T22:44:37Z</time></trkpt>
<trkpt lat="46.656084481571185" lon="7.163982562975248"><ele></ele><time>2016-7-22T22:44:40Z</time></trkpt>
<trkpt lat="46.65609822799591" lon="7.163974935736765"><ele></ele><time>2016-7-22T22:44:43Z</time></trkpt>
<trkpt lat="46.65613251013258" lon="7.163965884016471"><ele></ele><time>2016-7-22T22:44:46Z</time></trkpt>
<trkpt lat="46.65613334840324" lon="7.16395842413816"><ele></ele><time>2016-7-22T22:44:49Z</time></trkpt>
<trkpt lat="46.65619990136335" lon="7.163907547401773"><ele></ele><time>2016-7-22T22:44:52Z</time></trkpt>
<trkpt lat="46.656298557174246" lon="7.163846445431492"><ele></ele><time>2016-7-22T22:44:55Z</time></trkpt>
<trkpt lat="46.6563663676545" lon="7.163773608128704"><ele></ele><time>2016-7-22T22:44:58Z</time></trkpt>
<trkpt lat="46.65643887268889" lon="7.163636481708254"><ele></ele><time>2016-7-22T22:45:1Z</time></trkpt>
<trkpt lat="46.65647273730825" lon="7.1634783158717585"><ele></ele><time>2016-7-22T22:45:4Z</time></trkpt>
<trkpt lat="46.65652361669072" lon="7.163370106561576"><ele></ele><time>2016-7-22T22:45:7Z</time></trkpt>
<trkpt lat="46.65659126019776" lon="7.1632344887802"><ele></ele><time>2016-7-22T22:45:10Z</time></trkpt>
<trkpt lat="46.65666703395603" lon="7.163118568653265"><ele></ele><time>2016-7-22T22:45:13Z</time></trkpt>
<trkpt lat="46.65673484495266" lon="7.162997032478019"><ele></ele><time>2016-7-22T22:45:16Z</time></trkpt>
<trkpt lat="46.65680525438373" lon="7.162871724501335"><ele></ele><time>2016-7-22T22:45:19Z</time></trkpt>
<trkpt lat="46.65688195029455" lon="7.162742477164599"><ele></ele><time>2016-7-22T22:45:22Z</time></trkpt>
<trkpt lat="46.65693651816359" lon="7.162592526043588"><ele></ele><time>2016-7-22T22:45:25Z</time></trkpt>
<trkpt lat="46.65696267177589" lon="7.162400832418854"><ele></ele><time>2016-7-22T22:45:28Z</time></trkpt>
<trkpt lat="46.657000978666595" lon="7.162256496824706"><ele></ele><time>2016-7-22T22:45:31Z</time></trkpt>
<trkpt lat="46.65701698848628" lon="7.162222718089009"><ele></ele><time>2016-7-22T22:45:34Z</time></trkpt>
<trkpt lat="46.657062670387795" lon="7.162179971353699"><ele></ele><time>2016-7-22T22:45:37Z</time></trkpt>
<trkpt lat="46.65709301335784" lon="7.16213940358328"><ele></ele><time>2016-7-22T22:45:40Z</time></trkpt>
<trkpt lat="46.65716124382556" lon="7.161982579594966"><ele></ele><time>2016-7-22T22:45:43Z</time></trkpt>
<trkpt lat="46.657195443598724" lon="7.161836232255486"><ele></ele><time>2016-7-22T22:45:46Z</time></trkpt>
<trkpt lat="46.65722830175445" lon="7.16173808084608"><ele></ele><time>2016-7-22T22:45:49Z</time></trkpt>
<trkpt lat="46.65722687700443" lon="7.161721484641695"><ele></ele><time>2016-7-22T22:45:52Z</time></trkpt>
<trkpt lat="46.657225369131005" lon="7.161639258112405"><ele></ele><time>2016-7-22T22:45:55Z</time></trkpt>
<trkpt lat="46.65720726470969" lon="7.161590223572492"><ele></ele><time>2016-7-22T22:45:58Z</time></trkpt>
<trkpt lat="46.65720148286727" lon="7.161431721607384"><ele></ele><time>2016-7-22T22:46:1Z</time></trkpt>
<trkpt lat="46.657165358186234" lon="7.161301382191509"><ele></ele><time>2016-7-22T22:46:4Z</time></trkpt>
<trkpt lat="46.657148008582936" lon="7.161210354319206"><ele></ele><time>2016-7-22T22:46:7Z</time></trkpt>
<trkpt lat="46.65715345736953" lon="7.161159392448898"><ele></ele><time>2016-7-22T22:46:10Z</time></trkpt>
<trkpt lat="46.65716200914833" lon="7.160949761166947"><ele></ele><time>2016-7-22T22:46:13Z</time></trkpt>
<trkpt lat="46.6571513663745" lon="7.160736609070369"><ele></ele><time>2016-7-22T22:46:16Z</time></trkpt>
<trkpt lat="46.6571180920752" lon="7.1605563973754744"><ele></ele><time>2016-7-22T22:46:19Z</time></trkpt>
<trkpt lat="46.657088337930574" lon="7.160399822731039"><ele></ele><time>2016-7-22T22:46:22Z</time></trkpt>
<trkpt lat="46.657083392659054" lon="7.160394206747343"><ele></ele><time>2016-7-22T22:46:25Z</time></trkpt>
<trkpt lat="46.65708573985289" lon="7.160369983089944"><ele></ele><time>2016-7-22T22:46:28Z</time></trkpt>
<trkpt lat="46.6570766038469" lon="7.160343244612911"><ele></ele><time>2016-7-22T22:46:31Z</time></trkpt>
<trkpt lat="46.65706755224451" lon="7.160261437015894"><ele></ele><time>2016-7-22T22:46:34Z</time></trkpt>
<trkpt lat="46.65708859183596" lon="7.16016915268607"><ele></ele><time>2016-7-22T22:46:37Z</time></trkpt>
<trkpt lat="46.65715170816864" lon="7.160122383013711"><ele></ele><time>2016-7-22T22:46:40Z</time></trkpt>
<trkpt lat="46.65721004662974" lon="7.160092460869123"><ele></ele><time>2016-7-22T22:46:43Z</time></trkpt>
<trkpt lat="46.65723292917021" lon="7.160101262364307"><ele></ele><time>2016-7-22T22:46:46Z</time></trkpt>
<trkpt lat="46.65726486430136" lon="7.160098748481979"><ele></ele><time>2016-7-22T22:46:49Z</time></trkpt>
<trkpt lat="46.65730375633838" lon="7.160104281379487"><ele></ele><time>2016-7-22T22:46:52Z</time></trkpt>
<trkpt lat="46.657364859912406" lon="7.160161028201369"><ele></ele><time>2016-7-22T22:46:55Z</time></trkpt>
<trkpt lat="46.65736997286144" lon="7.160162956150095"><ele></ele><time>2016-7-22T22:46:58Z</time></trkpt>
<trkpt lat="46.65743468116875" lon="7.160171758548158"><ele></ele><time>2016-7-22T22:47:1Z</time></trkpt>
<trkpt lat="46.65744281161687" lon="7.160172848371439"><ele></ele><time>2016-7-22T22:47:4Z</time></trkpt>
<trkpt lat="46.65749083959233" lon="7.160211489994239"><ele></ele><time>2016-7-22T22:47:7Z</time></trkpt>
<trkpt lat="46.65750534016765" lon="7.160224817537571"><ele></ele><time>2016-7-22T22:47:10Z</time></trkpt>
<trkpt lat="46.657544566909515" lon="7.160284246096822"><ele></ele><time>2016-7-22T22:47:13Z</time></trkpt>
<trkpt lat="46.657563928543205" lon="7.160340321464874"><ele></ele><time>2016-7-22T22:47:16Z</time></trkpt>
<trkpt lat="46.65757231020248" lon="7.160364629172747"><ele></ele><time>2016-7-22T22:47:19Z</time></trkpt>
<trkpt lat="46.65759318095843" lon="7.160385165292553"><ele></ele><time>2016-7-22T22:47:22Z</time></trkpt>
<trkpt lat="46.65762469613022" lon="7.160464039706743"><ele></ele><time>2016-7-22T22:47:25Z</time></trkpt>
<trkpt lat="46.657626036941714" lon="7.160491867663069"><ele></ele><time>2016-7-22T22:47:28Z</time></trkpt>
<trkpt lat="46.657649505893716" lon="7.160531095488917"><ele></ele><time>2016-7-22T22:47:31Z</time></trkpt>
<trkpt lat="46.65767398107775" lon="7.1605324371220895"><ele></ele><time>2016-7-22T22:47:34Z</time></trkpt>
<trkpt lat="46.657720165425616" lon="7.160533946861912"><ele></ele><time>2016-7-22T22:47:37Z</time></trkpt>
<trkpt lat="46.65775813570629" lon="7.160515507488599"><ele></ele><time>2016-7-22T22:47:40Z</time></trkpt>
<trkpt lat="46.657823012218735" lon="7.1604709171498735"><ele></ele><time>2016-7-22T22:47:43Z</time></trkpt>
<trkpt lat="46.657922506047676" lon="7.1604264951965355"><ele></ele><time>2016-7-22T22:47:46Z</time></trkpt>
<trkpt lat="46.65798185000661" lon="7.160427921401407"><ele></ele><time>2016-7-22T22:47:49Z</time></trkpt>
<trkpt lat="46.65801571298875" lon="7.160424485550934"><ele></ele><time>2016-7-22T22:47:52Z</time></trkpt>
<trkpt lat="46.6580424513928" lon="7.160416188041324"><ele></ele><time>2016-7-22T22:47:55Z</time></trkpt>
<trkpt lat="46.65805686822466" lon="7.160422390962785"><ele></ele><time>2016-7-22T22:47:58Z</time></trkpt>
<trkpt lat="46.65810263354623" lon="7.160417362807122"><ele></ele><time>2016-7-22T22:48:1Z</time></trkpt>
<trkpt lat="46.65816935351153" lon="7.160426416705458"><ele></ele><time>2016-7-22T22:48:4Z</time></trkpt>
<trkpt lat="46.658234732306106" lon="7.160441505546978"><ele></ele><time>2016-7-22T22:48:7Z</time></trkpt>
<trkpt lat="46.65832274222665" lon="7.160461372563216"><ele></ele><time>2016-7-22T22:48:10Z</time></trkpt>
<trkpt lat="46.65839499373904" lon="7.1605192930913795"><ele></ele><time>2016-7-22T22:48:13Z</time></trkpt>
<trkpt lat="46.658404129901704" lon="7.160531279413781"><ele></ele><time>2016-7-22T22:48:16Z</time></trkpt>
<trkpt lat="46.65842240237111" lon="7.160541673371274"><ele></ele><time>2016-7-22T22:48:19Z</time></trkpt>
<trkpt lat="46.65846079127303" lon="7.160567993383825"><ele></ele><time>2016-7-22T22:48:22Z</time></trkpt>
<trkpt lat="46.65846716145815" lon="7.1605747828649555"><ele></ele><time>2016-7-22T22:48:25Z</time></trkpt>
<trkpt lat="46.65847998566264" lon="7.160586936905046"><ele></ele><time>2016-7-22T22:48:28Z</time></trkpt>
<trkpt lat="46.65851770403523" lon="7.160610993788528"><ele></ele><time>2016-7-22T22:48:31Z</time></trkpt>
<trkpt lat="46.658530779809304" lon="7.160612586632812"><ele></ele><time>2016-7-22T22:48:34Z</time></trkpt>
<trkpt lat="46.658557769472715" lon="7.160622980778393"><ele></ele><time>2016-7-22T22:48:37Z</time></trkpt>
<trkpt lat="46.65856690565853" lon="7.160632787805265"><ele></ele><time>2016-7-22T22:48:40Z</time></trkpt>
<trkpt lat="46.65864225866645" lon="7.160673190217035"><ele></ele><time>2016-7-22T22:48:43Z</time></trkpt>
<trkpt lat="46.65871182846537" lon="7.16068400437676"><ele></ele><time>2016-7-22T22:48:46Z</time></trkpt>
<trkpt lat="46.65875683923682" lon="7.160695740016103"><ele></ele><time>2016-7-22T22:48:49Z</time></trkpt>
<trkpt lat="46.6588245645481" lon="7.160750475321835"><ele></ele><time>2016-7-22T22:48:52Z</time></trkpt>
<trkpt lat="46.65883495785086" lon="7.160776375634717"><ele></ele><time>2016-7-22T22:48:55Z</time></trkpt>
<trkpt lat="46.658848619814165" lon="7.16082934957351"><ele></ele><time>2016-7-22T22:48:58Z</time></trkpt>
<trkpt lat="46.65887158565238" lon="7.160887352856459"><ele></ele><time>2016-7-22T22:49:1Z</time></trkpt>
<trkpt lat="46.658881391089274" lon="7.161019954816052"><ele></ele><time>2016-7-22T22:49:4Z</time></trkpt>
<trkpt lat="46.658883402301385" lon="7.161062199664124"><ele></ele><time>2016-7-22T22:49:7Z</time></trkpt>
<trkpt lat="46.658903434060704" lon="7.161158675830772"><ele></ele><time>2016-7-22T22:49:10Z</time></trkpt>
<trkpt lat="46.6589315120181" lon="7.161296894061255"><ele></ele><time>2016-7-22T22:49:13Z</time></trkpt>
<trkpt lat="46.65894802287911" lon="7.161439889728366"><ele></ele><time>2016-7-22T22:49:16Z</time></trkpt>
<trkpt lat="46.65894978278315" lon="7.161468052969421"><ele></ele><time>2016-7-22T22:49:19Z</time></trkpt>
<trkpt lat="46.659000241569146" lon="7.1615016654995465"><ele></ele><time>2016-7-22T22:49:22Z</time></trkpt>
<trkpt lat="46.65901314954324" lon="7.161518513408363"><ele></ele><time>2016-7-22T22:49:25Z</time></trkpt>
<trkpt lat="46.65901675279027" lon="7.161610714448502"><ele></ele><time>2016-7-22T22:49:28Z</time></trkpt>
<trkpt lat="46.6590245474989" lon="7.16165547399291"><ele></ele><time>2016-7-22T22:49:31Z</time></trkpt>
<trkpt lat="46.658967633237154" lon="7.161753876338151"><ele></ele><time>2016-7-22T22:49:34Z</time></trkpt>
<trkpt lat="46.658918346287514" lon="7.161874239440929"><ele></ele><time>2016-7-22T22:49:37Z</time></trkpt>
<trkpt lat="46.65888037533592" lon="7.161955962202634"><ele></ele><time>2016-7-22T22:49:40Z</time></trkpt>
<trkpt lat="46.65885246213001" lon="7.162090072091881"><ele></ele><time>2016-7-22T22:49:43Z</time></trkpt>
<trkpt lat="46.65886503333981" lon="7.162247316913737"><ele></ele><time>2016-7-22T22:49:46Z</time></trkpt>
<trkpt lat="46.65883577875929" lon="7.162406740129423"><ele></ele><time>2016-7-22T22:49:49Z</time></trkpt>
<trkpt lat="46.65878749782954" lon="7.162509249795439"><ele></ele><time>2016-7-22T22:49:52Z</time></trkpt>
<trkpt lat="46.65876578781311" lon="7.162589547984156"><ele></ele><time>2016-7-22T22:49:55Z</time></trkpt>
<trkpt lat="46.65874793363581" lon="7.16265501028292"><ele></ele><time>2016-7-22T22:49:58Z</time></trkpt>
<trkpt lat="46.65874256904004" lon="7.16267093578815"><ele></ele><time>2016-7-22T22:50:1Z</time></trkpt>
<trkpt lat="46.65872882109325" lon="7.162822228889933"><ele></ele><time>2016-7-22T22:50:4Z</time></trkpt>
<trkpt lat="46.65875798834671" lon="7.162993974766438"><ele></ele><time>2016-7-22T22:50:7Z</time></trkpt>
<trkpt lat="46.658770726976805" lon="7.163171922899076"><ele></ele><time>2016-7-22T22:50:10Z</time></trkpt>
<trkpt lat="46.65877575435325" lon="7.163339477302454"><ele></ele><time>2016-7-22T22:50:13Z</time></trkpt>
<trkpt lat="46.65882218824182" lon="7.163522120027985"><ele></ele><time>2016-7-22T22:50:16Z</time></trkpt>
<trkpt lat="46.65891816030977" lon="7.163605773514011"><ele></ele><time>2016-7-22T22:50:19Z</time></trkpt>
<trkpt lat="46.65896493108913" lon="7.163635949381864"><ele></ele><time>2016-7-22T22:50:22Z</time></trkpt>
<trkpt lat="46.65902444235357" lon="7.1636688915529545"><ele></ele><time>2016-7-22T22:50:25Z</time></trkpt>
<trkpt lat="46.659137262827066" lon="7.163681550660431"><ele></ele><time>2016-7-22T22:50:28Z</time></trkpt>
<trkpt lat="46.65926005801568" lon="7.163672165570846"><ele></ele><time>2016-7-22T22:50:31Z</time></trkpt>
<trkpt lat="46.65940489670592" lon="7.163751712974818"><ele></ele><time>2016-7-22T22:50:34Z</time></trkpt>
<trkpt lat="46.659524505214016" lon="7.163889011164823"><ele></ele><time>2016-7-22T22:50:37Z</time></trkpt>
<trkpt lat="46.65961913582584" lon="7.164005773147782"><ele></ele><time>2016-7-22T22:50:40Z</time></trkpt>
<trkpt lat="46.659641515320914" lon="7.164026979850862"><ele></ele><time>2016-7-22T22:50:43Z</time></trkpt>
<trkpt lat="46.65968711241234" lon="7.164077942818739"><ele></ele><time>2016-7-22T22:50:46Z</time></trkpt>
<trkpt lat="46.659700691016525" lon="7.164087582302552"><ele></ele><time>2016-7-22T22:50:49Z</time></trkpt>
<trkpt lat="46.65982197714056" lon="7.164108455858994"><ele></ele><time>2016-7-22T22:50:52Z</time></trkpt>
<trkpt lat="46.65986195855052" lon="7.164140224142004"><ele></ele><time>2016-7-22T22:50:55Z</time></trkpt>
<trkpt lat="46.65991208174894" lon="7.1642033409701815"><ele></ele><time>2016-7-22T22:50:58Z</time></trkpt>
<trkpt lat="46.65998818869283" lon="7.164285233826146"><ele></ele><time>2016-7-22T22:51:1Z</time></trkpt>
<trkpt lat="46.65999346795488" lon="7.1644124712662425"><ele></ele><time>2016-7-22T22:51:4Z</time></trkpt>
<trkpt lat="46.65998969426844" lon="7.164584886982433"><ele></ele><time>2016-7-22T22:51:7Z</time></trkpt>
<trkpt lat="46.65999254354861" lon="7.164638950334642"><ele></ele><time>2016-7-22T22:51:10Z</time></trkpt>
<trkpt lat="46.66002581950905" lon="7.164662755662672"><ele></ele><time>2016-7-22T22:51:13Z</time></trkpt>
<trkpt lat="46.6600957248396" lon="7.164649597575593"><ele></ele><time>2016-7-22T22:51:16Z</time></trkpt>
<trkpt lat="46.660097065996034" lon="7.164644903737351"><ele></ele><time>2016-7-22T22:51:19Z</time></trkpt>
<trkpt lat="46.66010963906275" lon="7.164626882911045"><ele></ele><time>2016-7-22T22:51:22Z</time></trkpt>
<trkpt lat="46.660132102783194" lon="7.164609700488198"><ele></ele><time>2016-7-22T22:51:25Z</time></trkpt>
<trkpt lat="46.660209299857236" lon="7.164646163438925"><ele></ele><time>2016-7-22T22:51:28Z</time></trkpt>
<trkpt lat="46.66025405901897" lon="7.164672399766642"><ele></ele><time>2016-7-22T22:51:31Z</time></trkpt>
<trkpt lat="46.66030963122739" lon="7.164663348504803"><ele></ele><time>2016-7-22T22:51:34Z</time></trkpt>
<trkpt lat="46.660371992807605" lon="7.164652537188949"><ele></ele><time>2016-7-22T22:51:37Z</time></trkpt>
<trkpt lat="46.6604444963254" lon="7.164658992816765"><ele></ele><time>2016-7-22T22:51:40Z</time></trkpt>
<trkpt lat="46.66046486437154" lon="7.164660250540995"><ele></ele><time>2016-7-22T22:51:43Z</time></trkpt>
<trkpt lat="46.66047986784602" lon="7.164675170655729"><ele></ele><time>2016-7-22T22:51:46Z</time></trkpt>
<trkpt lat="46.66053929543615" lon="7.164694534136534"><ele></ele><time>2016-7-22T22:51:49Z</time></trkpt>
<trkpt lat="46.6605563944556" lon="7.16470325168628"><ele></ele><time>2016-7-22T22:51:52Z</time></trkpt>
<trkpt lat="46.66063568699784" lon="7.164740804329501"><ele></ele><time>2016-7-22T22:51:55Z</time></trkpt>
<trkpt lat="46.66064465562918" lon="7.164742732360795"><ele></ele><time>2016-7-22T22:51:58Z</time></trkpt>
<trkpt lat="46.660720176691534" lon="7.164744075091099"><ele></ele><time>2016-7-22T22:52:1Z</time></trkpt>
<trkpt lat="46.66074465184717" lon="7.164748182751556"><ele></ele><time>2016-7-22T22:52:4Z</time></trkpt>
<trkpt lat="46.66082712974159" lon="7.1647646130614175"><ele></ele><time>2016-7-22T22:52:7Z</time></trkpt>
<trkpt lat="46.66088672500486" lon="7.164780707602535"><ele></ele><time>2016-7-22T22:52:10Z</time></trkpt>
<trkpt lat="46.66097750124413" lon="7.164773836393788"><ele></ele><time>2016-7-22T22:52:13Z</time></trkpt>
<trkpt lat="46.66101496837375" lon="7.164777776695729"><ele></ele><time>2016-7-22T22:52:16Z</time></trkpt>
<trkpt lat="46.66109426090222" lon="7.164816670443494"><ele></ele><time>2016-7-22T22:52:19Z</time></trkpt>
<trkpt lat="46.66114673145422" lon="7.1648404761841675"><ele></ele><time>2016-7-22T22:52:22Z</time></trkpt>
<trkpt lat="46.661234321955334" lon="7.16489127241606"><ele></ele><time>2016-7-22T22:52:25Z</time></trkpt>
<trkpt lat="46.6613097588959" lon="7.164921281260877"><ele></ele><time>2016-7-22T22:52:28Z</time></trkpt>
<trkpt lat="46.66131068076502" lon="7.164934692329366"><ele></ele><time>2016-7-22T22:52:31Z</time></trkpt>
<trkpt lat="46.66134621975954" lon="7.164966460515641"><ele></ele><time>2016-7-22T22:52:34Z</time></trkpt>
<trkpt lat="46.66144680212676" lon="7.165027315313275"><ele></ele><time>2016-7-22T22:52:37Z</time></trkpt>
<trkpt lat="46.661512683664654" lon="7.165058916514265"><ele></ele><time>2016-7-22T22:52:40Z</time></trkpt>
<trkpt lat="46.661563729581594" lon="7.165055229574329"><ele></ele><time>2016-7-22T22:52:43Z</time></trkpt>
<trkpt lat="46.661621480545236" lon="7.165097643258207"><ele></ele><time>2016-7-22T22:52:46Z</time></trkpt>
<trkpt lat="46.66163053297369" lon="7.165101666767575"><ele></ele><time>2016-7-22T22:52:49Z</time></trkpt>
<trkpt lat="46.661653666971375" lon="7.165110635904109"><ele></ele><time>2016-7-22T22:52:52Z</time></trkpt>
<trkpt lat="46.66167219076465" lon="7.165133770361499"><ele></ele><time>2016-7-22T22:52:55Z</time></trkpt>
<trkpt lat="46.66170395808606" lon="7.1651476011888935"><ele></ele><time>2016-7-22T22:52:58Z</time></trkpt>
<trkpt lat="46.661725248209855" lon="7.1651425725037825"><ele></ele><time>2016-7-22T22:53:1Z</time></trkpt>
<trkpt lat="46.661791213643376" lon="7.165166965267742"><ele></ele><time>2016-7-22T22:53:4Z</time></trkpt>
<trkpt lat="46.66184686973029" lon="7.165152381949998"><ele></ele><time>2016-7-22T22:53:7Z</time></trkpt>
<trkpt lat="46.6618543297043" lon="7.165146011862455"><ele></ele><time>2016-7-22T22:53:10Z</time></trkpt>
<trkpt lat="46.66191166193289" lon="7.165154311182369"><ele></ele><time>2016-7-22T22:53:13Z</time></trkpt>
<trkpt lat="46.661986512581066" lon="7.1651425781254865"><ele></ele><time>2016-7-22T22:53:16Z</time></trkpt>
<trkpt lat="46.66200084568497" lon="7.165140231500406"><ele></ele><time>2016-7-22T22:53:19Z</time></trkpt>
<trkpt lat="46.66202615900168" lon="7.165147272845549"><ele></ele><time>2016-7-22T22:53:22Z</time></trkpt>
<trkpt lat="46.662093130406404" lon="7.165158338401601"><ele></ele><time>2016-7-22T22:53:25Z</time></trkpt>
<trkpt lat="46.66217921302724" lon="7.16512741102329"><ele></ele><time>2016-7-22T22:53:28Z</time></trkpt>
<trkpt lat="46.662199078252605" lon="7.165119783916918"><ele></ele><time>2016-7-22T22:53:31Z</time></trkpt>
<trkpt lat="46.662236712850074" lon="7.165139901299434"><ele></ele><time>2016-7-22T22:53:34Z</time></trkpt>
<trkpt lat="46.662276861995366" lon="7.165162617126678"><ele></ele><time>2016-7-22T22:53:37Z</time></trkpt>
<trkpt lat="46.66242840603306" lon="7.165260353402941"><ele></ele><time>2016-7-22T22:53:40Z</time></trkpt>
<trkpt lat="46.662529324504845" lon="7.165243005030383"><ele></ele><time>2016-7-22T22:53:43Z</time></trkpt>
<trkpt lat="46.662644073160365" lon="7.165223812936296"><ele></ele><time>2016-7-22T22:53:46Z</time></trkpt>
<trkpt lat="46.662761084610416" lon="7.165235214845061"><ele></ele><time>2016-7-22T22:53:49Z</time></trkpt>
<trkpt lat="46.66289888233671" lon="7.165329849519825"><ele></ele><time>2016-7-22T22:53:52Z</time></trkpt>
<trkpt lat="46.66295042965196" lon="7.165469744626817"><ele></ele><time>2016-7-22T22:53:55Z</time></trkpt>
<trkpt lat="46.66299594107884" lon="7.16569555413212"><ele></ele><time>2016-7-22T22:53:58Z</time></trkpt>
<trkpt lat="46.66301622339793" lon="7.165877441911288"><ele></ele><time>2016-7-22T22:54:1Z</time></trkpt>
<trkpt lat="46.66300314585399" lon="7.166043319534036"><ele></ele><time>2016-7-22T22:54:4Z</time></trkpt>
<trkpt lat="46.66302191948507" lon="7.166219842861328"><ele></ele><time>2016-7-22T22:54:7Z</time></trkpt>
<trkpt lat="46.66305863036362" lon="7.166401730993499"><ele></ele><time>2016-7-22T22:54:10Z</time></trkpt>
<trkpt lat="46.663124176025306" lon="7.166490245321518"><ele></ele><time>2016-7-22T22:54:13Z</time></trkpt>
<trkpt lat="46.66318989024947" lon="7.166491252562881"><ele></ele><time>2016-7-22T22:54:16Z</time></trkpt>
<trkpt lat="46.66318393929768" lon="7.16647138731966"><ele></ele><time>2016-7-22T22:54:19Z</time></trkpt>
<trkpt lat="46.663104730118754" lon="7.166476750036103"><ele></ele><time>2016-7-22T22:54:22Z</time></trkpt>
<trkpt lat="46.66303407199628" lon="7.166340039643225"><ele></ele><time>2016-7-22T22:54:25Z</time></trkpt>
<trkpt lat="46.66301093914723" lon="7.166222273377733"><ele></ele><time>2016-7-22T22:54:28Z</time></trkpt>
<trkpt lat="46.66300700049228" lon="7.16614214227929"><ele></ele><time>2016-7-22T22:54:31Z</time></trkpt>
<trkpt lat="46.66298965064423" lon="7.166073829378778"><ele></ele><time>2016-7-22T22:54:34Z</time></trkpt>
<trkpt lat="46.66293776651976" lon="7.166078941225231"><ele></ele><time>2016-7-22T22:54:37Z</time></trkpt>
<trkpt lat="46.66286853049061" lon="7.166210451829294"><ele></ele><time>2016-7-22T22:54:40Z</time></trkpt>
<trkpt lat="46.662867018691514" lon="7.166499627526936"><ele></ele><time>2016-7-22T22:54:43Z</time></trkpt>
<trkpt lat="46.66291144109044" lon="7.166666763671953"><ele></ele><time>2016-7-22T22:54:46Z</time></trkpt>
<trkpt lat="46.66296240124737" lon="7.1668469757294115"><ele></ele><time>2016-7-22T22:54:49Z</time></trkpt>
<trkpt lat="46.662988970872625" lon="7.1669468047914995"><ele></ele><time>2016-7-22T22:54:52Z</time></trkpt>
<trkpt lat="46.663008415783864" lon="7.167054596510351"><ele></ele><time>2016-7-22T22:54:55Z</time></trkpt>
<trkpt lat="46.66303557085909" lon="7.167276130848425"><ele></ele><time>2016-7-22T22:54:58Z</time></trkpt>
<trkpt lat="46.66310849056509" lon="7.1675583511631435"><ele></ele><time>2016-7-22T22:55:1Z</time></trkpt>
<trkpt lat="46.663161295831245" lon="7.167635633463397"><ele></ele><time>2016-7-22T22:55:4Z</time></trkpt>
<trkpt lat="46.663404284338355" lon="7.167947277917089"><ele></ele><time>2016-7-22T22:55:7Z</time></trkpt>
<trkpt lat="46.6634346234127" lon="7.168276100707974"><ele></ele><time>2016-7-22T22:55:10Z</time></trkpt>
<trkpt lat="46.6633736833146" lon="7.168613387263217"><ele></ele><time>2016-7-22T22:55:13Z</time></trkpt>
<trkpt lat="46.66334895539998" lon="7.168732661242889"><ele></ele><time>2016-7-22T22:55:16Z</time></trkpt>
<trkpt lat="46.66333336373426" lon="7.168855874914182"><ele></ele><time>2016-7-22T22:55:19Z</time></trkpt>
<trkpt lat="46.6632830698163" lon="7.169084699845939"><ele></ele><time>2016-7-22T22:55:22Z</time></trkpt>
<trkpt lat="46.66324509874508" lon="7.169178073454739"><ele></ele><time>2016-7-22T22:55:25Z</time></trkpt>
<trkpt lat="46.66312020654083" lon="7.169332800744469"><ele></ele><time>2016-7-22T22:55:28Z</time></trkpt>
<trkpt lat="46.66302121570953" lon="7.1693691760889555"><ele></ele><time>2016-7-22T22:55:31Z</time></trkpt>
<trkpt lat="46.662940162318165" lon="7.1693926436843896"><ele></ele><time>2016-7-22T22:55:34Z</time></trkpt>
<trkpt lat="46.662892133354944" lon="7.169447208856844"><ele></ele><time>2016-7-22T22:55:37Z</time></trkpt>
<trkpt lat="46.66282507745187" lon="7.16950051633536"><ele></ele><time>2016-7-22T22:55:40Z</time></trkpt>
<trkpt lat="46.66272650531679" lon="7.1695748617199735"><ele></ele><time>2016-7-22T22:55:43Z</time></trkpt>
<trkpt lat="46.66264687629459" lon="7.16965121916845"><ele></ele><time>2016-7-22T22:55:46Z</time></trkpt>
<trkpt lat="46.662577557137155" lon="7.169717518551955"><ele></ele><time>2016-7-22T22:55:49Z</time></trkpt>
<trkpt lat="46.6625037116701" lon="7.169790858638925"><ele></ele><time>2016-7-22T22:55:52Z</time></trkpt>
<trkpt lat="46.66246565744793" lon="7.169820865043505"><ele></ele><time>2016-7-22T22:55:55Z</time></trkpt>
<trkpt lat="46.662451910702195" lon="7.169858918598583"><ele></ele><time>2016-7-22T22:55:58Z</time></trkpt>
<trkpt lat="46.66242198688454" lon="7.169894205777944"><ele></ele><time>2016-7-22T22:56:1Z</time></trkpt>
<trkpt lat="46.66237680765991" lon="7.169959583670094"><ele></ele><time>2016-7-22T22:56:4Z</time></trkpt>
<trkpt lat="46.66239943743233" lon="7.170093024087573"><ele></ele><time>2016-7-22T22:56:7Z</time></trkpt>
<trkpt lat="46.662463977045526" lon="7.170202493154629"><ele></ele><time>2016-7-22T22:56:10Z</time></trkpt>
<trkpt lat="46.66254343706623" lon="7.170255552318998"><ele></ele><time>2016-7-22T22:56:13Z</time></trkpt>
<trkpt lat="46.66261099451598" lon="7.17033216438178"><ele></ele><time>2016-7-22T22:56:16Z</time></trkpt>
<trkpt lat="46.66271777898755" lon="7.170442304906524"><ele></ele><time>2016-7-22T22:56:19Z</time></trkpt>
<trkpt lat="46.662753150095135" lon="7.1704978776966914"><ele></ele><time>2016-7-22T22:56:22Z</time></trkpt>
<trkpt lat="46.66275281459431" lon="7.170519167728808"><ele></ele><time>2016-7-22T22:56:25Z</time></trkpt>
<trkpt lat="46.6627720086361" lon="7.17057138740998"><ele></ele><time>2016-7-22T22:56:28Z</time></trkpt>
<trkpt lat="46.662797572884195" lon="7.17062846873273"><ele></ele><time>2016-7-22T22:56:31Z</time></trkpt>
<trkpt lat="46.662863790099166" lon="7.170622267542503"><ele></ele><time>2016-7-22T22:56:34Z</time></trkpt>
<trkpt lat="46.662899078059084" lon="7.170614054031931"><ele></ele><time>2016-7-22T22:56:37Z</time></trkpt>
<trkpt lat="46.66293679683692" lon="7.170599973239829"><ele></ele><time>2016-7-22T22:56:40Z</time></trkpt>
<trkpt lat="46.66296747480388" lon="7.170585892296791"><ele></ele><time>2016-7-22T22:56:43Z</time></trkpt>
<trkpt lat="46.663022125198395" lon="7.170558233181293"><ele></ele><time>2016-7-22T22:56:46Z</time></trkpt>
<trkpt lat="46.66306286148871" lon="7.1705420569776415"><ele></ele><time>2016-7-22T22:56:49Z</time></trkpt>
<trkpt lat="46.66311801434749" lon="7.1705572294085504"><ele></ele><time>2016-7-22T22:56:52Z</time></trkpt>
<trkpt lat="46.66317065269455" lon="7.170566366813786"><ele></ele><time>2016-7-22T22:56:55Z</time></trkpt>
<trkpt lat="46.6632086231497" lon="7.170531415083248"><ele></ele><time>2016-7-22T22:56:58Z</time></trkpt>
<trkpt lat="46.663247850566954" lon="7.170527392609817"><ele></ele><time>2016-7-22T22:57:1Z</time></trkpt>
<trkpt lat="46.66331892926539" lon="7.170523957552671"><ele></ele><time>2016-7-22T22:57:4Z</time></trkpt>
<trkpt lat="46.6633779377412" lon="7.170545332676031"><ele></ele><time>2016-7-22T22:57:7Z</time></trkpt>
<trkpt lat="46.663458487673275" lon="7.170573581423434"><ele></ele><time>2016-7-22T22:57:10Z</time></trkpt>
<trkpt lat="46.663473910341025" lon="7.170579365268653"><ele></ele><time>2016-7-22T22:57:13Z</time></trkpt>
<trkpt lat="46.66352126827948" lon="7.170569559454983"><ele></ele><time>2016-7-22T22:57:16Z</time></trkpt>
<trkpt lat="46.66355588561828" lon="7.170567799997097"><ele></ele><time>2016-7-22T22:57:19Z</time></trkpt>
<trkpt lat="46.66364817050092" lon="7.170570819461547"><ele></ele><time>2016-7-22T22:57:22Z</time></trkpt>
<trkpt lat="46.66365596580707" lon="7.170559168780546"><ele></ele><time>2016-7-22T22:57:25Z</time></trkpt>
<trkpt lat="46.66370894014579" lon="7.170500412761391"><ele></ele><time>2016-7-22T22:57:28Z</time></trkpt>
<trkpt lat="46.66374447957148" lon="7.170491444884915"><ele></ele><time>2016-7-22T22:57:31Z</time></trkpt>
<trkpt lat="46.66374598815872" lon="7.170506448527427"><ele></ele><time>2016-7-22T22:57:34Z</time></trkpt>
<trkpt lat="46.663776415082275" lon="7.170453056444209"><ele></ele><time>2016-7-22T22:57:37Z</time></trkpt>
<trkpt lat="46.66380323802562" lon="7.170376446406589"><ele></ele><time>2016-7-22T22:57:40Z</time></trkpt>
<trkpt lat="46.66381279404544" lon="7.170316264532777"><ele></ele><time>2016-7-22T22:57:43Z</time></trkpt>
<trkpt lat="46.663822433438824" lon="7.170298411281594"><ele></ele><time>2016-7-22T22:57:46Z</time></trkpt>
<trkpt lat="46.663841796180705" lon="7.170249796647166"><ele></ele><time>2016-7-22T22:57:49Z</time></trkpt>
<trkpt lat="46.663874318328766" lon="7.170220628314826"><ele></ele><time>2016-7-22T22:57:52Z</time></trkpt>
<trkpt lat="46.66389409946939" lon="7.170238230739752"><ele></ele><time>2016-7-22T22:57:55Z</time></trkpt>
<trkpt lat="46.66395403069509" lon="7.17018944933731"><ele></ele><time>2016-7-22T22:57:58Z</time></trkpt>
<trkpt lat="46.66403206672383" lon="7.1701539117332675"><ele></ele><time>2016-7-22T22:58:1Z</time></trkpt>
<trkpt lat="46.66411462871288" lon="7.170144525770215"><ele></ele><time>2016-7-22T22:58:4Z</time></trkpt>
<trkpt lat="46.66419090410834" lon="7.170149891825279"><ele></ele><time>2016-7-22T22:58:7Z</time></trkpt>
<trkpt lat="46.66425603114188" lon="7.170194317318829"><ele></ele><time>2016-7-22T22:58:10Z</time></trkpt>
<trkpt lat="46.664318056795324" lon="7.170245448269831"><ele></ele><time>2016-7-22T22:58:13Z</time></trkpt>
<trkpt lat="46.66435937933685" lon="7.170275204918909"><ele></ele><time>2016-7-22T22:58:16Z</time></trkpt>
<trkpt lat="46.66437471824116" lon="7.170275708162145"><ele></ele><time>2016-7-22T22:58:19Z</time></trkpt>
<trkpt lat="46.6644405165484" lon="7.170251737324741"><ele></ele><time>2016-7-22T22:58:22Z</time></trkpt>
<trkpt lat="46.66448510852066" lon="7.170235645023346"><ele></ele><time>2016-7-22T22:58:25Z</time></trkpt>
<trkpt lat="46.6645353165579" lon="7.170202453756147"><ele></ele><time>2016-7-22T22:58:28Z</time></trkpt>
<trkpt lat="46.664609832438416" lon="7.170142524733297"><ele></ele><time>2016-7-22T22:58:31Z</time></trkpt>
<trkpt lat="46.66466548854672" lon="7.170126013574045"><ele></ele><time>2016-7-22T22:58:34Z</time></trkpt>
<trkpt lat="46.6646846829903" lon="7.1701400955861185"><ele></ele><time>2016-7-22T22:58:37Z</time></trkpt>
<trkpt lat="46.66471837817382" lon="7.170152082432919"><ele></ele><time>2016-7-22T22:58:40Z</time></trkpt>
<trkpt lat="46.6647714352831" lon="7.170192987267189"><ele></ele><time>2016-7-22T22:58:43Z</time></trkpt>
<trkpt lat="46.664835556514284" lon="7.170234814348218"><ele></ele><time>2016-7-22T22:58:46Z</time></trkpt>
<trkpt lat="46.6648721855006" lon="7.170234312219433"><ele></ele><time>2016-7-22T22:58:49Z</time></trkpt>
<trkpt lat="46.66491426270355" lon="7.170236660055175"><ele></ele><time>2016-7-22T22:58:52Z</time></trkpt>
<trkpt lat="46.664920046258636" lon="7.170233642693412"><ele></ele><time>2016-7-22T22:58:55Z</time></trkpt>
<trkpt lat="46.66496807459416" lon="7.170238756685421"><ele></ele><time>2016-7-22T22:58:58Z</time></trkpt>
<trkpt lat="46.66498953213534" lon="7.17025476658408"><ele></ele><time>2016-7-22T22:59:1Z</time></trkpt>
<trkpt lat="46.66500889438062" lon="7.170253342075455"><ele></ele><time>2016-7-22T22:59:4Z</time></trkpt>
<trkpt lat="46.66508114632205" lon="7.170271448539605"><ele></ele><time>2016-7-22T22:59:7Z</time></trkpt>
<trkpt lat="46.66511576381761" lon="7.170254853110147"><ele></ele><time>2016-7-22T22:59:10Z</time></trkpt>
<trkpt lat="46.66515004576112" lon="7.170264409216966"><ele></ele><time>2016-7-22T22:59:13Z</time></trkpt>
<trkpt lat="46.66518005299449" lon="7.170267511165296"><ele></ele><time>2016-7-22T22:59:16Z</time></trkpt>
<trkpt lat="46.665198996225094" lon="7.1702583752951305"><ele></ele><time>2016-7-22T22:59:19Z</time></trkpt>
<trkpt lat="46.66525012594805" lon="7.170256113277266"><ele></ele><time>2016-7-22T22:59:22Z</time></trkpt>
<trkpt lat="46.66527795378833" lon="7.170268183817141"><ele></ele><time>2016-7-22T22:59:25Z</time></trkpt>
<trkpt lat="46.66528977239141" lon="7.170258796337058"><ele></ele><time>2016-7-22T22:59:28Z</time></trkpt>
<trkpt lat="46.6653590072609" lon="7.170237172507074"><ele></ele><time>2016-7-22T22:59:31Z</time></trkpt>
<trkpt lat="46.665447855680675" lon="7.170228624869422"><ele></ele><time>2016-7-22T22:59:34Z</time></trkpt>
<trkpt lat="46.66554139819165" lon="7.170199457846394"><ele></ele><time>2016-7-22T22:59:37Z</time></trkpt>
<trkpt lat="46.665611638787354" lon="7.1701877246858965"><ele></ele><time>2016-7-22T22:59:40Z</time></trkpt>
<trkpt lat="46.66568699257983" lon="7.170154450139516"><ele></ele><time>2016-7-22T22:59:43Z</time></trkpt>
<trkpt lat="46.665768883690326" lon="7.170176077210375"><ele></ele><time>2016-7-22T22:59:46Z</time></trkpt>
<trkpt lat="46.665842057462356" lon="7.1702113665991725"><ele></ele><time>2016-7-22T22:59:49Z</time></trkpt>
<trkpt lat="46.66595730876879" lon="7.170217571680404"><ele></ele><time>2016-7-22T22:59:52Z</time></trkpt>
<trkpt lat="46.66600299000983" lon="7.1702376892317075"><ele></ele><time>2016-7-22T22:59:55Z</time></trkpt>
<trkpt lat="46.666020508064804" lon="7.1702522741218235"><ele></ele><time>2016-7-22T22:59:58Z</time></trkpt>
<trkpt lat="46.66611480448654" lon="7.170267028296531"><ele></ele><time>2016-7-22T23:0:1Z</time></trkpt>
<trkpt lat="46.66621044212994" lon="7.170270886023687"><ele></ele><time>2016-7-22T23:0:4Z</time></trkpt>
<trkpt lat="46.666283364425404" lon="7.170308019425838"><ele></ele><time>2016-7-22T23:0:7Z</time></trkpt>
<trkpt lat="46.666337092321996" lon="7.170326796044776"><ele></ele><time>2016-7-22T23:0:10Z</time></trkpt>
<trkpt lat="46.666377744607445" lon="7.170328389478438"><ele></ele><time>2016-7-22T23:0:13Z</time></trkpt>
<trkpt lat="46.66645008056763" lon="7.1703276366581825"><ele></ele><time>2016-7-22T23:0:16Z</time></trkpt>
<trkpt lat="46.66646047409654" lon="7.1703323307477485"><ele></ele><time>2016-7-22T23:0:19Z</time></trkpt>
<trkpt lat="46.66655301041826" lon="7.170337361874966"><ele></ele><time>2016-7-22T23:0:22Z</time></trkpt>
<trkpt lat="46.66656474504965" lon="7.170342475088524"><ele></ele><time>2016-7-22T23:0:25Z</time></trkpt>
<trkpt lat="46.6666006191884" lon="7.1703871514102815"><ele></ele><time>2016-7-22T23:0:28Z</time></trkpt>
<trkpt lat="46.666608079037196" lon="7.170392683627402"><ele></ele><time>2016-7-22T23:0:31Z</time></trkpt>
<trkpt lat="46.66670782339034" lon="7.170437445137695"><ele></ele><time>2016-7-22T23:0:34Z</time></trkpt>
<trkpt lat="46.666827014026346" lon="7.170460078836279"><ele></ele><time>2016-7-22T23:0:37Z</time></trkpt>
<trkpt lat="46.666918879369724" lon="7.170505510729782"><ele></ele><time>2016-7-22T23:0:40Z</time></trkpt>
<trkpt lat="46.66703630960913" lon="7.170546584580846"><ele></ele><time>2016-7-22T23:0:43Z</time></trkpt>
<trkpt lat="46.66714845968407" lon="7.170545497337851"><ele></ele><time>2016-7-22T23:0:46Z</time></trkpt>
<trkpt lat="46.6672479526103" lon="7.170587408994602"><ele></ele><time>2016-7-22T23:0:49Z</time></trkpt>
<trkpt lat="46.667325652278834" lon="7.1706550526314"><ele></ele><time>2016-7-22T23:0:52Z</time></trkpt>
<trkpt lat="46.66740368686164" lon="7.170757145903489"><ele></ele><time>2016-7-22T23:0:55Z</time></trkpt>
<trkpt lat="46.66749814978266" lon="7.170880278108251"><ele></ele><time>2016-7-22T23:0:58Z</time></trkpt>
<trkpt lat="46.667595882338986" lon="7.170938115345447"><ele></ele><time>2016-7-22T23:1:1Z</time></trkpt>
<trkpt lat="46.66766788336203" lon="7.170905176003544"><ele></ele><time>2016-7-22T23:1:4Z</time></trkpt>
<trkpt lat="46.667725634964704" lon="7.170887407603658"><ele></ele><time>2016-7-22T23:1:7Z</time></trkpt>
<trkpt lat="46.66772580258631" lon="7.1708890001691366"><ele></ele><time>2016-7-22T23:1:10Z</time></trkpt>
<trkpt lat="46.66776486229998" lon="7.17089134793973"><ele></ele><time>2016-7-22T23:1:13Z</time></trkpt>
<trkpt lat="46.66777827368471" lon="7.170861341008611"><ele></ele><time>2016-7-22T23:1:16Z</time></trkpt>
<trkpt lat="46.66777651389027" lon="7.170822532752401"><ele></ele><time>2016-7-22T23:1:19Z</time></trkpt>
<trkpt lat="46.66779151748488" lon="7.170826221112075"><ele></ele><time>2016-7-22T23:1:22Z</time></trkpt>
<trkpt lat="46.66768406118896" lon="7.170836277094098"><ele></ele><time>2016-7-22T23:1:25Z</time></trkpt>
<trkpt lat="46.667704177967046" lon="7.1708196813541365"><ele></ele><time>2016-7-22T23:1:28Z</time></trkpt>
<trkpt lat="46.66766645951111" lon="7.170803000555297"><ele></ele><time>2016-7-22T23:1:31Z</time></trkpt>
<trkpt lat="46.66763879908525" lon="7.170812136238404"><ele></ele><time>2016-7-22T23:1:34Z</time></trkpt>
<trkpt lat="46.667648019279845" lon="7.1708040898075875"><ele></ele><time>2016-7-22T23:1:37Z</time></trkpt>
<trkpt lat="46.66767199128864" lon="7.1708304095020985"><ele></ele><time>2016-7-22T23:1:40Z</time></trkpt>
<trkpt lat="46.66771867828227" lon="7.170857986969221"><ele></ele><time>2016-7-22T23:1:43Z</time></trkpt>
<trkpt lat="46.66770258508066" lon="7.17085027527196"><ele></ele><time>2016-7-22T23:1:46Z</time></trkpt>
<trkpt lat="46.667666040941796" lon="7.170752960575541"><ele></ele><time>2016-7-22T23:1:49Z</time></trkpt>
<trkpt lat="46.66765103755275" lon="7.170729742378002"><ele></ele><time>2016-7-22T23:1:52Z</time></trkpt>
<trkpt lat="46.667663945401415" lon="7.170758744044829"><ele></ele><time>2016-7-22T23:1:55Z</time></trkpt>
<trkpt lat="46.66767702065472" lon="7.170809957762561"><ele></ele><time>2016-7-22T23:1:58Z</time></trkpt>
<trkpt lat="46.66768129497694" lon="7.170853292301241"><ele></ele><time>2016-7-22T23:2:1Z</time></trkpt>
<trkpt lat="46.66773074747701" lon="7.170930909798366"><ele></ele><time>2016-7-22T23:2:4Z</time></trkpt>
<trkpt lat="46.66773661448984" lon="7.170962258247503"><ele></ele><time>2016-7-22T23:2:7Z</time></trkpt>
<trkpt lat="46.66776377190095" lon="7.170962594105812"><ele></ele><time>2016-7-22T23:2:10Z</time></trkpt>
<trkpt lat="46.66776645387399" lon="7.170985476762971"><ele></ele><time>2016-7-22T23:2:13Z</time></trkpt>
<trkpt lat="46.667793946049464" lon="7.171034511494399"><ele></ele><time>2016-7-22T23:2:16Z</time></trkpt>
<trkpt lat="46.667804926248415" lon="7.171045324386733"><ele></ele><time>2016-7-22T23:2:19Z</time></trkpt>
<trkpt lat="46.66783417908177" lon="7.171051108527937"><ele></ele><time>2016-7-22T23:2:22Z</time></trkpt>
<trkpt lat="46.66785060762893" lon="7.171052282346715"><ele></ele><time>2016-7-22T23:2:25Z</time></trkpt>
<trkpt lat="46.667967199965304" lon="7.171066031169328"><ele></ele><time>2016-7-22T23:2:28Z</time></trkpt>
<trkpt lat="46.66802411315676" lon="7.171069133693899"><ele></ele><time>2016-7-22T23:2:31Z</time></trkpt>
<trkpt lat="46.66803651815835" lon="7.171091681283187"><ele></ele><time>2016-7-22T23:2:34Z</time></trkpt>
<trkpt lat="46.66805588001094" lon="7.171127640068941"><ele></ele><time>2016-7-22T23:2:37Z</time></trkpt>
<trkpt lat="46.66809770551083" lon="7.1711534572315605"><ele></ele><time>2016-7-22T23:2:40Z</time></trkpt>
<trkpt lat="46.668103907863944" lon="7.171178770716391"><ele></ele><time>2016-7-22T23:2:43Z</time></trkpt>
<trkpt lat="46.66810315319945" lon="7.171206514804449"><ele></ele><time>2016-7-22T23:2:46Z</time></trkpt>
<trkpt lat="46.6681080981952" lon="7.171238449966956"><ele></ele><time>2016-7-22T23:2:49Z</time></trkpt>
<trkpt lat="46.668131567442536" lon="7.171250185136374"><ele></ele><time>2016-7-22T23:2:52Z</time></trkpt>
<trkpt lat="46.66814489457423" lon="7.171261417174151"><ele></ele><time>2016-7-22T23:2:55Z</time></trkpt>
<trkpt lat="46.66815562296743" lon="7.171305338584151"><ele></ele><time>2016-7-22T23:2:58Z</time></trkpt>
<trkpt lat="46.66818755725295" lon="7.171383542438357"><ele></ele><time>2016-7-22T23:3:1Z</time></trkpt>
<trkpt lat="46.66818722184222" lon="7.171396282926147"><ele></ele><time>2016-7-22T23:3:4Z</time></trkpt>
<trkpt lat="46.66820566164865" lon="7.171435594453821"><ele></ele><time>2016-7-22T23:3:7Z</time></trkpt>
<trkpt lat="46.66822938226455" lon="7.171455795352178"><ele></ele><time>2016-7-22T23:3:10Z</time></trkpt>
<trkpt lat="46.66823583593863" lon="7.171494100794425"><ele></ele><time>2016-7-22T23:3:13Z</time></trkpt>
<trkpt lat="46.66825318629058" lon="7.1715148882895745"><ele></ele><time>2016-7-22T23:3:16Z</time></trkpt>
<trkpt lat="46.66830129815431" lon="7.171547830205482"><ele></ele><time>2016-7-22T23:3:19Z</time></trkpt>
<trkpt lat="46.66832426435441" lon="7.171572138220847"><ele></ele><time>2016-7-22T23:3:22Z</time></trkpt>
<trkpt lat="46.66837908128821" lon="7.171649252917427"><ele></ele><time>2016-7-22T23:3:25Z</time></trkpt>
<trkpt lat="46.668422415697556" lon="7.171659479769456"><ele></ele><time>2016-7-22T23:3:28Z</time></trkpt>
<trkpt lat="46.66846013418825" lon="7.1716728916248895"><ele></ele><time>2016-7-22T23:3:31Z</time></trkpt>
<trkpt lat="46.66846080436005" lon="7.171709185285989"><ele></ele><time>2016-7-22T23:3:34Z</time></trkpt>
<trkpt lat="46.6684832675896" lon="7.171738773890343"><ele></ele><time>2016-7-22T23:3:37Z</time></trkpt>
<trkpt lat="46.66851109524768" lon="7.17176827879056"><ele></ele><time>2016-7-22T23:3:40Z</time></trkpt>
<trkpt lat="46.66851746488678" lon="7.1718271198969825"><ele></ele><time>2016-7-22T23:3:43Z</time></trkpt>
<trkpt lat="46.66852525983625" lon="7.171849415930081"><ele></ele><time>2016-7-22T23:3:46Z</time></trkpt>
<trkpt lat="46.66851779960125" lon="7.171880596455198"><ele></ele><time>2016-7-22T23:3:49Z</time></trkpt>
<trkpt lat="46.668525678243" lon="7.1719149624326395"><ele></ele><time>2016-7-22T23:3:52Z</time></trkpt>
<trkpt lat="46.6685518292399" lon="7.171970870296183"><ele></ele><time>2016-7-22T23:3:55Z</time></trkpt>
<trkpt lat="46.66857462790576" lon="7.171985287660372"><ele></ele><time>2016-7-22T23:3:58Z</time></trkpt>
<trkpt lat="46.66859616919845" lon="7.172007835445026"><ele></ele><time>2016-7-22T23:4:1Z</time></trkpt>
<trkpt lat="46.66858577504185" lon="7.1720628205161905"><ele></ele><time>2016-7-22T23:4:4Z</time></trkpt>
<trkpt lat="46.66861259645573" lon="7.172131720346035"><ele></ele><time>2016-7-22T23:4:7Z</time></trkpt>
<trkpt lat="46.668623577165036" lon="7.172094002010793"><ele></ele><time>2016-7-22T23:4:10Z</time></trkpt>
<trkpt lat="46.66864947733981" lon="7.172089476337106"><ele></ele><time>2016-7-22T23:4:13Z</time></trkpt>
<trkpt lat="46.66867168959746" lon="7.172072880641898"><ele></ele><time>2016-7-22T23:4:16Z</time></trkpt>
<trkpt lat="46.66870756372709" lon="7.17211856279"><ele></ele><time>2016-7-22T23:4:19Z</time></trkpt>
<trkpt lat="46.668773780862274" lon="7.172120324408248"><ele></ele><time>2016-7-22T23:4:22Z</time></trkpt>
<trkpt lat="46.668804039670675" lon="7.172112362247066"><ele></ele><time>2016-7-22T23:4:25Z</time></trkpt>
<trkpt lat="46.66883563931987" lon="7.172129713466246"><ele></ele><time>2016-7-22T23:4:28Z</time></trkpt>
<trkpt lat="46.668876207186315" lon="7.172188471485778"><ele></ele><time>2016-7-22T23:4:31Z</time></trkpt>
<trkpt lat="46.668917362009104" lon="7.172226107118462"><ele></ele><time>2016-7-22T23:4:34Z</time></trkpt>
<trkpt lat="46.66896840767514" lon="7.1722466438777515"><ele></ele><time>2016-7-22T23:4:37Z</time></trkpt>
<trkpt lat="46.66899891740107" lon="7.17229006279647"><ele></ele><time>2016-7-22T23:4:40Z</time></trkpt>
<trkpt lat="46.66905608197757" lon="7.172300122306124"><ele></ele><time>2016-7-22T23:4:43Z</time></trkpt>
<trkpt lat="46.66907779097573" lon="7.172316299846713"><ele></ele><time>2016-7-22T23:4:46Z</time></trkpt>
<trkpt lat="46.66908558580551" lon="7.172349995269678"><ele></ele><time>2016-7-22T23:4:49Z</time></trkpt>
<trkpt lat="46.66911173719129" lon="7.172368938933859"><ele></ele><time>2016-7-22T23:4:52Z</time></trkpt>
<trkpt lat="46.669126908030734" lon="7.172410094409748"><ele></ele><time>2016-7-22T23:4:55Z</time></trkpt>
<trkpt lat="46.669150628184546" lon="7.172474300306011"><ele></ele><time>2016-7-22T23:4:58Z</time></trkpt>
<trkpt lat="46.66916051846576" lon="7.1725106779832295"><ele></ele><time>2016-7-22T23:5:1Z</time></trkpt>
<trkpt lat="46.66920226009439" lon="7.172541524285516"><ele></ele><time>2016-7-22T23:5:4Z</time></trkpt>
<trkpt lat="46.66921726337834" lon="7.172574800767527"><ele></ele><time>2016-7-22T23:5:7Z</time></trkpt>
<trkpt lat="46.669245509832415" lon="7.172632887970309"><ele></ele><time>2016-7-22T23:5:10Z</time></trkpt>
<trkpt lat="46.66925556778111" lon="7.172666499622573"><ele></ele><time>2016-7-22T23:5:13Z</time></trkpt>
<trkpt lat="46.66923939033103" lon="7.172699607798838"><ele></ele><time>2016-7-22T23:5:16Z</time></trkpt>
<trkpt lat="46.669273503972924" lon="7.1727724472790255"><ele></ele><time>2016-7-22T23:5:19Z</time></trkpt>
<trkpt lat="46.6692762699258" lon="7.172780074871304"><ele></ele><time>2016-7-22T23:5:22Z</time></trkpt>
<trkpt lat="46.669280879610966" lon="7.172815278968738"><ele></ele><time>2016-7-22T23:5:25Z</time></trkpt>
<trkpt lat="46.66927786158764" lon="7.172865989426125"><ele></ele><time>2016-7-22T23:5:28Z</time></trkpt>
<trkpt lat="46.66929311626055" lon="7.1729058037988915"><ele></ele><time>2016-7-22T23:5:31Z</time></trkpt>
<trkpt lat="46.66930694623103" lon="7.172924328103818"><ele></ele><time>2016-7-22T23:5:34Z</time></trkpt>
<trkpt lat="46.66934030598738" lon="7.172950815636049"><ele></ele><time>2016-7-22T23:5:37Z</time></trkpt>
<trkpt lat="46.6693593325887" lon="7.172984427480213"><ele></ele><time>2016-7-22T23:5:40Z</time></trkpt>
<trkpt lat="46.66936821692545" lon="7.17303170161151"><ele></ele><time>2016-7-22T23:5:43Z</time></trkpt>
<trkpt lat="46.66937919668719" lon="7.173084172568405"><ele></ele><time>2016-7-22T23:5:46Z</time></trkpt>
<trkpt lat="46.66937953139428" lon="7.1731384034973695"><ele></ele><time>2016-7-22T23:5:49Z</time></trkpt>
<trkpt lat="46.669384811579285" lon="7.173178720570793"><ele></ele><time>2016-7-22T23:5:52Z</time></trkpt>
<trkpt lat="46.669414902432514" lon="7.1732009332616435"><ele></ele><time>2016-7-22T23:5:55Z</time></trkpt>
<trkpt lat="46.66944373581666" lon="7.173240412648708"><ele></ele><time>2016-7-22T23:5:58Z</time></trkpt>
<trkpt lat="46.669458571614776" lon="7.173259188432193"><ele></ele><time>2016-7-22T23:6:1Z</time></trkpt>
<trkpt lat="46.669499810126155" lon="7.173309313103344"><ele></ele><time>2016-7-22T23:6:4Z</time></trkpt>
<trkpt lat="46.66951959139338" lon="7.17331501322172"><ele></ele><time>2016-7-22T23:6:7Z</time></trkpt>
<trkpt lat="46.66952713486103" lon="7.173339656182198"><ele></ele><time>2016-7-22T23:6:10Z</time></trkpt>
<trkpt lat="46.669543143904136" lon="7.1733797220280024"><ele></ele><time>2016-7-22T23:6:13Z</time></trkpt>
<trkpt lat="46.669562003079385" lon="7.173393133478696"><ele></ele><time>2016-7-22T23:6:16Z</time></trkpt>
<trkpt lat="46.66960072745199" lon="7.173401683849946"><ele></ele><time>2016-7-22T23:6:19Z</time></trkpt>
<trkpt lat="46.669631740319836" lon="7.173423561284188"><ele></ele><time>2016-7-22T23:6:22Z</time></trkpt>
<trkpt lat="46.669642552946" lon="7.173428171563013"><ele></ele><time>2016-7-22T23:6:25Z</time></trkpt>
<trkpt lat="46.66965294598597" lon="7.173479469040471"><ele></ele><time>2016-7-22T23:6:28Z</time></trkpt>
<trkpt lat="46.66967733678989" lon="7.173534538674438"><ele></ele><time>2016-7-22T23:6:31Z</time></trkpt>
<trkpt lat="46.669683538931515" lon="7.173580052548136"><ele></ele><time>2016-7-22T23:6:34Z</time></trkpt>
<trkpt lat="46.6696894895848" lon="7.173628500082982"><ele></ele><time>2016-7-22T23:6:37Z</time></trkpt>
<trkpt lat="46.66971421573505" lon="7.17367694801956"><ele></ele><time>2016-7-22T23:6:40Z</time></trkpt>
<trkpt lat="46.66973156591692" lon="7.173713996408291"><ele></ele><time>2016-7-22T23:6:43Z</time></trkpt>
<trkpt lat="46.66978579676625" lon="7.173729420272739"><ele></ele><time>2016-7-22T23:6:46Z</time></trkpt>
<trkpt lat="46.66983751284215" lon="7.1737637033682455"><ele></ele><time>2016-7-22T23:6:49Z</time></trkpt>
<trkpt lat="46.66986290989442" lon="7.173778958977629"><ele></ele><time>2016-7-22T23:6:52Z</time></trkpt>
<trkpt lat="46.66987917091709" lon="7.173769320135488"><ele></ele><time>2016-7-22T23:6:55Z</time></trkpt>
<trkpt lat="46.66991009989553" lon="7.173797903091199"><ele></ele><time>2016-7-22T23:6:58Z</time></trkpt>
<trkpt lat="46.669914877565205" lon="7.173800166307602"><ele></ele><time>2016-7-22T23:7:1Z</time></trkpt>
<trkpt lat="46.66995469154334" lon="7.173812907654092"><ele></ele><time>2016-7-22T23:7:4Z</time></trkpt>
<trkpt lat="46.66998469839817" lon="7.17385221942763"><ele></ele><time>2016-7-22T23:7:7Z</time></trkpt>
<trkpt lat="46.670000623168335" lon="7.173935535897844"><ele></ele><time>2016-7-22T23:7:10Z</time></trkpt>
<trkpt lat="46.67001914627871" lon="7.17402404920432"><ele></ele><time>2016-7-22T23:7:13Z</time></trkpt>
<trkpt lat="46.67002953917998" lon="7.174088590090327"><ele></ele><time>2016-7-22T23:7:16Z</time></trkpt>
<trkpt lat="46.67004378779362" lon="7.174150281211303"><ele></ele><time>2016-7-22T23:7:19Z</time></trkpt>
<trkpt lat="46.670069017191786" lon="7.174167045559702"><ele></ele><time>2016-7-22T23:7:22Z</time></trkpt>
<trkpt lat="46.67012844495741" lon="7.174170399592605"><ele></ele><time>2016-7-22T23:7:25Z</time></trkpt>
<trkpt lat="46.670166749671395" lon="7.174232594142276"><ele></ele><time>2016-7-22T23:7:28Z</time></trkpt>
<trkpt lat="46.67016498838753" lon="7.174335607709169"><ele></ele><time>2016-7-22T23:7:31Z</time></trkpt>
<trkpt lat="46.67013498042775" lon="7.1744015726547"><ele></ele><time>2016-7-22T23:7:34Z</time></trkpt>
<trkpt lat="46.670107319668126" lon="7.1744424757564325"><ele></ele><time>2016-7-22T23:7:37Z</time></trkpt>
<trkpt lat="46.67009977563119" lon="7.17447206371751"><ele></ele><time>2016-7-22T23:7:40Z</time></trkpt>
<trkpt lat="46.670068007553105" lon="7.1745299819973285"><ele></ele><time>2016-7-22T23:7:43Z</time></trkpt>
<trkpt lat="46.670030204646" lon="7.174573399453583"><ele></ele><time>2016-7-22T23:7:46Z</time></trkpt>
<trkpt lat="46.669999526256035" lon="7.174627629718878"><ele></ele><time>2016-7-22T23:7:49Z</time></trkpt>
<trkpt lat="46.66992953626307" lon="7.174720583541909"><ele></ele><time>2016-7-22T23:7:52Z</time></trkpt>
<trkpt lat="46.66992668623586" lon="7.1747372634707"><ele></ele><time>2016-7-22T23:7:55Z</time></trkpt>
<trkpt lat="46.6698719505351" lon="7.174906409131024"><ele></ele><time>2016-7-22T23:7:58Z</time></trkpt>
<trkpt lat="46.669783603080326" lon="7.1751005321482255"><ele></ele><time>2016-7-22T23:8:1Z</time></trkpt>
<trkpt lat="46.66971235559002" lon="7.175213518696692"><ele></ele><time>2016-7-22T23:8:4Z</time></trkpt>
<trkpt lat="46.6695763156159" lon="7.175350895202456"><ele></ele><time>2016-7-22T23:8:7Z</time></trkpt>
<trkpt lat="46.66944848976208" lon="7.1755035269503935"><ele></ele><time>2016-7-22T23:8:10Z</time></trkpt>
<trkpt lat="46.669379169531894" lon="7.175672001748492"><ele></ele><time>2016-7-22T23:8:13Z</time></trkpt>
<trkpt lat="46.6693121968831" lon="7.17577903723738"><ele></ele><time>2016-7-22T23:8:16Z</time></trkpt>
<trkpt lat="46.66929224749333" lon="7.1758195214096885"><ele></ele><time>2016-7-22T23:8:19Z</time></trkpt>
<trkpt lat="46.6692970247738" lon="7.17585891646274"><ele></ele><time>2016-7-22T23:8:22Z</time></trkpt>
<trkpt lat="46.669295432092504" lon="7.17587006436165"><ele></ele><time>2016-7-22T23:8:25Z</time></trkpt>
<trkpt lat="46.669329127019054" lon="7.175906777823093"><ele></ele><time>2016-7-22T23:8:28Z</time></trkpt>
<trkpt lat="46.669408000841685" lon="7.1759094617176515"><ele></ele><time>2016-7-22T23:8:31Z</time></trkpt>
<trkpt lat="46.66944680924618" lon="7.175897727880566"><ele></ele><time>2016-7-22T23:8:34Z</time></trkpt>
<trkpt lat="46.669549655759255" lon="7.17586185552692"><ele></ele><time>2016-7-22T23:8:37Z</time></trkpt>
<trkpt lat="46.66966624883542" lon="7.175805280163173"><ele></ele><time>2016-7-22T23:8:40Z</time></trkpt>
<trkpt lat="46.66977286754761" lon="7.175737389015544"><ele></ele><time>2016-7-22T23:8:43Z</time></trkpt>
<trkpt lat="46.6698854371917" lon="7.1756914585848"><ele></ele><time>2016-7-22T23:8:46Z</time></trkpt>
<trkpt lat="46.66999549210494" lon="7.175660364071216"><ele></ele><time>2016-7-22T23:8:49Z</time></trkpt>
<trkpt lat="46.670081071994325" lon="7.1756123375879035"><ele></ele><time>2016-7-22T23:8:52Z</time></trkpt>
<trkpt lat="46.670177967426085" lon="7.175568837574875"><ele></ele><time>2016-7-22T23:8:55Z</time></trkpt>
<trkpt lat="46.670278299373294" lon="7.175532126977931"><ele></ele><time>2016-7-22T23:8:58Z</time></trkpt>
<trkpt lat="46.67036924344466" lon="7.175507569941751"><ele></ele><time>2016-7-22T23:9:1Z</time></trkpt>
<trkpt lat="46.67044535113927" lon="7.17551939005334"><ele></ele><time>2016-7-22T23:9:4Z</time></trkpt>
<trkpt lat="46.67047804038705" lon="7.175541686617428"><ele></ele><time>2016-7-22T23:9:7Z</time></trkpt>
<trkpt lat="46.670508298829326" lon="7.1755686769959715"><ele></ele><time>2016-7-22T23:9:10Z</time></trkpt>
<trkpt lat="46.67054534636451" lon="7.175620561775386"><ele></ele><time>2016-7-22T23:9:13Z</time></trkpt>
<trkpt lat="46.670581807404446" lon="7.175649647762487"><ele></ele><time>2016-7-22T23:9:16Z</time></trkpt>
<trkpt lat="46.67063704396436" lon="7.175676554855646"><ele></ele><time>2016-7-22T23:9:19Z</time></trkpt>
<trkpt lat="46.67065221516541" lon="7.175683344522317"><ele></ele><time>2016-7-22T23:9:22Z</time></trkpt>
<trkpt lat="46.670691945182554" lon="7.1757096645507765"><ele></ele><time>2016-7-22T23:9:25Z</time></trkpt>
<trkpt lat="46.670724299227544" lon="7.175724920307933"><ele></ele><time>2016-7-22T23:9:28Z</time></trkpt>
<trkpt lat="46.67077526088795" lon="7.175763394337553"><ele></ele><time>2016-7-22T23:9:31Z</time></trkpt>
<trkpt lat="46.670818092149936" lon="7.175795917041354"><ele></ele><time>2016-7-22T23:9:34Z</time></trkpt>
<trkpt lat="46.67086729345908" lon="7.1758485564514825"><ele></ele><time>2016-7-22T23:9:37Z</time></trkpt>
<trkpt lat="46.67091657852684" lon="7.175906979377278"><ele></ele><time>2016-7-22T23:9:40Z</time></trkpt>
<trkpt lat="46.67097919059367" lon="7.175989374833904"><ele></ele><time>2016-7-22T23:9:43Z</time></trkpt>
<trkpt lat="46.67103216345619" lon="7.17607160244638"><ele></ele><time>2016-7-22T23:9:46Z</time></trkpt>
<trkpt lat="46.67107574895577" lon="7.176117033298539"><ele></ele><time>2016-7-22T23:9:49Z</time></trkpt>
<trkpt lat="46.67112117863554" lon="7.176147376762391"><ele></ele><time>2016-7-22T23:9:52Z</time></trkpt>
<trkpt lat="46.671151856319874" lon="7.176160453188343"><ele></ele><time>2016-7-22T23:9:55Z</time></trkpt>
<trkpt lat="46.671178007879824" lon="7.176162884499216"><ele></ele><time>2016-7-22T23:9:58Z</time></trkpt>
<trkpt lat="46.6712246951179" lon="7.176167411724819"><ele></ele><time>2016-7-22T23:10:1Z</time></trkpt>
<trkpt lat="46.67126224605266" lon="7.176173112221846"><ele></ele><time>2016-7-22T23:10:4Z</time></trkpt>
<trkpt lat="46.67131002271625" lon="7.176199013326482"><ele></ele><time>2016-7-22T23:10:7Z</time></trkpt>
<trkpt lat="46.671358553605835" lon="7.176238912227236"><ele></ele><time>2016-7-22T23:10:10Z</time></trkpt>
<trkpt lat="46.67138428586881" lon="7.1762605380897675"><ele></ele><time>2016-7-22T23:10:13Z</time></trkpt>
<trkpt lat="46.67141337034413" lon="7.1763351376585"><ele></ele><time>2016-7-22T23:10:16Z</time></trkpt>
<trkpt lat="46.67144924409531" lon="7.176417197266919"><ele></ele><time>2016-7-22T23:10:19Z</time></trkpt>
<trkpt lat="46.67149199093623" lon="7.176507219831042"><ele></ele><time>2016-7-22T23:10:22Z</time></trkpt>
<trkpt lat="46.67153197196806" lon="7.176575868480283"><ele></ele><time>2016-7-22T23:10:25Z</time></trkpt>
<trkpt lat="46.67157036071376" lon="7.176617946459154"><ele></ele><time>2016-7-22T23:10:28Z</time></trkpt>
<trkpt lat="46.67159282349664" lon="7.176690366591057"><ele></ele><time>2016-7-22T23:10:31Z</time></trkpt>
<trkpt lat="46.67163062513849" lon="7.176767732373912"><ele></ele><time>2016-7-22T23:10:34Z</time></trkpt>
<trkpt lat="46.67163607247166" lon="7.17685498811279"><ele></ele><time>2016-7-22T23:10:37Z</time></trkpt>
<trkpt lat="46.6716500695785" lon="7.176921540730872"><ele></ele><time>2016-7-22T23:10:40Z</time></trkpt>
<trkpt lat="46.6716838478444" lon="7.177004187027276"><ele></ele><time>2016-7-22T23:10:43Z</time></trkpt>
<trkpt lat="46.671705221333596" lon="7.177042660423767"><ele></ele><time>2016-7-22T23:10:46Z</time></trkpt>
<trkpt lat="46.67172701390555" lon="7.17708239111481"><ele></ele><time>2016-7-22T23:10:49Z</time></trkpt>
<trkpt lat="46.67177688571919" lon="7.177139808223062"><ele></ele><time>2016-7-22T23:10:52Z</time></trkpt>
<trkpt lat="46.671846874130146" lon="7.177197896312994"><ele></ele><time>2016-7-22T23:10:55Z</time></trkpt>
<trkpt lat="46.67190009852876" lon="7.177272747853272"><ele></ele><time>2016-7-22T23:10:58Z</time></trkpt>
<trkpt lat="46.67193555322344" lon="7.177351119413883"><ele></ele><time>2016-7-22T23:11:1Z</time></trkpt>
<trkpt lat="46.67198232326332" lon="7.177452876728491"><ele></ele><time>2016-7-22T23:11:4Z</time></trkpt>
<trkpt lat="46.6720135034745" lon="7.1775030849997865"><ele></ele><time>2016-7-22T23:11:7Z</time></trkpt>
<trkpt lat="46.67206421370932" lon="7.177538625355613"><ele></ele><time>2016-7-22T23:11:10Z</time></trkpt>
<trkpt lat="46.67210276997022" lon="7.177592521822045"><ele></ele><time>2016-7-22T23:11:13Z</time></trkpt>
<trkpt lat="46.67215599457363" lon="7.177647843525152"><ele></ele><time>2016-7-22T23:11:16Z</time></trkpt>
<trkpt lat="46.67219580843909" lon="7.1776714813444205"><ele></ele><time>2016-7-22T23:11:19Z</time></trkpt>
<trkpt lat="46.67224676998423" lon="7.177721103304306"><ele></ele><time>2016-7-22T23:11:22Z</time></trkpt>
<trkpt lat="46.67229647403813" lon="7.177790171254816"><ele></ele><time>2016-7-22T23:11:25Z</time></trkpt>
<trkpt lat="46.67234366323588" lon="7.1778860612446875"><ele></ele><time>2016-7-22T23:11:28Z</time></trkpt>
<trkpt lat="46.672356822585684" lon="7.17791112341873"><ele></ele><time>2016-7-22T23:11:31Z</time></trkpt>
<trkpt lat="46.67237559745606" lon="7.177971054433625"><ele></ele><time>2016-7-22T23:11:34Z</time></trkpt>
<trkpt lat="46.67239915006036" lon="7.178027129874541"><ele></ele><time>2016-7-22T23:11:37Z</time></trkpt>
<trkpt lat="46.67245229143338" lon="7.178026208998882"><ele></ele><time>2016-7-22T23:11:40Z</time></trkpt>
<trkpt lat="46.67250082309767" lon="7.17799217950375"><ele></ele><time>2016-7-22T23:11:43Z</time></trkpt>
<trkpt lat="46.67254114000999" lon="7.1780032444773285"><ele></ele><time>2016-7-22T23:11:46Z</time></trkpt>
<trkpt lat="46.67257282339014" lon="7.178029229055945"><ele></ele><time>2016-7-22T23:11:49Z</time></trkpt>
<trkpt lat="46.67260123784663" lon="7.178052866631655"><ele></ele><time>2016-7-22T23:11:52Z</time></trkpt>
<trkpt lat="46.672608613384206" lon="7.178105505146571"><ele></ele><time>2016-7-22T23:11:55Z</time></trkpt>
<trkpt lat="46.67262797511706" lon="7.178153198593782"><ele></ele><time>2016-7-22T23:11:58Z</time></trkpt>
<trkpt lat="46.67263266832851" lon="7.1782165658886505"><ele></ele><time>2016-7-22T23:12:1Z</time></trkpt>
<trkpt lat="46.67263736146109" lon="7.178287476897168"><ele></ele><time>2016-7-22T23:12:4Z</time></trkpt>
<trkpt lat="46.67263777970217" lon="7.178369200470736"><ele></ele><time>2016-7-22T23:12:7Z</time></trkpt>
<trkpt lat="46.672649346005414" lon="7.178440363082964"><ele></ele><time>2016-7-22T23:12:10Z</time></trkpt>
<trkpt lat="46.67263995750798" lon="7.178511944343435"><ele></ele><time>2016-7-22T23:12:13Z</time></trkpt>
<trkpt lat="46.67267130550196" lon="7.178548406294714"><ele></ele><time>2016-7-22T23:12:16Z</time></trkpt>
<trkpt lat="46.67270466490395" lon="7.178609008172543"><ele></ele><time>2016-7-22T23:12:19Z</time></trkpt>
<trkpt lat="46.67272964256627" lon="7.178652510787294"><ele></ele><time>2016-7-22T23:12:22Z</time></trkpt>
<trkpt lat="46.67275755352668" lon="7.178731720375828"><ele></ele><time>2016-7-22T23:12:25Z</time></trkpt>
<trkpt lat="46.67277381378429" lon="7.178795255555286"><ele></ele><time>2016-7-22T23:12:28Z</time></trkpt>
<trkpt lat="46.67279200196998" lon="7.178850492690818"><ele></ele><time>2016-7-22T23:12:31Z</time></trkpt>
<trkpt lat="46.67280809456736" lon="7.178916123342655"><ele></ele><time>2016-7-22T23:12:34Z</time></trkpt>
<trkpt lat="46.67281991208752" lon="7.179010336196105"><ele></ele><time>2016-7-22T23:12:37Z</time></trkpt>
<trkpt lat="46.67282586238394" lon="7.179093149534931"><ele></ele><time>2016-7-22T23:12:40Z</time></trkpt>
<trkpt lat="46.67282829214932" lon="7.1791879489214745"><ele></ele><time>2016-7-22T23:12:43Z</time></trkpt>
<trkpt lat="46.6728322310789" lon="7.179242682838852"><ele></ele><time>2016-7-22T23:12:46Z</time></trkpt>
<trkpt lat="46.672824770287406" lon="7.179327256091617"><ele></ele><time>2016-7-22T23:12:49Z</time></trkpt>
<trkpt lat="46.67283876709006" lon="7.179423061553196"><ele></ele><time>2016-7-22T23:12:52Z</time></trkpt>
<trkpt lat="46.67287145566138" lon="7.179510234051978"><ele></ele><time>2016-7-22T23:12:55Z</time></trkpt>
<trkpt lat="46.672925601906634" lon="7.179601011226743"><ele></ele><time>2016-7-22T23:12:58Z</time></trkpt>
<trkpt lat="46.6729922376214" lon="7.1796524775376644"><ele></ele><time>2016-7-22T23:13:1Z</time></trkpt>
<trkpt lat="46.67302040049466" lon="7.179688185049013"><ele></ele><time>2016-7-22T23:13:4Z</time></trkpt>
<trkpt lat="46.67303649366622" lon="7.179698914229133"><ele></ele><time>2016-7-22T23:13:7Z</time></trkpt>
<trkpt lat="46.673043534469045" lon="7.179699752569582"><ele></ele><time>2016-7-22T23:13:10Z</time></trkpt>
<trkpt lat="46.6731105894708" lon="7.179732946338516"><ele></ele><time>2016-7-22T23:13:13Z</time></trkpt>
<trkpt lat="46.67320103005783" lon="7.17976303930127"><ele></ele><time>2016-7-22T23:13:16Z</time></trkpt>
<trkpt lat="46.67332005298999" lon="7.179792881415929"><ele></ele><time>2016-7-22T23:13:19Z</time></trkpt>
<trkpt lat="46.673420468045485" lon="7.179824399514751"><ele></ele><time>2016-7-22T23:13:22Z</time></trkpt>
<trkpt lat="46.67351618921268" lon="7.179857258618096"><ele></ele><time>2016-7-22T23:13:25Z</time></trkpt>
<trkpt lat="46.67361945405766" lon="7.179894811748312"><ele></ele><time>2016-7-22T23:13:28Z</time></trkpt>
<trkpt lat="46.67373336381948" lon="7.179943848313641"><ele></ele><time>2016-7-22T23:13:31Z</time></trkpt>
<trkpt lat="46.67385255424536" lon="7.179987604391861"><ele></ele><time>2016-7-22T23:13:34Z</time></trkpt>
<trkpt lat="46.67387702939347" lon="7.1799928016938"><ele></ele><time>2016-7-22T23:13:37Z</time></trkpt>
<trkpt lat="46.67389639148371" lon="7.180006380790704"><ele></ele><time>2016-7-22T23:13:40Z</time></trkpt>
<trkpt lat="46.67394961625205" lon="7.180046112149325"><ele></ele><time>2016-7-22T23:13:43Z</time></trkpt>
<trkpt lat="46.674008289539856" lon="7.1800597759028335"><ele></ele><time>2016-7-22T23:13:46Z</time></trkpt>
<trkpt lat="46.67407199190448" lon="7.180080564381782"><ele></ele><time>2016-7-22T23:13:49Z</time></trkpt>
<trkpt lat="46.67413745420679" lon="7.180126750066975"><ele></ele><time>2016-7-22T23:13:52Z</time></trkpt>
<trkpt lat="46.67415866025701" lon="7.1801462803548395"><ele></ele><time>2016-7-22T23:13:55Z</time></trkpt>
<trkpt lat="46.67419813854324" lon="7.180199003371355"><ele></ele><time>2016-7-22T23:13:58Z</time></trkpt>
<trkpt lat="46.67423627560348" lon="7.180263125748514"><ele></ele><time>2016-7-22T23:14:1Z</time></trkpt>
<trkpt lat="46.67427801663408" lon="7.180351639542642"><ele></ele><time>2016-7-22T23:14:4Z</time></trkpt>
<trkpt lat="46.67428639840043" lon="7.180366224233931"><ele></ele><time>2016-7-22T23:14:7Z</time></trkpt>
<trkpt lat="46.67431397433603" lon="7.1804214615678505"><ele></ele><time>2016-7-22T23:14:10Z</time></trkpt>
<trkpt lat="46.674326294597634" lon="7.180532438237473"><ele></ele><time>2016-7-22T23:14:13Z</time></trkpt>
<trkpt lat="46.67432201862799" lon="7.180646515858017"><ele></ele><time>2016-7-22T23:14:16Z</time></trkpt>
<trkpt lat="46.67432771701564" lon="7.180772663632567"><ele></ele><time>2016-7-22T23:14:19Z</time></trkpt>
<trkpt lat="46.674323274414114" lon="7.180790349355115"><ele></ele><time>2016-7-22T23:14:22Z</time></trkpt>
<trkpt lat="46.67434984495808" lon="7.180803593329074"><ele></ele><time>2016-7-22T23:14:25Z</time></trkpt>
<trkpt lat="46.674338949067575" lon="7.180745757960366"><ele></ele><time>2016-7-22T23:14:28Z</time></trkpt>
<trkpt lat="46.67433316513502" lon="7.180784901328236"><ele></ele><time>2016-7-22T23:14:31Z</time></trkpt>
<trkpt lat="46.67433115305365" lon="7.180825218242981"><ele></ele><time>2016-7-22T23:14:34Z</time></trkpt>
<trkpt lat="46.674335343495" lon="7.180874839203097"><ele></ele><time>2016-7-22T23:14:37Z</time></trkpt>
<trkpt lat="46.67433760589645" lon="7.180943487043929"><ele></ele><time>2016-7-22T23:14:40Z</time></trkpt>
<trkpt lat="46.67433785648346" lon="7.181026886992724"><ele></ele><time>2016-7-22T23:14:43Z</time></trkpt>
<trkpt lat="46.6743148889511" lon="7.181129900102213"><ele></ele><time>2016-7-22T23:14:46Z</time></trkpt>
<trkpt lat="46.67427800761664" lon="7.181215394736451"><ele></ele><time>2016-7-22T23:14:49Z</time></trkpt>
<trkpt lat="46.67423869552584" lon="7.181300889319033"><ele></ele><time>2016-7-22T23:14:52Z</time></trkpt>
<trkpt lat="46.674248166158925" lon="7.181390492073088"><ele></ele><time>2016-7-22T23:14:55Z</time></trkpt>
<trkpt lat="46.67429435002617" lon="7.181438856641573"><ele></ele><time>2016-7-22T23:14:58Z</time></trkpt>
<trkpt lat="46.67432972189879" lon="7.181422009767764"><ele></ele><time>2016-7-22T23:15:1Z</time></trkpt>
<trkpt lat="46.674379175372046" lon="7.18140734248874"><ele></ele><time>2016-7-22T23:15:4Z</time></trkpt>
<trkpt lat="46.674421755579345" lon="7.1814015598815075"><ele></ele><time>2016-7-22T23:15:7Z</time></trkpt>
<trkpt lat="46.674472466175146" lon="7.181402734427555"><ele></ele><time>2016-7-22T23:15:10Z</time></trkpt>
<trkpt lat="46.67450909519482" lon="7.181399382445763"><ele></ele><time>2016-7-22T23:15:13Z</time></trkpt>
<trkpt lat="46.674538432035334" lon="7.181387396947782"><ele></ele><time>2016-7-22T23:15:16Z</time></trkpt>
<trkpt lat="46.67455569853245" lon="7.181411872474559"><ele></ele><time>2016-7-22T23:15:19Z</time></trkpt>
<trkpt lat="46.67458101173802" lon="7.181429977925699"><ele></ele><time>2016-7-22T23:15:22Z</time></trkpt>
<trkpt lat="46.67460942634096" lon="7.1814397015390155"><ele></ele><time>2016-7-22T23:15:25Z</time></trkpt>
<trkpt lat="46.67466281964678" lon="7.181393350747446"><ele></ele><time>2016-7-22T23:15:28Z</time></trkpt>
<trkpt lat="46.67470028735955" lon="7.181341970474626"><ele></ele><time>2016-7-22T23:15:31Z</time></trkpt>
<trkpt lat="46.67471302868245" lon="7.181264689592646"><ele></ele><time>2016-7-22T23:15:34Z</time></trkpt>
<trkpt lat="46.674706826736156" lon="7.181200148801188"><ele></ele><time>2016-7-22T23:15:37Z</time></trkpt>
<trkpt lat="46.67472048940712" lon="7.1811864027698125"><ele></ele><time>2016-7-22T23:15:40Z</time></trkpt>
<trkpt lat="46.67475074813367" lon="7.181186403414041"><ele></ele><time>2016-7-22T23:15:43Z</time></trkpt>
<trkpt lat="46.67478452759938" lon="7.1811544690797104"><ele></ele><time>2016-7-22T23:15:46Z</time></trkpt>
<trkpt lat="46.67481612755893" lon="7.1811423998110335"><ele></ele><time>2016-7-22T23:15:49Z</time></trkpt>
<trkpt lat="46.674848733364456" lon="7.181128821821092"><ele></ele><time>2016-7-22T23:15:52Z</time></trkpt>
<trkpt lat="46.674868012026856" lon="7.181104933805735"><ele></ele><time>2016-7-22T23:15:55Z</time></trkpt>
<trkpt lat="46.67489567298241" lon="7.181045171420611"><ele></ele><time>2016-7-22T23:15:58Z</time></trkpt>
<trkpt lat="46.67492299881786" lon="7.180970405420608"><ele></ele><time>2016-7-22T23:16:1Z</time></trkpt>
<trkpt lat="46.67493775128355" lon="7.180942745452228"><ele></ele><time>2016-7-22T23:16:4Z</time></trkpt>
<trkpt lat="46.6749302917565" lon="7.180906284011878"><ele></ele><time>2016-7-22T23:16:7Z</time></trkpt>
<trkpt lat="46.674933645220456" lon="7.180839564129095"><ele></ele><time>2016-7-22T23:16:10Z</time></trkpt>
<trkpt lat="46.67495393016731" lon="7.180772174054602"><ele></ele><time>2016-7-22T23:16:13Z</time></trkpt>
<trkpt lat="46.67500070155298" lon="7.180745436777603"><ele></ele><time>2016-7-22T23:16:16Z</time></trkpt>
<trkpt lat="46.675025512098955" lon="7.180739067059126"><ele></ele><time>2016-7-22T23:16:19Z</time></trkpt>
<trkpt lat="46.675030960673396" lon="7.180707718855023"><ele></ele><time>2016-7-22T23:16:22Z</time></trkpt>
<trkpt lat="46.67505719620857" lon="7.180695314196189"><ele></ele><time>2016-7-22T23:16:25Z</time></trkpt>
<trkpt lat="46.67511880297704" lon="7.180727334380688"><ele></ele><time>2016-7-22T23:16:28Z</time></trkpt>
<trkpt lat="46.67514562459022" lon="7.180777794012602"><ele></ele><time>2016-7-22T23:16:31Z</time></trkpt>
<trkpt lat="46.67520798578659" lon="7.180804533613691"><ele></ele><time>2016-7-22T23:16:34Z</time></trkpt>
<trkpt lat="46.67526917347587" lon="7.18083496122739"><ele></ele><time>2016-7-22T23:16:37Z</time></trkpt>
<trkpt lat="46.67533455198459" lon="7.180878799976276"><ele></ele><time>2016-7-22T23:16:40Z</time></trkpt>
<trkpt lat="46.67540110382024" lon="7.180936217434123"><ele></ele><time>2016-7-22T23:16:43Z</time></trkpt>
<trkpt lat="46.675458520034695" lon="7.180929429314754"><ele></ele><time>2016-7-22T23:16:46Z</time></trkpt>
<trkpt lat="46.67546539319409" lon="7.180930770565713"><ele></ele><time>2016-7-22T23:16:49Z</time></trkpt>
<trkpt lat="46.67548844341123" lon="7.180936470751096"><ele></ele><time>2016-7-22T23:16:52Z</time></trkpt>
<trkpt lat="46.675535633493205" lon="7.180948038783122"><ele></ele><time>2016-7-22T23:16:55Z</time></trkpt>
<trkpt lat="46.67558106326115" lon="7.180970251795369"><ele></ele><time>2016-7-22T23:16:58Z</time></trkpt>
<trkpt lat="46.67558877461507" lon="7.18097134160706"><ele></ele><time>2016-7-22T23:17:1Z</time></trkpt>
<trkpt lat="46.67559975485605" lon="7.180978298820954"><ele></ele><time>2016-7-22T23:17:4Z</time></trkpt>
<trkpt lat="46.67564367579116" lon="7.1810088937047425"><ele></ele><time>2016-7-22T23:17:7Z</time></trkpt>
<trkpt lat="46.67567016264754" lon="7.181009564821041"><ele></ele><time>2016-7-22T23:17:10Z</time></trkpt>
<trkpt lat="46.67567091702286" lon="7.181009313379993"><ele></ele><time>2016-7-22T23:17:13Z</time></trkpt>
<trkpt lat="46.675733529889754" lon="7.181015684960055"><ele></ele><time>2016-7-22T23:17:16Z</time></trkpt>
<trkpt lat="46.67586361723632" lon="7.181018872853475"><ele></ele><time>2016-7-22T23:17:19Z</time></trkpt>
<trkpt lat="46.6760223707603" lon="7.181020636433664"><ele></ele><time>2016-7-22T23:17:22Z</time></trkpt>
<trkpt lat="46.67619671473404" lon="7.181014688994477"><ele></ele><time>2016-7-22T23:17:25Z</time></trkpt>
<trkpt lat="46.676297046558005" lon="7.180990215972311"><ele></ele><time>2016-7-22T23:17:28Z</time></trkpt>
<trkpt lat="46.67637357355932" lon="7.180982338612476"><ele></ele><time>2016-7-22T23:17:31Z</time></trkpt>
<trkpt lat="46.67649946996129" lon="7.1809841853121315"><ele></ele><time>2016-7-22T23:17:34Z</time></trkpt>
<trkpt lat="46.67657365027395" lon="7.180952503296144"><ele></ele><time>2016-7-22T23:17:37Z</time></trkpt>
<trkpt lat="46.676667528349746" lon="7.180896514179292"><ele></ele><time>2016-7-22T23:17:40Z</time></trkpt>
<trkpt lat="46.67672712418758" lon="7.1808587130632775"><ele></ele><time>2016-7-22T23:17:43Z</time></trkpt>
<trkpt lat="46.67675059393055" lon="7.180823258110964"><ele></ele><time>2016-7-22T23:17:46Z</time></trkpt>
<trkpt lat="46.67679300674372" lon="7.180794173808822"><ele></ele><time>2016-7-22T23:17:49Z</time></trkpt>
<trkpt lat="46.676845477790465" lon="7.180771711424748"><ele></ele><time>2016-7-22T23:17:52Z</time></trkpt>
<trkpt lat="46.67686651647776" lon="7.180764922530926"><ele></ele><time>2016-7-22T23:17:55Z</time></trkpt>
<trkpt lat="46.676972380494924" lon="7.180728379686087"><ele></ele><time>2016-7-22T23:17:58Z</time></trkpt>
<trkpt lat="46.677105067247794" lon="7.1806348404686196"><ele></ele><time>2016-7-22T23:18:1Z</time></trkpt>
<trkpt lat="46.67719165377679" lon="7.180509700493265"><ele></ele><time>2016-7-22T23:18:4Z</time></trkpt>
<trkpt lat="46.677282599219794" lon="7.180354301939409"><ele></ele><time>2016-7-22T23:18:7Z</time></trkpt>
<trkpt lat="46.677379746374456" lon="7.180285907676416"><ele></ele><time>2016-7-22T23:18:10Z</time></trkpt>
<trkpt lat="46.677497680205896" lon="7.180263698144693"><ele></ele><time>2016-7-22T23:18:13Z</time></trkpt>
<trkpt lat="46.67751368957654" lon="7.1802727509415325"><ele></ele><time>2016-7-22T23:18:16Z</time></trkpt>
<trkpt lat="46.67755761128614" lon="7.180229249798218"><ele></ele><time>2016-7-22T23:18:19Z</time></trkpt>
<trkpt lat="46.677577141298215" lon="7.180215755349711"><ele></ele><time>2016-7-22T23:18:22Z</time></trkpt>
<trkpt lat="46.67765098584926" lon="7.180230592892142"><ele></ele><time>2016-7-22T23:18:25Z</time></trkpt>
<trkpt lat="46.67768920598779" lon="7.180365793809285"><ele></ele><time>2016-7-22T23:18:28Z</time></trkpt>
<trkpt lat="46.67771468657855" lon="7.180408206783615"><ele></ele><time>2016-7-22T23:18:31Z</time></trkpt>
<trkpt lat="46.677759110596746" lon="7.1804227922419805"><ele></ele><time>2016-7-22T23:18:34Z</time></trkpt>
<trkpt lat="46.677757768633754" lon="7.180504767229179"><ele></ele><time>2016-7-22T23:18:37Z</time></trkpt>
<trkpt lat="46.6777130087139" lon="7.180550028554413"><ele></ele><time>2016-7-22T23:18:40Z</time></trkpt>
<trkpt lat="46.67769976521631" lon="7.180556314699915"><ele></ele><time>2016-7-22T23:18:43Z</time></trkpt>
<trkpt lat="46.67769230520515" lon="7.1805662051870955"><ele></ele><time>2016-7-22T23:18:46Z</time></trkpt>
<trkpt lat="46.6776870242234" lon="7.180601911983363"><ele></ele><time>2016-7-22T23:18:49Z</time></trkpt>
<trkpt lat="46.677685599339185" lon="7.18059788863935"><ele></ele><time>2016-7-22T23:18:52Z</time></trkpt>
<trkpt lat="46.67769549000006" lon="7.180598224126161"><ele></ele><time>2016-7-22T23:18:55Z</time></trkpt>
<trkpt lat="46.677689957923924" lon="7.1805991460177045"><ele></ele><time>2016-7-22T23:18:58Z</time></trkpt>
<trkpt lat="46.677693478405146" lon="7.180591937655716"><ele></ele><time>2016-7-22T23:19:1Z</time></trkpt>
<trkpt lat="46.677694903495016" lon="7.180576263526597"><ele></ele><time>2016-7-22T23:19:4Z</time></trkpt>
<trkpt lat="46.67774092092149" lon="7.1805100474694745"><ele></ele><time>2016-7-22T23:19:7Z</time></trkpt>
<trkpt lat="46.67786832787359" lon="7.180339226991281"><ele></ele><time>2016-7-22T23:19:10Z</time></trkpt>
<trkpt lat="46.678042758304656" lon="7.180080984262942"><ele></ele><time>2016-7-22T23:19:13Z</time></trkpt>
<trkpt lat="46.678217356018585" lon="7.179856855886303"><ele></ele><time>2016-7-22T23:19:16Z</time></trkpt>
<trkpt lat="46.678301511000285" lon="7.179807572087785"><ele></ele><time>2016-7-22T23:19:19Z</time></trkpt>
<trkpt lat="46.67837334433607" lon="7.179779829518479"><ele></ele><time>2016-7-22T23:19:22Z</time></trkpt>
<trkpt lat="46.67840863250936" lon="7.179751667075193"><ele></ele><time>2016-7-22T23:19:25Z</time></trkpt>
<trkpt lat="46.6784860822652" lon="7.179672795015152"><ele></ele><time>2016-7-22T23:19:28Z</time></trkpt>
<trkpt lat="46.67857183052033" lon="7.179555701652859"><ele></ele><time>2016-7-22T23:19:31Z</time></trkpt>
<trkpt lat="46.678647772049516" lon="7.179427208693259"><ele></ele><time>2016-7-22T23:19:34Z</time></trkpt>
<trkpt lat="46.67871482893653" lon="7.179280359176216"><ele></ele><time>2016-7-22T23:19:37Z</time></trkpt>
<trkpt lat="46.678805942662144" lon="7.179063605098627"><ele></ele><time>2016-7-22T23:19:40Z</time></trkpt>
<trkpt lat="46.678837291474" lon="7.179022031526568"><ele></ele><time>2016-7-22T23:19:43Z</time></trkpt>
<trkpt lat="46.67891138798805" lon="7.178988589312297"><ele></ele><time>2016-7-22T23:19:46Z</time></trkpt>
<trkpt lat="46.67909159894221" lon="7.179017845997511"><ele></ele><time>2016-7-22T23:19:49Z</time></trkpt>
<trkpt lat="46.67936384307307" lon="7.1790753516589705"><ele></ele><time>2016-7-22T23:19:52Z</time></trkpt>
<trkpt lat="46.67946962239975" lon="7.179122460210689"><ele></ele><time>2016-7-22T23:19:55Z</time></trkpt>
<trkpt lat="46.679634242202184" lon="7.179226650777792"><ele></ele><time>2016-7-22T23:19:58Z</time></trkpt>
<trkpt lat="46.67990967090502" lon="7.179337633048324"><ele></ele><time>2016-7-22T23:20:1Z</time></trkpt>
<trkpt lat="46.67999189742674" lon="7.179347693085116"><ele></ele><time>2016-7-22T23:20:4Z</time></trkpt>
<trkpt lat="46.6804333718034" lon="7.1794726766724875"><ele></ele><time>2016-7-22T23:20:7Z</time></trkpt>
<trkpt lat="46.680979620275835" lon="7.179587771846022"><ele></ele><time>2016-7-22T23:20:10Z</time></trkpt>
<trkpt lat="46.68106159529534" lon="7.179602190466623"><ele></ele><time>2016-7-22T23:20:13Z</time></trkpt>
<trkpt lat="46.68142109415009" lon="7.179761286648703"><ele></ele><time>2016-7-22T23:20:16Z</time></trkpt>
<trkpt lat="46.681909589993296" lon="7.179992302305627"><ele></ele><time>2016-7-22T23:20:19Z</time></trkpt>
<trkpt lat="46.68194294971873" lon="7.180022310229093"><ele></ele><time>2016-7-22T23:20:22Z</time></trkpt>
<trkpt lat="46.68196524565563" lon="7.180019293219151"><ele></ele><time>2016-7-22T23:20:25Z</time></trkpt>
<trkpt lat="46.681954600553325" lon="7.180025495600491"><ele></ele><time>2016-7-22T23:20:28Z</time></trkpt>
<trkpt lat="46.68197957888474" lon="7.180005211927632"><ele></ele><time>2016-7-22T23:20:31Z</time></trkpt>
<trkpt lat="46.68203054087016" lon="7.180013259640453"><ele></ele><time>2016-7-22T23:20:34Z</time></trkpt>
<trkpt lat="46.68207991010621" lon="7.180038993134512"><ele></ele><time>2016-7-22T23:20:37Z</time></trkpt>
<trkpt lat="46.68213841611586" lon="7.180018626357123"><ele></ele><time>2016-7-22T23:20:40Z</time></trkpt>
<trkpt lat="46.682214942915046" lon="7.180030530290038"><ele></ele><time>2016-7-22T23:20:43Z</time></trkpt>
<trkpt lat="46.68228141144786" lon="7.180038913609369"><ele></ele><time>2016-7-22T23:20:46Z</time></trkpt>
<trkpt lat="46.68232969112556" lon="7.1800559299010835"><ele></ele><time>2016-7-22T23:20:49Z</time></trkpt>
<trkpt lat="46.68240571507366" lon="7.180061715034096"><ele></ele><time>2016-7-22T23:20:52Z</time></trkpt>
<trkpt lat="46.682441002796565" lon="7.180076803211258"><ele></ele><time>2016-7-22T23:20:55Z</time></trkpt>
<trkpt lat="46.68253990913511" lon="7.180106477255056"><ele></ele><time>2016-7-22T23:20:58Z</time></trkpt>
<trkpt lat="46.682695896091715" lon="7.180160376214332"><ele></ele><time>2016-7-22T23:21:1Z</time></trkpt>
<trkpt lat="46.68284417181669" lon="7.1802014506977185"><ele></ele><time>2016-7-22T23:21:4Z</time></trkpt>
<trkpt lat="46.682942910126904" lon="7.180268508024237"><ele></ele><time>2016-7-22T23:21:7Z</time></trkpt>
<trkpt lat="46.68306302263107" lon="7.180306899698318"><ele></ele><time>2016-7-22T23:21:10Z</time></trkpt>
<trkpt lat="46.68323501890851" lon="7.1803747967755305"><ele></ele><time>2016-7-22T23:21:13Z</time></trkpt>
<trkpt lat="46.68334482267441" lon="7.180315287605129"><ele></ele><time>2016-7-22T23:21:16Z</time></trkpt>
<trkpt lat="46.683388660618064" lon="7.180266924960096"><ele></ele><time>2016-7-22T23:21:19Z</time></trkpt>
<trkpt lat="46.68339754552005" lon="7.180260471084264"><ele></ele><time>2016-7-22T23:21:22Z</time></trkpt>
<trkpt lat="46.68343333673792" lon="7.180220071075485"><ele></ele><time>2016-7-22T23:21:25Z</time></trkpt>
<trkpt lat="46.68347834783701" lon="7.180201715667484"><ele></ele><time>2016-7-22T23:21:28Z</time></trkpt>
<trkpt lat="46.68352713032107" lon="7.180229209347985"><ele></ele><time>2016-7-22T23:21:31Z</time></trkpt>
<trkpt lat="46.68357021288287" lon="7.180277490025838"><ele></ele><time>2016-7-22T23:21:34Z</time></trkpt>
<trkpt lat="46.68360692514743" lon="7.180329458605121"><ele></ele><time>2016-7-22T23:21:37Z</time></trkpt>
<trkpt lat="46.683617653751384" lon="7.180353682532659"><ele></ele><time>2016-7-22T23:21:40Z</time></trkpt>
<trkpt lat="46.683622347621906" lon="7.180354101727801"><ele></ele><time>2016-7-22T23:21:43Z</time></trkpt>
<trkpt lat="46.683601141386696" lon="7.180352089619333"><ele></ele><time>2016-7-22T23:21:46Z</time></trkpt>
<trkpt lat="46.68359535780714" lon="7.180357370094845"><ele></ele><time>2016-7-22T23:21:49Z</time></trkpt>
<trkpt lat="46.683601979569886" lon="7.180352927827465"><ele></ele><time>2016-7-22T23:21:52Z</time></trkpt>
<trkpt lat="46.6835896575488" lon="7.1804103435988145"><ele></ele><time>2016-7-22T23:21:55Z</time></trkpt>
<trkpt lat="46.683599464561716" lon="7.18039433437349"><ele></ele><time>2016-7-22T23:21:58Z</time></trkpt>
<trkpt lat="46.683615809536576" lon="7.1803721226794215"><ele></ele><time>2016-7-22T23:22:1Z</time></trkpt>
<trkpt lat="46.68363140011854" lon="7.180351838806926"><ele></ele><time>2016-7-22T23:22:4Z</time></trkpt>
<trkpt lat="46.683639446544184" lon="7.180372626097178"><ele></ele><time>2016-7-22T23:22:7Z</time></trkpt>
<trkpt lat="46.683650594207364" lon="7.180400370432777"><ele></ele><time>2016-7-22T23:22:10Z</time></trkpt>
<trkpt lat="46.683686635892194" lon="7.180454853568477"><ele></ele><time>2016-7-22T23:22:13Z</time></trkpt>
<trkpt lat="46.68369535296241" lon="7.180466923694136"><ele></ele><time>2016-7-22T23:22:16Z</time></trkpt>
<trkpt lat="46.68370549499131" lon="7.180475892546133"><ele></ele><time>2016-7-22T23:22:19Z</time></trkpt>
<trkpt lat="46.68373558579077" lon="7.180503804923297"><ele></ele><time>2016-7-22T23:22:22Z</time></trkpt>
<trkpt lat="46.68383834714687" lon="7.1805973491468835"><ele></ele><time>2016-7-22T23:22:25Z</time></trkpt>
<trkpt lat="46.68392861985874" lon="7.180651079066284"><ele></ele><time>2016-7-22T23:22:28Z</time></trkpt>
<trkpt lat="46.684060131055524" lon="7.180758370222201"><ele></ele><time>2016-7-22T23:22:31Z</time></trkpt>
<trkpt lat="46.6841611321522" lon="7.1808573626442485"><ele></ele><time>2016-7-22T23:22:34Z</time></trkpt>
<trkpt lat="46.6842503986781" lon="7.1809452068855375"><ele></ele><time>2016-7-22T23:22:37Z</time></trkpt>
<trkpt lat="46.684322818224715" lon="7.180968007203134"><ele></ele><time>2016-7-22T23:22:40Z</time></trkpt>
<trkpt lat="46.68440529614216" lon="7.180984353669846"><ele></ele><time>2016-7-22T23:22:43Z</time></trkpt>
<trkpt lat="46.68449699392713" lon="7.181024085841254"><ele></ele><time>2016-7-22T23:22:46Z</time></trkpt>
<trkpt lat="46.6845873506418" lon="7.1810602975848985"><ele></ele><time>2016-7-22T23:22:49Z</time></trkpt>
<trkpt lat="46.684674773786156" lon="7.181086786258934"><ele></ele><time>2016-7-22T23:22:52Z</time></trkpt>
<trkpt lat="46.68477099781672" lon="7.1811256803361925"><ele></ele><time>2016-7-22T23:22:55Z</time></trkpt>
<trkpt lat="46.68484777589544" lon="7.181154850992233"><ele></ele><time>2016-7-22T23:22:58Z</time></trkpt>
<trkpt lat="46.68492136895938" lon="7.1811730412879955"><ele></ele><time>2016-7-22T23:23:1Z</time></trkpt>
<trkpt lat="46.68502974704294" lon="7.18118611936385"><ele></ele><time>2016-7-22T23:23:4Z</time></trkpt>
<trkpt lat="46.68513326345496" lon="7.1812143685797984"><ele></ele><time>2016-7-22T23:23:7Z</time></trkpt>
<trkpt lat="46.68525144846862" lon="7.181219400237934"><ele></ele><time>2016-7-22T23:23:10Z</time></trkpt>
<trkpt lat="46.68534767286357" lon="7.181223425600123"><ele></ele><time>2016-7-22T23:23:13Z</time></trkpt>
<trkpt lat="46.68536762188993" lon="7.181217893969235"><ele></ele><time>2016-7-22T23:23:16Z</time></trkpt>
<trkpt lat="46.685487567203204" lon="7.181213705572053"><ele></ele><time>2016-7-22T23:23:19Z</time></trkpt>
<trkpt lat="46.68564187835469" lon="7.181212619210604"><ele></ele><time>2016-7-22T23:23:22Z</time></trkpt>
<trkpt lat="46.68573357650292" lon="7.181217650304715"><ele></ele><time>2016-7-22T23:23:25Z</time></trkpt>
<trkpt lat="46.6858562879874" lon="7.181200302379576"><ele></ele><time>2016-7-22T23:23:28Z</time></trkpt>
<trkpt lat="46.68598712997519" lon="7.181179015133477"><ele></ele><time>2016-7-22T23:23:31Z</time></trkpt>
<trkpt lat="46.68614169220197" lon="7.181214641510219"><ele></ele><time>2016-7-22T23:23:34Z</time></trkpt>
<trkpt lat="46.686274126011504" lon="7.181264600468784"><ele></ele><time>2016-7-22T23:23:37Z</time></trkpt>
<trkpt lat="46.68640790117498" lon="7.181290922490908"><ele></ele><time>2016-7-22T23:23:40Z</time></trkpt>
<trkpt lat="46.686620382386224" lon="7.181334345269686"><ele></ele><time>2016-7-22T23:23:43Z</time></trkpt>
<trkpt lat="46.68683546140456" lon="7.181434178306465"><ele></ele><time>2016-7-22T23:23:46Z</time></trkpt>
<trkpt lat="46.68692355461752" lon="7.181507354189652"><ele></ele><time>2016-7-22T23:23:49Z</time></trkpt>
<trkpt lat="46.687011564215986" lon="7.181560916419386"><ele></ele><time>2016-7-22T23:23:52Z</time></trkpt>
<trkpt lat="46.68701977853669" lon="7.181557144738209"><ele></ele><time>2016-7-22T23:23:55Z</time></trkpt>
<trkpt lat="46.68700251166312" lon="7.181568543757796"><ele></ele><time>2016-7-22T23:23:58Z</time></trkpt>
<trkpt lat="46.686991196016415" lon="7.1815738241153735"><ele></ele><time>2016-7-22T23:24:1Z</time></trkpt>
<trkpt lat="46.68699169899891" lon="7.181567370061275"><ele></ele><time>2016-7-22T23:24:4Z</time></trkpt>
<trkpt lat="46.68698130546042" lon="7.181563346526872"><ele></ele><time>2016-7-22T23:24:7Z</time></trkpt>
<trkpt lat="46.68701743153096" lon="7.1815636825720714"><ele></ele><time>2016-7-22T23:24:10Z</time></trkpt>
<trkpt lat="46.68701743157382" lon="7.18155957543992"><ele></ele><time>2016-7-22T23:24:13Z</time></trkpt>
<trkpt lat="46.68701558760479" lon="7.181554462440234"><ele></ele><time>2016-7-22T23:24:16Z</time></trkpt>
<trkpt lat="46.68702623242603" lon="7.181575249784672"><ele></ele><time>2016-7-22T23:24:19Z</time></trkpt>
<trkpt lat="46.6870509587579" lon="7.1816070177209514"><ele></ele><time>2016-7-22T23:24:22Z</time></trkpt>
<trkpt lat="46.68709018577596" lon="7.18164213872684"><ele></ele><time>2016-7-22T23:24:25Z</time></trkpt>
<trkpt lat="46.68725027912395" lon="7.1817686250409345"><ele></ele><time>2016-7-22T23:24:28Z</time></trkpt>
<trkpt lat="46.68746384872103" lon="7.181933417786174"><ele></ele><time>2016-7-22T23:24:31Z</time></trkpt>
<trkpt lat="46.687698624492846" lon="7.182106173788883"><ele></ele><time>2016-7-22T23:24:34Z</time></trkpt>
<trkpt lat="46.68792652737696" lon="7.182251520823887"><ele></ele><time>2016-7-22T23:24:37Z</time></trkpt>
<trkpt lat="46.688016883732445" lon="7.182322517458522"><ele></ele><time>2016-7-22T23:24:40Z</time></trkpt>
<trkpt lat="46.688106150371226" lon="7.182399968134496"><ele></ele><time>2016-7-22T23:24:43Z</time></trkpt>
<trkpt lat="46.68815166384727" lon="7.1824334128927445"><ele></ele><time>2016-7-22T23:24:46Z</time></trkpt>
<trkpt lat="46.68837805758362" lon="7.182617484281762"><ele></ele><time>2016-7-22T23:24:49Z</time></trkpt>
<trkpt lat="46.688422313734335" lon="7.182654533230933"><ele></ele><time>2016-7-22T23:24:52Z</time></trkpt>
<trkpt lat="46.688627334060726" lon="7.182792084606949"><ele></ele><time>2016-7-22T23:24:55Z</time></trkpt>
<trkpt lat="46.68904064388146" lon="7.183046316489905"><ele></ele><time>2016-7-22T23:24:58Z</time></trkpt>
<trkpt lat="46.68913929851554" lon="7.183100381856686"><ele></ele><time>2016-7-22T23:25:1Z</time></trkpt>
<trkpt lat="46.6892579853149" lon="7.183214294430188"><ele></ele><time>2016-7-22T23:25:4Z</time></trkpt>
<trkpt lat="46.6892904229975" lon="7.183247655090284"><ele></ele><time>2016-7-22T23:25:7Z</time></trkpt>
<trkpt lat="46.68933769664084" lon="7.183284620283739"><ele></ele><time>2016-7-22T23:25:10Z</time></trkpt>
<trkpt lat="46.68936686539828" lon="7.183315717760692"><ele></ele><time>2016-7-22T23:25:13Z</time></trkpt>
<trkpt lat="46.68941128917406" lon="7.1833541078168075"><ele></ele><time>2016-7-22T23:25:16Z</time></trkpt>
<trkpt lat="46.689455293842535" lon="7.183393587511235"><ele></ele><time>2016-7-22T23:25:19Z</time></trkpt>
<trkpt lat="46.68954011795309" lon="7.183481850743476"><ele></ele><time>2016-7-22T23:25:22Z</time></trkpt>
<trkpt lat="46.689674814158444" lon="7.183601714806524"><ele></ele><time>2016-7-22T23:25:25Z</time></trkpt>
<trkpt lat="46.6898287047173" lon="7.183744964783788"><ele></ele><time>2016-7-22T23:25:28Z</time></trkpt>
<trkpt lat="46.68994211111098" lon="7.183839431230229"><ele></ele><time>2016-7-22T23:25:31Z</time></trkpt>
<trkpt lat="46.69007337097348" lon="7.18393590971235"><ele></ele><time>2016-7-22T23:25:34Z</time></trkpt>
<trkpt lat="46.69020178090316" lon="7.184040099483348"><ele></ele><time>2016-7-22T23:25:37Z</time></trkpt>
<trkpt lat="46.690303117469654" lon="7.184121406086228"><ele></ele><time>2016-7-22T23:25:40Z</time></trkpt>
<trkpt lat="46.69042322978493" lon="7.184178908486412"><ele></ele><time>2016-7-22T23:25:43Z</time></trkpt>
<trkpt lat="46.690434126132644" lon="7.184193157951286"><ele></ele><time>2016-7-22T23:25:46Z</time></trkpt>
<trkpt lat="46.69047041944851" lon="7.18423138019545"><ele></ele><time>2016-7-22T23:25:49Z</time></trkpt>
<trkpt lat="46.69050922795719" lon="7.184210342446393"><ele></ele><time>2016-7-22T23:25:52Z</time></trkpt>
<trkpt lat="46.69054141501518" lon="7.1841637397557605"><ele></ele><time>2016-7-22T23:25:55Z</time></trkpt>
<trkpt lat="46.690636048218565" lon="7.184036336857976"><ele></ele><time>2016-7-22T23:25:58Z</time></trkpt>
<trkpt lat="46.69069489086006" lon="7.183886218245568"><ele></ele><time>2016-7-22T23:26:1Z</time></trkpt>
<trkpt lat="46.69081324439142" lon="7.183807430883702"><ele></ele><time>2016-7-22T23:26:4Z</time></trkpt>
<trkpt lat="46.69096068306341" lon="7.183740378803082"><ele></ele><time>2016-7-22T23:26:7Z</time></trkpt>
<trkpt lat="46.6911351109169" lon="7.183731078600336"><ele></ele><time>2016-7-22T23:26:10Z</time></trkpt>
<trkpt lat="46.691292941662155" lon="7.183808866004853"><ele></ele><time>2016-7-22T23:26:13Z</time></trkpt>
<trkpt lat="46.69152646037836" lon="7.183960415753893"><ele></ele><time>2016-7-22T23:26:16Z</time></trkpt>
<trkpt lat="46.69174757442498" lon="7.184057063781629"><ele></ele><time>2016-7-22T23:26:19Z</time></trkpt>
<trkpt lat="46.6919800882029" lon="7.184123034290656"><ele></ele><time>2016-7-22T23:26:22Z</time></trkpt>
<trkpt lat="46.692204555166136" lon="7.1842055169746395"><ele></ele><time>2016-7-22T23:26:25Z</time></trkpt>
<trkpt lat="46.692415947015796" lon="7.184222536727958"><ele></ele><time>2016-7-22T23:26:28Z</time></trkpt>
<trkpt lat="46.692584171960284" lon="7.18424114812507"><ele></ele><time>2016-7-22T23:26:31Z</time></trkpt>
<trkpt lat="46.69290025306256" lon="7.18434768881274"><ele></ele><time>2016-7-22T23:26:34Z</time></trkpt>
<trkpt lat="46.693163444875445" lon="7.184394046322002"><ele></ele><time>2016-7-22T23:26:37Z</time></trkpt>
<trkpt lat="46.69325070045761" lon="7.184413997102118"><ele></ele><time>2016-7-22T23:26:40Z</time></trkpt>
<trkpt lat="46.69334256619803" lon="7.184424141155296"><ele></ele><time>2016-7-22T23:26:43Z</time></trkpt>
<trkpt lat="46.693527471304975" lon="7.1844293418637015"><ele></ele><time>2016-7-22T23:26:46Z</time></trkpt>
<trkpt lat="46.69355898733131" lon="7.184428755800342"><ele></ele><time>2016-7-22T23:26:49Z</time></trkpt>
<trkpt lat="46.69361900190405" lon="7.184426493962296"><ele></ele><time>2016-7-22T23:26:52Z</time></trkpt>
<trkpt lat="46.693687733743694" lon="7.184417526788272"><ele></ele><time>2016-7-22T23:26:55Z</time></trkpt>
<trkpt lat="46.693774905613495" lon="7.184427251646572"><ele></ele><time>2016-7-22T23:26:58Z</time></trkpt>
<trkpt lat="46.69380223082891" lon="7.184412332442534"><ele></ele><time>2016-7-22T23:27:1Z</time></trkpt>
<trkpt lat="46.69402787265641" lon="7.18436112381955"><ele></ele><time>2016-7-22T23:27:4Z</time></trkpt>
<trkpt lat="46.694205988287" lon="7.184378059045918"><ele></ele><time>2016-7-22T23:27:7Z</time></trkpt>
<trkpt lat="46.69444118449713" lon="7.184423661588266"><ele></ele><time>2016-7-22T23:27:10Z</time></trkpt>
<trkpt lat="46.69461577910001" lon="7.184500359696822"><ele></ele><time>2016-7-22T23:27:13Z</time></trkpt>
<trkpt lat="46.69477411258847" lon="7.184595246185544"><ele></ele><time>2016-7-22T23:27:16Z</time></trkpt>
<trkpt lat="46.69501249380678" lon="7.18465266727549"><ele></ele><time>2016-7-22T23:27:19Z</time></trkpt>
<trkpt lat="46.69522321570686" lon="7.1846121871694395"><ele></ele><time>2016-7-22T23:27:22Z</time></trkpt>
<trkpt lat="46.69526344887774" lon="7.184616714251097"><ele></ele><time>2016-7-22T23:27:25Z</time></trkpt>
<trkpt lat="46.695410970077134" lon="7.184674384867029"><ele></ele><time>2016-7-22T23:27:28Z</time></trkpt>
<trkpt lat="46.69556762698318" lon="7.184788465872739"><ele></ele><time>2016-7-22T23:27:31Z</time></trkpt>
<trkpt lat="46.69569100715361" lon="7.184951747931655"><ele></ele><time>2016-7-22T23:27:34Z</time></trkpt>
<trkpt lat="46.69579678527316" lon="7.185116789815363"><ele></ele><time>2016-7-22T23:27:37Z</time></trkpt>
<trkpt lat="46.69597313784642" lon="7.185408483725826"><ele></ele><time>2016-7-22T23:27:40Z</time></trkpt>
<trkpt lat="46.696099870619086" lon="7.185587859104339"><ele></ele><time>2016-7-22T23:27:43Z</time></trkpt>
<trkpt lat="46.69623942829599" lon="7.18571283621546"><ele></ele><time>2016-7-22T23:27:46Z</time></trkpt>
<trkpt lat="46.69640815499907" lon="7.18584334600022"><ele></ele><time>2016-7-22T23:27:49Z</time></trkpt>
<trkpt lat="46.69656338681751" lon="7.185973184945766"><ele></ele><time>2016-7-22T23:27:52Z</time></trkpt>
<trkpt lat="46.69671342155206" lon="7.186131270787417"><ele></ele><time>2016-7-22T23:27:55Z</time></trkpt>
<trkpt lat="46.696877704600105" lon="7.186380971110572"><ele></ele><time>2016-7-22T23:27:58Z</time></trkpt>
<trkpt lat="46.69694576463418" lon="7.186492703297556"><ele></ele><time>2016-7-22T23:28:1Z</time></trkpt>
<trkpt lat="46.6970402269946" lon="7.186674089643144"><ele></ele><time>2016-7-22T23:28:4Z</time></trkpt>
<trkpt lat="46.697117925650076" lon="7.186842399866781"><ele></ele><time>2016-7-22T23:28:7Z</time></trkpt>
<trkpt lat="46.69715421773399" lon="7.186999561283069"><ele></ele><time>2016-7-22T23:28:10Z</time></trkpt>
<trkpt lat="46.69721967961365" lon="7.187088159366795"><ele></ele><time>2016-7-22T23:28:13Z</time></trkpt>
<trkpt lat="46.697211130064254" lon="7.1870872371762955"><ele></ele><time>2016-7-22T23:28:16Z</time></trkpt>
<trkpt lat="46.69721406382349" lon="7.1870788553374085"><ele></ele><time>2016-7-22T23:28:19Z</time></trkpt>
<trkpt lat="46.697218841673134" lon="7.187063935654767"><ele></ele><time>2016-7-22T23:28:22Z</time></trkpt>
<trkpt lat="46.69724834583252" lon="7.18708329847229"><ele></ele><time>2016-7-22T23:28:25Z</time></trkpt>
<trkpt lat="46.697257230429855" lon="7.187106265069842"><ele></ele><time>2016-7-22T23:28:28Z</time></trkpt>
<trkpt lat="46.69730861040111" lon="7.18722202021423"><ele></ele><time>2016-7-22T23:28:31Z</time></trkpt>
<trkpt lat="46.69738714660223" lon="7.187452691798607"><ele></ele><time>2016-7-22T23:28:34Z</time></trkpt>
<trkpt lat="46.69747532160716" lon="7.187722423245974"><ele></ele><time>2016-7-22T23:28:37Z</time></trkpt>
<trkpt lat="46.69764899037145" lon="7.188168679341904"><ele></ele><time>2016-7-22T23:28:40Z</time></trkpt>
<trkpt lat="46.69767975140877" lon="7.18822760475854"><ele></ele><time>2016-7-22T23:28:43Z</time></trkpt>
<trkpt lat="46.69784897972548" lon="7.188484094518064"><ele></ele><time>2016-7-22T23:28:46Z</time></trkpt>
<trkpt lat="46.69814611527072" lon="7.188825579463183"><ele></ele><time>2016-7-22T23:28:49Z</time></trkpt>
<trkpt lat="46.6982757801949" lon="7.189152392530746"><ele></ele><time>2016-7-22T23:28:52Z</time></trkpt>
<trkpt lat="46.69833830758274" lon="7.189320283332279"><ele></ele><time>2016-7-22T23:28:55Z</time></trkpt>
<trkpt lat="46.698469817339735" lon="7.189569060939034"><ele></ele><time>2016-7-22T23:28:58Z</time></trkpt>
<trkpt lat="46.6986511983054" lon="7.18993560530934"><ele></ele><time>2016-7-22T23:29:1Z</time></trkpt>
<trkpt lat="46.69885185713282" lon="7.190355961889829"><ele></ele><time>2016-7-22T23:29:4Z</time></trkpt>
<trkpt lat="46.699103141586626" lon="7.190889978115495"><ele></ele><time>2016-7-22T23:29:7Z</time></trkpt>
<trkpt lat="46.699415614675566" lon="7.191364987049651"><ele></ele><time>2016-7-22T23:29:10Z</time></trkpt>
<trkpt lat="46.69976840554418" lon="7.191768666856266"><ele></ele><time>2016-7-22T23:29:13Z</time></trkpt>
<trkpt lat="46.699976190490034" lon="7.192046195986009"><ele></ele><time>2016-7-22T23:29:16Z</time></trkpt>
<trkpt lat="46.700094038022016" lon="7.1922661395543805"><ele></ele><time>2016-7-22T23:29:19Z</time></trkpt>
<trkpt lat="46.700281789423286" lon="7.192616758432518"><ele></ele><time>2016-7-22T23:29:22Z</time></trkpt>
<trkpt lat="46.70047113270394" lon="7.193033845815254"><ele></ele><time>2016-7-22T23:29:25Z</time></trkpt>
<trkpt lat="46.700694841422035" lon="7.19349351397732"><ele></ele><time>2016-7-22T23:29:28Z</time></trkpt>
<trkpt lat="46.700742282405756" lon="7.193560151090079"><ele></ele><time>2016-7-22T23:29:31Z</time></trkpt>
<trkpt lat="46.70091955799937" lon="7.193756961862807"><ele></ele><time>2016-7-22T23:29:34Z</time></trkpt>
<trkpt lat="46.70120387013145" lon="7.194011107095408"><ele></ele><time>2016-7-22T23:29:37Z</time></trkpt>
<trkpt lat="46.701277546537646" lon="7.194076822752272"><ele></ele><time>2016-7-22T23:29:40Z</time></trkpt>
<trkpt lat="46.70135046839624" lon="7.194159469832343"><ele></ele><time>2016-7-22T23:29:43Z</time></trkpt>
<trkpt lat="46.70156311505272" lon="7.194418810327169"><ele></ele><time>2016-7-22T23:29:46Z</time></trkpt>
<trkpt lat="46.701854885493034" lon="7.194828439967804"><ele></ele><time>2016-7-22T23:29:49Z</time></trkpt>
<trkpt lat="46.70206149606463" lon="7.195194817201337"><ele></ele><time>2016-7-22T23:29:52Z</time></trkpt>
<trkpt lat="46.7021788400567" lon="7.195476116259196"><ele></ele><time>2016-7-22T23:29:55Z</time></trkpt>
<trkpt lat="46.70226140040856" lon="7.1956283333144135"><ele></ele><time>2016-7-22T23:29:58Z</time></trkpt>
<trkpt lat="46.70235418710362" lon="7.195741826204628"><ele></ele><time>2016-7-22T23:30:1Z</time></trkpt>
<trkpt lat="46.70258284254257" lon="7.196068306051483"><ele></ele><time>2016-7-22T23:30:4Z</time></trkpt>
<trkpt lat="46.702860613891076" lon="7.1966033286149305"><ele></ele><time>2016-7-22T23:30:7Z</time></trkpt>
<trkpt lat="46.70315774642625" lon="7.1972406945861955"><ele></ele><time>2016-7-22T23:30:10Z</time></trkpt>
<trkpt lat="46.70339486573092" lon="7.197749816212134"><ele></ele><time>2016-7-22T23:30:13Z</time></trkpt>
<trkpt lat="46.703637936045276" lon="7.198274193018593"><ele></ele><time>2016-7-22T23:30:16Z</time></trkpt>
<trkpt lat="46.703836499533104" lon="7.198684658859059"><ele></ele><time>2016-7-22T23:30:19Z</time></trkpt>
<trkpt lat="46.70388301792527" lon="7.198808125230138"><ele></ele><time>2016-7-22T23:30:22Z</time></trkpt>
<trkpt lat="46.704068923491484" lon="7.199337529966568"><ele></ele><time>2016-7-22T23:30:25Z</time></trkpt>
<trkpt lat="46.70412977482136" lon="7.199475413506892"><ele></ele><time>2016-7-22T23:30:28Z</time></trkpt>
<trkpt lat="46.704437217187554" lon="7.200108001988172"><ele></ele><time>2016-7-22T23:30:31Z</time></trkpt>
<trkpt lat="46.70464810138929" lon="7.200588373125768"><ele></ele><time>2016-7-22T23:30:34Z</time></trkpt>
<trkpt lat="46.70483317011692" lon="7.200986852552827"><ele></ele><time>2016-7-22T23:30:37Z</time></trkpt>
<trkpt lat="46.704876922841926" lon="7.201074863424632"><ele></ele><time>2016-7-22T23:30:40Z</time></trkpt>
<trkpt lat="46.704989573067124" lon="7.201347193729543"><ele></ele><time>2016-7-22T23:30:43Z</time></trkpt>
<trkpt lat="46.70507313798516" lon="7.201623546734568"><ele></ele><time>2016-7-22T23:30:46Z</time></trkpt>
<trkpt lat="46.7050961862712" lon="7.201818174940957"><ele></ele><time>2016-7-22T23:30:49Z</time></trkpt>
<trkpt lat="46.70509316355293" lon="7.202327626770302"><ele></ele><time>2016-7-22T23:30:52Z</time></trkpt>
<trkpt lat="46.705078996130496" lon="7.202520242538919"><ele></ele><time>2016-7-22T23:30:55Z</time></trkpt>
<trkpt lat="46.70506415677356" lon="7.202847555429425"><ele></ele><time>2016-7-22T23:30:58Z</time></trkpt>
<trkpt lat="46.70504554181181" lon="7.2035398999938405"><ele></ele><time>2016-7-22T23:31:1Z</time></trkpt>
<trkpt lat="46.70501963676146" lon="7.2040195117789745"><ele></ele><time>2016-7-22T23:31:4Z</time></trkpt>
<trkpt lat="46.704935645206675" lon="7.204478838147965"><ele></ele><time>2016-7-22T23:31:7Z</time></trkpt>
<trkpt lat="46.704980653284764" lon="7.2047561123500845"><ele></ele><time>2016-7-22T23:31:10Z</time></trkpt>
<trkpt lat="46.70510830354962" lon="7.205380985684441"><ele></ele><time>2016-7-22T23:31:13Z</time></trkpt>
<trkpt lat="46.70516496324123" lon="7.205585840511962"><ele></ele><time>2016-7-22T23:31:16Z</time></trkpt>
<trkpt lat="46.70520620118501" lon="7.205694219345162"><ele></ele><time>2016-7-22T23:31:19Z</time></trkpt>
<trkpt lat="46.705215588646126" lon="7.205722634183402"><ele></ele><time>2016-7-22T23:31:22Z</time></trkpt>
<trkpt lat="46.70526839402116" lon="7.205793881441088"><ele></ele><time>2016-7-22T23:31:25Z</time></trkpt>
<trkpt lat="46.70530250762872" lon="7.205873258750232"><ele></ele><time>2016-7-22T23:31:28Z</time></trkpt>
<trkpt lat="46.705376937428916" lon="7.206035617715279"><ele></ele><time>2016-7-22T23:31:31Z</time></trkpt>
<trkpt lat="46.70553694592725" lon="7.206268218795454"><ele></ele><time>2016-7-22T23:31:34Z</time></trkpt>
<trkpt lat="46.70570055792152" lon="7.206572317557926"><ele></ele><time>2016-7-22T23:31:37Z</time></trkpt>
<trkpt lat="46.70574456214203" lon="7.206657059489359"><ele></ele><time>2016-7-22T23:31:40Z</time></trkpt>
<trkpt lat="46.705929464406154" lon="7.206942718515549"><ele></ele><time>2016-7-22T23:31:43Z</time></trkpt>
<trkpt lat="46.705998949928144" lon="7.2070019800036755"><ele></ele><time>2016-7-22T23:31:46Z</time></trkpt>
<trkpt lat="46.70627965925672" lon="7.207121008860453"><ele></ele><time>2016-7-22T23:31:49Z</time></trkpt>
<trkpt lat="46.70654897068636" lon="7.207091929304714"><ele></ele><time>2016-7-22T23:31:52Z</time></trkpt>
<trkpt lat="46.70660378873376" lon="7.207064354001215"><ele></ele><time>2016-7-22T23:31:55Z</time></trkpt>
<trkpt lat="46.70670135493725" lon="7.207001827069699"><ele></ele><time>2016-7-22T23:31:58Z</time></trkpt>
<trkpt lat="46.706720130811114" lon="7.206965617654835"><ele></ele><time>2016-7-22T23:32:1Z</time></trkpt>
<trkpt lat="46.70679967608425" lon="7.20688347670036"><ele></ele><time>2016-7-22T23:32:4Z</time></trkpt>
<trkpt lat="46.706978715080346" lon="7.206770408618358"><ele></ele><time>2016-7-22T23:32:7Z</time></trkpt>
<trkpt lat="46.707141240948914" lon="7.206730011263583"><ele></ele><time>2016-7-22T23:32:10Z</time></trkpt>
<trkpt lat="46.707191448574115" lon="7.206738226576767"><ele></ele><time>2016-7-22T23:32:13Z</time></trkpt>
<trkpt lat="46.70728038038149" lon="7.206775276436452"><ele></ele><time>2016-7-22T23:32:16Z</time></trkpt>
<trkpt lat="46.70730276003542" lon="7.206782736795948"><ele></ele><time>2016-7-22T23:32:19Z</time></trkpt>
<trkpt lat="46.70749034639838" lon="7.206884329350199"><ele></ele><time>2016-7-22T23:32:22Z</time></trkpt>
<trkpt lat="46.70766921568511" lon="7.206974019423618"><ele></ele><time>2016-7-22T23:32:25Z</time></trkpt>
<trkpt lat="46.70790801434717" lon="7.207197150596569"><ele></ele><time>2016-7-22T23:32:28Z</time></trkpt>
<trkpt lat="46.707961490227646" lon="7.207273343185394"><ele></ele><time>2016-7-22T23:32:31Z</time></trkpt>
<trkpt lat="46.7081126138896" lon="7.207506530801355"><ele></ele><time>2016-7-22T23:32:34Z</time></trkpt>
<trkpt lat="46.70843112321988" lon="7.20786746207132"><ele></ele><time>2016-7-22T23:32:37Z</time></trkpt>
<trkpt lat="46.708489796407605" lon="7.2078931957312005"><ele></ele><time>2016-7-22T23:32:40Z</time></trkpt>
<trkpt lat="46.70868593335033" lon="7.207895211490767"><ele></ele><time>2016-7-22T23:32:43Z</time></trkpt>
<trkpt lat="46.70875131240148" lon="7.2078890102528455"><ele></ele><time>2016-7-22T23:32:46Z</time></trkpt>
<trkpt lat="46.70916948712682" lon="7.2078243945555425"><ele></ele><time>2016-7-22T23:32:49Z</time></trkpt>
<trkpt lat="46.70948422982487" lon="7.207673275490458"><ele></ele><time>2016-7-22T23:32:52Z</time></trkpt>
<trkpt lat="46.71000533550681" lon="7.207515036130987"><ele></ele><time>2016-7-22T23:32:55Z</time></trkpt>
<trkpt lat="46.71048386082483" lon="7.207376828622661"><ele></ele><time>2016-7-22T23:32:58Z</time></trkpt>
<trkpt lat="46.710741689189035" lon="7.207332409951893"><ele></ele><time>2016-7-22T23:33:1Z</time></trkpt>
<trkpt lat="46.710877644098254" lon="7.207318750301496"><ele></ele><time>2016-7-22T23:33:4Z</time></trkpt>
<trkpt lat="46.711067913978425" lon="7.207293524766836"><ele></ele><time>2016-7-22T23:33:7Z</time></trkpt>
<trkpt lat="46.711143770785974" lon="7.207252790323376"><ele></ele><time>2016-7-22T23:33:10Z</time></trkpt>
<trkpt lat="46.711222561661835" lon="7.207173331566022"><ele></ele><time>2016-7-22T23:33:13Z</time></trkpt>
<trkpt lat="46.711257599887034" lon="7.206997899144345"><ele></ele><time>2016-7-22T23:33:16Z</time></trkpt>
<trkpt lat="46.711288783024685" lon="7.206764128622082"><ele></ele><time>2016-7-22T23:33:19Z</time></trkpt>
<trkpt lat="46.711188872100145" lon="7.206609312847227"><ele></ele><time>2016-7-22T23:33:22Z</time></trkpt>
<trkpt lat="46.71096465718031" lon="7.206463966014872"><ele></ele><time>2016-7-22T23:33:25Z</time></trkpt>
<trkpt lat="46.710699540440764" lon="7.206127175740239"><ele></ele><time>2016-7-22T23:33:28Z</time></trkpt>
<trkpt lat="46.710592505413906" lon="7.205920559674926"><ele></ele><time>2016-7-22T23:33:31Z</time></trkpt>
<trkpt lat="46.710520339568305" lon="7.205676141972804"><ele></ele><time>2016-7-22T23:33:34Z</time></trkpt>
<trkpt lat="46.710432080405354" lon="7.205434489959724"><ele></ele><time>2016-7-22T23:33:37Z</time></trkpt>
<trkpt lat="46.71028145939089" lon="7.205227537702953"><ele></ele><time>2016-7-22T23:33:40Z</time></trkpt>
<trkpt lat="46.710019023934635" lon="7.204982277820073"><ele></ele><time>2016-7-22T23:33:43Z</time></trkpt>
<trkpt lat="46.7099386420922" lon="7.204905497934593"><ele></ele><time>2016-7-22T23:33:46Z</time></trkpt>
<trkpt lat="46.70972264279369" lon="7.204629896546448"><ele></ele><time>2016-7-22T23:33:49Z</time></trkpt>
<trkpt lat="46.70966497658568" lon="7.2044919292693335"><ele></ele><time>2016-7-22T23:33:52Z</time></trkpt>
<trkpt lat="46.70957060087652" lon="7.204030252257995"><ele></ele><time>2016-7-22T23:33:55Z</time></trkpt>
<trkpt lat="46.70949508581971" lon="7.203439075291623"><ele></ele><time>2016-7-22T23:33:58Z</time></trkpt>
<trkpt lat="46.709518307030876" lon="7.203118216660528"><ele></ele><time>2016-7-22T23:34:1Z</time></trkpt>
<trkpt lat="46.709572036400026" lon="7.202996093510638"><ele></ele><time>2016-7-22T23:34:4Z</time></trkpt>
<trkpt lat="46.70968343755129" lon="7.202468119991868"><ele></ele><time>2016-7-22T23:34:7Z</time></trkpt>
<trkpt lat="46.70969567667237" lon="7.202320347358515"><ele></ele><time>2016-7-22T23:34:10Z</time></trkpt>
<trkpt lat="46.70971286563608" lon="7.201733111831975"><ele></ele><time>2016-7-22T23:34:13Z</time></trkpt>
<trkpt lat="46.70979015133352" lon="7.201306307127532"><ele></ele><time>2016-7-22T23:34:16Z</time></trkpt>
<trkpt lat="46.70984136638112" lon="7.20115954114182"><ele></ele><time>2016-7-22T23:34:19Z</time></trkpt>
<trkpt lat="46.71008562157232" lon="7.200575663151387"><ele></ele><time>2016-7-22T23:34:22Z</time></trkpt>
<trkpt lat="46.71031671519402" lon="7.2001821378269835"><ele></ele><time>2016-7-22T23:34:25Z</time></trkpt>
<trkpt lat="46.710487958866736" lon="7.200083486471461"><ele></ele><time>2016-7-22T23:34:28Z</time></trkpt>
<trkpt lat="46.710599438273114" lon="7.200098240959637"><ele></ele><time>2016-7-22T23:34:31Z</time></trkpt>
<trkpt lat="46.71073757121652" lon="7.2002077952917825"><ele></ele><time>2016-7-22T23:34:34Z</time></trkpt>
<trkpt lat="46.71089858547697" lon="7.200446766632734"><ele></ele><time>2016-7-22T23:34:37Z</time></trkpt>
<trkpt lat="46.711030093258955" lon="7.200891680622003"><ele></ele><time>2016-7-22T23:34:40Z</time></trkpt>
<trkpt lat="46.71111013441412" lon="7.201495346703548"><ele></ele><time>2016-7-22T23:34:43Z</time></trkpt>
<trkpt lat="46.711224372350415" lon="7.202241589611551"><ele></ele><time>2016-7-22T23:34:46Z</time></trkpt>
<trkpt lat="46.71126577769566" lon="7.202373018664422"><ele></ele><time>2016-7-22T23:34:49Z</time></trkpt>
<trkpt lat="46.711384294519746" lon="7.202719109780754"><ele></ele><time>2016-7-22T23:34:52Z</time></trkpt>
<trkpt lat="46.711407511355794" lon="7.202825141295912"><ele></ele><time>2016-7-22T23:34:55Z</time></trkpt>
<trkpt lat="46.71141010734908" lon="7.20305949925815"><ele></ele><time>2016-7-22T23:34:58Z</time></trkpt>
<trkpt lat="46.71141546766595" lon="7.203460824714783"><ele></ele><time>2016-7-22T23:35:1Z</time></trkpt>
<trkpt lat="46.711522668759024" lon="7.203820578087108"><ele></ele><time>2016-7-22T23:35:4Z</time></trkpt>
<trkpt lat="46.71162358526108" lon="7.203999785213591"><ele></ele><time>2016-7-22T23:35:7Z</time></trkpt>
<trkpt lat="46.71175300077557" lon="7.204132305757865"><ele></ele><time>2016-7-22T23:35:10Z</time></trkpt>
<trkpt lat="46.71209933658189" lon="7.204640256123052"><ele></ele><time>2016-7-22T23:35:13Z</time></trkpt>
<trkpt lat="46.712328998544805" lon="7.20490345257755"><ele></ele><time>2016-7-22T23:35:16Z</time></trkpt>
<trkpt lat="46.71243662337129" lon="7.204810583389992"><ele></ele><time>2016-7-22T23:35:19Z</time></trkpt>
<trkpt lat="46.712438303482266" lon="7.204446557538895"><ele></ele><time>2016-7-22T23:35:22Z</time></trkpt>
<trkpt lat="46.71236630596946" lon="7.20413449791779"><ele></ele><time>2016-7-22T23:35:25Z</time></trkpt>
<trkpt lat="46.71242590439963" lon="7.203844904547413"><ele></ele><time>2016-7-22T23:35:28Z</time></trkpt>
<trkpt lat="46.71259212054445" lon="7.203587667546314"><ele></ele><time>2016-7-22T23:35:31Z</time></trkpt>
<trkpt lat="46.71261500354999" lon="7.203552631687582"><ele></ele><time>2016-7-22T23:35:34Z</time></trkpt>
<trkpt lat="46.71261709908198" lon="7.203547602591998"><ele></ele><time>2016-7-22T23:35:37Z</time></trkpt>
<trkpt lat="46.712616764290345" lon="7.20350024485408"><ele></ele><time>2016-7-22T23:35:40Z</time></trkpt>
<trkpt lat="46.712682395213996" lon="7.203453810509597"><ele></ele><time>2016-7-22T23:35:43Z</time></trkpt>
<trkpt lat="46.7127901052003" lon="7.203230267517217"><ele></ele><time>2016-7-22T23:35:46Z</time></trkpt>
<trkpt lat="46.71284299865215" lon="7.202886359301489"><ele></ele><time>2016-7-22T23:35:49Z</time></trkpt>
<trkpt lat="46.71283855789551" lon="7.202724253276825"><ele></ele><time>2016-7-22T23:35:52Z</time></trkpt>
<trkpt lat="46.71286152610771" lon="7.202553933566504"><ele></ele><time>2016-7-22T23:35:55Z</time></trkpt>
<trkpt lat="46.712917938352476" lon="7.202367605131207"><ele></ele><time>2016-7-22T23:35:58Z</time></trkpt>
<trkpt lat="46.71299555682887" lon="7.2021842946254075"><ele></ele><time>2016-7-22T23:36:1Z</time></trkpt>
<trkpt lat="46.71309320875319" lon="7.201937198287881"><ele></ele><time>2016-7-22T23:36:4Z</time></trkpt>
<trkpt lat="46.71309320952801" lon="7.201861677375961"><ele></ele><time>2016-7-22T23:36:7Z</time></trkpt>
<trkpt lat="46.71300360943589" lon="7.201603177721172"><ele></ele><time>2016-7-22T23:36:10Z</time></trkpt>
<trkpt lat="46.71287277146594" lon="7.2012300128173035"><ele></ele><time>2016-7-22T23:36:13Z</time></trkpt>
<trkpt lat="46.71282709309323" lon="7.200927928208216"><ele></ele><time>2016-7-22T23:36:16Z</time></trkpt>
<trkpt lat="46.71281485696082" lon="7.200784429835791"><ele></ele><time>2016-7-22T23:36:19Z</time></trkpt>
<trkpt lat="46.712861801888145" lon="7.200184203017994"><ele></ele><time>2016-7-22T23:36:22Z</time></trkpt>
<trkpt lat="46.712961048195545" lon="7.199760583918463"><ele></ele><time>2016-7-22T23:36:25Z</time></trkpt>
<trkpt lat="46.713072530419836" lon="7.199501417940358"><ele></ele><time>2016-7-22T23:36:28Z</time></trkpt>
<trkpt lat="46.71323597997089" lon="7.199299585247486"><ele></ele><time>2016-7-22T23:36:31Z</time></trkpt>
<trkpt lat="46.71332591892576" lon="7.199208811172337"><ele></ele><time>2016-7-22T23:36:34Z</time></trkpt>
<trkpt lat="46.71366287503128" lon="7.198932047955306"><ele></ele><time>2016-7-22T23:36:37Z</time></trkpt>
<trkpt lat="46.714067976868954" lon="7.198586722241391"><ele></ele><time>2016-7-22T23:36:40Z</time></trkpt>
<trkpt lat="46.71418197274982" lon="7.1984173264615015"><ele></ele><time>2016-7-22T23:36:43Z</time></trkpt>
<trkpt lat="46.7141874236467" lon="7.198160002274362"><ele></ele><time>2016-7-22T23:36:46Z</time></trkpt>
<trkpt lat="46.714171249912795" lon="7.1978320182223365"><ele></ele><time>2016-7-22T23:36:49Z</time></trkpt>
<trkpt lat="46.71405792945097" lon="7.197528674906181"><ele></ele><time>2016-7-22T23:36:52Z</time></trkpt>
<trkpt lat="46.71401979257093" lon="7.1974446874734275"><ele></ele><time>2016-7-22T23:36:55Z</time></trkpt>
<trkpt lat="46.71399473178259" lon="7.197332201859207"><ele></ele><time>2016-7-22T23:36:58Z</time></trkpt>
<trkpt lat="46.71402524334988" lon="7.1971990141255064"><ele></ele><time>2016-7-22T23:37:1Z</time></trkpt>
<trkpt lat="46.71409498189842" lon="7.197105976515538"><ele></ele><time>2016-7-22T23:37:4Z</time></trkpt>
<trkpt lat="46.71417930479785" lon="7.197031714667176"><ele></ele><time>2016-7-22T23:37:7Z</time></trkpt>
<trkpt lat="46.71438667557029" lon="7.196835247324831"><ele></ele><time>2016-7-22T23:37:10Z</time></trkpt>
<trkpt lat="46.71453797099192" lon="7.196667277257955"><ele></ele><time>2016-7-22T23:37:13Z</time></trkpt>
<trkpt lat="46.714630258458925" lon="7.196424036494053"><ele></ele><time>2016-7-22T23:37:16Z</time></trkpt>
<trkpt lat="46.71472958800656" lon="7.196058001058669"><ele></ele><time>2016-7-22T23:37:19Z</time></trkpt>
<trkpt lat="46.7148108129513" lon="7.195658270008271"><ele></ele><time>2016-7-22T23:37:22Z</time></trkpt>
<trkpt lat="46.714860686110455" lon="7.195588114565987"><ele></ele><time>2016-7-22T23:37:25Z</time></trkpt>
<trkpt lat="46.7150086283153" lon="7.195463814125947"><ele></ele><time>2016-7-22T23:37:28Z</time></trkpt>
<trkpt lat="46.71517869917231" lon="7.195302885255007"><ele></ele><time>2016-7-22T23:37:31Z</time></trkpt>
<trkpt lat="46.71524692929176" lon="7.195179337504458"><ele></ele><time>2016-7-22T23:37:34Z</time></trkpt>
<trkpt lat="46.71535045023272" lon="7.194771811762795"><ele></ele><time>2016-7-22T23:37:37Z</time></trkpt>
<trkpt lat="46.71534659729989" lon="7.194505183475886"><ele></ele><time>2016-7-22T23:37:40Z</time></trkpt>
<trkpt lat="46.71532966750257" lon="7.194341903726796"><ele></ele><time>2016-7-22T23:37:43Z</time></trkpt>
<trkpt lat="46.715343750147234" lon="7.194243500530567"><ele></ele><time>2016-7-22T23:37:46Z</time></trkpt>
<trkpt lat="46.71542153605955" lon="7.194081144791107"><ele></ele><time>2016-7-22T23:37:49Z</time></trkpt>
<trkpt lat="46.71551021810299" lon="7.193954412352661"><ele></ele><time>2016-7-22T23:37:52Z</time></trkpt>
<trkpt lat="46.715556319394196" lon="7.19388467592757"><ele></ele><time>2016-7-22T23:37:55Z</time></trkpt>
<trkpt lat="46.71559470945911" lon="7.193801193025414"><ele></ele><time>2016-7-22T23:37:58Z</time></trkpt>
<trkpt lat="46.71577366904368" lon="7.193263917087233"><ele></ele><time>2016-7-22T23:38:1Z</time></trkpt>
<trkpt lat="46.71579663689034" lon="7.193130310104302"><ele></ele><time>2016-7-22T23:38:4Z</time></trkpt>
<trkpt lat="46.71589177523054" lon="7.19278916883079"><ele></ele><time>2016-7-22T23:38:7Z</time></trkpt>
<trkpt lat="46.71610174537042" lon="7.1924996624836695"><ele></ele><time>2016-7-22T23:38:10Z</time></trkpt>
<trkpt lat="46.716135273338566" lon="7.192472589659403"><ele></ele><time>2016-7-22T23:38:13Z</time></trkpt>
<trkpt lat="46.71615530635499" lon="7.192451048603009"><ele></ele><time>2016-7-22T23:38:16Z</time></trkpt>
<trkpt lat="46.716155390464465" lon="7.192422969243633"><ele></ele><time>2016-7-22T23:38:19Z</time></trkpt>
<trkpt lat="46.7161207728759" lon="7.192447192199211"><ele></ele><time>2016-7-22T23:38:22Z</time></trkpt>
<trkpt lat="46.71610249987769" lon="7.192486670556398"><ele></ele><time>2016-7-22T23:38:25Z</time></trkpt>
<trkpt lat="46.7161454989456" lon="7.192505279281186"><ele></ele><time>2016-7-22T23:38:28Z</time></trkpt>
<trkpt lat="46.7162572295849" lon="7.192542245817898"><ele></ele><time>2016-7-22T23:38:31Z</time></trkpt>
<trkpt lat="46.71629461296953" lon="7.192541073142605"><ele></ele><time>2016-7-22T23:38:34Z</time></trkpt>
<trkpt lat="46.71651094935922" lon="7.192639732666493"><ele></ele><time>2016-7-22T23:38:37Z</time></trkpt>
<trkpt lat="46.71652729204922" lon="7.1928388869277455"><ele></ele><time>2016-7-22T23:38:40Z</time></trkpt>
<trkpt lat="46.71646216185569" lon="7.193096209844342"><ele></ele><time>2016-7-22T23:38:43Z</time></trkpt>
<trkpt lat="46.71637473646597" lon="7.193284213986906"><ele></ele><time>2016-7-22T23:38:46Z</time></trkpt>
<trkpt lat="46.716250513528834" lon="7.193560311109086"><ele></ele><time>2016-7-22T23:38:49Z</time></trkpt>
<trkpt lat="46.71624313324837" lon="7.193965994857046"><ele></ele><time>2016-7-22T23:38:52Z</time></trkpt>
<trkpt lat="46.71627464825084" lon="7.194065237205089"><ele></ele><time>2016-7-22T23:38:55Z</time></trkpt>
<trkpt lat="46.716314461387455" lon="7.194161462244752"><ele></ele><time>2016-7-22T23:38:58Z</time></trkpt>
<trkpt lat="46.71634572372821" lon="7.194377380618963"><ele></ele><time>2016-7-22T23:39:1Z</time></trkpt>
<trkpt lat="46.7163921546397" lon="7.1948558203844435"><ele></ele><time>2016-7-22T23:39:4Z</time></trkpt>
<trkpt lat="46.71651293431731" lon="7.195226135223943"><ele></ele><time>2016-7-22T23:39:7Z</time></trkpt>
<trkpt lat="46.71651712208358" lon="7.195535930292272"><ele></ele><time>2016-7-22T23:39:10Z</time></trkpt>
<trkpt lat="46.7164978426818" lon="7.1956310644368875"><ele></ele><time>2016-7-22T23:39:13Z</time></trkpt>
<trkpt lat="46.716472107310324" lon="7.195909510572357"><ele></ele><time>2016-7-22T23:39:16Z</time></trkpt>
<trkpt lat="46.71651309312189" lon="7.19608293292345"><ele></ele><time>2016-7-22T23:39:19Z</time></trkpt>
<trkpt lat="46.71672079390152" lon="7.1963983481564116"><ele></ele><time>2016-7-22T23:39:22Z</time></trkpt>
<trkpt lat="46.716939392937576" lon="7.196543275796636"><ele></ele><time>2016-7-22T23:39:25Z</time></trkpt>
<trkpt lat="46.71699823355608" lon="7.1965893774807155"><ele></ele><time>2016-7-22T23:39:28Z</time></trkpt>
<trkpt lat="46.717051792549086" lon="7.1967339663635626"><ele></ele><time>2016-7-22T23:39:31Z</time></trkpt>
<trkpt lat="46.717077103968194" lon="7.19692675056833"><ele></ele><time>2016-7-22T23:39:34Z</time></trkpt>
<trkpt lat="46.717024378792104" lon="7.197206956331706"><ele></ele><time>2016-7-22T23:39:37Z</time></trkpt>
<trkpt lat="46.71702957463703" lon="7.197298905870475"><ele></ele><time>2016-7-22T23:39:40Z</time></trkpt>
<trkpt lat="46.717094951232475" lon="7.19753175639549"><ele></ele><time>2016-7-22T23:39:43Z</time></trkpt>
<trkpt lat="46.717189497090075" lon="7.1977478437373"><ele></ele><time>2016-7-22T23:39:46Z</time></trkpt>
<trkpt lat="46.71733173610171" lon="7.197962339522665"><ele></ele><time>2016-7-22T23:39:49Z</time></trkpt>
<trkpt lat="46.71737356110585" lon="7.198038867139082"><ele></ele><time>2016-7-22T23:39:52Z</time></trkpt>
<trkpt lat="46.71749685614364" lon="7.198334080208594"><ele></ele><time>2016-7-22T23:39:55Z</time></trkpt>
<trkpt lat="46.71750196796757" lon="7.198445727206793"><ele></ele><time>2016-7-22T23:39:58Z</time></trkpt>
<trkpt lat="46.717494170708946" lon="7.19864706024906"><ele></ele><time>2016-7-22T23:40:1Z</time></trkpt>
<trkpt lat="46.717501208582334" lon="7.198933050780503"><ele></ele><time>2016-7-22T23:40:4Z</time></trkpt>
<trkpt lat="46.717618637797955" lon="7.199080323212815"><ele></ele><time>2016-7-22T23:40:7Z</time></trkpt>
<trkpt lat="46.71774964654224" lon="7.199148386988205"><ele></ele><time>2016-7-22T23:40:10Z</time></trkpt>
<trkpt lat="46.717815444121435" lon="7.199198009213469"><ele></ele><time>2016-7-22T23:40:13Z</time></trkpt>
<trkpt lat="46.717874955133226" lon="7.199259868878315"><ele></ele><time>2016-7-22T23:40:16Z</time></trkpt>
<trkpt lat="46.71799967517459" lon="7.199547957359722"><ele></ele><time>2016-7-22T23:40:19Z</time></trkpt>
<trkpt lat="46.71808902404415" lon="7.199783574410424"><ele></ele><time>2016-7-22T23:40:22Z</time></trkpt>
<trkpt lat="46.718160938404004" lon="7.200030087561874"><ele></ele><time>2016-7-22T23:40:25Z</time></trkpt>
<trkpt lat="46.71828590908045" lon="7.200398474634515"><ele></ele><time>2016-7-22T23:40:28Z</time></trkpt>
<trkpt lat="46.718414317674345" lon="7.200637529083098"><ele></ele><time>2016-7-22T23:40:31Z</time></trkpt>
<trkpt lat="46.71868815083052" lon="7.201050930078661"><ele></ele><time>2016-7-22T23:40:34Z</time></trkpt>
<trkpt lat="46.71902803253543" lon="7.201561897757975"><ele></ele><time>2016-7-22T23:40:37Z</time></trkpt>
<trkpt lat="46.71913858909223" lon="7.201659213923283"><ele></ele><time>2016-7-22T23:40:40Z</time></trkpt>
<trkpt lat="46.71920086672692" lon="7.201663909095397"><ele></ele><time>2016-7-22T23:40:43Z</time></trkpt>
<trkpt lat="46.71938485034955" lon="7.201622254927059"><ele></ele><time>2016-7-22T23:40:46Z</time></trkpt>
<trkpt lat="46.719469423903845" lon="7.201626363834944"><ele></ele><time>2016-7-22T23:40:49Z</time></trkpt>
<trkpt lat="46.71962867970953" lon="7.201696439853204"><ele></ele><time>2016-7-22T23:40:52Z</time></trkpt>
<trkpt lat="46.71979849478403" lon="7.20195695282495"><ele></ele><time>2016-7-22T23:40:55Z</time></trkpt>
<trkpt lat="46.719830764152555" lon="7.20205762010292"><ele></ele><time>2016-7-22T23:40:58Z</time></trkpt>
<trkpt lat="46.71991927471425" lon="7.202305139422388"><ele></ele><time>2016-7-22T23:41:1Z</time></trkpt>
<trkpt lat="46.720046929607825" lon="7.202479150314703"><ele></ele><time>2016-7-22T23:41:4Z</time></trkpt>
<trkpt lat="46.72019956254377" lon="7.202661627448387"><ele></ele><time>2016-7-22T23:41:7Z</time></trkpt>
<trkpt lat="46.72030307551959" lon="7.203029008227229"><ele></ele><time>2016-7-22T23:41:10Z</time></trkpt>
<trkpt lat="46.72033266165696" lon="7.20322891712403"><ele></ele><time>2016-7-22T23:41:13Z</time></trkpt>
<trkpt lat="46.72031480589825" lon="7.203449863589536"><ele></ele><time>2016-7-22T23:41:16Z</time></trkpt>
<trkpt lat="46.72024858651033" lon="7.203664690254202"><ele></ele><time>2016-7-22T23:41:19Z</time></trkpt>
<trkpt lat="46.7201981250863" lon="7.203884462570015"><ele></ele><time>2016-7-22T23:41:22Z</time></trkpt>
<trkpt lat="46.72018638826776" lon="7.20409216576509"><ele></ele><time>2016-7-22T23:41:25Z</time></trkpt>
<trkpt lat="46.72019937784606" lon="7.20432669155377"><ele></ele><time>2016-7-22T23:41:28Z</time></trkpt>
<trkpt lat="46.7202389350895" lon="7.204857182730581"><ele></ele><time>2016-7-22T23:41:31Z</time></trkpt>
<trkpt lat="46.72029693574356" lon="7.2050769573217"><ele></ele><time>2016-7-22T23:41:34Z</time></trkpt>
<trkpt lat="46.72032350581068" lon="7.2051382295557715"><ele></ele><time>2016-7-22T23:41:37Z</time></trkpt>
<trkpt lat="46.72049256783181" lon="7.2052705832753725"><ele></ele><time>2016-7-22T23:41:40Z</time></trkpt>
<trkpt lat="46.72061134054913" lon="7.20518492276499"><ele></ele><time>2016-7-22T23:41:43Z</time></trkpt>
<trkpt lat="46.720741848399726" lon="7.205056095724775"><ele></ele><time>2016-7-22T23:41:46Z</time></trkpt>
<trkpt lat="46.72065425905654" lon="7.204885438438506"><ele></ele><time>2016-7-22T23:41:49Z</time></trkpt>
<trkpt lat="46.72061126322351" lon="7.204550413061319"><ele></ele><time>2016-7-22T23:41:52Z</time></trkpt>
<trkpt lat="46.72072945108792" lon="7.204281021329397"><ele></ele><time>2016-7-22T23:41:55Z</time></trkpt>
<trkpt lat="46.72075895634408" lon="7.204194185482153"><ele></ele><time>2016-7-22T23:41:58Z</time></trkpt>
<trkpt lat="46.72082358418509" lon="7.203879865652553"><ele></ele><time>2016-7-22T23:42:1Z</time></trkpt>
<trkpt lat="46.72087924242709" lon="7.203657578878335"><ele></ele><time>2016-7-22T23:42:4Z</time></trkpt>
<trkpt lat="46.720968428159274" lon="7.203454822631307"><ele></ele><time>2016-7-22T23:42:7Z</time></trkpt>
<trkpt lat="46.72110262778" lon="7.202962808021271"><ele></ele><time>2016-7-22T23:42:10Z</time></trkpt>
<trkpt lat="46.721206403070774" lon="7.202271219776877"><ele></ele><time>2016-7-22T23:42:13Z</time></trkpt>
<trkpt lat="46.72120674222672" lon="7.201893028535412"><ele></ele><time>2016-7-22T23:42:16Z</time></trkpt>
<trkpt lat="46.7211851181024" lon="7.201772580203208"><ele></ele><time>2016-7-22T23:42:19Z</time></trkpt>
<trkpt lat="46.721043550660426" lon="7.201457920767087"><ele></ele><time>2016-7-22T23:42:22Z</time></trkpt>
<trkpt lat="46.720903407088976" lon="7.201246274889455"><ele></ele><time>2016-7-22T23:42:25Z</time></trkpt>
<trkpt lat="46.720905421353024" lon="7.20099272250893"><ele></ele><time>2016-7-22T23:42:28Z</time></trkpt>
<trkpt lat="46.72092453305697" lon="7.20090303659929"><ele></ele><time>2016-7-22T23:42:31Z</time></trkpt>
<trkpt lat="46.720930988041715" lon="7.200814942984179"><ele></ele><time>2016-7-22T23:42:34Z</time></trkpt>
<trkpt lat="46.72090802298478" lon="7.200677563188433"><ele></ele><time>2016-7-22T23:42:37Z</time></trkpt>
<trkpt lat="46.72071163614712" lon="7.200521236654454"><ele></ele><time>2016-7-22T23:42:40Z</time></trkpt>
<trkpt lat="46.72045942610963" lon="7.200325681661038"><ele></ele><time>2016-7-22T23:42:43Z</time></trkpt>
<trkpt lat="46.72041684655417" lon="7.200266253106037"><ele></ele><time>2016-7-22T23:42:46Z</time></trkpt>
<trkpt lat="46.72034225012778" lon="7.200005071584171"><ele></ele><time>2016-7-22T23:42:49Z</time></trkpt>
<trkpt lat="46.720405536560804" lon="7.199721010381221"><ele></ele><time>2016-7-22T23:42:52Z</time></trkpt>
<trkpt lat="46.720417104537994" lon="7.199631072855535"><ele></ele><time>2016-7-22T23:42:55Z</time></trkpt>
<trkpt lat="46.72038039488133" lon="7.1993232887757825"><ele></ele><time>2016-7-22T23:42:58Z</time></trkpt>
<trkpt lat="46.720426415203036" lon="7.1989762791535234"><ele></ele><time>2016-7-22T23:43:1Z</time></trkpt>
<trkpt lat="46.72053462800907" lon="7.198763548852783"><ele></ele><time>2016-7-22T23:43:4Z</time></trkpt>
<trkpt lat="46.72054393465858" lon="7.198499519251644"><ele></ele><time>2016-7-22T23:43:7Z</time></trkpt>
<trkpt lat="46.72056807549964" lon="7.198411593646786"><ele></ele><time>2016-7-22T23:43:10Z</time></trkpt>
<trkpt lat="46.72065231532563" lon="7.198265247476879"><ele></ele><time>2016-7-22T23:43:13Z</time></trkpt>
<trkpt lat="46.720844932625965" lon="7.198195011227292"><ele></ele><time>2016-7-22T23:43:16Z</time></trkpt>
<trkpt lat="46.720945012631695" lon="7.198209430200906"><ele></ele><time>2016-7-22T23:43:19Z</time></trkpt>
<trkpt lat="46.721047858901336" lon="7.198201553383399"><ele></ele><time>2016-7-22T23:43:22Z</time></trkpt>
<trkpt lat="46.72126143175115" lon="7.198059149432151"><ele></ele><time>2016-7-22T23:43:25Z</time></trkpt>
<trkpt lat="46.721325975912364" lon="7.197732843494141"><ele></ele><time>2016-7-22T23:43:28Z</time></trkpt>
<trkpt lat="46.72132925042781" lon="7.197192211127423"><ele></ele><time>2016-7-22T23:43:31Z</time></trkpt>
<trkpt lat="46.72132656955738" lon="7.197061621096491"><ele></ele><time>2016-7-22T23:43:34Z</time></trkpt>
<trkpt lat="46.721330764103016" lon="7.196713604770486"><ele></ele><time>2016-7-22T23:43:37Z</time></trkpt>
<trkpt lat="46.721318194588754" lon="7.1963865428364375"><ele></ele><time>2016-7-22T23:43:40Z</time></trkpt>
<trkpt lat="46.721315348824234" lon="7.195989743714155"><ele></ele><time>2016-7-22T23:43:43Z</time></trkpt>
<trkpt lat="46.72137251669267" lon="7.1956834703593335"><ele></ele><time>2016-7-22T23:43:46Z</time></trkpt>
<trkpt lat="46.72132851458122" lon="7.1953942939417255"><ele></ele><time>2016-7-22T23:43:49Z</time></trkpt>
<trkpt lat="46.72130060386067" lon="7.19528943580565"><ele></ele><time>2016-7-22T23:43:52Z</time></trkpt>
<trkpt lat="46.7212820810386" lon="7.195170496278656"><ele></ele><time>2016-7-22T23:43:55Z</time></trkpt>
<trkpt lat="46.721304798399245" lon="7.194942592945322"><ele></ele><time>2016-7-22T23:43:58Z</time></trkpt>
<trkpt lat="46.72137395485855" lon="7.194399950314543"><ele></ele><time>2016-7-22T23:44:1Z</time></trkpt>
<trkpt lat="46.7213713622767" lon="7.193836686699019"><ele></ele><time>2016-7-22T23:44:4Z</time></trkpt>
<trkpt lat="46.72136432296509" lon="7.193691092978067"><ele></ele><time>2016-7-22T23:44:7Z</time></trkpt>
<trkpt lat="46.72138167725465" lon="7.193331845186917"><ele></ele><time>2016-7-22T23:44:10Z</time></trkpt>
<trkpt lat="46.721467513332904" lon="7.192829268384454"><ele></ele><time>2016-7-22T23:44:13Z</time></trkpt>
<trkpt lat="46.72149182229826" lon="7.192694739432197"><ele></ele><time>2016-7-22T23:44:16Z</time></trkpt>
<trkpt lat="46.72169433760976" lon="7.191914640450687"><ele></ele><time>2016-7-22T23:44:19Z</time></trkpt>
<trkpt lat="46.72181822576169" lon="7.191591939992424"><ele></ele><time>2016-7-22T23:44:22Z</time></trkpt>
<trkpt lat="46.72188922207245" lon="7.191453975451206"><ele></ele><time>2016-7-22T23:44:25Z</time></trkpt>
<trkpt lat="46.721936329921554" lon="7.191314334024968"><ele></ele><time>2016-7-22T23:44:28Z</time></trkpt>
<trkpt lat="46.72202551481899" lon="7.191194307131364"><ele></ele><time>2016-7-22T23:44:31Z</time></trkpt>
<trkpt lat="46.722139593736884" lon="7.1911022763049"><ele></ele><time>2016-7-22T23:44:34Z</time></trkpt>
<trkpt lat="46.72223355616836" lon="7.190997923662575"><ele></ele><time>2016-7-22T23:44:37Z</time></trkpt>
<trkpt lat="46.72226314507572" lon="7.19092827071568"><ele></ele><time>2016-7-22T23:44:40Z</time></trkpt>
<trkpt lat="46.72237035233741" lon="7.190689388889611"><ele></ele><time>2016-7-22T23:44:43Z</time></trkpt>
<trkpt lat="46.72266363856183" lon="7.190423353655877"><ele></ele><time>2016-7-22T23:44:46Z</time></trkpt>
<trkpt lat="46.72285835434913" lon="7.190063522896987"><ele></ele><time>2016-7-22T23:44:49Z</time></trkpt>
<trkpt lat="46.72288056737884" lon="7.18997325032564"><ele></ele><time>2016-7-22T23:44:52Z</time></trkpt>
<trkpt lat="46.72291585860487" lon="7.189651553826494"><ele></ele><time>2016-7-22T23:44:55Z</time></trkpt>
<trkpt lat="46.72299490341824" lon="7.189334635937008"><ele></ele><time>2016-7-22T23:44:58Z</time></trkpt>
<trkpt lat="46.72297009501789" lon="7.189132883125385"><ele></ele><time>2016-7-22T23:45:1Z</time></trkpt>
<trkpt lat="46.722948051411855" lon="7.189050823876244"><ele></ele><time>2016-7-22T23:45:4Z</time></trkpt>
<trkpt lat="46.72293112082037" lon="7.188964741424403"><ele></ele><time>2016-7-22T23:45:7Z</time></trkpt>
<trkpt lat="46.72292139864325" lon="7.18888243097948"><ele></ele><time>2016-7-22T23:45:10Z</time></trkpt>
<trkpt lat="46.72292139946863" lon="7.188802802948089"><ele></ele><time>2016-7-22T23:45:13Z</time></trkpt>
<trkpt lat="46.72301821286774" lon="7.188591245894687"><ele></ele><time>2016-7-22T23:45:16Z</time></trkpt>
<trkpt lat="46.72315500720296" lon="7.18846023972984"><ele></ele><time>2016-7-22T23:45:19Z</time></trkpt>
<trkpt lat="46.72322089006986" lon="7.188368124068107"><ele></ele><time>2016-7-22T23:45:22Z</time></trkpt>
<trkpt lat="46.72360336247182" lon="7.18785977006949"><ele></ele><time>2016-7-22T23:45:25Z</time></trkpt>
<trkpt lat="46.72387049819048" lon="7.1874892958493035"><ele></ele><time>2016-7-22T23:45:28Z</time></trkpt>
<trkpt lat="46.72394451141129" lon="7.187407993010345"><ele></ele><time>2016-7-22T23:45:31Z</time></trkpt>
<trkpt lat="46.72418926513228" lon="7.1872558667586395"><ele></ele><time>2016-7-22T23:45:34Z</time></trkpt>
<trkpt lat="46.724261685543695" lon="7.187198117019552"><ele></ele><time>2016-7-22T23:45:37Z</time></trkpt>
<trkpt lat="46.72453192119815" lon="7.186960495952249"><ele></ele><time>2016-7-22T23:45:40Z</time></trkpt>
<trkpt lat="46.72461892579872" lon="7.186937112304583"><ele></ele><time>2016-7-22T23:45:43Z</time></trkpt>
<trkpt lat="46.72473828475162" lon="7.186901156497224"><ele></ele><time>2016-7-22T23:45:46Z</time></trkpt>
<trkpt lat="46.72482051242301" lon="7.186803928228514"><ele></ele><time>2016-7-22T23:45:49Z</time></trkpt>
<trkpt lat="46.724861165321755" lon="7.186748692385186"><ele></ele><time>2016-7-22T23:45:52Z</time></trkpt>
<trkpt lat="46.72496267412428" lon="7.186390619866761"><ele></ele><time>2016-7-22T23:45:55Z</time></trkpt>
<trkpt lat="46.72504959981388" lon="7.185894748639864"><ele></ele><time>2016-7-22T23:45:58Z</time></trkpt>
<trkpt lat="46.72528437924441" lon="7.185724014371036"><ele></ele><time>2016-7-22T23:46:1Z</time></trkpt>
<trkpt lat="46.72534732788069" lon="7.1856858780739445"><ele></ele><time>2016-7-22T23:46:4Z</time></trkpt>
<trkpt lat="46.7254676099707" lon="7.185541711988939"><ele></ele><time>2016-7-22T23:46:7Z</time></trkpt>
<trkpt lat="46.72550474254979" lon="7.185478094174308"><ele></ele><time>2016-7-22T23:46:10Z</time></trkpt>
<trkpt lat="46.72558512743083" lon="7.185262429654322"><ele></ele><time>2016-7-22T23:46:13Z</time></trkpt>
<trkpt lat="46.72562024834688" lon="7.185198979435138"><ele></ele><time>2016-7-22T23:46:16Z</time></trkpt>
<trkpt lat="46.725778416331465" lon="7.185093035610548"><ele></ele><time>2016-7-22T23:46:19Z</time></trkpt>
<trkpt lat="46.7259674286622" lon="7.185095805655171"><ele></ele><time>2016-7-22T23:46:22Z</time></trkpt>
<trkpt lat="46.72602031877994" lon="7.1850780371565435"><ele></ele><time>2016-7-22T23:46:25Z</time></trkpt>
<trkpt lat="46.72614621672742" lon="7.18493697249556"><ele></ele><time>2016-7-22T23:46:28Z</time></trkpt>
<trkpt lat="46.72617479956535" lon="7.184890705028236"><ele></ele><time>2016-7-22T23:46:31Z</time></trkpt>
<trkpt lat="46.72623934140222" lon="7.18479154855141"><ele></ele><time>2016-7-22T23:46:34Z</time></trkpt>
<trkpt lat="46.72628108435937" lon="7.184697169271583"><ele></ele><time>2016-7-22T23:46:37Z</time></trkpt>
<trkpt lat="46.726199360623866" lon="7.18469599406799"><ele></ele><time>2016-7-22T23:46:40Z</time></trkpt>
<trkpt lat="46.72611135013339" lon="7.184724909743317"><ele></ele><time>2016-7-22T23:46:43Z</time></trkpt>
<trkpt lat="46.72607078147873" lon="7.1847391581066455"><ele></ele><time>2016-7-22T23:46:46Z</time></trkpt>
<trkpt lat="46.72592636005685" lon="7.1848249018488435"><ele></ele><time>2016-7-22T23:46:49Z</time></trkpt>
<trkpt lat="46.725807336347636" lon="7.184863875142257"><ele></ele><time>2016-7-22T23:46:52Z</time></trkpt>
<trkpt lat="46.72573332364769" lon="7.184894802771061"><ele></ele><time>2016-7-22T23:46:55Z</time></trkpt>
<trkpt lat="46.7257073396469" lon="7.184898657891521"><ele></ele><time>2016-7-22T23:46:58Z</time></trkpt>
<trkpt lat="46.725681104596305" lon="7.184863285725332"><ele></ele><time>2016-7-22T23:47:1Z</time></trkpt>
<trkpt lat="46.725645984955094" lon="7.184804108780682"><ele></ele><time>2016-7-22T23:47:4Z</time></trkpt>
<trkpt lat="46.72564363804111" lon="7.184801761799416"><ele></ele><time>2016-7-22T23:47:7Z</time></trkpt>
<trkpt lat="46.72564313552315" lon="7.184763540335124"><ele></ele><time>2016-7-22T23:47:10Z</time></trkpt>
<trkpt lat="46.725635927815645" lon="7.184691791137366"><ele></ele><time>2016-7-22T23:47:13Z</time></trkpt>
<trkpt lat="46.72563492213136" lon="7.184677709527806"><ele></ele><time>2016-7-22T23:47:16Z</time></trkpt>
<trkpt lat="46.72564305293204" lon="7.184645439394493"><ele></ele><time>2016-7-22T23:47:19Z</time></trkpt>
<trkpt lat="46.725637605228755" lon="7.184592884779933"><ele></ele><time>2016-7-22T23:47:22Z</time></trkpt>
<trkpt lat="46.725641712702185" lon="7.184561033655947"><ele></ele><time>2016-7-22T23:47:25Z</time></trkpt>
<trkpt lat="46.72568546689013" lon="7.184508060992922"><ele></ele><time>2016-7-22T23:47:28Z</time></trkpt>
<trkpt lat="46.72572176092272" lon="7.18447855748489"><ele></ele><time>2016-7-22T23:47:31Z</time></trkpt>
<trkpt lat="46.72572000103886" lon="7.184447795882859"><ele></ele><time>2016-7-22T23:47:34Z</time></trkpt>
<trkpt lat="46.72569418492848" lon="7.184427427322327"><ele></ele><time>2016-7-22T23:47:37Z</time></trkpt>
<trkpt lat="46.72565420357783" lon="7.184386941905968"><ele></ele><time>2016-7-22T23:47:40Z</time></trkpt>
<trkpt lat="46.72561321656124" lon="7.184330614681479"><ele></ele><time>2016-7-22T23:47:43Z</time></trkpt>
<trkpt lat="46.725567033137956" lon="7.184237239358418"><ele></ele><time>2016-7-22T23:47:46Z</time></trkpt>
<trkpt lat="46.72554046355711" lon="7.184130118140207"><ele></ele><time>2016-7-22T23:47:49Z</time></trkpt>
<trkpt lat="46.7255329208713" lon="7.184029702844898"><ele></ele><time>2016-7-22T23:47:52Z</time></trkpt>
<trkpt lat="46.72554348336033" lon="7.183907997914533"><ele></ele><time>2016-7-22T23:47:55Z</time></trkpt>
<trkpt lat="46.72554155623503" lon="7.183839098674164"><ele></ele><time>2016-7-22T23:47:58Z</time></trkpt>
<trkpt lat="46.725529989479" lon="7.183810516156776"><ele></ele><time>2016-7-22T23:48:1Z</time></trkpt>
<trkpt lat="46.725488834928086" lon="7.18374421446997"><ele></ele><time>2016-7-22T23:48:4Z</time></trkpt>
<trkpt lat="46.72540887199626" lon="7.183685455665227"><ele></ele><time>2016-7-22T23:48:7Z</time></trkpt>
<trkpt lat="46.72533687159801" lon="7.183654860206265"><ele></ele><time>2016-7-22T23:48:10Z</time></trkpt>
<trkpt lat="46.725277779200376" lon="7.183639687713818"><ele></ele><time>2016-7-22T23:48:13Z</time></trkpt>
<trkpt lat="46.72518599746453" lon="7.1836090918338"><ele></ele><time>2016-7-22T23:48:16Z</time></trkpt>
<trkpt lat="46.725120786122915" lon="7.183607414066502"><ele></ele><time>2016-7-22T23:48:19Z</time></trkpt>
<trkpt lat="46.725050629562936" lon="7.183594588269906"><ele></ele><time>2016-7-22T23:48:22Z</time></trkpt>
<trkpt lat="46.725014670951204" lon="7.183610261653557"><ele></ele><time>2016-7-22T23:48:25Z</time></trkpt>
<trkpt lat="46.72499120158672" lon="7.183608417136603"><ele></ele><time>2016-7-22T23:48:28Z</time></trkpt>
<trkpt lat="46.72496404404797" lon="7.18361889393093"><ele></ele><time>2016-7-22T23:48:31Z</time></trkpt>
<trkpt lat="46.7248706689759" lon="7.183662393993528"><ele></ele><time>2016-7-22T23:48:34Z</time></trkpt>
<trkpt lat="46.72473831802604" lon="7.183699858260446"><ele></ele><time>2016-7-22T23:48:37Z</time></trkpt>
<trkpt lat="46.72465232013134" lon="7.1836390876711596"><ele></ele><time>2016-7-22T23:48:40Z</time></trkpt>
<trkpt lat="46.724573949857955" lon="7.18357144408781"><ele></ele><time>2016-7-22T23:48:43Z</time></trkpt>
<trkpt lat="46.724471691040385" lon="7.183510002600341"><ele></ele><time>2016-7-22T23:48:46Z</time></trkpt>
<trkpt lat="46.72436716902528" lon="7.183456104772623"><ele></ele><time>2016-7-22T23:48:49Z</time></trkpt>
<trkpt lat="46.72426113881306" lon="7.183349484774947"><ele></ele><time>2016-7-22T23:48:52Z</time></trkpt>
<trkpt lat="46.72418469633173" lon="7.183286702732726"><ele></ele><time>2016-7-22T23:48:55Z</time></trkpt>
<trkpt lat="46.724090819403315" lon="7.183228530363124"><ele></ele><time>2016-7-22T23:48:58Z</time></trkpt>
<trkpt lat="46.72396576231875" lon="7.183113108966858"><ele></ele><time>2016-7-22T23:49:1Z</time></trkpt>
<trkpt lat="46.723889404538504" lon="7.182965669756825"><ele></ele><time>2016-7-22T23:49:4Z</time></trkpt>
<trkpt lat="46.723870462427634" lon="7.182866343863054"><ele></ele><time>2016-7-22T23:49:7Z</time></trkpt>
<trkpt lat="46.72382981121138" lon="7.182759892893754"><ele></ele><time>2016-7-22T23:49:10Z</time></trkpt>
<trkpt lat="46.723746748006164" lon="7.182601640891913"><ele></ele><time>2016-7-22T23:49:13Z</time></trkpt>
<trkpt lat="46.72370894655657" lon="7.182503571880915"><ele></ele><time>2016-7-22T23:49:16Z</time></trkpt>
<trkpt lat="46.72370450435236" lon="7.18248295231735"><ele></ele><time>2016-7-22T23:49:19Z</time></trkpt>
<trkpt lat="46.72369176457915" lon="7.182411035361588"><ele></ele><time>2016-7-22T23:49:22Z</time></trkpt>
<trkpt lat="46.72369427984319" lon="7.1823450698782505"><ele></ele><time>2016-7-22T23:49:25Z</time></trkpt>
<trkpt lat="46.723692519912746" lon="7.182318834500167"><ele></ele><time>2016-7-22T23:49:28Z</time></trkpt>
<trkpt lat="46.72365262358276" lon="7.182163181805328"><ele></ele><time>2016-7-22T23:49:31Z</time></trkpt>
<trkpt lat="46.72354885710731" lon="7.181997469472157"><ele></ele><time>2016-7-22T23:49:34Z</time></trkpt>
<trkpt lat="46.723464787598225" lon="7.181884731153392"><ele></ele><time>2016-7-22T23:49:37Z</time></trkpt>
<trkpt lat="46.723444084651206" lon="7.181846173981602"><ele></ele><time>2016-7-22T23:49:40Z</time></trkpt>
<trkpt lat="46.72343335594835" lon="7.181831002517677"><ele></ele><time>2016-7-22T23:49:43Z</time></trkpt>
<trkpt lat="46.723381723856264" lon="7.181778111641326"><ele></ele><time>2016-7-22T23:49:46Z</time></trkpt>
<trkpt lat="46.72334945420731" lon="7.181705858993068"><ele></ele><time>2016-7-22T23:49:49Z</time></trkpt>
<trkpt lat="46.723317435595774" lon="7.1816739232794795"><ele></ele><time>2016-7-22T23:49:52Z</time></trkpt>
<trkpt lat="46.723265384294976" lon="7.181631845042428"><ele></ele><time>2016-7-22T23:49:55Z</time></trkpt>
<trkpt lat="46.72323118641683" lon="7.181596724161086"><ele></ele><time>2016-7-22T23:49:58Z</time></trkpt>
<trkpt lat="46.72320201763024" lon="7.181567554534466"><ele></ele><time>2016-7-22T23:50:1Z</time></trkpt>
<trkpt lat="46.72318056027274" lon="7.181532601562509"><ele></ele><time>2016-7-22T23:50:4Z</time></trkpt>
<trkpt lat="46.72312792262372" lon="7.181453475323518"><ele></ele><time>2016-7-22T23:50:7Z</time></trkpt>
<trkpt lat="46.723091545741184" lon="7.181390023580254"><ele></ele><time>2016-7-22T23:50:10Z</time></trkpt>
<trkpt lat="46.72305097765093" lon="7.181350208700055"><ele></ele><time>2016-7-22T23:50:13Z</time></trkpt>
<trkpt lat="46.72299272393217" lon="7.18128851668901"><ele></ele><time>2016-7-22T23:50:16Z</time></trkpt>
<trkpt lat="46.722948803149876" lon="7.181241325666966"><ele></ele><time>2016-7-22T23:50:19Z</time></trkpt>
<trkpt lat="46.72293773916414" lon="7.181226740928559"><ele></ele><time>2016-7-22T23:50:22Z</time></trkpt>
<trkpt lat="46.7228673314305" lon="7.181186841593207"><ele></ele><time>2016-7-22T23:50:25Z</time></trkpt>
<trkpt lat="46.72274998585094" lon="7.181058679870672"><ele></ele><time>2016-7-22T23:50:28Z</time></trkpt>
<trkpt lat="46.72264638635453" lon="7.180956418505817"><ele></ele><time>2016-7-22T23:50:31Z</time></trkpt>
<trkpt lat="46.722518981846775" lon="7.1808878518635355"><ele></ele><time>2016-7-22T23:50:34Z</time></trkpt>
<trkpt lat="46.72234857846567" lon="7.180781984857719"><ele></ele><time>2016-7-22T23:50:37Z</time></trkpt>
<trkpt lat="46.72222628709726" lon="7.180697492717409"><ele></ele><time>2016-7-22T23:50:40Z</time></trkpt>
<trkpt lat="46.722175157524596" lon="7.1806826556676135"><ele></ele><time>2016-7-22T23:50:43Z</time></trkpt>
<trkpt lat="46.72215252648155" lon="7.180668489777255"><ele></ele><time>2016-7-22T23:50:46Z</time></trkpt>
<trkpt lat="46.72214288781368" lon="7.1806164379842885"><ele></ele><time>2016-7-22T23:50:49Z</time></trkpt>
<trkpt lat="46.722145402678166" lon="7.180588861593025"><ele></ele><time>2016-7-22T23:50:52Z</time></trkpt>
<trkpt lat="46.7221630898255" lon="7.1804651451536"><ele></ele><time>2016-7-22T23:50:55Z</time></trkpt>
<trkpt lat="46.72221598110879" lon="7.180335562136283"><ele></ele><time>2016-7-22T23:50:58Z</time></trkpt>
<trkpt lat="46.72228781600256" lon="7.180161387825152"><ele></ele><time>2016-7-22T23:51:1Z</time></trkpt>
<trkpt lat="46.722350681276275" lon="7.180079498021332"><ele></ele><time>2016-7-22T23:51:4Z</time></trkpt>
<trkpt lat="46.72241614517442" lon="7.1799757315190185"><ele></ele><time>2016-7-22T23:51:7Z</time></trkpt>
<trkpt lat="46.72247800489761" lon="7.179867019620137"><ele></ele><time>2016-7-22T23:51:10Z</time></trkpt>
<trkpt lat="46.72248504590943" lon="7.179848160499611"><ele></ele><time>2016-7-22T23:51:13Z</time></trkpt>
<trkpt lat="46.72249518958629" lon="7.179699633481659"><ele></ele><time>2016-7-22T23:51:16Z</time></trkpt>
<trkpt lat="46.722489406352885" lon="7.179671553999636"><ele></ele><time>2016-7-22T23:51:19Z</time></trkpt>
<trkpt lat="46.72246266982981" lon="7.17949821577641"><ele></ele><time>2016-7-22T23:51:22Z</time></trkpt>
<trkpt lat="46.72246216723481" lon="7.179467538018623"><ele></ele><time>2016-7-22T23:51:25Z</time></trkpt>
<trkpt lat="46.72245227673425" lon="7.179451444563218"><ele></ele><time>2016-7-22T23:51:28Z</time></trkpt>
<trkpt lat="46.722441045295895" lon="7.179419090196867"><ele></ele><time>2016-7-22T23:51:31Z</time></trkpt>
<trkpt lat="46.7224534505649" lon="7.17941682734909"><ele></ele><time>2016-7-22T23:51:34Z</time></trkpt>
<trkpt lat="46.722430483825775" lon="7.17944281074315"><ele></ele><time>2016-7-22T23:51:37Z</time></trkpt>
<trkpt lat="46.72243677040248" lon="7.179429902754204"><ele></ele><time>2016-7-22T23:51:40Z</time></trkpt>
<trkpt lat="46.72244029106816" lon="7.179405176229914"><ele></ele><time>2016-7-22T23:51:43Z</time></trkpt>
<trkpt lat="46.722449008742906" lon="7.179359662709221"><ele></ele><time>2016-7-22T23:51:46Z</time></trkpt>
<trkpt lat="46.72247935366349" lon="7.179133603564933"><ele></ele><time>2016-7-22T23:51:49Z</time></trkpt>
<trkpt lat="46.72250349691017" lon="7.178816768332035"><ele></ele><time>2016-7-22T23:51:52Z</time></trkpt>
<trkpt lat="46.722552450209605" lon="7.1785419269385375"><ele></ele><time>2016-7-22T23:51:55Z</time></trkpt>
<trkpt lat="46.722612382897864" lon="7.178356101537576"><ele></ele><time>2016-7-22T23:51:58Z</time></trkpt>
<trkpt lat="46.722700395395" lon="7.178135072764693"><ele></ele><time>2016-7-22T23:52:1Z</time></trkpt>
<trkpt lat="46.722798970189444" lon="7.1778112821477045"><ele></ele><time>2016-7-22T23:52:4Z</time></trkpt>
<trkpt lat="46.72285379133584" lon="7.177488747881469"><ele></ele><time>2016-7-22T23:52:7Z</time></trkpt>
<trkpt lat="46.7229571449232" lon="7.177060267461605"><ele></ele><time>2016-7-22T23:52:10Z</time></trkpt>
<trkpt lat="46.7230866492589" lon="7.176713175831957"><ele></ele><time>2016-7-22T23:52:13Z</time></trkpt>
<trkpt lat="46.72314096588485" lon="7.17654428174791"><ele></ele><time>2016-7-22T23:52:16Z</time></trkpt>
<trkpt lat="46.72318195550857" lon="7.176351079874893"><ele></ele><time>2016-7-22T23:52:19Z</time></trkpt>
<trkpt lat="46.72322218973817" lon="7.176255443278856"><ele></ele><time>2016-7-22T23:52:22Z</time></trkpt>
<trkpt lat="46.72322327940742" lon="7.176253599284591"><ele></ele><time>2016-7-22T23:52:25Z</time></trkpt>
<trkpt lat="46.7232414687393" lon="7.176200123164231"><ele></ele><time>2016-7-22T23:52:28Z</time></trkpt>
<trkpt lat="46.72326326233652" lon="7.176142959085849"><ele></ele><time>2016-7-22T23:52:31Z</time></trkpt>
<trkpt lat="46.72332470349927" lon="7.175983452880812"><ele></ele><time>2016-7-22T23:52:34Z</time></trkpt>
<trkpt lat="46.72336954885223" lon="7.175786060142108"><ele></ele><time>2016-7-22T23:52:37Z</time></trkpt>
<trkpt lat="46.723306769614254" lon="7.1756559717421355"><ele></ele><time>2016-7-22T23:52:40Z</time></trkpt>
<trkpt lat="46.72316696093972" lon="7.175484642755649"><ele></ele><time>2016-7-22T23:52:43Z</time></trkpt>
<trkpt lat="46.723014077351564" lon="7.1752288239564574"><ele></ele><time>2016-7-22T23:52:46Z</time></trkpt>
<trkpt lat="46.72286395906521" lon="7.175042994064146"><ele></ele><time>2016-7-22T23:52:49Z</time></trkpt>
<trkpt lat="46.72265441388922" lon="7.1747673927706"><ele></ele><time>2016-7-22T23:52:52Z</time></trkpt>
<trkpt lat="46.72245148912043" lon="7.17461701717492"><ele></ele><time>2016-7-22T23:52:55Z</time></trkpt>
<trkpt lat="46.722259125267925" lon="7.174495894628977"><ele></ele><time>2016-7-22T23:52:58Z</time></trkpt>
<trkpt lat="46.72200867529838" lon="7.174317019560416"><ele></ele><time>2016-7-22T23:53:1Z</time></trkpt>
<trkpt lat="46.721731151877385" lon="7.174123140313117"><ele></ele><time>2016-7-22T23:53:4Z</time></trkpt>
<trkpt lat="46.721383388225014" lon="7.173902772761626"><ele></ele><time>2016-7-22T23:53:7Z</time></trkpt>
<trkpt lat="46.72133737356489" lon="7.17370311496001"><ele></ele><time>2016-7-22T23:53:10Z</time></trkpt>
<trkpt lat="46.72120770917733" lon="7.173326345855977"><ele></ele><time>2016-7-22T23:53:13Z</time></trkpt>
<trkpt lat="46.72101257989297" lon="7.173148142517947"><ele></ele><time>2016-7-22T23:53:16Z</time></trkpt>
<trkpt lat="46.720739330226735" lon="7.173052415384291"><ele></ele><time>2016-7-22T23:53:19Z</time></trkpt>
<trkpt lat="46.72063003042219" lon="7.173008240438007"><ele></ele><time>2016-7-22T23:53:22Z</time></trkpt>
<trkpt lat="46.72048686821178" lon="7.172910672073493"><ele></ele><time>2016-7-22T23:53:25Z</time></trkpt>
<trkpt lat="46.720462812288076" lon="7.172892231381608"><ele></ele><time>2016-7-22T23:53:28Z</time></trkpt>
<trkpt lat="46.720329037687605" lon="7.172808325712162"><ele></ele><time>2016-7-22T23:53:31Z</time></trkpt>
<trkpt lat="46.72012661499979" lon="7.172738081065479"><ele></ele><time>2016-7-22T23:53:34Z</time></trkpt>
<trkpt lat="46.719981942909094" lon="7.172748639156824"><ele></ele><time>2016-7-22T23:53:37Z</time></trkpt>
<trkpt lat="46.719791086390465" lon="7.172762632836763"><ele></ele><time>2016-7-22T23:53:40Z</time></trkpt>
<trkpt lat="46.71957374351502" lon="7.172727340386256"><ele></ele><time>2016-7-22T23:53:43Z</time></trkpt>
<trkpt lat="46.71934164856414" lon="7.172681821703244"><ele></ele><time>2016-7-22T23:53:46Z</time></trkpt>
<trkpt lat="46.71900159372273" lon="7.172706038101757"><ele></ele><time>2016-7-22T23:53:49Z</time></trkpt>
<trkpt lat="46.71852692589052" lon="7.172665543358605"><ele></ele><time>2016-7-22T23:53:52Z</time></trkpt>
<trkpt lat="46.7183013698621" lon="7.172522794791186"><ele></ele><time>2016-7-22T23:53:55Z</time></trkpt>
<trkpt lat="46.71826314865939" lon="7.172488260549672"><ele></ele><time>2016-7-22T23:53:58Z</time></trkpt>
<trkpt lat="46.71819349568058" lon="7.172412570512159"><ele></ele><time>2016-7-22T23:54:1Z</time></trkpt>
<trkpt lat="46.71813113517747" lon="7.172317518445"><ele></ele><time>2016-7-22T23:54:4Z</time></trkpt>
<trkpt lat="46.717969031482724" lon="7.1720622861562315"><ele></ele><time>2016-7-22T23:54:7Z</time></trkpt>
<trkpt lat="46.717865683812" lon="7.171926161906198"><ele></ele><time>2016-7-22T23:54:10Z</time></trkpt>
<trkpt lat="46.717738112270204" lon="7.171801101242557"><ele></ele><time>2016-7-22T23:54:13Z</time></trkpt>
<trkpt lat="46.717475007308295" lon="7.1714608743321016"><ele></ele><time>2016-7-22T23:54:16Z</time></trkpt>
<trkpt lat="46.71743695403267" lon="7.17139893128444"><ele></ele><time>2016-7-22T23:54:19Z</time></trkpt>
<trkpt lat="46.71716178031985" lon="7.170943117728474"><ele></ele><time>2016-7-22T23:54:22Z</time></trkpt>
<trkpt lat="46.71705290194071" lon="7.170677828296773"><ele></ele><time>2016-7-22T23:54:25Z</time></trkpt>
<trkpt lat="46.71694327036088" lon="7.170301143413446"><ele></ele><time>2016-7-22T23:54:28Z</time></trkpt>
<trkpt lat="46.71691971789417" lon="7.170231321691123"><ele></ele><time>2016-7-22T23:54:31Z</time></trkpt>
<trkpt lat="46.71678871168344" lon="7.169924122288396"><ele></ele><time>2016-7-22T23:54:34Z</time></trkpt>
<trkpt lat="46.71656827058818" lon="7.169595714759964"><ele></ele><time>2016-7-22T23:54:37Z</time></trkpt>
<trkpt lat="46.71653868273932" lon="7.16956377909008"><ele></ele><time>2016-7-22T23:54:40Z</time></trkpt>
<trkpt lat="46.716435167000355" lon="7.169468893772309"><ele></ele><time>2016-7-22T23:54:43Z</time></trkpt>
<trkpt lat="46.716195279348476" lon="7.169187927370645"><ele></ele><time>2016-7-22T23:54:46Z</time></trkpt>
<trkpt lat="46.71605605925046" lon="7.168843428336381"><ele></ele><time>2016-7-22T23:54:49Z</time></trkpt>
<trkpt lat="46.71596922522431" lon="7.168588365287647"><ele></ele><time>2016-7-22T23:54:52Z</time></trkpt>
<trkpt lat="46.715962436788274" lon="7.168500941936383"><ele></ele><time>2016-7-22T23:54:55Z</time></trkpt>
<trkpt lat="46.71599789563672" lon="7.168185950938383"><ele></ele><time>2016-7-22T23:54:58Z</time></trkpt>
<trkpt lat="46.71601432574057" lon="7.168040106251016"><ele></ele><time>2016-7-22T23:55:1Z</time></trkpt>
<trkpt lat="46.71600049772347" lon="7.167835671440017"><ele></ele><time>2016-7-22T23:55:4Z</time></trkpt>
<trkpt lat="46.715988763747276" lon="7.167767861625773"><ele></ele><time>2016-7-22T23:55:7Z</time></trkpt>
<trkpt lat="46.7159609377583" lon="7.167578849207595"><ele></ele><time>2016-7-22T23:55:10Z</time></trkpt>
<trkpt lat="46.71595993265478" lon="7.16750986615814"><ele></ele><time>2016-7-22T23:55:13Z</time></trkpt>
<trkpt lat="46.71598893865165" lon="7.167078618084298"><ele></ele><time>2016-7-22T23:55:16Z</time></trkpt>
<trkpt lat="46.71592339667123" lon="7.166637728792754"><ele></ele><time>2016-7-22T23:55:19Z</time></trkpt>
<trkpt lat="46.715884590941855" lon="7.166394149975852"><ele></ele><time>2016-7-22T23:55:22Z</time></trkpt>
<trkpt lat="46.715823404270395" lon="7.166265318872964"><ele></ele><time>2016-7-22T23:55:25Z</time></trkpt>
<trkpt lat="46.715690303670755" lon="7.165855776427185"><ele></ele><time>2016-7-22T23:55:28Z</time></trkpt>
<trkpt lat="46.71564864973904" lon="7.165455958951745"><ele></ele><time>2016-7-22T23:55:31Z</time></trkpt>
<trkpt lat="46.715656027319" lon="7.165314975570697"><ele></ele><time>2016-7-22T23:55:34Z</time></trkpt>
<trkpt lat="46.71565468886252" lon="7.165063937669077"><ele></ele><time>2016-7-22T23:55:37Z</time></trkpt>
<trkpt lat="46.715631808990054" lon="7.16480124846388"><ele></ele><time>2016-7-22T23:55:40Z</time></trkpt>
<trkpt lat="46.71556836082739" lon="7.164518525645974"><ele></ele><time>2016-7-22T23:55:43Z</time></trkpt>
<trkpt lat="46.7154852146651" lon="7.164281567571298"><ele></ele><time>2016-7-22T23:55:46Z</time></trkpt>
<trkpt lat="46.71542964371996" lon="7.164168243099935"><ele></ele><time>2016-7-22T23:55:49Z</time></trkpt>
<trkpt lat="46.71526829720025" lon="7.163649986809334"><ele></ele><time>2016-7-22T23:55:52Z</time></trkpt>
<trkpt lat="46.71510033272778" lon="7.1627760025804355"><ele></ele><time>2016-7-22T23:55:55Z</time></trkpt>
<trkpt lat="46.71495893761897" lon="7.162028166500879"><ele></ele><time>2016-7-22T23:55:58Z</time></trkpt>
<trkpt lat="46.71483648385895" lon="7.161450231920499"><ele></ele><time>2016-7-22T23:56:1Z</time></trkpt>
<trkpt lat="46.71489054987715" lon="7.161202715609777"><ele></ele><time>2016-7-22T23:56:4Z</time></trkpt>
<trkpt lat="46.71492768242619" lon="7.161142785833636"><ele></ele><time>2016-7-22T23:56:7Z</time></trkpt>
<trkpt lat="46.71504913691914" lon="7.161100878961321"><ele></ele><time>2016-7-22T23:56:10Z</time></trkpt>
<trkpt lat="46.71520411953521" lon="7.161017901508199"><ele></ele><time>2016-7-22T23:56:13Z</time></trkpt>
<trkpt lat="46.71522255996068" lon="7.160999294090705"><ele></ele><time>2016-7-22T23:56:16Z</time></trkpt>
<trkpt lat="46.715236222418895" lon="7.1610063351809"><ele></ele><time>2016-7-22T23:56:19Z</time></trkpt>
<trkpt lat="46.71528793863585" lon="7.161029135062963"><ele></ele><time>2016-7-22T23:56:22Z</time></trkpt>
<trkpt lat="46.715303109933274" lon="7.161027375191815"><ele></ele><time>2016-7-22T23:56:25Z</time></trkpt>
<trkpt lat="46.71530109904282" lon="7.16095462026534"><ele></ele><time>2016-7-22T23:56:28Z</time></trkpt>
<trkpt lat="46.715341166890155" lon="7.16074130180205"><ele></ele><time>2016-7-22T23:56:31Z</time></trkpt>
<trkpt lat="46.71540730341421" lon="7.160443159084715"><ele></ele><time>2016-7-22T23:56:34Z</time></trkpt>
<trkpt lat="46.71548735575491" lon="7.1599728524642785"><ele></ele><time>2016-7-22T23:56:37Z</time></trkpt>
<trkpt lat="46.71564988905243" lon="7.159234578319221"><ele></ele><time>2016-7-22T23:56:40Z</time></trkpt>
<trkpt lat="46.715840077654214" lon="7.158971474624739"><ele></ele><time>2016-7-22T23:56:43Z</time></trkpt>
<trkpt lat="46.716107881255446" lon="7.15885907915218"><ele></ele><time>2016-7-22T23:56:46Z</time></trkpt>
<trkpt lat="46.716188012695135" lon="7.1588341028265665"><ele></ele><time>2016-7-22T23:56:49Z</time></trkpt>
<trkpt lat="46.71630192371125" lon="7.158768558841162"><ele></ele><time>2016-7-22T23:56:52Z</time></trkpt>
<trkpt lat="46.716333021214034" lon="7.158714663904165"><ele></ele><time>2016-7-22T23:56:55Z</time></trkpt>
<trkpt lat="46.71632648557545" lon="7.158501679713088"><ele></ele><time>2016-7-22T23:56:58Z</time></trkpt>
<trkpt lat="46.71632330224955" lon="7.1583316947355895"><ele></ele><time>2016-7-22T23:57:1Z</time></trkpt>
<trkpt lat="46.716314755801214" lon="7.158038579547939"><ele></ele><time>2016-7-22T23:57:4Z</time></trkpt>
<trkpt lat="46.71635549679041" lon="7.157582102218456"><ele></ele><time>2016-7-22T23:57:7Z</time></trkpt>
<trkpt lat="46.71646278704614" lon="7.1574264526794735"><ele></ele><time>2016-7-22T23:57:10Z</time></trkpt>
<trkpt lat="46.71656110766508" lon="7.157363087652797"><ele></ele><time>2016-7-22T23:57:13Z</time></trkpt>
<trkpt lat="46.71669798519782" lon="7.157292934123005"><ele></ele><time>2016-7-22T23:57:16Z</time></trkpt>
<trkpt lat="46.716874005000435" lon="7.1573457438961"><ele></ele><time>2016-7-22T23:57:19Z</time></trkpt>
<trkpt lat="46.71719536684736" lon="7.157444238163523"><ele></ele><time>2016-7-22T23:57:22Z</time></trkpt>
<trkpt lat="46.717484625801795" lon="7.157555136945283"><ele></ele><time>2016-7-22T23:57:25Z</time></trkpt>
<trkpt lat="46.7179406004607" lon="7.157734603265758"><ele></ele><time>2016-7-22T23:57:28Z</time></trkpt>
<trkpt lat="46.71840990271102" lon="7.157882721571708"><ele></ele><time>2016-7-22T23:57:31Z</time></trkpt>
<trkpt lat="46.71859983684762" lon="7.1579035127908"><ele></ele><time>2016-7-22T23:57:34Z</time></trkpt>
<trkpt lat="46.718648452487855" lon="7.1578572457628304"><ele></ele><time>2016-7-22T23:57:37Z</time></trkpt>
<trkpt lat="46.718730932997246" lon="7.157631774476619"><ele></ele><time>2016-7-22T23:57:40Z</time></trkpt>
<trkpt lat="46.71874903865083" lon="7.157565725507884"><ele></ele><time>2016-7-22T23:57:43Z</time></trkpt>
<trkpt lat="46.71878055579852" lon="7.157460281906294"><ele></ele><time>2016-7-22T23:57:46Z</time></trkpt>
<trkpt lat="46.718797068655455" lon="7.157416025839407"><ele></ele><time>2016-7-22T23:57:49Z</time></trkpt>
<trkpt lat="46.71881944925513" lon="7.157334386632032"><ele></ele><time>2016-7-22T23:57:52Z</time></trkpt>
<trkpt lat="46.71885909719802" lon="7.157197846363092"><ele></ele><time>2016-7-22T23:57:55Z</time></trkpt>
<trkpt lat="46.718998155440765" lon="7.156995258886541"><ele></ele><time>2016-7-22T23:57:58Z</time></trkpt>
<trkpt lat="46.719223797692976" lon="7.156910103684093"><ele></ele><time>2016-7-22T23:58:1Z</time></trkpt>
<trkpt lat="46.71939478891714" lon="7.156909185378358"><ele></ele><time>2016-7-22T23:58:4Z</time></trkpt>
<trkpt lat="46.71942949007719" lon="7.156909018491902"><ele></ele><time>2016-7-22T23:58:7Z</time></trkpt>
<trkpt lat="46.71968614401047" lon="7.156958644889029"><ele></ele><time>2016-7-22T23:58:10Z</time></trkpt>
<trkpt lat="46.7199252793179" lon="7.157046743820209"><ele></ele><time>2016-7-22T23:58:13Z</time></trkpt>
<trkpt lat="46.720084870301406" lon="7.157123693103505"><ele></ele><time>2016-7-22T23:58:16Z</time></trkpt>
<trkpt lat="46.72028963963113" lon="7.157220927558798"><ele></ele><time>2016-7-22T23:58:19Z</time></trkpt>
<trkpt lat="46.720470604520884" lon="7.157297542028189"><ele></ele><time>2016-7-22T23:58:22Z</time></trkpt>
<trkpt lat="46.72058996272853" lon="7.1573320780336935"><ele></ele><time>2016-7-22T23:58:25Z</time></trkpt>
<trkpt lat="46.72078115342796" lon="7.157421517028335"><ele></ele><time>2016-7-22T23:58:28Z</time></trkpt>
<trkpt lat="46.7209859222206" lon="7.157569461966555"><ele></ele><time>2016-7-22T23:58:31Z</time></trkpt>
<trkpt lat="46.72115875611019" lon="7.157696619104957"><ele></ele><time>2016-7-22T23:58:34Z</time></trkpt>
<trkpt lat="46.72131172531758" lon="7.157779184114059"><ele></ele><time>2016-7-22T23:58:37Z</time></trkpt>
<trkpt lat="46.72146360499461" lon="7.1578505173556"><ele></ele><time>2016-7-22T23:58:40Z</time></trkpt>
<trkpt lat="46.721610706934264" lon="7.157925789985602"><ele></ele><time>2016-7-22T23:58:43Z</time></trkpt>
<trkpt lat="46.72176250270001" lon="7.15800584039887"><ele></ele><time>2016-7-22T23:58:46Z</time></trkpt>
<trkpt lat="46.72192620096682" lon="7.158069797824887"><ele></ele><time>2016-7-22T23:58:49Z</time></trkpt>
<trkpt lat="46.72207405800378" lon="7.158076925638243"><ele></ele><time>2016-7-22T23:58:52Z</time></trkpt>
<trkpt lat="46.72228578557339" lon="7.158057400397788"><ele></ele><time>2016-7-22T23:58:55Z</time></trkpt>
<trkpt lat="46.722560630274046" lon="7.157919775579185"><ele></ele><time>2016-7-22T23:58:58Z</time></trkpt>
<trkpt lat="46.72274595656617" lon="7.157732863263198"><ele></ele><time>2016-7-22T23:59:1Z</time></trkpt>
<trkpt lat="46.722874955893296" lon="7.157587943038065"><ele></ele><time>2016-7-22T23:59:4Z</time></trkpt>
<trkpt lat="46.723046620255474" lon="7.157344284978208"><ele></ele><time>2016-7-22T23:59:7Z</time></trkpt>
<trkpt lat="46.72322105074368" lon="7.157092077443472"><ele></ele><time>2016-7-22T23:59:10Z</time></trkpt>
<trkpt lat="46.7233548278624" lon="7.156938272512109"><ele></ele><time>2016-7-22T23:59:13Z</time></trkpt>
<trkpt lat="46.723508722798336" lon="7.156671312394179"><ele></ele><time>2016-7-22T23:59:16Z</time></trkpt>
<trkpt lat="46.72361584748285" lon="7.156321957206905"><ele></ele><time>2016-7-22T23:59:19Z</time></trkpt>
<trkpt lat="46.72362875788413" lon="7.156111236571405"><ele></ele><time>2016-7-22T23:59:22Z</time></trkpt>
<trkpt lat="46.72361291881627" lon="7.155851145933743"><ele></ele><time>2016-7-22T23:59:25Z</time></trkpt>
<trkpt lat="46.72356271380659" lon="7.1555966704226215"><ele></ele><time>2016-7-22T23:59:28Z</time></trkpt>
<trkpt lat="46.72349457227592" lon="7.155267679449041"><ele></ele><time>2016-7-22T23:59:31Z</time></trkpt>
<trkpt lat="46.723433971884404" lon="7.155182266594391"><ele></ele><time>2016-7-22T23:59:34Z</time></trkpt>
<trkpt lat="46.72343078675025" lon="7.15518260180125"><ele></ele><time>2016-7-22T23:59:37Z</time></trkpt>
<trkpt lat="46.72337236470523" lon="7.15518679148344"><ele></ele><time>2016-7-22T23:59:40Z</time></trkpt>
<trkpt lat="46.723308913853636" lon="7.1551583754733015"><ele></ele><time>2016-7-22T23:59:43Z</time></trkpt>
<trkpt lat="46.723244289296595" lon="7.1551521714674315"><ele></ele><time>2016-7-22T23:59:46Z</time></trkpt>
<trkpt lat="46.72317782065415" lon="7.155151834750195"><ele></ele><time>2016-7-22T23:59:49Z</time></trkpt>
<trkpt lat="46.72314806486027" lon="7.155148900440654"><ele></ele><time>2016-7-22T23:59:52Z</time></trkpt>
<trkpt lat="46.72313197150828" lon="7.15515459978235"><ele></ele><time>2016-7-22T23:59:55Z</time></trkpt>
<trkpt lat="46.723073549614156" lon="7.155144624056849"><ele></ele><time>2016-7-22T23:59:58Z</time></trkpt>
<trkpt lat="46.72299149070471" lon="7.155134061085921"><ele></ele><time>2016-7-23T0:0:1Z</time></trkpt>
<trkpt lat="46.72296098055566" lon="7.155129450380397"><ele></ele><time>2016-7-23T0:0:4Z</time></trkpt>
<trkpt lat="46.72294228887195" lon="7.155129114699158"><ele></ele><time>2016-7-23T0:0:7Z</time></trkpt>
<trkpt lat="46.72291203006196" lon="7.155135651923508"><ele></ele><time>2016-7-23T0:0:10Z</time></trkpt>
<trkpt lat="46.722897277913056" lon="7.155132382663374"><ele></ele><time>2016-7-23T0:0:13Z</time></trkpt>
<trkpt lat="46.722869282145496" lon="7.155146128369144"><ele></ele><time>2016-7-23T0:0:16Z</time></trkpt>
<trkpt lat="46.72282494208385" lon="7.155117126040328"><ele></ele><time>2016-7-23T0:0:19Z</time></trkpt>
<trkpt lat="46.72279661103403" lon="7.155131374652721"><ele></ele><time>2016-7-23T0:0:22Z</time></trkpt>
<trkpt lat="46.722772387260946" lon="7.15513296668809"><ele></ele><time>2016-7-23T0:0:25Z</time></trkpt>
<trkpt lat="46.72277322498939" lon="7.155176552576287"><ele></ele><time>2016-7-23T0:0:28Z</time></trkpt>
<trkpt lat="46.72275402983469" lon="7.155228436109218"><ele></ele><time>2016-7-23T0:0:31Z</time></trkpt>
<trkpt lat="46.72269904384672" lon="7.155282581978643"><ele></ele><time>2016-7-23T0:0:34Z</time></trkpt>
<trkpt lat="46.72267976538119" lon="7.155286688690713"><ele></ele><time>2016-7-23T0:0:37Z</time></trkpt>
<trkpt lat="46.72263902861701" lon="7.155345025818235"><ele></ele><time>2016-7-23T0:0:40Z</time></trkpt>
<trkpt lat="46.72261639729597" lon="7.155357262898794"><ele></ele><time>2016-7-23T0:0:43Z</time></trkpt>
<trkpt lat="46.72258085711958" lon="7.1554347946857355"><ele></ele><time>2016-7-23T0:0:46Z</time></trkpt>
<trkpt lat="46.72257666607716" lon="7.1554424221221495"><ele></ele><time>2016-7-23T0:0:49Z</time></trkpt>
<trkpt lat="46.72251983547345" lon="7.155552307574349"><ele></ele><time>2016-7-23T0:0:52Z</time></trkpt>
<trkpt lat="46.722459904140756" lon="7.155607459164789"><ele></ele><time>2016-7-23T0:0:55Z</time></trkpt>
<trkpt lat="46.7224319911601" lon="7.155718267252908"><ele></ele><time>2016-7-23T0:0:58Z</time></trkpt>
<trkpt lat="46.72243366601033" lon="7.155862519755912"><ele></ele><time>2016-7-23T0:1:1Z</time></trkpt>
<trkpt lat="46.72236300534813" lon="7.155961759898322"><ele></ele><time>2016-7-23T0:1:4Z</time></trkpt>
<trkpt lat="46.722289243708985" lon="7.156029567855711"><ele></ele><time>2016-7-23T0:1:7Z</time></trkpt>
<trkpt lat="46.722200813706436" lon="7.156097291676392"><ele></ele><time>2016-7-23T0:1:10Z</time></trkpt>
<trkpt lat="46.72217013562946" lon="7.156119922136615"><ele></ele><time>2016-7-23T0:1:13Z</time></trkpt>
<trkpt lat="46.72214993487717" lon="7.156149928894274"><ele></ele><time>2016-7-23T0:1:16Z</time></trkpt>
<trkpt lat="46.722147420230904" lon="7.156156466720341"><ele></ele><time>2016-7-23T0:1:19Z</time></trkpt>
<trkpt lat="46.722125375711485" lon="7.156162417390348"><ele></ele><time>2016-7-23T0:1:22Z</time></trkpt>
<trkpt lat="46.72205429646158" lon="7.156213880704878"><ele></ele><time>2016-7-23T0:1:25Z</time></trkpt>
<trkpt lat="46.7219854800189" lon="7.156294680712161"><ele></ele><time>2016-7-23T0:1:28Z</time></trkpt>
<trkpt lat="46.72193275622053" lon="7.15643633364907"><ele></ele><time>2016-7-23T0:1:31Z</time></trkpt>
<trkpt lat="46.72187190257502" lon="7.156519899855622"><ele></ele><time>2016-7-23T0:1:34Z</time></trkpt>
<trkpt lat="46.721828315962505" lon="7.156577817827895"><ele></ele><time>2016-7-23T0:1:37Z</time></trkpt>
<trkpt lat="46.72181842518173" lon="7.156588378805356"><ele></ele><time>2016-7-23T0:1:40Z</time></trkpt>
<trkpt lat="46.721743574577594" lon="7.156591813762144"><ele></ele><time>2016-7-23T0:1:43Z</time></trkpt>
<trkpt lat="46.721713651176785" lon="7.1565859457851735"><ele></ele><time>2016-7-23T0:1:46Z</time></trkpt>
<trkpt lat="46.721654894048264" lon="7.156572030561291"><ele></ele><time>2016-7-23T0:1:49Z</time></trkpt>
<trkpt lat="46.721618014137434" lon="7.156520481088314"><ele></ele><time>2016-7-23T0:1:52Z</time></trkpt>
<trkpt lat="46.72160971616964" lon="7.156507740423255"><ele></ele><time>2016-7-23T0:1:55Z</time></trkpt>
<trkpt lat="46.72158783986351" lon="7.156459627853526"><ele></ele><time>2016-7-23T0:1:58Z</time></trkpt>
<trkpt lat="46.72155548632276" lon="7.156395673269127"><ele></ele><time>2016-7-23T0:2:1Z</time></trkpt>
<trkpt lat="46.721512739901335" lon="7.156265585282445"><ele></ele><time>2016-7-23T0:2:4Z</time></trkpt>
<trkpt lat="46.721505448389024" lon="7.156194087532526"><ele></ele><time>2016-7-23T0:2:7Z</time></trkpt>
<trkpt lat="46.7214999164423" lon="7.156182604212079"><ele></ele><time>2016-7-23T0:2:10Z</time></trkpt>
<trkpt lat="46.72154115556045" lon="7.1561769892338525"><ele></ele><time>2016-7-23T0:2:13Z</time></trkpt>
<trkpt lat="46.72153512119482" lon="7.156118818729382"><ele></ele><time>2016-7-23T0:2:16Z</time></trkpt>
<trkpt lat="46.7215269074055" lon="7.156072299016213"><ele></ele><time>2016-7-23T0:2:19Z</time></trkpt>
<trkpt lat="46.72152271765831" lon="7.1559581374715115"><ele></ele><time>2016-7-23T0:2:22Z</time></trkpt>
<trkpt lat="46.72151685080646" lon="7.155911701628162"><ele></ele><time>2016-7-23T0:2:25Z</time></trkpt>
<trkpt lat="46.72150846919422" lon="7.1558825324406605"><ele></ele><time>2016-7-23T0:2:28Z</time></trkpt>
<trkpt lat="46.72147720551768" lon="7.15579846132378"><ele></ele><time>2016-7-23T0:2:31Z</time></trkpt>
<trkpt lat="46.721479637093616" lon="7.155721515550669"><ele></ele><time>2016-7-23T0:2:34Z</time></trkpt>
<trkpt lat="46.72147586560744" lon="7.155685892401416"><ele></ele><time>2016-7-23T0:2:37Z</time></trkpt>
<trkpt lat="46.72146203636002" lon="7.155598971816924"><ele></ele><time>2016-7-23T0:2:40Z</time></trkpt>
<trkpt lat="46.72145575073406" lon="7.155522277311783"><ele></ele><time>2016-7-23T0:2:43Z</time></trkpt>
<trkpt lat="46.721411076444724" lon="7.155394703852058"><ele></ele><time>2016-7-23T0:2:46Z</time></trkpt>
<trkpt lat="46.72140277877938" lon="7.155353548551783"><ele></ele><time>2016-7-23T0:2:49Z</time></trkpt>
<trkpt lat="46.72140277910758" lon="7.155322703166244"><ele></ele><time>2016-7-23T0:2:52Z</time></trkpt>
<trkpt lat="46.721398253386745" lon="7.155274088058295"><ele></ele><time>2016-7-23T0:2:55Z</time></trkpt>
<trkpt lat="46.72139624194655" lon="7.155253300907033"><ele></ele><time>2016-7-23T0:2:58Z</time></trkpt>
<trkpt lat="46.721380149323515" lon="7.155190520140238"><ele></ele><time>2016-7-23T0:3:1Z</time></trkpt>
<trkpt lat="46.721368415021885" lon="7.155153890990454"><ele></ele><time>2016-7-23T0:3:4Z</time></trkpt>
<trkpt lat="46.72136916969818" lon="7.155125392552766"><ele></ele><time>2016-7-23T0:3:7Z</time></trkpt>
<trkpt lat="46.72136967342613" lon="7.1550490334706325"><ele></ele><time>2016-7-23T0:3:10Z</time></trkpt>
<trkpt lat="46.72134972541774" lon="7.154958173261018"><ele></ele><time>2016-7-23T0:3:13Z</time></trkpt>
<trkpt lat="46.72135316209157" lon="7.154950126713221"><ele></ele><time>2016-7-23T0:3:16Z</time></trkpt>
<trkpt lat="46.72135400046133" lon="7.154933446753881"><ele></ele><time>2016-7-23T0:3:19Z</time></trkpt>
<trkpt lat="46.72132927427549" lon="7.154887848691164"><ele></ele><time>2016-7-23T0:3:22Z</time></trkpt>
<trkpt lat="46.72133212429774" lon="7.154872006965267"><ele></ele><time>2016-7-23T0:3:25Z</time></trkpt>
<trkpt lat="46.72132349142884" lon="7.154823978501044"><ele></ele><time>2016-7-23T0:3:28Z</time></trkpt>
<trkpt lat="46.72131125395059" lon="7.15481190830215"><ele></ele><time>2016-7-23T0:3:31Z</time></trkpt>
<trkpt lat="46.72130924264607" lon="7.154778380665503"><ele></ele><time>2016-7-23T0:3:34Z</time></trkpt>
<trkpt lat="46.72134017198533" lon="7.154774106568193"><ele></ele><time>2016-7-23T0:3:37Z</time></trkpt>
<trkpt lat="46.72134042358755" lon="7.154760527898479"><ele></ele><time>2016-7-23T0:3:40Z</time></trkpt>
<trkpt lat="46.72134712927805" lon="7.1547461949979025"><ele></ele><time>2016-7-23T0:3:43Z</time></trkpt>
<trkpt lat="46.72134419586038" lon="7.154722222705276"><ele></ele><time>2016-7-23T0:3:46Z</time></trkpt>
<trkpt lat="46.721348889981414" lon="7.154699256405877"><ele></ele><time>2016-7-23T0:3:49Z</time></trkpt>
<trkpt lat="46.72133078536624" lon="7.154667572437794"><ele></ele><time>2016-7-23T0:3:52Z</time></trkpt>
<trkpt lat="46.721308993267414" lon="7.154583082430692"><ele></ele><time>2016-7-23T0:3:55Z</time></trkpt>
<trkpt lat="46.72130647897713" lon="7.154556176482749"><ele></ele><time>2016-7-23T0:3:58Z</time></trkpt>
<trkpt lat="46.72127429319014" lon="7.154481493071085"><ele></ele><time>2016-7-23T0:4:1Z</time></trkpt>
<trkpt lat="46.72127655643234" lon="7.154469926100579"><ele></ele><time>2016-7-23T0:4:4Z</time></trkpt>
<trkpt lat="46.72130212174909" lon="7.154427346612004"><ele></ele><time>2016-7-23T0:4:7Z</time></trkpt>
<trkpt lat="46.72128837595679" lon="7.15437470799274"><ele></ele><time>2016-7-23T0:4:10Z</time></trkpt>
<trkpt lat="46.72129147789999" lon="7.154315364220352"><ele></ele><time>2016-7-23T0:4:13Z</time></trkpt>
<trkpt lat="46.721277480382284" lon="7.154287871290385"><ele></ele><time>2016-7-23T0:4:16Z</time></trkpt>
<trkpt lat="46.72127731316067" lon="7.154248727821876"><ele></ele><time>2016-7-23T0:4:19Z</time></trkpt>
<trkpt lat="46.721292820085786" lon="7.154214110918498"><ele></ele><time>2016-7-23T0:4:22Z</time></trkpt>
<trkpt lat="46.72127396112275" lon="7.154180080002386"><ele></ele><time>2016-7-23T0:4:25Z</time></trkpt>
<trkpt lat="46.72126046659898" lon="7.154145211012824"><ele></ele><time>2016-7-23T0:4:28Z</time></trkpt>
<trkpt lat="46.72125627578237" lon="7.154131632246709"><ele></ele><time>2016-7-23T0:4:31Z</time></trkpt>
<trkpt lat="46.72127035755844" lon="7.154117886239092"><ele></ele><time>2016-7-23T0:4:34Z</time></trkpt>
<trkpt lat="46.721278153657735" lon="7.154032307227"><ele></ele><time>2016-7-23T0:4:37Z</time></trkpt>
<trkpt lat="46.721270023507216" lon="7.1540028027687015"><ele></ele><time>2016-7-23T0:4:40Z</time></trkpt>
<trkpt lat="46.721252086382506" lon="7.153985032755163"><ele></ele><time>2016-7-23T0:4:43Z</time></trkpt>
<trkpt lat="46.721261222828815" lon="7.15397086754535"><ele></ele><time>2016-7-23T0:4:46Z</time></trkpt>
<trkpt lat="46.72122920478958" lon="7.1538859582211245"><ele></ele><time>2016-7-23T0:4:49Z</time></trkpt>
<trkpt lat="46.721232055172656" lon="7.153836253626259"><ele></ele><time>2016-7-23T0:4:52Z</time></trkpt>
<trkpt lat="46.721240940068455" lon="7.153830805585203"><ele></ele><time>2016-7-23T0:4:55Z</time></trkpt>
<trkpt lat="46.72123264234562" lon="7.153795098518509"><ele></ele><time>2016-7-23T0:4:58Z</time></trkpt>
<trkpt lat="46.72122426062233" lon="7.15377640670347"><ele></ele><time>2016-7-23T0:5:1Z</time></trkpt>
<trkpt lat="46.72120707871628" lon="7.153679260129632"><ele></ele><time>2016-7-23T0:5:4Z</time></trkpt>
<trkpt lat="46.72121696959815" lon="7.153659227607438"><ele></ele><time>2016-7-23T0:5:7Z</time></trkpt>
<trkpt lat="46.72122568709661" lon="7.153631148437445"><ele></ele><time>2016-7-23T0:5:10Z</time></trkpt>
<trkpt lat="46.72124119436125" lon="7.15356468032077"><ele></ele><time>2016-7-23T0:5:13Z</time></trkpt>
<trkpt lat="46.72124823528683" lon="7.153554286919746"><ele></ele><time>2016-7-23T0:5:16Z</time></trkpt>
<trkpt lat="46.721256449929804" lon="7.153520591867028"><ele></ele><time>2016-7-23T0:5:19Z</time></trkpt>
<trkpt lat="46.72125292948934" lon="7.153523693092969"><ele></ele><time>2016-7-23T0:5:22Z</time></trkpt>
<trkpt lat="46.721186461281306" lon="7.153482704167664"><ele></ele><time>2016-7-23T0:5:25Z</time></trkpt>
<trkpt lat="46.72122325820025" lon="7.153456469624816"><ele></ele><time>2016-7-23T0:5:28Z</time></trkpt>
<trkpt lat="46.7212365855989" lon="7.153443142695868"><ele></ele><time>2016-7-23T0:5:31Z</time></trkpt>
<trkpt lat="46.72127187412819" lon="7.153383464346247"><ele></ele><time>2016-7-23T0:5:34Z</time></trkpt>
<trkpt lat="46.72127313150856" lon="7.153374831018332"><ele></ele><time>2016-7-23T0:5:37Z</time></trkpt>
<trkpt lat="46.721307413870484" lon="7.15334675240337"><ele></ele><time>2016-7-23T0:5:40Z</time></trkpt>
<trkpt lat="46.72130666006823" lon="7.1532931920571325"><ele></ele><time>2016-7-23T0:5:43Z</time></trkpt>
<trkpt lat="46.72130615782371" lon="7.153230243990306"><ele></ele><time>2016-7-23T0:5:46Z</time></trkpt>
<trkpt lat="46.7213094279017" lon="7.153124380686299"><ele></ele><time>2016-7-23T0:5:49Z</time></trkpt>
<trkpt lat="46.7213135353644" lon="7.15309428976073"><ele></ele><time>2016-7-23T0:5:52Z</time></trkpt>
<trkpt lat="46.721335580703055" lon="7.15301147708462"><ele></ele><time>2016-7-23T0:5:55Z</time></trkpt>
<trkpt lat="46.721348069891654" lon="7.152999826517227"><ele></ele><time>2016-7-23T0:5:58Z</time></trkpt>
<trkpt lat="46.72135008176209" lon="7.152980212918998"><ele></ele><time>2016-7-23T0:6:1Z</time></trkpt>
<trkpt lat="46.721359805337116" lon="7.152929083550794"><ele></ele><time>2016-7-23T0:6:4Z</time></trkpt>
<trkpt lat="46.721358799793244" lon="7.1529021776355695"><ele></ele><time>2016-7-23T0:6:7Z</time></trkpt>
<trkpt lat="46.7213764864707" lon="7.152825148374709"><ele></ele><time>2016-7-23T0:6:10Z</time></trkpt>
<trkpt lat="46.721401045708944" lon="7.152805870542064"><ele></ele><time>2016-7-23T0:6:13Z</time></trkpt>
<trkpt lat="46.72139341846245" lon="7.152777455741369"><ele></ele><time>2016-7-23T0:6:16Z</time></trkpt>
<trkpt lat="46.72137120669507" lon="7.152746777511406"><ele></ele><time>2016-7-23T0:6:19Z</time></trkpt>
<trkpt lat="46.72136014261556" lon="7.152741329037263"><ele></ele><time>2016-7-23T0:6:22Z</time></trkpt>
<trkpt lat="46.72134723510737" lon="7.1526801408996965"><ele></ele><time>2016-7-23T0:6:25Z</time></trkpt>
<trkpt lat="46.721362825543835" lon="7.152674441547477"><ele></ele><time>2016-7-23T0:6:28Z</time></trkpt>
<trkpt lat="46.721366094689294" lon="7.152656085261305"><ele></ele><time>2016-7-23T0:6:31Z</time></trkpt>
<trkpt lat="46.721364670835825" lon="7.152555418632371"><ele></ele><time>2016-7-23T0:6:34Z</time></trkpt>
<trkpt lat="46.721364922416825" lon="7.152543851618249"><ele></ele><time>2016-7-23T0:6:37Z</time></trkpt>
<trkpt lat="46.72138001044473" lon="7.15249062689207"><ele></ele><time>2016-7-23T0:6:40Z</time></trkpt>
<trkpt lat="46.72136400176749" lon="7.152416111468887"><ele></ele><time>2016-7-23T0:6:43Z</time></trkpt>
<trkpt lat="46.72136048152274" lon="7.152400856337603"><ele></ele><time>2016-7-23T0:6:46Z</time></trkpt>
<trkpt lat="46.72136207427124" lon="7.152383673480784"><ele></ele><time>2016-7-23T0:6:49Z</time></trkpt>
<trkpt lat="46.721368612675775" lon="7.1523363158976885"><ele></ele><time>2016-7-23T0:6:52Z</time></trkpt>
<trkpt lat="46.72136442243147" lon="7.152269092982682"><ele></ele><time>2016-7-23T0:6:55Z</time></trkpt>
<trkpt lat="46.721368529591345" lon="7.152267416692254"><ele></ele><time>2016-7-23T0:6:58Z</time></trkpt>
<trkpt lat="46.721372552978465" lon="7.152261381812916"><ele></ele><time>2016-7-23T0:7:1Z</time></trkpt>
<trkpt lat="46.7214086792304" lon="7.15224579226698"><ele></ele><time>2016-7-23T0:7:4Z</time></trkpt>
<trkpt lat="46.721426197633335" lon="7.152228442118183"><ele></ele><time>2016-7-23T0:7:7Z</time></trkpt>
<trkpt lat="46.7214349992428" lon="7.152173037961999"><ele></ele><time>2016-7-23T0:7:10Z</time></trkpt>
<trkpt lat="46.72145779860107" lon="7.152123417619734"><ele></ele><time>2016-7-23T0:7:13Z</time></trkpt>
<trkpt lat="46.72146425278774" lon="7.152113443301049"><ele></ele><time>2016-7-23T0:7:16Z</time></trkpt>
<trkpt lat="46.7214607329239" lon="7.152062481283273"><ele></ele><time>2016-7-23T0:7:19Z</time></trkpt>
<trkpt lat="46.72144028120661" lon="7.152046219956331"><ele></ele><time>2016-7-23T0:7:22Z</time></trkpt>
<trkpt lat="46.72143022361051" lon="7.151979583646767"><ele></ele><time>2016-7-23T0:7:25Z</time></trkpt>
<trkpt lat="46.72140952100694" lon="7.151909761984541"><ele></ele><time>2016-7-23T0:7:28Z</time></trkpt>
<trkpt lat="46.721392590129895" lon="7.151852932346525"><ele></ele><time>2016-7-23T0:7:31Z</time></trkpt>
<trkpt lat="46.721396026785165" lon="7.151846645997515"><ele></ele><time>2016-7-23T0:7:34Z</time></trkpt>
<trkpt lat="46.72139778708813" lon="7.151837342128712"><ele></ele><time>2016-7-23T0:7:37Z</time></trkpt>
<trkpt lat="46.72138831591461" lon="7.15179995865671"><ele></ele><time>2016-7-23T0:7:40Z</time></trkpt>
<trkpt lat="46.7213340855705" lon="7.151734913947796"><ele></ele><time>2016-7-23T0:7:43Z</time></trkpt>
<trkpt lat="46.721295445227405" lon="7.151704989731302"><ele></ele><time>2016-7-23T0:7:46Z</time></trkpt>
<trkpt lat="46.72130726384085" lon="7.1516953508051415"><ele></ele><time>2016-7-23T0:7:49Z</time></trkpt>
<trkpt lat="46.72126837255883" lon="7.151616811573228"><ele></ele><time>2016-7-23T0:7:52Z</time></trkpt>
<trkpt lat="46.72125705696268" lon="7.151616895146288"><ele></ele><time>2016-7-23T0:7:55Z</time></trkpt>
<trkpt lat="46.72127566499053" lon="7.151601891952804"><ele></ele><time>2016-7-23T0:7:58Z</time></trkpt>
<trkpt lat="46.72128404691026" lon="7.15160214359192"><ele></ele><time>2016-7-23T0:8:1Z</time></trkpt>
<trkpt lat="46.72136283747028" lon="7.151556296320844"><ele></ele><time>2016-7-23T0:8:4Z</time></trkpt>
<trkpt lat="46.721375410684836" lon="7.151525283570576"><ele></ele><time>2016-7-23T0:8:7Z</time></trkpt>
<trkpt lat="46.72136820261171" lon="7.151489660346343"><ele></ele><time>2016-7-23T0:8:10Z</time></trkpt>
<trkpt lat="46.72126309338415" lon="7.151482198172364"><ele></ele><time>2016-7-23T0:8:13Z</time></trkpt>
<trkpt lat="46.72118388450358" lon="7.151455374376299"><ele></ele><time>2016-7-23T0:8:16Z</time></trkpt>
<trkpt lat="46.72116066657492" lon="7.151455709147588"><ele></ele><time>2016-7-23T0:8:19Z</time></trkpt>
<trkpt lat="46.7211467524907" lon="7.151464426019373"><ele></ele><time>2016-7-23T0:8:22Z</time></trkpt>
<trkpt lat="46.72114985383687" lon="7.151461157146451"><ele></ele><time>2016-7-23T0:8:25Z</time></trkpt>
<trkpt lat="46.72110517823071" lon="7.151457384321199"><ele></ele><time>2016-7-23T0:8:28Z</time></trkpt>
<trkpt lat="46.721176760024285" lon="7.151440873537433"><ele></ele><time>2016-7-23T0:8:31Z</time></trkpt>
<trkpt lat="46.7212382833482" lon="7.151439617589925"><ele></ele><time>2016-7-23T0:8:34Z</time></trkpt>
<trkpt lat="46.721255550477814" lon="7.151405000725396"><ele></ele><time>2016-7-23T0:8:37Z</time></trkpt>
<trkpt lat="46.72129653807217" lon="7.151405588349178"><ele></ele><time>2016-7-23T0:8:40Z</time></trkpt>
<trkpt lat="46.72135504376902" lon="7.15141698900248"><ele></ele><time>2016-7-23T0:8:43Z</time></trkpt>
<trkpt lat="46.72136350940063" lon="7.151427298921337"><ele></ele><time>2016-7-23T0:8:46Z</time></trkpt>
<trkpt lat="46.72137557909701" lon="7.151452780154366"><ele></ele><time>2016-7-23T0:8:49Z</time></trkpt>
<trkpt lat="46.7214024847773" lon="7.1514800219084735"><ele></ele><time>2016-7-23T0:8:52Z</time></trkpt>
<trkpt lat="46.72141748834688" lon="7.151486727753173"><ele></ele><time>2016-7-23T0:8:55Z</time></trkpt>
<trkpt lat="46.7214680309581" lon="7.1515224357382134"><ele></ele><time>2016-7-23T0:8:58Z</time></trkpt>
<trkpt lat="46.72148202855927" lon="7.151542049684323"><ele></ele><time>2016-7-23T0:9:1Z</time></trkpt>
<trkpt lat="46.721477837280524" lon="7.151571805331975"><ele></ele><time>2016-7-23T0:9:4Z</time></trkpt>
<trkpt lat="46.72149912704063" lon="7.1516020644473155"><ele></ele><time>2016-7-23T0:9:7Z</time></trkpt>
<trkpt lat="46.72151086118022" lon="7.15165378101445"><ele></ele><time>2016-7-23T0:9:10Z</time></trkpt>
<trkpt lat="46.72151974553059" lon="7.151699462552909"><ele></ele><time>2016-7-23T0:9:13Z</time></trkpt>
<trkpt lat="46.7215389397377" lon="7.151736510960218"><ele></ele><time>2016-7-23T0:9:16Z</time></trkpt>
<trkpt lat="46.72153784946804" lon="7.151794597491273"><ele></ele><time>2016-7-23T0:9:19Z</time></trkpt>
<trkpt lat="46.72154497396529" lon="7.151807421950386"><ele></ele><time>2016-7-23T0:9:22Z</time></trkpt>
<trkpt lat="46.721574477629424" lon="7.151873304311583"><ele></ele><time>2016-7-23T0:9:25Z</time></trkpt>
<trkpt lat="46.72157506394731" lon="7.151912363970063"><ele></ele><time>2016-7-23T0:9:28Z</time></trkpt>
<trkpt lat="46.72156827445689" lon="7.151924852850893"><ele></ele><time>2016-7-23T0:9:31Z</time></trkpt>
<trkpt lat="46.7215671846657" lon="7.151938096226413"><ele></ele><time>2016-7-23T0:9:34Z</time></trkpt>
<trkpt lat="46.72156995059014" lon="7.1519484060213365"><ele></ele><time>2016-7-23T0:9:37Z</time></trkpt>
<trkpt lat="46.72155394061397" lon="7.151995679579481"><ele></ele><time>2016-7-23T0:9:40Z</time></trkpt>
<trkpt lat="46.72154706719617" lon="7.152018310555361"><ele></ele><time>2016-7-23T0:9:43Z</time></trkpt>
<trkpt lat="46.72154740173725" lon="7.152087293585067"><ele></ele><time>2016-7-23T0:9:46Z</time></trkpt>
<trkpt lat="46.7215474014887" lon="7.152110595262146"><ele></ele><time>2016-7-23T0:9:49Z</time></trkpt>
<trkpt lat="46.721540109032006" lon="7.152127861814064"><ele></ele><time>2016-7-23T0:9:52Z</time></trkpt>
<trkpt lat="46.72152761977447" lon="7.152145966442906"><ele></ele><time>2016-7-23T0:9:55Z</time></trkpt>
<trkpt lat="46.72150456875649" lon="7.152214529869678"><ele></ele><time>2016-7-23T0:9:58Z</time></trkpt>
<trkpt lat="46.721465676131295" lon="7.152261886749809"><ele></ele><time>2016-7-23T0:10:1Z</time></trkpt>
<trkpt lat="46.721457797057184" lon="7.1522681730023265"><ele></ele><time>2016-7-23T0:10:4Z</time></trkpt>
<trkpt lat="46.72139702708887" lon="7.152364814968973"><ele></ele><time>2016-7-23T0:10:7Z</time></trkpt>
<trkpt lat="46.721388058173574" lon="7.152389038460088"><ele></ele><time>2016-7-23T0:10:10Z</time></trkpt>
<trkpt lat="46.72136618064812" lon="7.152455422619021"><ele></ele><time>2016-7-23T0:10:13Z</time></trkpt>
<trkpt lat="46.721355367545435" lon="7.152495068762885"><ele></ele><time>2016-7-23T0:10:16Z</time></trkpt>
<trkpt lat="46.721349248456946" lon="7.152521806885405"><ele></ele><time>2016-7-23T0:10:19Z</time></trkpt>
<trkpt lat="46.7213463985926" lon="7.152522812651297"><ele></ele><time>2016-7-23T0:10:22Z</time></trkpt>
<trkpt lat="46.72133474712789" lon="7.152578384383659"><ele></ele><time>2016-7-23T0:10:25Z</time></trkpt>
<trkpt lat="46.721301386740606" lon="7.152609899596549"><ele></ele><time>2016-7-23T0:10:28Z</time></trkpt>
<trkpt lat="46.721272887692294" lon="7.152657927254629"><ele></ele><time>2016-7-23T0:10:31Z</time></trkpt>
<trkpt lat="46.721248998864894" lon="7.152690616139044"><ele></ele><time>2016-7-23T0:10:34Z</time></trkpt>
<trkpt lat="46.72124598125842" lon="7.152701344903289"><ele></ele><time>2016-7-23T0:10:37Z</time></trkpt>
<trkpt lat="46.72126266120808" lon="7.152708469879062"><ele></ele><time>2016-7-23T0:10:40Z</time></trkpt>
<trkpt lat="46.721240197547864" lon="7.152718611488108"><ele></ele><time>2016-7-23T0:10:43Z</time></trkpt>
<trkpt lat="46.72122351760091" lon="7.152711235055392"><ele></ele><time>2016-7-23T0:10:46Z</time></trkpt>
<trkpt lat="46.72115537242067" lon="7.152725398983542"><ele></ele><time>2016-7-23T0:10:49Z</time></trkpt>
<trkpt lat="46.72111480384115" lon="7.1527324388970674"><ele></ele><time>2016-7-23T0:10:52Z</time></trkpt>
<trkpt lat="46.721086137141086" lon="7.152781723836428"><ele></ele><time>2016-7-23T0:10:55Z</time></trkpt>
<trkpt lat="46.72106266777442" lon="7.1527802145850705"><ele></ele><time>2016-7-23T0:10:58Z</time></trkpt>
<trkpt lat="46.721041042078646" lon="7.1528117300530125"><ele></ele><time>2016-7-23T0:11:1Z</time></trkpt>
<trkpt lat="46.72101430370509" lon="7.152815585145579"><ele></ele><time>2016-7-23T0:11:4Z</time></trkpt>
<trkpt lat="46.720948170257856" lon="7.15282304359893"><ele></ele><time>2016-7-23T0:11:7Z</time></trkpt>
<trkpt lat="46.72091447484138" lon="7.152831340946538"><ele></ele><time>2016-7-23T0:11:10Z</time></trkpt>
<trkpt lat="46.72085689104796" lon="7.152830082411331"><ele></ele><time>2016-7-23T0:11:13Z</time></trkpt>
<trkpt lat="46.72082042948542" lon="7.1528488570717785"><ele></ele><time>2016-7-23T0:11:16Z</time></trkpt>
<trkpt lat="46.72077659202689" lon="7.152849275214758"><ele></ele><time>2016-7-23T0:11:19Z</time></trkpt>
<trkpt lat="46.72076125306962" lon="7.152852962916934"><ele></ele><time>2016-7-23T0:11:22Z</time></trkpt>
<trkpt lat="46.720736861467294" lon="7.152872492210368"><ele></ele><time>2016-7-23T0:11:25Z</time></trkpt>
<trkpt lat="46.72071272141112" lon="7.152883723429933"><ele></ele><time>2016-7-23T0:11:28Z</time></trkpt>
<trkpt lat="46.72070635108668" lon="7.152889674439418"><ele></ele><time>2016-7-23T0:11:31Z</time></trkpt>
<trkpt lat="46.72058699260147" lon="7.152881289949267"><ele></ele><time>2016-7-23T0:11:34Z</time></trkpt>
<trkpt lat="46.72059830835304" lon="7.152866621872885"><ele></ele><time>2016-7-23T0:11:37Z</time></trkpt>
<trkpt lat="46.72053535988643" lon="7.152888161984734"><ele></ele><time>2016-7-23T0:11:40Z</time></trkpt>
<trkpt lat="46.72049579714857" lon="7.152894196092466"><ele></ele><time>2016-7-23T0:11:43Z</time></trkpt>
<trkpt lat="46.720438967503206" lon="7.1529140599575705"><ele></ele><time>2016-7-23T0:11:46Z</time></trkpt>
<trkpt lat="46.72040627754768" lon="7.152957058386355"><ele></ele><time>2016-7-23T0:11:49Z</time></trkpt>
<trkpt lat="46.720362691379904" lon="7.152973150684825"><ele></ele><time>2016-7-23T0:11:52Z</time></trkpt>
<trkpt lat="46.720319859824606" lon="7.152966779512052"><ele></ele><time>2016-7-23T0:11:55Z</time></trkpt>
<trkpt lat="46.72029027130726" lon="7.152997875712578"><ele></ele><time>2016-7-23T0:11:58Z</time></trkpt>
<trkpt lat="46.72029052275868" lon="7.152998462450926"><ele></ele><time>2016-7-23T0:12:1Z</time></trkpt>
<trkpt lat="46.72029228275241" lon="7.153018159950333"><ele></ele><time>2016-7-23T0:12:4Z</time></trkpt>
<trkpt lat="46.72024844522262" lon="7.153025283612138"><ele></ele><time>2016-7-23T0:12:7Z</time></trkpt>
<trkpt lat="46.72020946943921" lon="7.153010698262689"><ele></ele><time>2016-7-23T0:12:10Z</time></trkpt>
<trkpt lat="46.7201683145731" lon="7.152975744852812"><ele></ele><time>2016-7-23T0:12:13Z</time></trkpt>
<trkpt lat="46.720155071424394" lon="7.152948671033449"><ele></ele><time>2016-7-23T0:12:16Z</time></trkpt>
<trkpt lat="46.72015808909961" lon="7.152931488207263"><ele></ele><time>2016-7-23T0:12:19Z</time></trkpt>
<trkpt lat="46.72015817375427" lon="7.152853117459107"><ele></ele><time>2016-7-23T0:12:22Z</time></trkpt>
<trkpt lat="46.72010092581628" lon="7.152797628048565"><ele></ele><time>2016-7-23T0:12:25Z</time></trkpt>
<trkpt lat="46.72008265336859" lon="7.152784216614323"><ele></ele><time>2016-7-23T0:12:28Z</time></trkpt>
<trkpt lat="46.72003797808986" lon="7.152749766041713"><ele></ele><time>2016-7-23T0:12:31Z</time></trkpt>
<trkpt lat="46.720018113131445" lon="7.152731241614835"><ele></ele><time>2016-7-23T0:12:34Z</time></trkpt>
<trkpt lat="46.72001140820933" lon="7.152673490189163"><ele></ele><time>2016-7-23T0:12:37Z</time></trkpt>
<trkpt lat="46.719995818065264" lon="7.152651780733698"><ele></ele><time>2016-7-23T0:12:40Z</time></trkpt>
<trkpt lat="46.71995181341189" lon="7.152610624656791"><ele></ele><time>2016-7-23T0:12:43Z</time></trkpt>
<trkpt lat="46.71991954326301" lon="7.152586987002396"><ele></ele><time>2016-7-23T0:12:46Z</time></trkpt>
<trkpt lat="46.71985969637524" lon="7.152583465305282"><ele></ele><time>2016-7-23T0:12:49Z</time></trkpt>
<trkpt lat="46.71980311840772" lon="7.152582709705649"><ele></ele><time>2016-7-23T0:12:52Z</time></trkpt>
<trkpt lat="46.719790293985255" lon="7.152590336954702"><ele></ele><time>2016-7-23T0:12:55Z</time></trkpt>
<trkpt lat="46.71976271742511" lon="7.152593689115168"><ele></ele><time>2016-7-23T0:12:58Z</time></trkpt>
<trkpt lat="46.71974721069189" lon="7.1526102849373085"><ele></ele><time>2016-7-23T0:13:1Z</time></trkpt>
<trkpt lat="46.71967747297952" lon="7.152621431347701"><ele></ele><time>2016-7-23T0:13:4Z</time></trkpt>
<trkpt lat="46.719664899816344" lon="7.152647666416802"><ele></ele><time>2016-7-23T0:13:7Z</time></trkpt>
<trkpt lat="46.71963975374381" lon="7.15267633196342"><ele></ele><time>2016-7-23T0:13:10Z</time></trkpt>
<trkpt lat="46.719602956882426" lon="7.152697202091476"><ele></ele><time>2016-7-23T0:13:13Z</time></trkpt>
<trkpt lat="46.71957563171121" lon="7.152707008319273"><ele></ele><time>2016-7-23T0:13:16Z</time></trkpt>
<trkpt lat="46.71956431599639" lon="7.152718239817478"><ele></ele><time>2016-7-23T0:13:19Z</time></trkpt>
<trkpt lat="46.71950572594852" lon="7.152756795278102"><ele></ele><time>2016-7-23T0:13:22Z</time></trkpt>
<trkpt lat="46.71942165487488" lon="7.152793673805771"><ele></ele><time>2016-7-23T0:13:25Z</time></trkpt>
<trkpt lat="46.71934764275053" lon="7.152770286701805"><ele></ele><time>2016-7-23T0:13:28Z</time></trkpt>
<trkpt lat="46.71930598404013" lon="7.1528225050248055"><ele></ele><time>2016-7-23T0:13:31Z</time></trkpt>
<trkpt lat="46.719261057312096" lon="7.152787300075535"><ele></ele><time>2016-7-23T0:13:34Z</time></trkpt>
<trkpt lat="46.71923390019494" lon="7.152758130479021"><ele></ele><time>2016-7-23T0:13:37Z</time></trkpt>
<trkpt lat="46.719210012473425" lon="7.15268713527993"><ele></ele><time>2016-7-23T0:13:40Z</time></trkpt>
<trkpt lat="46.71920590562284" lon="7.152659810201608"><ele></ele><time>2016-7-23T0:13:43Z</time></trkpt>
<trkpt lat="46.7191629070418" lon="7.15259602302013"><ele></ele><time>2016-7-23T0:13:46Z</time></trkpt>
<trkpt lat="46.719144384117975" lon="7.15249057833453"><ele></ele><time>2016-7-23T0:13:49Z</time></trkpt>
<trkpt lat="46.71914463566591" lon="7.152482112622494"><ele></ele><time>2016-7-23T0:13:52Z</time></trkpt>
<trkpt lat="46.71912032810567" lon="7.152480770990786"><ele></ele><time>2016-7-23T0:13:55Z</time></trkpt>
<trkpt lat="46.719097613802525" lon="7.1524145534991295"><ele></ele><time>2016-7-23T0:13:58Z</time></trkpt>
<trkpt lat="46.719089064389294" lon="7.1524007231808735"><ele></ele><time>2016-7-23T0:14:1Z</time></trkpt>
<trkpt lat="46.71908948415405" lon="7.152338026589045"><ele></ele><time>2016-7-23T0:14:4Z</time></trkpt>
<trkpt lat="46.71905428113188" lon="7.152239454697721"><ele></ele><time>2016-7-23T0:14:7Z</time></trkpt>
<trkpt lat="46.71904883300223" lon="7.152228222835351"><ele></ele><time>2016-7-23T0:14:10Z</time></trkpt>
<trkpt lat="46.71905268909413" lon="7.1521900014618325"><ele></ele><time>2016-7-23T0:14:13Z</time></trkpt>
<trkpt lat="46.71900784643145" lon="7.152131746292905"><ele></ele><time>2016-7-23T0:14:16Z</time></trkpt>
<trkpt lat="46.71892721309232" lon="7.152061168955495"><ele></ele><time>2016-7-23T0:14:19Z</time></trkpt>
<trkpt lat="46.71886644495012" lon="7.151986736376191"><ele></ele><time>2016-7-23T0:14:22Z</time></trkpt>
<trkpt lat="46.71879167913558" lon="7.151899395368848"><ele></ele><time>2016-7-23T0:14:25Z</time></trkpt>
<trkpt lat="46.71874599838379" lon="7.151831500997968"><ele></ele><time>2016-7-23T0:14:28Z</time></trkpt>
<trkpt lat="46.71873107859086" lon="7.15182881846625"><ele></ele><time>2016-7-23T0:14:31Z</time></trkpt>
<trkpt lat="46.71870895102805" lon="7.151762098072859"><ele></ele><time>2016-7-23T0:14:34Z</time></trkpt>
<trkpt lat="46.718705934558294" lon="7.151666292906679"><ele></ele><time>2016-7-23T0:14:37Z</time></trkpt>
<trkpt lat="46.71868146009135" lon="7.1515963873407555"><ele></ele><time>2016-7-23T0:14:40Z</time></trkpt>
<trkpt lat="46.718660338065064" lon="7.151557243415406"><ele></ele><time>2016-7-23T0:14:43Z</time></trkpt>
<trkpt lat="46.71865455483301" lon="7.1515296668434125"><ele></ele><time>2016-7-23T0:14:46Z</time></trkpt>
<trkpt lat="46.71860024079732" lon="7.151452803653053"><ele></ele><time>2016-7-23T0:14:49Z</time></trkpt>
<trkpt lat="46.71860560528122" lon="7.151447774630494"><ele></ele><time>2016-7-23T0:14:52Z</time></trkpt>
<trkpt lat="46.718563528178436" lon="7.151434027402331"><ele></ele><time>2016-7-23T0:14:55Z</time></trkpt>
<trkpt lat="46.718530000863524" lon="7.1513989903375546"><ele></ele><time>2016-7-23T0:14:58Z</time></trkpt>
<trkpt lat="46.71851776341724" lon="7.151383986473109"><ele></ele><time>2016-7-23T0:15:1Z</time></trkpt>
<trkpt lat="46.71849915587468" lon="7.1513535597767905"><ele></ele><time>2016-7-23T0:15:4Z</time></trkpt>
<trkpt lat="46.71848549345154" lon="7.151343249744571"><ele></ele><time>2016-7-23T0:15:7Z</time></trkpt>
<trkpt lat="46.718484571610055" lon="7.151327324117203"><ele></ele><time>2016-7-23T0:15:10Z</time></trkpt>
<trkpt lat="46.71846596397985" lon="7.1513051116814825"><ele></ele><time>2016-7-23T0:15:13Z</time></trkpt>
<trkpt lat="46.7184158402846" lon="7.151286418958136"><ele></ele><time>2016-7-23T0:15:16Z</time></trkpt>
<trkpt lat="46.71840762605542" lon="7.151281305821446"><ele></ele><time>2016-7-23T0:15:19Z</time></trkpt>
<trkpt lat="46.718373763423465" lon="7.1512500406036095"><ele></ele><time>2016-7-23T0:15:22Z</time></trkpt>
<trkpt lat="46.718312324201314" lon="7.151224977391296"><ele></ele><time>2016-7-23T0:15:25Z</time></trkpt>
<trkpt lat="46.71829681832525" lon="7.151161274624765"><ele></ele><time>2016-7-23T0:15:28Z</time></trkpt>
<trkpt lat="46.71825750729631" lon="7.1511438394211115"><ele></ele><time>2016-7-23T0:15:31Z</time></trkpt>
<trkpt lat="46.71825625001245" lon="7.151143420298851"><ele></ele><time>2016-7-23T0:15:34Z</time></trkpt>
<trkpt lat="46.71824133034038" lon="7.151129422203831"><ele></ele><time>2016-7-23T0:15:37Z</time></trkpt>
<trkpt lat="46.7182103176918" lon="7.151086003294798"><ele></ele><time>2016-7-23T0:15:40Z</time></trkpt>
<trkpt lat="46.71820604292223" lon="7.151084997374034"><ele></ele><time>2016-7-23T0:15:43Z</time></trkpt>
<trkpt lat="46.71819279968204" lon="7.151066556909162"><ele></ele><time>2016-7-23T0:15:46Z</time></trkpt>
<trkpt lat="46.71818567544548" lon="7.151029341124373"><ele></ele><time>2016-7-23T0:15:49Z</time></trkpt>
<trkpt lat="46.71814083269159" lon="7.150979719309608"><ele></ele><time>2016-7-23T0:15:52Z</time></trkpt>
<trkpt lat="46.71807847184391" lon="7.150918530093798"><ele></ele><time>2016-7-23T0:15:55Z</time></trkpt>
<trkpt lat="46.718071263551025" lon="7.150903526338514"><ele></ele><time>2016-7-23T0:15:58Z</time></trkpt>
<trkpt lat="46.71808953616909" lon="7.1509009283471965"><ele></ele><time>2016-7-23T0:16:1Z</time></trkpt>
<trkpt lat="46.71807679601789" lon="7.150866227009832"><ele></ele><time>2016-7-23T0:16:4Z</time></trkpt>
<trkpt lat="46.71808350178832" lon="7.150844434219152"><ele></ele><time>2016-7-23T0:16:7Z</time></trkpt>
<trkpt lat="46.7181306083717" lon="7.150827503808088"><ele></ele><time>2016-7-23T0:16:10Z</time></trkpt>
<trkpt lat="46.71816790814197" lon="7.1508072204243724"><ele></ele><time>2016-7-23T0:16:13Z</time></trkpt>
<trkpt lat="46.7182482902575" lon="7.1508557533650965"><ele></ele><time>2016-7-23T0:16:16Z</time></trkpt>
<trkpt lat="46.71827058637902" lon="7.150836224026069"><ele></ele><time>2016-7-23T0:16:19Z</time></trkpt>
<trkpt lat="46.718288188499734" lon="7.150828345424074"><ele></ele><time>2016-7-23T0:16:22Z</time></trkpt>
<trkpt lat="46.7183130829196" lon="7.150817952411048"><ele></ele><time>2016-7-23T0:16:25Z</time></trkpt>
<trkpt lat="46.71832330893181" lon="7.1508116662094245"><ele></ele><time>2016-7-23T0:16:28Z</time></trkpt>
<trkpt lat="46.718388687256365" lon="7.150874280413493"><ele></ele><time>2016-7-23T0:16:31Z</time></trkpt>
<trkpt lat="46.7184240589564" lon="7.1508753708293495"><ele></ele><time>2016-7-23T0:16:34Z</time></trkpt>
<trkpt lat="46.7184592629294" lon="7.150884759321166"><ele></ele><time>2016-7-23T0:16:37Z</time></trkpt>
<trkpt lat="46.71850025015219" lon="7.150920048005364"><ele></ele><time>2016-7-23T0:16:40Z</time></trkpt>
<trkpt lat="46.718518522727386" lon="7.150921473325389"><ele></ele><time>2016-7-23T0:16:43Z</time></trkpt>
<trkpt lat="46.718531933792164" lon="7.150922479444791"><ele></ele><time>2016-7-23T0:16:46Z</time></trkpt>
<trkpt lat="46.718569317042615" lon="7.150933963458598"><ele></ele><time>2016-7-23T0:16:49Z</time></trkpt>
<trkpt lat="46.71862639812883" lon="7.150915608341702"><ele></ele><time>2016-7-23T0:16:52Z</time></trkpt>
<trkpt lat="46.718661853555105" lon="7.150925415933871"><ele></ele><time>2016-7-23T0:16:55Z</time></trkpt>
<trkpt lat="46.71869663833453" lon="7.150943940685967"><ele></ele><time>2016-7-23T0:16:58Z</time></trkpt>
<trkpt lat="46.71871843116853" lon="7.150959280034136"><ele></ele><time>2016-7-23T0:17:1Z</time></trkpt>
<trkpt lat="46.71877693717984" lon="7.150941092586218"><ele></ele><time>2016-7-23T0:17:4Z</time></trkpt>
<trkpt lat="46.71881884696368" lon="7.150924916433161"><ele></ele><time>2016-7-23T0:17:7Z</time></trkpt>
<trkpt lat="46.71887676610803" lon="7.1509191341823914"><ele></ele><time>2016-7-23T0:17:10Z</time></trkpt>
<trkpt lat="46.718889422910834" lon="7.150909746731194"><ele></ele><time>2016-7-23T0:17:13Z</time></trkpt>
<trkpt lat="46.718929991439495" lon="7.150907400681616"><ele></ele><time>2016-7-23T0:17:16Z</time></trkpt>
<trkpt lat="46.719011212158605" lon="7.15091746072571"><ele></ele><time>2016-7-23T0:17:19Z</time></trkpt>
<trkpt lat="46.719043063523976" lon="7.150911761727201"><ele></ele><time>2016-7-23T0:17:22Z</time></trkpt>
<trkpt lat="46.719070975186355" lon="7.150924754276755"><ele></ele><time>2016-7-23T0:17:25Z</time></trkpt>
<trkpt lat="46.71910081461927" lon="7.150944452387029"><ele></ele><time>2016-7-23T0:17:28Z</time></trkpt>
<trkpt lat="46.719129983422334" lon="7.150971275096446"><ele></ele><time>2016-7-23T0:17:31Z</time></trkpt>
<trkpt lat="46.719147333851055" lon="7.150985357063163"><ele></ele><time>2016-7-23T0:17:34Z</time></trkpt>
<trkpt lat="46.71915328498006" lon="7.150988709951952"><ele></ele><time>2016-7-23T0:17:37Z</time></trkpt>
<trkpt lat="46.719186896374644" lon="7.1509993556937825"><ele></ele><time>2016-7-23T0:17:40Z</time></trkpt>
<trkpt lat="46.71922017282705" lon="7.150978653127911"><ele></ele><time>2016-7-23T0:17:43Z</time></trkpt>
<trkpt lat="46.719274739456836" lon="7.150949066212514"><ele></ele><time>2016-7-23T0:17:46Z</time></trkpt>
<trkpt lat="46.71930784838448" lon="7.150917718631961"><ele></ele><time>2016-7-23T0:17:49Z</time></trkpt>
<trkpt lat="46.719327043432116" lon="7.1508759771947865"><ele></ele><time>2016-7-23T0:17:52Z</time></trkpt>
<trkpt lat="46.71936920512578" lon="7.150817472460013"><ele></ele><time>2016-7-23T0:17:55Z</time></trkpt>
<trkpt lat="46.7194183237801" lon="7.150762236816991"><ele></ele><time>2016-7-23T0:17:58Z</time></trkpt>
<trkpt lat="46.719429136568124" lon="7.150752094954939"><ele></ele><time>2016-7-23T0:18:1Z</time></trkpt>
<trkpt lat="46.71944967299729" lon="7.150684704937699"><ele></ele><time>2016-7-23T0:18:4Z</time></trkpt>
<trkpt lat="46.71946182760625" lon="7.150607759373961"><ele></ele><time>2016-7-23T0:18:7Z</time></trkpt>
<trkpt lat="46.71943911349828" lon="7.150523353162315"><ele></ele><time>2016-7-23T0:18:10Z</time></trkpt>
<trkpt lat="46.719435509563525" lon="7.150496028094886"><ele></ele><time>2016-7-23T0:18:13Z</time></trkpt>
<trkpt lat="46.71942930745578" lon="7.150447832043729"><ele></ele><time>2016-7-23T0:18:16Z</time></trkpt>
<trkpt lat="46.71938882331191" lon="7.150397204496408"><ele></ele><time>2016-7-23T0:18:19Z</time></trkpt>
<trkpt lat="46.71937457456421" lon="7.150348505356287"><ele></ele><time>2016-7-23T0:18:22Z</time></trkpt>
<trkpt lat="46.7193504347364" lon="7.1503383627340815"><ele></ele><time>2016-7-23T0:18:25Z</time></trkpt>
<trkpt lat="46.71931095616633" lon="7.150311791257197"><ele></ele><time>2016-7-23T0:18:28Z</time></trkpt>
<trkpt lat="46.71927818328184" lon="7.150271389793608"><ele></ele><time>2016-7-23T0:18:31Z</time></trkpt>
<trkpt lat="46.71922713775132" lon="7.150236184709611"><ele></ele><time>2016-7-23T0:18:34Z</time></trkpt>
<trkpt lat="46.719194532706766" lon="7.150176923977941"><ele></ele><time>2016-7-23T0:18:37Z</time></trkpt>
<trkpt lat="46.71919931064511" lon="7.15015420913691"><ele></ele><time>2016-7-23T0:18:40Z</time></trkpt>
<trkpt lat="46.71916561560776" lon="7.150127051052779"><ele></ele><time>2016-7-23T0:18:43Z</time></trkpt>
<trkpt lat="46.71913410007974" lon="7.150080279373507"><ele></ele><time>2016-7-23T0:18:46Z</time></trkpt>
<trkpt lat="46.719147092537426" lon="7.150035520318058"><ele></ele><time>2016-7-23T0:18:49Z</time></trkpt>
<trkpt lat="46.71916402512635" lon="7.149932004239754"><ele></ele><time>2016-7-23T0:18:52Z</time></trkpt>
<trkpt lat="46.71919076601003" lon="7.149693204532921"><ele></ele><time>2016-7-23T0:18:55Z</time></trkpt>
<trkpt lat="46.71922320737897" lon="7.149381650071275"><ele></ele><time>2016-7-23T0:18:58Z</time></trkpt>
<trkpt lat="46.71917736163248" lon="7.149066573508413"><ele></ele><time>2016-7-23T0:19:1Z</time></trkpt>
<trkpt lat="46.7191217084704" lon="7.14880455414924"><ele></ele><time>2016-7-23T0:19:4Z</time></trkpt>
<trkpt lat="46.71910653767787" lon="7.148759040109981"><ele></ele><time>2016-7-23T0:19:7Z</time></trkpt>
<trkpt lat="46.7189881860097" lon="7.14865862238878"><ele></ele><time>2016-7-23T0:19:10Z</time></trkpt>
<trkpt lat="46.71890411581109" lon="7.148613609763107"><ele></ele><time>2016-7-23T0:19:13Z</time></trkpt>
<trkpt lat="46.71857110449615" lon="7.148384106128934"><ele></ele><time>2016-7-23T0:19:16Z</time></trkpt>
<trkpt lat="46.718356614008094" lon="7.148112947037949"><ele></ele><time>2016-7-23T0:19:19Z</time></trkpt>
<trkpt lat="46.71833029534729" lon="7.148059218494597"><ele></ele><time>2016-7-23T0:19:22Z</time></trkpt>
<trkpt lat="46.71822317688338" lon="7.147825445008713"><ele></ele><time>2016-7-23T0:19:25Z</time></trkpt>
<trkpt lat="46.71808320236809" lon="7.147490501289637"><ele></ele><time>2016-7-23T0:19:28Z</time></trkpt>
<trkpt lat="46.71794725188826" lon="7.147089089200561"><ele></ele><time>2016-7-23T0:19:31Z</time></trkpt>
<trkpt lat="46.71788095411732" lon="7.146787171765603"><ele></ele><time>2016-7-23T0:19:34Z</time></trkpt>
<trkpt lat="46.71787642858769" lon="7.146721038486455"><ele></ele><time>2016-7-23T0:19:37Z</time></trkpt>
<trkpt lat="46.71782680962605" lon="7.1465326961415485"><ele></ele><time>2016-7-23T0:19:40Z</time></trkpt>
<trkpt lat="46.71778565565265" lon="7.14641467811088"><ele></ele><time>2016-7-23T0:19:43Z</time></trkpt>
<trkpt lat="46.717771826138474" lon="7.146353322310991"><ele></ele><time>2016-7-23T0:19:46Z</time></trkpt>
<trkpt lat="46.71773695964962" lon="7.146137990573501"><ele></ele><time>2016-7-23T0:19:49Z</time></trkpt>
<trkpt lat="46.71771768189517" lon="7.146075796464828"><ele></ele><time>2016-7-23T0:19:52Z</time></trkpt>
<trkpt lat="46.717706702797926" lon="7.1459618862222"><ele></ele><time>2016-7-23T0:19:55Z</time></trkpt>
<trkpt lat="46.71770041665546" lon="7.1459339743624595"><ele></ele><time>2016-7-23T0:19:58Z</time></trkpt>
<trkpt lat="46.71768398862708" lon="7.145883682611999"><ele></ele><time>2016-7-23T0:20:1Z</time></trkpt>
<trkpt lat="46.71767317616674" lon="7.145863230543351"><ele></ele><time>2016-7-23T0:20:4Z</time></trkpt>
<trkpt lat="46.717652473474004" lon="7.145802126050295"><ele></ele><time>2016-7-23T0:20:7Z</time></trkpt>
<trkpt lat="46.71762917253459" lon="7.145727107548686"><ele></ele><time>2016-7-23T0:20:10Z</time></trkpt>
<trkpt lat="46.7175479541892" lon="7.145495765372666"><ele></ele><time>2016-7-23T0:20:13Z</time></trkpt>
<trkpt lat="46.71743840601088" lon="7.14516526471608"><ele></ele><time>2016-7-23T0:20:16Z</time></trkpt>
<trkpt lat="46.71736221748166" lon="7.144872231873915"><ele></ele><time>2016-7-23T0:20:19Z</time></trkpt>
<trkpt lat="46.717315365916164" lon="7.144557239096853"><ele></ele><time>2016-7-23T0:20:22Z</time></trkpt>
<trkpt lat="46.71731989357863" lon="7.144424469919725"><ele></ele><time>2016-7-23T0:20:25Z</time></trkpt>
<trkpt lat="46.717303130395464" lon="7.144362862598031"><ele></ele><time>2016-7-23T0:20:28Z</time></trkpt>
<trkpt lat="46.71726088741045" lon="7.144185584517341"><ele></ele><time>2016-7-23T0:20:31Z</time></trkpt>
<trkpt lat="46.71724286684826" lon="7.144132442885813"><ele></ele><time>2016-7-23T0:20:34Z</time></trkpt>
<trkpt lat="46.717137174403135" lon="7.1437977513605295"><ele></ele><time>2016-7-23T0:20:37Z</time></trkpt>
<trkpt lat="46.717116391219434" lon="7.143426768067497"><ele></ele><time>2016-7-23T0:20:40Z</time></trkpt>
<trkpt lat="46.71703919950466" lon="7.142887894109303"><ele></ele><time>2016-7-23T0:20:43Z</time></trkpt>
<trkpt lat="46.71694549623463" lon="7.14227190632018"><ele></ele><time>2016-7-23T0:20:46Z</time></trkpt>
<trkpt lat="46.71687534427626" lon="7.141831938919072"><ele></ele><time>2016-7-23T0:20:49Z</time></trkpt>
<trkpt lat="46.71680108289094" lon="7.141604620199702"><ele></ele><time>2016-7-23T0:20:52Z</time></trkpt>
<trkpt lat="46.7167559898881" lon="7.141443016204521"><ele></ele><time>2016-7-23T0:20:55Z</time></trkpt>
<trkpt lat="46.71674819538748" lon="7.14137914596514"><ele></ele><time>2016-7-23T0:20:58Z</time></trkpt>
<trkpt lat="46.71668751325328" lon="7.141101955244044"><ele></ele><time>2016-7-23T0:21:1Z</time></trkpt>
<trkpt lat="46.7166853348408" lon="7.141019477312074"><ele></ele><time>2016-7-23T0:21:4Z</time></trkpt>
<trkpt lat="46.71668005711475" lon="7.140751340253587"><ele></ele><time>2016-7-23T0:21:7Z</time></trkpt>
<trkpt lat="46.716684081435766" lon="7.140658552721806"><ele></ele><time>2016-7-23T0:21:10Z</time></trkpt>
<trkpt lat="46.716695152220005" lon="7.140040974659701"><ele></ele><time>2016-7-23T0:21:13Z</time></trkpt>
<trkpt lat="46.716700099829986" lon="7.139829583280019"><ele></ele><time>2016-7-23T0:21:16Z</time></trkpt>
<trkpt lat="46.71670479724284" lon="7.1395011805875"><ele></ele><time>2016-7-23T0:21:19Z</time></trkpt>
<trkpt lat="46.71672860435893" lon="7.139273025823368"><ele></ele><time>2016-7-23T0:21:22Z</time></trkpt>
<trkpt lat="46.7167830887584" lon="7.139096085133128"><ele></ele><time>2016-7-23T0:21:25Z</time></trkpt>
<trkpt lat="46.716915360946416" lon="7.138589569887202"><ele></ele><time>2016-7-23T0:21:28Z</time></trkpt>
<trkpt lat="46.716959535808705" lon="7.138391674225052"><ele></ele><time>2016-7-23T0:21:31Z</time></trkpt>
<trkpt lat="46.71694780170781" lon="7.138336940168831"><ele></ele><time>2016-7-23T0:21:34Z</time></trkpt>
<trkpt lat="46.71689265090974" lon="7.138128313499211"><ele></ele><time>2016-7-23T0:21:37Z</time></trkpt>
<trkpt lat="46.71686004561069" lon="7.138093276447531"><ele></ele><time>2016-7-23T0:21:40Z</time></trkpt>
<trkpt lat="46.71674613712284" lon="7.13792328904276"><ele></ele><time>2016-7-23T0:21:43Z</time></trkpt>
<trkpt lat="46.716562824960555" lon="7.137879447693077"><ele></ele><time>2016-7-23T0:21:46Z</time></trkpt>
<trkpt lat="46.71615487782114" lon="7.137786232033842"><ele></ele><time>2016-7-23T0:21:49Z</time></trkpt>
<trkpt lat="46.71572354582348" lon="7.137627888506235"><ele></ele><time>2016-7-23T0:21:52Z</time></trkpt>
<trkpt lat="46.71565196427682" lon="7.137621684331462"><ele></ele><time>2016-7-23T0:21:55Z</time></trkpt>
<trkpt lat="46.71548047075756" lon="7.1375656894861175"><ele></ele><time>2016-7-23T0:21:58Z</time></trkpt>
<trkpt lat="46.71536916111173" lon="7.137354547010343"><ele></ele><time>2016-7-23T0:22:1Z</time></trkpt>
<trkpt lat="46.715347873960944" lon="7.137082889197848"><ele></ele><time>2016-7-23T0:22:4Z</time></trkpt>
<trkpt lat="46.71536321522977" lon="7.136864960161146"><ele></ele><time>2016-7-23T0:22:7Z</time></trkpt>
<trkpt lat="46.71537662920522" lon="7.136596236774504"><ele></ele><time>2016-7-23T0:22:10Z</time></trkpt>
<trkpt lat="46.71540689496058" lon="7.135946304992866"><ele></ele><time>2016-7-23T0:22:13Z</time></trkpt>
<trkpt lat="46.71544923326289" lon="7.135057992270458"><ele></ele><time>2016-7-23T0:22:16Z</time></trkpt>
<trkpt lat="46.71546507903433" lon="7.134693547651783"><ele></ele><time>2016-7-23T0:22:19Z</time></trkpt>
<trkpt lat="46.715500040129285" lon="7.1339092541346805"><ele></ele><time>2016-7-23T0:22:22Z</time></trkpt>
<trkpt lat="46.71550917856029" lon="7.1337117767962"><ele></ele><time>2016-7-23T0:22:25Z</time></trkpt>
<trkpt lat="46.715541709982034" lon="7.132827906267077"><ele></ele><time>2016-7-23T0:22:28Z</time></trkpt>
<trkpt lat="46.71555168684656" lon="7.132608300734065"><ele></ele><time>2016-7-23T0:22:31Z</time></trkpt>
<trkpt lat="46.7155846365097" lon="7.131804058255124"><ele></ele><time>2016-7-23T0:22:34Z</time></trkpt>
<trkpt lat="46.71559201457792" lon="7.1316215844775"><ele></ele><time>2016-7-23T0:22:37Z</time></trkpt>
<trkpt lat="46.71561867588522" lon="7.130994535204575"><ele></ele><time>2016-7-23T0:22:40Z</time></trkpt>
<trkpt lat="46.71572731524426" lon="7.130104547568623"><ele></ele><time>2016-7-23T0:22:43Z</time></trkpt>
<trkpt lat="46.715858080191964" lon="7.129462580811981"><ele></ele><time>2016-7-23T0:22:46Z</time></trkpt>
<trkpt lat="46.71596973080955" lon="7.129147759150287"><ele></ele><time>2016-7-23T0:22:49Z</time></trkpt>
<trkpt lat="46.71623091776954" lon="7.128570168257438"><ele></ele><time>2016-7-23T0:22:52Z</time></trkpt>
<trkpt lat="46.71649805846293" lon="7.127756459409936"><ele></ele><time>2016-7-23T0:22:55Z</time></trkpt>
<trkpt lat="46.716699567865305" lon="7.12702070077854"><ele></ele><time>2016-7-23T0:22:58Z</time></trkpt>
<trkpt lat="46.716733098353146" lon="7.12676320958731"><ele></ele><time>2016-7-23T0:23:1Z</time></trkpt>
<trkpt lat="46.71668129998466" lon="7.126587607663357"><ele></ele><time>2016-7-23T0:23:4Z</time></trkpt>
<trkpt lat="46.716571078250674" lon="7.126537900569291"><ele></ele><time>2016-7-23T0:23:7Z</time></trkpt>
<trkpt lat="46.71652439100066" lon="7.126532786579988"><ele></ele><time>2016-7-23T0:23:10Z</time></trkpt>
<trkpt lat="46.716310316838516" lon="7.126521214832069"><ele></ele><time>2016-7-23T0:23:13Z</time></trkpt>
<trkpt lat="46.71625256574151" lon="7.126489446160014"><ele></ele><time>2016-7-23T0:23:16Z</time></trkpt>
<trkpt lat="46.71617629202561" lon="7.126326332723447"><ele></ele><time>2016-7-23T0:23:19Z</time></trkpt>
<trkpt lat="46.71618274871979" lon="7.126086023825272"><ele></ele><time>2016-7-23T0:23:22Z</time></trkpt>
<trkpt lat="46.716174205181176" lon="7.1255326506726755"><ele></ele><time>2016-7-23T0:23:25Z</time></trkpt>
<trkpt lat="46.71601093110256" lon="7.125003413968431"><ele></ele><time>2016-7-23T0:23:28Z</time></trkpt>
<trkpt lat="46.715882354875845" lon="7.124777854226587"><ele></ele><time>2016-7-23T0:23:31Z</time></trkpt>
<trkpt lat="46.71568773042961" lon="7.124430671670009"><ele></ele><time>2016-7-23T0:23:34Z</time></trkpt>
<trkpt lat="46.71546804368744" lon="7.124115675049263"><ele></ele><time>2016-7-23T0:23:37Z</time></trkpt>
<trkpt lat="46.715311305815916" lon="7.1237423418021955"><ele></ele><time>2016-7-23T0:23:40Z</time></trkpt>
<trkpt lat="46.71525037363207" lon="7.1233397578459385"><ele></ele><time>2016-7-23T0:23:43Z</time></trkpt>
<trkpt lat="46.715242495524706" lon="7.123257279785578"><ele></ele><time>2016-7-23T0:23:46Z</time></trkpt>
<trkpt lat="46.71524098668645" lon="7.123265745470168"><ele></ele><time>2016-7-23T0:23:49Z</time></trkpt>
<trkpt lat="46.71522858281748" lon="7.1231395976159"><ele></ele><time>2016-7-23T0:23:52Z</time></trkpt>
<trkpt lat="46.71523168695847" lon="7.122880094091899"><ele></ele><time>2016-7-23T0:23:55Z</time></trkpt>
<trkpt lat="46.715286677624334" lon="7.122398052298575"><ele></ele><time>2016-7-23T0:23:58Z</time></trkpt>
<trkpt lat="46.715278296861094" lon="7.1222918534528965"><ele></ele><time>2016-7-23T0:24:1Z</time></trkpt>
<trkpt lat="46.71526941232475" lon="7.122264276808516"><ele></ele><time>2016-7-23T0:24:4Z</time></trkpt>
<trkpt lat="46.71516614728379" lon="7.122242565403558"><ele></ele><time>2016-7-23T0:24:7Z</time></trkpt>
<trkpt lat="46.715101438940955" lon="7.122233930614758"><ele></ele><time>2016-7-23T0:24:10Z</time></trkpt>
<trkpt lat="46.71504075406518" lon="7.122212052514598"><ele></ele><time>2016-7-23T0:24:13Z</time></trkpt>
<trkpt lat="46.71493061665521" lon="7.122116412607939"><ele></ele><time>2016-7-23T0:24:16Z</time></trkpt>
<trkpt lat="46.71486649711985" lon="7.121917843999973"><ele></ele><time>2016-7-23T0:24:19Z</time></trkpt>
<trkpt lat="46.71485057384787" lon="7.121699830453447"><ele></ele><time>2016-7-23T0:24:22Z</time></trkpt>
<trkpt lat="46.71485116098316" lon="7.12166311774868"><ele></ele><time>2016-7-23T0:24:25Z</time></trkpt>
<trkpt lat="46.71484856295796" lon="7.121629171000046"><ele></ele><time>2016-7-23T0:24:28Z</time></trkpt>
<trkpt lat="46.71481570788311" lon="7.121440577543906"><ele></ele><time>2016-7-23T0:24:31Z</time></trkpt>
<trkpt lat="46.71472451491521" lon="7.121226082726967"><ele></ele><time>2016-7-23T0:24:34Z</time></trkpt>
<trkpt lat="46.71459627451961" lon="7.120950566863335"><ele></ele><time>2016-7-23T0:24:37Z</time></trkpt>
<trkpt lat="46.71449510702" lon="7.120740262773588"><ele></ele><time>2016-7-23T0:24:40Z</time></trkpt>
<trkpt lat="46.714370051626055" lon="7.120476649275525"><ele></ele><time>2016-7-23T0:24:43Z</time></trkpt>
<trkpt lat="46.7142587427999" lon="7.120193338618419"><ele></ele><time>2016-7-23T0:24:46Z</time></trkpt>
<trkpt lat="46.71421473889016" lon="7.120085378782282"><ele></ele><time>2016-7-23T0:24:49Z</time></trkpt>
<trkpt lat="46.7141253054902" lon="7.119929305837717"><ele></ele><time>2016-7-23T0:24:52Z</time></trkpt>
<trkpt lat="46.713914669907176" lon="7.119736098391684"><ele></ele><time>2016-7-23T0:24:55Z</time></trkpt>
<trkpt lat="46.713668913741806" lon="7.1195731488215825"><ele></ele><time>2016-7-23T0:24:58Z</time></trkpt>
<trkpt lat="46.71362046665183" lon="7.1195349262868"><ele></ele><time>2016-7-23T0:25:1Z</time></trkpt>
<trkpt lat="46.713622143383546" lon="7.1195031589261015"><ele></ele><time>2016-7-23T0:25:4Z</time></trkpt>
<trkpt lat="46.71370311296144" lon="7.11948363089697"><ele></ele><time>2016-7-23T0:25:7Z</time></trkpt>
<trkpt lat="46.713740831575535" lon="7.119486733036284"><ele></ele><time>2016-7-23T0:25:10Z</time></trkpt>
<trkpt lat="46.7138860905184" lon="7.119464943320442"><ele></ele><time>2016-7-23T0:25:13Z</time></trkpt>
<trkpt lat="46.71399648049905" lon="7.1194584917066726"><ele></ele><time>2016-7-23T0:25:16Z</time></trkpt>
<trkpt lat="46.71422036183592" lon="7.119439721218634"><ele></ele><time>2016-7-23T0:25:19Z</time></trkpt>
<trkpt lat="46.714529152951606" lon="7.119337720356423"><ele></ele><time>2016-7-23T0:25:22Z</time></trkpt>
<trkpt lat="46.714850685801366" lon="7.119124911072583"><ele></ele><time>2016-7-23T0:25:25Z</time></trkpt>
<trkpt lat="46.71494716281396" lon="7.119025084795693"><ele></ele><time>2016-7-23T0:25:28Z</time></trkpt>
<trkpt lat="46.71504322177585" lon="7.118829704861063"><ele></ele><time>2016-7-23T0:25:31Z</time></trkpt>
<trkpt lat="46.71508898889777" lon="7.118662570810468"><ele></ele><time>2016-7-23T0:25:34Z</time></trkpt>
<trkpt lat="46.71516124346632" lon="7.118443050479249"><ele></ele><time>2016-7-23T0:25:37Z</time></trkpt>
<trkpt lat="46.715191167795155" lon="7.11836375837896"><ele></ele><time>2016-7-23T0:25:40Z</time></trkpt>
<trkpt lat="46.71520793202508" lon="7.11832847095632"><ele></ele><time>2016-7-23T0:25:43Z</time></trkpt>
<trkpt lat="46.71527280952054" lon="7.118198720600162"><ele></ele><time>2016-7-23T0:25:46Z</time></trkpt>
<trkpt lat="46.71540507851971" lon="7.11799118771799"><ele></ele><time>2016-7-23T0:25:49Z</time></trkpt>
<trkpt lat="46.7153989620381" lon="7.1177791255382346"><ele></ele><time>2016-7-23T0:25:52Z</time></trkpt>
<trkpt lat="46.71540030393478" lon="7.117707041236885"><ele></ele><time>2016-7-23T0:25:55Z</time></trkpt>
<trkpt lat="46.71542075606375" lon="7.117685164934749"><ele></ele><time>2016-7-23T0:25:58Z</time></trkpt>
<trkpt lat="46.71555101169196" lon="7.117633870605731"><ele></ele><time>2016-7-23T0:26:1Z</time></trkpt>
<trkpt lat="46.71561077480627" lon="7.117632866105059"><ele></ele><time>2016-7-23T0:26:4Z</time></trkpt>
<trkpt lat="46.71571957223185" lon="7.117625660088121"><ele></ele><time>2016-7-23T0:26:7Z</time></trkpt>
<trkpt lat="46.71597312573683" lon="7.117592221942399"><ele></ele><time>2016-7-23T0:26:10Z</time></trkpt>
<trkpt lat="46.71625190869355" lon="7.117571021929633"><ele></ele><time>2016-7-23T0:26:13Z</time></trkpt>
<trkpt lat="46.71637001015412" lon="7.1175545960307876"><ele></ele><time>2016-7-23T0:26:16Z</time></trkpt>
<trkpt lat="46.71637042933098" lon="7.117547219969105"><ele></ele><time>2016-7-23T0:26:19Z</time></trkpt>
<trkpt lat="46.71639775440034" lon="7.117546885300023"><ele></ele><time>2016-7-23T0:26:22Z</time></trkpt>
<trkpt lat="46.716406555323886" lon="7.117555518851304"><ele></ele><time>2016-7-23T0:26:25Z</time></trkpt>
<trkpt lat="46.71642943805535" lon="7.1175478080125725"><ele></ele><time>2016-7-23T0:26:28Z</time></trkpt>
<trkpt lat="46.71649221887225" lon="7.117527609030688"><ele></ele><time>2016-7-23T0:26:31Z</time></trkpt>
<trkpt lat="46.716699923037126" lon="7.117515040795526"><ele></ele><time>2016-7-23T0:26:34Z</time></trkpt>
<trkpt lat="46.71683151984696" lon="7.117457124797574"><ele></ele><time>2016-7-23T0:26:37Z</time></trkpt>
<trkpt lat="46.71700561328991" lon="7.1173728905815965"><ele></ele><time>2016-7-23T0:26:40Z</time></trkpt>
<trkpt lat="46.71706101845362" lon="7.1173127097790605"><ele></ele><time>2016-7-23T0:26:43Z</time></trkpt>
<trkpt lat="46.71709789995061" lon="7.117217743685231"><ele></ele><time>2016-7-23T0:26:46Z</time></trkpt>
<trkpt lat="46.717122963028515" lon="7.117114479249166"><ele></ele><time>2016-7-23T0:26:49Z</time></trkpt>
<trkpt lat="46.7171495354116" lon="7.116960169083224"><ele></ele><time>2016-7-23T0:26:52Z</time></trkpt>
<trkpt lat="46.71727258600156" lon="7.116597403239232"><ele></ele><time>2016-7-23T0:26:55Z</time></trkpt>
<trkpt lat="46.71742949742125" lon="7.116429601113686"><ele></ele><time>2016-7-23T0:26:58Z</time></trkpt>
<trkpt lat="46.71747341942035" lon="7.116363217451958"><ele></ele><time>2016-7-23T0:27:1Z</time></trkpt>
<trkpt lat="46.71748414896953" lon="7.116300353449993"><ele></ele><time>2016-7-23T0:27:4Z</time></trkpt>
<trkpt lat="46.717421788321836" lon="7.1162225680436215"><ele></ele><time>2016-7-23T0:27:7Z</time></trkpt>
<trkpt lat="46.71728650405939" lon="7.116226253071905"><ele></ele><time>2016-7-23T0:27:10Z</time></trkpt>
<trkpt lat="46.71720871950857" lon="7.116254917436633"><ele></ele><time>2016-7-23T0:27:13Z</time></trkpt>
<trkpt lat="46.717044851986515" lon="7.11634124735161"><ele></ele><time>2016-7-23T0:27:16Z</time></trkpt>
<trkpt lat="46.716879475634265" lon="7.116435288580358"><ele></ele><time>2016-7-23T0:27:19Z</time></trkpt>
<trkpt lat="46.716795824160904" lon="7.116425396080593"><ele></ele><time>2016-7-23T0:27:22Z</time></trkpt>
<trkpt lat="46.716685267218566" lon="7.1163698216342555"><ele></ele><time>2016-7-23T0:27:25Z</time></trkpt>
<trkpt lat="46.71660630984213" lon="7.116339812681539"><ele></ele><time>2016-7-23T0:27:28Z</time></trkpt>
<trkpt lat="46.716401539975614" lon="7.116295300247338"><ele></ele><time>2016-7-23T0:27:31Z</time></trkpt>
<trkpt lat="46.71635963071477" lon="7.116263448100164"><ele></ele><time>2016-7-23T0:27:34Z</time></trkpt>
<trkpt lat="46.71625435567829" lon="7.116089772815586"><ele></ele><time>2016-7-23T0:27:37Z</time></trkpt>
<trkpt lat="46.71616475424999" lon="7.115969574393818"><ele></ele><time>2016-7-23T0:27:40Z</time></trkpt>
<trkpt lat="46.71613374133903" lon="7.115951301164791"><ele></ele><time>2016-7-23T0:27:43Z</time></trkpt>
<trkpt lat="46.71602377107334" lon="7.115901091145586"><ele></ele><time>2016-7-23T0:27:46Z</time></trkpt>
<trkpt lat="46.7159057542408" lon="7.115843756333263"><ele></ele><time>2016-7-23T0:27:49Z</time></trkpt>
<trkpt lat="46.71582143243047" lon="7.115814166355353"><ele></ele><time>2016-7-23T0:27:52Z</time></trkpt>
<trkpt lat="46.71581623584102" lon="7.115795726062184"><ele></ele><time>2016-7-23T0:27:55Z</time></trkpt>
<trkpt lat="46.71574540897561" lon="7.115761526339818"><ele></ele><time>2016-7-23T0:27:58Z</time></trkpt>
<trkpt lat="46.715731830796024" lon="7.115712827205126"><ele></ele><time>2016-7-23T0:28:1Z</time></trkpt>
<trkpt lat="46.71573124398796" lon="7.115719532711223"><ele></ele><time>2016-7-23T0:28:4Z</time></trkpt>
<trkpt lat="46.71573208335655" lon="7.115612244423559"><ele></ele><time>2016-7-23T0:28:7Z</time></trkpt>
<trkpt lat="46.71573057715672" lon="7.11538006578964"><ele></ele><time>2016-7-23T0:28:10Z</time></trkpt>
<trkpt lat="46.71572613693067" lon="7.115180157401345"><ele></ele><time>2016-7-23T0:28:13Z</time></trkpt>
<trkpt lat="46.7157157449666" lon="7.115032551929976"><ele></ele><time>2016-7-23T0:28:16Z</time></trkpt>
<trkpt lat="46.71567543020724" lon="7.114824260844576"><ele></ele><time>2016-7-23T0:28:19Z</time></trkpt>
<trkpt lat="46.7156384691727" lon="7.114528881903543"><ele></ele><time>2016-7-23T0:28:22Z</time></trkpt>
<trkpt lat="46.71554685815519" lon="7.114220090707625"><ele></ele><time>2016-7-23T0:28:25Z</time></trkpt>
<trkpt lat="46.715438566599545" lon="7.11395815395484"><ele></ele><time>2016-7-23T0:28:28Z</time></trkpt>
<trkpt lat="46.71542884449315" lon="7.113874083291787"><ele></ele><time>2016-7-23T0:28:31Z</time></trkpt>
<trkpt lat="46.715377972158706" lon="7.113333952589469"><ele></ele><time>2016-7-23T0:28:34Z</time></trkpt>
<trkpt lat="46.715316283854214" lon="7.113093558353027"><ele></ele><time>2016-7-23T0:28:37Z</time></trkpt>
<trkpt lat="46.71527948812691" lon="7.113010744371569"><ele></ele><time>2016-7-23T0:28:40Z</time></trkpt>
<trkpt lat="46.715037925289245" lon="7.1126329668029"><ele></ele><time>2016-7-23T0:28:43Z</time></trkpt>
<trkpt lat="46.7149896462557" lon="7.1125568580842735"><ele></ele><time>2016-7-23T0:28:46Z</time></trkpt>
<trkpt lat="46.71483793610575" lon="7.11231704857297"><ele></ele><time>2016-7-23T0:28:49Z</time></trkpt>
<trkpt lat="46.714783873367665" lon="7.112257200609191"><ele></ele><time>2016-7-23T0:28:52Z</time></trkpt>
<trkpt lat="46.71465135676724" lon="7.112113112811577"><ele></ele><time>2016-7-23T0:28:55Z</time></trkpt>
<trkpt lat="46.71461699145814" lon="7.112061228090566"><ele></ele><time>2016-7-23T0:28:58Z</time></trkpt>
<trkpt lat="46.714553290132244" lon="7.111944802092885"><ele></ele><time>2016-7-23T0:29:1Z</time></trkpt>
<trkpt lat="46.71449629469422" lon="7.111796525027965"><ele></ele><time>2016-7-23T0:29:4Z</time></trkpt>
<trkpt lat="46.714469390582536" lon="7.111627629161827"><ele></ele><time>2016-7-23T0:29:7Z</time></trkpt>
<trkpt lat="46.71446905549558" lon="7.111610362442253"><ele></ele><time>2016-7-23T0:29:10Z</time></trkpt>
<trkpt lat="46.71448305434305" lon="7.111515982570672"><ele></ele><time>2016-7-23T0:29:13Z</time></trkpt>
<trkpt lat="46.71444441498801" lon="7.111397377837264"><ele></ele><time>2016-7-23T0:29:16Z</time></trkpt>
<trkpt lat="46.71434098329168" lon="7.111286566825293"><ele></ele><time>2016-7-23T0:29:19Z</time></trkpt>
<trkpt lat="46.71425372867237" lon="7.111178689838395"><ele></ele><time>2016-7-23T0:29:22Z</time></trkpt>
<trkpt lat="46.714238809284964" lon="7.11113929457993"><ele></ele><time>2016-7-23T0:29:25Z</time></trkpt>
<trkpt lat="46.71421014383079" lon="7.111073998946676"><ele></ele><time>2016-7-23T0:29:28Z</time></trkpt>
<trkpt lat="46.714196565716904" lon="7.111019516299668"><ele></ele><time>2016-7-23T0:29:31Z</time></trkpt>
<trkpt lat="46.71417108549454" lon="7.1109450006483375"><ele></ele><time>2016-7-23T0:29:34Z</time></trkpt>
<trkpt lat="46.71405784859695" lon="7.110684572517171"><ele></ele><time>2016-7-23T0:29:37Z</time></trkpt>
<trkpt lat="46.71391535640813" lon="7.110640815825501"><ele></ele><time>2016-7-23T0:29:40Z</time></trkpt>
<trkpt lat="46.7136957497348" lon="7.110670147574411"><ele></ele><time>2016-7-23T0:29:43Z</time></trkpt>
<trkpt lat="46.713501456616" lon="7.11068581739242"><ele></ele><time>2016-7-23T0:29:46Z</time></trkpt>
<trkpt lat="46.71347622717728" lon="7.110672573428983"><ele></ele><time>2016-7-23T0:29:49Z</time></trkpt>
<trkpt lat="46.71344554951067" lon="7.1106574015072"><ele></ele><time>2016-7-23T0:29:52Z</time></trkpt>
<trkpt lat="46.71344647154882" lon="7.1106549707769995"><ele></ele><time>2016-7-23T0:29:55Z</time></trkpt>
<trkpt lat="46.7134718695614" lon="7.1105832222863405"><ele></ele><time>2016-7-23T0:29:58Z</time></trkpt>
<trkpt lat="46.71349366261791" lon="7.110577774537957"><ele></ele><time>2016-7-23T0:30:1Z</time></trkpt>
<trkpt lat="46.71364336392956" lon="7.11056059498375"><ele></ele><time>2016-7-23T0:30:4Z</time></trkpt>
<trkpt lat="46.71387453849165" lon="7.110455239667884"><ele></ele><time>2016-7-23T0:30:7Z</time></trkpt>
<trkpt lat="46.71404209363127" lon="7.11040771803747"><ele></ele><time>2016-7-23T0:30:10Z</time></trkpt>
<trkpt lat="46.714108059034686" lon="7.110436888517964"><ele></ele><time>2016-7-23T0:30:13Z</time></trkpt>
<trkpt lat="46.71427644950312" lon="7.110649541054588"><ele></ele><time>2016-7-23T0:30:16Z</time></trkpt>
<trkpt lat="46.71450124870586" lon="7.111007620797231"><ele></ele><time>2016-7-23T0:30:19Z</time></trkpt>
<trkpt lat="46.71456201672612" lon="7.111090602953136"><ele></ele><time>2016-7-23T0:30:22Z</time></trkpt>
<trkpt lat="46.7148433098702" lon="7.111468129958226"><ele></ele><time>2016-7-23T0:30:25Z</time></trkpt>
<trkpt lat="46.71490667656055" lon="7.111526217931167"><ele></ele><time>2016-7-23T0:30:28Z</time></trkpt>
<trkpt lat="46.71512837734675" lon="7.111621441246164"><ele></ele><time>2016-7-23T0:30:31Z</time></trkpt>
<trkpt lat="46.71519668955654" lon="7.111662681712007"><ele></ele><time>2016-7-23T0:30:34Z</time></trkpt>
<trkpt lat="46.71529919878825" lon="7.1118148154635925"><ele></ele><time>2016-7-23T0:30:37Z</time></trkpt>
<trkpt lat="46.71538686969258" lon="7.1121785080141375"><ele></ele><time>2016-7-23T0:30:40Z</time></trkpt>
<trkpt lat="46.715554590999005" lon="7.112265012948825"><ele></ele><time>2016-7-23T0:30:43Z</time></trkpt>
<trkpt lat="46.71582549406139" lon="7.112324530467658"><ele></ele><time>2016-7-23T0:30:46Z</time></trkpt>
<trkpt lat="46.715898919422074" lon="7.112349593981481"><ele></ele><time>2016-7-23T0:30:49Z</time></trkpt>
<trkpt lat="46.71596790208412" lon="7.112400138368936"><ele></ele><time>2016-7-23T0:30:52Z</time></trkpt>
<trkpt lat="46.71602766291957" lon="7.112606502051348"><ele></ele><time>2016-7-23T0:30:55Z</time></trkpt>
<trkpt lat="46.71594962399248" lon="7.112900788783416"><ele></ele><time>2016-7-23T0:30:58Z</time></trkpt>
<trkpt lat="46.71601516611663" lon="7.113310916556464"><ele></ele><time>2016-7-23T0:31:1Z</time></trkpt>
<trkpt lat="46.71611163914221" lon="7.113574613243789"><ele></ele><time>2016-7-23T0:31:4Z</time></trkpt>
<trkpt lat="46.71620769370737" lon="7.113780474818842"><ele></ele><time>2016-7-23T0:31:7Z</time></trkpt>
<trkpt lat="46.71645881428232" lon="7.113945100902661"><ele></ele><time>2016-7-23T0:31:10Z</time></trkpt>
<trkpt lat="46.71667272049175" lon="7.113985171140557"><ele></ele><time>2016-7-23T0:31:13Z</time></trkpt>
<trkpt lat="46.71687564627796" lon="7.114034880317451"><ele></ele><time>2016-7-23T0:31:16Z</time></trkpt>
<trkpt lat="46.71727403700529" lon="7.11421954241471"><ele></ele><time>2016-7-23T0:31:19Z</time></trkpt>
<trkpt lat="46.717362464251686" lon="7.114404616707001"><ele></ele><time>2016-7-23T0:31:22Z</time></trkpt>
<trkpt lat="46.71748232311204" lon="7.114643838764014"><ele></ele><time>2016-7-23T0:31:25Z</time></trkpt>
<trkpt lat="46.71756354267692" lon="7.11475867258364"><ele></ele><time>2016-7-23T0:31:28Z</time></trkpt>
<trkpt lat="46.717894548386454" lon="7.114430025701067"><ele></ele><time>2016-7-23T0:31:31Z</time></trkpt>
<trkpt lat="46.71779723806954" lon="7.114083934938604"><ele></ele><time>2016-7-23T0:31:34Z</time></trkpt>
<trkpt lat="46.71774871139067" lon="7.113660396517343"><ele></ele><time>2016-7-23T0:31:37Z</time></trkpt>
<trkpt lat="46.7177455274863" lon="7.1135487495558145"><ele></ele><time>2016-7-23T0:31:40Z</time></trkpt>
<trkpt lat="46.71776640288198" lon="7.113147257073174"><ele></ele><time>2016-7-23T0:31:43Z</time></trkpt>
<trkpt lat="46.71787084730408" lon="7.112630934440517"><ele></ele><time>2016-7-23T0:31:46Z</time></trkpt>
<trkpt lat="46.71794310192008" lon="7.112408229002521"><ele></ele><time>2016-7-23T0:31:49Z</time></trkpt>
<trkpt lat="46.71807134815676" lon="7.112150907571307"><ele></ele><time>2016-7-23T0:31:52Z</time></trkpt>
<trkpt lat="46.718179896075355" lon="7.111966508220181"><ele></ele><time>2016-7-23T0:31:55Z</time></trkpt>
<trkpt lat="46.718244353892324" lon="7.1118904858362"><ele></ele><time>2016-7-23T0:31:58Z</time></trkpt>
<trkpt lat="46.71836949759885" lon="7.111744140675635"><ele></ele><time>2016-7-23T0:32:1Z</time></trkpt>
<trkpt lat="46.7184391520271" lon="7.111684546929197"><ele></ele><time>2016-7-23T0:32:4Z</time></trkpt>
<trkpt lat="46.71885632319541" lon="7.111420610243227"><ele></ele><time>2016-7-23T0:32:7Z</time></trkpt>
<trkpt lat="46.71910141120651" lon="7.111365462815493"><ele></ele><time>2016-7-23T0:32:10Z</time></trkpt>
<trkpt lat="46.719221942735025" lon="7.111412068858851"><ele></ele><time>2016-7-23T0:32:13Z</time></trkpt>
<trkpt lat="46.71931758011149" lon="7.11144442511954"><ele></ele><time>2016-7-23T0:32:16Z</time></trkpt>
<trkpt lat="46.7194700477107" lon="7.111404949777141"><ele></ele><time>2016-7-23T0:32:19Z</time></trkpt>
<trkpt lat="46.71959644622294" lon="7.111484496812066"><ele></ele><time>2016-7-23T0:32:22Z</time></trkpt>
<trkpt lat="46.71971420999587" lon="7.111687676656588"><ele></ele><time>2016-7-23T0:32:25Z</time></trkpt>
<trkpt lat="46.7197892261935" lon="7.111870152258389"><ele></ele><time>2016-7-23T0:32:28Z</time></trkpt>
<trkpt lat="46.71987622884156" lon="7.112025219319047"><ele></ele><time>2016-7-23T0:32:31Z</time></trkpt>
<trkpt lat="46.72002349799835" lon="7.112135947479778"><ele></ele><time>2016-7-23T0:32:34Z</time></trkpt>
<trkpt lat="46.72014470019073" lon="7.112172662896124"><ele></ele><time>2016-7-23T0:32:37Z</time></trkpt>
<trkpt lat="46.72032910261719" lon="7.11216026179628"><ele></ele><time>2016-7-23T0:32:40Z</time></trkpt>
<trkpt lat="46.720486012531374" lon="7.112130341916172"><ele></ele><time>2016-7-23T0:32:43Z</time></trkpt>
<trkpt lat="46.72061811182586" lon="7.112112239959917"><ele></ele><time>2016-7-23T0:32:46Z</time></trkpt>
<trkpt lat="46.7207894382866" lon="7.112115093623907"><ele></ele><time>2016-7-23T0:32:49Z</time></trkpt>
<trkpt lat="46.72092162093261" lon="7.112139571713129"><ele></ele><time>2016-7-23T0:32:52Z</time></trkpt>
<trkpt lat="46.72107827863906" lon="7.112177964298959"><ele></ele><time>2016-7-23T0:32:55Z</time></trkpt>
<trkpt lat="46.72123577461447" lon="7.112209399927742"><ele></ele><time>2016-7-23T0:32:58Z</time></trkpt>
<trkpt lat="46.721406346509724" lon="7.1122298555610906"><ele></ele><time>2016-7-23T0:33:1Z</time></trkpt>
<trkpt lat="46.72157197369107" lon="7.1121939009089425"><ele></ele><time>2016-7-23T0:33:4Z</time></trkpt>
<trkpt lat="46.721732991452" lon="7.112100027237471"><ele></ele><time>2016-7-23T0:33:7Z</time></trkpt>
<trkpt lat="46.72184631641943" lon="7.11197480420402"><ele></ele><time>2016-7-23T0:33:10Z</time></trkpt>
<trkpt lat="46.72193147811398" lon="7.111850837827865"><ele></ele><time>2016-7-23T0:33:13Z</time></trkpt>
<trkpt lat="46.72203466179906" lon="7.111648920200589"><ele></ele><time>2016-7-23T0:33:16Z</time></trkpt>
<trkpt lat="46.72211194555813" lon="7.111427555992579"><ele></ele><time>2016-7-23T0:33:19Z</time></trkpt>
<trkpt lat="46.72214564299468" lon="7.111235862732558"><ele></ele><time>2016-7-23T0:33:22Z</time></trkpt>
<trkpt lat="46.722202894701375" lon="7.1109471076172"><ele></ele><time>2016-7-23T0:33:25Z</time></trkpt>
<trkpt lat="46.722195102442626" lon="7.110680898357296"><ele></ele><time>2016-7-23T0:33:28Z</time></trkpt>
<trkpt lat="46.72212947448614" lon="7.110454082728317"><ele></ele><time>2016-7-23T0:33:31Z</time></trkpt>
<trkpt lat="46.721966113367415" lon="7.1102224872359985"><ele></ele><time>2016-7-23T0:33:34Z</time></trkpt>
<trkpt lat="46.72178297098637" lon="7.109984185782566"><ele></ele><time>2016-7-23T0:33:37Z</time></trkpt>
<trkpt lat="46.72170544128039" lon="7.109704815384056"><ele></ele><time>2016-7-23T0:33:40Z</time></trkpt>
<trkpt lat="46.721735955249855" lon="7.1093623317034815"><ele></ele><time>2016-7-23T0:33:43Z</time></trkpt>
<trkpt lat="46.72188457021404" lon="7.109046421277974"><ele></ele><time>2016-7-23T0:33:46Z</time></trkpt>
<trkpt lat="46.72209127238558" lon="7.10868659100472"><ele></ele><time>2016-7-23T0:33:49Z</time></trkpt>
<trkpt lat="46.72223343334283" lon="7.10836422637642"><ele></ele><time>2016-7-23T0:33:52Z</time></trkpt>
<trkpt lat="46.72226813808417" lon="7.108039260959745"><ele></ele><time>2016-7-23T0:33:55Z</time></trkpt>
<trkpt lat="46.72219932604471" lon="7.107717897445933"><ele></ele><time>2016-7-23T0:33:58Z</time></trkpt>
<trkpt lat="46.72203060149283" lon="7.107396364059998"><ele></ele><time>2016-7-23T0:34:1Z</time></trkpt>
<trkpt lat="46.721785098877945" lon="7.107043564475481"><ele></ele><time>2016-7-23T0:34:4Z</time></trkpt>
<trkpt lat="46.721502464880516" lon="7.106642568143166"><ele></ele><time>2016-7-23T0:34:7Z</time></trkpt>
<trkpt lat="46.721254363956426" lon="7.10628222478696"><ele></ele><time>2016-7-23T0:34:10Z</time></trkpt>
<trkpt lat="46.72105873511368" lon="7.105809062251064"><ele></ele><time>2016-7-23T0:34:13Z</time></trkpt>
<trkpt lat="46.720928737099015" lon="7.105302038312364"><ele></ele><time>2016-7-23T0:34:16Z</time></trkpt>
<trkpt lat="46.72076085419207" lon="7.104668865953439"><ele></ele><time>2016-7-23T0:34:19Z</time></trkpt>
<trkpt lat="46.72053840602668" lon="7.10394055782271"><ele></ele><time>2016-7-23T0:34:22Z</time></trkpt>
<trkpt lat="46.72039952189203" lon="7.103550209703406"><ele></ele><time>2016-7-23T0:34:25Z</time></trkpt>
<trkpt lat="46.720280251371626" lon="7.103167573368722"><ele></ele><time>2016-7-23T0:34:28Z</time></trkpt>
<trkpt lat="46.72015972541428" lon="7.102617801950161"><ele></ele><time>2016-7-23T0:34:31Z</time></trkpt>
<trkpt lat="46.72005303095224" lon="7.101948756425285"><ele></ele><time>2016-7-23T0:34:34Z</time></trkpt>
<trkpt lat="46.72002310809792" lon="7.101893854319384"><ele></ele><time>2016-7-23T0:34:37Z</time></trkpt>
<trkpt lat="46.719943899616055" lon="7.101832161770176"><ele></ele><time>2016-7-23T0:34:40Z</time></trkpt>
<trkpt lat="46.7198309108411" lon="7.101873984909024"><ele></ele><time>2016-7-23T0:34:43Z</time></trkpt>
<trkpt lat="46.71979822119494" lon="7.101887479032307"><ele></ele><time>2016-7-23T0:34:46Z</time></trkpt>
<trkpt lat="46.71955975439201" lon="7.101988224103309"><ele></ele><time>2016-7-23T0:34:49Z</time></trkpt>
<trkpt lat="46.71939990951858" lon="7.102134233190215"><ele></ele><time>2016-7-23T0:34:52Z</time></trkpt>
<trkpt lat="46.71940787193441" lon="7.102171281360185"><ele></ele><time>2016-7-23T0:34:55Z</time></trkpt>
<trkpt lat="46.71937107443091" lon="7.102249399829083"><ele></ele><time>2016-7-23T0:34:58Z</time></trkpt>
<trkpt lat="46.71934802405206" lon="7.102257781210696"><ele></ele><time>2016-7-23T0:35:1Z</time></trkpt>
<trkpt lat="46.71925414616996" lon="7.102289714138891"><ele></ele><time>2016-7-23T0:35:4Z</time></trkpt>
<trkpt lat="46.71908927336535" lon="7.102325417329552"><ele></ele><time>2016-7-23T0:35:7Z</time></trkpt>
<trkpt lat="46.71890344561361" lon="7.102373944355327"><ele></ele><time>2016-7-23T0:35:10Z</time></trkpt>
<trkpt lat="46.718767407071866" lon="7.102368995984802"><ele></ele><time>2016-7-23T0:35:13Z</time></trkpt>
<trkpt lat="46.71872449350346" lon="7.102199848309094"><ele></ele><time>2016-7-23T0:35:16Z</time></trkpt>
<trkpt lat="46.71860346251265" lon="7.101841854705746"><ele></ele><time>2016-7-23T0:35:19Z</time></trkpt>
<trkpt lat="46.71842694416259" lon="7.101396855748654"><ele></ele><time>2016-7-23T0:35:22Z</time></trkpt>
<trkpt lat="46.71819259080746" lon="7.100928805270163"><ele></ele><time>2016-7-23T0:35:25Z</time></trkpt>
</trkseg></trk></gpx>